<?xml version="1.0" encoding="UTF-8" standalone="no" ?>
<gpx xmlns="http://www.topografix.com/GPX/1/1" xmlns:xsi="http://www.w3.org/2001/XMLSchema-instance" xsi:schemaLocation="http://www.topografix.com/GPX/1/1 http://www.topografix.com/GPX/1/1/gpx.xsd" version="1.1" creator="VisuGPX - https://www.visugpx.com">
  <metadata>
    <name>Balade hivernale</name>
    <desc><![CDATA[Balade effectuée du 9 décembre 2022 au 7 janvier 2023.]]></desc>
  </metadata>
  <trk>
    <name><![CDATA[Jard sur mer - La Rochelle]]></name>
    <extensions>
      <line xmlns="http://www.topografix.com/GPX/gpx_style/0/2">
        <color>0000ff</color>
        <width>4</width>
      </line>
    </extensions>
    <trkseg>
      <trkpt lat="46.41205" lon="-1.58247">
        <ele>61.469893</ele>
        <time>2022-12-19T08:17:10.875Z</time>
      </trkpt>
      <trkpt lat="46.41215" lon="-1.58232">
        <ele>61.469893</ele>
        <time>2022-12-19T08:17:26.315Z</time>
      </trkpt>
      <trkpt lat="46.4122" lon="-1.58221">
        <ele>61.469893</ele>
        <time>2022-12-19T08:17:30.324Z</time>
      </trkpt>
      <trkpt lat="46.41224" lon="-1.58206">
        <ele>61.469893</ele>
        <time>2022-12-19T08:17:35.304Z</time>
      </trkpt>
      <trkpt lat="46.41227" lon="-1.58192">
        <ele>61.469893</ele>
        <time>2022-12-19T08:17:39.314Z</time>
      </trkpt>
      <trkpt lat="46.41229" lon="-1.58176">
        <ele>61.469893</ele>
        <time>2022-12-19T08:17:43.328Z</time>
      </trkpt>
      <trkpt lat="46.41231" lon="-1.5816">
        <ele>61.469893</ele>
        <time>2022-12-19T08:17:47.323Z</time>
      </trkpt>
      <trkpt lat="46.41233" lon="-1.58143">
        <ele>61.469893</ele>
        <time>2022-12-19T08:17:51.315Z</time>
      </trkpt>
      <trkpt lat="46.41234" lon="-1.58129">
        <ele>61.469893</ele>
        <time>2022-12-19T08:17:54.312Z</time>
      </trkpt>
      <trkpt lat="46.41234" lon="-1.58115">
        <ele>61.492567</ele>
        <time>2022-12-19T08:17:57.327Z</time>
      </trkpt>
      <trkpt lat="46.41234" lon="-1.58101">
        <ele>61.517782</ele>
        <time>2022-12-19T08:18:00.318Z</time>
      </trkpt>
      <trkpt lat="46.41244" lon="-1.58096">
        <ele>61.547379</ele>
        <time>2022-12-19T08:18:09.303Z</time>
      </trkpt>
      <trkpt lat="46.41252" lon="-1.58089">
        <ele>61.572354</ele>
        <time>2022-12-19T08:18:13.306Z</time>
      </trkpt>
      <trkpt lat="46.4126" lon="-1.58079">
        <ele>61.600707</ele>
        <time>2022-12-19T08:18:17.308Z</time>
      </trkpt>
      <trkpt lat="46.41269" lon="-1.5807">
        <ele>61.63032</ele>
        <time>2022-12-19T08:18:21.304Z</time>
      </trkpt>
      <trkpt lat="46.41278" lon="-1.5806">
        <ele>61.659911</ele>
        <time>2022-12-19T08:18:25.323Z</time>
      </trkpt>
      <trkpt lat="46.41286" lon="-1.58051">
        <ele>61.686882</ele>
        <time>2022-12-19T08:18:29.302Z</time>
      </trkpt>
      <trkpt lat="46.41293" lon="-1.58043">
        <ele>61.712966</ele>
        <time>2022-12-19T08:18:33.321Z</time>
      </trkpt>
      <trkpt lat="46.41303" lon="-1.58034">
        <ele>61.743486</ele>
        <time>2022-12-19T08:18:38.299Z</time>
      </trkpt>
      <trkpt lat="46.4131" lon="-1.58025">
        <ele>61.769344</ele>
        <time>2022-12-19T08:18:42.318Z</time>
      </trkpt>
      <trkpt lat="46.41318" lon="-1.58017">
        <ele>61.795888</ele>
        <time>2022-12-19T08:18:46.295Z</time>
      </trkpt>
      <trkpt lat="46.41326" lon="-1.58007">
        <ele>61.824933</ele>
        <time>2022-12-19T08:18:50.317Z</time>
      </trkpt>
      <trkpt lat="46.41336" lon="-1.57999">
        <ele>61.853745</ele>
        <time>2022-12-19T08:18:54.318Z</time>
      </trkpt>
      <trkpt lat="46.41344" lon="-1.57993">
        <ele>61.878573</ele>
        <time>2022-12-19T08:18:57.309Z</time>
      </trkpt>
      <trkpt lat="46.41353" lon="-1.57983">
        <ele>61.910593</ele>
        <time>2022-12-19T08:19:00.314Z</time>
      </trkpt>
      <trkpt lat="46.41364" lon="-1.57974">
        <ele>61.944464</ele>
        <time>2022-12-19T08:19:03.324Z</time>
      </trkpt>
      <trkpt lat="46.41372" lon="-1.57967">
        <ele>61.934795</ele>
        <time>2022-12-19T08:19:05.316Z</time>
      </trkpt>
      <trkpt lat="46.4138" lon="-1.5796">
        <ele>61.884893</ele>
        <time>2022-12-19T08:19:07.324Z</time>
      </trkpt>
      <trkpt lat="46.41389" lon="-1.57953">
        <ele>61.836984</ele>
        <time>2022-12-19T08:19:09.313Z</time>
      </trkpt>
      <trkpt lat="46.41397" lon="-1.57947">
        <ele>61.790769</ele>
        <time>2022-12-19T08:19:11.306Z</time>
      </trkpt>
      <trkpt lat="46.41409" lon="-1.57939">
        <ele>61.72687</ele>
        <time>2022-12-19T08:19:14.324Z</time>
      </trkpt>
      <trkpt lat="46.41419" lon="-1.57931">
        <ele>61.668641</ele>
        <time>2022-12-19T08:19:17.314Z</time>
      </trkpt>
      <trkpt lat="46.41428" lon="-1.57925">
        <ele>61.618395</ele>
        <time>2022-12-19T08:19:20.322Z</time>
      </trkpt>
      <trkpt lat="46.41436" lon="-1.57918">
        <ele>61.571255</ele>
        <time>2022-12-19T08:19:23.310Z</time>
      </trkpt>
      <trkpt lat="46.41444" lon="-1.57911">
        <ele>61.524068</ele>
        <time>2022-12-19T08:19:26.317Z</time>
      </trkpt>
      <trkpt lat="46.41452" lon="-1.57903">
        <ele>61.476882</ele>
        <time>2022-12-19T08:19:29.324Z</time>
      </trkpt>
      <trkpt lat="46.41459" lon="-1.57894">
        <ele>61.430655</ele>
        <time>2022-12-19T08:19:32.305Z</time>
      </trkpt>
      <trkpt lat="46.41466" lon="-1.57882">
        <ele>61.374001</ele>
        <time>2022-12-19T08:19:36.326Z</time>
      </trkpt>
      <trkpt lat="46.41473" lon="-1.57871">
        <ele>61.322334</ele>
        <time>2022-12-19T08:19:41.324Z</time>
      </trkpt>
      <trkpt lat="46.41481" lon="-1.57864">
        <ele>61.277155</ele>
        <time>2022-12-19T08:19:48.305Z</time>
      </trkpt>
      <trkpt lat="46.41486" lon="-1.57879">
        <ele>61.220177</ele>
        <time>2022-12-19T08:19:54.304Z</time>
      </trkpt>
      <trkpt lat="46.41493" lon="-1.57892">
        <ele>61.162274</ele>
        <time>2022-12-19T08:19:58.326Z</time>
      </trkpt>
      <trkpt lat="46.41501" lon="-1.57904">
        <ele>61.103949</ele>
        <time>2022-12-19T08:20:02.325Z</time>
      </trkpt>
      <trkpt lat="46.41508" lon="-1.57911">
        <ele>61.059001</ele>
        <time>2022-12-19T08:20:05.298Z</time>
      </trkpt>
      <trkpt lat="46.41517" lon="-1.57917">
        <ele>61.057304</ele>
        <time>2022-12-19T08:20:08.297Z</time>
      </trkpt>
      <trkpt lat="46.41527" lon="-1.57923">
        <ele>61.056538</ele>
        <time>2022-12-19T08:20:11.315Z</time>
      </trkpt>
      <trkpt lat="46.41537" lon="-1.57928">
        <ele>61.055792</ele>
        <time>2022-12-19T08:20:14.324Z</time>
      </trkpt>
      <trkpt lat="46.41545" lon="-1.57933">
        <ele>61.0551</ele>
        <time>2022-12-19T08:20:17.319Z</time>
      </trkpt>
      <trkpt lat="46.41555" lon="-1.57938">
        <ele>61.054359</ele>
        <time>2022-12-19T08:20:21.325Z</time>
      </trkpt>
      <trkpt lat="46.41565" lon="-1.57945">
        <ele>61.053564</ele>
        <time>2022-12-19T08:20:25.304Z</time>
      </trkpt>
      <trkpt lat="46.41576" lon="-1.57952">
        <ele>61.052704</ele>
        <time>2022-12-19T08:20:29.324Z</time>
      </trkpt>
      <trkpt lat="46.41586" lon="-1.57956">
        <ele>61.051888</ele>
        <time>2022-12-19T08:20:33.323Z</time>
      </trkpt>
      <trkpt lat="46.41597" lon="-1.57963">
        <ele>61.051057</ele>
        <time>2022-12-19T08:20:37.327Z</time>
      </trkpt>
      <trkpt lat="46.41605" lon="-1.5797">
        <ele>61.050344</ele>
        <time>2022-12-19T08:20:41.301Z</time>
      </trkpt>
      <trkpt lat="46.41613" lon="-1.57978">
        <ele>61.049675</ele>
        <time>2022-12-19T08:20:45.306Z</time>
      </trkpt>
      <trkpt lat="46.4162" lon="-1.57988">
        <ele>61.048907</ele>
        <time>2022-12-19T08:20:50.317Z</time>
      </trkpt>
      <trkpt lat="46.41627" lon="-1.57998">
        <ele>61.048204</ele>
        <time>2022-12-19T08:20:54.324Z</time>
      </trkpt>
      <trkpt lat="46.41634" lon="-1.58008">
        <ele>61.047487</ele>
        <time>2022-12-19T08:20:57.320Z</time>
      </trkpt>
      <trkpt lat="46.41642" lon="-1.58021">
        <ele>61.04663</ele>
        <time>2022-12-19T08:21:00.315Z</time>
      </trkpt>
      <trkpt lat="46.41651" lon="-1.58034">
        <ele>61.045679</ele>
        <time>2022-12-19T08:21:03.321Z</time>
      </trkpt>
      <trkpt lat="46.41657" lon="-1.58044">
        <ele>61.045005</ele>
        <time>2022-12-19T08:21:05.325Z</time>
      </trkpt>
      <trkpt lat="46.41665" lon="-1.58054">
        <ele>61.002367</ele>
        <time>2022-12-19T08:21:07.311Z</time>
      </trkpt>
      <trkpt lat="46.41672" lon="-1.58065">
        <ele>60.947433</ele>
        <time>2022-12-19T08:21:09.317Z</time>
      </trkpt>
      <trkpt lat="46.41679" lon="-1.58076">
        <ele>60.892651</ele>
        <time>2022-12-19T08:21:11.318Z</time>
      </trkpt>
      <trkpt lat="46.41687" lon="-1.58087">
        <ele>60.835389</ele>
        <time>2022-12-19T08:21:13.317Z</time>
      </trkpt>
      <trkpt lat="46.41695" lon="-1.58098">
        <ele>60.778622</ele>
        <time>2022-12-19T08:21:15.324Z</time>
      </trkpt>
      <trkpt lat="46.41703" lon="-1.58109">
        <ele>60.722099</ele>
        <time>2022-12-19T08:21:17.330Z</time>
      </trkpt>
      <trkpt lat="46.41711" lon="-1.5812">
        <ele>60.663225</ele>
        <time>2022-12-19T08:21:19.322Z</time>
      </trkpt>
      <trkpt lat="46.41719" lon="-1.58131">
        <ele>60.605934</ele>
        <time>2022-12-19T08:21:21.325Z</time>
      </trkpt>
      <trkpt lat="46.41727" lon="-1.58142">
        <ele>60.549292</ele>
        <time>2022-12-19T08:21:23.312Z</time>
      </trkpt>
      <trkpt lat="46.41735" lon="-1.58152">
        <ele>60.497098</ele>
        <time>2022-12-19T08:21:25.301Z</time>
      </trkpt>
      <trkpt lat="46.41742" lon="-1.58162">
        <ele>60.445567</ele>
        <time>2022-12-19T08:21:27.324Z</time>
      </trkpt>
      <trkpt lat="46.41749" lon="-1.58171">
        <ele>60.396398</ele>
        <time>2022-12-19T08:21:29.317Z</time>
      </trkpt>
      <trkpt lat="46.41756" lon="-1.58179">
        <ele>60.349507</ele>
        <time>2022-12-19T08:21:31.325Z</time>
      </trkpt>
      <trkpt lat="46.41767" lon="-1.58188">
        <ele>60.282022</ele>
        <time>2022-12-19T08:21:34.305Z</time>
      </trkpt>
      <trkpt lat="46.41776" lon="-1.58193">
        <ele>60.234297</ele>
        <time>2022-12-19T08:21:36.298Z</time>
      </trkpt>
      <trkpt lat="46.41788" lon="-1.58199">
        <ele>60.167334</ele>
        <time>2022-12-19T08:21:39.310Z</time>
      </trkpt>
      <trkpt lat="46.41801" lon="-1.58205">
        <ele>60.128777</ele>
        <time>2022-12-19T08:21:42.322Z</time>
      </trkpt>
      <trkpt lat="46.41813" lon="-1.58213">
        <ele>60.230763</ele>
        <time>2022-12-19T08:21:45.327Z</time>
      </trkpt>
      <trkpt lat="46.41821" lon="-1.58218">
        <ele>60.301279</ele>
        <time>2022-12-19T08:21:47.309Z</time>
      </trkpt>
      <trkpt lat="46.41829" lon="-1.58225">
        <ele>60.372518</ele>
        <time>2022-12-19T08:21:49.299Z</time>
      </trkpt>
      <trkpt lat="46.4184" lon="-1.58234">
        <ele>60.470483</ele>
        <time>2022-12-19T08:21:52.325Z</time>
      </trkpt>
      <trkpt lat="46.4185" lon="-1.58243">
        <ele>60.558177</ele>
        <time>2022-12-19T08:21:55.325Z</time>
      </trkpt>
      <trkpt lat="46.41861" lon="-1.58247">
        <ele>60.645781</ele>
        <time>2022-12-19T08:21:58.304Z</time>
      </trkpt>
      <trkpt lat="46.41871" lon="-1.5825">
        <ele>60.721774</ele>
        <time>2022-12-19T08:22:01.301Z</time>
      </trkpt>
      <trkpt lat="46.41876" lon="-1.58261">
        <ele>60.796595</ele>
        <time>2022-12-19T08:22:04.311Z</time>
      </trkpt>
      <trkpt lat="46.41881" lon="-1.58274">
        <ele>60.872681</ele>
        <time>2022-12-19T08:22:07.302Z</time>
      </trkpt>
      <trkpt lat="46.41889" lon="-1.58282">
        <ele>60.94694</ele>
        <time>2022-12-19T08:22:10.302Z</time>
      </trkpt>
      <trkpt lat="46.41898" lon="-1.5828">
        <ele>61.017006</ele>
        <time>2022-12-19T08:22:13.306Z</time>
      </trkpt>
      <trkpt lat="46.41907" lon="-1.58273">
        <ele>61.090857</ele>
        <time>2022-12-19T08:22:16.296Z</time>
      </trkpt>
      <trkpt lat="46.41916" lon="-1.58265">
        <ele>61.17455</ele>
        <time>2022-12-19T08:22:19.324Z</time>
      </trkpt>
      <trkpt lat="46.41926" lon="-1.58257">
        <ele>61.264241</ele>
        <time>2022-12-19T08:22:22.316Z</time>
      </trkpt>
      <trkpt lat="46.41934" lon="-1.58248">
        <ele>61.342513</ele>
        <time>2022-12-19T08:22:25.306Z</time>
      </trkpt>
      <trkpt lat="46.41944" lon="-1.58241">
        <ele>61.42323</ele>
        <time>2022-12-19T08:22:28.323Z</time>
      </trkpt>
      <trkpt lat="46.41954" lon="-1.58236">
        <ele>61.497245</ele>
        <time>2022-12-19T08:22:31.312Z</time>
      </trkpt>
      <trkpt lat="46.41965" lon="-1.58231">
        <ele>61.504996</ele>
        <time>2022-12-19T08:22:34.299Z</time>
      </trkpt>
      <trkpt lat="46.41975" lon="-1.58227">
        <ele>61.512439</ele>
        <time>2022-12-19T08:22:37.315Z</time>
      </trkpt>
      <trkpt lat="46.41984" lon="-1.58223">
        <ele>61.519347</ele>
        <time>2022-12-19T08:22:40.305Z</time>
      </trkpt>
      <trkpt lat="46.41993" lon="-1.58219">
        <ele>61.525893</ele>
        <time>2022-12-19T08:22:43.327Z</time>
      </trkpt>
      <trkpt lat="46.42004" lon="-1.58215">
        <ele>61.533925</ele>
        <time>2022-12-19T08:22:47.324Z</time>
      </trkpt>
      <trkpt lat="46.42014" lon="-1.58211">
        <ele>61.540462</ele>
        <time>2022-12-19T08:22:50.322Z</time>
      </trkpt>
      <trkpt lat="46.42022" lon="-1.58205">
        <ele>61.547155</ele>
        <time>2022-12-19T08:22:53.299Z</time>
      </trkpt>
      <trkpt lat="46.42029" lon="-1.58196">
        <ele>61.553534</ele>
        <time>2022-12-19T08:22:56.302Z</time>
      </trkpt>
      <trkpt lat="46.42036" lon="-1.58185">
        <ele>61.560976</ele>
        <time>2022-12-19T08:23:00.321Z</time>
      </trkpt>
      <trkpt lat="46.42037" lon="-1.5817">
        <ele>61.567869</ele>
        <time>2022-12-19T08:23:04.306Z</time>
      </trkpt>
      <trkpt lat="46.42038" lon="-1.58157">
        <ele>61.574438</ele>
        <time>2022-12-19T08:23:07.324Z</time>
      </trkpt>
      <trkpt lat="46.42038" lon="-1.58143">
        <ele>61.581212</ele>
        <time>2022-12-19T08:23:10.326Z</time>
      </trkpt>
      <trkpt lat="46.42039" lon="-1.58128">
        <ele>61.588239</ele>
        <time>2022-12-19T08:23:13.323Z</time>
      </trkpt>
      <trkpt lat="46.4204" lon="-1.58113">
        <ele>61.595425</ele>
        <time>2022-12-19T08:23:16.327Z</time>
      </trkpt>
      <trkpt lat="46.42041" lon="-1.58098">
        <ele>61.602592</ele>
        <time>2022-12-19T08:23:19.328Z</time>
      </trkpt>
      <trkpt lat="46.42042" lon="-1.58083">
        <ele>61.609859</ele>
        <time>2022-12-19T08:23:22.321Z</time>
      </trkpt>
      <trkpt lat="46.42043" lon="-1.58068">
        <ele>61.617018</ele>
        <time>2022-12-19T08:23:25.321Z</time>
      </trkpt>
      <trkpt lat="46.42044" lon="-1.58054">
        <ele>61.641936</ele>
        <time>2022-12-19T08:23:28.314Z</time>
      </trkpt>
      <trkpt lat="46.42045" lon="-1.58039">
        <ele>61.698285</ele>
        <time>2022-12-19T08:23:31.325Z</time>
      </trkpt>
      <trkpt lat="46.42045" lon="-1.58026">
        <ele>61.748493</ele>
        <time>2022-12-19T08:23:34.326Z</time>
      </trkpt>
      <trkpt lat="46.42046" lon="-1.58011">
        <ele>61.804079</ele>
        <time>2022-12-19T08:23:38.323Z</time>
      </trkpt>
      <trkpt lat="46.42047" lon="-1.57998">
        <ele>61.856327</ele>
        <time>2022-12-19T08:23:42.309Z</time>
      </trkpt>
      <trkpt lat="46.42047" lon="-1.57984">
        <ele>61.910656</ele>
        <time>2022-12-19T08:23:46.301Z</time>
      </trkpt>
      <trkpt lat="46.42048" lon="-1.57969">
        <ele>61.966624</ele>
        <time>2022-12-19T08:23:50.305Z</time>
      </trkpt>
      <trkpt lat="46.4205" lon="-1.57955">
        <ele>62.022316</ele>
        <time>2022-12-19T08:23:55.327Z</time>
      </trkpt>
      <trkpt lat="46.42048" lon="-1.57939">
        <ele>62.082086</ele>
        <time>2022-12-19T08:24:00.306Z</time>
      </trkpt>
      <trkpt lat="46.42045" lon="-1.57925">
        <ele>62.138199</ele>
        <time>2022-12-19T08:24:04.309Z</time>
      </trkpt>
      <trkpt lat="46.42045" lon="-1.57912">
        <ele>62.188691</ele>
        <time>2022-12-19T08:24:07.301Z</time>
      </trkpt>
      <trkpt lat="46.42045" lon="-1.57898">
        <ele>62.241155</ele>
        <time>2022-12-19T08:24:10.328Z</time>
      </trkpt>
      <trkpt lat="46.42047" lon="-1.57885">
        <ele>62.292451</ele>
        <time>2022-12-19T08:24:13.322Z</time>
      </trkpt>
      <trkpt lat="46.42047" lon="-1.57871">
        <ele>62.34762</ele>
        <time>2022-12-19T08:24:17.326Z</time>
      </trkpt>
      <trkpt lat="46.42046" lon="-1.57857">
        <ele>62.398293</ele>
        <time>2022-12-19T08:24:21.301Z</time>
      </trkpt>
      <trkpt lat="46.42048" lon="-1.57844">
        <ele>62.450123</ele>
        <time>2022-12-19T08:24:24.309Z</time>
      </trkpt>
      <trkpt lat="46.42049" lon="-1.5783">
        <ele>62.505357</ele>
        <time>2022-12-19T08:24:27.323Z</time>
      </trkpt>
      <trkpt lat="46.4205" lon="-1.57815">
        <ele>62.563044</ele>
        <time>2022-12-19T08:24:30.323Z</time>
      </trkpt>
      <trkpt lat="46.42052" lon="-1.57799">
        <ele>62.619101</ele>
        <time>2022-12-19T08:24:33.331Z</time>
      </trkpt>
      <trkpt lat="46.42054" lon="-1.57783">
        <ele>62.615269</ele>
        <time>2022-12-19T08:24:36.326Z</time>
      </trkpt>
      <trkpt lat="46.42055" lon="-1.57765">
        <ele>62.611204</ele>
        <time>2022-12-19T08:24:39.323Z</time>
      </trkpt>
      <trkpt lat="46.42057" lon="-1.57749">
        <ele>62.607498</ele>
        <time>2022-12-19T08:24:42.325Z</time>
      </trkpt>
      <trkpt lat="46.42057" lon="-1.57734">
        <ele>62.603998</ele>
        <time>2022-12-19T08:24:45.306Z</time>
      </trkpt>
      <trkpt lat="46.42056" lon="-1.57719">
        <ele>62.600447</ele>
        <time>2022-12-19T08:24:48.312Z</time>
      </trkpt>
      <trkpt lat="46.42055" lon="-1.57704">
        <ele>62.597076</ele>
        <time>2022-12-19T08:24:51.319Z</time>
      </trkpt>
      <trkpt lat="46.42054" lon="-1.57688">
        <ele>62.593269</ele>
        <time>2022-12-19T08:24:54.305Z</time>
      </trkpt>
      <trkpt lat="46.42053" lon="-1.57671">
        <ele>62.589373</ele>
        <time>2022-12-19T08:24:57.306Z</time>
      </trkpt>
      <trkpt lat="46.42051" lon="-1.57656">
        <ele>62.585716</ele>
        <time>2022-12-19T08:25:00.325Z</time>
      </trkpt>
      <trkpt lat="46.4205" lon="-1.57641">
        <ele>62.582212</ele>
        <time>2022-12-19T08:25:03.327Z</time>
      </trkpt>
      <trkpt lat="46.42049" lon="-1.57626">
        <ele>62.578744</ele>
        <time>2022-12-19T08:25:06.323Z</time>
      </trkpt>
      <trkpt lat="46.42048" lon="-1.57611">
        <ele>62.575317</ele>
        <time>2022-12-19T08:25:09.320Z</time>
      </trkpt>
      <trkpt lat="46.42047" lon="-1.57598">
        <ele>62.572223</ele>
        <time>2022-12-19T08:25:12.322Z</time>
      </trkpt>
      <trkpt lat="46.42045" lon="-1.57582">
        <ele>62.568574</ele>
        <time>2022-12-19T08:25:15.322Z</time>
      </trkpt>
      <trkpt lat="46.42044" lon="-1.57565">
        <ele>62.564498</ele>
        <time>2022-12-19T08:25:18.321Z</time>
      </trkpt>
      <trkpt lat="46.42042" lon="-1.57548">
        <ele>62.560567</ele>
        <time>2022-12-19T08:25:21.326Z</time>
      </trkpt>
      <trkpt lat="46.42041" lon="-1.57532">
        <ele>62.634691</ele>
        <time>2022-12-19T08:25:24.313Z</time>
      </trkpt>
      <trkpt lat="46.42039" lon="-1.57518">
        <ele>62.754737</ele>
        <time>2022-12-19T08:25:27.306Z</time>
      </trkpt>
      <trkpt lat="46.42037" lon="-1.57504">
        <ele>62.865671</ele>
        <time>2022-12-19T08:25:30.303Z</time>
      </trkpt>
      <trkpt lat="46.42035" lon="-1.57491">
        <ele>62.978089</ele>
        <time>2022-12-19T08:25:33.323Z</time>
      </trkpt>
      <trkpt lat="46.42041" lon="-1.57479">
        <ele>63.101181</ele>
        <time>2022-12-19T08:25:37.308Z</time>
      </trkpt>
      <trkpt lat="46.4205" lon="-1.57473">
        <ele>63.212628</ele>
        <time>2022-12-19T08:25:40.310Z</time>
      </trkpt>
      <trkpt lat="46.42061" lon="-1.57467">
        <ele>63.353704</ele>
        <time>2022-12-19T08:25:44.322Z</time>
      </trkpt>
      <trkpt lat="46.4207" lon="-1.57459">
        <ele>63.488011</ele>
        <time>2022-12-19T08:25:48.311Z</time>
      </trkpt>
      <trkpt lat="46.42075" lon="-1.57446">
        <ele>63.603572</ele>
        <time>2022-12-19T08:25:52.318Z</time>
      </trkpt>
      <trkpt lat="46.42077" lon="-1.57431">
        <ele>63.732013</ele>
        <time>2022-12-19T08:25:56.320Z</time>
      </trkpt>
      <trkpt lat="46.42082" lon="-1.57418">
        <ele>63.860547</ele>
        <time>2022-12-19T08:26:00.303Z</time>
      </trkpt>
      <trkpt lat="46.42093" lon="-1.57415">
        <ele>63.989926</ele>
        <time>2022-12-19T08:26:03.301Z</time>
      </trkpt>
      <trkpt lat="46.42105" lon="-1.57414">
        <ele>64.13144</ele>
        <time>2022-12-19T08:26:06.326Z</time>
      </trkpt>
      <trkpt lat="46.42115" lon="-1.57413">
        <ele>64.254178</ele>
        <time>2022-12-19T08:26:09.323Z</time>
      </trkpt>
      <trkpt lat="46.42125" lon="-1.57414">
        <ele>64.374384</ele>
        <time>2022-12-19T08:26:12.302Z</time>
      </trkpt>
      <trkpt lat="46.42135" lon="-1.57416">
        <ele>64.489157</ele>
        <time>2022-12-19T08:26:15.324Z</time>
      </trkpt>
      <trkpt lat="46.42145" lon="-1.57421">
        <ele>64.626359</ele>
        <time>2022-12-19T08:26:19.320Z</time>
      </trkpt>
      <trkpt lat="46.42156" lon="-1.57427">
        <ele>64.657474</ele>
        <time>2022-12-19T08:26:23.328Z</time>
      </trkpt>
      <trkpt lat="46.42165" lon="-1.57432">
        <ele>64.513599</ele>
        <time>2022-12-19T08:26:26.326Z</time>
      </trkpt>
      <trkpt lat="46.42175" lon="-1.57438">
        <ele>64.337424</ele>
        <time>2022-12-19T08:26:30.327Z</time>
      </trkpt>
      <trkpt lat="46.42185" lon="-1.57437">
        <ele>64.194369</ele>
        <time>2022-12-19T08:26:35.304Z</time>
      </trkpt>
      <trkpt lat="46.42187" lon="-1.57423">
        <ele>64.043452</ele>
        <time>2022-12-19T08:26:39.305Z</time>
      </trkpt>
      <trkpt lat="46.42197" lon="-1.57419">
        <ele>63.880882</ele>
        <time>2022-12-19T08:26:44.304Z</time>
      </trkpt>
      <trkpt lat="46.42208" lon="-1.57421">
        <ele>63.712976</ele>
        <time>2022-12-19T08:26:48.306Z</time>
      </trkpt>
      <trkpt lat="46.4222" lon="-1.57422">
        <ele>63.539398</ele>
        <time>2022-12-19T08:26:52.328Z</time>
      </trkpt>
      <trkpt lat="46.42232" lon="-1.57425">
        <ele>63.352686</ele>
        <time>2022-12-19T08:26:56.322Z</time>
      </trkpt>
      <trkpt lat="46.42242" lon="-1.57427">
        <ele>63.199581</ele>
        <time>2022-12-19T08:26:59.319Z</time>
      </trkpt>
      <trkpt lat="46.42252" lon="-1.57428">
        <ele>63.056227</ele>
        <time>2022-12-19T08:27:02.325Z</time>
      </trkpt>
      <trkpt lat="46.42261" lon="-1.5743">
        <ele>62.920141</ele>
        <time>2022-12-19T08:27:05.328Z</time>
      </trkpt>
      <trkpt lat="46.4227" lon="-1.57432">
        <ele>62.771999</ele>
        <time>2022-12-19T08:27:09.311Z</time>
      </trkpt>
      <trkpt lat="46.42279" lon="-1.5744">
        <ele>62.61715</ele>
        <time>2022-12-19T08:27:16.322Z</time>
      </trkpt>
      <trkpt lat="46.42287" lon="-1.57445">
        <ele>62.478654</ele>
        <time>2022-12-19T08:27:22.300Z</time>
      </trkpt>
      <trkpt lat="46.42289" lon="-1.57459">
        <ele>62.331342</ele>
        <time>2022-12-19T08:27:35.300Z</time>
      </trkpt>
      <trkpt lat="46.42289" lon="-1.57475">
        <ele>62.168474</ele>
        <time>2022-12-19T08:27:40.309Z</time>
      </trkpt>
      <trkpt lat="46.4229" lon="-1.57489">
        <ele>62.026893</ele>
        <time>2022-12-19T08:27:45.304Z</time>
      </trkpt>
      <trkpt lat="46.42289" lon="-1.57504">
        <ele>61.857236</ele>
        <time>2022-12-19T08:27:50.306Z</time>
      </trkpt>
      <trkpt lat="46.42293" lon="-1.57517">
        <ele>61.707545</ele>
        <time>2022-12-19T08:27:56.303Z</time>
      </trkpt>
      <trkpt lat="46.42287" lon="-1.57519">
        <ele>61.616006</ele>
        <time>2022-12-19T08:28:17.432Z</time>
      </trkpt>
      <trkpt lat="46.42289" lon="-1.57523">
        <ele>61.56028</ele>
        <time>2022-12-19T09:36:03.675Z</time>
      </trkpt>
      <trkpt lat="46.42289" lon="-1.57523">
        <ele>61.56028</ele>
        <time>2022-12-19T09:36:03.938Z</time>
      </trkpt>
      <trkpt lat="46.42287" lon="-1.57509">
        <ele>61.402372</ele>
        <time>2022-12-19T09:38:22.330Z</time>
      </trkpt>
      <trkpt lat="46.42287" lon="-1.57495">
        <ele>61.242402</ele>
        <time>2022-12-19T09:38:26.328Z</time>
      </trkpt>
      <trkpt lat="46.42288" lon="-1.57481">
        <ele>61.088496</ele>
        <time>2022-12-19T09:38:30.347Z</time>
      </trkpt>
      <trkpt lat="46.42289" lon="-1.5745">
        <ele>60.74724</ele>
        <time>2022-12-19T09:39:02.335Z</time>
      </trkpt>
      <trkpt lat="46.42284" lon="-1.57439">
        <ele>60.591818</ele>
        <time>2022-12-19T09:39:07.327Z</time>
      </trkpt>
      <trkpt lat="46.42274" lon="-1.57435">
        <ele>60.434713</ele>
        <time>2022-12-19T09:39:13.339Z</time>
      </trkpt>
      <trkpt lat="46.42266" lon="-1.5743">
        <ele>60.285175</ele>
        <time>2022-12-19T09:39:20.329Z</time>
      </trkpt>
      <trkpt lat="46.42256" lon="-1.57428">
        <ele>60.121252</ele>
        <time>2022-12-19T09:39:25.332Z</time>
      </trkpt>
      <trkpt lat="46.42246" lon="-1.57426">
        <ele>59.971979</ele>
        <time>2022-12-19T09:39:29.322Z</time>
      </trkpt>
      <trkpt lat="46.42235" lon="-1.57424">
        <ele>59.789128</ele>
        <time>2022-12-19T09:39:33.322Z</time>
      </trkpt>
      <trkpt lat="46.42224" lon="-1.57422">
        <ele>59.605149</ele>
        <time>2022-12-19T09:39:37.327Z</time>
      </trkpt>
      <trkpt lat="46.42213" lon="-1.57418">
        <ele>59.432798</ele>
        <time>2022-12-19T09:39:41.330Z</time>
      </trkpt>
      <trkpt lat="46.42202" lon="-1.57415">
        <ele>59.240168</ele>
        <time>2022-12-19T09:39:45.326Z</time>
      </trkpt>
      <trkpt lat="46.42192" lon="-1.57414">
        <ele>59.128387</ele>
        <time>2022-12-19T09:39:48.325Z</time>
      </trkpt>
      <trkpt lat="46.42182" lon="-1.57412">
        <ele>59.195064</ele>
        <time>2022-12-19T09:39:51.328Z</time>
      </trkpt>
      <trkpt lat="46.42172" lon="-1.5741">
        <ele>59.260142</ele>
        <time>2022-12-19T09:39:54.329Z</time>
      </trkpt>
      <trkpt lat="46.42163" lon="-1.57409">
        <ele>59.322546</ele>
        <time>2022-12-19T09:39:57.348Z</time>
      </trkpt>
      <trkpt lat="46.42152" lon="-1.57407">
        <ele>59.39147</ele>
        <time>2022-12-19T09:40:00.327Z</time>
      </trkpt>
      <trkpt lat="46.42141" lon="-1.57406">
        <ele>59.465579</ele>
        <time>2022-12-19T09:40:03.345Z</time>
      </trkpt>
      <trkpt lat="46.4213" lon="-1.57404">
        <ele>59.539188</ele>
        <time>2022-12-19T09:40:06.334Z</time>
      </trkpt>
      <trkpt lat="46.42119" lon="-1.57403">
        <ele>59.611398</ele>
        <time>2022-12-19T09:40:09.327Z</time>
      </trkpt>
      <trkpt lat="46.42108" lon="-1.57403">
        <ele>59.682008</ele>
        <time>2022-12-19T09:40:12.328Z</time>
      </trkpt>
      <trkpt lat="46.42098" lon="-1.57403">
        <ele>59.750001</ele>
        <time>2022-12-19T09:40:15.322Z</time>
      </trkpt>
      <trkpt lat="46.42088" lon="-1.57404">
        <ele>59.814172</ele>
        <time>2022-12-19T09:40:18.331Z</time>
      </trkpt>
      <trkpt lat="46.42079" lon="-1.57404">
        <ele>59.874889</ele>
        <time>2022-12-19T09:40:21.328Z</time>
      </trkpt>
      <trkpt lat="46.42067" lon="-1.57406">
        <ele>59.952631</ele>
        <time>2022-12-19T09:40:25.326Z</time>
      </trkpt>
      <trkpt lat="46.42056" lon="-1.57405">
        <ele>60.028255</ele>
        <time>2022-12-19T09:40:29.318Z</time>
      </trkpt>
      <trkpt lat="46.42051" lon="-1.57393">
        <ele>60.090105</ele>
        <time>2022-12-19T09:40:32.332Z</time>
      </trkpt>
      <trkpt lat="46.42047" lon="-1.57381">
        <ele>60.153655</ele>
        <time>2022-12-19T09:40:35.319Z</time>
      </trkpt>
      <trkpt lat="46.42042" lon="-1.5737">
        <ele>60.212526</ele>
        <time>2022-12-19T09:40:38.345Z</time>
      </trkpt>
      <trkpt lat="46.42036" lon="-1.57356">
        <ele>60.285196</ele>
        <time>2022-12-19T09:40:42.322Z</time>
      </trkpt>
      <trkpt lat="46.4203" lon="-1.57343">
        <ele>60.25054</ele>
        <time>2022-12-19T09:40:46.342Z</time>
      </trkpt>
      <trkpt lat="46.42024" lon="-1.5733">
        <ele>60.18606</ele>
        <time>2022-12-19T09:40:50.335Z</time>
      </trkpt>
      <trkpt lat="46.42019" lon="-1.57318">
        <ele>60.12478</ele>
        <time>2022-12-19T09:40:53.325Z</time>
      </trkpt>
      <trkpt lat="46.42015" lon="-1.57303">
        <ele>60.056254</ele>
        <time>2022-12-19T09:40:56.330Z</time>
      </trkpt>
      <trkpt lat="46.42014" lon="-1.57285">
        <ele>59.983548</ele>
        <time>2022-12-19T09:40:59.323Z</time>
      </trkpt>
      <trkpt lat="46.42018" lon="-1.5727">
        <ele>59.91247</ele>
        <time>2022-12-19T09:41:02.320Z</time>
      </trkpt>
      <trkpt lat="46.42024" lon="-1.57256">
        <ele>59.8455</ele>
        <time>2022-12-19T09:41:05.325Z</time>
      </trkpt>
      <trkpt lat="46.42029" lon="-1.57244">
        <ele>59.788432</ele>
        <time>2022-12-19T09:41:08.358Z</time>
      </trkpt>
      <trkpt lat="46.42036" lon="-1.57232">
        <ele>59.722374</ele>
        <time>2022-12-19T09:41:12.327Z</time>
      </trkpt>
      <trkpt lat="46.42044" lon="-1.57224">
        <ele>59.661252</ele>
        <time>2022-12-19T09:41:15.346Z</time>
      </trkpt>
      <trkpt lat="46.42054" lon="-1.57215">
        <ele>59.592331</ele>
        <time>2022-12-19T09:41:18.320Z</time>
      </trkpt>
      <trkpt lat="46.42062" lon="-1.57208">
        <ele>59.531345</ele>
        <time>2022-12-19T09:41:21.330Z</time>
      </trkpt>
      <trkpt lat="46.42071" lon="-1.572">
        <ele>59.470391</ele>
        <time>2022-12-19T09:41:24.329Z</time>
      </trkpt>
      <trkpt lat="46.42078" lon="-1.57188">
        <ele>59.40383</ele>
        <time>2022-12-19T09:41:27.318Z</time>
      </trkpt>
      <trkpt lat="46.42082" lon="-1.57174">
        <ele>59.339745</ele>
        <time>2022-12-19T09:41:30.328Z</time>
      </trkpt>
      <trkpt lat="46.42085" lon="-1.57159">
        <ele>59.275653</ele>
        <time>2022-12-19T09:41:33.327Z</time>
      </trkpt>
      <trkpt lat="46.42088" lon="-1.57145">
        <ele>59.211765</ele>
        <time>2022-12-19T09:41:36.334Z</time>
      </trkpt>
      <trkpt lat="46.42092" lon="-1.5713">
        <ele>59.079277</ele>
        <time>2022-12-19T09:41:39.319Z</time>
      </trkpt>
      <trkpt lat="46.42095" lon="-1.57115">
        <ele>58.942045</ele>
        <time>2022-12-19T09:41:42.320Z</time>
      </trkpt>
      <trkpt lat="46.42099" lon="-1.57099">
        <ele>58.798854</ele>
        <time>2022-12-19T09:41:45.336Z</time>
      </trkpt>
      <trkpt lat="46.421" lon="-1.57081">
        <ele>58.647185</ele>
        <time>2022-12-19T09:41:48.339Z</time>
      </trkpt>
      <trkpt lat="46.421" lon="-1.57065">
        <ele>58.502329</ele>
        <time>2022-12-19T09:41:51.327Z</time>
      </trkpt>
      <trkpt lat="46.42101" lon="-1.57047">
        <ele>58.350631</ele>
        <time>2022-12-19T09:41:54.337Z</time>
      </trkpt>
      <trkpt lat="46.421" lon="-1.57029">
        <ele>58.193372</ele>
        <time>2022-12-19T09:41:57.323Z</time>
      </trkpt>
      <trkpt lat="46.421" lon="-1.57012">
        <ele>58.046897</ele>
        <time>2022-12-19T09:42:00.358Z</time>
      </trkpt>
      <trkpt lat="46.42099" lon="-1.56997">
        <ele>57.913296</ele>
        <time>2022-12-19T09:42:03.344Z</time>
      </trkpt>
      <trkpt lat="46.42098" lon="-1.56983">
        <ele>57.789145</ele>
        <time>2022-12-19T09:42:06.354Z</time>
      </trkpt>
      <trkpt lat="46.42098" lon="-1.56968">
        <ele>57.660835</ele>
        <time>2022-12-19T09:42:09.338Z</time>
      </trkpt>
      <trkpt lat="46.42097" lon="-1.56952">
        <ele>57.522768</ele>
        <time>2022-12-19T09:42:12.326Z</time>
      </trkpt>
      <trkpt lat="46.42097" lon="-1.56934">
        <ele>57.369362</ele>
        <time>2022-12-19T09:42:15.331Z</time>
      </trkpt>
      <trkpt lat="46.42097" lon="-1.56915">
        <ele>57.202935</ele>
        <time>2022-12-19T09:42:18.326Z</time>
      </trkpt>
      <trkpt lat="46.42096" lon="-1.56902">
        <ele>57.089072</ele>
        <time>2022-12-19T09:42:20.337Z</time>
      </trkpt>
      <trkpt lat="46.42096" lon="-1.56888">
        <ele>56.970244</ele>
        <time>2022-12-19T09:42:22.331Z</time>
      </trkpt>
      <trkpt lat="46.42095" lon="-1.56875">
        <ele>56.968878</ele>
        <time>2022-12-19T09:42:24.356Z</time>
      </trkpt>
      <trkpt lat="46.42095" lon="-1.56861">
        <ele>56.999139</ele>
        <time>2022-12-19T09:42:26.338Z</time>
      </trkpt>
      <trkpt lat="46.42094" lon="-1.56847">
        <ele>57.029213</ele>
        <time>2022-12-19T09:42:28.332Z</time>
      </trkpt>
      <trkpt lat="46.42093" lon="-1.56834">
        <ele>57.059508</ele>
        <time>2022-12-19T09:42:30.338Z</time>
      </trkpt>
      <trkpt lat="46.42093" lon="-1.56821">
        <ele>57.088667</ele>
        <time>2022-12-19T09:42:32.336Z</time>
      </trkpt>
      <trkpt lat="46.42092" lon="-1.56801">
        <ele>57.131137</ele>
        <time>2022-12-19T09:42:35.347Z</time>
      </trkpt>
      <trkpt lat="46.42092" lon="-1.56782">
        <ele>57.173289</ele>
        <time>2022-12-19T09:42:38.341Z</time>
      </trkpt>
      <trkpt lat="46.42091" lon="-1.56763">
        <ele>57.214857</ele>
        <time>2022-12-19T09:42:41.342Z</time>
      </trkpt>
      <trkpt lat="46.4209" lon="-1.56745">
        <ele>57.256006</ele>
        <time>2022-12-19T09:42:44.340Z</time>
      </trkpt>
      <trkpt lat="46.42089" lon="-1.56727">
        <ele>57.295858</ele>
        <time>2022-12-19T09:42:47.347Z</time>
      </trkpt>
      <trkpt lat="46.42088" lon="-1.56709">
        <ele>57.335003</ele>
        <time>2022-12-19T09:42:50.329Z</time>
      </trkpt>
      <trkpt lat="46.42088" lon="-1.5669">
        <ele>57.376537</ele>
        <time>2022-12-19T09:42:53.319Z</time>
      </trkpt>
      <trkpt lat="46.42087" lon="-1.56671">
        <ele>57.419206</ele>
        <time>2022-12-19T09:42:56.321Z</time>
      </trkpt>
      <trkpt lat="46.42087" lon="-1.56658">
        <ele>57.448144</ele>
        <time>2022-12-19T09:42:58.328Z</time>
      </trkpt>
      <trkpt lat="46.42086" lon="-1.5664">
        <ele>57.488611</ele>
        <time>2022-12-19T09:43:01.333Z</time>
      </trkpt>
      <trkpt lat="46.42085" lon="-1.56621">
        <ele>57.541472</ele>
        <time>2022-12-19T09:43:04.338Z</time>
      </trkpt>
      <trkpt lat="46.42084" lon="-1.56602">
        <ele>57.63868</ele>
        <time>2022-12-19T09:43:07.333Z</time>
      </trkpt>
      <trkpt lat="46.42083" lon="-1.56583">
        <ele>57.738872</ele>
        <time>2022-12-19T09:43:10.342Z</time>
      </trkpt>
      <trkpt lat="46.42083" lon="-1.56564">
        <ele>57.834788</ele>
        <time>2022-12-19T09:43:13.324Z</time>
      </trkpt>
      <trkpt lat="46.42082" lon="-1.56546">
        <ele>57.928398</ele>
        <time>2022-12-19T09:43:16.326Z</time>
      </trkpt>
      <trkpt lat="46.42081" lon="-1.56528">
        <ele>58.021952</ele>
        <time>2022-12-19T09:43:19.325Z</time>
      </trkpt>
      <trkpt lat="46.4208" lon="-1.5651">
        <ele>58.116077</ele>
        <time>2022-12-19T09:43:22.334Z</time>
      </trkpt>
      <trkpt lat="46.42078" lon="-1.56492">
        <ele>58.210865</ele>
        <time>2022-12-19T09:43:25.337Z</time>
      </trkpt>
      <trkpt lat="46.42076" lon="-1.56473">
        <ele>58.30719</ele>
        <time>2022-12-19T09:43:28.363Z</time>
      </trkpt>
      <trkpt lat="46.42073" lon="-1.56455">
        <ele>58.405842</ele>
        <time>2022-12-19T09:43:31.323Z</time>
      </trkpt>
      <trkpt lat="46.4207" lon="-1.56442">
        <ele>58.477246</ele>
        <time>2022-12-19T09:43:33.343Z</time>
      </trkpt>
      <trkpt lat="46.42066" lon="-1.56429">
        <ele>58.54454</ele>
        <time>2022-12-19T09:43:35.321Z</time>
      </trkpt>
      <trkpt lat="46.42062" lon="-1.56417">
        <ele>58.613721</ele>
        <time>2022-12-19T09:43:37.334Z</time>
      </trkpt>
      <trkpt lat="46.42056" lon="-1.56399">
        <ele>58.715869</ele>
        <time>2022-12-19T09:43:40.341Z</time>
      </trkpt>
      <trkpt lat="46.42052" lon="-1.56388">
        <ele>58.78494</ele>
        <time>2022-12-19T09:43:42.338Z</time>
      </trkpt>
      <trkpt lat="46.42047" lon="-1.56376">
        <ele>58.853561</ele>
        <time>2022-12-19T09:43:44.325Z</time>
      </trkpt>
      <trkpt lat="46.42041" lon="-1.56359">
        <ele>58.848848</ele>
        <time>2022-12-19T09:43:47.334Z</time>
      </trkpt>
      <trkpt lat="46.42035" lon="-1.56343">
        <ele>58.829503</ele>
        <time>2022-12-19T09:43:50.328Z</time>
      </trkpt>
      <trkpt lat="46.42029" lon="-1.56328">
        <ele>58.811396</ele>
        <time>2022-12-19T09:43:53.338Z</time>
      </trkpt>
      <trkpt lat="46.42023" lon="-1.56312">
        <ele>58.792595</ele>
        <time>2022-12-19T09:43:56.328Z</time>
      </trkpt>
      <trkpt lat="46.42018" lon="-1.56297">
        <ele>58.774599</ele>
        <time>2022-12-19T09:43:59.345Z</time>
      </trkpt>
      <trkpt lat="46.42012" lon="-1.5628">
        <ele>58.755457</ele>
        <time>2022-12-19T09:44:02.324Z</time>
      </trkpt>
      <trkpt lat="46.42007" lon="-1.56263">
        <ele>58.735846</ele>
        <time>2022-12-19T09:44:05.325Z</time>
      </trkpt>
      <trkpt lat="46.42002" lon="-1.56246">
        <ele>58.717005</ele>
        <time>2022-12-19T09:44:08.325Z</time>
      </trkpt>
      <trkpt lat="46.41998" lon="-1.56229">
        <ele>58.698183</ele>
        <time>2022-12-19T09:44:11.325Z</time>
      </trkpt>
      <trkpt lat="46.41995" lon="-1.56211">
        <ele>58.679322</ele>
        <time>2022-12-19T09:44:14.340Z</time>
      </trkpt>
      <trkpt lat="46.41992" lon="-1.56194">
        <ele>58.660628</ele>
        <time>2022-12-19T09:44:17.331Z</time>
      </trkpt>
      <trkpt lat="46.4199" lon="-1.56176">
        <ele>58.64153</ele>
        <time>2022-12-19T09:44:20.334Z</time>
      </trkpt>
      <trkpt lat="46.41987" lon="-1.56158">
        <ele>58.622494</ele>
        <time>2022-12-19T09:44:23.320Z</time>
      </trkpt>
      <trkpt lat="46.41984" lon="-1.5614">
        <ele>58.603261</ele>
        <time>2022-12-19T09:44:26.355Z</time>
      </trkpt>
      <trkpt lat="46.41981" lon="-1.56122">
        <ele>58.570224</ele>
        <time>2022-12-19T09:44:29.331Z</time>
      </trkpt>
      <trkpt lat="46.41978" lon="-1.56103">
        <ele>58.52598</ele>
        <time>2022-12-19T09:44:32.337Z</time>
      </trkpt>
      <trkpt lat="46.41975" lon="-1.56085">
        <ele>58.483212</ele>
        <time>2022-12-19T09:44:35.327Z</time>
      </trkpt>
      <trkpt lat="46.41972" lon="-1.56067">
        <ele>58.4412</ele>
        <time>2022-12-19T09:44:38.331Z</time>
      </trkpt>
      <trkpt lat="46.41969" lon="-1.5605">
        <ele>58.40045</ele>
        <time>2022-12-19T09:44:41.331Z</time>
      </trkpt>
      <trkpt lat="46.41967" lon="-1.56032">
        <ele>58.360074</ele>
        <time>2022-12-19T09:44:44.329Z</time>
      </trkpt>
      <trkpt lat="46.41964" lon="-1.56015">
        <ele>58.319624</ele>
        <time>2022-12-19T09:44:47.326Z</time>
      </trkpt>
      <trkpt lat="46.41961" lon="-1.55997">
        <ele>58.276699</ele>
        <time>2022-12-19T09:44:50.359Z</time>
      </trkpt>
      <trkpt lat="46.41959" lon="-1.55978">
        <ele>58.232969</ele>
        <time>2022-12-19T09:44:53.323Z</time>
      </trkpt>
      <trkpt lat="46.41956" lon="-1.55959">
        <ele>58.18917</ele>
        <time>2022-12-19T09:44:56.351Z</time>
      </trkpt>
      <trkpt lat="46.41953" lon="-1.55942">
        <ele>58.147944</ele>
        <time>2022-12-19T09:44:59.344Z</time>
      </trkpt>
      <trkpt lat="46.4195" lon="-1.55925">
        <ele>58.108749</ele>
        <time>2022-12-19T09:45:02.325Z</time>
      </trkpt>
      <trkpt lat="46.41948" lon="-1.55908">
        <ele>58.067774</ele>
        <time>2022-12-19T09:45:05.327Z</time>
      </trkpt>
      <trkpt lat="46.41945" lon="-1.55889">
        <ele>58.023372</ele>
        <time>2022-12-19T09:45:08.328Z</time>
      </trkpt>
      <trkpt lat="46.41942" lon="-1.5587">
        <ele>57.998987</ele>
        <time>2022-12-19T09:45:11.322Z</time>
      </trkpt>
      <trkpt lat="46.4194" lon="-1.55852">
        <ele>58.003065</ele>
        <time>2022-12-19T09:45:14.327Z</time>
      </trkpt>
      <trkpt lat="46.41936" lon="-1.55836">
        <ele>58.00694</ele>
        <time>2022-12-19T09:45:17.334Z</time>
      </trkpt>
      <trkpt lat="46.41931" lon="-1.55821">
        <ele>58.010725</ele>
        <time>2022-12-19T09:45:20.326Z</time>
      </trkpt>
      <trkpt lat="46.41923" lon="-1.5581">
        <ele>58.014428</ele>
        <time>2022-12-19T09:45:23.324Z</time>
      </trkpt>
      <trkpt lat="46.41912" lon="-1.55801">
        <ele>58.018518</ele>
        <time>2022-12-19T09:45:26.341Z</time>
      </trkpt>
      <trkpt lat="46.419" lon="-1.55795">
        <ele>58.022533</ele>
        <time>2022-12-19T09:45:29.334Z</time>
      </trkpt>
      <trkpt lat="46.41891" lon="-1.55787">
        <ele>58.026115</ele>
        <time>2022-12-19T09:45:32.325Z</time>
      </trkpt>
      <trkpt lat="46.41886" lon="-1.55775">
        <ele>58.029194</ele>
        <time>2022-12-19T09:45:35.324Z</time>
      </trkpt>
      <trkpt lat="46.41891" lon="-1.55763">
        <ele>58.032337</ele>
        <time>2022-12-19T09:45:39.342Z</time>
      </trkpt>
      <trkpt lat="46.419" lon="-1.55758">
        <ele>58.035639</ele>
        <time>2022-12-19T09:45:43.328Z</time>
      </trkpt>
      <trkpt lat="46.41905" lon="-1.55744">
        <ele>58.039304</ele>
        <time>2022-12-19T09:45:47.328Z</time>
      </trkpt>
      <trkpt lat="46.41904" lon="-1.55729">
        <ele>58.0426</ele>
        <time>2022-12-19T09:45:50.329Z</time>
      </trkpt>
      <trkpt lat="46.419" lon="-1.55714">
        <ele>58.046219</ele>
        <time>2022-12-19T09:45:53.332Z</time>
      </trkpt>
      <trkpt lat="46.41896" lon="-1.55699">
        <ele>58.049922</ele>
        <time>2022-12-19T09:45:56.325Z</time>
      </trkpt>
      <trkpt lat="46.4189" lon="-1.55683">
        <ele>58.053968</ele>
        <time>2022-12-19T09:45:59.336Z</time>
      </trkpt>
      <trkpt lat="46.41887" lon="-1.5567">
        <ele>58.065479</ele>
        <time>2022-12-19T09:46:01.325Z</time>
      </trkpt>
      <trkpt lat="46.41883" lon="-1.55657">
        <ele>58.092325</ele>
        <time>2022-12-19T09:46:03.324Z</time>
      </trkpt>
      <trkpt lat="46.4188" lon="-1.55645">
        <ele>58.11818</ele>
        <time>2022-12-19T09:46:05.323Z</time>
      </trkpt>
      <trkpt lat="46.41876" lon="-1.55632">
        <ele>58.144146</ele>
        <time>2022-12-19T09:46:07.343Z</time>
      </trkpt>
      <trkpt lat="46.41872" lon="-1.55615">
        <ele>58.179404</ele>
        <time>2022-12-19T09:46:10.331Z</time>
      </trkpt>
      <trkpt lat="46.41868" lon="-1.55599">
        <ele>58.212864</ele>
        <time>2022-12-19T09:46:13.328Z</time>
      </trkpt>
      <trkpt lat="46.41863" lon="-1.55583">
        <ele>58.245692</ele>
        <time>2022-12-19T09:46:16.333Z</time>
      </trkpt>
      <trkpt lat="46.41857" lon="-1.55571">
        <ele>58.273539</ele>
        <time>2022-12-19T09:46:19.321Z</time>
      </trkpt>
      <trkpt lat="46.41853" lon="-1.55559">
        <ele>58.299925</ele>
        <time>2022-12-19T09:46:23.329Z</time>
      </trkpt>
      <trkpt lat="46.41849" lon="-1.55546">
        <ele>58.326883</ele>
        <time>2022-12-19T09:46:27.335Z</time>
      </trkpt>
      <trkpt lat="46.41845" lon="-1.55531">
        <ele>58.358041</ele>
        <time>2022-12-19T09:46:31.333Z</time>
      </trkpt>
      <trkpt lat="46.41842" lon="-1.55518">
        <ele>58.384386</ele>
        <time>2022-12-19T09:46:34.328Z</time>
      </trkpt>
      <trkpt lat="46.41838" lon="-1.55502">
        <ele>58.416828</ele>
        <time>2022-12-19T09:46:38.341Z</time>
      </trkpt>
      <trkpt lat="46.41834" lon="-1.55486">
        <ele>58.448911</ele>
        <time>2022-12-19T09:46:42.324Z</time>
      </trkpt>
      <trkpt lat="46.4183" lon="-1.55472">
        <ele>58.479071</ele>
        <time>2022-12-19T09:46:45.344Z</time>
      </trkpt>
      <trkpt lat="46.41826" lon="-1.55457">
        <ele>58.508764</ele>
        <time>2022-12-19T09:46:48.355Z</time>
      </trkpt>
      <trkpt lat="46.41823" lon="-1.55444">
        <ele>58.535839</ele>
        <time>2022-12-19T09:46:51.322Z</time>
      </trkpt>
      <trkpt lat="46.4182" lon="-1.55428">
        <ele>58.548668</ele>
        <time>2022-12-19T09:46:55.324Z</time>
      </trkpt>
      <trkpt lat="46.41816" lon="-1.55414">
        <ele>58.521241</ele>
        <time>2022-12-19T09:46:59.325Z</time>
      </trkpt>
      <trkpt lat="46.41812" lon="-1.554">
        <ele>58.495711</ele>
        <time>2022-12-19T09:47:02.324Z</time>
      </trkpt>
      <trkpt lat="46.41808" lon="-1.55386">
        <ele>58.469443</ele>
        <time>2022-12-19T09:47:05.361Z</time>
      </trkpt>
      <trkpt lat="46.41805" lon="-1.55373">
        <ele>58.444655</ele>
        <time>2022-12-19T09:47:08.323Z</time>
      </trkpt>
      <trkpt lat="46.41802" lon="-1.55359">
        <ele>58.419641</ele>
        <time>2022-12-19T09:47:12.347Z</time>
      </trkpt>
      <trkpt lat="46.41798" lon="-1.55345">
        <ele>58.392055</ele>
        <time>2022-12-19T09:47:17.355Z</time>
      </trkpt>
      <trkpt lat="46.41802" lon="-1.55331">
        <ele>58.366788</ele>
        <time>2022-12-19T09:47:22.332Z</time>
      </trkpt>
      <trkpt lat="46.418" lon="-1.55316">
        <ele>58.340085</ele>
        <time>2022-12-19T09:47:26.330Z</time>
      </trkpt>
      <trkpt lat="46.41796" lon="-1.55302">
        <ele>58.313982</ele>
        <time>2022-12-19T09:47:29.343Z</time>
      </trkpt>
      <trkpt lat="46.41793" lon="-1.55287">
        <ele>58.28649</ele>
        <time>2022-12-19T09:47:32.336Z</time>
      </trkpt>
      <trkpt lat="46.41789" lon="-1.55271">
        <ele>58.257002</ele>
        <time>2022-12-19T09:47:35.335Z</time>
      </trkpt>
      <trkpt lat="46.41786" lon="-1.55254">
        <ele>58.227015</ele>
        <time>2022-12-19T09:47:38.335Z</time>
      </trkpt>
      <trkpt lat="46.41782" lon="-1.55238">
        <ele>58.196147</ele>
        <time>2022-12-19T09:47:41.334Z</time>
      </trkpt>
      <trkpt lat="46.41778" lon="-1.55221">
        <ele>58.164618</ele>
        <time>2022-12-19T09:47:44.345Z</time>
      </trkpt>
      <trkpt lat="46.41773" lon="-1.55205">
        <ele>58.134132</ele>
        <time>2022-12-19T09:47:47.321Z</time>
      </trkpt>
      <trkpt lat="46.41769" lon="-1.5519">
        <ele>58.105545</ele>
        <time>2022-12-19T09:47:50.339Z</time>
      </trkpt>
      <trkpt lat="46.41764" lon="-1.55176">
        <ele>58.117082</ele>
        <time>2022-12-19T09:47:53.322Z</time>
      </trkpt>
      <trkpt lat="46.41759" lon="-1.55161">
        <ele>58.134023</ele>
        <time>2022-12-19T09:47:56.324Z</time>
      </trkpt>
      <trkpt lat="46.41756" lon="-1.55145">
        <ele>58.150571</ele>
        <time>2022-12-19T09:47:59.319Z</time>
      </trkpt>
      <trkpt lat="46.41751" lon="-1.5513">
        <ele>58.167525</ele>
        <time>2022-12-19T09:48:02.343Z</time>
      </trkpt>
      <trkpt lat="46.41746" lon="-1.55113">
        <ele>58.185788</ele>
        <time>2022-12-19T09:48:05.323Z</time>
      </trkpt>
      <trkpt lat="46.41739" lon="-1.55098">
        <ele>58.204264</ele>
        <time>2022-12-19T09:48:08.330Z</time>
      </trkpt>
      <trkpt lat="46.41732" lon="-1.55082">
        <ele>58.223086</ele>
        <time>2022-12-19T09:48:11.321Z</time>
      </trkpt>
      <trkpt lat="46.41725" lon="-1.55067">
        <ele>58.242072</ele>
        <time>2022-12-19T09:48:14.327Z</time>
      </trkpt>
      <trkpt lat="46.41717" lon="-1.55051">
        <ele>58.261683</ele>
        <time>2022-12-19T09:48:17.327Z</time>
      </trkpt>
      <trkpt lat="46.41708" lon="-1.55036">
        <ele>58.281045</ele>
        <time>2022-12-19T09:48:20.337Z</time>
      </trkpt>
      <trkpt lat="46.417" lon="-1.55021">
        <ele>58.300226</ele>
        <time>2022-12-19T09:48:23.328Z</time>
      </trkpt>
      <trkpt lat="46.41692" lon="-1.55007">
        <ele>58.318618</ele>
        <time>2022-12-19T09:48:26.318Z</time>
      </trkpt>
      <trkpt lat="46.41685" lon="-1.54993">
        <ele>58.33706</ele>
        <time>2022-12-19T09:48:29.327Z</time>
      </trkpt>
      <trkpt lat="46.41677" lon="-1.54979">
        <ele>58.355492</ele>
        <time>2022-12-19T09:48:32.327Z</time>
      </trkpt>
      <trkpt lat="46.4167" lon="-1.54964">
        <ele>58.314969</ele>
        <time>2022-12-19T09:48:35.328Z</time>
      </trkpt>
      <trkpt lat="46.41662" lon="-1.54951">
        <ele>58.178272</ele>
        <time>2022-12-19T09:48:38.334Z</time>
      </trkpt>
      <trkpt lat="46.41655" lon="-1.54937">
        <ele>58.046319</ele>
        <time>2022-12-19T09:48:41.325Z</time>
      </trkpt>
      <trkpt lat="46.41649" lon="-1.54926">
        <ele>57.931563</ele>
        <time>2022-12-19T09:48:44.324Z</time>
      </trkpt>
      <trkpt lat="46.41641" lon="-1.54915">
        <ele>57.808424</ele>
        <time>2022-12-19T09:48:47.343Z</time>
      </trkpt>
      <trkpt lat="46.41633" lon="-1.54904">
        <ele>57.677964</ele>
        <time>2022-12-19T09:48:50.412Z</time>
      </trkpt>
      <trkpt lat="46.41626" lon="-1.54891">
        <ele>57.547951</ele>
        <time>2022-12-19T09:48:53.345Z</time>
      </trkpt>
      <trkpt lat="46.4162" lon="-1.54876">
        <ele>57.414509</ele>
        <time>2022-12-19T09:48:56.329Z</time>
      </trkpt>
      <trkpt lat="46.41613" lon="-1.54863">
        <ele>57.285473</ele>
        <time>2022-12-19T09:48:59.338Z</time>
      </trkpt>
      <trkpt lat="46.41607" lon="-1.54851">
        <ele>57.165064</ele>
        <time>2022-12-19T09:49:02.325Z</time>
      </trkpt>
      <trkpt lat="46.41599" lon="-1.54838">
        <ele>57.033255</ele>
        <time>2022-12-19T09:49:05.568Z</time>
      </trkpt>
      <trkpt lat="46.41593" lon="-1.54824">
        <ele>56.900628</ele>
        <time>2022-12-19T09:49:08.332Z</time>
      </trkpt>
      <trkpt lat="46.41583" lon="-1.54816">
        <ele>56.775083</ele>
        <time>2022-12-19T09:49:11.340Z</time>
      </trkpt>
      <trkpt lat="46.41573" lon="-1.54813">
        <ele>56.662702</ele>
        <time>2022-12-19T09:49:15.335Z</time>
      </trkpt>
      <trkpt lat="46.41564" lon="-1.54818">
        <ele>56.556316</ele>
        <time>2022-12-19T09:49:19.333Z</time>
      </trkpt>
      <trkpt lat="46.41555" lon="-1.54822">
        <ele>56.446196</ele>
        <time>2022-12-19T09:49:23.331Z</time>
      </trkpt>
      <trkpt lat="46.41547" lon="-1.54829">
        <ele>56.336601</ele>
        <time>2022-12-19T09:49:28.325Z</time>
      </trkpt>
      <trkpt lat="46.41536" lon="-1.54826">
        <ele>56.01681</ele>
        <time>2022-12-19T09:50:20.333Z</time>
      </trkpt>
      <trkpt lat="46.41528" lon="-1.54833">
        <ele>55.710037</ele>
        <time>2022-12-19T09:50:30.333Z</time>
      </trkpt>
      <trkpt lat="46.41531" lon="-1.54825">
        <ele>55.494533</ele>
        <time>2022-12-19T09:51:07.191Z</time>
      </trkpt>
      <trkpt lat="46.41548" lon="-1.5483">
        <ele>54.934578</ele>
        <time>2022-12-19T10:02:27.338Z</time>
      </trkpt>
      <trkpt lat="46.41572" lon="-1.54811">
        <ele>54.066454</ele>
        <time>2022-12-19T10:02:48.333Z</time>
      </trkpt>
      <trkpt lat="46.41568" lon="-1.54796">
        <ele>53.714494</ele>
        <time>2022-12-19T10:02:53.334Z</time>
      </trkpt>
      <trkpt lat="46.41564" lon="-1.54783">
        <ele>53.395563</ele>
        <time>2022-12-19T10:02:56.342Z</time>
      </trkpt>
      <trkpt lat="46.41561" lon="-1.54767">
        <ele>53.019509</ele>
        <time>2022-12-19T10:02:59.331Z</time>
      </trkpt>
      <trkpt lat="46.41558" lon="-1.54749">
        <ele>52.622999</ele>
        <time>2022-12-19T10:03:02.336Z</time>
      </trkpt>
      <trkpt lat="46.41558" lon="-1.54733">
        <ele>52.265829</ele>
        <time>2022-12-19T10:03:05.321Z</time>
      </trkpt>
      <trkpt lat="46.41556" lon="-1.54719">
        <ele>51.934594</ele>
        <time>2022-12-19T10:03:07.331Z</time>
      </trkpt>
      <trkpt lat="46.41555" lon="-1.54704">
        <ele>51.595398</ele>
        <time>2022-12-19T10:03:09.319Z</time>
      </trkpt>
      <trkpt lat="46.41554" lon="-1.54688">
        <ele>51.253577</ele>
        <time>2022-12-19T10:03:11.331Z</time>
      </trkpt>
      <trkpt lat="46.41552" lon="-1.54672">
        <ele>50.883909</ele>
        <time>2022-12-19T10:03:13.328Z</time>
      </trkpt>
      <trkpt lat="46.41551" lon="-1.54657">
        <ele>50.551392</ele>
        <time>2022-12-19T10:03:15.326Z</time>
      </trkpt>
      <trkpt lat="46.4155" lon="-1.54641">
        <ele>50.29273</ele>
        <time>2022-12-19T10:03:17.336Z</time>
      </trkpt>
      <trkpt lat="46.41548" lon="-1.54626">
        <ele>50.060114</ele>
        <time>2022-12-19T10:03:19.323Z</time>
      </trkpt>
      <trkpt lat="46.41547" lon="-1.54611">
        <ele>49.825138</ele>
        <time>2022-12-19T10:03:21.323Z</time>
      </trkpt>
      <trkpt lat="46.41545" lon="-1.54598">
        <ele>49.616391</ele>
        <time>2022-12-19T10:03:23.329Z</time>
      </trkpt>
      <trkpt lat="46.41544" lon="-1.54584">
        <ele>49.404257</ele>
        <time>2022-12-19T10:03:25.325Z</time>
      </trkpt>
      <trkpt lat="46.41541" lon="-1.5457">
        <ele>49.174912</ele>
        <time>2022-12-19T10:03:27.312Z</time>
      </trkpt>
      <trkpt lat="46.4154" lon="-1.54553">
        <ele>48.915373</ele>
        <time>2022-12-19T10:03:30.322Z</time>
      </trkpt>
      <trkpt lat="46.41539" lon="-1.54537">
        <ele>48.659826</ele>
        <time>2022-12-19T10:03:33.371Z</time>
      </trkpt>
      <trkpt lat="46.41537" lon="-1.54521">
        <ele>48.409594</ele>
        <time>2022-12-19T10:03:36.329Z</time>
      </trkpt>
      <trkpt lat="46.41536" lon="-1.54507">
        <ele>48.197801</ele>
        <time>2022-12-19T10:03:39.327Z</time>
      </trkpt>
      <trkpt lat="46.41534" lon="-1.54494">
        <ele>47.986017</ele>
        <time>2022-12-19T10:03:42.323Z</time>
      </trkpt>
      <trkpt lat="46.41532" lon="-1.54477">
        <ele>47.722316</ele>
        <time>2022-12-19T10:03:46.316Z</time>
      </trkpt>
      <trkpt lat="46.41531" lon="-1.54463">
        <ele>47.512664</ele>
        <time>2022-12-19T10:03:49.342Z</time>
      </trkpt>
      <trkpt lat="46.41531" lon="-1.54449">
        <ele>47.294929</ele>
        <time>2022-12-19T10:03:52.333Z</time>
      </trkpt>
      <trkpt lat="46.41529" lon="-1.54436">
        <ele>47.084658</ele>
        <time>2022-12-19T10:03:55.333Z</time>
      </trkpt>
      <trkpt lat="46.41528" lon="-1.5442">
        <ele>46.846193</ele>
        <time>2022-12-19T10:03:58.329Z</time>
      </trkpt>
      <trkpt lat="46.41527" lon="-1.54404">
        <ele>46.600835</ele>
        <time>2022-12-19T10:04:01.329Z</time>
      </trkpt>
      <trkpt lat="46.41525" lon="-1.54389">
        <ele>46.672782</ele>
        <time>2022-12-19T10:04:04.334Z</time>
      </trkpt>
      <trkpt lat="46.41523" lon="-1.54375">
        <ele>47.015461</ele>
        <time>2022-12-19T10:04:07.331Z</time>
      </trkpt>
      <trkpt lat="46.41521" lon="-1.5436">
        <ele>47.371559</ele>
        <time>2022-12-19T10:04:10.339Z</time>
      </trkpt>
      <trkpt lat="46.41519" lon="-1.54342">
        <ele>47.792427</ele>
        <time>2022-12-19T10:04:14.314Z</time>
      </trkpt>
      <trkpt lat="46.41519" lon="-1.54329">
        <ele>48.11656</ele>
        <time>2022-12-19T10:04:17.320Z</time>
      </trkpt>
      <trkpt lat="46.41519" lon="-1.54311">
        <ele>48.530521</ele>
        <time>2022-12-19T10:04:21.340Z</time>
      </trkpt>
      <trkpt lat="46.41519" lon="-1.54298">
        <ele>48.84542</ele>
        <time>2022-12-19T10:04:24.329Z</time>
      </trkpt>
      <trkpt lat="46.41519" lon="-1.54284">
        <ele>49.179225</ele>
        <time>2022-12-19T10:04:27.328Z</time>
      </trkpt>
      <trkpt lat="46.41521" lon="-1.54271">
        <ele>49.492211</ele>
        <time>2022-12-19T10:04:30.320Z</time>
      </trkpt>
      <trkpt lat="46.41521" lon="-1.54257">
        <ele>49.824007</ele>
        <time>2022-12-19T10:04:33.321Z</time>
      </trkpt>
      <trkpt lat="46.41523" lon="-1.54243">
        <ele>50.165654</ele>
        <time>2022-12-19T10:04:36.326Z</time>
      </trkpt>
      <trkpt lat="46.41525" lon="-1.54229">
        <ele>50.495319</ele>
        <time>2022-12-19T10:04:39.325Z</time>
      </trkpt>
      <trkpt lat="46.41527" lon="-1.54216">
        <ele>50.809656</ele>
        <time>2022-12-19T10:04:42.320Z</time>
      </trkpt>
      <trkpt lat="46.41529" lon="-1.54203">
        <ele>51.123991</ele>
        <time>2022-12-19T10:04:45.330Z</time>
      </trkpt>
      <trkpt lat="46.41531" lon="-1.54189">
        <ele>51.457551</ele>
        <time>2022-12-19T10:04:48.329Z</time>
      </trkpt>
      <trkpt lat="46.41533" lon="-1.54176">
        <ele>51.771079</ele>
        <time>2022-12-19T10:04:51.329Z</time>
      </trkpt>
      <trkpt lat="46.41536" lon="-1.5416">
        <ele>52.179734</ele>
        <time>2022-12-19T10:04:55.337Z</time>
      </trkpt>
      <trkpt lat="46.4154" lon="-1.54143">
        <ele>52.58973</ele>
        <time>2022-12-19T10:04:59.322Z</time>
      </trkpt>
      <trkpt lat="46.41543" lon="-1.5413">
        <ele>53.078628</ele>
        <time>2022-12-19T10:05:02.334Z</time>
      </trkpt>
      <trkpt lat="46.41546" lon="-1.54117">
        <ele>53.633322</ele>
        <time>2022-12-19T10:05:05.321Z</time>
      </trkpt>
      <trkpt lat="46.41549" lon="-1.54105">
        <ele>54.175008</ele>
        <time>2022-12-19T10:05:08.334Z</time>
      </trkpt>
      <trkpt lat="46.41553" lon="-1.54092">
        <ele>54.727567</ele>
        <time>2022-12-19T10:05:11.334Z</time>
      </trkpt>
      <trkpt lat="46.41558" lon="-1.54076">
        <ele>55.409385</ele>
        <time>2022-12-19T10:05:15.325Z</time>
      </trkpt>
      <trkpt lat="46.41561" lon="-1.54062">
        <ele>56.021051</ele>
        <time>2022-12-19T10:05:19.318Z</time>
      </trkpt>
      <trkpt lat="46.41564" lon="-1.54048">
        <ele>56.61436</ele>
        <time>2022-12-19T10:05:23.324Z</time>
      </trkpt>
      <trkpt lat="46.41569" lon="-1.54033">
        <ele>57.255037</ele>
        <time>2022-12-19T10:05:28.333Z</time>
      </trkpt>
      <trkpt lat="46.41574" lon="-1.5402">
        <ele>57.853385</ele>
        <time>2022-12-19T10:05:33.331Z</time>
      </trkpt>
      <trkpt lat="46.41581" lon="-1.54017">
        <ele>58.309362</ele>
        <time>2022-12-19T10:08:00.441Z</time>
      </trkpt>
      <trkpt lat="46.35243" lon="-1.37071">
        <ele>49.604271</ele>
        <time>2022-12-19T11:27:38.397Z</time>
      </trkpt>
      <trkpt lat="46.35242" lon="-1.37071">
        <ele>49.60481</ele>
        <time>2022-12-19T11:27:43.671Z</time>
      </trkpt>
      <trkpt lat="46.35235" lon="-1.3706">
        <ele>49.619777</ele>
        <time>2022-12-19T11:51:24.772Z</time>
      </trkpt>
      <trkpt lat="46.35237" lon="-1.37041">
        <ele>49.639458</ele>
        <time>2022-12-19T11:52:18.316Z</time>
      </trkpt>
      <trkpt lat="46.35234" lon="-1.37026">
        <ele>49.656141</ele>
        <time>2022-12-19T11:52:22.339Z</time>
      </trkpt>
      <trkpt lat="46.35233" lon="-1.37012">
        <ele>49.670324</ele>
        <time>2022-12-19T11:52:25.331Z</time>
      </trkpt>
      <trkpt lat="46.35231" lon="-1.36999">
        <ele>49.684787</ele>
        <time>2022-12-19T11:52:28.332Z</time>
      </trkpt>
      <trkpt lat="46.35229" lon="-1.36982">
        <ele>49.701856</ele>
        <time>2022-12-19T11:52:31.329Z</time>
      </trkpt>
      <trkpt lat="46.35226" lon="-1.36966">
        <ele>49.719448</ele>
        <time>2022-12-19T11:52:34.317Z</time>
      </trkpt>
      <trkpt lat="46.35224" lon="-1.36949">
        <ele>49.737174</ele>
        <time>2022-12-19T11:52:37.329Z</time>
      </trkpt>
      <trkpt lat="46.35221" lon="-1.36932">
        <ele>49.776689</ele>
        <time>2022-12-19T11:52:40.330Z</time>
      </trkpt>
      <trkpt lat="46.3522" lon="-1.36915">
        <ele>49.839277</ele>
        <time>2022-12-19T11:52:43.329Z</time>
      </trkpt>
      <trkpt lat="46.35218" lon="-1.36898">
        <ele>49.902006</ele>
        <time>2022-12-19T11:52:46.325Z</time>
      </trkpt>
      <trkpt lat="46.35217" lon="-1.36882">
        <ele>49.959304</ele>
        <time>2022-12-19T11:52:49.335Z</time>
      </trkpt>
      <trkpt lat="46.35216" lon="-1.36868">
        <ele>50.010829</ele>
        <time>2022-12-19T11:52:52.332Z</time>
      </trkpt>
      <trkpt lat="46.35214" lon="-1.36854">
        <ele>50.062354</ele>
        <time>2022-12-19T11:52:55.325Z</time>
      </trkpt>
      <trkpt lat="46.3521" lon="-1.36841">
        <ele>50.115055</ele>
        <time>2022-12-19T11:52:58.319Z</time>
      </trkpt>
      <trkpt lat="46.35204" lon="-1.36829">
        <ele>50.169975</ele>
        <time>2022-12-19T11:53:01.334Z</time>
      </trkpt>
      <trkpt lat="46.35196" lon="-1.3682">
        <ele>50.222307</ele>
        <time>2022-12-19T11:53:04.331Z</time>
      </trkpt>
      <trkpt lat="46.35191" lon="-1.36809">
        <ele>50.269832</ele>
        <time>2022-12-19T11:53:07.346Z</time>
      </trkpt>
      <trkpt lat="46.35185" lon="-1.36799">
        <ele>50.318379</ele>
        <time>2022-12-19T11:53:10.319Z</time>
      </trkpt>
      <trkpt lat="46.35177" lon="-1.36792">
        <ele>50.370175</ele>
        <time>2022-12-19T11:53:13.319Z</time>
      </trkpt>
      <trkpt lat="46.35167" lon="-1.36786">
        <ele>50.424089</ele>
        <time>2022-12-19T11:53:16.333Z</time>
      </trkpt>
      <trkpt lat="46.35156" lon="-1.36782">
        <ele>50.48273</ele>
        <time>2022-12-19T11:53:19.334Z</time>
      </trkpt>
      <trkpt lat="46.35145" lon="-1.36778">
        <ele>50.543969</ele>
        <time>2022-12-19T11:53:22.332Z</time>
      </trkpt>
      <trkpt lat="46.35134" lon="-1.36772">
        <ele>50.605919</ele>
        <time>2022-12-19T11:53:25.332Z</time>
      </trkpt>
      <trkpt lat="46.35123" lon="-1.36767">
        <ele>50.667631</ele>
        <time>2022-12-19T11:53:28.334Z</time>
      </trkpt>
      <trkpt lat="46.35112" lon="-1.36761">
        <ele>50.723311</ele>
        <time>2022-12-19T11:53:31.332Z</time>
      </trkpt>
      <trkpt lat="46.35103" lon="-1.36755">
        <ele>50.771328</ele>
        <time>2022-12-19T11:53:34.343Z</time>
      </trkpt>
      <trkpt lat="46.35092" lon="-1.3675">
        <ele>50.824104</ele>
        <time>2022-12-19T11:53:37.317Z</time>
      </trkpt>
      <trkpt lat="46.35081" lon="-1.36744">
        <ele>50.880677</ele>
        <time>2022-12-19T11:53:40.312Z</time>
      </trkpt>
      <trkpt lat="46.35069" lon="-1.36738">
        <ele>50.938902</ele>
        <time>2022-12-19T11:53:43.337Z</time>
      </trkpt>
      <trkpt lat="46.35057" lon="-1.36732">
        <ele>50.998442</ele>
        <time>2022-12-19T11:53:46.329Z</time>
      </trkpt>
      <trkpt lat="46.35045" lon="-1.36725">
        <ele>51.059755</ele>
        <time>2022-12-19T11:53:49.336Z</time>
      </trkpt>
      <trkpt lat="46.35033" lon="-1.36719">
        <ele>51.119628</ele>
        <time>2022-12-19T11:53:52.334Z</time>
      </trkpt>
      <trkpt lat="46.35023" lon="-1.36713">
        <ele>51.171992</ele>
        <time>2022-12-19T11:53:55.339Z</time>
      </trkpt>
      <trkpt lat="46.35014" lon="-1.36708">
        <ele>51.217793</ele>
        <time>2022-12-19T11:53:58.337Z</time>
      </trkpt>
      <trkpt lat="46.35004" lon="-1.36704">
        <ele>51.264457</ele>
        <time>2022-12-19T11:54:01.333Z</time>
      </trkpt>
      <trkpt lat="46.34995" lon="-1.36703">
        <ele>51.307823</ele>
        <time>2022-12-19T11:54:04.329Z</time>
      </trkpt>
      <trkpt lat="46.34986" lon="-1.36703">
        <ele>51.35365</ele>
        <time>2022-12-19T11:54:08.331Z</time>
      </trkpt>
      <trkpt lat="46.34976" lon="-1.36701">
        <ele>51.398389</ele>
        <time>2022-12-19T11:54:13.334Z</time>
      </trkpt>
      <trkpt lat="46.34966" lon="-1.36701">
        <ele>51.448413</ele>
        <time>2022-12-19T11:54:21.314Z</time>
      </trkpt>
      <trkpt lat="46.34959" lon="-1.36713">
        <ele>51.49618</ele>
        <time>2022-12-19T11:54:25.335Z</time>
      </trkpt>
      <trkpt lat="46.34954" lon="-1.36727">
        <ele>51.536305</ele>
        <time>2022-12-19T11:54:29.315Z</time>
      </trkpt>
      <trkpt lat="46.34945" lon="-1.36733">
        <ele>51.513254</ele>
        <time>2022-12-19T11:54:33.330Z</time>
      </trkpt>
      <trkpt lat="46.34936" lon="-1.36727">
        <ele>51.490392</ele>
        <time>2022-12-19T11:54:38.332Z</time>
      </trkpt>
      <trkpt lat="46.34931" lon="-1.36715">
        <ele>51.468817</ele>
        <time>2022-12-19T11:54:42.330Z</time>
      </trkpt>
      <trkpt lat="46.34928" lon="-1.367">
        <ele>51.442631</ele>
        <time>2022-12-19T11:54:46.336Z</time>
      </trkpt>
      <trkpt lat="46.34925" lon="-1.36687">
        <ele>51.421611</ele>
        <time>2022-12-19T11:54:49.330Z</time>
      </trkpt>
      <trkpt lat="46.34921" lon="-1.36674">
        <ele>51.398795</ele>
        <time>2022-12-19T11:54:52.333Z</time>
      </trkpt>
      <trkpt lat="46.34916" lon="-1.3666">
        <ele>51.37377</ele>
        <time>2022-12-19T11:54:55.331Z</time>
      </trkpt>
      <trkpt lat="46.3491" lon="-1.36647">
        <ele>51.348215</ele>
        <time>2022-12-19T11:54:58.328Z</time>
      </trkpt>
      <trkpt lat="46.34905" lon="-1.36633">
        <ele>51.324037</ele>
        <time>2022-12-19T11:55:01.333Z</time>
      </trkpt>
      <trkpt lat="46.34902" lon="-1.3662">
        <ele>51.301476</ele>
        <time>2022-12-19T11:55:04.332Z</time>
      </trkpt>
      <trkpt lat="46.34901" lon="-1.36606">
        <ele>51.279874</ele>
        <time>2022-12-19T11:55:07.331Z</time>
      </trkpt>
      <trkpt lat="46.349" lon="-1.36591">
        <ele>51.256185</ele>
        <time>2022-12-19T11:55:10.328Z</time>
      </trkpt>
      <trkpt lat="46.34899" lon="-1.36575">
        <ele>51.229171</ele>
        <time>2022-12-19T11:55:13.335Z</time>
      </trkpt>
      <trkpt lat="46.34898" lon="-1.36557">
        <ele>51.20088</ele>
        <time>2022-12-19T11:55:16.337Z</time>
      </trkpt>
      <trkpt lat="46.34898" lon="-1.36541">
        <ele>51.175488</ele>
        <time>2022-12-19T11:55:19.330Z</time>
      </trkpt>
      <trkpt lat="46.34898" lon="-1.36525">
        <ele>51.149782</ele>
        <time>2022-12-19T11:55:22.324Z</time>
      </trkpt>
      <trkpt lat="46.34899" lon="-1.36509">
        <ele>51.123331</ele>
        <time>2022-12-19T11:55:25.341Z</time>
      </trkpt>
      <trkpt lat="46.34899" lon="-1.36491">
        <ele>51.059263</ele>
        <time>2022-12-19T11:55:28.313Z</time>
      </trkpt>
      <trkpt lat="46.34898" lon="-1.36473">
        <ele>50.992549</ele>
        <time>2022-12-19T11:55:31.323Z</time>
      </trkpt>
      <trkpt lat="46.34897" lon="-1.36454">
        <ele>50.923119</ele>
        <time>2022-12-19T11:55:34.328Z</time>
      </trkpt>
      <trkpt lat="46.34897" lon="-1.36434">
        <ele>50.852234</ele>
        <time>2022-12-19T11:55:37.334Z</time>
      </trkpt>
      <trkpt lat="46.34897" lon="-1.36415">
        <ele>50.78135</ele>
        <time>2022-12-19T11:55:40.334Z</time>
      </trkpt>
      <trkpt lat="46.34897" lon="-1.36402">
        <ele>50.733013</ele>
        <time>2022-12-19T11:55:42.331Z</time>
      </trkpt>
      <trkpt lat="46.34896" lon="-1.36384">
        <ele>50.667703</ele>
        <time>2022-12-19T11:55:45.331Z</time>
      </trkpt>
      <trkpt lat="46.34896" lon="-1.3637">
        <ele>50.618616</ele>
        <time>2022-12-19T11:55:47.312Z</time>
      </trkpt>
      <trkpt lat="46.34895" lon="-1.36357">
        <ele>50.570573</ele>
        <time>2022-12-19T11:55:49.317Z</time>
      </trkpt>
      <trkpt lat="46.34895" lon="-1.36338">
        <ele>50.503289</ele>
        <time>2022-12-19T11:55:52.331Z</time>
      </trkpt>
      <trkpt lat="46.34895" lon="-1.3632">
        <ele>50.437865</ele>
        <time>2022-12-19T11:55:55.339Z</time>
      </trkpt>
      <trkpt lat="46.34895" lon="-1.36302">
        <ele>50.369171</ele>
        <time>2022-12-19T11:55:58.335Z</time>
      </trkpt>
      <trkpt lat="46.34894" lon="-1.36283">
        <ele>50.300775</ele>
        <time>2022-12-19T11:56:01.332Z</time>
      </trkpt>
      <trkpt lat="46.34894" lon="-1.36263">
        <ele>50.229891</ele>
        <time>2022-12-19T11:56:04.326Z</time>
      </trkpt>
      <trkpt lat="46.34894" lon="-1.3625">
        <ele>50.182283</ele>
        <time>2022-12-19T11:56:06.330Z</time>
      </trkpt>
      <trkpt lat="46.34894" lon="-1.36237">
        <ele>50.262443</ele>
        <time>2022-12-19T11:56:08.342Z</time>
      </trkpt>
      <trkpt lat="46.34893" lon="-1.36222">
        <ele>50.362071</ele>
        <time>2022-12-19T11:56:10.331Z</time>
      </trkpt>
      <trkpt lat="46.34893" lon="-1.36208">
        <ele>50.462392</ele>
        <time>2022-12-19T11:56:12.337Z</time>
      </trkpt>
      <trkpt lat="46.34892" lon="-1.36188">
        <ele>50.598606</ele>
        <time>2022-12-19T11:56:15.331Z</time>
      </trkpt>
      <trkpt lat="46.34892" lon="-1.3617">
        <ele>50.725231</ele>
        <time>2022-12-19T11:56:18.335Z</time>
      </trkpt>
      <trkpt lat="46.34891" lon="-1.36154">
        <ele>50.841224</ele>
        <time>2022-12-19T11:56:21.329Z</time>
      </trkpt>
      <trkpt lat="46.3489" lon="-1.36137">
        <ele>50.958409</ele>
        <time>2022-12-19T11:56:24.332Z</time>
      </trkpt>
      <trkpt lat="46.34889" lon="-1.3612">
        <ele>51.078364</ele>
        <time>2022-12-19T11:56:27.332Z</time>
      </trkpt>
      <trkpt lat="46.34888" lon="-1.36102">
        <ele>51.199554</ele>
        <time>2022-12-19T11:56:30.315Z</time>
      </trkpt>
      <trkpt lat="46.34886" lon="-1.36082">
        <ele>51.340053</ele>
        <time>2022-12-19T11:56:33.317Z</time>
      </trkpt>
      <trkpt lat="46.34885" lon="-1.36065">
        <ele>51.462173</ele>
        <time>2022-12-19T11:56:36.331Z</time>
      </trkpt>
      <trkpt lat="46.34884" lon="-1.36047">
        <ele>51.585591</ele>
        <time>2022-12-19T11:56:39.332Z</time>
      </trkpt>
      <trkpt lat="46.34883" lon="-1.36029">
        <ele>51.712404</ele>
        <time>2022-12-19T11:56:42.332Z</time>
      </trkpt>
      <trkpt lat="46.34881" lon="-1.36011">
        <ele>51.838287</ele>
        <time>2022-12-19T11:56:45.327Z</time>
      </trkpt>
      <trkpt lat="46.3488" lon="-1.35992">
        <ele>51.968315</ele>
        <time>2022-12-19T11:56:48.330Z</time>
      </trkpt>
      <trkpt lat="46.34878" lon="-1.35973">
        <ele>51.906964</ele>
        <time>2022-12-19T11:56:51.313Z</time>
      </trkpt>
      <trkpt lat="46.34877" lon="-1.3596">
        <ele>51.838456</ele>
        <time>2022-12-19T11:56:53.318Z</time>
      </trkpt>
      <trkpt lat="46.34876" lon="-1.35943">
        <ele>51.751013</ele>
        <time>2022-12-19T11:56:56.324Z</time>
      </trkpt>
      <trkpt lat="46.34875" lon="-1.35927">
        <ele>51.669035</ele>
        <time>2022-12-19T11:56:59.342Z</time>
      </trkpt>
      <trkpt lat="46.34872" lon="-1.35908">
        <ele>51.570623</ele>
        <time>2022-12-19T11:57:02.315Z</time>
      </trkpt>
      <trkpt lat="46.34868" lon="-1.35894">
        <ele>51.495186</ele>
        <time>2022-12-19T11:57:04.315Z</time>
      </trkpt>
      <trkpt lat="46.34864" lon="-1.35874">
        <ele>51.389712</ele>
        <time>2022-12-19T11:57:07.316Z</time>
      </trkpt>
      <trkpt lat="46.34861" lon="-1.35857">
        <ele>51.301363</ele>
        <time>2022-12-19T11:57:10.333Z</time>
      </trkpt>
      <trkpt lat="46.34859" lon="-1.35845">
        <ele>51.234815</ele>
        <time>2022-12-19T11:57:12.331Z</time>
      </trkpt>
      <trkpt lat="46.34854" lon="-1.35828">
        <ele>51.14322</ele>
        <time>2022-12-19T11:57:15.346Z</time>
      </trkpt>
      <trkpt lat="46.34849" lon="-1.35811">
        <ele>51.046758</ele>
        <time>2022-12-19T11:57:18.333Z</time>
      </trkpt>
      <trkpt lat="46.34845" lon="-1.35797">
        <ele>50.973399</ele>
        <time>2022-12-19T11:57:20.330Z</time>
      </trkpt>
      <trkpt lat="46.34841" lon="-1.35785">
        <ele>50.902746</ele>
        <time>2022-12-19T11:57:22.316Z</time>
      </trkpt>
      <trkpt lat="46.34837" lon="-1.35768">
        <ele>50.810936</ele>
        <time>2022-12-19T11:57:25.331Z</time>
      </trkpt>
      <trkpt lat="46.34832" lon="-1.35751">
        <ele>50.718233</ele>
        <time>2022-12-19T11:57:28.331Z</time>
      </trkpt>
      <trkpt lat="46.34828" lon="-1.35738">
        <ele>50.664216</ele>
        <time>2022-12-19T11:57:31.337Z</time>
      </trkpt>
      <trkpt lat="46.34823" lon="-1.35721">
        <ele>50.664216</ele>
        <time>2022-12-19T11:57:34.332Z</time>
      </trkpt>
      <trkpt lat="46.34819" lon="-1.35703">
        <ele>50.664216</ele>
        <time>2022-12-19T11:57:37.333Z</time>
      </trkpt>
      <trkpt lat="46.34814" lon="-1.35686">
        <ele>50.664216</ele>
        <time>2022-12-19T11:57:40.331Z</time>
      </trkpt>
      <trkpt lat="46.3481" lon="-1.35669">
        <ele>50.664216</ele>
        <time>2022-12-19T11:57:43.333Z</time>
      </trkpt>
      <trkpt lat="46.34806" lon="-1.35654">
        <ele>50.664216</ele>
        <time>2022-12-19T11:57:46.324Z</time>
      </trkpt>
      <trkpt lat="46.34802" lon="-1.35638">
        <ele>50.664216</ele>
        <time>2022-12-19T11:57:49.341Z</time>
      </trkpt>
      <trkpt lat="46.34798" lon="-1.35624">
        <ele>50.664216</ele>
        <time>2022-12-19T11:57:52.342Z</time>
      </trkpt>
      <trkpt lat="46.34795" lon="-1.35611">
        <ele>50.664216</ele>
        <time>2022-12-19T11:57:55.334Z</time>
      </trkpt>
      <trkpt lat="46.34789" lon="-1.35598">
        <ele>50.664216</ele>
        <time>2022-12-19T11:57:59.343Z</time>
      </trkpt>
      <trkpt lat="46.34788" lon="-1.35593">
        <ele>50.664216</ele>
        <time>2022-12-19T11:58:39.170Z</time>
      </trkpt>
      <trkpt lat="46.34788" lon="-1.35594">
        <ele>48.210512</ele>
        <time>2022-12-19T12:00:04.380Z</time>
      </trkpt>
      <trkpt lat="46.34785" lon="-1.35574">
        <ele>48.210512</ele>
        <time>2022-12-19T12:00:16.319Z</time>
      </trkpt>
      <trkpt lat="46.3478" lon="-1.35558">
        <ele>48.210512</ele>
        <time>2022-12-19T12:00:20.334Z</time>
      </trkpt>
      <trkpt lat="46.34776" lon="-1.35544">
        <ele>48.210512</ele>
        <time>2022-12-19T12:00:23.338Z</time>
      </trkpt>
      <trkpt lat="46.34772" lon="-1.35529">
        <ele>48.210512</ele>
        <time>2022-12-19T12:00:26.337Z</time>
      </trkpt>
      <trkpt lat="46.34768" lon="-1.35513">
        <ele>48.210512</ele>
        <time>2022-12-19T12:00:29.312Z</time>
      </trkpt>
      <trkpt lat="46.34763" lon="-1.35497">
        <ele>48.210512</ele>
        <time>2022-12-19T12:00:32.339Z</time>
      </trkpt>
      <trkpt lat="46.34759" lon="-1.35481">
        <ele>48.210512</ele>
        <time>2022-12-19T12:00:35.337Z</time>
      </trkpt>
      <trkpt lat="46.34755" lon="-1.35466">
        <ele>48.201448</ele>
        <time>2022-12-19T12:00:38.331Z</time>
      </trkpt>
      <trkpt lat="46.34751" lon="-1.35452">
        <ele>48.181213</ele>
        <time>2022-12-19T12:00:41.335Z</time>
      </trkpt>
      <trkpt lat="46.34747" lon="-1.35437">
        <ele>48.160474</ele>
        <time>2022-12-19T12:00:44.322Z</time>
      </trkpt>
      <trkpt lat="46.34742" lon="-1.35422">
        <ele>48.138403</ele>
        <time>2022-12-19T12:00:47.317Z</time>
      </trkpt>
      <trkpt lat="46.34738" lon="-1.35407">
        <ele>48.11761</ele>
        <time>2022-12-19T12:00:50.330Z</time>
      </trkpt>
      <trkpt lat="46.34735" lon="-1.35392">
        <ele>48.09751</ele>
        <time>2022-12-19T12:00:53.326Z</time>
      </trkpt>
      <trkpt lat="46.34731" lon="-1.35378">
        <ele>48.077655</ele>
        <time>2022-12-19T12:00:56.342Z</time>
      </trkpt>
      <trkpt lat="46.34728" lon="-1.35364">
        <ele>48.057741</ele>
        <time>2022-12-19T12:00:59.335Z</time>
      </trkpt>
      <trkpt lat="46.34724" lon="-1.35348">
        <ele>48.036275</ele>
        <time>2022-12-19T12:01:02.331Z</time>
      </trkpt>
      <trkpt lat="46.3472" lon="-1.35332">
        <ele>48.012946</ele>
        <time>2022-12-19T12:01:05.331Z</time>
      </trkpt>
      <trkpt lat="46.34715" lon="-1.35315">
        <ele>47.988716</ele>
        <time>2022-12-19T12:01:08.345Z</time>
      </trkpt>
      <trkpt lat="46.3471" lon="-1.35302">
        <ele>47.969827</ele>
        <time>2022-12-19T12:01:10.340Z</time>
      </trkpt>
      <trkpt lat="46.34707" lon="-1.3529">
        <ele>47.952436</ele>
        <time>2022-12-19T12:01:12.333Z</time>
      </trkpt>
      <trkpt lat="46.34703" lon="-1.35278">
        <ele>47.935264</ele>
        <time>2022-12-19T12:01:14.328Z</time>
      </trkpt>
      <trkpt lat="46.34698" lon="-1.35266">
        <ele>47.916877</ele>
        <time>2022-12-19T12:01:16.332Z</time>
      </trkpt>
      <trkpt lat="46.34693" lon="-1.35253">
        <ele>47.897398</ele>
        <time>2022-12-19T12:01:18.330Z</time>
      </trkpt>
      <trkpt lat="46.34688" lon="-1.35242">
        <ele>47.879357</ele>
        <time>2022-12-19T12:01:20.329Z</time>
      </trkpt>
      <trkpt lat="46.34682" lon="-1.35229">
        <ele>47.873305</ele>
        <time>2022-12-19T12:01:22.343Z</time>
      </trkpt>
      <trkpt lat="46.34676" lon="-1.35218">
        <ele>47.884797</ele>
        <time>2022-12-19T12:01:24.342Z</time>
      </trkpt>
      <trkpt lat="46.34671" lon="-1.35206">
        <ele>47.896158</ele>
        <time>2022-12-19T12:01:26.334Z</time>
      </trkpt>
      <trkpt lat="46.34662" lon="-1.3519">
        <ele>47.91145</ele>
        <time>2022-12-19T12:01:29.325Z</time>
      </trkpt>
      <trkpt lat="46.34656" lon="-1.35179">
        <ele>47.922492</ele>
        <time>2022-12-19T12:01:31.332Z</time>
      </trkpt>
      <trkpt lat="46.34647" lon="-1.35164">
        <ele>47.93845</ele>
        <time>2022-12-19T12:01:34.334Z</time>
      </trkpt>
      <trkpt lat="46.34641" lon="-1.35152">
        <ele>47.949939</ele>
        <time>2022-12-19T12:01:36.330Z</time>
      </trkpt>
      <trkpt lat="46.34635" lon="-1.35138">
        <ele>47.962778</ele>
        <time>2022-12-19T12:01:38.320Z</time>
      </trkpt>
      <trkpt lat="46.34629" lon="-1.35127">
        <ele>47.973827</ele>
        <time>2022-12-19T12:01:40.324Z</time>
      </trkpt>
      <trkpt lat="46.34623" lon="-1.35116">
        <ele>47.984418</ele>
        <time>2022-12-19T12:01:42.333Z</time>
      </trkpt>
      <trkpt lat="46.34617" lon="-1.35104">
        <ele>47.996243</ele>
        <time>2022-12-19T12:01:44.330Z</time>
      </trkpt>
      <trkpt lat="46.3461" lon="-1.35094">
        <ele>48.007376</ele>
        <time>2022-12-19T12:01:46.335Z</time>
      </trkpt>
      <trkpt lat="46.34603" lon="-1.35083">
        <ele>48.018817</ele>
        <time>2022-12-19T12:01:48.328Z</time>
      </trkpt>
      <trkpt lat="46.34597" lon="-1.35071">
        <ele>48.030085</ele>
        <time>2022-12-19T12:01:50.338Z</time>
      </trkpt>
      <trkpt lat="46.34591" lon="-1.3506">
        <ele>48.04165</ele>
        <time>2022-12-19T12:01:52.330Z</time>
      </trkpt>
      <trkpt lat="46.34585" lon="-1.35048">
        <ele>48.05269</ele>
        <time>2022-12-19T12:01:54.338Z</time>
      </trkpt>
      <trkpt lat="46.3458" lon="-1.35037">
        <ele>48.063025</ele>
        <time>2022-12-19T12:01:56.325Z</time>
      </trkpt>
      <trkpt lat="46.34574" lon="-1.35025">
        <ele>48.052292</ele>
        <time>2022-12-19T12:01:58.330Z</time>
      </trkpt>
      <trkpt lat="46.34569" lon="-1.35014">
        <ele>47.979858</ele>
        <time>2022-12-19T12:02:00.329Z</time>
      </trkpt>
      <trkpt lat="46.34562" lon="-1.35004">
        <ele>47.905753</ele>
        <time>2022-12-19T12:02:02.335Z</time>
      </trkpt>
      <trkpt lat="46.34556" lon="-1.34994">
        <ele>47.832461</ele>
        <time>2022-12-19T12:02:04.337Z</time>
      </trkpt>
      <trkpt lat="46.3455" lon="-1.34983">
        <ele>47.757833</ele>
        <time>2022-12-19T12:02:06.314Z</time>
      </trkpt>
      <trkpt lat="46.34542" lon="-1.34968">
        <ele>47.653354</ele>
        <time>2022-12-19T12:02:09.331Z</time>
      </trkpt>
      <trkpt lat="46.34535" lon="-1.34953">
        <ele>47.554276</ele>
        <time>2022-12-19T12:02:12.323Z</time>
      </trkpt>
      <trkpt lat="46.34527" lon="-1.34938">
        <ele>47.452705</ele>
        <time>2022-12-19T12:02:15.334Z</time>
      </trkpt>
      <trkpt lat="46.34521" lon="-1.34926">
        <ele>47.369991</ele>
        <time>2022-12-19T12:02:17.344Z</time>
      </trkpt>
      <trkpt lat="46.34511" lon="-1.3491">
        <ele>47.257073</ele>
        <time>2022-12-19T12:02:20.345Z</time>
      </trkpt>
      <trkpt lat="46.34506" lon="-1.34899">
        <ele>47.183782</ele>
        <time>2022-12-19T12:02:22.330Z</time>
      </trkpt>
      <trkpt lat="46.345" lon="-1.34888">
        <ele>47.109234</ele>
        <time>2022-12-19T12:02:24.335Z</time>
      </trkpt>
      <trkpt lat="46.34492" lon="-1.34873">
        <ele>47.00541</ele>
        <time>2022-12-19T12:02:27.331Z</time>
      </trkpt>
      <trkpt lat="46.34486" lon="-1.34863">
        <ele>46.934076</ele>
        <time>2022-12-19T12:02:29.322Z</time>
      </trkpt>
      <trkpt lat="46.3448" lon="-1.34853">
        <ele>46.861818</ele>
        <time>2022-12-19T12:02:31.323Z</time>
      </trkpt>
      <trkpt lat="46.34472" lon="-1.34839">
        <ele>46.76151</ele>
        <time>2022-12-19T12:02:34.318Z</time>
      </trkpt>
      <trkpt lat="46.34464" lon="-1.34823">
        <ele>46.655899</ele>
        <time>2022-12-19T12:02:37.334Z</time>
      </trkpt>
      <trkpt lat="46.34458" lon="-1.34812">
        <ele>46.597559</ele>
        <time>2022-12-19T12:02:39.327Z</time>
      </trkpt>
      <trkpt lat="46.34451" lon="-1.34798">
        <ele>46.524333</ele>
        <time>2022-12-19T12:02:42.344Z</time>
      </trkpt>
      <trkpt lat="46.34445" lon="-1.34783">
        <ele>46.448637</ele>
        <time>2022-12-19T12:02:45.332Z</time>
      </trkpt>
      <trkpt lat="46.34438" lon="-1.34768">
        <ele>46.369401</ele>
        <time>2022-12-19T12:02:48.335Z</time>
      </trkpt>
      <trkpt lat="46.34431" lon="-1.34753">
        <ele>46.290554</ele>
        <time>2022-12-19T12:02:51.323Z</time>
      </trkpt>
      <trkpt lat="46.34424" lon="-1.34736">
        <ele>46.209052</ele>
        <time>2022-12-19T12:02:54.314Z</time>
      </trkpt>
      <trkpt lat="46.34418" lon="-1.34719">
        <ele>46.126258</ele>
        <time>2022-12-19T12:02:57.318Z</time>
      </trkpt>
      <trkpt lat="46.34414" lon="-1.34707">
        <ele>46.06901</ele>
        <time>2022-12-19T12:02:59.332Z</time>
      </trkpt>
      <trkpt lat="46.34411" lon="-1.34694">
        <ele>46.010488</ele>
        <time>2022-12-19T12:03:01.331Z</time>
      </trkpt>
      <trkpt lat="46.34408" lon="-1.34681">
        <ele>45.949557</ele>
        <time>2022-12-19T12:03:03.332Z</time>
      </trkpt>
      <trkpt lat="46.34404" lon="-1.34668">
        <ele>45.889778</ele>
        <time>2022-12-19T12:03:05.325Z</time>
      </trkpt>
      <trkpt lat="46.344" lon="-1.34655">
        <ele>45.828003</ele>
        <time>2022-12-19T12:03:07.330Z</time>
      </trkpt>
      <trkpt lat="46.34398" lon="-1.34642">
        <ele>45.768676</ele>
        <time>2022-12-19T12:03:09.341Z</time>
      </trkpt>
      <trkpt lat="46.34395" lon="-1.34629">
        <ele>45.711765</ele>
        <time>2022-12-19T12:03:11.328Z</time>
      </trkpt>
      <trkpt lat="46.34392" lon="-1.34616">
        <ele>45.654703</ele>
        <time>2022-12-19T12:03:13.336Z</time>
      </trkpt>
      <trkpt lat="46.34389" lon="-1.34599">
        <ele>45.575841</ele>
        <time>2022-12-19T12:03:16.336Z</time>
      </trkpt>
      <trkpt lat="46.34386" lon="-1.34581">
        <ele>45.549148</ele>
        <time>2022-12-19T12:03:19.337Z</time>
      </trkpt>
      <trkpt lat="46.34382" lon="-1.34564">
        <ele>45.566997</ele>
        <time>2022-12-19T12:03:22.342Z</time>
      </trkpt>
      <trkpt lat="46.34378" lon="-1.34547">
        <ele>45.585888</ele>
        <time>2022-12-19T12:03:25.332Z</time>
      </trkpt>
      <trkpt lat="46.34374" lon="-1.34529">
        <ele>45.604927</ele>
        <time>2022-12-19T12:03:28.319Z</time>
      </trkpt>
      <trkpt lat="46.3437" lon="-1.3451">
        <ele>45.624746</ele>
        <time>2022-12-19T12:03:31.313Z</time>
      </trkpt>
      <trkpt lat="46.34367" lon="-1.34498">
        <ele>45.638383</ele>
        <time>2022-12-19T12:03:33.321Z</time>
      </trkpt>
      <trkpt lat="46.34364" lon="-1.34485">
        <ele>45.652409</ele>
        <time>2022-12-19T12:03:35.331Z</time>
      </trkpt>
      <trkpt lat="46.34361" lon="-1.34472">
        <ele>45.666288</ele>
        <time>2022-12-19T12:03:37.340Z</time>
      </trkpt>
      <trkpt lat="46.34358" lon="-1.34459">
        <ele>45.679783</ele>
        <time>2022-12-19T12:03:39.343Z</time>
      </trkpt>
      <trkpt lat="46.34355" lon="-1.34442">
        <ele>45.698486</ele>
        <time>2022-12-19T12:03:42.342Z</time>
      </trkpt>
      <trkpt lat="46.3435" lon="-1.34425">
        <ele>45.71659</ele>
        <time>2022-12-19T12:03:45.329Z</time>
      </trkpt>
      <trkpt lat="46.34345" lon="-1.34409">
        <ele>45.735267</ele>
        <time>2022-12-19T12:03:48.340Z</time>
      </trkpt>
      <trkpt lat="46.34339" lon="-1.34392">
        <ele>45.754692</ele>
        <time>2022-12-19T12:03:51.324Z</time>
      </trkpt>
      <trkpt lat="46.34332" lon="-1.34376">
        <ele>45.773597</ele>
        <time>2022-12-19T12:03:54.342Z</time>
      </trkpt>
      <trkpt lat="46.34326" lon="-1.34363">
        <ele>45.789037</ele>
        <time>2022-12-19T12:03:57.331Z</time>
      </trkpt>
      <trkpt lat="46.3432" lon="-1.34352">
        <ele>45.804176</ele>
        <time>2022-12-19T12:04:00.327Z</time>
      </trkpt>
      <trkpt lat="46.34314" lon="-1.34341">
        <ele>45.904021</ele>
        <time>2022-12-19T12:04:03.337Z</time>
      </trkpt>
      <trkpt lat="46.34307" lon="-1.34328">
        <ele>46.037642</ele>
        <time>2022-12-19T12:04:07.337Z</time>
      </trkpt>
      <trkpt lat="46.343" lon="-1.34318">
        <ele>46.151158</ele>
        <time>2022-12-19T12:04:10.333Z</time>
      </trkpt>
      <trkpt lat="46.34293" lon="-1.34307">
        <ele>46.267263</ele>
        <time>2022-12-19T12:04:13.333Z</time>
      </trkpt>
      <trkpt lat="46.34286" lon="-1.34297">
        <ele>46.377081</ele>
        <time>2022-12-19T12:04:16.330Z</time>
      </trkpt>
      <trkpt lat="46.34279" lon="-1.34288">
        <ele>46.489101</ele>
        <time>2022-12-19T12:04:19.321Z</time>
      </trkpt>
      <trkpt lat="46.34272" lon="-1.34277">
        <ele>46.606112</ele>
        <time>2022-12-19T12:04:22.332Z</time>
      </trkpt>
      <trkpt lat="46.34265" lon="-1.34266">
        <ele>46.725652</ele>
        <time>2022-12-19T12:04:25.331Z</time>
      </trkpt>
      <trkpt lat="46.34258" lon="-1.34253">
        <ele>46.850005</ele>
        <time>2022-12-19T12:04:28.337Z</time>
      </trkpt>
      <trkpt lat="46.34251" lon="-1.34241">
        <ele>46.977636</ele>
        <time>2022-12-19T12:04:31.342Z</time>
      </trkpt>
      <trkpt lat="46.34243" lon="-1.34229">
        <ele>47.106441</ele>
        <time>2022-12-19T12:04:34.340Z</time>
      </trkpt>
      <trkpt lat="46.34236" lon="-1.34216">
        <ele>47.236276</ele>
        <time>2022-12-19T12:04:37.343Z</time>
      </trkpt>
      <trkpt lat="46.34229" lon="-1.34204">
        <ele>47.36002</ele>
        <time>2022-12-19T12:04:40.333Z</time>
      </trkpt>
      <trkpt lat="46.34224" lon="-1.34192">
        <ele>47.475013</ele>
        <time>2022-12-19T12:04:43.342Z</time>
      </trkpt>
      <trkpt lat="46.34218" lon="-1.3418">
        <ele>47.587985</ele>
        <time>2022-12-19T12:04:46.335Z</time>
      </trkpt>
      <trkpt lat="46.3421" lon="-1.34169">
        <ele>47.713874</ele>
        <time>2022-12-19T12:04:49.331Z</time>
      </trkpt>
      <trkpt lat="46.34203" lon="-1.34157">
        <ele>47.840923</ele>
        <time>2022-12-19T12:04:52.316Z</time>
      </trkpt>
      <trkpt lat="46.34196" lon="-1.34144">
        <ele>47.840702</ele>
        <time>2022-12-19T12:04:55.332Z</time>
      </trkpt>
      <trkpt lat="46.34189" lon="-1.34132">
        <ele>47.819278</ele>
        <time>2022-12-19T12:04:58.335Z</time>
      </trkpt>
      <trkpt lat="46.34181" lon="-1.3412">
        <ele>47.797395</ele>
        <time>2022-12-19T12:05:01.343Z</time>
      </trkpt>
      <trkpt lat="46.34174" lon="-1.34108">
        <ele>47.775842</ele>
        <time>2022-12-19T12:05:04.317Z</time>
      </trkpt>
      <trkpt lat="46.34167" lon="-1.34096">
        <ele>47.75479</ele>
        <time>2022-12-19T12:05:07.313Z</time>
      </trkpt>
      <trkpt lat="46.3416" lon="-1.34084">
        <ele>47.732997</ele>
        <time>2022-12-19T12:05:10.331Z</time>
      </trkpt>
      <trkpt lat="46.34152" lon="-1.34072">
        <ele>47.711084</ele>
        <time>2022-12-19T12:05:13.341Z</time>
      </trkpt>
      <trkpt lat="46.34145" lon="-1.34061">
        <ele>47.691648</ele>
        <time>2022-12-19T12:05:16.330Z</time>
      </trkpt>
      <trkpt lat="46.34139" lon="-1.34051">
        <ele>47.673767</ele>
        <time>2022-12-19T12:05:19.324Z</time>
      </trkpt>
      <trkpt lat="46.34132" lon="-1.3404">
        <ele>47.653938</ele>
        <time>2022-12-19T12:05:22.340Z</time>
      </trkpt>
      <trkpt lat="46.34125" lon="-1.34028">
        <ele>47.632665</ele>
        <time>2022-12-19T12:05:25.343Z</time>
      </trkpt>
      <trkpt lat="46.34118" lon="-1.34016">
        <ele>47.611495</ele>
        <time>2022-12-19T12:05:28.341Z</time>
      </trkpt>
      <trkpt lat="46.34111" lon="-1.34004">
        <ele>47.589558</ele>
        <time>2022-12-19T12:05:31.328Z</time>
      </trkpt>
      <trkpt lat="46.34104" lon="-1.33992">
        <ele>47.567745</ele>
        <time>2022-12-19T12:05:34.335Z</time>
      </trkpt>
      <trkpt lat="46.34096" lon="-1.33981">
        <ele>47.546449</ele>
        <time>2022-12-19T12:05:37.320Z</time>
      </trkpt>
      <trkpt lat="46.34088" lon="-1.33969">
        <ele>47.52397</ele>
        <time>2022-12-19T12:05:40.332Z</time>
      </trkpt>
      <trkpt lat="46.34079" lon="-1.33958">
        <ele>47.457706</ele>
        <time>2022-12-19T12:05:43.330Z</time>
      </trkpt>
      <trkpt lat="46.34072" lon="-1.33947">
        <ele>47.291837</ele>
        <time>2022-12-19T12:05:46.338Z</time>
      </trkpt>
      <trkpt lat="46.34064" lon="-1.33936">
        <ele>47.121325</ele>
        <time>2022-12-19T12:05:50.339Z</time>
      </trkpt>
      <trkpt lat="46.34055" lon="-1.33933">
        <ele>46.975613</ele>
        <time>2022-12-19T12:05:55.321Z</time>
      </trkpt>
      <trkpt lat="46.34048" lon="-1.33926">
        <ele>46.831128</ele>
        <time>2022-12-19T12:05:59.310Z</time>
      </trkpt>
      <trkpt lat="46.34041" lon="-1.33917">
        <ele>46.684238</ele>
        <time>2022-12-19T12:06:02.334Z</time>
      </trkpt>
      <trkpt lat="46.34033" lon="-1.33908">
        <ele>46.523097</ele>
        <time>2022-12-19T12:06:05.315Z</time>
      </trkpt>
      <trkpt lat="46.34025" lon="-1.33897">
        <ele>46.349244</ele>
        <time>2022-12-19T12:06:08.334Z</time>
      </trkpt>
      <trkpt lat="46.34016" lon="-1.33886">
        <ele>46.168236</ele>
        <time>2022-12-19T12:06:11.339Z</time>
      </trkpt>
      <trkpt lat="46.34008" lon="-1.33876">
        <ele>45.989681</ele>
        <time>2022-12-19T12:06:14.329Z</time>
      </trkpt>
      <trkpt lat="46.33999" lon="-1.33866">
        <ele>45.816559</ele>
        <time>2022-12-19T12:06:17.329Z</time>
      </trkpt>
      <trkpt lat="46.3399" lon="-1.33856">
        <ele>45.64143</ele>
        <time>2022-12-19T12:06:20.319Z</time>
      </trkpt>
      <trkpt lat="46.33981" lon="-1.33846">
        <ele>45.459187</ele>
        <time>2022-12-19T12:06:23.318Z</time>
      </trkpt>
      <trkpt lat="46.33972" lon="-1.33834">
        <ele>45.265123</ele>
        <time>2022-12-19T12:06:26.313Z</time>
      </trkpt>
      <trkpt lat="46.33963" lon="-1.33823">
        <ele>45.07588</ele>
        <time>2022-12-19T12:06:29.340Z</time>
      </trkpt>
      <trkpt lat="46.33954" lon="-1.33813">
        <ele>44.90096</ele>
        <time>2022-12-19T12:06:32.336Z</time>
      </trkpt>
      <trkpt lat="46.33945" lon="-1.33802">
        <ele>44.715053</ele>
        <time>2022-12-19T12:06:35.341Z</time>
      </trkpt>
      <trkpt lat="46.33936" lon="-1.3379">
        <ele>44.618105</ele>
        <time>2022-12-19T12:06:38.327Z</time>
      </trkpt>
      <trkpt lat="46.33927" lon="-1.33779">
        <ele>44.557994</ele>
        <time>2022-12-19T12:06:41.327Z</time>
      </trkpt>
      <trkpt lat="46.33917" lon="-1.33767">
        <ele>44.497974</ele>
        <time>2022-12-19T12:06:44.339Z</time>
      </trkpt>
      <trkpt lat="46.33908" lon="-1.33757">
        <ele>44.439748</ele>
        <time>2022-12-19T12:06:47.339Z</time>
      </trkpt>
      <trkpt lat="46.33899" lon="-1.33746">
        <ele>44.38521</ele>
        <time>2022-12-19T12:06:50.333Z</time>
      </trkpt>
      <trkpt lat="46.3389" lon="-1.33735">
        <ele>44.326145</ele>
        <time>2022-12-19T12:06:53.321Z</time>
      </trkpt>
      <trkpt lat="46.3388" lon="-1.33724">
        <ele>44.26594</ele>
        <time>2022-12-19T12:06:56.337Z</time>
      </trkpt>
      <trkpt lat="46.33871" lon="-1.33712">
        <ele>44.204665</ele>
        <time>2022-12-19T12:06:59.317Z</time>
      </trkpt>
      <trkpt lat="46.33861" lon="-1.33702">
        <ele>44.146259</ele>
        <time>2022-12-19T12:07:02.324Z</time>
      </trkpt>
      <trkpt lat="46.33853" lon="-1.33691">
        <ele>44.090944</ele>
        <time>2022-12-19T12:07:05.333Z</time>
      </trkpt>
      <trkpt lat="46.33844" lon="-1.33679">
        <ele>44.03274</ele>
        <time>2022-12-19T12:07:08.332Z</time>
      </trkpt>
      <trkpt lat="46.33834" lon="-1.33668">
        <ele>43.973305</ele>
        <time>2022-12-19T12:07:11.314Z</time>
      </trkpt>
      <trkpt lat="46.33825" lon="-1.33657">
        <ele>43.914634</ele>
        <time>2022-12-19T12:07:14.326Z</time>
      </trkpt>
      <trkpt lat="46.33815" lon="-1.33647">
        <ele>43.855636</ele>
        <time>2022-12-19T12:07:17.320Z</time>
      </trkpt>
      <trkpt lat="46.33807" lon="-1.33636">
        <ele>43.802671</ele>
        <time>2022-12-19T12:07:20.337Z</time>
      </trkpt>
      <trkpt lat="46.338" lon="-1.33627">
        <ele>43.801174</ele>
        <time>2022-12-19T12:07:23.333Z</time>
      </trkpt>
      <trkpt lat="46.33792" lon="-1.33614">
        <ele>43.834766</ele>
        <time>2022-12-19T12:07:27.316Z</time>
      </trkpt>
      <trkpt lat="46.33785" lon="-1.33606">
        <ele>43.860872</ele>
        <time>2022-12-19T12:07:30.342Z</time>
      </trkpt>
      <trkpt lat="46.33778" lon="-1.33597">
        <ele>43.889056</ele>
        <time>2022-12-19T12:07:33.315Z</time>
      </trkpt>
      <trkpt lat="46.3377" lon="-1.33586">
        <ele>43.920093</ele>
        <time>2022-12-19T12:07:36.329Z</time>
      </trkpt>
      <trkpt lat="46.33761" lon="-1.33575">
        <ele>43.952159</ele>
        <time>2022-12-19T12:07:39.328Z</time>
      </trkpt>
      <trkpt lat="46.33753" lon="-1.33564">
        <ele>43.984692</ele>
        <time>2022-12-19T12:07:42.332Z</time>
      </trkpt>
      <trkpt lat="46.33744" lon="-1.33552">
        <ele>44.018664</ele>
        <time>2022-12-19T12:07:45.327Z</time>
      </trkpt>
      <trkpt lat="46.33736" lon="-1.3354">
        <ele>44.052701</ele>
        <time>2022-12-19T12:07:48.331Z</time>
      </trkpt>
      <trkpt lat="46.33727" lon="-1.33527">
        <ele>44.088448</ele>
        <time>2022-12-19T12:07:51.331Z</time>
      </trkpt>
      <trkpt lat="46.33717" lon="-1.33515">
        <ele>44.124879</ele>
        <time>2022-12-19T12:07:54.331Z</time>
      </trkpt>
      <trkpt lat="46.33708" lon="-1.33502">
        <ele>44.160356</ele>
        <time>2022-12-19T12:07:57.347Z</time>
      </trkpt>
      <trkpt lat="46.33699" lon="-1.3349">
        <ele>44.194671</ele>
        <time>2022-12-19T12:08:00.314Z</time>
      </trkpt>
      <trkpt lat="46.33692" lon="-1.3348">
        <ele>44.222973</ele>
        <time>2022-12-19T12:08:03.326Z</time>
      </trkpt>
      <trkpt lat="46.33684" lon="-1.33468">
        <ele>44.256198</ele>
        <time>2022-12-19T12:08:07.341Z</time>
      </trkpt>
      <trkpt lat="46.33676" lon="-1.33455">
        <ele>44.290174</ele>
        <time>2022-12-19T12:08:11.315Z</time>
      </trkpt>
      <trkpt lat="46.33668" lon="-1.33445">
        <ele>44.296529</ele>
        <time>2022-12-19T12:08:14.333Z</time>
      </trkpt>
      <trkpt lat="46.3366" lon="-1.33434">
        <ele>44.295212</ele>
        <time>2022-12-19T12:08:17.329Z</time>
      </trkpt>
      <trkpt lat="46.33651" lon="-1.33422">
        <ele>44.293808</ele>
        <time>2022-12-19T12:08:20.332Z</time>
      </trkpt>
      <trkpt lat="46.33642" lon="-1.33409">
        <ele>44.292393</ele>
        <time>2022-12-19T12:08:23.337Z</time>
      </trkpt>
      <trkpt lat="46.33633" lon="-1.33396">
        <ele>44.290932</ele>
        <time>2022-12-19T12:08:26.338Z</time>
      </trkpt>
      <trkpt lat="46.33624" lon="-1.33385">
        <ele>44.289602</ele>
        <time>2022-12-19T12:08:29.331Z</time>
      </trkpt>
      <trkpt lat="46.33617" lon="-1.33374">
        <ele>44.288449</ele>
        <time>2022-12-19T12:08:32.330Z</time>
      </trkpt>
      <trkpt lat="46.33609" lon="-1.33362">
        <ele>44.28712</ele>
        <time>2022-12-19T12:08:36.336Z</time>
      </trkpt>
      <trkpt lat="46.33603" lon="-1.33351">
        <ele>44.286044</ele>
        <time>2022-12-19T12:08:40.331Z</time>
      </trkpt>
      <trkpt lat="46.33595" lon="-1.33341">
        <ele>44.284788</ele>
        <time>2022-12-19T12:08:45.314Z</time>
      </trkpt>
      <trkpt lat="46.33589" lon="-1.3333">
        <ele>44.283726</ele>
        <time>2022-12-19T12:08:49.314Z</time>
      </trkpt>
      <trkpt lat="46.33591" lon="-1.33314">
        <ele>44.282471</ele>
        <time>2022-12-19T12:08:53.315Z</time>
      </trkpt>
      <trkpt lat="46.33593" lon="-1.33299">
        <ele>44.281256</ele>
        <time>2022-12-19T12:08:56.323Z</time>
      </trkpt>
      <trkpt lat="46.33595" lon="-1.33283">
        <ele>44.279971</ele>
        <time>2022-12-19T12:08:59.340Z</time>
      </trkpt>
      <trkpt lat="46.33596" lon="-1.33267">
        <ele>44.278708</ele>
        <time>2022-12-19T12:09:02.347Z</time>
      </trkpt>
      <trkpt lat="46.33598" lon="-1.3325">
        <ele>44.277385</ele>
        <time>2022-12-19T12:09:05.340Z</time>
      </trkpt>
      <trkpt lat="46.336" lon="-1.33233">
        <ele>44.23644</ele>
        <time>2022-12-19T12:09:08.333Z</time>
      </trkpt>
      <trkpt lat="46.33603" lon="-1.33214">
        <ele>44.175503</ele>
        <time>2022-12-19T12:09:11.336Z</time>
      </trkpt>
      <trkpt lat="46.33605" lon="-1.33202">
        <ele>44.133126</ele>
        <time>2022-12-19T12:09:13.338Z</time>
      </trkpt>
      <trkpt lat="46.33607" lon="-1.33183">
        <ele>44.072919</ele>
        <time>2022-12-19T12:09:16.324Z</time>
      </trkpt>
      <trkpt lat="46.3361" lon="-1.33166">
        <ele>44.015979</ele>
        <time>2022-12-19T12:09:19.333Z</time>
      </trkpt>
      <trkpt lat="46.33613" lon="-1.33149">
        <ele>43.957364</ele>
        <time>2022-12-19T12:09:22.341Z</time>
      </trkpt>
      <trkpt lat="46.33616" lon="-1.3313">
        <ele>43.89675</ele>
        <time>2022-12-19T12:09:25.320Z</time>
      </trkpt>
      <trkpt lat="46.33617" lon="-1.33118">
        <ele>43.854751</ele>
        <time>2022-12-19T12:09:27.318Z</time>
      </trkpt>
      <trkpt lat="46.3362" lon="-1.33099">
        <ele>43.792322</ele>
        <time>2022-12-19T12:09:30.327Z</time>
      </trkpt>
      <trkpt lat="46.33623" lon="-1.33082">
        <ele>43.736736</ele>
        <time>2022-12-19T12:09:33.338Z</time>
      </trkpt>
      <trkpt lat="46.33625" lon="-1.33067">
        <ele>43.684962</ele>
        <time>2022-12-19T12:09:36.316Z</time>
      </trkpt>
      <trkpt lat="46.33627" lon="-1.3305">
        <ele>43.630208</ele>
        <time>2022-12-19T12:09:39.325Z</time>
      </trkpt>
      <trkpt lat="46.33627" lon="-1.33032">
        <ele>43.571234</ele>
        <time>2022-12-19T12:09:42.318Z</time>
      </trkpt>
      <trkpt lat="46.33627" lon="-1.33013">
        <ele>43.511156</ele>
        <time>2022-12-19T12:09:45.329Z</time>
      </trkpt>
      <trkpt lat="46.33624" lon="-1.32995">
        <ele>43.450982</ele>
        <time>2022-12-19T12:09:48.315Z</time>
      </trkpt>
      <trkpt lat="46.33621" lon="-1.32978">
        <ele>43.427646</ele>
        <time>2022-12-19T12:09:51.318Z</time>
      </trkpt>
      <trkpt lat="46.33616" lon="-1.32963">
        <ele>43.419841</ele>
        <time>2022-12-19T12:09:54.334Z</time>
      </trkpt>
      <trkpt lat="46.3361" lon="-1.32949">
        <ele>43.412058</ele>
        <time>2022-12-19T12:09:57.316Z</time>
      </trkpt>
      <trkpt lat="46.33603" lon="-1.32934">
        <ele>43.403878</ele>
        <time>2022-12-19T12:10:00.340Z</time>
      </trkpt>
      <trkpt lat="46.33597" lon="-1.32919">
        <ele>43.395505</ele>
        <time>2022-12-19T12:10:03.340Z</time>
      </trkpt>
      <trkpt lat="46.3359" lon="-1.32903">
        <ele>43.386889</ele>
        <time>2022-12-19T12:10:06.338Z</time>
      </trkpt>
      <trkpt lat="46.33583" lon="-1.32887">
        <ele>43.378135</ele>
        <time>2022-12-19T12:10:09.331Z</time>
      </trkpt>
      <trkpt lat="46.33575" lon="-1.32871">
        <ele>43.369189</ele>
        <time>2022-12-19T12:10:12.336Z</time>
      </trkpt>
      <trkpt lat="46.33568" lon="-1.32856">
        <ele>43.360396</ele>
        <time>2022-12-19T12:10:15.343Z</time>
      </trkpt>
      <trkpt lat="46.33561" lon="-1.32841">
        <ele>43.351872</ele>
        <time>2022-12-19T12:10:18.327Z</time>
      </trkpt>
      <trkpt lat="46.33554" lon="-1.32826">
        <ele>43.34384</ele>
        <time>2022-12-19T12:10:21.331Z</time>
      </trkpt>
      <trkpt lat="46.33548" lon="-1.32811">
        <ele>43.335542</ele>
        <time>2022-12-19T12:10:24.343Z</time>
      </trkpt>
      <trkpt lat="46.33543" lon="-1.328">
        <ele>43.329465</ele>
        <time>2022-12-19T12:10:26.327Z</time>
      </trkpt>
      <trkpt lat="46.33536" lon="-1.32785">
        <ele>43.32113</ele>
        <time>2022-12-19T12:10:29.318Z</time>
      </trkpt>
      <trkpt lat="46.3353" lon="-1.32772">
        <ele>43.313561</ele>
        <time>2022-12-19T12:10:32.333Z</time>
      </trkpt>
      <trkpt lat="46.33524" lon="-1.32758">
        <ele>43.271937</ele>
        <time>2022-12-19T12:10:35.329Z</time>
      </trkpt>
      <trkpt lat="46.33517" lon="-1.32744">
        <ele>43.221111</ele>
        <time>2022-12-19T12:10:38.334Z</time>
      </trkpt>
      <trkpt lat="46.33511" lon="-1.3273">
        <ele>43.170042</ele>
        <time>2022-12-19T12:10:41.321Z</time>
      </trkpt>
      <trkpt lat="46.33504" lon="-1.32716">
        <ele>43.118228</ele>
        <time>2022-12-19T12:10:44.339Z</time>
      </trkpt>
      <trkpt lat="46.33498" lon="-1.32702">
        <ele>43.065653</ele>
        <time>2022-12-19T12:10:47.335Z</time>
      </trkpt>
      <trkpt lat="46.33492" lon="-1.32688">
        <ele>43.014327</ele>
        <time>2022-12-19T12:10:50.341Z</time>
      </trkpt>
      <trkpt lat="46.33485" lon="-1.32673">
        <ele>42.961651</ele>
        <time>2022-12-19T12:10:53.335Z</time>
      </trkpt>
      <trkpt lat="46.33478" lon="-1.32658">
        <ele>42.905792</ele>
        <time>2022-12-19T12:10:56.331Z</time>
      </trkpt>
      <trkpt lat="46.33471" lon="-1.32643">
        <ele>42.848148</ele>
        <time>2022-12-19T12:10:59.333Z</time>
      </trkpt>
      <trkpt lat="46.33464" lon="-1.32627">
        <ele>42.791246</ele>
        <time>2022-12-19T12:11:02.331Z</time>
      </trkpt>
      <trkpt lat="46.33457" lon="-1.32612">
        <ele>42.735134</ele>
        <time>2022-12-19T12:11:05.328Z</time>
      </trkpt>
      <trkpt lat="46.3345" lon="-1.32596">
        <ele>42.676459</ele>
        <time>2022-12-19T12:11:08.346Z</time>
      </trkpt>
      <trkpt lat="46.33443" lon="-1.3258">
        <ele>42.618281</ele>
        <time>2022-12-19T12:11:11.331Z</time>
      </trkpt>
      <trkpt lat="46.33437" lon="-1.32565">
        <ele>42.565661</ele>
        <time>2022-12-19T12:11:14.311Z</time>
      </trkpt>
      <trkpt lat="46.33431" lon="-1.32552">
        <ele>42.516364</ele>
        <time>2022-12-19T12:11:17.326Z</time>
      </trkpt>
      <trkpt lat="46.33424" lon="-1.32538">
        <ele>42.561926</ele>
        <time>2022-12-19T12:11:20.338Z</time>
      </trkpt>
      <trkpt lat="46.33417" lon="-1.32522">
        <ele>42.620229</ele>
        <time>2022-12-19T12:11:23.339Z</time>
      </trkpt>
      <trkpt lat="46.3341" lon="-1.32506">
        <ele>42.677493</ele>
        <time>2022-12-19T12:11:26.341Z</time>
      </trkpt>
      <trkpt lat="46.33403" lon="-1.32491">
        <ele>42.734012</ele>
        <time>2022-12-19T12:11:29.330Z</time>
      </trkpt>
      <trkpt lat="46.33396" lon="-1.32475">
        <ele>42.79178</ele>
        <time>2022-12-19T12:11:32.335Z</time>
      </trkpt>
      <trkpt lat="46.33389" lon="-1.32459">
        <ele>42.849321</ele>
        <time>2022-12-19T12:11:35.310Z</time>
      </trkpt>
      <trkpt lat="46.33382" lon="-1.32444">
        <ele>42.905579</ele>
        <time>2022-12-19T12:11:38.332Z</time>
      </trkpt>
      <trkpt lat="46.33375" lon="-1.3243">
        <ele>42.957486</ele>
        <time>2022-12-19T12:11:41.339Z</time>
      </trkpt>
      <trkpt lat="46.33369" lon="-1.32418">
        <ele>43.005105</ele>
        <time>2022-12-19T12:11:44.315Z</time>
      </trkpt>
      <trkpt lat="46.33365" lon="-1.32406">
        <ele>43.046297</ele>
        <time>2022-12-19T12:11:47.335Z</time>
      </trkpt>
      <trkpt lat="46.3336" lon="-1.32395">
        <ele>43.087976</ele>
        <time>2022-12-19T12:11:50.328Z</time>
      </trkpt>
      <trkpt lat="46.33355" lon="-1.32383">
        <ele>43.132004</ele>
        <time>2022-12-19T12:11:53.346Z</time>
      </trkpt>
      <trkpt lat="46.3335" lon="-1.3237">
        <ele>43.176596</ele>
        <time>2022-12-19T12:11:56.314Z</time>
      </trkpt>
      <trkpt lat="46.33344" lon="-1.32359">
        <ele>43.221906</ele>
        <time>2022-12-19T12:11:59.317Z</time>
      </trkpt>
      <trkpt lat="46.33338" lon="-1.32345">
        <ele>43.270334</ele>
        <time>2022-12-19T12:12:02.333Z</time>
      </trkpt>
      <trkpt lat="46.33331" lon="-1.32331">
        <ele>43.320207</ele>
        <time>2022-12-19T12:12:05.315Z</time>
      </trkpt>
      <trkpt lat="46.33324" lon="-1.32316">
        <ele>43.352727</ele>
        <time>2022-12-19T12:12:08.329Z</time>
      </trkpt>
      <trkpt lat="46.33318" lon="-1.32302">
        <ele>43.383912</ele>
        <time>2022-12-19T12:12:11.361Z</time>
      </trkpt>
      <trkpt lat="46.33311" lon="-1.32288">
        <ele>43.414206</ele>
        <time>2022-12-19T12:12:14.341Z</time>
      </trkpt>
      <trkpt lat="46.33305" lon="-1.32274">
        <ele>43.444201</ele>
        <time>2022-12-19T12:12:17.321Z</time>
      </trkpt>
      <trkpt lat="46.33299" lon="-1.3226">
        <ele>43.473993</ele>
        <time>2022-12-19T12:12:20.342Z</time>
      </trkpt>
      <trkpt lat="46.33295" lon="-1.32246">
        <ele>43.501272</ele>
        <time>2022-12-19T12:12:23.319Z</time>
      </trkpt>
      <trkpt lat="46.3329" lon="-1.32231">
        <ele>43.530843</ele>
        <time>2022-12-19T12:12:27.316Z</time>
      </trkpt>
      <trkpt lat="46.33285" lon="-1.32217">
        <ele>43.55988</ele>
        <time>2022-12-19T12:12:31.306Z</time>
      </trkpt>
      <trkpt lat="46.33277" lon="-1.32205">
        <ele>43.589931</ele>
        <time>2022-12-19T12:12:35.317Z</time>
      </trkpt>
      <trkpt lat="46.33273" lon="-1.3219">
        <ele>43.619711</ele>
        <time>2022-12-19T12:12:39.321Z</time>
      </trkpt>
      <trkpt lat="46.33277" lon="-1.32174">
        <ele>43.65024</ele>
        <time>2022-12-19T12:12:43.312Z</time>
      </trkpt>
      <trkpt lat="46.33281" lon="-1.32161">
        <ele>43.674998</ele>
        <time>2022-12-19T12:12:46.311Z</time>
      </trkpt>
      <trkpt lat="46.33285" lon="-1.32148">
        <ele>43.701773</ele>
        <time>2022-12-19T12:12:49.314Z</time>
      </trkpt>
      <trkpt lat="46.33289" lon="-1.32133">
        <ele>43.730114</ele>
        <time>2022-12-19T12:12:52.325Z</time>
      </trkpt>
      <trkpt lat="46.33293" lon="-1.32118">
        <ele>43.759486</ele>
        <time>2022-12-19T12:12:55.318Z</time>
      </trkpt>
      <trkpt lat="46.33298" lon="-1.32102">
        <ele>43.792348</ele>
        <time>2022-12-19T12:12:58.317Z</time>
      </trkpt>
      <trkpt lat="46.33304" lon="-1.32087">
        <ele>43.843585</ele>
        <time>2022-12-19T12:13:01.343Z</time>
      </trkpt>
      <trkpt lat="46.33309" lon="-1.32071">
        <ele>43.892888</ele>
        <time>2022-12-19T12:13:04.342Z</time>
      </trkpt>
      <trkpt lat="46.33313" lon="-1.32058">
        <ele>43.936391</ele>
        <time>2022-12-19T12:13:07.323Z</time>
      </trkpt>
      <trkpt lat="46.33317" lon="-1.32046">
        <ele>43.974794</ele>
        <time>2022-12-19T12:13:10.311Z</time>
      </trkpt>
      <trkpt lat="46.33321" lon="-1.32033">
        <ele>44.015321</ele>
        <time>2022-12-19T12:13:14.317Z</time>
      </trkpt>
      <trkpt lat="46.33326" lon="-1.32021">
        <ele>44.05507</ele>
        <time>2022-12-19T12:13:18.324Z</time>
      </trkpt>
      <trkpt lat="46.33329" lon="-1.32005">
        <ele>44.102937</ele>
        <time>2022-12-19T12:13:22.320Z</time>
      </trkpt>
      <trkpt lat="46.33333" lon="-1.31989">
        <ele>44.15261</ele>
        <time>2022-12-19T12:13:26.330Z</time>
      </trkpt>
      <trkpt lat="46.33335" lon="-1.31974">
        <ele>44.198209</ele>
        <time>2022-12-19T12:13:30.312Z</time>
      </trkpt>
      <trkpt lat="46.33331" lon="-1.3196">
        <ele>44.24171</ele>
        <time>2022-12-19T12:13:34.311Z</time>
      </trkpt>
      <trkpt lat="46.3333" lon="-1.31945">
        <ele>44.285982</ele>
        <time>2022-12-19T12:13:38.312Z</time>
      </trkpt>
      <trkpt lat="46.33337" lon="-1.31931">
        <ele>44.333512</ele>
        <time>2022-12-19T12:13:42.318Z</time>
      </trkpt>
      <trkpt lat="46.33346" lon="-1.31929">
        <ele>44.37244</ele>
        <time>2022-12-19T12:13:45.313Z</time>
      </trkpt>
      <trkpt lat="46.33356" lon="-1.31926">
        <ele>44.417537</ele>
        <time>2022-12-19T12:13:48.318Z</time>
      </trkpt>
      <trkpt lat="46.33366" lon="-1.31917">
        <ele>44.464266</ele>
        <time>2022-12-19T12:13:51.314Z</time>
      </trkpt>
      <trkpt lat="46.33374" lon="-1.31905">
        <ele>44.512758</ele>
        <time>2022-12-19T12:13:54.315Z</time>
      </trkpt>
      <trkpt lat="46.3338" lon="-1.31892">
        <ele>44.584394</ele>
        <time>2022-12-19T12:13:57.314Z</time>
      </trkpt>
      <trkpt lat="46.33387" lon="-1.31878">
        <ele>44.707451</ele>
        <time>2022-12-19T12:14:00.320Z</time>
      </trkpt>
      <trkpt lat="46.33393" lon="-1.31864">
        <ele>44.831773</ele>
        <time>2022-12-19T12:14:03.317Z</time>
      </trkpt>
      <trkpt lat="46.334" lon="-1.3185">
        <ele>44.96035</ele>
        <time>2022-12-19T12:14:06.332Z</time>
      </trkpt>
      <trkpt lat="46.33407" lon="-1.31835">
        <ele>45.086439</ele>
        <time>2022-12-19T12:14:09.334Z</time>
      </trkpt>
      <trkpt lat="46.33414" lon="-1.31821">
        <ele>45.211291</ele>
        <time>2022-12-19T12:14:12.321Z</time>
      </trkpt>
      <trkpt lat="46.33421" lon="-1.31808">
        <ele>45.335572</ele>
        <time>2022-12-19T12:14:15.314Z</time>
      </trkpt>
      <trkpt lat="46.33426" lon="-1.31794">
        <ele>45.45649</ele>
        <time>2022-12-19T12:14:18.343Z</time>
      </trkpt>
      <trkpt lat="46.33433" lon="-1.31779">
        <ele>45.583162</ele>
        <time>2022-12-19T12:14:21.331Z</time>
      </trkpt>
      <trkpt lat="46.3344" lon="-1.31765">
        <ele>45.712845</ele>
        <time>2022-12-19T12:14:24.324Z</time>
      </trkpt>
      <trkpt lat="46.33447" lon="-1.31751">
        <ele>45.837754</ele>
        <time>2022-12-19T12:14:27.330Z</time>
      </trkpt>
      <trkpt lat="46.33454" lon="-1.31738">
        <ele>45.956015</ele>
        <time>2022-12-19T12:14:30.332Z</time>
      </trkpt>
      <trkpt lat="46.33459" lon="-1.31727">
        <ele>46.055527</ele>
        <time>2022-12-19T12:14:33.335Z</time>
      </trkpt>
      <trkpt lat="46.33464" lon="-1.31715">
        <ele>46.159928</ele>
        <time>2022-12-19T12:14:36.344Z</time>
      </trkpt>
      <trkpt lat="46.33471" lon="-1.31702">
        <ele>46.27573</ele>
        <time>2022-12-19T12:14:39.331Z</time>
      </trkpt>
      <trkpt lat="46.33477" lon="-1.31689">
        <ele>46.395144</ele>
        <time>2022-12-19T12:14:42.333Z</time>
      </trkpt>
      <trkpt lat="46.33483" lon="-1.31674">
        <ele>46.466817</ele>
        <time>2022-12-19T12:14:45.311Z</time>
      </trkpt>
      <trkpt lat="46.33489" lon="-1.31659">
        <ele>46.495643</ele>
        <time>2022-12-19T12:14:48.329Z</time>
      </trkpt>
      <trkpt lat="46.33496" lon="-1.31644">
        <ele>46.523684</ele>
        <time>2022-12-19T12:14:51.321Z</time>
      </trkpt>
      <trkpt lat="46.33503" lon="-1.31631">
        <ele>46.550539</ele>
        <time>2022-12-19T12:14:54.323Z</time>
      </trkpt>
      <trkpt lat="46.33509" lon="-1.31619">
        <ele>46.575918</ele>
        <time>2022-12-19T12:14:57.314Z</time>
      </trkpt>
      <trkpt lat="46.33516" lon="-1.31606">
        <ele>46.600621</ele>
        <time>2022-12-19T12:15:00.340Z</time>
      </trkpt>
      <trkpt lat="46.33521" lon="-1.31594">
        <ele>46.623724</ele>
        <time>2022-12-19T12:15:03.319Z</time>
      </trkpt>
      <trkpt lat="46.33526" lon="-1.31582">
        <ele>46.646339</ele>
        <time>2022-12-19T12:15:06.331Z</time>
      </trkpt>
      <trkpt lat="46.33531" lon="-1.3157">
        <ele>46.669062</ele>
        <time>2022-12-19T12:15:09.344Z</time>
      </trkpt>
      <trkpt lat="46.33536" lon="-1.31559">
        <ele>46.691661</ele>
        <time>2022-12-19T12:15:12.335Z</time>
      </trkpt>
      <trkpt lat="46.33542" lon="-1.31546">
        <ele>46.714658</ele>
        <time>2022-12-19T12:15:15.330Z</time>
      </trkpt>
      <trkpt lat="46.33547" lon="-1.31535">
        <ele>46.737636</ele>
        <time>2022-12-19T12:15:18.342Z</time>
      </trkpt>
      <trkpt lat="46.33554" lon="-1.31522">
        <ele>46.762997</ele>
        <time>2022-12-19T12:15:21.339Z</time>
      </trkpt>
      <trkpt lat="46.3356" lon="-1.31507">
        <ele>46.791983</ele>
        <time>2022-12-19T12:15:24.329Z</time>
      </trkpt>
      <trkpt lat="46.33565" lon="-1.31491">
        <ele>46.820662</ele>
        <time>2022-12-19T12:15:27.324Z</time>
      </trkpt>
      <trkpt lat="46.33569" lon="-1.31474">
        <ele>46.849155</ele>
        <time>2022-12-19T12:15:30.340Z</time>
      </trkpt>
      <trkpt lat="46.33569" lon="-1.31457">
        <ele>46.866182</ele>
        <time>2022-12-19T12:15:33.338Z</time>
      </trkpt>
      <trkpt lat="46.3357" lon="-1.31441">
        <ele>46.803034</ele>
        <time>2022-12-19T12:15:36.340Z</time>
      </trkpt>
      <trkpt lat="46.3357" lon="-1.31423">
        <ele>46.73465</ele>
        <time>2022-12-19T12:15:39.337Z</time>
      </trkpt>
      <trkpt lat="46.33567" lon="-1.31406">
        <ele>46.666457</ele>
        <time>2022-12-19T12:15:42.330Z</time>
      </trkpt>
      <trkpt lat="46.33561" lon="-1.3139">
        <ele>46.596447</ele>
        <time>2022-12-19T12:15:45.334Z</time>
      </trkpt>
      <trkpt lat="46.33554" lon="-1.31375">
        <ele>46.524961</ele>
        <time>2022-12-19T12:15:48.337Z</time>
      </trkpt>
      <trkpt lat="46.33545" lon="-1.31361">
        <ele>46.453968</ele>
        <time>2022-12-19T12:15:51.335Z</time>
      </trkpt>
      <trkpt lat="46.33538" lon="-1.31346">
        <ele>46.384414</ele>
        <time>2022-12-19T12:15:54.340Z</time>
      </trkpt>
      <trkpt lat="46.33532" lon="-1.3133">
        <ele>46.313109</ele>
        <time>2022-12-19T12:15:57.341Z</time>
      </trkpt>
      <trkpt lat="46.33524" lon="-1.31315">
        <ele>46.241967</ele>
        <time>2022-12-19T12:16:00.317Z</time>
      </trkpt>
      <trkpt lat="46.33517" lon="-1.31301">
        <ele>46.173621</ele>
        <time>2022-12-19T12:16:03.345Z</time>
      </trkpt>
      <trkpt lat="46.33509" lon="-1.31288">
        <ele>46.107297</ele>
        <time>2022-12-19T12:16:06.334Z</time>
      </trkpt>
      <trkpt lat="46.33502" lon="-1.31274">
        <ele>46.041193</ele>
        <time>2022-12-19T12:16:09.352Z</time>
      </trkpt>
      <trkpt lat="46.33497" lon="-1.3126">
        <ele>45.979423</ele>
        <time>2022-12-19T12:16:12.324Z</time>
      </trkpt>
      <trkpt lat="46.33491" lon="-1.31247">
        <ele>45.921827</ele>
        <time>2022-12-19T12:16:15.342Z</time>
      </trkpt>
      <trkpt lat="46.33489" lon="-1.31233">
        <ele>45.863251</ele>
        <time>2022-12-19T12:16:18.342Z</time>
      </trkpt>
      <trkpt lat="46.33485" lon="-1.31218">
        <ele>45.786631</ele>
        <time>2022-12-19T12:16:21.341Z</time>
      </trkpt>
      <trkpt lat="46.33482" lon="-1.31202">
        <ele>45.709159</ele>
        <time>2022-12-19T12:16:24.339Z</time>
      </trkpt>
      <trkpt lat="46.33479" lon="-1.31186">
        <ele>45.627621</ele>
        <time>2022-12-19T12:16:27.331Z</time>
      </trkpt>
      <trkpt lat="46.33475" lon="-1.31169">
        <ele>45.542174</ele>
        <time>2022-12-19T12:16:30.342Z</time>
      </trkpt>
      <trkpt lat="46.33469" lon="-1.31153">
        <ele>45.456464</ele>
        <time>2022-12-19T12:16:33.341Z</time>
      </trkpt>
      <trkpt lat="46.33464" lon="-1.31139">
        <ele>45.37694</ele>
        <time>2022-12-19T12:16:36.331Z</time>
      </trkpt>
      <trkpt lat="46.33461" lon="-1.31126">
        <ele>45.313908</ele>
        <time>2022-12-19T12:16:39.342Z</time>
      </trkpt>
      <trkpt lat="46.33456" lon="-1.31112">
        <ele>45.238639</ele>
        <time>2022-12-19T12:16:43.333Z</time>
      </trkpt>
      <trkpt lat="46.33451" lon="-1.31098">
        <ele>45.161224</ele>
        <time>2022-12-19T12:16:47.333Z</time>
      </trkpt>
      <trkpt lat="46.33446" lon="-1.31082">
        <ele>45.080043</ele>
        <time>2022-12-19T12:16:51.335Z</time>
      </trkpt>
      <trkpt lat="46.3344" lon="-1.31068">
        <ele>44.999268</ele>
        <time>2022-12-19T12:16:55.342Z</time>
      </trkpt>
      <trkpt lat="46.33433" lon="-1.31054">
        <ele>44.916322</ele>
        <time>2022-12-19T12:16:59.348Z</time>
      </trkpt>
      <trkpt lat="46.33426" lon="-1.31044">
        <ele>44.848861</ele>
        <time>2022-12-19T12:17:02.341Z</time>
      </trkpt>
      <trkpt lat="46.3342" lon="-1.31033">
        <ele>44.780829</ele>
        <time>2022-12-19T12:17:05.343Z</time>
      </trkpt>
      <trkpt lat="46.33414" lon="-1.31022">
        <ele>44.713692</ele>
        <time>2022-12-19T12:17:08.338Z</time>
      </trkpt>
      <trkpt lat="46.33408" lon="-1.31008">
        <ele>44.633583</ele>
        <time>2022-12-19T12:17:12.341Z</time>
      </trkpt>
      <trkpt lat="46.33401" lon="-1.30995">
        <ele>44.631781</ele>
        <time>2022-12-19T12:17:16.322Z</time>
      </trkpt>
      <trkpt lat="46.33394" lon="-1.30981">
        <ele>44.649478</ele>
        <time>2022-12-19T12:17:20.345Z</time>
      </trkpt>
      <trkpt lat="46.33389" lon="-1.3097">
        <ele>44.662963</ele>
        <time>2022-12-19T12:17:23.342Z</time>
      </trkpt>
      <trkpt lat="46.33382" lon="-1.30958">
        <ele>44.678963</ele>
        <time>2022-12-19T12:17:27.337Z</time>
      </trkpt>
      <trkpt lat="46.33376" lon="-1.30945">
        <ele>44.695316</ele>
        <time>2022-12-19T12:17:31.341Z</time>
      </trkpt>
      <trkpt lat="46.3337" lon="-1.30934">
        <ele>44.709299</ele>
        <time>2022-12-19T12:17:35.343Z</time>
      </trkpt>
      <trkpt lat="46.33364" lon="-1.30921">
        <ele>44.72505</ele>
        <time>2022-12-19T12:17:40.341Z</time>
      </trkpt>
      <trkpt lat="46.33358" lon="-1.30909">
        <ele>44.74023</ele>
        <time>2022-12-19T12:17:45.341Z</time>
      </trkpt>
      <trkpt lat="46.33354" lon="-1.30895">
        <ele>44.755812</ele>
        <time>2022-12-19T12:17:50.341Z</time>
      </trkpt>
      <trkpt lat="46.33349" lon="-1.30882">
        <ele>44.771184</ele>
        <time>2022-12-19T12:17:56.334Z</time>
      </trkpt>
      <trkpt lat="46.33342" lon="-1.30871">
        <ele>44.786817</ele>
        <time>2022-12-19T12:18:00.337Z</time>
      </trkpt>
      <trkpt lat="46.33336" lon="-1.30857">
        <ele>44.803743</ele>
        <time>2022-12-19T12:18:04.338Z</time>
      </trkpt>
      <trkpt lat="46.33329" lon="-1.30842">
        <ele>44.82177</ele>
        <time>2022-12-19T12:18:08.344Z</time>
      </trkpt>
      <trkpt lat="46.33323" lon="-1.30829">
        <ele>44.83737</ele>
        <time>2022-12-19T12:18:11.336Z</time>
      </trkpt>
      <trkpt lat="46.33318" lon="-1.30817">
        <ele>44.852697</ele>
        <time>2022-12-19T12:18:14.339Z</time>
      </trkpt>
      <trkpt lat="46.33312" lon="-1.30805">
        <ele>44.868196</ele>
        <time>2022-12-19T12:18:17.332Z</time>
      </trkpt>
      <trkpt lat="46.33306" lon="-1.30793">
        <ele>44.883018</ele>
        <time>2022-12-19T12:18:20.342Z</time>
      </trkpt>
      <trkpt lat="46.333" lon="-1.30782">
        <ele>44.831044</ele>
        <time>2022-12-19T12:18:23.343Z</time>
      </trkpt>
      <trkpt lat="46.33295" lon="-1.30769">
        <ele>44.766477</ele>
        <time>2022-12-19T12:18:26.339Z</time>
      </trkpt>
      <trkpt lat="46.33289" lon="-1.30756">
        <ele>44.696845</ele>
        <time>2022-12-19T12:18:29.341Z</time>
      </trkpt>
      <trkpt lat="46.33282" lon="-1.30743">
        <ele>44.625321</ele>
        <time>2022-12-19T12:18:32.343Z</time>
      </trkpt>
      <trkpt lat="46.33275" lon="-1.30731">
        <ele>44.553216</ele>
        <time>2022-12-19T12:18:35.340Z</time>
      </trkpt>
      <trkpt lat="46.33269" lon="-1.30718">
        <ele>44.483601</ele>
        <time>2022-12-19T12:18:38.345Z</time>
      </trkpt>
      <trkpt lat="46.3326" lon="-1.30706">
        <ele>44.407709</ele>
        <time>2022-12-19T12:18:41.337Z</time>
      </trkpt>
      <trkpt lat="46.33251" lon="-1.30695">
        <ele>44.326551</ele>
        <time>2022-12-19T12:18:44.345Z</time>
      </trkpt>
      <trkpt lat="46.33242" lon="-1.30682">
        <ele>44.249102</ele>
        <time>2022-12-19T12:18:47.346Z</time>
      </trkpt>
      <trkpt lat="46.33234" lon="-1.3067">
        <ele>44.173249</ele>
        <time>2022-12-19T12:18:50.340Z</time>
      </trkpt>
      <trkpt lat="46.33226" lon="-1.30658">
        <ele>44.098486</ele>
        <time>2022-12-19T12:18:53.345Z</time>
      </trkpt>
      <trkpt lat="46.33218" lon="-1.30645">
        <ele>44.021103</ele>
        <time>2022-12-19T12:18:56.343Z</time>
      </trkpt>
      <trkpt lat="46.3321" lon="-1.30632">
        <ele>43.945686</ele>
        <time>2022-12-19T12:18:59.342Z</time>
      </trkpt>
      <trkpt lat="46.33202" lon="-1.30621">
        <ele>43.874073</ele>
        <time>2022-12-19T12:19:02.335Z</time>
      </trkpt>
      <trkpt lat="46.33195" lon="-1.30609">
        <ele>43.800511</ele>
        <time>2022-12-19T12:19:05.343Z</time>
      </trkpt>
      <trkpt lat="46.33188" lon="-1.30598">
        <ele>43.73523</ele>
        <time>2022-12-19T12:19:08.336Z</time>
      </trkpt>
      <trkpt lat="46.3318" lon="-1.30584">
        <ele>43.75402</ele>
        <time>2022-12-19T12:19:12.339Z</time>
      </trkpt>
      <trkpt lat="46.33174" lon="-1.30574">
        <ele>43.780284</ele>
        <time>2022-12-19T12:19:15.330Z</time>
      </trkpt>
      <trkpt lat="46.33167" lon="-1.30563">
        <ele>43.808086</ele>
        <time>2022-12-19T12:19:18.341Z</time>
      </trkpt>
      <trkpt lat="46.33161" lon="-1.30552">
        <ele>43.83551</ele>
        <time>2022-12-19T12:19:21.335Z</time>
      </trkpt>
      <trkpt lat="46.33153" lon="-1.30541">
        <ele>43.864328</ele>
        <time>2022-12-19T12:19:24.345Z</time>
      </trkpt>
      <trkpt lat="46.33146" lon="-1.30529">
        <ele>43.895101</ele>
        <time>2022-12-19T12:19:27.330Z</time>
      </trkpt>
      <trkpt lat="46.33138" lon="-1.30517">
        <ele>43.92722</ele>
        <time>2022-12-19T12:19:30.337Z</time>
      </trkpt>
      <trkpt lat="46.33129" lon="-1.30506">
        <ele>43.958637</ele>
        <time>2022-12-19T12:19:33.339Z</time>
      </trkpt>
      <trkpt lat="46.33121" lon="-1.30494">
        <ele>43.98979</ele>
        <time>2022-12-19T12:19:36.341Z</time>
      </trkpt>
      <trkpt lat="46.33114" lon="-1.30481">
        <ele>44.021825</ele>
        <time>2022-12-19T12:19:39.342Z</time>
      </trkpt>
      <trkpt lat="46.33105" lon="-1.3047">
        <ele>44.054274</ele>
        <time>2022-12-19T12:19:42.339Z</time>
      </trkpt>
      <trkpt lat="46.33097" lon="-1.30458">
        <ele>44.086006</ele>
        <time>2022-12-19T12:19:45.331Z</time>
      </trkpt>
      <trkpt lat="46.33089" lon="-1.3045">
        <ele>44.112411</ele>
        <time>2022-12-19T12:19:48.340Z</time>
      </trkpt>
      <trkpt lat="46.33083" lon="-1.30441">
        <ele>44.137295</ele>
        <time>2022-12-19T12:19:51.343Z</time>
      </trkpt>
      <trkpt lat="46.33076" lon="-1.3043">
        <ele>44.164225</ele>
        <time>2022-12-19T12:19:54.346Z</time>
      </trkpt>
      <trkpt lat="46.33068" lon="-1.30421">
        <ele>44.19109</ele>
        <time>2022-12-19T12:19:57.319Z</time>
      </trkpt>
      <trkpt lat="46.33061" lon="-1.30411">
        <ele>44.219292</ele>
        <time>2022-12-19T12:20:01.340Z</time>
      </trkpt>
      <trkpt lat="46.33052" lon="-1.30399">
        <ele>44.218045</ele>
        <time>2022-12-19T12:20:05.339Z</time>
      </trkpt>
      <trkpt lat="46.33045" lon="-1.3039">
        <ele>44.216989</ele>
        <time>2022-12-19T12:20:08.343Z</time>
      </trkpt>
      <trkpt lat="46.33037" lon="-1.3038">
        <ele>44.215848</ele>
        <time>2022-12-19T12:20:11.342Z</time>
      </trkpt>
      <trkpt lat="46.33028" lon="-1.3037">
        <ele>44.214653</ele>
        <time>2022-12-19T12:20:14.318Z</time>
      </trkpt>
      <trkpt lat="46.33019" lon="-1.3036">
        <ele>44.21343</ele>
        <time>2022-12-19T12:20:17.322Z</time>
      </trkpt>
      <trkpt lat="46.3301" lon="-1.30349">
        <ele>44.212207</ele>
        <time>2022-12-19T12:20:20.337Z</time>
      </trkpt>
      <trkpt lat="46.33002" lon="-1.30337">
        <ele>44.210951</ele>
        <time>2022-12-19T12:20:23.341Z</time>
      </trkpt>
      <trkpt lat="46.32993" lon="-1.30325">
        <ele>44.209639</ele>
        <time>2022-12-19T12:20:26.348Z</time>
      </trkpt>
      <trkpt lat="46.32984" lon="-1.30311">
        <ele>44.208259</ele>
        <time>2022-12-19T12:20:29.342Z</time>
      </trkpt>
      <trkpt lat="46.32977" lon="-1.30297">
        <ele>44.206919</ele>
        <time>2022-12-19T12:20:32.320Z</time>
      </trkpt>
      <trkpt lat="46.3297" lon="-1.30283">
        <ele>44.205636</ele>
        <time>2022-12-19T12:20:35.338Z</time>
      </trkpt>
      <trkpt lat="46.32963" lon="-1.30268">
        <ele>44.204365</ele>
        <time>2022-12-19T12:20:38.336Z</time>
      </trkpt>
      <trkpt lat="46.32956" lon="-1.30254">
        <ele>44.203081</ele>
        <time>2022-12-19T12:20:41.342Z</time>
      </trkpt>
      <trkpt lat="46.32949" lon="-1.30239">
        <ele>44.201779</ele>
        <time>2022-12-19T12:20:44.319Z</time>
      </trkpt>
      <trkpt lat="46.32943" lon="-1.30224">
        <ele>44.200475</ele>
        <time>2022-12-19T12:20:47.343Z</time>
      </trkpt>
      <trkpt lat="46.32936" lon="-1.3021">
        <ele>44.201552</ele>
        <time>2022-12-19T12:20:50.341Z</time>
      </trkpt>
      <trkpt lat="46.32929" lon="-1.30195">
        <ele>44.203692</ele>
        <time>2022-12-19T12:20:53.344Z</time>
      </trkpt>
      <trkpt lat="46.32922" lon="-1.30184">
        <ele>44.205634</ele>
        <time>2022-12-19T12:20:56.343Z</time>
      </trkpt>
      <trkpt lat="46.32914" lon="-1.30171">
        <ele>44.20765</ele>
        <time>2022-12-19T12:20:59.341Z</time>
      </trkpt>
      <trkpt lat="46.32907" lon="-1.30158">
        <ele>44.209753</ele>
        <time>2022-12-19T12:21:02.331Z</time>
      </trkpt>
      <trkpt lat="46.32901" lon="-1.30143">
        <ele>44.211895</ele>
        <time>2022-12-19T12:21:05.335Z</time>
      </trkpt>
      <trkpt lat="46.32893" lon="-1.3013">
        <ele>44.214039</ele>
        <time>2022-12-19T12:21:08.341Z</time>
      </trkpt>
      <trkpt lat="46.32884" lon="-1.30117">
        <ele>44.216231</ele>
        <time>2022-12-19T12:21:11.344Z</time>
      </trkpt>
      <trkpt lat="46.32876" lon="-1.30105">
        <ele>44.218332</ele>
        <time>2022-12-19T12:21:14.340Z</time>
      </trkpt>
      <trkpt lat="46.32869" lon="-1.30093">
        <ele>44.220351</ele>
        <time>2022-12-19T12:21:17.339Z</time>
      </trkpt>
      <trkpt lat="46.32862" lon="-1.30082">
        <ele>44.22209</ele>
        <time>2022-12-19T12:21:20.343Z</time>
      </trkpt>
      <trkpt lat="46.32855" lon="-1.30073">
        <ele>44.22373</ele>
        <time>2022-12-19T12:21:23.343Z</time>
      </trkpt>
      <trkpt lat="46.32849" lon="-1.30064">
        <ele>44.225384</ele>
        <time>2022-12-19T12:21:26.342Z</time>
      </trkpt>
      <trkpt lat="46.32842" lon="-1.30053">
        <ele>44.227149</ele>
        <time>2022-12-19T12:21:29.346Z</time>
      </trkpt>
      <trkpt lat="46.32835" lon="-1.30043">
        <ele>44.228965</ele>
        <time>2022-12-19T12:21:32.343Z</time>
      </trkpt>
      <trkpt lat="46.32828" lon="-1.30033">
        <ele>44.230763</ele>
        <time>2022-12-19T12:21:35.345Z</time>
      </trkpt>
      <trkpt lat="46.32821" lon="-1.30024">
        <ele>44.245812</ele>
        <time>2022-12-19T12:21:38.344Z</time>
      </trkpt>
      <trkpt lat="46.32813" lon="-1.30014">
        <ele>44.340012</ele>
        <time>2022-12-19T12:21:42.332Z</time>
      </trkpt>
      <trkpt lat="46.32805" lon="-1.30006">
        <ele>44.424966</ele>
        <time>2022-12-19T12:21:46.339Z</time>
      </trkpt>
      <trkpt lat="46.32798" lon="-1.29995">
        <ele>44.517353</ele>
        <time>2022-12-19T12:21:51.333Z</time>
      </trkpt>
      <trkpt lat="46.32805" lon="-1.29983">
        <ele>44.607641</ele>
        <time>2022-12-19T12:21:56.329Z</time>
      </trkpt>
      <trkpt lat="46.32814" lon="-1.29978">
        <ele>44.696416</ele>
        <time>2022-12-19T12:21:59.343Z</time>
      </trkpt>
      <trkpt lat="46.32824" lon="-1.2997">
        <ele>44.798887</ele>
        <time>2022-12-19T12:22:02.343Z</time>
      </trkpt>
      <trkpt lat="46.32834" lon="-1.29961">
        <ele>44.907071</ele>
        <time>2022-12-19T12:22:05.343Z</time>
      </trkpt>
      <trkpt lat="46.32845" lon="-1.29951">
        <ele>45.023435</ele>
        <time>2022-12-19T12:22:08.342Z</time>
      </trkpt>
      <trkpt lat="46.32855" lon="-1.29941">
        <ele>45.137414</ele>
        <time>2022-12-19T12:22:11.324Z</time>
      </trkpt>
      <trkpt lat="46.32865" lon="-1.29931">
        <ele>45.240257</ele>
        <time>2022-12-19T12:22:14.341Z</time>
      </trkpt>
      <trkpt lat="46.32872" lon="-1.29923">
        <ele>45.325211</ele>
        <time>2022-12-19T12:22:17.345Z</time>
      </trkpt>
      <trkpt lat="46.32882" lon="-1.29913">
        <ele>45.430667</ele>
        <time>2022-12-19T12:22:21.332Z</time>
      </trkpt>
      <trkpt lat="46.3289" lon="-1.29905">
        <ele>45.521503</ele>
        <time>2022-12-19T12:22:24.343Z</time>
      </trkpt>
      <trkpt lat="46.329" lon="-1.29896">
        <ele>45.622899</ele>
        <time>2022-12-19T12:22:27.331Z</time>
      </trkpt>
      <trkpt lat="46.32909" lon="-1.29887">
        <ele>45.726537</ele>
        <time>2022-12-19T12:22:30.347Z</time>
      </trkpt>
      <trkpt lat="46.32919" lon="-1.29877">
        <ele>45.831185</ele>
        <time>2022-12-19T12:22:33.344Z</time>
      </trkpt>
      <trkpt lat="46.32928" lon="-1.29867">
        <ele>45.871626</ele>
        <time>2022-12-19T12:22:36.341Z</time>
      </trkpt>
      <trkpt lat="46.32939" lon="-1.29856">
        <ele>45.898408</ele>
        <time>2022-12-19T12:22:39.343Z</time>
      </trkpt>
      <trkpt lat="46.32949" lon="-1.29845">
        <ele>45.924353</ele>
        <time>2022-12-19T12:22:42.317Z</time>
      </trkpt>
      <trkpt lat="46.3296" lon="-1.29835">
        <ele>45.9498</ele>
        <time>2022-12-19T12:22:45.332Z</time>
      </trkpt>
      <trkpt lat="46.32969" lon="-1.29824">
        <ele>45.974271</ele>
        <time>2022-12-19T12:22:48.337Z</time>
      </trkpt>
      <trkpt lat="46.32977" lon="-1.29814">
        <ele>45.996333</ele>
        <time>2022-12-19T12:22:51.344Z</time>
      </trkpt>
      <trkpt lat="46.32985" lon="-1.29805">
        <ele>46.017081</ele>
        <time>2022-12-19T12:22:54.339Z</time>
      </trkpt>
      <trkpt lat="46.32993" lon="-1.29793">
        <ele>46.040696</ele>
        <time>2022-12-19T12:22:57.343Z</time>
      </trkpt>
      <trkpt lat="46.33002" lon="-1.2978">
        <ele>46.067203</ele>
        <time>2022-12-19T12:23:00.321Z</time>
      </trkpt>
      <trkpt lat="46.33012" lon="-1.29768">
        <ele>46.093873</ele>
        <time>2022-12-19T12:23:03.330Z</time>
      </trkpt>
      <trkpt lat="46.33023" lon="-1.29756">
        <ele>46.120569</ele>
        <time>2022-12-19T12:23:06.341Z</time>
      </trkpt>
      <trkpt lat="46.3303" lon="-1.29748">
        <ele>46.139053</ele>
        <time>2022-12-19T12:23:08.344Z</time>
      </trkpt>
      <trkpt lat="46.33041" lon="-1.29737">
        <ele>46.166244</ele>
        <time>2022-12-19T12:23:11.343Z</time>
      </trkpt>
      <trkpt lat="46.33051" lon="-1.29726">
        <ele>46.193446</ele>
        <time>2022-12-19T12:23:14.339Z</time>
      </trkpt>
      <trkpt lat="46.33062" lon="-1.29715">
        <ele>46.218059</ele>
        <time>2022-12-19T12:23:17.343Z</time>
      </trkpt>
      <trkpt lat="46.33072" lon="-1.29704">
        <ele>46.088957</ele>
        <time>2022-12-19T12:23:20.348Z</time>
      </trkpt>
      <trkpt lat="46.33082" lon="-1.29694">
        <ele>45.967162</ele>
        <time>2022-12-19T12:23:23.320Z</time>
      </trkpt>
      <trkpt lat="46.33091" lon="-1.29683">
        <ele>45.845788</ele>
        <time>2022-12-19T12:23:26.326Z</time>
      </trkpt>
      <trkpt lat="46.33101" lon="-1.29672">
        <ele>45.719851</ele>
        <time>2022-12-19T12:23:29.334Z</time>
      </trkpt>
      <trkpt lat="46.33111" lon="-1.29661">
        <ele>45.590714</ele>
        <time>2022-12-19T12:23:32.325Z</time>
      </trkpt>
      <trkpt lat="46.33121" lon="-1.2965">
        <ele>45.464414</ele>
        <time>2022-12-19T12:23:35.336Z</time>
      </trkpt>
      <trkpt lat="46.3313" lon="-1.29639">
        <ele>45.346089</ele>
        <time>2022-12-19T12:23:38.331Z</time>
      </trkpt>
      <trkpt lat="46.33138" lon="-1.29627">
        <ele>45.223611</ele>
        <time>2022-12-19T12:23:41.338Z</time>
      </trkpt>
      <trkpt lat="46.33147" lon="-1.29613">
        <ele>45.091738</ele>
        <time>2022-12-19T12:23:44.315Z</time>
      </trkpt>
      <trkpt lat="46.33154" lon="-1.29603">
        <ele>44.993137</ele>
        <time>2022-12-19T12:23:46.349Z</time>
      </trkpt>
      <trkpt lat="46.33161" lon="-1.29592">
        <ele>44.887727</ele>
        <time>2022-12-19T12:23:48.329Z</time>
      </trkpt>
      <trkpt lat="46.33169" lon="-1.29581">
        <ele>44.778177</ele>
        <time>2022-12-19T12:23:50.338Z</time>
      </trkpt>
      <trkpt lat="46.33177" lon="-1.2957">
        <ele>44.662758</ele>
        <time>2022-12-19T12:23:52.326Z</time>
      </trkpt>
      <trkpt lat="46.33184" lon="-1.29559">
        <ele>44.556005</ele>
        <time>2022-12-19T12:23:54.334Z</time>
      </trkpt>
      <trkpt lat="46.33191" lon="-1.29548">
        <ele>44.451662</ele>
        <time>2022-12-19T12:23:56.337Z</time>
      </trkpt>
      <trkpt lat="46.33198" lon="-1.29537">
        <ele>44.403439</ele>
        <time>2022-12-19T12:23:58.343Z</time>
      </trkpt>
      <trkpt lat="46.33205" lon="-1.29527">
        <ele>44.424759</ele>
        <time>2022-12-19T12:24:00.342Z</time>
      </trkpt>
      <trkpt lat="46.33211" lon="-1.29517">
        <ele>44.445896</ele>
        <time>2022-12-19T12:24:02.344Z</time>
      </trkpt>
      <trkpt lat="46.33219" lon="-1.29502">
        <ele>44.475376</ele>
        <time>2022-12-19T12:24:05.341Z</time>
      </trkpt>
      <trkpt lat="46.33227" lon="-1.29488">
        <ele>44.503535</ele>
        <time>2022-12-19T12:24:08.342Z</time>
      </trkpt>
      <trkpt lat="46.33234" lon="-1.29475">
        <ele>44.530117</ele>
        <time>2022-12-19T12:24:11.344Z</time>
      </trkpt>
      <trkpt lat="46.33241" lon="-1.29461">
        <ele>44.557996</ele>
        <time>2022-12-19T12:24:14.337Z</time>
      </trkpt>
      <trkpt lat="46.33248" lon="-1.29445">
        <ele>44.587931</ele>
        <time>2022-12-19T12:24:17.344Z</time>
      </trkpt>
      <trkpt lat="46.33253" lon="-1.29433">
        <ele>44.609208</ele>
        <time>2022-12-19T12:24:19.343Z</time>
      </trkpt>
      <trkpt lat="46.33258" lon="-1.29421">
        <ele>44.630845</ele>
        <time>2022-12-19T12:24:21.344Z</time>
      </trkpt>
      <trkpt lat="46.33263" lon="-1.29409">
        <ele>44.652817</ele>
        <time>2022-12-19T12:24:23.344Z</time>
      </trkpt>
      <trkpt lat="46.33267" lon="-1.29397">
        <ele>44.673408</ele>
        <time>2022-12-19T12:24:25.334Z</time>
      </trkpt>
      <trkpt lat="46.33274" lon="-1.29382">
        <ele>44.702032</ele>
        <time>2022-12-19T12:24:28.321Z</time>
      </trkpt>
      <trkpt lat="46.3328" lon="-1.29368">
        <ele>44.727831</ele>
        <time>2022-12-19T12:24:31.368Z</time>
      </trkpt>
      <trkpt lat="46.33285" lon="-1.29354">
        <ele>44.752702</ele>
        <time>2022-12-19T12:24:34.343Z</time>
      </trkpt>
      <trkpt lat="46.33288" lon="-1.29341">
        <ele>44.774394</ele>
        <time>2022-12-19T12:24:37.342Z</time>
      </trkpt>
      <trkpt lat="46.33288" lon="-1.29326">
        <ele>44.798073</ele>
        <time>2022-12-19T12:24:40.333Z</time>
      </trkpt>
      <trkpt lat="46.3329" lon="-1.29311">
        <ele>44.803964</ele>
        <time>2022-12-19T12:24:43.352Z</time>
      </trkpt>
      <trkpt lat="46.33299" lon="-1.29301">
        <ele>44.806785</ele>
        <time>2022-12-19T12:24:46.344Z</time>
      </trkpt>
      <trkpt lat="46.33308" lon="-1.2929">
        <ele>44.80985</ele>
        <time>2022-12-19T12:24:49.346Z</time>
      </trkpt>
      <trkpt lat="46.33316" lon="-1.29275">
        <ele>44.813078</ele>
        <time>2022-12-19T12:24:52.343Z</time>
      </trkpt>
      <trkpt lat="46.33321" lon="-1.29258">
        <ele>44.816266</ele>
        <time>2022-12-19T12:24:55.341Z</time>
      </trkpt>
      <trkpt lat="46.33327" lon="-1.29243">
        <ele>44.819384</ele>
        <time>2022-12-19T12:24:58.344Z</time>
      </trkpt>
      <trkpt lat="46.33333" lon="-1.29226">
        <ele>44.822575</ele>
        <time>2022-12-19T12:25:01.347Z</time>
      </trkpt>
      <trkpt lat="46.33339" lon="-1.2921">
        <ele>44.82583</ele>
        <time>2022-12-19T12:25:04.343Z</time>
      </trkpt>
      <trkpt lat="46.33346" lon="-1.29194">
        <ele>44.829049</ele>
        <time>2022-12-19T12:25:07.346Z</time>
      </trkpt>
      <trkpt lat="46.33352" lon="-1.29178">
        <ele>44.832334</ele>
        <time>2022-12-19T12:25:10.334Z</time>
      </trkpt>
      <trkpt lat="46.33358" lon="-1.29161">
        <ele>44.835648</ele>
        <time>2022-12-19T12:25:13.344Z</time>
      </trkpt>
      <trkpt lat="46.33365" lon="-1.29144">
        <ele>44.838976</ele>
        <time>2022-12-19T12:25:16.345Z</time>
      </trkpt>
      <trkpt lat="46.33369" lon="-1.29132">
        <ele>44.841289</ele>
        <time>2022-12-19T12:25:18.320Z</time>
      </trkpt>
      <trkpt lat="46.33373" lon="-1.2912">
        <ele>44.84359</ele>
        <time>2022-12-19T12:25:20.337Z</time>
      </trkpt>
      <trkpt lat="46.33379" lon="-1.29103">
        <ele>44.846911</ele>
        <time>2022-12-19T12:25:23.341Z</time>
      </trkpt>
      <trkpt lat="46.33386" lon="-1.29087">
        <ele>44.848121</ele>
        <time>2022-12-19T12:25:26.347Z</time>
      </trkpt>
      <trkpt lat="46.33393" lon="-1.2907">
        <ele>44.849367</ele>
        <time>2022-12-19T12:25:29.336Z</time>
      </trkpt>
      <trkpt lat="46.33397" lon="-1.29058">
        <ele>44.85022</ele>
        <time>2022-12-19T12:25:31.346Z</time>
      </trkpt>
      <trkpt lat="46.33402" lon="-1.29047">
        <ele>44.851051</ele>
        <time>2022-12-19T12:25:33.344Z</time>
      </trkpt>
      <trkpt lat="46.33408" lon="-1.2903">
        <ele>44.852293</ele>
        <time>2022-12-19T12:25:36.324Z</time>
      </trkpt>
      <trkpt lat="46.33415" lon="-1.29013">
        <ele>44.853501</ele>
        <time>2022-12-19T12:25:39.341Z</time>
      </trkpt>
      <trkpt lat="46.33421" lon="-1.28997">
        <ele>44.854668</ele>
        <time>2022-12-19T12:25:42.343Z</time>
      </trkpt>
      <trkpt lat="46.33425" lon="-1.28986">
        <ele>44.855516</ele>
        <time>2022-12-19T12:25:44.345Z</time>
      </trkpt>
      <trkpt lat="46.33432" lon="-1.28969">
        <ele>44.856732</ele>
        <time>2022-12-19T12:25:47.342Z</time>
      </trkpt>
      <trkpt lat="46.33439" lon="-1.28953">
        <ele>44.857966</ele>
        <time>2022-12-19T12:25:50.343Z</time>
      </trkpt>
      <trkpt lat="46.33443" lon="-1.28941">
        <ele>44.858816</ele>
        <time>2022-12-19T12:25:52.330Z</time>
      </trkpt>
      <trkpt lat="46.33448" lon="-1.28929">
        <ele>44.859701</ele>
        <time>2022-12-19T12:25:54.325Z</time>
      </trkpt>
      <trkpt lat="46.33453" lon="-1.28918">
        <ele>44.860541</ele>
        <time>2022-12-19T12:25:56.336Z</time>
      </trkpt>
      <trkpt lat="46.33458" lon="-1.28907">
        <ele>44.861419</ele>
        <time>2022-12-19T12:25:58.335Z</time>
      </trkpt>
      <trkpt lat="46.33463" lon="-1.28895">
        <ele>44.862282</ele>
        <time>2022-12-19T12:26:00.339Z</time>
      </trkpt>
      <trkpt lat="46.33467" lon="-1.28882">
        <ele>44.863196</ele>
        <time>2022-12-19T12:26:02.342Z</time>
      </trkpt>
      <trkpt lat="46.33472" lon="-1.2887">
        <ele>44.863921</ele>
        <time>2022-12-19T12:26:04.345Z</time>
      </trkpt>
      <trkpt lat="46.33477" lon="-1.28858">
        <ele>44.864577</ele>
        <time>2022-12-19T12:26:06.321Z</time>
      </trkpt>
      <trkpt lat="46.33482" lon="-1.28846">
        <ele>44.865222</ele>
        <time>2022-12-19T12:26:08.344Z</time>
      </trkpt>
      <trkpt lat="46.33487" lon="-1.28835">
        <ele>44.865864</ele>
        <time>2022-12-19T12:26:10.343Z</time>
      </trkpt>
      <trkpt lat="46.33492" lon="-1.28823">
        <ele>44.866504</ele>
        <time>2022-12-19T12:26:12.341Z</time>
      </trkpt>
      <trkpt lat="46.33496" lon="-1.28811">
        <ele>44.867128</ele>
        <time>2022-12-19T12:26:14.343Z</time>
      </trkpt>
      <trkpt lat="46.33501" lon="-1.28799">
        <ele>44.867742</ele>
        <time>2022-12-19T12:26:16.333Z</time>
      </trkpt>
      <trkpt lat="46.33507" lon="-1.28783">
        <ele>44.868603</ele>
        <time>2022-12-19T12:26:19.343Z</time>
      </trkpt>
      <trkpt lat="46.33511" lon="-1.28772">
        <ele>44.869213</ele>
        <time>2022-12-19T12:26:21.343Z</time>
      </trkpt>
      <trkpt lat="46.33518" lon="-1.28755">
        <ele>44.870123</ele>
        <time>2022-12-19T12:26:24.339Z</time>
      </trkpt>
      <trkpt lat="46.33524" lon="-1.28743">
        <ele>44.870757</ele>
        <time>2022-12-19T12:26:26.345Z</time>
      </trkpt>
      <trkpt lat="46.33529" lon="-1.28732">
        <ele>44.871391</ele>
        <time>2022-12-19T12:26:28.344Z</time>
      </trkpt>
      <trkpt lat="46.33533" lon="-1.2872">
        <ele>44.87202</ele>
        <time>2022-12-19T12:26:30.335Z</time>
      </trkpt>
      <trkpt lat="46.33538" lon="-1.28708">
        <ele>44.872666</ele>
        <time>2022-12-19T12:26:32.343Z</time>
      </trkpt>
      <trkpt lat="46.33543" lon="-1.28696">
        <ele>44.873297</ele>
        <time>2022-12-19T12:26:34.339Z</time>
      </trkpt>
      <trkpt lat="46.33548" lon="-1.28684">
        <ele>44.873958</ele>
        <time>2022-12-19T12:26:36.341Z</time>
      </trkpt>
      <trkpt lat="46.33553" lon="-1.28672">
        <ele>44.874597</ele>
        <time>2022-12-19T12:26:38.316Z</time>
      </trkpt>
      <trkpt lat="46.33558" lon="-1.2866">
        <ele>44.875258</ele>
        <time>2022-12-19T12:26:40.345Z</time>
      </trkpt>
      <trkpt lat="46.33563" lon="-1.28649">
        <ele>44.867764</ele>
        <time>2022-12-19T12:26:42.344Z</time>
      </trkpt>
      <trkpt lat="46.33569" lon="-1.28632">
        <ele>44.843956</ele>
        <time>2022-12-19T12:26:45.344Z</time>
      </trkpt>
      <trkpt lat="46.33575" lon="-1.28617">
        <ele>44.821552</ele>
        <time>2022-12-19T12:26:48.336Z</time>
      </trkpt>
      <trkpt lat="46.33581" lon="-1.28602">
        <ele>44.799088</ele>
        <time>2022-12-19T12:26:51.345Z</time>
      </trkpt>
      <trkpt lat="46.33588" lon="-1.28585">
        <ele>44.773942</ele>
        <time>2022-12-19T12:26:54.347Z</time>
      </trkpt>
      <trkpt lat="46.33593" lon="-1.28573">
        <ele>44.757112</ele>
        <time>2022-12-19T12:26:56.345Z</time>
      </trkpt>
      <trkpt lat="46.33597" lon="-1.28562">
        <ele>44.74027</ele>
        <time>2022-12-19T12:26:58.333Z</time>
      </trkpt>
      <trkpt lat="46.33602" lon="-1.28551">
        <ele>44.723209</ele>
        <time>2022-12-19T12:27:00.340Z</time>
      </trkpt>
      <trkpt lat="46.33607" lon="-1.28539">
        <ele>44.706161</ele>
        <time>2022-12-19T12:27:02.324Z</time>
      </trkpt>
      <trkpt lat="46.33614" lon="-1.28522">
        <ele>44.681189</ele>
        <time>2022-12-19T12:27:05.343Z</time>
      </trkpt>
      <trkpt lat="46.33619" lon="-1.2851">
        <ele>44.663416</ele>
        <time>2022-12-19T12:27:07.343Z</time>
      </trkpt>
      <trkpt lat="46.33624" lon="-1.28499">
        <ele>44.645913</ele>
        <time>2022-12-19T12:27:09.355Z</time>
      </trkpt>
      <trkpt lat="46.33628" lon="-1.28487">
        <ele>44.628851</ele>
        <time>2022-12-19T12:27:11.347Z</time>
      </trkpt>
      <trkpt lat="46.33633" lon="-1.28476">
        <ele>44.611824</ele>
        <time>2022-12-19T12:27:13.343Z</time>
      </trkpt>
      <trkpt lat="46.33639" lon="-1.28458">
        <ele>44.586826</ele>
        <time>2022-12-19T12:27:16.339Z</time>
      </trkpt>
      <trkpt lat="46.33646" lon="-1.28444">
        <ele>44.564865</ele>
        <time>2022-12-19T12:27:19.347Z</time>
      </trkpt>
      <trkpt lat="46.33652" lon="-1.28429">
        <ele>44.543118</ele>
        <time>2022-12-19T12:27:22.345Z</time>
      </trkpt>
      <trkpt lat="46.33658" lon="-1.28413">
        <ele>44.548218</ele>
        <time>2022-12-19T12:27:25.343Z</time>
      </trkpt>
      <trkpt lat="46.33665" lon="-1.28397">
        <ele>44.553624</ele>
        <time>2022-12-19T12:27:28.336Z</time>
      </trkpt>
      <trkpt lat="46.3367" lon="-1.28385">
        <ele>44.557272</ele>
        <time>2022-12-19T12:27:30.340Z</time>
      </trkpt>
      <trkpt lat="46.33677" lon="-1.28369">
        <ele>44.562728</ele>
        <time>2022-12-19T12:27:33.329Z</time>
      </trkpt>
      <trkpt lat="46.33682" lon="-1.28358">
        <ele>44.566428</ele>
        <time>2022-12-19T12:27:35.339Z</time>
      </trkpt>
      <trkpt lat="46.33687" lon="-1.28347">
        <ele>44.570244</ele>
        <time>2022-12-19T12:27:37.347Z</time>
      </trkpt>
      <trkpt lat="46.33693" lon="-1.28335">
        <ele>44.574245</ele>
        <time>2022-12-19T12:27:39.345Z</time>
      </trkpt>
      <trkpt lat="46.33699" lon="-1.28325">
        <ele>44.577983</ele>
        <time>2022-12-19T12:27:41.347Z</time>
      </trkpt>
      <trkpt lat="46.33706" lon="-1.28314">
        <ele>44.58191</ele>
        <time>2022-12-19T12:27:43.344Z</time>
      </trkpt>
      <trkpt lat="46.33712" lon="-1.28303">
        <ele>44.585825</ele>
        <time>2022-12-19T12:27:45.344Z</time>
      </trkpt>
      <trkpt lat="46.3372" lon="-1.28289">
        <ele>44.591164</ele>
        <time>2022-12-19T12:27:48.339Z</time>
      </trkpt>
      <trkpt lat="46.33727" lon="-1.28275">
        <ele>44.595906</ele>
        <time>2022-12-19T12:27:51.341Z</time>
      </trkpt>
      <trkpt lat="46.33735" lon="-1.28264">
        <ele>44.600369</ele>
        <time>2022-12-19T12:27:54.343Z</time>
      </trkpt>
      <trkpt lat="46.33742" lon="-1.28252">
        <ele>44.604666</ele>
        <time>2022-12-19T12:27:57.344Z</time>
      </trkpt>
      <trkpt lat="46.33749" lon="-1.28239">
        <ele>44.609274</ele>
        <time>2022-12-19T12:28:00.334Z</time>
      </trkpt>
      <trkpt lat="46.33757" lon="-1.28227">
        <ele>44.614041</ele>
        <time>2022-12-19T12:28:03.341Z</time>
      </trkpt>
      <trkpt lat="46.33766" lon="-1.28214">
        <ele>44.672664</ele>
        <time>2022-12-19T12:28:06.344Z</time>
      </trkpt>
      <trkpt lat="46.33775" lon="-1.28201">
        <ele>44.762534</ele>
        <time>2022-12-19T12:28:09.343Z</time>
      </trkpt>
      <trkpt lat="46.33783" lon="-1.28188">
        <ele>44.850503</ele>
        <time>2022-12-19T12:28:12.342Z</time>
      </trkpt>
      <trkpt lat="46.33791" lon="-1.28175">
        <ele>44.93613</ele>
        <time>2022-12-19T12:28:15.345Z</time>
      </trkpt>
      <trkpt lat="46.33795" lon="-1.28159">
        <ele>45.02258</ele>
        <time>2022-12-19T12:28:18.346Z</time>
      </trkpt>
      <trkpt lat="46.33796" lon="-1.28141">
        <ele>45.110698</ele>
        <time>2022-12-19T12:28:21.321Z</time>
      </trkpt>
      <trkpt lat="46.33799" lon="-1.28124">
        <ele>45.19813</ele>
        <time>2022-12-19T12:28:24.346Z</time>
      </trkpt>
      <trkpt lat="46.33802" lon="-1.28106">
        <ele>45.288495</ele>
        <time>2022-12-19T12:28:27.342Z</time>
      </trkpt>
      <trkpt lat="46.33801" lon="-1.28092">
        <ele>45.353715</ele>
        <time>2022-12-19T12:28:29.347Z</time>
      </trkpt>
      <trkpt lat="46.33798" lon="-1.2808">
        <ele>45.417645</ele>
        <time>2022-12-19T12:28:31.328Z</time>
      </trkpt>
      <trkpt lat="46.33795" lon="-1.28067">
        <ele>45.484866</ele>
        <time>2022-12-19T12:28:33.341Z</time>
      </trkpt>
      <trkpt lat="46.33791" lon="-1.28049">
        <ele>45.579036</ele>
        <time>2022-12-19T12:28:36.339Z</time>
      </trkpt>
      <trkpt lat="46.33789" lon="-1.28031">
        <ele>45.66966</ele>
        <time>2022-12-19T12:28:39.345Z</time>
      </trkpt>
      <trkpt lat="46.33787" lon="-1.28012">
        <ele>45.760166</ele>
        <time>2022-12-19T12:28:42.324Z</time>
      </trkpt>
      <trkpt lat="46.33786" lon="-1.27994">
        <ele>45.851266</ele>
        <time>2022-12-19T12:28:45.342Z</time>
      </trkpt>
      <trkpt lat="46.33784" lon="-1.27976">
        <ele>45.899688</ele>
        <time>2022-12-19T12:28:48.340Z</time>
      </trkpt>
      <trkpt lat="46.33783" lon="-1.27961">
        <ele>45.905175</ele>
        <time>2022-12-19T12:28:51.344Z</time>
      </trkpt>
      <trkpt lat="46.33782" lon="-1.27945">
        <ele>45.910695</ele>
        <time>2022-12-19T12:28:54.330Z</time>
      </trkpt>
      <trkpt lat="46.3378" lon="-1.27928">
        <ele>45.916671</ele>
        <time>2022-12-19T12:28:57.323Z</time>
      </trkpt>
      <trkpt lat="46.33779" lon="-1.27911">
        <ele>45.92275</ele>
        <time>2022-12-19T12:29:00.337Z</time>
      </trkpt>
      <trkpt lat="46.33777" lon="-1.27893">
        <ele>45.928845</ele>
        <time>2022-12-19T12:29:03.332Z</time>
      </trkpt>
      <trkpt lat="46.33776" lon="-1.27876">
        <ele>45.934941</ele>
        <time>2022-12-19T12:29:06.344Z</time>
      </trkpt>
      <trkpt lat="46.33775" lon="-1.27858">
        <ele>45.941022</ele>
        <time>2022-12-19T12:29:09.350Z</time>
      </trkpt>
      <trkpt lat="46.33774" lon="-1.27842">
        <ele>45.946777</ele>
        <time>2022-12-19T12:29:12.342Z</time>
      </trkpt>
      <trkpt lat="46.33773" lon="-1.27827">
        <ele>45.952135</ele>
        <time>2022-12-19T12:29:15.323Z</time>
      </trkpt>
      <trkpt lat="46.33772" lon="-1.27812">
        <ele>45.95734</ele>
        <time>2022-12-19T12:29:18.345Z</time>
      </trkpt>
      <trkpt lat="46.3377" lon="-1.27795">
        <ele>45.963192</ele>
        <time>2022-12-19T12:29:21.343Z</time>
      </trkpt>
      <trkpt lat="46.33769" lon="-1.27778">
        <ele>45.96919</ele>
        <time>2022-12-19T12:29:24.346Z</time>
      </trkpt>
      <trkpt lat="46.33768" lon="-1.27761">
        <ele>45.97534</ele>
        <time>2022-12-19T12:29:27.346Z</time>
      </trkpt>
      <trkpt lat="46.33766" lon="-1.27743">
        <ele>45.98142</ele>
        <time>2022-12-19T12:29:30.344Z</time>
      </trkpt>
      <trkpt lat="46.33764" lon="-1.27726">
        <ele>45.98743</ele>
        <time>2022-12-19T12:29:33.347Z</time>
      </trkpt>
      <trkpt lat="46.33763" lon="-1.27709">
        <ele>46.007517</ele>
        <time>2022-12-19T12:29:36.344Z</time>
      </trkpt>
      <trkpt lat="46.33761" lon="-1.27693">
        <ele>46.026596</ele>
        <time>2022-12-19T12:29:39.342Z</time>
      </trkpt>
      <trkpt lat="46.3376" lon="-1.27678">
        <ele>46.044132</ele>
        <time>2022-12-19T12:29:42.344Z</time>
      </trkpt>
      <trkpt lat="46.33758" lon="-1.27662">
        <ele>46.062864</ele>
        <time>2022-12-19T12:29:45.330Z</time>
      </trkpt>
      <trkpt lat="46.33756" lon="-1.27646">
        <ele>46.082344</ele>
        <time>2022-12-19T12:29:48.342Z</time>
      </trkpt>
      <trkpt lat="46.33754" lon="-1.27629">
        <ele>46.102953</ele>
        <time>2022-12-19T12:29:51.343Z</time>
      </trkpt>
      <trkpt lat="46.33752" lon="-1.27611">
        <ele>46.123394</ele>
        <time>2022-12-19T12:29:54.343Z</time>
      </trkpt>
      <trkpt lat="46.3375" lon="-1.27594">
        <ele>46.143863</ele>
        <time>2022-12-19T12:29:57.342Z</time>
      </trkpt>
      <trkpt lat="46.33748" lon="-1.27577">
        <ele>46.164469</ele>
        <time>2022-12-19T12:30:00.346Z</time>
      </trkpt>
      <trkpt lat="46.33746" lon="-1.27559">
        <ele>46.185402</ele>
        <time>2022-12-19T12:30:03.344Z</time>
      </trkpt>
      <trkpt lat="46.33743" lon="-1.27541">
        <ele>46.207244</ele>
        <time>2022-12-19T12:30:06.341Z</time>
      </trkpt>
      <trkpt lat="46.3374" lon="-1.27523">
        <ele>46.229429</ele>
        <time>2022-12-19T12:30:09.321Z</time>
      </trkpt>
      <trkpt lat="46.33737" lon="-1.27505">
        <ele>46.250933</ele>
        <time>2022-12-19T12:30:12.331Z</time>
      </trkpt>
      <trkpt lat="46.33734" lon="-1.27487">
        <ele>46.272775</ele>
        <time>2022-12-19T12:30:15.334Z</time>
      </trkpt>
      <trkpt lat="46.33732" lon="-1.27468">
        <ele>46.293614</ele>
        <time>2022-12-19T12:30:18.343Z</time>
      </trkpt>
      <trkpt lat="46.3373" lon="-1.27449">
        <ele>46.303359</ele>
        <time>2022-12-19T12:30:21.347Z</time>
      </trkpt>
      <trkpt lat="46.33728" lon="-1.27431">
        <ele>46.31279</ele>
        <time>2022-12-19T12:30:24.331Z</time>
      </trkpt>
      <trkpt lat="46.33726" lon="-1.27412">
        <ele>46.322213</ele>
        <time>2022-12-19T12:30:27.341Z</time>
      </trkpt>
      <trkpt lat="46.33725" lon="-1.27394">
        <ele>46.331484</ele>
        <time>2022-12-19T12:30:30.344Z</time>
      </trkpt>
      <trkpt lat="46.33724" lon="-1.27378">
        <ele>46.339771</ele>
        <time>2022-12-19T12:30:33.344Z</time>
      </trkpt>
      <trkpt lat="46.33723" lon="-1.27362">
        <ele>46.347942</ele>
        <time>2022-12-19T12:30:36.343Z</time>
      </trkpt>
      <trkpt lat="46.33722" lon="-1.27346">
        <ele>46.356159</ele>
        <time>2022-12-19T12:30:39.346Z</time>
      </trkpt>
      <trkpt lat="46.33721" lon="-1.27329">
        <ele>46.364641</ele>
        <time>2022-12-19T12:30:42.327Z</time>
      </trkpt>
      <trkpt lat="46.33721" lon="-1.27313">
        <ele>46.373094</ele>
        <time>2022-12-19T12:30:45.344Z</time>
      </trkpt>
      <trkpt lat="46.3372" lon="-1.27297">
        <ele>46.381412</ele>
        <time>2022-12-19T12:30:48.343Z</time>
      </trkpt>
      <trkpt lat="46.33719" lon="-1.2728">
        <ele>46.390031</ele>
        <time>2022-12-19T12:30:51.342Z</time>
      </trkpt>
      <trkpt lat="46.33718" lon="-1.27263">
        <ele>46.398672</ele>
        <time>2022-12-19T12:30:54.334Z</time>
      </trkpt>
      <trkpt lat="46.33718" lon="-1.27246">
        <ele>46.407432</ele>
        <time>2022-12-19T12:30:57.343Z</time>
      </trkpt>
      <trkpt lat="46.33717" lon="-1.27229">
        <ele>46.416111</ele>
        <time>2022-12-19T12:31:00.342Z</time>
      </trkpt>
      <trkpt lat="46.33716" lon="-1.27212">
        <ele>46.424734</ele>
        <time>2022-12-19T12:31:03.340Z</time>
      </trkpt>
      <trkpt lat="46.33716" lon="-1.27194">
        <ele>46.439785</ele>
        <time>2022-12-19T12:31:06.342Z</time>
      </trkpt>
      <trkpt lat="46.33716" lon="-1.27176">
        <ele>46.455388</ele>
        <time>2022-12-19T12:31:09.341Z</time>
      </trkpt>
      <trkpt lat="46.33715" lon="-1.27158">
        <ele>46.471263</ele>
        <time>2022-12-19T12:31:12.344Z</time>
      </trkpt>
      <trkpt lat="46.33715" lon="-1.27141">
        <ele>46.48635</ele>
        <time>2022-12-19T12:31:15.344Z</time>
      </trkpt>
      <trkpt lat="46.33714" lon="-1.27125">
        <ele>46.500834</ele>
        <time>2022-12-19T12:31:18.345Z</time>
      </trkpt>
      <trkpt lat="46.33714" lon="-1.27109">
        <ele>46.515292</ele>
        <time>2022-12-19T12:31:21.346Z</time>
      </trkpt>
      <trkpt lat="46.33714" lon="-1.27092">
        <ele>46.530015</ele>
        <time>2022-12-19T12:31:24.343Z</time>
      </trkpt>
      <trkpt lat="46.33714" lon="-1.27075">
        <ele>46.545273</ele>
        <time>2022-12-19T12:31:27.335Z</time>
      </trkpt>
      <trkpt lat="46.33714" lon="-1.2706">
        <ele>46.558502</ele>
        <time>2022-12-19T12:31:30.349Z</time>
      </trkpt>
      <trkpt lat="46.33715" lon="-1.27044">
        <ele>46.572439</ele>
        <time>2022-12-19T12:31:33.340Z</time>
      </trkpt>
      <trkpt lat="46.33715" lon="-1.27027">
        <ele>46.587257</ele>
        <time>2022-12-19T12:31:36.342Z</time>
      </trkpt>
      <trkpt lat="46.33716" lon="-1.2701">
        <ele>46.60235</ele>
        <time>2022-12-19T12:31:39.344Z</time>
      </trkpt>
      <trkpt lat="46.33716" lon="-1.26992">
        <ele>46.61781</ele>
        <time>2022-12-19T12:31:42.344Z</time>
      </trkpt>
      <trkpt lat="46.33717" lon="-1.26975">
        <ele>46.632991</ele>
        <time>2022-12-19T12:31:45.334Z</time>
      </trkpt>
      <trkpt lat="46.33718" lon="-1.26958">
        <ele>46.648258</ele>
        <time>2022-12-19T12:31:48.343Z</time>
      </trkpt>
      <trkpt lat="46.33719" lon="-1.2694">
        <ele>46.640217</ele>
        <time>2022-12-19T12:31:51.346Z</time>
      </trkpt>
      <trkpt lat="46.3372" lon="-1.26924">
        <ele>46.616455</ele>
        <time>2022-12-19T12:31:54.346Z</time>
      </trkpt>
      <trkpt lat="46.3372" lon="-1.26909">
        <ele>46.595692</ele>
        <time>2022-12-19T12:31:57.349Z</time>
      </trkpt>
      <trkpt lat="46.33721" lon="-1.26894">
        <ele>46.573896</ele>
        <time>2022-12-19T12:32:00.347Z</time>
      </trkpt>
      <trkpt lat="46.33722" lon="-1.26878">
        <ele>46.550234</ele>
        <time>2022-12-19T12:32:03.339Z</time>
      </trkpt>
      <trkpt lat="46.33723" lon="-1.26861">
        <ele>46.525838</ele>
        <time>2022-12-19T12:32:06.346Z</time>
      </trkpt>
      <trkpt lat="46.33724" lon="-1.26843">
        <ele>46.500582</ele>
        <time>2022-12-19T12:32:09.345Z</time>
      </trkpt>
      <trkpt lat="46.33725" lon="-1.26826">
        <ele>46.474985</ele>
        <time>2022-12-19T12:32:12.345Z</time>
      </trkpt>
      <trkpt lat="46.33726" lon="-1.26808">
        <ele>46.449694</ele>
        <time>2022-12-19T12:32:15.345Z</time>
      </trkpt>
      <trkpt lat="46.33727" lon="-1.26791">
        <ele>46.424294</ele>
        <time>2022-12-19T12:32:18.342Z</time>
      </trkpt>
      <trkpt lat="46.33728" lon="-1.26773">
        <ele>46.398463</ele>
        <time>2022-12-19T12:32:21.342Z</time>
      </trkpt>
      <trkpt lat="46.33729" lon="-1.26754">
        <ele>46.371863</ele>
        <time>2022-12-19T12:32:24.347Z</time>
      </trkpt>
      <trkpt lat="46.3373" lon="-1.26738">
        <ele>46.348508</ele>
        <time>2022-12-19T12:32:27.346Z</time>
      </trkpt>
      <trkpt lat="46.33732" lon="-1.26725">
        <ele>46.328576</ele>
        <time>2022-12-19T12:32:30.342Z</time>
      </trkpt>
      <trkpt lat="46.33733" lon="-1.26711">
        <ele>46.309464</ele>
        <time>2022-12-19T12:32:33.342Z</time>
      </trkpt>
      <trkpt lat="46.33734" lon="-1.26697">
        <ele>46.287964</ele>
        <time>2022-12-19T12:32:36.340Z</time>
      </trkpt>
      <trkpt lat="46.33736" lon="-1.26681">
        <ele>46.274308</ele>
        <time>2022-12-19T12:32:39.331Z</time>
      </trkpt>
      <trkpt lat="46.33738" lon="-1.26664">
        <ele>46.265178</ele>
        <time>2022-12-19T12:32:42.343Z</time>
      </trkpt>
      <trkpt lat="46.3374" lon="-1.26647">
        <ele>46.255781</ele>
        <time>2022-12-19T12:32:45.351Z</time>
      </trkpt>
      <trkpt lat="46.33743" lon="-1.2663">
        <ele>46.246238</ele>
        <time>2022-12-19T12:32:48.344Z</time>
      </trkpt>
      <trkpt lat="46.33747" lon="-1.26613">
        <ele>46.236614</ele>
        <time>2022-12-19T12:32:51.343Z</time>
      </trkpt>
      <trkpt lat="46.33753" lon="-1.26596">
        <ele>46.226778</ele>
        <time>2022-12-19T12:32:54.344Z</time>
      </trkpt>
      <trkpt lat="46.33758" lon="-1.26579">
        <ele>46.216828</ele>
        <time>2022-12-19T12:32:57.337Z</time>
      </trkpt>
      <trkpt lat="46.33763" lon="-1.26565">
        <ele>46.207847</ele>
        <time>2022-12-19T12:33:00.344Z</time>
      </trkpt>
      <trkpt lat="46.33769" lon="-1.26551">
        <ele>46.199357</ele>
        <time>2022-12-19T12:33:03.346Z</time>
      </trkpt>
      <trkpt lat="46.33775" lon="-1.26536">
        <ele>46.190042</ele>
        <time>2022-12-19T12:33:06.346Z</time>
      </trkpt>
      <trkpt lat="46.33783" lon="-1.26522">
        <ele>46.180085</ele>
        <time>2022-12-19T12:33:09.344Z</time>
      </trkpt>
      <trkpt lat="46.33791" lon="-1.26508">
        <ele>46.170114</ele>
        <time>2022-12-19T12:33:12.345Z</time>
      </trkpt>
      <trkpt lat="46.33799" lon="-1.26494">
        <ele>46.160183</ele>
        <time>2022-12-19T12:33:15.342Z</time>
      </trkpt>
      <trkpt lat="46.3381" lon="-1.26481">
        <ele>46.149783</ele>
        <time>2022-12-19T12:33:18.320Z</time>
      </trkpt>
      <trkpt lat="46.33817" lon="-1.26472">
        <ele>46.142398</ele>
        <time>2022-12-19T12:33:20.339Z</time>
      </trkpt>
      <trkpt lat="46.33824" lon="-1.26463">
        <ele>46.148407</ele>
        <time>2022-12-19T12:33:22.328Z</time>
      </trkpt>
      <trkpt lat="46.33832" lon="-1.26455">
        <ele>46.162491</ele>
        <time>2022-12-19T12:33:24.321Z</time>
      </trkpt>
      <trkpt lat="46.3384" lon="-1.26447">
        <ele>46.177363</ele>
        <time>2022-12-19T12:33:26.342Z</time>
      </trkpt>
      <trkpt lat="46.33849" lon="-1.26439">
        <ele>46.191691</ele>
        <time>2022-12-19T12:33:28.345Z</time>
      </trkpt>
      <trkpt lat="46.33857" lon="-1.26432">
        <ele>46.206098</ele>
        <time>2022-12-19T12:33:30.345Z</time>
      </trkpt>
      <trkpt lat="46.33866" lon="-1.26426">
        <ele>46.22074</ele>
        <time>2022-12-19T12:33:32.338Z</time>
      </trkpt>
      <trkpt lat="46.33875" lon="-1.26421">
        <ele>46.235141</ele>
        <time>2022-12-19T12:33:34.334Z</time>
      </trkpt>
      <trkpt lat="46.33885" lon="-1.26417">
        <ele>46.249169</ele>
        <time>2022-12-19T12:33:36.347Z</time>
      </trkpt>
      <trkpt lat="46.33893" lon="-1.26412">
        <ele>46.262938</ele>
        <time>2022-12-19T12:33:38.346Z</time>
      </trkpt>
      <trkpt lat="46.33902" lon="-1.26407">
        <ele>46.276499</ele>
        <time>2022-12-19T12:33:40.323Z</time>
      </trkpt>
      <trkpt lat="46.33911" lon="-1.26403">
        <ele>46.290031</ele>
        <time>2022-12-19T12:33:42.349Z</time>
      </trkpt>
      <trkpt lat="46.3392" lon="-1.26399">
        <ele>46.303862</ele>
        <time>2022-12-19T12:33:44.324Z</time>
      </trkpt>
      <trkpt lat="46.33929" lon="-1.26394">
        <ele>46.318556</ele>
        <time>2022-12-19T12:33:46.346Z</time>
      </trkpt>
      <trkpt lat="46.3394" lon="-1.2639">
        <ele>46.334268</ele>
        <time>2022-12-19T12:33:48.344Z</time>
      </trkpt>
      <trkpt lat="46.3395" lon="-1.26386">
        <ele>46.35005</ele>
        <time>2022-12-19T12:33:50.393Z</time>
      </trkpt>
      <trkpt lat="46.33961" lon="-1.26382">
        <ele>46.365765</ele>
        <time>2022-12-19T12:33:52.342Z</time>
      </trkpt>
      <trkpt lat="46.33971" lon="-1.26378">
        <ele>46.380889</ele>
        <time>2022-12-19T12:33:54.345Z</time>
      </trkpt>
      <trkpt lat="46.33981" lon="-1.26373">
        <ele>46.396352</ele>
        <time>2022-12-19T12:33:56.396Z</time>
      </trkpt>
      <trkpt lat="46.33992" lon="-1.26369">
        <ele>46.419306</ele>
        <time>2022-12-19T12:33:58.348Z</time>
      </trkpt>
      <trkpt lat="46.34003" lon="-1.26365">
        <ele>46.446991</ele>
        <time>2022-12-19T12:34:00.346Z</time>
      </trkpt>
      <trkpt lat="46.34014" lon="-1.26362">
        <ele>46.473184</ele>
        <time>2022-12-19T12:34:02.428Z</time>
      </trkpt>
      <trkpt lat="46.34024" lon="-1.26358">
        <ele>46.498271</ele>
        <time>2022-12-19T12:34:04.345Z</time>
      </trkpt>
      <trkpt lat="46.34034" lon="-1.26354">
        <ele>46.522591</ele>
        <time>2022-12-19T12:34:06.345Z</time>
      </trkpt>
      <trkpt lat="46.34043" lon="-1.2635">
        <ele>46.545489</ele>
        <time>2022-12-19T12:34:08.390Z</time>
      </trkpt>
      <trkpt lat="46.34053" lon="-1.26347">
        <ele>46.569351</ele>
        <time>2022-12-19T12:34:10.346Z</time>
      </trkpt>
      <trkpt lat="46.34063" lon="-1.26343">
        <ele>46.593254</ele>
        <time>2022-12-19T12:34:12.345Z</time>
      </trkpt>
      <trkpt lat="46.34072" lon="-1.2634">
        <ele>46.615015</ele>
        <time>2022-12-19T12:34:14.358Z</time>
      </trkpt>
      <trkpt lat="46.34081" lon="-1.26337">
        <ele>46.637425</ele>
        <time>2022-12-19T12:34:16.320Z</time>
      </trkpt>
      <trkpt lat="46.34094" lon="-1.26331">
        <ele>46.66921</ele>
        <time>2022-12-19T12:34:19.346Z</time>
      </trkpt>
      <trkpt lat="46.34104" lon="-1.26328">
        <ele>46.692957</ele>
        <time>2022-12-19T12:34:21.347Z</time>
      </trkpt>
      <trkpt lat="46.34114" lon="-1.26324">
        <ele>46.717172</ele>
        <time>2022-12-19T12:34:23.344Z</time>
      </trkpt>
      <trkpt lat="46.34123" lon="-1.26321">
        <ele>46.740206</ele>
        <time>2022-12-19T12:34:25.346Z</time>
      </trkpt>
      <trkpt lat="46.34133" lon="-1.26317">
        <ele>46.764509</ele>
        <time>2022-12-19T12:34:27.327Z</time>
      </trkpt>
      <trkpt lat="46.34144" lon="-1.26313">
        <ele>46.791008</ele>
        <time>2022-12-19T12:34:29.332Z</time>
      </trkpt>
      <trkpt lat="46.34154" lon="-1.26309">
        <ele>46.816016</ele>
        <time>2022-12-19T12:34:31.345Z</time>
      </trkpt>
      <trkpt lat="46.34165" lon="-1.26305">
        <ele>46.842596</ele>
        <time>2022-12-19T12:34:33.346Z</time>
      </trkpt>
      <trkpt lat="46.34176" lon="-1.26302">
        <ele>46.868653</ele>
        <time>2022-12-19T12:34:35.345Z</time>
      </trkpt>
      <trkpt lat="46.34186" lon="-1.26299">
        <ele>46.894821</ele>
        <time>2022-12-19T12:34:37.346Z</time>
      </trkpt>
      <trkpt lat="46.34197" lon="-1.26295">
        <ele>46.9215</ele>
        <time>2022-12-19T12:34:39.345Z</time>
      </trkpt>
      <trkpt lat="46.34208" lon="-1.26291">
        <ele>46.949241</ele>
        <time>2022-12-19T12:34:41.345Z</time>
      </trkpt>
      <trkpt lat="46.34219" lon="-1.26286">
        <ele>46.977384</ele>
        <time>2022-12-19T12:34:43.345Z</time>
      </trkpt>
      <trkpt lat="46.3423" lon="-1.26283">
        <ele>47.004153</ele>
        <time>2022-12-19T12:34:45.344Z</time>
      </trkpt>
      <trkpt lat="46.3424" lon="-1.26279">
        <ele>47.028757</ele>
        <time>2022-12-19T12:34:47.347Z</time>
      </trkpt>
      <trkpt lat="46.3425" lon="-1.26276">
        <ele>47.053831</ele>
        <time>2022-12-19T12:34:49.347Z</time>
      </trkpt>
      <trkpt lat="46.3426" lon="-1.26273">
        <ele>47.077839</ele>
        <time>2022-12-19T12:34:51.347Z</time>
      </trkpt>
      <trkpt lat="46.34269" lon="-1.26269">
        <ele>47.101377</ele>
        <time>2022-12-19T12:34:53.342Z</time>
      </trkpt>
      <trkpt lat="46.34279" lon="-1.26265">
        <ele>47.125513</ele>
        <time>2022-12-19T12:34:55.363Z</time>
      </trkpt>
      <trkpt lat="46.34289" lon="-1.26261">
        <ele>47.151609</ele>
        <time>2022-12-19T12:34:57.322Z</time>
      </trkpt>
      <trkpt lat="46.343" lon="-1.26258">
        <ele>47.178344</ele>
        <time>2022-12-19T12:34:59.347Z</time>
      </trkpt>
      <trkpt lat="46.3431" lon="-1.26255">
        <ele>47.204748</ele>
        <time>2022-12-19T12:35:01.344Z</time>
      </trkpt>
      <trkpt lat="46.34322" lon="-1.26251">
        <ele>47.232646</ele>
        <time>2022-12-19T12:35:03.347Z</time>
      </trkpt>
      <trkpt lat="46.34332" lon="-1.26247">
        <ele>47.259254</ele>
        <time>2022-12-19T12:35:05.346Z</time>
      </trkpt>
      <trkpt lat="46.34343" lon="-1.26243">
        <ele>47.257836</ele>
        <time>2022-12-19T12:35:07.344Z</time>
      </trkpt>
      <trkpt lat="46.34354" lon="-1.26239">
        <ele>47.251847</ele>
        <time>2022-12-19T12:35:09.340Z</time>
      </trkpt>
      <trkpt lat="46.34364" lon="-1.26236">
        <ele>47.24625</ele>
        <time>2022-12-19T12:35:11.344Z</time>
      </trkpt>
      <trkpt lat="46.34374" lon="-1.26233">
        <ele>47.24063</ele>
        <time>2022-12-19T12:35:13.346Z</time>
      </trkpt>
      <trkpt lat="46.34384" lon="-1.2623">
        <ele>47.235411</ele>
        <time>2022-12-19T12:35:15.344Z</time>
      </trkpt>
      <trkpt lat="46.34396" lon="-1.26225">
        <ele>47.228502</ele>
        <time>2022-12-19T12:35:18.346Z</time>
      </trkpt>
      <trkpt lat="46.34409" lon="-1.26223">
        <ele>47.221594</ele>
        <time>2022-12-19T12:35:21.347Z</time>
      </trkpt>
      <trkpt lat="46.34418" lon="-1.26219">
        <ele>47.216686</ele>
        <time>2022-12-19T12:35:23.345Z</time>
      </trkpt>
      <trkpt lat="46.34427" lon="-1.26215">
        <ele>47.211645</ele>
        <time>2022-12-19T12:35:25.345Z</time>
      </trkpt>
      <trkpt lat="46.34437" lon="-1.26212">
        <ele>47.206085</ele>
        <time>2022-12-19T12:35:27.330Z</time>
      </trkpt>
      <trkpt lat="46.34446" lon="-1.26209">
        <ele>47.201038</ele>
        <time>2022-12-19T12:35:29.345Z</time>
      </trkpt>
      <trkpt lat="46.34456" lon="-1.26206">
        <ele>47.19561</ele>
        <time>2022-12-19T12:35:31.346Z</time>
      </trkpt>
      <trkpt lat="46.34466" lon="-1.26203">
        <ele>47.190208</ele>
        <time>2022-12-19T12:35:33.348Z</time>
      </trkpt>
      <trkpt lat="46.34476" lon="-1.262">
        <ele>47.184744</ele>
        <time>2022-12-19T12:35:35.327Z</time>
      </trkpt>
      <trkpt lat="46.34485" lon="-1.26197">
        <ele>47.179325</ele>
        <time>2022-12-19T12:35:37.345Z</time>
      </trkpt>
      <trkpt lat="46.34496" lon="-1.26194">
        <ele>47.173682</ele>
        <time>2022-12-19T12:35:39.332Z</time>
      </trkpt>
      <trkpt lat="46.34506" lon="-1.2619">
        <ele>47.16815</ele>
        <time>2022-12-19T12:35:41.345Z</time>
      </trkpt>
      <trkpt lat="46.34516" lon="-1.26187">
        <ele>47.169761</ele>
        <time>2022-12-19T12:35:43.400Z</time>
      </trkpt>
      <trkpt lat="46.34526" lon="-1.26185">
        <ele>47.174869</ele>
        <time>2022-12-19T12:35:45.345Z</time>
      </trkpt>
      <trkpt lat="46.34536" lon="-1.26181">
        <ele>47.180033</ele>
        <time>2022-12-19T12:35:47.346Z</time>
      </trkpt>
      <trkpt lat="46.34546" lon="-1.26177">
        <ele>47.18544</ele>
        <time>2022-12-19T12:35:49.397Z</time>
      </trkpt>
      <trkpt lat="46.34557" lon="-1.26174">
        <ele>47.190591</ele>
        <time>2022-12-19T12:35:51.346Z</time>
      </trkpt>
      <trkpt lat="46.34566" lon="-1.26171">
        <ele>47.195504</ele>
        <time>2022-12-19T12:35:53.343Z</time>
      </trkpt>
      <trkpt lat="46.34575" lon="-1.26169">
        <ele>47.200236</ele>
        <time>2022-12-19T12:35:55.410Z</time>
      </trkpt>
      <trkpt lat="46.34585" lon="-1.26165">
        <ele>47.204922</ele>
        <time>2022-12-19T12:35:57.345Z</time>
      </trkpt>
      <trkpt lat="46.34597" lon="-1.26161">
        <ele>47.211138</ele>
        <time>2022-12-19T12:36:00.334Z</time>
      </trkpt>
      <trkpt lat="46.34606" lon="-1.26158">
        <ele>47.215808</ele>
        <time>2022-12-19T12:36:02.344Z</time>
      </trkpt>
      <trkpt lat="46.34615" lon="-1.26155">
        <ele>47.220491</ele>
        <time>2022-12-19T12:36:04.348Z</time>
      </trkpt>
      <trkpt lat="46.34625" lon="-1.26153">
        <ele>47.225432</ele>
        <time>2022-12-19T12:36:06.345Z</time>
      </trkpt>
      <trkpt lat="46.34634" lon="-1.2615">
        <ele>47.230206</ele>
        <time>2022-12-19T12:36:08.348Z</time>
      </trkpt>
      <trkpt lat="46.34644" lon="-1.26147">
        <ele>47.235079</ele>
        <time>2022-12-19T12:36:10.349Z</time>
      </trkpt>
      <trkpt lat="46.34653" lon="-1.26144">
        <ele>47.239805</ele>
        <time>2022-12-19T12:36:12.346Z</time>
      </trkpt>
      <trkpt lat="46.34666" lon="-1.26139">
        <ele>47.246808</ele>
        <time>2022-12-19T12:36:15.341Z</time>
      </trkpt>
      <trkpt lat="46.34676" lon="-1.26136">
        <ele>47.25194</ele>
        <time>2022-12-19T12:36:17.319Z</time>
      </trkpt>
      <trkpt lat="46.34686" lon="-1.26133">
        <ele>47.25337</ele>
        <time>2022-12-19T12:36:19.391Z</time>
      </trkpt>
      <trkpt lat="46.34696" lon="-1.2613">
        <ele>47.237171</ele>
        <time>2022-12-19T12:36:21.344Z</time>
      </trkpt>
      <trkpt lat="46.34705" lon="-1.26127">
        <ele>47.221779</ele>
        <time>2022-12-19T12:36:23.345Z</time>
      </trkpt>
      <trkpt lat="46.34714" lon="-1.26125">
        <ele>47.205867</ele>
        <time>2022-12-19T12:36:25.397Z</time>
      </trkpt>
      <trkpt lat="46.34726" lon="-1.26121">
        <ele>47.184729</ele>
        <time>2022-12-19T12:36:28.345Z</time>
      </trkpt>
      <trkpt lat="46.34738" lon="-1.26117">
        <ele>47.164721</ele>
        <time>2022-12-19T12:36:31.399Z</time>
      </trkpt>
      <trkpt lat="46.34749" lon="-1.26114">
        <ele>47.145971</ele>
        <time>2022-12-19T12:36:34.346Z</time>
      </trkpt>
      <trkpt lat="46.3476" lon="-1.2611">
        <ele>47.126869</ele>
        <time>2022-12-19T12:36:37.394Z</time>
      </trkpt>
      <trkpt lat="46.34772" lon="-1.26106">
        <ele>47.106599</ele>
        <time>2022-12-19T12:36:40.329Z</time>
      </trkpt>
      <trkpt lat="46.34785" lon="-1.26102">
        <ele>47.085068</ele>
        <time>2022-12-19T12:36:43.396Z</time>
      </trkpt>
      <trkpt lat="46.34798" lon="-1.26098">
        <ele>47.06281</ele>
        <time>2022-12-19T12:36:46.345Z</time>
      </trkpt>
      <trkpt lat="46.34806" lon="-1.26096">
        <ele>47.047768</ele>
        <time>2022-12-19T12:36:48.344Z</time>
      </trkpt>
      <trkpt lat="46.34819" lon="-1.26091">
        <ele>47.026278</ele>
        <time>2022-12-19T12:36:51.352Z</time>
      </trkpt>
      <trkpt lat="46.34831" lon="-1.26086">
        <ele>47.005688</ele>
        <time>2022-12-19T12:36:54.345Z</time>
      </trkpt>
      <trkpt lat="46.34841" lon="-1.26078">
        <ele>46.985746</ele>
        <time>2022-12-19T12:36:57.344Z</time>
      </trkpt>
      <trkpt lat="46.34849" lon="-1.26064">
        <ele>46.96502</ele>
        <time>2022-12-19T12:37:00.341Z</time>
      </trkpt>
      <trkpt lat="46.34855" lon="-1.26047">
        <ele>47.002209</ele>
        <time>2022-12-19T12:37:03.342Z</time>
      </trkpt>
      <trkpt lat="46.3486" lon="-1.26029">
        <ele>47.088864</ele>
        <time>2022-12-19T12:37:06.391Z</time>
      </trkpt>
      <trkpt lat="46.34864" lon="-1.26011">
        <ele>47.176041</ele>
        <time>2022-12-19T12:37:09.343Z</time>
      </trkpt>
      <trkpt lat="46.34867" lon="-1.25997">
        <ele>47.239671</ele>
        <time>2022-12-19T12:37:11.345Z</time>
      </trkpt>
      <trkpt lat="46.34871" lon="-1.25984">
        <ele>47.303362</ele>
        <time>2022-12-19T12:37:13.344Z</time>
      </trkpt>
      <trkpt lat="46.34874" lon="-1.2597">
        <ele>47.370245</ele>
        <time>2022-12-19T12:37:15.341Z</time>
      </trkpt>
      <trkpt lat="46.34876" lon="-1.25956">
        <ele>47.433141</ele>
        <time>2022-12-19T12:37:17.344Z</time>
      </trkpt>
      <trkpt lat="46.34878" lon="-1.25943">
        <ele>47.493211</ele>
        <time>2022-12-19T12:37:19.347Z</time>
      </trkpt>
      <trkpt lat="46.34881" lon="-1.2593">
        <ele>47.552841</ele>
        <time>2022-12-19T12:37:21.344Z</time>
      </trkpt>
      <trkpt lat="46.34883" lon="-1.25917">
        <ele>47.612629</ele>
        <time>2022-12-19T12:37:23.330Z</time>
      </trkpt>
      <trkpt lat="46.34886" lon="-1.25899">
        <ele>47.694555</ele>
        <time>2022-12-19T12:37:26.345Z</time>
      </trkpt>
      <trkpt lat="46.34888" lon="-1.25883">
        <ele>47.771675</ele>
        <time>2022-12-19T12:37:29.392Z</time>
      </trkpt>
      <trkpt lat="46.34891" lon="-1.25866">
        <ele>47.850422</ele>
        <time>2022-12-19T12:37:32.344Z</time>
      </trkpt>
      <trkpt lat="46.34893" lon="-1.25847">
        <ele>47.932895</ele>
        <time>2022-12-19T12:37:35.396Z</time>
      </trkpt>
      <trkpt lat="46.34895" lon="-1.25829">
        <ele>48.01825</ele>
        <time>2022-12-19T12:37:38.348Z</time>
      </trkpt>
      <trkpt lat="46.34898" lon="-1.2581">
        <ele>48.102972</ele>
        <time>2022-12-19T12:37:41.395Z</time>
      </trkpt>
      <trkpt lat="46.349" lon="-1.25792">
        <ele>48.104258</ele>
        <time>2022-12-19T12:37:44.345Z</time>
      </trkpt>
      <trkpt lat="46.34902" lon="-1.25775">
        <ele>48.078451</ele>
        <time>2022-12-19T12:37:47.399Z</time>
      </trkpt>
      <trkpt lat="46.34904" lon="-1.25759">
        <ele>48.055214</ele>
        <time>2022-12-19T12:37:50.346Z</time>
      </trkpt>
      <trkpt lat="46.34906" lon="-1.25743">
        <ele>48.031782</ele>
        <time>2022-12-19T12:37:53.415Z</time>
      </trkpt>
      <trkpt lat="46.34907" lon="-1.25727">
        <ele>48.006804</ele>
        <time>2022-12-19T12:37:56.345Z</time>
      </trkpt>
      <trkpt lat="46.3491" lon="-1.25709">
        <ele>47.979909</ele>
        <time>2022-12-19T12:37:59.404Z</time>
      </trkpt>
      <trkpt lat="46.34913" lon="-1.2569">
        <ele>47.951464</ele>
        <time>2022-12-19T12:38:02.344Z</time>
      </trkpt>
      <trkpt lat="46.34915" lon="-1.25672">
        <ele>47.925078</ele>
        <time>2022-12-19T12:38:05.397Z</time>
      </trkpt>
      <trkpt lat="46.34917" lon="-1.25655">
        <ele>47.899729</ele>
        <time>2022-12-19T12:38:08.344Z</time>
      </trkpt>
      <trkpt lat="46.3492" lon="-1.25639">
        <ele>47.874714</ele>
        <time>2022-12-19T12:38:11.399Z</time>
      </trkpt>
      <trkpt lat="46.34923" lon="-1.25622">
        <ele>47.849898</ele>
        <time>2022-12-19T12:38:14.345Z</time>
      </trkpt>
      <trkpt lat="46.34926" lon="-1.25605">
        <ele>47.823409</ele>
        <time>2022-12-19T12:38:17.363Z</time>
      </trkpt>
      <trkpt lat="46.34929" lon="-1.25585">
        <ele>47.793819</ele>
        <time>2022-12-19T12:38:20.344Z</time>
      </trkpt>
      <trkpt lat="46.34932" lon="-1.25568">
        <ele>47.768015</ele>
        <time>2022-12-19T12:38:23.333Z</time>
      </trkpt>
      <trkpt lat="46.34935" lon="-1.25551">
        <ele>47.742353</ele>
        <time>2022-12-19T12:38:26.346Z</time>
      </trkpt>
      <trkpt lat="46.34938" lon="-1.25535">
        <ele>47.767001</ele>
        <time>2022-12-19T12:38:29.345Z</time>
      </trkpt>
      <trkpt lat="46.3494" lon="-1.25518">
        <ele>47.795518</ele>
        <time>2022-12-19T12:38:32.347Z</time>
      </trkpt>
      <trkpt lat="46.34943" lon="-1.255">
        <ele>47.824717</ele>
        <time>2022-12-19T12:38:35.344Z</time>
      </trkpt>
      <trkpt lat="46.34946" lon="-1.25483">
        <ele>47.854185</ele>
        <time>2022-12-19T12:38:38.345Z</time>
      </trkpt>
      <trkpt lat="46.3495" lon="-1.25466">
        <ele>47.882371</ele>
        <time>2022-12-19T12:38:41.343Z</time>
      </trkpt>
      <trkpt lat="46.34951" lon="-1.2545">
        <ele>47.909009</ele>
        <time>2022-12-19T12:38:44.345Z</time>
      </trkpt>
      <trkpt lat="46.34954" lon="-1.25436">
        <ele>47.932248</ele>
        <time>2022-12-19T12:38:47.343Z</time>
      </trkpt>
      <trkpt lat="46.34956" lon="-1.2542">
        <ele>47.957674</ele>
        <time>2022-12-19T12:38:50.347Z</time>
      </trkpt>
      <trkpt lat="46.34959" lon="-1.25403">
        <ele>47.985833</ele>
        <time>2022-12-19T12:38:53.345Z</time>
      </trkpt>
      <trkpt lat="46.34962" lon="-1.25385">
        <ele>48.01614</ele>
        <time>2022-12-19T12:38:56.345Z</time>
      </trkpt>
      <trkpt lat="46.34964" lon="-1.25372">
        <ele>48.03725</ele>
        <time>2022-12-19T12:38:58.396Z</time>
      </trkpt>
      <trkpt lat="46.34966" lon="-1.25359">
        <ele>48.059121</ele>
        <time>2022-12-19T12:39:00.340Z</time>
      </trkpt>
      <trkpt lat="46.34968" lon="-1.25346">
        <ele>48.081086</ele>
        <time>2022-12-19T12:39:02.345Z</time>
      </trkpt>
      <trkpt lat="46.3497" lon="-1.25333">
        <ele>48.102946</ele>
        <time>2022-12-19T12:39:04.346Z</time>
      </trkpt>
      <trkpt lat="46.34972" lon="-1.2532">
        <ele>48.124194</ele>
        <time>2022-12-19T12:39:06.347Z</time>
      </trkpt>
      <trkpt lat="46.34975" lon="-1.25306">
        <ele>48.147495</ele>
        <time>2022-12-19T12:39:08.345Z</time>
      </trkpt>
      <trkpt lat="46.34978" lon="-1.25292">
        <ele>48.182035</ele>
        <time>2022-12-19T12:39:10.345Z</time>
      </trkpt>
      <trkpt lat="46.3498" lon="-1.25272">
        <ele>48.258397</ele>
        <time>2022-12-19T12:39:13.345Z</time>
      </trkpt>
      <trkpt lat="46.34982" lon="-1.25258">
        <ele>48.312832</ele>
        <time>2022-12-19T12:39:15.395Z</time>
      </trkpt>
      <trkpt lat="46.34985" lon="-1.25245">
        <ele>48.362501</ele>
        <time>2022-12-19T12:39:17.347Z</time>
      </trkpt>
      <trkpt lat="46.34987" lon="-1.25227">
        <ele>48.430054</ele>
        <time>2022-12-19T12:39:20.345Z</time>
      </trkpt>
      <trkpt lat="46.3499" lon="-1.25211">
        <ele>48.491111</ele>
        <time>2022-12-19T12:39:23.346Z</time>
      </trkpt>
      <trkpt lat="46.34991" lon="-1.25195">
        <ele>48.551141</ele>
        <time>2022-12-19T12:39:26.347Z</time>
      </trkpt>
      <trkpt lat="46.34994" lon="-1.25177">
        <ele>48.618582</ele>
        <time>2022-12-19T12:39:29.348Z</time>
      </trkpt>
      <trkpt lat="46.34997" lon="-1.25164">
        <ele>48.669589</ele>
        <time>2022-12-19T12:39:31.345Z</time>
      </trkpt>
      <trkpt lat="46.35001" lon="-1.25152">
        <ele>48.718734</ele>
        <time>2022-12-19T12:39:33.398Z</time>
      </trkpt>
      <trkpt lat="46.35007" lon="-1.25135">
        <ele>48.789933</ele>
        <time>2022-12-19T12:39:36.346Z</time>
      </trkpt>
      <trkpt lat="46.35012" lon="-1.25124">
        <ele>48.841368</ele>
        <time>2022-12-19T12:39:38.345Z</time>
      </trkpt>
      <trkpt lat="46.35018" lon="-1.25112">
        <ele>48.895865</ele>
        <time>2022-12-19T12:39:40.352Z</time>
      </trkpt>
      <trkpt lat="46.35024" lon="-1.251">
        <ele>48.951593</ele>
        <time>2022-12-19T12:39:42.346Z</time>
      </trkpt>
      <trkpt lat="46.35029" lon="-1.25089">
        <ele>49.000888</ele>
        <time>2022-12-19T12:39:44.346Z</time>
      </trkpt>
      <trkpt lat="46.35037" lon="-1.25073">
        <ele>49.071917</ele>
        <time>2022-12-19T12:39:47.344Z</time>
      </trkpt>
      <trkpt lat="46.35044" lon="-1.25057">
        <ele>49.15052</ele>
        <time>2022-12-19T12:39:50.330Z</time>
      </trkpt>
      <trkpt lat="46.35051" lon="-1.25042">
        <ele>49.271541</ele>
        <time>2022-12-19T12:39:53.348Z</time>
      </trkpt>
      <trkpt lat="46.35058" lon="-1.25027">
        <ele>49.387204</ele>
        <time>2022-12-19T12:39:56.349Z</time>
      </trkpt>
      <trkpt lat="46.35065" lon="-1.25012">
        <ele>49.505029</ele>
        <time>2022-12-19T12:39:59.342Z</time>
      </trkpt>
      <trkpt lat="46.35073" lon="-1.24996">
        <ele>49.63082</ele>
        <time>2022-12-19T12:40:02.346Z</time>
      </trkpt>
      <trkpt lat="46.35078" lon="-1.24985">
        <ele>49.716154</ele>
        <time>2022-12-19T12:40:04.345Z</time>
      </trkpt>
      <trkpt lat="46.35085" lon="-1.2497">
        <ele>49.834544</ele>
        <time>2022-12-19T12:40:07.348Z</time>
      </trkpt>
      <trkpt lat="46.35094" lon="-1.24956">
        <ele>49.958289</ele>
        <time>2022-12-19T12:40:10.335Z</time>
      </trkpt>
      <trkpt lat="46.35101" lon="-1.24947">
        <ele>50.04471</ele>
        <time>2022-12-19T12:40:12.319Z</time>
      </trkpt>
      <trkpt lat="46.3511" lon="-1.24933">
        <ele>50.166389</ele>
        <time>2022-12-19T12:40:15.347Z</time>
      </trkpt>
      <trkpt lat="46.35119" lon="-1.24921">
        <ele>50.286917</ele>
        <time>2022-12-19T12:40:18.342Z</time>
      </trkpt>
      <trkpt lat="46.35127" lon="-1.24911">
        <ele>50.38535</ele>
        <time>2022-12-19T12:40:21.346Z</time>
      </trkpt>
      <trkpt lat="46.35134" lon="-1.24901">
        <ele>50.477384</ele>
        <time>2022-12-19T12:40:24.346Z</time>
      </trkpt>
      <trkpt lat="46.35141" lon="-1.24889">
        <ele>50.577345</ele>
        <time>2022-12-19T12:40:27.352Z</time>
      </trkpt>
      <trkpt lat="46.35148" lon="-1.24876">
        <ele>50.683191</ele>
        <time>2022-12-19T12:40:30.339Z</time>
      </trkpt>
      <trkpt lat="46.35155" lon="-1.24863">
        <ele>50.791326</ele>
        <time>2022-12-19T12:40:33.350Z</time>
      </trkpt>
      <trkpt lat="46.35163" lon="-1.24852">
        <ele>50.796583</ele>
        <time>2022-12-19T12:40:36.345Z</time>
      </trkpt>
      <trkpt lat="46.35174" lon="-1.24849">
        <ele>50.768707</ele>
        <time>2022-12-19T12:40:39.346Z</time>
      </trkpt>
      <trkpt lat="46.35184" lon="-1.24856">
        <ele>50.738897</ele>
        <time>2022-12-19T12:40:42.344Z</time>
      </trkpt>
      <trkpt lat="46.35192" lon="-1.24865">
        <ele>50.710801</ele>
        <time>2022-12-19T12:40:45.343Z</time>
      </trkpt>
      <trkpt lat="46.35199" lon="-1.24876">
        <ele>50.682348</ele>
        <time>2022-12-19T12:40:48.345Z</time>
      </trkpt>
      <trkpt lat="46.35206" lon="-1.24887">
        <ele>50.655085</ele>
        <time>2022-12-19T12:40:51.343Z</time>
      </trkpt>
      <trkpt lat="46.35213" lon="-1.24899">
        <ele>50.625818</ele>
        <time>2022-12-19T12:40:54.351Z</time>
      </trkpt>
      <trkpt lat="46.35221" lon="-1.24911">
        <ele>50.595313</ele>
        <time>2022-12-19T12:40:57.344Z</time>
      </trkpt>
      <trkpt lat="46.35228" lon="-1.24923">
        <ele>50.565175</ele>
        <time>2022-12-19T12:41:00.347Z</time>
      </trkpt>
      <trkpt lat="46.35236" lon="-1.24935">
        <ele>50.535909</ele>
        <time>2022-12-19T12:41:03.340Z</time>
      </trkpt>
      <trkpt lat="46.35243" lon="-1.24947">
        <ele>50.506264</ele>
        <time>2022-12-19T12:41:06.343Z</time>
      </trkpt>
      <trkpt lat="46.35251" lon="-1.24957">
        <ele>50.47719</ele>
        <time>2022-12-19T12:41:09.343Z</time>
      </trkpt>
      <trkpt lat="46.35258" lon="-1.24968">
        <ele>50.450499</ele>
        <time>2022-12-19T12:41:12.323Z</time>
      </trkpt>
      <trkpt lat="46.35265" lon="-1.24979">
        <ele>50.421486</ele>
        <time>2022-12-19T12:41:16.344Z</time>
      </trkpt>
      <trkpt lat="46.35272" lon="-1.24989">
        <ele>50.396346</ele>
        <time>2022-12-19T12:41:19.400Z</time>
      </trkpt>
      <trkpt lat="46.35279" lon="-1.25">
        <ele>50.368296</ele>
        <time>2022-12-19T12:41:22.347Z</time>
      </trkpt>
      <trkpt lat="46.35286" lon="-1.2501">
        <ele>50.341926</ele>
        <time>2022-12-19T12:41:25.385Z</time>
      </trkpt>
      <trkpt lat="46.35292" lon="-1.25019">
        <ele>50.40211</ele>
        <time>2022-12-19T12:41:28.327Z</time>
      </trkpt>
      <trkpt lat="46.35299" lon="-1.25032">
        <ele>50.511293</ele>
        <time>2022-12-19T12:41:32.345Z</time>
      </trkpt>
      <trkpt lat="46.35306" lon="-1.2504">
        <ele>50.605836</ele>
        <time>2022-12-19T12:41:36.400Z</time>
      </trkpt>
      <trkpt lat="46.35316" lon="-1.25049">
        <ele>50.726592</ele>
        <time>2022-12-19T12:41:40.346Z</time>
      </trkpt>
      <trkpt lat="46.35324" lon="-1.25061">
        <ele>50.843687</ele>
        <time>2022-12-19T12:41:44.353Z</time>
      </trkpt>
      <trkpt lat="46.35333" lon="-1.2507">
        <ele>50.947684</ele>
        <time>2022-12-19T12:41:48.414Z</time>
      </trkpt>
      <trkpt lat="46.35342" lon="-1.25074">
        <ele>51.04477</ele>
        <time>2022-12-19T12:41:52.341Z</time>
      </trkpt>
      <trkpt lat="46.35351" lon="-1.25068">
        <ele>51.150171</ele>
        <time>2022-12-19T12:41:56.345Z</time>
      </trkpt>
      <trkpt lat="46.3536" lon="-1.25059">
        <ele>51.259873</ele>
        <time>2022-12-19T12:41:59.348Z</time>
      </trkpt>
      <trkpt lat="46.3537" lon="-1.25046">
        <ele>51.390053</ele>
        <time>2022-12-19T12:42:02.346Z</time>
      </trkpt>
      <trkpt lat="46.35379" lon="-1.25033">
        <ele>51.519714</ele>
        <time>2022-12-19T12:42:05.348Z</time>
      </trkpt>
      <trkpt lat="46.35388" lon="-1.25021">
        <ele>51.644034</ele>
        <time>2022-12-19T12:42:08.346Z</time>
      </trkpt>
      <trkpt lat="46.35396" lon="-1.2501">
        <ele>51.760634</ele>
        <time>2022-12-19T12:42:11.345Z</time>
      </trkpt>
      <trkpt lat="46.35404" lon="-1.24999">
        <ele>51.870654</ele>
        <time>2022-12-19T12:42:14.350Z</time>
      </trkpt>
      <trkpt lat="46.35411" lon="-1.24989">
        <ele>51.966864</ele>
        <time>2022-12-19T12:42:17.337Z</time>
      </trkpt>
      <trkpt lat="46.35416" lon="-1.24977">
        <ele>52.06512</ele>
        <time>2022-12-19T12:42:20.343Z</time>
      </trkpt>
      <trkpt lat="46.35419" lon="-1.24963">
        <ele>52.171236</ele>
        <time>2022-12-19T12:42:23.345Z</time>
      </trkpt>
      <trkpt lat="46.35421" lon="-1.24949">
        <ele>52.317578</ele>
        <time>2022-12-19T12:42:26.345Z</time>
      </trkpt>
      <trkpt lat="46.35422" lon="-1.24934">
        <ele>52.463928</ele>
        <time>2022-12-19T12:42:29.344Z</time>
      </trkpt>
      <trkpt lat="46.35423" lon="-1.24919">
        <ele>52.607817</ele>
        <time>2022-12-19T12:42:32.348Z</time>
      </trkpt>
      <trkpt lat="46.35424" lon="-1.24903">
        <ele>52.766383</ele>
        <time>2022-12-19T12:42:35.331Z</time>
      </trkpt>
      <trkpt lat="46.35427" lon="-1.24889">
        <ele>52.916531</ele>
        <time>2022-12-19T12:42:38.340Z</time>
      </trkpt>
      <trkpt lat="46.35431" lon="-1.24874">
        <ele>53.069143</ele>
        <time>2022-12-19T12:42:41.395Z</time>
      </trkpt>
      <trkpt lat="46.35435" lon="-1.24859">
        <ele>53.229947</ele>
        <time>2022-12-19T12:42:44.346Z</time>
      </trkpt>
      <trkpt lat="46.35441" lon="-1.24845">
        <ele>53.39245</ele>
        <time>2022-12-19T12:42:47.399Z</time>
      </trkpt>
      <trkpt lat="46.35447" lon="-1.2483">
        <ele>53.555119</ele>
        <time>2022-12-19T12:42:50.347Z</time>
      </trkpt>
      <trkpt lat="46.35453" lon="-1.24816">
        <ele>53.723024</ele>
        <time>2022-12-19T12:42:53.409Z</time>
      </trkpt>
      <trkpt lat="46.35458" lon="-1.24801">
        <ele>53.887242</ele>
        <time>2022-12-19T12:42:56.345Z</time>
      </trkpt>
      <trkpt lat="46.35463" lon="-1.24786">
        <ele>54.053071</ele>
        <time>2022-12-19T12:42:59.395Z</time>
      </trkpt>
      <trkpt lat="46.35468" lon="-1.24773">
        <ele>54.198251</ele>
        <time>2022-12-19T12:43:02.349Z</time>
      </trkpt>
      <trkpt lat="46.35476" lon="-1.2476">
        <ele>54.367255</ele>
        <time>2022-12-19T12:43:06.331Z</time>
      </trkpt>
      <trkpt lat="46.35483" lon="-1.24749">
        <ele>54.51078</ele>
        <time>2022-12-19T12:43:09.345Z</time>
      </trkpt>
      <trkpt lat="46.35491" lon="-1.24739">
        <ele>54.668635</ele>
        <time>2022-12-19T12:43:12.347Z</time>
      </trkpt>
      <trkpt lat="46.355" lon="-1.24728">
        <ele>54.649564</ele>
        <time>2022-12-19T12:43:15.344Z</time>
      </trkpt>
      <trkpt lat="46.35509" lon="-1.24717">
        <ele>54.560789</ele>
        <time>2022-12-19T12:43:18.342Z</time>
      </trkpt>
      <trkpt lat="46.35518" lon="-1.24705">
        <ele>54.468751</ele>
        <time>2022-12-19T12:43:21.344Z</time>
      </trkpt>
      <trkpt lat="46.35527" lon="-1.24693">
        <ele>54.373581</ele>
        <time>2022-12-19T12:43:24.323Z</time>
      </trkpt>
      <trkpt lat="46.35534" lon="-1.24678">
        <ele>54.27692</ele>
        <time>2022-12-19T12:43:27.324Z</time>
      </trkpt>
      <trkpt lat="46.35542" lon="-1.24664">
        <ele>54.181654</ele>
        <time>2022-12-19T12:43:30.349Z</time>
      </trkpt>
      <trkpt lat="46.3555" lon="-1.24651">
        <ele>54.090023</ele>
        <time>2022-12-19T12:43:33.344Z</time>
      </trkpt>
      <trkpt lat="46.35558" lon="-1.24641">
        <ele>54.006231</ele>
        <time>2022-12-19T12:43:36.346Z</time>
      </trkpt>
      <trkpt lat="46.35569" lon="-1.24635">
        <ele>53.918652</ele>
        <time>2022-12-19T12:43:39.345Z</time>
      </trkpt>
      <trkpt lat="46.35579" lon="-1.24629">
        <ele>53.830766</ele>
        <time>2022-12-19T12:43:42.348Z</time>
      </trkpt>
      <trkpt lat="46.35591" lon="-1.24622">
        <ele>53.738317</ele>
        <time>2022-12-19T12:43:45.346Z</time>
      </trkpt>
      <trkpt lat="46.35602" lon="-1.24616">
        <ele>53.646663</ele>
        <time>2022-12-19T12:43:48.348Z</time>
      </trkpt>
      <trkpt lat="46.35613" lon="-1.24609">
        <ele>53.555009</ele>
        <time>2022-12-19T12:43:51.400Z</time>
      </trkpt>
      <trkpt lat="46.35623" lon="-1.24602">
        <ele>53.464081</ele>
        <time>2022-12-19T12:43:54.346Z</time>
      </trkpt>
      <trkpt lat="46.35632" lon="-1.24592">
        <ele>53.378471</ele>
        <time>2022-12-19T12:43:57.407Z</time>
      </trkpt>
      <trkpt lat="46.35641" lon="-1.24582">
        <ele>53.22957</ele>
        <time>2022-12-19T12:44:00.341Z</time>
      </trkpt>
      <trkpt lat="46.3565" lon="-1.24571">
        <ele>53.003252</ele>
        <time>2022-12-19T12:44:03.328Z</time>
      </trkpt>
      <trkpt lat="46.35657" lon="-1.24562">
        <ele>52.80811</ele>
        <time>2022-12-19T12:44:06.343Z</time>
      </trkpt>
      <trkpt lat="46.35664" lon="-1.24553">
        <ele>52.626176</ele>
        <time>2022-12-19T12:44:09.345Z</time>
      </trkpt>
      <trkpt lat="46.35672" lon="-1.24543">
        <ele>52.424877</ele>
        <time>2022-12-19T12:44:12.346Z</time>
      </trkpt>
      <trkpt lat="46.3568" lon="-1.24532">
        <ele>52.20314</ele>
        <time>2022-12-19T12:44:15.345Z</time>
      </trkpt>
      <trkpt lat="46.35689" lon="-1.24521">
        <ele>51.974651</ele>
        <time>2022-12-19T12:44:18.328Z</time>
      </trkpt>
      <trkpt lat="46.35699" lon="-1.24511">
        <ele>51.737956</ele>
        <time>2022-12-19T12:44:21.346Z</time>
      </trkpt>
      <trkpt lat="46.35708" lon="-1.245">
        <ele>51.507825</ele>
        <time>2022-12-19T12:44:24.328Z</time>
      </trkpt>
      <trkpt lat="46.35718" lon="-1.24489">
        <ele>51.267208</ele>
        <time>2022-12-19T12:44:27.347Z</time>
      </trkpt>
      <trkpt lat="46.35727" lon="-1.24477">
        <ele>51.020912</ele>
        <time>2022-12-19T12:44:30.348Z</time>
      </trkpt>
      <trkpt lat="46.35737" lon="-1.24465">
        <ele>50.764231</ele>
        <time>2022-12-19T12:44:33.348Z</time>
      </trkpt>
      <trkpt lat="46.35746" lon="-1.24452">
        <ele>50.511121</ele>
        <time>2022-12-19T12:44:36.397Z</time>
      </trkpt>
      <trkpt lat="46.35752" lon="-1.24442">
        <ele>50.330306</ele>
        <time>2022-12-19T12:44:38.335Z</time>
      </trkpt>
      <trkpt lat="46.35761" lon="-1.24427">
        <ele>50.063186</ele>
        <time>2022-12-19T12:44:41.346Z</time>
      </trkpt>
      <trkpt lat="46.35766" lon="-1.24416">
        <ele>49.882273</ele>
        <time>2022-12-19T12:44:43.349Z</time>
      </trkpt>
      <trkpt lat="46.35774" lon="-1.244">
        <ele>49.72976</ele>
        <time>2022-12-19T12:44:46.346Z</time>
      </trkpt>
      <trkpt lat="46.35779" lon="-1.24389">
        <ele>49.660928</ele>
        <time>2022-12-19T12:44:48.386Z</time>
      </trkpt>
      <trkpt lat="46.35784" lon="-1.24377">
        <ele>49.590283</ele>
        <time>2022-12-19T12:44:50.345Z</time>
      </trkpt>
      <trkpt lat="46.35789" lon="-1.24365">
        <ele>49.51724</ele>
        <time>2022-12-19T12:44:52.345Z</time>
      </trkpt>
      <trkpt lat="46.35794" lon="-1.24353">
        <ele>49.443631</ele>
        <time>2022-12-19T12:44:54.396Z</time>
      </trkpt>
      <trkpt lat="46.358" lon="-1.24341">
        <ele>49.367632</ele>
        <time>2022-12-19T12:44:56.329Z</time>
      </trkpt>
      <trkpt lat="46.35807" lon="-1.24329">
        <ele>49.287585</ele>
        <time>2022-12-19T12:44:58.346Z</time>
      </trkpt>
      <trkpt lat="46.35814" lon="-1.24316">
        <ele>49.20599</ele>
        <time>2022-12-19T12:45:00.413Z</time>
      </trkpt>
      <trkpt lat="46.35821" lon="-1.24304">
        <ele>49.122772</ele>
        <time>2022-12-19T12:45:02.348Z</time>
      </trkpt>
      <trkpt lat="46.35829" lon="-1.24293">
        <ele>49.039196</ele>
        <time>2022-12-19T12:45:04.354Z</time>
      </trkpt>
      <trkpt lat="46.35838" lon="-1.24282">
        <ele>48.955036</ele>
        <time>2022-12-19T12:45:06.426Z</time>
      </trkpt>
      <trkpt lat="46.35846" lon="-1.24272">
        <ele>48.873902</ele>
        <time>2022-12-19T12:45:08.347Z</time>
      </trkpt>
      <trkpt lat="46.35856" lon="-1.24263">
        <ele>48.789874</ele>
        <time>2022-12-19T12:45:10.346Z</time>
      </trkpt>
      <trkpt lat="46.35866" lon="-1.24255">
        <ele>48.706518</ele>
        <time>2022-12-19T12:45:12.403Z</time>
      </trkpt>
      <trkpt lat="46.35875" lon="-1.24248">
        <ele>48.625517</ele>
        <time>2022-12-19T12:45:14.346Z</time>
      </trkpt>
      <trkpt lat="46.35886" lon="-1.24246">
        <ele>48.545608</ele>
        <time>2022-12-19T12:45:16.351Z</time>
      </trkpt>
      <trkpt lat="46.35896" lon="-1.24243">
        <ele>48.468145</ele>
        <time>2022-12-19T12:45:18.395Z</time>
      </trkpt>
      <trkpt lat="46.35906" lon="-1.24242">
        <ele>48.447546</ele>
        <time>2022-12-19T12:45:20.345Z</time>
      </trkpt>
      <trkpt lat="46.35915" lon="-1.24239">
        <ele>48.433596</ele>
        <time>2022-12-19T12:45:22.345Z</time>
      </trkpt>
      <trkpt lat="46.35925" lon="-1.24237">
        <ele>48.419561</ele>
        <time>2022-12-19T12:45:24.410Z</time>
      </trkpt>
      <trkpt lat="46.35934" lon="-1.24233">
        <ele>48.406489</ele>
        <time>2022-12-19T12:45:26.346Z</time>
      </trkpt>
      <trkpt lat="46.35946" lon="-1.24225">
        <ele>48.387481</ele>
        <time>2022-12-19T12:45:29.344Z</time>
      </trkpt>
      <trkpt lat="46.35954" lon="-1.2422">
        <ele>48.37447</ele>
        <time>2022-12-19T12:45:31.350Z</time>
      </trkpt>
      <trkpt lat="46.35964" lon="-1.24212">
        <ele>48.358027</ele>
        <time>2022-12-19T12:45:34.347Z</time>
      </trkpt>
      <trkpt lat="46.35976" lon="-1.24203">
        <ele>48.339441</ele>
        <time>2022-12-19T12:45:37.348Z</time>
      </trkpt>
      <trkpt lat="46.35987" lon="-1.24194">
        <ele>48.320555</ele>
        <time>2022-12-19T12:45:40.339Z</time>
      </trkpt>
      <trkpt lat="46.35996" lon="-1.24188">
        <ele>48.306724</ele>
        <time>2022-12-19T12:45:42.393Z</time>
      </trkpt>
      <trkpt lat="46.36008" lon="-1.2418">
        <ele>48.287551</ele>
        <time>2022-12-19T12:45:45.326Z</time>
      </trkpt>
      <trkpt lat="46.36017" lon="-1.24176">
        <ele>48.27375</ele>
        <time>2022-12-19T12:45:47.344Z</time>
      </trkpt>
      <trkpt lat="46.36027" lon="-1.24173">
        <ele>48.259589</ele>
        <time>2022-12-19T12:45:49.346Z</time>
      </trkpt>
      <trkpt lat="46.36037" lon="-1.24171">
        <ele>48.24516</ele>
        <time>2022-12-19T12:45:51.351Z</time>
      </trkpt>
      <trkpt lat="46.36046" lon="-1.24172">
        <ele>48.231372</ele>
        <time>2022-12-19T12:45:53.349Z</time>
      </trkpt>
      <trkpt lat="46.36059" lon="-1.24174">
        <ele>48.212635</ele>
        <time>2022-12-19T12:45:56.347Z</time>
      </trkpt>
      <trkpt lat="46.36069" lon="-1.24176">
        <ele>48.198159</ele>
        <time>2022-12-19T12:45:58.334Z</time>
      </trkpt>
      <trkpt lat="46.36078" lon="-1.24179">
        <ele>48.176362</ele>
        <time>2022-12-19T12:46:00.337Z</time>
      </trkpt>
      <trkpt lat="46.36088" lon="-1.24183">
        <ele>48.15453</ele>
        <time>2022-12-19T12:46:02.347Z</time>
      </trkpt>
      <trkpt lat="46.36096" lon="-1.24187">
        <ele>48.134481</ele>
        <time>2022-12-19T12:46:04.346Z</time>
      </trkpt>
      <trkpt lat="46.36106" lon="-1.24191">
        <ele>48.113218</ele>
        <time>2022-12-19T12:46:06.349Z</time>
      </trkpt>
      <trkpt lat="46.36115" lon="-1.24196">
        <ele>48.091299</ele>
        <time>2022-12-19T12:46:08.350Z</time>
      </trkpt>
      <trkpt lat="46.36124" lon="-1.242">
        <ele>48.071089</ele>
        <time>2022-12-19T12:46:10.353Z</time>
      </trkpt>
      <trkpt lat="46.36133" lon="-1.24205">
        <ele>48.049175</ele>
        <time>2022-12-19T12:46:12.345Z</time>
      </trkpt>
      <trkpt lat="46.36142" lon="-1.24209">
        <ele>48.02824</ele>
        <time>2022-12-19T12:46:14.344Z</time>
      </trkpt>
      <trkpt lat="46.36151" lon="-1.24214">
        <ele>48.006533</ele>
        <time>2022-12-19T12:46:16.346Z</time>
      </trkpt>
      <trkpt lat="46.3616" lon="-1.24218">
        <ele>47.985781</ele>
        <time>2022-12-19T12:46:18.346Z</time>
      </trkpt>
      <trkpt lat="46.36172" lon="-1.24225">
        <ele>47.956959</ele>
        <time>2022-12-19T12:46:21.349Z</time>
      </trkpt>
      <trkpt lat="46.36185" lon="-1.2423">
        <ele>47.928099</ele>
        <time>2022-12-19T12:46:24.347Z</time>
      </trkpt>
      <trkpt lat="46.36198" lon="-1.24235">
        <ele>47.899026</ele>
        <time>2022-12-19T12:46:27.348Z</time>
      </trkpt>
      <trkpt lat="46.3621" lon="-1.24237">
        <ele>47.870788</ele>
        <time>2022-12-19T12:46:30.344Z</time>
      </trkpt>
      <trkpt lat="46.36224" lon="-1.24236">
        <ele>47.841292</ele>
        <time>2022-12-19T12:46:33.340Z</time>
      </trkpt>
      <trkpt lat="46.36232" lon="-1.24232">
        <ele>47.821345</ele>
        <time>2022-12-19T12:46:35.415Z</time>
      </trkpt>
      <trkpt lat="46.3624" lon="-1.24225">
        <ele>47.790803</ele>
        <time>2022-12-19T12:46:37.345Z</time>
      </trkpt>
      <trkpt lat="46.36247" lon="-1.24217">
        <ele>47.705017</ele>
        <time>2022-12-19T12:46:39.350Z</time>
      </trkpt>
      <trkpt lat="46.36254" lon="-1.24207">
        <ele>47.615989</ele>
        <time>2022-12-19T12:46:41.421Z</time>
      </trkpt>
      <trkpt lat="46.3626" lon="-1.24196">
        <ele>47.525773</ele>
        <time>2022-12-19T12:46:43.340Z</time>
      </trkpt>
      <trkpt lat="46.36265" lon="-1.24185">
        <ele>47.437223</ele>
        <time>2022-12-19T12:46:45.347Z</time>
      </trkpt>
      <trkpt lat="46.3627" lon="-1.24173">
        <ele>47.347427</ele>
        <time>2022-12-19T12:46:47.343Z</time>
      </trkpt>
      <trkpt lat="46.36277" lon="-1.24157">
        <ele>47.222185</ele>
        <time>2022-12-19T12:46:50.346Z</time>
      </trkpt>
      <trkpt lat="46.36283" lon="-1.24142">
        <ele>47.10619</ele>
        <time>2022-12-19T12:46:53.346Z</time>
      </trkpt>
      <trkpt lat="46.36289" lon="-1.24126">
        <ele>46.989625</ele>
        <time>2022-12-19T12:46:56.328Z</time>
      </trkpt>
      <trkpt lat="46.36293" lon="-1.2411">
        <ele>46.876719</ele>
        <time>2022-12-19T12:46:59.349Z</time>
      </trkpt>
      <trkpt lat="46.36295" lon="-1.24091">
        <ele>46.756075</ele>
        <time>2022-12-19T12:47:02.346Z</time>
      </trkpt>
      <trkpt lat="46.36304" lon="-1.24078">
        <ele>46.632916</ele>
        <time>2022-12-19T12:47:05.348Z</time>
      </trkpt>
      <trkpt lat="46.36311" lon="-1.24068">
        <ele>46.544801</ele>
        <time>2022-12-19T12:47:07.338Z</time>
      </trkpt>
      <trkpt lat="46.36317" lon="-1.24058">
        <ele>46.45234</ele>
        <time>2022-12-19T12:47:09.346Z</time>
      </trkpt>
      <trkpt lat="46.36323" lon="-1.24047">
        <ele>46.365345</ele>
        <time>2022-12-19T12:47:11.386Z</time>
      </trkpt>
      <trkpt lat="46.36327" lon="-1.24035">
        <ele>46.276664</ele>
        <time>2022-12-19T12:47:13.347Z</time>
      </trkpt>
      <trkpt lat="46.36332" lon="-1.24024">
        <ele>46.189645</ele>
        <time>2022-12-19T12:47:15.347Z</time>
      </trkpt>
      <trkpt lat="46.36337" lon="-1.24012">
        <ele>46.103946</ele>
        <time>2022-12-19T12:47:17.395Z</time>
      </trkpt>
      <trkpt lat="46.36344" lon="-1.23995">
        <ele>46.075448</ele>
        <time>2022-12-19T12:47:20.346Z</time>
      </trkpt>
      <trkpt lat="46.36349" lon="-1.23983">
        <ele>46.056032</ele>
        <time>2022-12-19T12:47:22.361Z</time>
      </trkpt>
      <trkpt lat="46.36354" lon="-1.23972">
        <ele>46.036749</ele>
        <time>2022-12-19T12:47:24.347Z</time>
      </trkpt>
      <trkpt lat="46.36359" lon="-1.2396">
        <ele>46.016295</ele>
        <time>2022-12-19T12:47:26.346Z</time>
      </trkpt>
      <trkpt lat="46.36364" lon="-1.23949">
        <ele>45.99631</ele>
        <time>2022-12-19T12:47:28.392Z</time>
      </trkpt>
      <trkpt lat="46.3637" lon="-1.23937">
        <ele>45.976084</ele>
        <time>2022-12-19T12:47:30.346Z</time>
      </trkpt>
      <trkpt lat="46.36375" lon="-1.23925">
        <ele>45.95607</ele>
        <time>2022-12-19T12:47:32.344Z</time>
      </trkpt>
      <trkpt lat="46.3638" lon="-1.23913">
        <ele>45.935604</ele>
        <time>2022-12-19T12:47:34.395Z</time>
      </trkpt>
      <trkpt lat="46.36385" lon="-1.23901">
        <ele>45.914783</ele>
        <time>2022-12-19T12:47:36.352Z</time>
      </trkpt>
      <trkpt lat="46.36391" lon="-1.2389">
        <ele>45.894801</ele>
        <time>2022-12-19T12:47:38.335Z</time>
      </trkpt>
      <trkpt lat="46.36396" lon="-1.23877">
        <ele>45.874274</ele>
        <time>2022-12-19T12:47:40.397Z</time>
      </trkpt>
      <trkpt lat="46.36401" lon="-1.23865">
        <ele>45.853077</ele>
        <time>2022-12-19T12:47:42.349Z</time>
      </trkpt>
      <trkpt lat="46.36406" lon="-1.23851">
        <ele>45.831242</ele>
        <time>2022-12-19T12:47:44.335Z</time>
      </trkpt>
      <trkpt lat="46.36411" lon="-1.23838">
        <ele>45.810062</ele>
        <time>2022-12-19T12:47:46.335Z</time>
      </trkpt>
      <trkpt lat="46.36416" lon="-1.23826">
        <ele>45.789202</ele>
        <time>2022-12-19T12:47:48.344Z</time>
      </trkpt>
      <trkpt lat="46.36421" lon="-1.23814">
        <ele>45.769935</ele>
        <time>2022-12-19T12:47:50.347Z</time>
      </trkpt>
      <trkpt lat="46.36428" lon="-1.23799">
        <ele>45.743568</ele>
        <time>2022-12-19T12:47:53.348Z</time>
      </trkpt>
      <trkpt lat="46.36434" lon="-1.23783">
        <ele>45.747615</ele>
        <time>2022-12-19T12:47:56.345Z</time>
      </trkpt>
      <trkpt lat="46.3644" lon="-1.23768">
        <ele>45.782395</ele>
        <time>2022-12-19T12:47:59.357Z</time>
      </trkpt>
      <trkpt lat="46.36447" lon="-1.23752">
        <ele>45.819227</ele>
        <time>2022-12-19T12:48:02.346Z</time>
      </trkpt>
      <trkpt lat="46.36455" lon="-1.23736">
        <ele>45.858333</ele>
        <time>2022-12-19T12:48:05.347Z</time>
      </trkpt>
      <trkpt lat="46.36459" lon="-1.23724">
        <ele>45.884829</ele>
        <time>2022-12-19T12:48:07.342Z</time>
      </trkpt>
      <trkpt lat="46.36464" lon="-1.23713">
        <ele>45.911105</ele>
        <time>2022-12-19T12:48:09.399Z</time>
      </trkpt>
      <trkpt lat="46.36469" lon="-1.23701">
        <ele>45.939202</ele>
        <time>2022-12-19T12:48:11.346Z</time>
      </trkpt>
      <trkpt lat="46.36474" lon="-1.23689">
        <ele>45.966381</ele>
        <time>2022-12-19T12:48:13.342Z</time>
      </trkpt>
      <trkpt lat="46.3648" lon="-1.23676">
        <ele>45.995402</ele>
        <time>2022-12-19T12:48:15.419Z</time>
      </trkpt>
      <trkpt lat="46.36485" lon="-1.23664">
        <ele>46.024234</ele>
        <time>2022-12-19T12:48:17.343Z</time>
      </trkpt>
      <trkpt lat="46.36492" lon="-1.23647">
        <ele>46.062051</ele>
        <time>2022-12-19T12:48:20.345Z</time>
      </trkpt>
      <trkpt lat="46.36497" lon="-1.23637">
        <ele>46.087861</ele>
        <time>2022-12-19T12:48:22.346Z</time>
      </trkpt>
      <trkpt lat="46.36505" lon="-1.23621">
        <ele>46.125817</ele>
        <time>2022-12-19T12:48:25.345Z</time>
      </trkpt>
      <trkpt lat="46.36514" lon="-1.23608">
        <ele>46.163755</ele>
        <time>2022-12-19T12:48:28.337Z</time>
      </trkpt>
      <trkpt lat="46.36524" lon="-1.23595">
        <ele>46.201546</ele>
        <time>2022-12-19T12:48:31.351Z</time>
      </trkpt>
      <trkpt lat="46.36534" lon="-1.23583">
        <ele>46.238387</ele>
        <time>2022-12-19T12:48:34.347Z</time>
      </trkpt>
      <trkpt lat="46.36545" lon="-1.23571">
        <ele>46.347175</ele>
        <time>2022-12-19T12:48:37.345Z</time>
      </trkpt>
      <trkpt lat="46.36553" lon="-1.23563">
        <ele>46.43471</ele>
        <time>2022-12-19T12:48:39.349Z</time>
      </trkpt>
      <trkpt lat="46.36562" lon="-1.23554">
        <ele>46.528442</ele>
        <time>2022-12-19T12:48:41.349Z</time>
      </trkpt>
      <trkpt lat="46.3657" lon="-1.23545">
        <ele>46.624306</ele>
        <time>2022-12-19T12:48:43.344Z</time>
      </trkpt>
      <trkpt lat="46.36579" lon="-1.23538">
        <ele>46.714887</ele>
        <time>2022-12-19T12:48:45.350Z</time>
      </trkpt>
      <trkpt lat="46.36588" lon="-1.2353">
        <ele>46.807935</ele>
        <time>2022-12-19T12:48:47.347Z</time>
      </trkpt>
      <trkpt lat="46.36596" lon="-1.23522">
        <ele>46.896306</ele>
        <time>2022-12-19T12:48:49.347Z</time>
      </trkpt>
      <trkpt lat="46.36605" lon="-1.23514">
        <ele>46.986937</ele>
        <time>2022-12-19T12:48:51.358Z</time>
      </trkpt>
      <trkpt lat="46.36613" lon="-1.23507">
        <ele>47.072805</ele>
        <time>2022-12-19T12:48:53.348Z</time>
      </trkpt>
      <trkpt lat="46.36621" lon="-1.23499">
        <ele>47.155342</ele>
        <time>2022-12-19T12:48:55.348Z</time>
      </trkpt>
      <trkpt lat="46.36631" lon="-1.2349">
        <ele>47.263656</ele>
        <time>2022-12-19T12:48:58.354Z</time>
      </trkpt>
      <trkpt lat="46.3664" lon="-1.2348">
        <ele>47.36502</ele>
        <time>2022-12-19T12:49:01.344Z</time>
      </trkpt>
      <trkpt lat="46.36648" lon="-1.23468">
        <ele>47.467826</ele>
        <time>2022-12-19T12:49:04.346Z</time>
      </trkpt>
      <trkpt lat="46.36656" lon="-1.23456">
        <ele>47.57459</ele>
        <time>2022-12-19T12:49:07.350Z</time>
      </trkpt>
      <trkpt lat="46.36664" lon="-1.23442">
        <ele>47.684949</ele>
        <time>2022-12-19T12:49:10.347Z</time>
      </trkpt>
      <trkpt lat="46.36671" lon="-1.23426">
        <ele>47.799612</ele>
        <time>2022-12-19T12:49:13.345Z</time>
      </trkpt>
      <trkpt lat="46.36678" lon="-1.2341">
        <ele>47.88071</ele>
        <time>2022-12-19T12:49:16.345Z</time>
      </trkpt>
      <trkpt lat="46.36683" lon="-1.23399">
        <ele>47.917899</ele>
        <time>2022-12-19T12:49:18.337Z</time>
      </trkpt>
      <trkpt lat="46.36687" lon="-1.23388">
        <ele>47.95541</ele>
        <time>2022-12-19T12:49:20.414Z</time>
      </trkpt>
      <trkpt lat="46.36692" lon="-1.23375">
        <ele>47.995505</ele>
        <time>2022-12-19T12:49:22.345Z</time>
      </trkpt>
      <trkpt lat="46.36697" lon="-1.23363">
        <ele>48.035536</ele>
        <time>2022-12-19T12:49:24.345Z</time>
      </trkpt>
      <trkpt lat="46.36703" lon="-1.23351">
        <ele>48.076691</ele>
        <time>2022-12-19T12:49:26.396Z</time>
      </trkpt>
      <trkpt lat="46.36708" lon="-1.23339">
        <ele>48.117525</ele>
        <time>2022-12-19T12:49:28.328Z</time>
      </trkpt>
      <trkpt lat="46.36713" lon="-1.23326">
        <ele>48.158406</ele>
        <time>2022-12-19T12:49:30.347Z</time>
      </trkpt>
      <trkpt lat="46.36717" lon="-1.23315">
        <ele>48.196253</ele>
        <time>2022-12-19T12:49:32.396Z</time>
      </trkpt>
      <trkpt lat="46.36722" lon="-1.23303">
        <ele>48.235343</ele>
        <time>2022-12-19T12:49:34.347Z</time>
      </trkpt>
      <trkpt lat="46.36726" lon="-1.23291">
        <ele>48.274635</ele>
        <time>2022-12-19T12:49:36.327Z</time>
      </trkpt>
      <trkpt lat="46.36732" lon="-1.23273">
        <ele>48.328332</ele>
        <time>2022-12-19T12:49:39.345Z</time>
      </trkpt>
      <trkpt lat="46.36738" lon="-1.23257">
        <ele>48.381056</ele>
        <time>2022-12-19T12:49:42.344Z</time>
      </trkpt>
      <trkpt lat="46.36742" lon="-1.2324">
        <ele>48.43213</ele>
        <time>2022-12-19T12:49:45.346Z</time>
      </trkpt>
      <trkpt lat="46.36747" lon="-1.23224">
        <ele>48.482639</ele>
        <time>2022-12-19T12:49:48.347Z</time>
      </trkpt>
      <trkpt lat="46.36751" lon="-1.23207">
        <ele>48.533944</ele>
        <time>2022-12-19T12:49:51.345Z</time>
      </trkpt>
      <trkpt lat="46.36755" lon="-1.2319">
        <ele>48.583245</ele>
        <time>2022-12-19T12:49:54.346Z</time>
      </trkpt>
      <trkpt lat="46.3676" lon="-1.23175">
        <ele>48.579122</ele>
        <time>2022-12-19T12:49:57.347Z</time>
      </trkpt>
      <trkpt lat="46.36764" lon="-1.23158">
        <ele>48.565056</ele>
        <time>2022-12-19T12:50:00.347Z</time>
      </trkpt>
      <trkpt lat="46.36768" lon="-1.23142">
        <ele>48.551034</ele>
        <time>2022-12-19T12:50:03.349Z</time>
      </trkpt>
      <trkpt lat="46.36772" lon="-1.23127">
        <ele>48.537455</ele>
        <time>2022-12-19T12:50:06.335Z</time>
      </trkpt>
      <trkpt lat="46.36776" lon="-1.23111">
        <ele>48.523852</ele>
        <time>2022-12-19T12:50:09.347Z</time>
      </trkpt>
      <trkpt lat="46.3678" lon="-1.23096">
        <ele>48.511235</ele>
        <time>2022-12-19T12:50:12.339Z</time>
      </trkpt>
      <trkpt lat="46.36784" lon="-1.23082">
        <ele>48.499015</ele>
        <time>2022-12-19T12:50:15.341Z</time>
      </trkpt>
      <trkpt lat="46.36787" lon="-1.23067">
        <ele>48.485758</ele>
        <time>2022-12-19T12:50:18.388Z</time>
      </trkpt>
      <trkpt lat="46.36791" lon="-1.2305">
        <ele>48.471579</ele>
        <time>2022-12-19T12:50:21.339Z</time>
      </trkpt>
      <trkpt lat="46.36794" lon="-1.23032">
        <ele>48.456318</ele>
        <time>2022-12-19T12:50:24.346Z</time>
      </trkpt>
      <trkpt lat="46.36796" lon="-1.23013">
        <ele>48.440972</ele>
        <time>2022-12-19T12:50:27.327Z</time>
      </trkpt>
      <trkpt lat="46.36798" lon="-1.22994">
        <ele>48.425287</ele>
        <time>2022-12-19T12:50:30.346Z</time>
      </trkpt>
      <trkpt lat="46.36798" lon="-1.22981">
        <ele>48.414558</ele>
        <time>2022-12-19T12:50:32.349Z</time>
      </trkpt>
      <trkpt lat="46.36798" lon="-1.22967">
        <ele>48.403392</ele>
        <time>2022-12-19T12:50:34.346Z</time>
      </trkpt>
      <trkpt lat="46.36798" lon="-1.22953">
        <ele>48.391926</ele>
        <time>2022-12-19T12:50:36.341Z</time>
      </trkpt>
      <trkpt lat="46.36798" lon="-1.22939">
        <ele>48.380628</ele>
        <time>2022-12-19T12:50:38.341Z</time>
      </trkpt>
      <trkpt lat="46.36798" lon="-1.22925">
        <ele>48.337026</ele>
        <time>2022-12-19T12:50:40.343Z</time>
      </trkpt>
      <trkpt lat="46.36799" lon="-1.22911">
        <ele>48.28753</ele>
        <time>2022-12-19T12:50:42.345Z</time>
      </trkpt>
      <trkpt lat="46.36799" lon="-1.22897">
        <ele>48.237024</ele>
        <time>2022-12-19T12:50:44.344Z</time>
      </trkpt>
      <trkpt lat="46.36799" lon="-1.22882">
        <ele>48.186165</ele>
        <time>2022-12-19T12:50:46.347Z</time>
      </trkpt>
      <trkpt lat="46.36799" lon="-1.22868">
        <ele>48.134596</ele>
        <time>2022-12-19T12:50:48.349Z</time>
      </trkpt>
      <trkpt lat="46.368" lon="-1.22854">
        <ele>48.086277</ele>
        <time>2022-12-19T12:50:50.347Z</time>
      </trkpt>
      <trkpt lat="46.368" lon="-1.2284">
        <ele>48.037163</ele>
        <time>2022-12-19T12:50:52.396Z</time>
      </trkpt>
      <trkpt lat="46.368" lon="-1.22826">
        <ele>47.987667</ele>
        <time>2022-12-19T12:50:54.329Z</time>
      </trkpt>
      <trkpt lat="46.368" lon="-1.22812">
        <ele>47.938171</ele>
        <time>2022-12-19T12:50:56.345Z</time>
      </trkpt>
      <trkpt lat="46.368" lon="-1.22792">
        <ele>47.86977</ele>
        <time>2022-12-19T12:50:59.356Z</time>
      </trkpt>
      <trkpt lat="46.368" lon="-1.22779">
        <ele>47.82276</ele>
        <time>2022-12-19T12:51:01.359Z</time>
      </trkpt>
      <trkpt lat="46.36801" lon="-1.22765">
        <ele>47.774315</ele>
        <time>2022-12-19T12:51:03.347Z</time>
      </trkpt>
      <trkpt lat="46.36801" lon="-1.22752">
        <ele>47.728323</ele>
        <time>2022-12-19T12:51:05.356Z</time>
      </trkpt>
      <trkpt lat="46.36802" lon="-1.22733">
        <ele>47.661635</ele>
        <time>2022-12-19T12:51:08.349Z</time>
      </trkpt>
      <trkpt lat="46.36802" lon="-1.22719">
        <ele>47.613932</ele>
        <time>2022-12-19T12:51:10.401Z</time>
      </trkpt>
      <trkpt lat="46.36801" lon="-1.22706">
        <ele>47.565856</ele>
        <time>2022-12-19T12:51:12.343Z</time>
      </trkpt>
      <trkpt lat="46.36802" lon="-1.22686">
        <ele>47.49702</ele>
        <time>2022-12-19T12:51:15.346Z</time>
      </trkpt>
      <trkpt lat="46.36802" lon="-1.22673">
        <ele>47.465308</ele>
        <time>2022-12-19T12:51:17.358Z</time>
      </trkpt>
      <trkpt lat="46.36803" lon="-1.22659">
        <ele>47.467158</ele>
        <time>2022-12-19T12:51:19.346Z</time>
      </trkpt>
      <trkpt lat="46.36803" lon="-1.22644">
        <ele>47.469076</ele>
        <time>2022-12-19T12:51:21.346Z</time>
      </trkpt>
      <trkpt lat="46.36803" lon="-1.2263">
        <ele>47.470953</ele>
        <time>2022-12-19T12:51:23.327Z</time>
      </trkpt>
      <trkpt lat="46.36803" lon="-1.22616">
        <ele>47.472896</ele>
        <time>2022-12-19T12:51:25.345Z</time>
      </trkpt>
      <trkpt lat="46.36803" lon="-1.22602">
        <ele>47.474813</ele>
        <time>2022-12-19T12:51:27.348Z</time>
      </trkpt>
      <trkpt lat="46.36804" lon="-1.22588">
        <ele>47.476654</ele>
        <time>2022-12-19T12:51:29.330Z</time>
      </trkpt>
      <trkpt lat="46.36804" lon="-1.22575">
        <ele>47.478423</ele>
        <time>2022-12-19T12:51:31.342Z</time>
      </trkpt>
      <trkpt lat="46.36803" lon="-1.22556">
        <ele>47.480875</ele>
        <time>2022-12-19T12:51:34.417Z</time>
      </trkpt>
      <trkpt lat="46.36804" lon="-1.22539">
        <ele>47.483194</ele>
        <time>2022-12-19T12:51:37.347Z</time>
      </trkpt>
      <trkpt lat="46.36804" lon="-1.22521">
        <ele>47.485633</ele>
        <time>2022-12-19T12:51:40.408Z</time>
      </trkpt>
      <trkpt lat="46.36804" lon="-1.22508">
        <ele>47.487388</ele>
        <time>2022-12-19T12:51:42.349Z</time>
      </trkpt>
      <trkpt lat="46.36804" lon="-1.22494">
        <ele>47.489198</ele>
        <time>2022-12-19T12:51:44.332Z</time>
      </trkpt>
      <trkpt lat="46.36805" lon="-1.22476">
        <ele>47.491661</ele>
        <time>2022-12-19T12:51:47.344Z</time>
      </trkpt>
      <trkpt lat="46.36806" lon="-1.22457">
        <ele>47.494226</ele>
        <time>2022-12-19T12:51:50.346Z</time>
      </trkpt>
      <trkpt lat="46.36806" lon="-1.22443">
        <ele>47.49609</ele>
        <time>2022-12-19T12:51:52.331Z</time>
      </trkpt>
      <trkpt lat="46.36806" lon="-1.22428">
        <ele>47.49806</ele>
        <time>2022-12-19T12:51:54.347Z</time>
      </trkpt>
      <trkpt lat="46.36806" lon="-1.22415">
        <ele>47.504853</ele>
        <time>2022-12-19T12:51:56.347Z</time>
      </trkpt>
      <trkpt lat="46.36806" lon="-1.224">
        <ele>47.544767</ele>
        <time>2022-12-19T12:51:58.345Z</time>
      </trkpt>
      <trkpt lat="46.36806" lon="-1.22386">
        <ele>47.58412</ele>
        <time>2022-12-19T12:52:00.350Z</time>
      </trkpt>
      <trkpt lat="46.36806" lon="-1.22372">
        <ele>47.624362</ele>
        <time>2022-12-19T12:52:02.350Z</time>
      </trkpt>
      <trkpt lat="46.36807" lon="-1.22358">
        <ele>47.663292</ele>
        <time>2022-12-19T12:52:04.357Z</time>
      </trkpt>
      <trkpt lat="46.36807" lon="-1.22343">
        <ele>47.704059</ele>
        <time>2022-12-19T12:52:06.346Z</time>
      </trkpt>
      <trkpt lat="46.36807" lon="-1.22329">
        <ele>47.743136</ele>
        <time>2022-12-19T12:52:08.349Z</time>
      </trkpt>
      <trkpt lat="46.36808" lon="-1.22315">
        <ele>47.784013</ele>
        <time>2022-12-19T12:52:10.348Z</time>
      </trkpt>
      <trkpt lat="46.36808" lon="-1.223">
        <ele>47.825049</ele>
        <time>2022-12-19T12:52:12.347Z</time>
      </trkpt>
      <trkpt lat="46.36808" lon="-1.22287">
        <ele>47.861611</ele>
        <time>2022-12-19T12:52:14.348Z</time>
      </trkpt>
      <trkpt lat="46.36809" lon="-1.22268">
        <ele>47.914401</ele>
        <time>2022-12-19T12:52:17.345Z</time>
      </trkpt>
      <trkpt lat="46.36809" lon="-1.2225">
        <ele>47.965762</ele>
        <time>2022-12-19T12:52:20.348Z</time>
      </trkpt>
      <trkpt lat="46.36809" lon="-1.22231">
        <ele>48.017435</ele>
        <time>2022-12-19T12:52:23.344Z</time>
      </trkpt>
      <trkpt lat="46.36809" lon="-1.22212">
        <ele>48.071587</ele>
        <time>2022-12-19T12:52:26.348Z</time>
      </trkpt>
      <trkpt lat="46.3681" lon="-1.22198">
        <ele>48.109007</ele>
        <time>2022-12-19T12:52:28.346Z</time>
      </trkpt>
      <trkpt lat="46.36809" lon="-1.22185">
        <ele>48.145868</ele>
        <time>2022-12-19T12:52:30.351Z</time>
      </trkpt>
      <trkpt lat="46.3681" lon="-1.22166">
        <ele>48.200626</ele>
        <time>2022-12-19T12:52:33.403Z</time>
      </trkpt>
      <trkpt lat="46.3681" lon="-1.22152">
        <ele>48.245459</ele>
        <time>2022-12-19T12:52:35.346Z</time>
      </trkpt>
      <trkpt lat="46.3681" lon="-1.22138">
        <ele>48.307837</ele>
        <time>2022-12-19T12:52:37.347Z</time>
      </trkpt>
      <trkpt lat="46.3681" lon="-1.22124">
        <ele>48.366776</ele>
        <time>2022-12-19T12:52:39.397Z</time>
      </trkpt>
      <trkpt lat="46.3681" lon="-1.2211">
        <ele>48.426536</ele>
        <time>2022-12-19T12:52:41.346Z</time>
      </trkpt>
      <trkpt lat="46.3681" lon="-1.22097">
        <ele>48.484604</ele>
        <time>2022-12-19T12:52:43.350Z</time>
      </trkpt>
      <trkpt lat="46.36811" lon="-1.22078">
        <ele>48.567917</ele>
        <time>2022-12-19T12:52:46.348Z</time>
      </trkpt>
      <trkpt lat="46.36811" lon="-1.22059">
        <ele>48.650039</ele>
        <time>2022-12-19T12:52:49.349Z</time>
      </trkpt>
      <trkpt lat="46.36811" lon="-1.22046">
        <ele>48.708978</ele>
        <time>2022-12-19T12:52:51.408Z</time>
      </trkpt>
      <trkpt lat="46.36811" lon="-1.22026">
        <ele>48.794491</ele>
        <time>2022-12-19T12:52:54.352Z</time>
      </trkpt>
      <trkpt lat="46.36811" lon="-1.22012">
        <ele>48.856458</ele>
        <time>2022-12-19T12:52:56.346Z</time>
      </trkpt>
      <trkpt lat="46.36812" lon="-1.21998">
        <ele>48.917989</ele>
        <time>2022-12-19T12:52:58.340Z</time>
      </trkpt>
      <trkpt lat="46.36812" lon="-1.21983">
        <ele>48.980812</ele>
        <time>2022-12-19T12:53:00.360Z</time>
      </trkpt>
      <trkpt lat="46.36812" lon="-1.21969">
        <ele>49.041881</ele>
        <time>2022-12-19T12:53:02.347Z</time>
      </trkpt>
      <trkpt lat="46.36812" lon="-1.21956">
        <ele>49.10082</ele>
        <time>2022-12-19T12:53:04.345Z</time>
      </trkpt>
      <trkpt lat="46.36813" lon="-1.21942">
        <ele>49.159354</ele>
        <time>2022-12-19T12:53:06.347Z</time>
      </trkpt>
      <trkpt lat="46.36813" lon="-1.21926">
        <ele>49.232658</ele>
        <time>2022-12-19T12:53:09.395Z</time>
      </trkpt>
      <trkpt lat="46.36814" lon="-1.21907">
        <ele>49.31351</ele>
        <time>2022-12-19T12:53:12.345Z</time>
      </trkpt>
      <trkpt lat="46.36815" lon="-1.21889">
        <ele>49.328593</ele>
        <time>2022-12-19T12:53:15.323Z</time>
      </trkpt>
      <trkpt lat="46.36815" lon="-1.21869">
        <ele>49.228214</ele>
        <time>2022-12-19T12:53:18.327Z</time>
      </trkpt>
      <trkpt lat="46.36816" lon="-1.21856">
        <ele>49.15887</ele>
        <time>2022-12-19T12:53:20.333Z</time>
      </trkpt>
      <trkpt lat="46.36817" lon="-1.21842">
        <ele>49.0843</ele>
        <time>2022-12-19T12:53:22.333Z</time>
      </trkpt>
      <trkpt lat="46.36819" lon="-1.21828">
        <ele>49.009614</ele>
        <time>2022-12-19T12:53:24.349Z</time>
      </trkpt>
      <trkpt lat="46.36821" lon="-1.21814">
        <ele>48.937113</ele>
        <time>2022-12-19T12:53:26.335Z</time>
      </trkpt>
      <trkpt lat="46.36824" lon="-1.218">
        <ele>48.862437</ele>
        <time>2022-12-19T12:53:28.335Z</time>
      </trkpt>
      <trkpt lat="46.36827" lon="-1.21787">
        <ele>48.790914</ele>
        <time>2022-12-19T12:53:30.339Z</time>
      </trkpt>
      <trkpt lat="46.36831" lon="-1.21775">
        <ele>48.7221</ele>
        <time>2022-12-19T12:53:32.350Z</time>
      </trkpt>
      <trkpt lat="46.36835" lon="-1.21763">
        <ele>48.650996</ele>
        <time>2022-12-19T12:53:34.346Z</time>
      </trkpt>
      <trkpt lat="46.36841" lon="-1.21752">
        <ele>48.579107</ele>
        <time>2022-12-19T12:53:36.329Z</time>
      </trkpt>
      <trkpt lat="46.36846" lon="-1.2174">
        <ele>48.506363</ele>
        <time>2022-12-19T12:53:38.327Z</time>
      </trkpt>
      <trkpt lat="46.36852" lon="-1.21729">
        <ele>48.431054</ele>
        <time>2022-12-19T12:53:40.325Z</time>
      </trkpt>
      <trkpt lat="46.36857" lon="-1.21716">
        <ele>48.353984</ele>
        <time>2022-12-19T12:53:42.402Z</time>
      </trkpt>
      <trkpt lat="46.36863" lon="-1.21704">
        <ele>48.278676</ele>
        <time>2022-12-19T12:53:44.351Z</time>
      </trkpt>
      <trkpt lat="46.36869" lon="-1.21691">
        <ele>48.199446</ele>
        <time>2022-12-19T12:53:46.333Z</time>
      </trkpt>
      <trkpt lat="46.36874" lon="-1.21678">
        <ele>48.121842</ele>
        <time>2022-12-19T12:53:48.399Z</time>
      </trkpt>
      <trkpt lat="46.3688" lon="-1.21666">
        <ele>48.043952</ele>
        <time>2022-12-19T12:53:50.349Z</time>
      </trkpt>
      <trkpt lat="46.36886" lon="-1.21654">
        <ele>48.043525</ele>
        <time>2022-12-19T12:53:52.346Z</time>
      </trkpt>
      <trkpt lat="46.36891" lon="-1.2164">
        <ele>48.109739</ele>
        <time>2022-12-19T12:53:54.405Z</time>
      </trkpt>
      <trkpt lat="46.36896" lon="-1.21627">
        <ele>48.174793</ele>
        <time>2022-12-19T12:53:56.350Z</time>
      </trkpt>
      <trkpt lat="46.36901" lon="-1.21614">
        <ele>48.239462</ele>
        <time>2022-12-19T12:53:58.355Z</time>
      </trkpt>
      <trkpt lat="46.36907" lon="-1.216">
        <ele>48.306862</ele>
        <time>2022-12-19T12:54:00.397Z</time>
      </trkpt>
      <trkpt lat="46.36912" lon="-1.21587">
        <ele>48.370175</ele>
        <time>2022-12-19T12:54:02.344Z</time>
      </trkpt>
      <trkpt lat="46.36916" lon="-1.21574">
        <ele>48.433431</ele>
        <time>2022-12-19T12:54:04.346Z</time>
      </trkpt>
      <trkpt lat="46.36921" lon="-1.21561">
        <ele>48.497557</ele>
        <time>2022-12-19T12:54:06.423Z</time>
      </trkpt>
      <trkpt lat="46.36926" lon="-1.21547">
        <ele>48.561675</ele>
        <time>2022-12-19T12:54:08.345Z</time>
      </trkpt>
      <trkpt lat="46.36931" lon="-1.21533">
        <ele>48.628933</ele>
        <time>2022-12-19T12:54:10.349Z</time>
      </trkpt>
      <trkpt lat="46.36936" lon="-1.21519">
        <ele>48.697307</ele>
        <time>2022-12-19T12:54:12.382Z</time>
      </trkpt>
      <trkpt lat="46.36941" lon="-1.21505">
        <ele>48.764349</ele>
        <time>2022-12-19T12:54:14.320Z</time>
      </trkpt>
      <trkpt lat="46.36946" lon="-1.21491">
        <ele>48.829615</ele>
        <time>2022-12-19T12:54:16.327Z</time>
      </trkpt>
      <trkpt lat="46.36951" lon="-1.21478">
        <ele>48.893155</ele>
        <time>2022-12-19T12:54:18.391Z</time>
      </trkpt>
      <trkpt lat="46.36955" lon="-1.21466">
        <ele>48.951025</ele>
        <time>2022-12-19T12:54:20.348Z</time>
      </trkpt>
      <trkpt lat="46.36959" lon="-1.21452">
        <ele>49.015119</ele>
        <time>2022-12-19T12:54:22.342Z</time>
      </trkpt>
      <trkpt lat="46.36964" lon="-1.2144">
        <ele>49.076017</ele>
        <time>2022-12-19T12:54:24.348Z</time>
      </trkpt>
      <trkpt lat="46.36969" lon="-1.21426">
        <ele>49.121479</ele>
        <time>2022-12-19T12:54:26.349Z</time>
      </trkpt>
      <trkpt lat="46.36973" lon="-1.21413">
        <ele>49.128193</ele>
        <time>2022-12-19T12:54:28.331Z</time>
      </trkpt>
      <trkpt lat="46.36978" lon="-1.214">
        <ele>49.135023</ele>
        <time>2022-12-19T12:54:30.348Z</time>
      </trkpt>
      <trkpt lat="46.36982" lon="-1.21388">
        <ele>49.141543</ele>
        <time>2022-12-19T12:54:32.346Z</time>
      </trkpt>
      <trkpt lat="46.36986" lon="-1.21375">
        <ele>49.148309</ele>
        <time>2022-12-19T12:54:34.348Z</time>
      </trkpt>
      <trkpt lat="46.36991" lon="-1.21362">
        <ele>49.155011</ele>
        <time>2022-12-19T12:54:36.349Z</time>
      </trkpt>
      <trkpt lat="46.36995" lon="-1.21349">
        <ele>49.161717</ele>
        <time>2022-12-19T12:54:38.354Z</time>
      </trkpt>
      <trkpt lat="46.37" lon="-1.21337">
        <ele>49.168334</ele>
        <time>2022-12-19T12:54:40.348Z</time>
      </trkpt>
      <trkpt lat="46.37004" lon="-1.21323">
        <ele>49.175249</ele>
        <time>2022-12-19T12:54:42.346Z</time>
      </trkpt>
      <trkpt lat="46.37009" lon="-1.2131">
        <ele>49.182109</ele>
        <time>2022-12-19T12:54:44.345Z</time>
      </trkpt>
      <trkpt lat="46.37013" lon="-1.21296">
        <ele>49.189057</ele>
        <time>2022-12-19T12:54:46.347Z</time>
      </trkpt>
      <trkpt lat="46.37017" lon="-1.21282">
        <ele>49.196298</ele>
        <time>2022-12-19T12:54:48.347Z</time>
      </trkpt>
      <trkpt lat="46.37021" lon="-1.21267">
        <ele>49.203505</ele>
        <time>2022-12-19T12:54:50.343Z</time>
      </trkpt>
      <trkpt lat="46.37024" lon="-1.21253">
        <ele>49.210445</ele>
        <time>2022-12-19T12:54:52.394Z</time>
      </trkpt>
      <trkpt lat="46.37027" lon="-1.21238">
        <ele>49.217804</ele>
        <time>2022-12-19T12:54:54.344Z</time>
      </trkpt>
      <trkpt lat="46.3703" lon="-1.21224">
        <ele>49.224704</ele>
        <time>2022-12-19T12:54:56.344Z</time>
      </trkpt>
      <trkpt lat="46.37033" lon="-1.21211">
        <ele>49.231118</ele>
        <time>2022-12-19T12:54:58.413Z</time>
      </trkpt>
      <trkpt lat="46.37036" lon="-1.21193">
        <ele>49.239504</ele>
        <time>2022-12-19T12:55:01.347Z</time>
      </trkpt>
      <trkpt lat="46.37039" lon="-1.21176">
        <ele>49.086691</ele>
        <time>2022-12-19T12:55:04.422Z</time>
      </trkpt>
      <trkpt lat="46.37043" lon="-1.21157">
        <ele>48.898984</ele>
        <time>2022-12-19T12:55:07.347Z</time>
      </trkpt>
      <trkpt lat="46.37046" lon="-1.21139">
        <ele>48.710334</ele>
        <time>2022-12-19T12:55:10.402Z</time>
      </trkpt>
      <trkpt lat="46.37049" lon="-1.21121">
        <ele>48.527145</ele>
        <time>2022-12-19T12:55:13.349Z</time>
      </trkpt>
      <trkpt lat="46.37052" lon="-1.21108">
        <ele>48.396032</ele>
        <time>2022-12-19T12:55:15.347Z</time>
      </trkpt>
      <trkpt lat="46.37054" lon="-1.21094">
        <ele>48.260203</ele>
        <time>2022-12-19T12:55:17.350Z</time>
      </trkpt>
      <trkpt lat="46.37058" lon="-1.21076">
        <ele>48.071678</ele>
        <time>2022-12-19T12:55:20.345Z</time>
      </trkpt>
      <trkpt lat="46.3706" lon="-1.21063">
        <ele>47.937989</ele>
        <time>2022-12-19T12:55:22.403Z</time>
      </trkpt>
      <trkpt lat="46.37063" lon="-1.21049">
        <ele>47.800628</ele>
        <time>2022-12-19T12:55:24.347Z</time>
      </trkpt>
      <trkpt lat="46.37066" lon="-1.21037">
        <ele>47.67203</ele>
        <time>2022-12-19T12:55:26.357Z</time>
      </trkpt>
      <trkpt lat="46.37069" lon="-1.21017">
        <ele>47.476222</ele>
        <time>2022-12-19T12:55:29.352Z</time>
      </trkpt>
      <trkpt lat="46.37071" lon="-1.21004">
        <ele>47.344315</ele>
        <time>2022-12-19T12:55:31.348Z</time>
      </trkpt>
      <trkpt lat="46.37074" lon="-1.20991">
        <ele>47.211873</ele>
        <time>2022-12-19T12:55:33.361Z</time>
      </trkpt>
      <trkpt lat="46.37077" lon="-1.20978">
        <ele>47.075808</ele>
        <time>2022-12-19T12:55:35.334Z</time>
      </trkpt>
      <trkpt lat="46.3708" lon="-1.20959">
        <ele>46.889418</ele>
        <time>2022-12-19T12:55:38.349Z</time>
      </trkpt>
      <trkpt lat="46.37083" lon="-1.20943">
        <ele>46.719824</ele>
        <time>2022-12-19T12:55:41.347Z</time>
      </trkpt>
      <trkpt lat="46.37087" lon="-1.20928">
        <ele>46.617384</ele>
        <time>2022-12-19T12:55:44.333Z</time>
      </trkpt>
      <trkpt lat="46.3709" lon="-1.20915">
        <ele>46.539576</ele>
        <time>2022-12-19T12:55:47.347Z</time>
      </trkpt>
      <trkpt lat="46.37091" lon="-1.20903">
        <ele>46.467595</ele>
        <time>2022-12-19T12:56:24.979Z</time>
      </trkpt>
      <trkpt lat="46.37091" lon="-1.20905">
        <ele>46.455423</ele>
        <time>2022-12-19T13:10:21.338Z</time>
      </trkpt>
      <trkpt lat="46.37097" lon="-1.20889">
        <ele>46.349757</ele>
        <time>2022-12-19T13:10:38.342Z</time>
      </trkpt>
      <trkpt lat="46.37101" lon="-1.20877">
        <ele>46.271641</ele>
        <time>2022-12-19T13:10:42.336Z</time>
      </trkpt>
      <trkpt lat="46.37107" lon="-1.20862">
        <ele>46.170641</ele>
        <time>2022-12-19T13:10:46.341Z</time>
      </trkpt>
      <trkpt lat="46.37111" lon="-1.20849">
        <ele>46.089037</ele>
        <time>2022-12-19T13:10:49.352Z</time>
      </trkpt>
      <trkpt lat="46.37118" lon="-1.20837">
        <ele>46.002097</ele>
        <time>2022-12-19T13:10:52.330Z</time>
      </trkpt>
      <trkpt lat="46.37124" lon="-1.20824">
        <ele>45.909045</ele>
        <time>2022-12-19T13:10:55.345Z</time>
      </trkpt>
      <trkpt lat="46.3713" lon="-1.2081">
        <ele>45.812666</ele>
        <time>2022-12-19T13:10:58.332Z</time>
      </trkpt>
      <trkpt lat="46.37137" lon="-1.20796">
        <ele>45.712384</ele>
        <time>2022-12-19T13:11:01.350Z</time>
      </trkpt>
      <trkpt lat="46.37145" lon="-1.20782">
        <ele>45.60627</ele>
        <time>2022-12-19T13:11:04.326Z</time>
      </trkpt>
      <trkpt lat="46.37153" lon="-1.20767">
        <ele>45.502197</ele>
        <time>2022-12-19T13:11:07.338Z</time>
      </trkpt>
      <trkpt lat="46.37161" lon="-1.20753">
        <ele>45.395938</ele>
        <time>2022-12-19T13:11:10.340Z</time>
      </trkpt>
      <trkpt lat="46.37169" lon="-1.20739">
        <ele>45.287625</ele>
        <time>2022-12-19T13:11:13.341Z</time>
      </trkpt>
      <trkpt lat="46.37178" lon="-1.20725">
        <ele>45.181124</ele>
        <time>2022-12-19T13:11:16.344Z</time>
      </trkpt>
      <trkpt lat="46.37186" lon="-1.20712">
        <ele>45.201584</ele>
        <time>2022-12-19T13:11:19.348Z</time>
      </trkpt>
      <trkpt lat="46.37195" lon="-1.20698">
        <ele>45.225226</ele>
        <time>2022-12-19T13:11:22.347Z</time>
      </trkpt>
      <trkpt lat="46.37201" lon="-1.20688">
        <ele>45.241638</ele>
        <time>2022-12-19T13:11:24.348Z</time>
      </trkpt>
      <trkpt lat="46.37209" lon="-1.20674">
        <ele>45.265374</ele>
        <time>2022-12-19T13:11:27.346Z</time>
      </trkpt>
      <trkpt lat="46.37218" lon="-1.20659">
        <ele>45.289043</ele>
        <time>2022-12-19T13:11:30.344Z</time>
      </trkpt>
      <trkpt lat="46.37227" lon="-1.20645">
        <ele>45.313452</ele>
        <time>2022-12-19T13:11:33.348Z</time>
      </trkpt>
      <trkpt lat="46.37235" lon="-1.2063">
        <ele>45.337878</ele>
        <time>2022-12-19T13:11:36.363Z</time>
      </trkpt>
      <trkpt lat="46.37241" lon="-1.2062">
        <ele>45.354407</ele>
        <time>2022-12-19T13:11:38.346Z</time>
      </trkpt>
      <trkpt lat="46.37247" lon="-1.2061">
        <ele>45.371175</ele>
        <time>2022-12-19T13:11:40.348Z</time>
      </trkpt>
      <trkpt lat="46.37253" lon="-1.206">
        <ele>45.387665</ele>
        <time>2022-12-19T13:11:42.349Z</time>
      </trkpt>
      <trkpt lat="46.3726" lon="-1.2059">
        <ele>45.404833</ele>
        <time>2022-12-19T13:11:44.349Z</time>
      </trkpt>
      <trkpt lat="46.37266" lon="-1.20579">
        <ele>45.422057</ele>
        <time>2022-12-19T13:11:46.333Z</time>
      </trkpt>
      <trkpt lat="46.37272" lon="-1.20568">
        <ele>45.440211</ele>
        <time>2022-12-19T13:11:48.350Z</time>
      </trkpt>
      <trkpt lat="46.37279" lon="-1.20557">
        <ele>45.458363</ele>
        <time>2022-12-19T13:11:50.347Z</time>
      </trkpt>
      <trkpt lat="46.37285" lon="-1.20547">
        <ele>45.475131</ele>
        <time>2022-12-19T13:11:52.350Z</time>
      </trkpt>
      <trkpt lat="46.37291" lon="-1.20537">
        <ele>45.492667</ele>
        <time>2022-12-19T13:11:54.360Z</time>
      </trkpt>
      <trkpt lat="46.37298" lon="-1.20527">
        <ele>45.528457</ele>
        <time>2022-12-19T13:11:56.347Z</time>
      </trkpt>
      <trkpt lat="46.37304" lon="-1.20516">
        <ele>45.620953</ele>
        <time>2022-12-19T13:11:58.336Z</time>
      </trkpt>
      <trkpt lat="46.3731" lon="-1.20506">
        <ele>45.71146</ele>
        <time>2022-12-19T13:12:00.334Z</time>
      </trkpt>
      <trkpt lat="46.37319" lon="-1.20493">
        <ele>45.831658</ele>
        <time>2022-12-19T13:12:03.332Z</time>
      </trkpt>
      <trkpt lat="46.37328" lon="-1.20479">
        <ele>45.959413</ele>
        <time>2022-12-19T13:12:06.347Z</time>
      </trkpt>
      <trkpt lat="46.37338" lon="-1.20465">
        <ele>46.089215</ele>
        <time>2022-12-19T13:12:09.349Z</time>
      </trkpt>
      <trkpt lat="46.37345" lon="-1.20457">
        <ele>46.177326</ele>
        <time>2022-12-19T13:12:11.349Z</time>
      </trkpt>
      <trkpt lat="46.37352" lon="-1.20447">
        <ele>46.272741</ele>
        <time>2022-12-19T13:12:13.331Z</time>
      </trkpt>
      <trkpt lat="46.3736" lon="-1.20438">
        <ele>46.366803</ele>
        <time>2022-12-19T13:12:15.347Z</time>
      </trkpt>
      <trkpt lat="46.37368" lon="-1.2043">
        <ele>46.462392</ele>
        <time>2022-12-19T13:12:17.342Z</time>
      </trkpt>
      <trkpt lat="46.37375" lon="-1.20423">
        <ele>46.55078</ele>
        <time>2022-12-19T13:12:19.338Z</time>
      </trkpt>
      <trkpt lat="46.37387" lon="-1.20412">
        <ele>46.679853</ele>
        <time>2022-12-19T13:12:22.339Z</time>
      </trkpt>
      <trkpt lat="46.37399" lon="-1.20403">
        <ele>46.809172</ele>
        <time>2022-12-19T13:12:25.337Z</time>
      </trkpt>
      <trkpt lat="46.37407" lon="-1.20398">
        <ele>46.898814</ele>
        <time>2022-12-19T13:12:27.329Z</time>
      </trkpt>
      <trkpt lat="46.37416" lon="-1.20391">
        <ele>46.996563</ele>
        <time>2022-12-19T13:12:29.348Z</time>
      </trkpt>
      <trkpt lat="46.37425" lon="-1.20387">
        <ele>47.088985</ele>
        <time>2022-12-19T13:12:31.333Z</time>
      </trkpt>
      <trkpt lat="46.37435" lon="-1.20383">
        <ele>47.181914</ele>
        <time>2022-12-19T13:12:33.335Z</time>
      </trkpt>
      <trkpt lat="46.37443" lon="-1.20378">
        <ele>47.254206</ele>
        <time>2022-12-19T13:12:35.343Z</time>
      </trkpt>
      <trkpt lat="46.37456" lon="-1.20372">
        <ele>47.32229</ele>
        <time>2022-12-19T13:12:38.358Z</time>
      </trkpt>
      <trkpt lat="46.37465" lon="-1.20369">
        <ele>47.367186</ele>
        <time>2022-12-19T13:12:40.330Z</time>
      </trkpt>
      <trkpt lat="46.37477" lon="-1.20366">
        <ele>47.428804</ele>
        <time>2022-12-19T13:12:43.349Z</time>
      </trkpt>
      <trkpt lat="46.37487" lon="-1.20363">
        <ele>47.480515</ele>
        <time>2022-12-19T13:12:47.350Z</time>
      </trkpt>
      <trkpt lat="46.37501" lon="-1.20361">
        <ele>47.547847</ele>
        <time>2022-12-19T13:14:19.331Z</time>
      </trkpt>
      <trkpt lat="46.3751" lon="-1.2036">
        <ele>47.594078</ele>
        <time>2022-12-19T13:14:22.351Z</time>
      </trkpt>
      <trkpt lat="46.37521" lon="-1.20357">
        <ele>47.649524</ele>
        <time>2022-12-19T13:14:25.337Z</time>
      </trkpt>
      <trkpt lat="46.37533" lon="-1.20355">
        <ele>47.711952</ele>
        <time>2022-12-19T13:14:28.349Z</time>
      </trkpt>
      <trkpt lat="46.37546" lon="-1.20353">
        <ele>47.777685</ele>
        <time>2022-12-19T13:14:31.332Z</time>
      </trkpt>
      <trkpt lat="46.3756" lon="-1.20351">
        <ele>47.845161</ele>
        <time>2022-12-19T13:14:34.360Z</time>
      </trkpt>
      <trkpt lat="46.37569" lon="-1.2035">
        <ele>47.892601</ele>
        <time>2022-12-19T13:14:36.350Z</time>
      </trkpt>
      <trkpt lat="46.37579" lon="-1.20348">
        <ele>47.942238</ele>
        <time>2022-12-19T13:14:38.346Z</time>
      </trkpt>
      <trkpt lat="46.37589" lon="-1.20347">
        <ele>47.992541</ele>
        <time>2022-12-19T13:14:40.336Z</time>
      </trkpt>
      <trkpt lat="46.37599" lon="-1.20346">
        <ele>48.040655</ele>
        <time>2022-12-19T13:14:42.350Z</time>
      </trkpt>
      <trkpt lat="46.37609" lon="-1.20344">
        <ele>48.090669</ele>
        <time>2022-12-19T13:14:44.345Z</time>
      </trkpt>
      <trkpt lat="46.37619" lon="-1.20343">
        <ele>48.120738</ele>
        <time>2022-12-19T13:14:46.349Z</time>
      </trkpt>
      <trkpt lat="46.37629" lon="-1.20341">
        <ele>48.002238</ele>
        <time>2022-12-19T13:14:48.359Z</time>
      </trkpt>
      <trkpt lat="46.37638" lon="-1.2034">
        <ele>47.88697</ele>
        <time>2022-12-19T13:14:50.331Z</time>
      </trkpt>
      <trkpt lat="46.37649" lon="-1.20338">
        <ele>47.762606</ele>
        <time>2022-12-19T13:14:52.329Z</time>
      </trkpt>
      <trkpt lat="46.3766" lon="-1.20336">
        <ele>47.6369</ele>
        <time>2022-12-19T13:14:54.344Z</time>
      </trkpt>
      <trkpt lat="46.37671" lon="-1.20335">
        <ele>47.506812</ele>
        <time>2022-12-19T13:14:56.348Z</time>
      </trkpt>
      <trkpt lat="46.37681" lon="-1.20333">
        <ele>47.381015</ele>
        <time>2022-12-19T13:14:58.345Z</time>
      </trkpt>
      <trkpt lat="46.37692" lon="-1.20332">
        <ele>47.252165</ele>
        <time>2022-12-19T13:15:00.351Z</time>
      </trkpt>
      <trkpt lat="46.37703" lon="-1.20331">
        <ele>47.125455</ele>
        <time>2022-12-19T13:15:02.335Z</time>
      </trkpt>
      <trkpt lat="46.37713" lon="-1.2033">
        <ele>47.007304</ele>
        <time>2022-12-19T13:15:04.347Z</time>
      </trkpt>
      <trkpt lat="46.37722" lon="-1.20327">
        <ele>46.891701</ele>
        <time>2022-12-19T13:15:06.368Z</time>
      </trkpt>
      <trkpt lat="46.37732" lon="-1.20326">
        <ele>46.777602</ele>
        <time>2022-12-19T13:15:08.352Z</time>
      </trkpt>
      <trkpt lat="46.37742" lon="-1.20324">
        <ele>46.660187</ele>
        <time>2022-12-19T13:15:10.348Z</time>
      </trkpt>
      <trkpt lat="46.37752" lon="-1.20323">
        <ele>46.546375</ele>
        <time>2022-12-19T13:15:12.346Z</time>
      </trkpt>
      <trkpt lat="46.37762" lon="-1.20321">
        <ele>46.427875</ele>
        <time>2022-12-19T13:15:14.348Z</time>
      </trkpt>
      <trkpt lat="46.37772" lon="-1.20319">
        <ele>46.304601</ele>
        <time>2022-12-19T13:15:16.347Z</time>
      </trkpt>
      <trkpt lat="46.37782" lon="-1.20317">
        <ele>46.183166</ele>
        <time>2022-12-19T13:15:18.347Z</time>
      </trkpt>
      <trkpt lat="46.37793" lon="-1.20316">
        <ele>46.058632</ele>
        <time>2022-12-19T13:15:20.349Z</time>
      </trkpt>
      <trkpt lat="46.37803" lon="-1.20314">
        <ele>45.96565</ele>
        <time>2022-12-19T13:15:22.340Z</time>
      </trkpt>
      <trkpt lat="46.37814" lon="-1.20313">
        <ele>45.886878</ele>
        <time>2022-12-19T13:15:24.340Z</time>
      </trkpt>
      <trkpt lat="46.37825" lon="-1.20311">
        <ele>45.813382</ele>
        <time>2022-12-19T13:15:26.342Z</time>
      </trkpt>
      <trkpt lat="46.37836" lon="-1.2031">
        <ele>45.738144</ele>
        <time>2022-12-19T13:15:28.346Z</time>
      </trkpt>
      <trkpt lat="46.37847" lon="-1.20308">
        <ele>45.659071</ele>
        <time>2022-12-19T13:15:30.349Z</time>
      </trkpt>
      <trkpt lat="46.37859" lon="-1.20306">
        <ele>45.575813</ele>
        <time>2022-12-19T13:15:32.348Z</time>
      </trkpt>
      <trkpt lat="46.3787" lon="-1.20305">
        <ele>45.492603</ele>
        <time>2022-12-19T13:15:34.343Z</time>
      </trkpt>
      <trkpt lat="46.37882" lon="-1.20303">
        <ele>45.409345</ele>
        <time>2022-12-19T13:15:36.346Z</time>
      </trkpt>
      <trkpt lat="46.37894" lon="-1.20301">
        <ele>45.326086</ele>
        <time>2022-12-19T13:15:38.347Z</time>
      </trkpt>
      <trkpt lat="46.37905" lon="-1.20299">
        <ele>45.246776</ele>
        <time>2022-12-19T13:15:40.347Z</time>
      </trkpt>
      <trkpt lat="46.37916" lon="-1.20298">
        <ele>45.17372</ele>
        <time>2022-12-19T13:15:42.350Z</time>
      </trkpt>
      <trkpt lat="46.37925" lon="-1.20296">
        <ele>45.10344</ele>
        <time>2022-12-19T13:15:44.345Z</time>
      </trkpt>
      <trkpt lat="46.37935" lon="-1.20294">
        <ele>45.03406</ele>
        <time>2022-12-19T13:15:46.349Z</time>
      </trkpt>
      <trkpt lat="46.37945" lon="-1.20293">
        <ele>44.963515</ele>
        <time>2022-12-19T13:15:48.343Z</time>
      </trkpt>
      <trkpt lat="46.37956" lon="-1.20291">
        <ele>44.887336</ele>
        <time>2022-12-19T13:15:50.346Z</time>
      </trkpt>
      <trkpt lat="46.37966" lon="-1.2029">
        <ele>44.814164</ele>
        <time>2022-12-19T13:15:52.346Z</time>
      </trkpt>
      <trkpt lat="46.37978" lon="-1.20288">
        <ele>44.736797</ele>
        <time>2022-12-19T13:15:54.351Z</time>
      </trkpt>
      <trkpt lat="46.37989" lon="-1.20287">
        <ele>44.662514</ele>
        <time>2022-12-19T13:15:56.324Z</time>
      </trkpt>
      <trkpt lat="46.38" lon="-1.20285">
        <ele>44.589648</ele>
        <time>2022-12-19T13:15:58.349Z</time>
      </trkpt>
      <trkpt lat="46.38011" lon="-1.20283">
        <ele>44.513049</ele>
        <time>2022-12-19T13:16:00.346Z</time>
      </trkpt>
      <trkpt lat="46.38022" lon="-1.20282">
        <ele>44.439791</ele>
        <time>2022-12-19T13:16:02.330Z</time>
      </trkpt>
      <trkpt lat="46.38034" lon="-1.2028">
        <ele>44.359455</ele>
        <time>2022-12-19T13:16:04.332Z</time>
      </trkpt>
      <trkpt lat="46.38046" lon="-1.20279">
        <ele>44.279372</ele>
        <time>2022-12-19T13:16:06.348Z</time>
      </trkpt>
      <trkpt lat="46.38058" lon="-1.20277">
        <ele>44.197713</ele>
        <time>2022-12-19T13:16:08.348Z</time>
      </trkpt>
      <trkpt lat="46.3807" lon="-1.20275">
        <ele>44.116763</ele>
        <time>2022-12-19T13:16:10.346Z</time>
      </trkpt>
      <trkpt lat="46.38082" lon="-1.20274">
        <ele>44.040396</ele>
        <time>2022-12-19T13:16:12.347Z</time>
      </trkpt>
      <trkpt lat="46.38094" lon="-1.20271">
        <ele>43.959779</ele>
        <time>2022-12-19T13:16:14.348Z</time>
      </trkpt>
      <trkpt lat="46.38106" lon="-1.20269">
        <ele>43.877961</ele>
        <time>2022-12-19T13:16:16.348Z</time>
      </trkpt>
      <trkpt lat="46.38118" lon="-1.20267">
        <ele>43.796143</ele>
        <time>2022-12-19T13:16:18.348Z</time>
      </trkpt>
      <trkpt lat="46.38129" lon="-1.20265">
        <ele>43.721811</ele>
        <time>2022-12-19T13:16:20.348Z</time>
      </trkpt>
      <trkpt lat="46.3814" lon="-1.20264">
        <ele>43.649126</ele>
        <time>2022-12-19T13:16:22.328Z</time>
      </trkpt>
      <trkpt lat="46.38151" lon="-1.20262">
        <ele>43.572648</ele>
        <time>2022-12-19T13:16:24.350Z</time>
      </trkpt>
      <trkpt lat="46.38163" lon="-1.2026">
        <ele>43.538878</ele>
        <time>2022-12-19T13:16:26.347Z</time>
      </trkpt>
      <trkpt lat="46.38174" lon="-1.20259">
        <ele>43.51709</ele>
        <time>2022-12-19T13:16:28.347Z</time>
      </trkpt>
      <trkpt lat="46.38186" lon="-1.20257">
        <ele>43.49581</ele>
        <time>2022-12-19T13:16:30.349Z</time>
      </trkpt>
      <trkpt lat="46.38197" lon="-1.20256">
        <ele>43.475345</ele>
        <time>2022-12-19T13:16:32.347Z</time>
      </trkpt>
      <trkpt lat="46.38209" lon="-1.20254">
        <ele>43.453285</ele>
        <time>2022-12-19T13:16:34.329Z</time>
      </trkpt>
      <trkpt lat="46.3822" lon="-1.20253">
        <ele>43.431266</ele>
        <time>2022-12-19T13:16:36.334Z</time>
      </trkpt>
      <trkpt lat="46.38232" lon="-1.20251">
        <ele>43.410171</ele>
        <time>2022-12-19T13:16:38.347Z</time>
      </trkpt>
      <trkpt lat="46.38244" lon="-1.20249">
        <ele>43.387756</ele>
        <time>2022-12-19T13:16:40.348Z</time>
      </trkpt>
      <trkpt lat="46.38256" lon="-1.20246">
        <ele>43.365043</ele>
        <time>2022-12-19T13:16:42.337Z</time>
      </trkpt>
      <trkpt lat="46.38267" lon="-1.20245">
        <ele>43.343254</ele>
        <time>2022-12-19T13:16:44.347Z</time>
      </trkpt>
      <trkpt lat="46.38279" lon="-1.20244">
        <ele>43.322021</ele>
        <time>2022-12-19T13:16:46.351Z</time>
      </trkpt>
      <trkpt lat="46.3829" lon="-1.20242">
        <ele>43.300714</ele>
        <time>2022-12-19T13:16:48.348Z</time>
      </trkpt>
      <trkpt lat="46.38302" lon="-1.2024">
        <ele>43.278838</ele>
        <time>2022-12-19T13:16:50.333Z</time>
      </trkpt>
      <trkpt lat="46.38313" lon="-1.20238">
        <ele>43.257571</ele>
        <time>2022-12-19T13:16:52.348Z</time>
      </trkpt>
      <trkpt lat="46.38324" lon="-1.20236">
        <ele>43.23789</ele>
        <time>2022-12-19T13:16:54.350Z</time>
      </trkpt>
      <trkpt lat="46.38334" lon="-1.20235">
        <ele>43.225667</ele>
        <time>2022-12-19T13:16:56.347Z</time>
      </trkpt>
      <trkpt lat="46.38345" lon="-1.20233">
        <ele>43.275611</ele>
        <time>2022-12-19T13:16:58.353Z</time>
      </trkpt>
      <trkpt lat="46.38356" lon="-1.20231">
        <ele>43.325061</ele>
        <time>2022-12-19T13:17:00.343Z</time>
      </trkpt>
      <trkpt lat="46.38366" lon="-1.20229">
        <ele>43.37546</ele>
        <time>2022-12-19T13:17:02.347Z</time>
      </trkpt>
      <trkpt lat="46.38378" lon="-1.20227">
        <ele>43.428952</ele>
        <time>2022-12-19T13:17:04.346Z</time>
      </trkpt>
      <trkpt lat="46.38389" lon="-1.20225">
        <ele>43.481707</ele>
        <time>2022-12-19T13:17:06.346Z</time>
      </trkpt>
      <trkpt lat="46.38401" lon="-1.20224">
        <ele>43.534686</ele>
        <time>2022-12-19T13:17:08.349Z</time>
      </trkpt>
      <trkpt lat="46.38413" lon="-1.20222">
        <ele>43.589123</ele>
        <time>2022-12-19T13:17:10.348Z</time>
      </trkpt>
      <trkpt lat="46.38425" lon="-1.20221">
        <ele>43.643426</ele>
        <time>2022-12-19T13:17:12.347Z</time>
      </trkpt>
      <trkpt lat="46.38436" lon="-1.20219">
        <ele>43.697406</ele>
        <time>2022-12-19T13:17:14.355Z</time>
      </trkpt>
      <trkpt lat="46.38448" lon="-1.20218">
        <ele>43.752727</ele>
        <time>2022-12-19T13:17:16.332Z</time>
      </trkpt>
      <trkpt lat="46.3846" lon="-1.20216">
        <ele>43.808215</ele>
        <time>2022-12-19T13:17:18.342Z</time>
      </trkpt>
      <trkpt lat="46.38472" lon="-1.20214">
        <ele>43.860337</ele>
        <time>2022-12-19T13:17:20.346Z</time>
      </trkpt>
      <trkpt lat="46.38483" lon="-1.20212">
        <ele>43.912223</ele>
        <time>2022-12-19T13:17:22.349Z</time>
      </trkpt>
      <trkpt lat="46.38493" lon="-1.20211">
        <ele>43.957741</ele>
        <time>2022-12-19T13:17:24.347Z</time>
      </trkpt>
      <trkpt lat="46.38503" lon="-1.2021">
        <ele>44.006119</ele>
        <time>2022-12-19T13:17:26.345Z</time>
      </trkpt>
      <trkpt lat="46.38513" lon="-1.20208">
        <ele>44.037303</ele>
        <time>2022-12-19T13:17:28.351Z</time>
      </trkpt>
      <trkpt lat="46.38524" lon="-1.20206">
        <ele>43.969539</ele>
        <time>2022-12-19T13:17:30.352Z</time>
      </trkpt>
      <trkpt lat="46.38535" lon="-1.20204">
        <ele>43.899676</ele>
        <time>2022-12-19T13:17:32.348Z</time>
      </trkpt>
      <trkpt lat="46.38547" lon="-1.20203">
        <ele>43.828762</ele>
        <time>2022-12-19T13:17:34.344Z</time>
      </trkpt>
      <trkpt lat="46.38558" lon="-1.20201">
        <ele>43.755849</ele>
        <time>2022-12-19T13:17:36.354Z</time>
      </trkpt>
      <trkpt lat="46.3857" lon="-1.20199">
        <ele>43.681645</ele>
        <time>2022-12-19T13:17:38.347Z</time>
      </trkpt>
      <trkpt lat="46.38581" lon="-1.20198">
        <ele>43.612155</ele>
        <time>2022-12-19T13:17:40.348Z</time>
      </trkpt>
      <trkpt lat="46.38592" lon="-1.20196">
        <ele>43.542344</ele>
        <time>2022-12-19T13:17:42.350Z</time>
      </trkpt>
      <trkpt lat="46.38603" lon="-1.20194">
        <ele>43.47325</ele>
        <time>2022-12-19T13:17:44.347Z</time>
      </trkpt>
      <trkpt lat="46.38614" lon="-1.20193">
        <ele>43.406686</ele>
        <time>2022-12-19T13:17:46.346Z</time>
      </trkpt>
      <trkpt lat="46.38625" lon="-1.20191">
        <ele>43.337787</ele>
        <time>2022-12-19T13:17:48.346Z</time>
      </trkpt>
      <trkpt lat="46.38636" lon="-1.2019">
        <ele>43.267405</ele>
        <time>2022-12-19T13:17:50.347Z</time>
      </trkpt>
      <trkpt lat="46.38647" lon="-1.20188">
        <ele>43.198355</ele>
        <time>2022-12-19T13:17:52.354Z</time>
      </trkpt>
      <trkpt lat="46.38658" lon="-1.20186">
        <ele>43.131124</ele>
        <time>2022-12-19T13:17:54.330Z</time>
      </trkpt>
      <trkpt lat="46.38669" lon="-1.20185">
        <ele>43.060911</ele>
        <time>2022-12-19T13:17:56.349Z</time>
      </trkpt>
      <trkpt lat="46.3868" lon="-1.20183">
        <ele>42.991721</ele>
        <time>2022-12-19T13:17:58.350Z</time>
      </trkpt>
      <trkpt lat="46.3869" lon="-1.20181">
        <ele>42.926302</ele>
        <time>2022-12-19T13:18:00.348Z</time>
      </trkpt>
      <trkpt lat="46.38701" lon="-1.20179">
        <ele>43.015305</ele>
        <time>2022-12-19T13:18:02.349Z</time>
      </trkpt>
      <trkpt lat="46.38711" lon="-1.20178">
        <ele>43.103107</ele>
        <time>2022-12-19T13:18:04.330Z</time>
      </trkpt>
      <trkpt lat="46.38723" lon="-1.20176">
        <ele>43.218633</ele>
        <time>2022-12-19T13:18:07.349Z</time>
      </trkpt>
      <trkpt lat="46.38733" lon="-1.20174">
        <ele>43.302648</ele>
        <time>2022-12-19T13:18:09.350Z</time>
      </trkpt>
      <trkpt lat="46.38746" lon="-1.20173">
        <ele>43.418795</ele>
        <time>2022-12-19T13:18:12.344Z</time>
      </trkpt>
      <trkpt lat="46.38756" lon="-1.20171">
        <ele>43.509195</ele>
        <time>2022-12-19T13:18:14.349Z</time>
      </trkpt>
      <trkpt lat="46.38765" lon="-1.20169">
        <ele>43.596274</ele>
        <time>2022-12-19T13:18:16.346Z</time>
      </trkpt>
      <trkpt lat="46.38775" lon="-1.20167">
        <ele>43.683109</ele>
        <time>2022-12-19T13:18:18.349Z</time>
      </trkpt>
      <trkpt lat="46.38785" lon="-1.20166">
        <ele>43.776053</ele>
        <time>2022-12-19T13:18:20.340Z</time>
      </trkpt>
      <trkpt lat="46.38795" lon="-1.20164">
        <ele>43.869061</ele>
        <time>2022-12-19T13:18:22.346Z</time>
      </trkpt>
      <trkpt lat="46.38806" lon="-1.20163">
        <ele>43.960101</ele>
        <time>2022-12-19T13:18:24.347Z</time>
      </trkpt>
      <trkpt lat="46.38816" lon="-1.20162">
        <ele>44.05114</ele>
        <time>2022-12-19T13:18:26.352Z</time>
      </trkpt>
      <trkpt lat="46.38826" lon="-1.2016">
        <ele>44.147928</ele>
        <time>2022-12-19T13:18:28.352Z</time>
      </trkpt>
      <trkpt lat="46.38837" lon="-1.20158">
        <ele>44.242601</ele>
        <time>2022-12-19T13:18:30.346Z</time>
      </trkpt>
      <trkpt lat="46.38847" lon="-1.20156">
        <ele>44.333236</ele>
        <time>2022-12-19T13:18:32.345Z</time>
      </trkpt>
      <trkpt lat="46.38857" lon="-1.20156">
        <ele>44.421332</ele>
        <time>2022-12-19T13:18:34.345Z</time>
      </trkpt>
      <trkpt lat="46.3887" lon="-1.20153">
        <ele>44.540904</ele>
        <time>2022-12-19T13:18:37.347Z</time>
      </trkpt>
      <trkpt lat="46.38882" lon="-1.20149">
        <ele>44.657809</ele>
        <time>2022-12-19T13:18:40.348Z</time>
      </trkpt>
      <trkpt lat="46.38895" lon="-1.20144">
        <ele>44.773423</ele>
        <time>2022-12-19T13:18:43.345Z</time>
      </trkpt>
      <trkpt lat="46.38907" lon="-1.20138">
        <ele>44.8932</ele>
        <time>2022-12-19T13:18:46.348Z</time>
      </trkpt>
      <trkpt lat="46.38919" lon="-1.20129">
        <ele>45.016548</ele>
        <time>2022-12-19T13:18:49.347Z</time>
      </trkpt>
      <trkpt lat="46.3893" lon="-1.20119">
        <ele>45.138447</ele>
        <time>2022-12-19T13:18:52.326Z</time>
      </trkpt>
      <trkpt lat="46.38938" lon="-1.20111">
        <ele>45.225033</ele>
        <time>2022-12-19T13:18:54.350Z</time>
      </trkpt>
      <trkpt lat="46.38947" lon="-1.20103">
        <ele>45.318784</ele>
        <time>2022-12-19T13:18:56.346Z</time>
      </trkpt>
      <trkpt lat="46.38955" lon="-1.20095">
        <ele>45.407539</ele>
        <time>2022-12-19T13:18:58.349Z</time>
      </trkpt>
      <trkpt lat="46.38963" lon="-1.20087">
        <ele>45.4983</ele>
        <time>2022-12-19T13:19:00.368Z</time>
      </trkpt>
      <trkpt lat="46.38972" lon="-1.20079">
        <ele>45.594712</ele>
        <time>2022-12-19T13:19:02.350Z</time>
      </trkpt>
      <trkpt lat="46.38981" lon="-1.20071">
        <ele>45.691355</ele>
        <time>2022-12-19T13:19:04.349Z</time>
      </trkpt>
      <trkpt lat="46.3899" lon="-1.20063">
        <ele>45.785781</ele>
        <time>2022-12-19T13:19:06.355Z</time>
      </trkpt>
      <trkpt lat="46.38999" lon="-1.20055">
        <ele>45.881315</ele>
        <time>2022-12-19T13:19:08.348Z</time>
      </trkpt>
      <trkpt lat="46.39007" lon="-1.20047">
        <ele>45.973295</ele>
        <time>2022-12-19T13:19:10.348Z</time>
      </trkpt>
      <trkpt lat="46.39014" lon="-1.20039">
        <ele>46.056195</ele>
        <time>2022-12-19T13:19:12.348Z</time>
      </trkpt>
      <trkpt lat="46.39022" lon="-1.20032">
        <ele>46.138293</ele>
        <time>2022-12-19T13:19:14.348Z</time>
      </trkpt>
      <trkpt lat="46.39032" lon="-1.20022">
        <ele>46.265126</ele>
        <time>2022-12-19T13:19:17.349Z</time>
      </trkpt>
      <trkpt lat="46.39042" lon="-1.20012">
        <ele>46.394167</ele>
        <time>2022-12-19T13:19:20.349Z</time>
      </trkpt>
      <trkpt lat="46.39051" lon="-1.20001">
        <ele>46.519004</ele>
        <time>2022-12-19T13:19:23.334Z</time>
      </trkpt>
      <trkpt lat="46.3906" lon="-1.19988">
        <ele>46.66097</ele>
        <time>2022-12-19T13:19:26.345Z</time>
      </trkpt>
      <trkpt lat="46.39067" lon="-1.19978">
        <ele>46.761781</ele>
        <time>2022-12-19T13:19:28.347Z</time>
      </trkpt>
      <trkpt lat="46.39074" lon="-1.19968">
        <ele>46.867299</ele>
        <time>2022-12-19T13:19:30.352Z</time>
      </trkpt>
      <trkpt lat="46.3908" lon="-1.19958">
        <ele>46.966641</ele>
        <time>2022-12-19T13:19:32.349Z</time>
      </trkpt>
      <trkpt lat="46.39086" lon="-1.19948">
        <ele>47.063618</ele>
        <time>2022-12-19T13:19:34.350Z</time>
      </trkpt>
      <trkpt lat="46.39093" lon="-1.19939">
        <ele>47.164034</ele>
        <time>2022-12-19T13:19:36.348Z</time>
      </trkpt>
      <trkpt lat="46.39099" lon="-1.19929">
        <ele>47.261905</ele>
        <time>2022-12-19T13:19:38.349Z</time>
      </trkpt>
      <trkpt lat="46.39105" lon="-1.19919">
        <ele>47.36032</ele>
        <time>2022-12-19T13:19:40.352Z</time>
      </trkpt>
      <trkpt lat="46.39114" lon="-1.19905">
        <ele>47.50068</ele>
        <time>2022-12-19T13:19:43.348Z</time>
      </trkpt>
      <trkpt lat="46.39122" lon="-1.19892">
        <ele>47.629964</ele>
        <time>2022-12-19T13:19:46.348Z</time>
      </trkpt>
      <trkpt lat="46.3913" lon="-1.19881">
        <ele>47.749643</ele>
        <time>2022-12-19T13:19:49.348Z</time>
      </trkpt>
      <trkpt lat="46.39137" lon="-1.1987">
        <ele>47.856047</ele>
        <time>2022-12-19T13:19:52.346Z</time>
      </trkpt>
      <trkpt lat="46.39144" lon="-1.1986">
        <ele>47.960215</ele>
        <time>2022-12-19T13:19:55.350Z</time>
      </trkpt>
      <trkpt lat="46.39155" lon="-1.19859">
        <ele>48.083105</ele>
        <time>2022-12-19T13:19:58.328Z</time>
      </trkpt>
      <trkpt lat="46.39168" lon="-1.19857">
        <ele>48.235849</ele>
        <time>2022-12-19T13:20:01.347Z</time>
      </trkpt>
      <trkpt lat="46.39178" lon="-1.19856">
        <ele>48.351521</ele>
        <time>2022-12-19T13:20:03.349Z</time>
      </trkpt>
      <trkpt lat="46.39188" lon="-1.19854">
        <ele>48.466327</ele>
        <time>2022-12-19T13:20:05.352Z</time>
      </trkpt>
      <trkpt lat="46.39197" lon="-1.1985">
        <ele>48.580106</ele>
        <time>2022-12-19T13:20:07.350Z</time>
      </trkpt>
      <trkpt lat="46.39206" lon="-1.19843">
        <ele>48.698735</ele>
        <time>2022-12-19T13:20:09.351Z</time>
      </trkpt>
      <trkpt lat="46.39215" lon="-1.19838">
        <ele>48.805049</ele>
        <time>2022-12-19T13:20:11.337Z</time>
      </trkpt>
      <trkpt lat="46.39225" lon="-1.19831">
        <ele>48.933258</ele>
        <time>2022-12-19T13:20:13.346Z</time>
      </trkpt>
      <trkpt lat="46.39233" lon="-1.19825">
        <ele>49.048723</ele>
        <time>2022-12-19T13:20:15.330Z</time>
      </trkpt>
      <trkpt lat="46.39243" lon="-1.1982">
        <ele>49.165316</ele>
        <time>2022-12-19T13:20:17.347Z</time>
      </trkpt>
      <trkpt lat="46.39254" lon="-1.19812">
        <ele>49.315164</ele>
        <time>2022-12-19T13:20:20.351Z</time>
      </trkpt>
      <trkpt lat="46.39265" lon="-1.19806">
        <ele>49.455741</ele>
        <time>2022-12-19T13:20:23.347Z</time>
      </trkpt>
      <trkpt lat="46.39274" lon="-1.19801">
        <ele>49.562157</ele>
        <time>2022-12-19T13:20:26.331Z</time>
      </trkpt>
      <trkpt lat="46.39284" lon="-1.19795">
        <ele>49.693276</ele>
        <time>2022-12-19T13:20:29.332Z</time>
      </trkpt>
      <trkpt lat="46.39293" lon="-1.19789">
        <ele>49.803468</ele>
        <time>2022-12-19T13:20:31.347Z</time>
      </trkpt>
      <trkpt lat="46.39305" lon="-1.1978">
        <ele>49.961882</ele>
        <time>2022-12-19T13:20:34.348Z</time>
      </trkpt>
      <trkpt lat="46.39314" lon="-1.19776">
        <ele>50.077912</ele>
        <time>2022-12-19T13:20:36.350Z</time>
      </trkpt>
      <trkpt lat="46.39325" lon="-1.19766">
        <ele>50.222039</ele>
        <time>2022-12-19T13:20:39.349Z</time>
      </trkpt>
      <trkpt lat="46.39334" lon="-1.19758">
        <ele>50.271342</ele>
        <time>2022-12-19T13:20:42.347Z</time>
      </trkpt>
      <trkpt lat="46.39343" lon="-1.19752">
        <ele>50.312791</ele>
        <time>2022-12-19T13:20:45.348Z</time>
      </trkpt>
      <trkpt lat="46.39351" lon="-1.19745">
        <ele>50.353826</ele>
        <time>2022-12-19T13:20:48.347Z</time>
      </trkpt>
      <trkpt lat="46.3936" lon="-1.19738">
        <ele>50.402977</ele>
        <time>2022-12-19T13:20:52.347Z</time>
      </trkpt>
      <trkpt lat="46.39368" lon="-1.19731">
        <ele>50.444539</ele>
        <time>2022-12-19T13:20:55.349Z</time>
      </trkpt>
      <trkpt lat="46.39378" lon="-1.19724">
        <ele>50.492221</ele>
        <time>2022-12-19T13:20:59.347Z</time>
      </trkpt>
      <trkpt lat="46.39386" lon="-1.19718">
        <ele>50.533108</ele>
        <time>2022-12-19T13:21:02.346Z</time>
      </trkpt>
      <trkpt lat="46.39396" lon="-1.19714">
        <ele>50.578839</ele>
        <time>2022-12-19T13:21:05.350Z</time>
      </trkpt>
      <trkpt lat="46.39406" lon="-1.19705">
        <ele>50.631951</ele>
        <time>2022-12-19T13:21:08.353Z</time>
      </trkpt>
      <trkpt lat="46.39411" lon="-1.19693">
        <ele>50.6726</ele>
        <time>2022-12-19T13:21:10.330Z</time>
      </trkpt>
      <trkpt lat="46.3941" lon="-1.19675">
        <ele>50.728729</ele>
        <time>2022-12-19T13:21:13.350Z</time>
      </trkpt>
      <trkpt lat="46.39408" lon="-1.19657">
        <ele>50.78391</ele>
        <time>2022-12-19T13:21:16.349Z</time>
      </trkpt>
      <trkpt lat="46.39405" lon="-1.1964">
        <ele>50.83855</ele>
        <time>2022-12-19T13:21:19.348Z</time>
      </trkpt>
      <trkpt lat="46.39402" lon="-1.1962">
        <ele>50.90133</ele>
        <time>2022-12-19T13:21:22.335Z</time>
      </trkpt>
      <trkpt lat="46.39399" lon="-1.19607">
        <ele>50.943448</ele>
        <time>2022-12-19T13:21:24.353Z</time>
      </trkpt>
      <trkpt lat="46.39396" lon="-1.19594">
        <ele>50.984552</ele>
        <time>2022-12-19T13:21:26.352Z</time>
      </trkpt>
      <trkpt lat="46.39394" lon="-1.19576">
        <ele>50.957211</ele>
        <time>2022-12-19T13:21:29.339Z</time>
      </trkpt>
      <trkpt lat="46.39391" lon="-1.19563">
        <ele>50.807553</ele>
        <time>2022-12-19T13:21:31.346Z</time>
      </trkpt>
      <trkpt lat="46.39389" lon="-1.19544">
        <ele>50.593542</ele>
        <time>2022-12-19T13:21:34.347Z</time>
      </trkpt>
      <trkpt lat="46.39387" lon="-1.19528">
        <ele>50.40852</ele>
        <time>2022-12-19T13:21:37.353Z</time>
      </trkpt>
      <trkpt lat="46.39384" lon="-1.19513">
        <ele>50.23186</ele>
        <time>2022-12-19T13:21:40.334Z</time>
      </trkpt>
      <trkpt lat="46.39383" lon="-1.19498">
        <ele>50.067461</ele>
        <time>2022-12-19T13:21:43.346Z</time>
      </trkpt>
      <trkpt lat="46.39379" lon="-1.19485">
        <ele>49.911339</ele>
        <time>2022-12-19T13:21:46.350Z</time>
      </trkpt>
      <trkpt lat="46.39377" lon="-1.19469">
        <ele>49.737183</ele>
        <time>2022-12-19T13:21:49.347Z</time>
      </trkpt>
      <trkpt lat="46.39372" lon="-1.19453">
        <ele>49.539686</ele>
        <time>2022-12-19T13:21:52.333Z</time>
      </trkpt>
      <trkpt lat="46.39368" lon="-1.19436">
        <ele>49.342009</ele>
        <time>2022-12-19T13:21:55.348Z</time>
      </trkpt>
      <trkpt lat="46.39363" lon="-1.19421">
        <ele>49.157434</ele>
        <time>2022-12-19T13:21:58.329Z</time>
      </trkpt>
      <trkpt lat="46.39357" lon="-1.19406">
        <ele>48.956398</ele>
        <time>2022-12-19T13:22:01.346Z</time>
      </trkpt>
      <trkpt lat="46.3935" lon="-1.1939">
        <ele>48.754403</ele>
        <time>2022-12-19T13:22:04.347Z</time>
      </trkpt>
      <trkpt lat="46.39344" lon="-1.19374">
        <ele>48.541471</ele>
        <time>2022-12-19T13:22:07.359Z</time>
      </trkpt>
      <trkpt lat="46.39337" lon="-1.19357">
        <ele>48.32758</ele>
        <time>2022-12-19T13:22:10.346Z</time>
      </trkpt>
      <trkpt lat="46.3933" lon="-1.19341">
        <ele>48.115372</ele>
        <time>2022-12-19T13:22:13.348Z</time>
      </trkpt>
      <trkpt lat="46.39322" lon="-1.19326">
        <ele>47.8086</ele>
        <time>2022-12-19T13:22:16.346Z</time>
      </trkpt>
      <trkpt lat="46.39314" lon="-1.19311">
        <ele>47.496393</ele>
        <time>2022-12-19T13:22:19.349Z</time>
      </trkpt>
      <trkpt lat="46.39306" lon="-1.19296">
        <ele>47.187011</ele>
        <time>2022-12-19T13:22:22.349Z</time>
      </trkpt>
      <trkpt lat="46.39298" lon="-1.1928">
        <ele>46.874661</ele>
        <time>2022-12-19T13:22:25.347Z</time>
      </trkpt>
      <trkpt lat="46.39292" lon="-1.1927">
        <ele>46.654182</ele>
        <time>2022-12-19T13:22:27.351Z</time>
      </trkpt>
      <trkpt lat="46.39283" lon="-1.19255">
        <ele>46.338888</ele>
        <time>2022-12-19T13:22:30.338Z</time>
      </trkpt>
      <trkpt lat="46.39274" lon="-1.19241">
        <ele>46.016474</ele>
        <time>2022-12-19T13:22:33.351Z</time>
      </trkpt>
      <trkpt lat="46.39268" lon="-1.1923">
        <ele>45.800251</ele>
        <time>2022-12-19T13:22:35.349Z</time>
      </trkpt>
      <trkpt lat="46.3926" lon="-1.19215">
        <ele>45.484313</ele>
        <time>2022-12-19T13:22:38.348Z</time>
      </trkpt>
      <trkpt lat="46.39254" lon="-1.19205">
        <ele>45.266007</ele>
        <time>2022-12-19T13:22:40.349Z</time>
      </trkpt>
      <trkpt lat="46.39245" lon="-1.1919">
        <ele>44.951813</ele>
        <time>2022-12-19T13:22:43.340Z</time>
      </trkpt>
      <trkpt lat="46.39237" lon="-1.19176">
        <ele>44.640517</ele>
        <time>2022-12-19T13:22:46.354Z</time>
      </trkpt>
      <trkpt lat="46.39229" lon="-1.19163">
        <ele>44.370766</ele>
        <time>2022-12-19T13:22:49.345Z</time>
      </trkpt>
      <trkpt lat="46.39221" lon="-1.19151">
        <ele>44.101852</ele>
        <time>2022-12-19T13:22:52.348Z</time>
      </trkpt>
      <trkpt lat="46.39213" lon="-1.1914">
        <ele>43.88799</ele>
        <time>2022-12-19T13:22:55.348Z</time>
      </trkpt>
      <trkpt lat="46.39203" lon="-1.19128">
        <ele>43.915166</ele>
        <time>2022-12-19T13:22:58.350Z</time>
      </trkpt>
      <trkpt lat="46.39196" lon="-1.1912">
        <ele>43.934157</ele>
        <time>2022-12-19T13:23:00.351Z</time>
      </trkpt>
      <trkpt lat="46.39185" lon="-1.19109">
        <ele>43.962585</ele>
        <time>2022-12-19T13:23:03.352Z</time>
      </trkpt>
      <trkpt lat="46.39177" lon="-1.19102">
        <ele>43.981857</ele>
        <time>2022-12-19T13:23:05.346Z</time>
      </trkpt>
      <trkpt lat="46.39169" lon="-1.19096">
        <ele>44.0014</ele>
        <time>2022-12-19T13:23:07.350Z</time>
      </trkpt>
      <trkpt lat="46.39161" lon="-1.19089">
        <ele>44.021544</ele>
        <time>2022-12-19T13:23:09.348Z</time>
      </trkpt>
      <trkpt lat="46.39152" lon="-1.19083">
        <ele>44.041527</ele>
        <time>2022-12-19T13:23:11.358Z</time>
      </trkpt>
      <trkpt lat="46.39144" lon="-1.19077">
        <ele>44.061649</ele>
        <time>2022-12-19T13:23:13.350Z</time>
      </trkpt>
      <trkpt lat="46.39136" lon="-1.19071">
        <ele>44.080748</ele>
        <time>2022-12-19T13:23:15.339Z</time>
      </trkpt>
      <trkpt lat="46.39124" lon="-1.19061">
        <ele>44.108742</ele>
        <time>2022-12-19T13:23:18.359Z</time>
      </trkpt>
      <trkpt lat="46.39114" lon="-1.19051">
        <ele>44.13407</ele>
        <time>2022-12-19T13:23:21.357Z</time>
      </trkpt>
      <trkpt lat="46.39105" lon="-1.19042">
        <ele>44.158634</ele>
        <time>2022-12-19T13:23:24.349Z</time>
      </trkpt>
      <trkpt lat="46.39095" lon="-1.19032">
        <ele>44.184228</ele>
        <time>2022-12-19T13:23:27.352Z</time>
      </trkpt>
      <trkpt lat="46.39085" lon="-1.19022">
        <ele>44.209985</ele>
        <time>2022-12-19T13:23:30.346Z</time>
      </trkpt>
      <trkpt lat="46.39076" lon="-1.19011">
        <ele>44.235228</ele>
        <time>2022-12-19T13:23:33.348Z</time>
      </trkpt>
      <trkpt lat="46.39065" lon="-1.19001">
        <ele>44.261595</ele>
        <time>2022-12-19T13:23:36.359Z</time>
      </trkpt>
      <trkpt lat="46.39056" lon="-1.1899">
        <ele>44.298763</ele>
        <time>2022-12-19T13:23:39.349Z</time>
      </trkpt>
      <trkpt lat="46.39049" lon="-1.18981">
        <ele>44.331782</ele>
        <time>2022-12-19T13:23:42.332Z</time>
      </trkpt>
      <trkpt lat="46.39041" lon="-1.18971">
        <ele>44.365439</ele>
        <time>2022-12-19T13:23:45.346Z</time>
      </trkpt>
      <trkpt lat="46.39034" lon="-1.18959">
        <ele>44.401274</ele>
        <time>2022-12-19T13:23:48.346Z</time>
      </trkpt>
      <trkpt lat="46.39026" lon="-1.18946">
        <ele>44.44031</ele>
        <time>2022-12-19T13:23:51.334Z</time>
      </trkpt>
      <trkpt lat="46.39018" lon="-1.18931">
        <ele>44.481612</ele>
        <time>2022-12-19T13:23:54.353Z</time>
      </trkpt>
      <trkpt lat="46.39011" lon="-1.18915">
        <ele>44.525463</ele>
        <time>2022-12-19T13:23:57.347Z</time>
      </trkpt>
      <trkpt lat="46.39006" lon="-1.18904">
        <ele>44.555036</ele>
        <time>2022-12-19T13:23:59.356Z</time>
      </trkpt>
      <trkpt lat="46.39001" lon="-1.18893">
        <ele>44.584746</ele>
        <time>2022-12-19T13:24:01.346Z</time>
      </trkpt>
      <trkpt lat="46.38994" lon="-1.18878">
        <ele>44.624859</ele>
        <time>2022-12-19T13:24:04.349Z</time>
      </trkpt>
      <trkpt lat="46.38988" lon="-1.18864">
        <ele>44.662279</ele>
        <time>2022-12-19T13:24:07.348Z</time>
      </trkpt>
      <trkpt lat="46.38982" lon="-1.18849">
        <ele>44.700745</ele>
        <time>2022-12-19T13:24:10.347Z</time>
      </trkpt>
      <trkpt lat="46.38976" lon="-1.18834">
        <ele>44.740915</ele>
        <time>2022-12-19T13:24:13.357Z</time>
      </trkpt>
      <trkpt lat="46.38969" lon="-1.18818">
        <ele>44.782718</ele>
        <time>2022-12-19T13:24:16.359Z</time>
      </trkpt>
      <trkpt lat="46.38962" lon="-1.18802">
        <ele>44.825667</ele>
        <time>2022-12-19T13:24:19.478Z</time>
      </trkpt>
      <trkpt lat="46.38955" lon="-1.18786">
        <ele>44.896762</ele>
        <time>2022-12-19T13:24:22.349Z</time>
      </trkpt>
      <trkpt lat="46.38948" lon="-1.1877">
        <ele>45.019384</ele>
        <time>2022-12-19T13:24:25.416Z</time>
      </trkpt>
      <trkpt lat="46.38941" lon="-1.18754">
        <ele>45.140401</ele>
        <time>2022-12-19T13:24:28.359Z</time>
      </trkpt>
      <trkpt lat="46.38933" lon="-1.18738">
        <ele>45.260855</ele>
        <time>2022-12-19T13:24:31.483Z</time>
      </trkpt>
      <trkpt lat="46.38928" lon="-1.18727">
        <ele>45.346375</ele>
        <time>2022-12-19T13:24:33.363Z</time>
      </trkpt>
      <trkpt lat="46.38921" lon="-1.18711">
        <ele>45.466952</ele>
        <time>2022-12-19T13:24:36.351Z</time>
      </trkpt>
      <trkpt lat="46.38915" lon="-1.18695">
        <ele>45.578712</ele>
        <time>2022-12-19T13:24:39.351Z</time>
      </trkpt>
      <trkpt lat="46.38909" lon="-1.18682">
        <ele>45.679886</ele>
        <time>2022-12-19T13:24:42.400Z</time>
      </trkpt>
      <trkpt lat="46.38903" lon="-1.18669">
        <ele>45.780503</ele>
        <time>2022-12-19T13:24:45.351Z</time>
      </trkpt>
      <trkpt lat="46.38897" lon="-1.18654">
        <ele>45.889767</ele>
        <time>2022-12-19T13:24:48.423Z</time>
      </trkpt>
      <trkpt lat="46.3889" lon="-1.18638">
        <ele>46.007224</ele>
        <time>2022-12-19T13:24:51.356Z</time>
      </trkpt>
      <trkpt lat="46.38883" lon="-1.18622">
        <ele>46.131051</ele>
        <time>2022-12-19T13:24:54.399Z</time>
      </trkpt>
      <trkpt lat="46.38878" lon="-1.1861">
        <ele>46.216072</ele>
        <time>2022-12-19T13:24:56.359Z</time>
      </trkpt>
      <trkpt lat="46.38872" lon="-1.18593">
        <ele>46.341721</ele>
        <time>2022-12-19T13:24:59.350Z</time>
      </trkpt>
      <trkpt lat="46.38867" lon="-1.18581">
        <ele>46.430456</ele>
        <time>2022-12-19T13:25:01.363Z</time>
      </trkpt>
      <trkpt lat="46.38862" lon="-1.18569">
        <ele>46.508654</ele>
        <time>2022-12-19T13:25:03.352Z</time>
      </trkpt>
      <trkpt lat="46.38858" lon="-1.18557">
        <ele>46.54459</ele>
        <time>2022-12-19T13:25:05.359Z</time>
      </trkpt>
      <trkpt lat="46.38854" lon="-1.18544">
        <ele>46.579722</ele>
        <time>2022-12-19T13:25:07.349Z</time>
      </trkpt>
      <trkpt lat="46.38849" lon="-1.18532">
        <ele>46.616696</ele>
        <time>2022-12-19T13:25:09.359Z</time>
      </trkpt>
      <trkpt lat="46.38844" lon="-1.18519">
        <ele>46.653643</ele>
        <time>2022-12-19T13:25:11.360Z</time>
      </trkpt>
      <trkpt lat="46.3884" lon="-1.18507">
        <ele>46.690255</ele>
        <time>2022-12-19T13:25:13.352Z</time>
      </trkpt>
      <trkpt lat="46.38835" lon="-1.18494">
        <ele>46.725659</ele>
        <time>2022-12-19T13:25:15.354Z</time>
      </trkpt>
      <trkpt lat="46.3883" lon="-1.18482">
        <ele>46.763127</ele>
        <time>2022-12-19T13:25:17.351Z</time>
      </trkpt>
      <trkpt lat="46.38826" lon="-1.18469">
        <ele>46.798422</ele>
        <time>2022-12-19T13:25:19.357Z</time>
      </trkpt>
      <trkpt lat="46.3882" lon="-1.18453">
        <ele>46.845534</ele>
        <time>2022-12-19T13:25:22.363Z</time>
      </trkpt>
      <trkpt lat="46.38814" lon="-1.18437">
        <ele>46.892874</ele>
        <time>2022-12-19T13:25:25.352Z</time>
      </trkpt>
      <trkpt lat="46.38808" lon="-1.1842">
        <ele>46.942503</ele>
        <time>2022-12-19T13:25:28.349Z</time>
      </trkpt>
      <trkpt lat="46.38803" lon="-1.18408">
        <ele>46.978034</ele>
        <time>2022-12-19T13:25:30.348Z</time>
      </trkpt>
      <trkpt lat="46.38799" lon="-1.18395">
        <ele>47.014254</ele>
        <time>2022-12-19T13:25:32.354Z</time>
      </trkpt>
      <trkpt lat="46.38795" lon="-1.18382">
        <ele>47.050866</ele>
        <time>2022-12-19T13:25:34.354Z</time>
      </trkpt>
      <trkpt lat="46.3879" lon="-1.1837">
        <ele>47.087395</ele>
        <time>2022-12-19T13:25:36.351Z</time>
      </trkpt>
      <trkpt lat="46.38785" lon="-1.18358">
        <ele>47.123547</ele>
        <time>2022-12-19T13:25:38.349Z</time>
      </trkpt>
      <trkpt lat="46.38781" lon="-1.18346">
        <ele>47.157868</ele>
        <time>2022-12-19T13:25:40.351Z</time>
      </trkpt>
      <trkpt lat="46.38776" lon="-1.18333">
        <ele>47.21201</ele>
        <time>2022-12-19T13:25:42.350Z</time>
      </trkpt>
      <trkpt lat="46.38772" lon="-1.1832">
        <ele>47.278029</ele>
        <time>2022-12-19T13:25:44.353Z</time>
      </trkpt>
      <trkpt lat="46.38767" lon="-1.18308">
        <ele>47.342606</ele>
        <time>2022-12-19T13:25:46.345Z</time>
      </trkpt>
      <trkpt lat="46.38763" lon="-1.18295">
        <ele>47.410055</ele>
        <time>2022-12-19T13:25:48.350Z</time>
      </trkpt>
      <trkpt lat="46.38759" lon="-1.18283">
        <ele>47.470538</ele>
        <time>2022-12-19T13:25:50.352Z</time>
      </trkpt>
      <trkpt lat="46.38753" lon="-1.18267">
        <ele>47.554156</ele>
        <time>2022-12-19T13:25:53.343Z</time>
      </trkpt>
      <trkpt lat="46.38747" lon="-1.18251">
        <ele>47.638084</ele>
        <time>2022-12-19T13:25:56.364Z</time>
      </trkpt>
      <trkpt lat="46.38741" lon="-1.18233">
        <ele>47.727566</ele>
        <time>2022-12-19T13:25:59.362Z</time>
      </trkpt>
      <trkpt lat="46.38738" lon="-1.1822">
        <ele>47.791956</ele>
        <time>2022-12-19T13:26:01.351Z</time>
      </trkpt>
      <trkpt lat="46.38734" lon="-1.18203">
        <ele>47.873795</ele>
        <time>2022-12-19T13:26:04.358Z</time>
      </trkpt>
      <trkpt lat="46.3873" lon="-1.18185">
        <ele>47.961161</ele>
        <time>2022-12-19T13:26:07.361Z</time>
      </trkpt>
      <trkpt lat="46.38727" lon="-1.18168">
        <ele>48.045666</ele>
        <time>2022-12-19T13:26:10.344Z</time>
      </trkpt>
      <trkpt lat="46.38724" lon="-1.1815">
        <ele>48.129215</ele>
        <time>2022-12-19T13:26:13.345Z</time>
      </trkpt>
      <trkpt lat="46.38721" lon="-1.18133">
        <ele>48.206924</ele>
        <time>2022-12-19T13:26:16.350Z</time>
      </trkpt>
      <trkpt lat="46.38719" lon="-1.18117">
        <ele>48.287188</ele>
        <time>2022-12-19T13:26:19.358Z</time>
      </trkpt>
      <trkpt lat="46.38715" lon="-1.18099">
        <ele>48.36974</ele>
        <time>2022-12-19T13:26:22.355Z</time>
      </trkpt>
      <trkpt lat="46.38712" lon="-1.18081">
        <ele>48.404686</ele>
        <time>2022-12-19T13:26:25.373Z</time>
      </trkpt>
      <trkpt lat="46.38708" lon="-1.18062">
        <ele>48.437116</ele>
        <time>2022-12-19T13:26:28.350Z</time>
      </trkpt>
      <trkpt lat="46.38705" lon="-1.18043">
        <ele>48.46917</ele>
        <time>2022-12-19T13:26:31.349Z</time>
      </trkpt>
      <trkpt lat="46.38703" lon="-1.1803">
        <ele>48.491586</ele>
        <time>2022-12-19T13:26:33.361Z</time>
      </trkpt>
      <trkpt lat="46.387" lon="-1.18011">
        <ele>48.523857</ele>
        <time>2022-12-19T13:26:36.351Z</time>
      </trkpt>
      <trkpt lat="46.38698" lon="-1.17998">
        <ele>48.545704</ele>
        <time>2022-12-19T13:26:38.361Z</time>
      </trkpt>
      <trkpt lat="46.38696" lon="-1.17985">
        <ele>48.567267</ele>
        <time>2022-12-19T13:26:40.352Z</time>
      </trkpt>
      <trkpt lat="46.38693" lon="-1.17971">
        <ele>48.589924</ele>
        <time>2022-12-19T13:26:42.351Z</time>
      </trkpt>
      <trkpt lat="46.38692" lon="-1.17958">
        <ele>48.612415</ele>
        <time>2022-12-19T13:26:44.367Z</time>
      </trkpt>
      <trkpt lat="46.3869" lon="-1.17945">
        <ele>48.634355</ele>
        <time>2022-12-19T13:26:46.365Z</time>
      </trkpt>
      <trkpt lat="46.38688" lon="-1.17931">
        <ele>48.656876</ele>
        <time>2022-12-19T13:26:48.351Z</time>
      </trkpt>
      <trkpt lat="46.38685" lon="-1.17918">
        <ele>48.679284</ele>
        <time>2022-12-19T13:26:50.362Z</time>
      </trkpt>
      <trkpt lat="46.38683" lon="-1.17905">
        <ele>48.701114</ele>
        <time>2022-12-19T13:26:52.361Z</time>
      </trkpt>
      <trkpt lat="46.38681" lon="-1.17892">
        <ele>48.723745</ele>
        <time>2022-12-19T13:26:54.345Z</time>
      </trkpt>
      <trkpt lat="46.38678" lon="-1.17873">
        <ele>48.755564</ele>
        <time>2022-12-19T13:26:57.361Z</time>
      </trkpt>
      <trkpt lat="46.38676" lon="-1.17859">
        <ele>48.778307</ele>
        <time>2022-12-19T13:26:59.414Z</time>
      </trkpt>
      <trkpt lat="46.38673" lon="-1.17841">
        <ele>48.807955</ele>
        <time>2022-12-19T13:27:02.363Z</time>
      </trkpt>
      <trkpt lat="46.38671" lon="-1.17828">
        <ele>48.826251</ele>
        <time>2022-12-19T13:27:04.355Z</time>
      </trkpt>
      <trkpt lat="46.3867" lon="-1.17815">
        <ele>48.844447</ele>
        <time>2022-12-19T13:27:06.338Z</time>
      </trkpt>
      <trkpt lat="46.38668" lon="-1.17801">
        <ele>48.862847</ele>
        <time>2022-12-19T13:27:08.363Z</time>
      </trkpt>
      <trkpt lat="46.38667" lon="-1.17782">
        <ele>48.888833</ele>
        <time>2022-12-19T13:27:11.397Z</time>
      </trkpt>
      <trkpt lat="46.38666" lon="-1.17768">
        <ele>48.908212</ele>
        <time>2022-12-19T13:27:13.359Z</time>
      </trkpt>
      <trkpt lat="46.38664" lon="-1.17755">
        <ele>48.926584</ele>
        <time>2022-12-19T13:27:15.349Z</time>
      </trkpt>
      <trkpt lat="46.38663" lon="-1.17737">
        <ele>48.951358</ele>
        <time>2022-12-19T13:27:18.356Z</time>
      </trkpt>
      <trkpt lat="46.38661" lon="-1.1772">
        <ele>48.974471</ele>
        <time>2022-12-19T13:27:21.351Z</time>
      </trkpt>
      <trkpt lat="46.38659" lon="-1.17704">
        <ele>48.996124</ele>
        <time>2022-12-19T13:27:24.362Z</time>
      </trkpt>
      <trkpt lat="46.38658" lon="-1.17688">
        <ele>49.018559</ele>
        <time>2022-12-19T13:27:27.363Z</time>
      </trkpt>
      <trkpt lat="46.38656" lon="-1.1767">
        <ele>49.042745</ele>
        <time>2022-12-19T13:27:30.335Z</time>
      </trkpt>
      <trkpt lat="46.38655" lon="-1.17651">
        <ele>49.068417</ele>
        <time>2022-12-19T13:27:33.351Z</time>
      </trkpt>
      <trkpt lat="46.38653" lon="-1.17632">
        <ele>49.095055</ele>
        <time>2022-12-19T13:27:36.358Z</time>
      </trkpt>
      <trkpt lat="46.38652" lon="-1.17618">
        <ele>49.113511</ele>
        <time>2022-12-19T13:27:38.359Z</time>
      </trkpt>
      <trkpt lat="46.3865" lon="-1.17605">
        <ele>49.131539</ele>
        <time>2022-12-19T13:27:40.359Z</time>
      </trkpt>
      <trkpt lat="46.38649" lon="-1.17592">
        <ele>49.149615</ele>
        <time>2022-12-19T13:27:42.350Z</time>
      </trkpt>
      <trkpt lat="46.38648" lon="-1.17578">
        <ele>49.179271</ele>
        <time>2022-12-19T13:27:44.360Z</time>
      </trkpt>
      <trkpt lat="46.38646" lon="-1.17561">
        <ele>49.228118</ele>
        <time>2022-12-19T13:27:47.398Z</time>
      </trkpt>
      <trkpt lat="46.38645" lon="-1.17544">
        <ele>49.274941</ele>
        <time>2022-12-19T13:27:50.349Z</time>
      </trkpt>
      <trkpt lat="46.38644" lon="-1.17527">
        <ele>49.323825</ele>
        <time>2022-12-19T13:27:53.414Z</time>
      </trkpt>
      <trkpt lat="46.38642" lon="-1.17508">
        <ele>49.374674</ele>
        <time>2022-12-19T13:27:56.359Z</time>
      </trkpt>
      <trkpt lat="46.38641" lon="-1.17495">
        <ele>49.411201</ele>
        <time>2022-12-19T13:27:58.358Z</time>
      </trkpt>
      <trkpt lat="46.3864" lon="-1.17481">
        <ele>49.449972</ele>
        <time>2022-12-19T13:28:00.351Z</time>
      </trkpt>
      <trkpt lat="46.38639" lon="-1.17468">
        <ele>49.487116</ele>
        <time>2022-12-19T13:28:02.350Z</time>
      </trkpt>
      <trkpt lat="46.38638" lon="-1.17455">
        <ele>49.524141</ele>
        <time>2022-12-19T13:28:04.360Z</time>
      </trkpt>
      <trkpt lat="46.38636" lon="-1.17436">
        <ele>49.577531</ele>
        <time>2022-12-19T13:28:07.351Z</time>
      </trkpt>
      <trkpt lat="46.38634" lon="-1.17416">
        <ele>49.630814</ele>
        <time>2022-12-19T13:28:10.370Z</time>
      </trkpt>
      <trkpt lat="46.38632" lon="-1.17398">
        <ele>49.682948</ele>
        <time>2022-12-19T13:28:13.353Z</time>
      </trkpt>
      <trkpt lat="46.38631" lon="-1.17379">
        <ele>49.733886</ele>
        <time>2022-12-19T13:28:16.332Z</time>
      </trkpt>
      <trkpt lat="46.3863" lon="-1.1736">
        <ele>49.786555</ele>
        <time>2022-12-19T13:28:19.354Z</time>
      </trkpt>
      <trkpt lat="46.38628" lon="-1.17347">
        <ele>49.823082</ele>
        <time>2022-12-19T13:28:21.422Z</time>
      </trkpt>
      <trkpt lat="46.38626" lon="-1.17328">
        <ele>49.87736</ele>
        <time>2022-12-19T13:28:24.347Z</time>
      </trkpt>
      <trkpt lat="46.38625" lon="-1.17315">
        <ele>49.777333</ele>
        <time>2022-12-19T13:28:26.353Z</time>
      </trkpt>
      <trkpt lat="46.38624" lon="-1.17302">
        <ele>49.673313</ele>
        <time>2022-12-19T13:28:28.355Z</time>
      </trkpt>
      <trkpt lat="46.38622" lon="-1.17283">
        <ele>49.525736</ele>
        <time>2022-12-19T13:28:31.361Z</time>
      </trkpt>
      <trkpt lat="46.38621" lon="-1.17266">
        <ele>49.389539</ele>
        <time>2022-12-19T13:28:34.339Z</time>
      </trkpt>
      <trkpt lat="46.38619" lon="-1.17249">
        <ele>49.25634</ele>
        <time>2022-12-19T13:28:37.351Z</time>
      </trkpt>
      <trkpt lat="46.38618" lon="-1.17231">
        <ele>49.111143</ele>
        <time>2022-12-19T13:28:40.358Z</time>
      </trkpt>
      <trkpt lat="46.38616" lon="-1.17212">
        <ele>48.962523</ele>
        <time>2022-12-19T13:28:43.323Z</time>
      </trkpt>
      <trkpt lat="46.38614" lon="-1.17194">
        <ele>48.817801</ele>
        <time>2022-12-19T13:28:46.360Z</time>
      </trkpt>
      <trkpt lat="46.38613" lon="-1.17176">
        <ele>48.675745</ele>
        <time>2022-12-19T13:28:49.362Z</time>
      </trkpt>
      <trkpt lat="46.38612" lon="-1.17159">
        <ele>48.53881</ele>
        <time>2022-12-19T13:28:52.357Z</time>
      </trkpt>
      <trkpt lat="46.3861" lon="-1.17142">
        <ele>48.407306</ele>
        <time>2022-12-19T13:28:55.359Z</time>
      </trkpt>
      <trkpt lat="46.38609" lon="-1.17126">
        <ele>48.278931</ele>
        <time>2022-12-19T13:28:58.349Z</time>
      </trkpt>
      <trkpt lat="46.38608" lon="-1.17109">
        <ele>48.14573</ele>
        <time>2022-12-19T13:29:01.352Z</time>
      </trkpt>
      <trkpt lat="46.38609" lon="-1.17093">
        <ele>48.020493</ele>
        <time>2022-12-19T13:29:04.361Z</time>
      </trkpt>
      <trkpt lat="46.3861" lon="-1.17079">
        <ele>47.909132</ele>
        <time>2022-12-19T13:29:07.361Z</time>
      </trkpt>
      <trkpt lat="46.38611" lon="-1.17063">
        <ele>47.840727</ele>
        <time>2022-12-19T13:29:11.369Z</time>
      </trkpt>
      <trkpt lat="46.38613" lon="-1.17049">
        <ele>47.87754</ele>
        <time>2022-12-19T13:29:14.411Z</time>
      </trkpt>
      <trkpt lat="46.38616" lon="-1.17034">
        <ele>47.918462</ele>
        <time>2022-12-19T13:29:17.354Z</time>
      </trkpt>
      <trkpt lat="46.3862" lon="-1.17018">
        <ele>47.961778</ele>
        <time>2022-12-19T13:29:20.398Z</time>
      </trkpt>
      <trkpt lat="46.38623" lon="-1.17002">
        <ele>48.006312</ele>
        <time>2022-12-19T13:29:23.363Z</time>
      </trkpt>
      <trkpt lat="46.38627" lon="-1.16986">
        <ele>48.051967</ele>
        <time>2022-12-19T13:29:26.411Z</time>
      </trkpt>
      <trkpt lat="46.38631" lon="-1.16969">
        <ele>48.098619</ele>
        <time>2022-12-19T13:29:29.359Z</time>
      </trkpt>
      <trkpt lat="46.38634" lon="-1.16951">
        <ele>48.146654</ele>
        <time>2022-12-19T13:29:32.422Z</time>
      </trkpt>
      <trkpt lat="46.38637" lon="-1.16933">
        <ele>48.196322</ele>
        <time>2022-12-19T13:29:35.339Z</time>
      </trkpt>
      <trkpt lat="46.38638" lon="-1.16914">
        <ele>48.245734</ele>
        <time>2022-12-19T13:29:38.359Z</time>
      </trkpt>
      <trkpt lat="46.38637" lon="-1.16896">
        <ele>48.292473</ele>
        <time>2022-12-19T13:29:41.363Z</time>
      </trkpt>
      <trkpt lat="46.38635" lon="-1.16881">
        <ele>48.332713</ele>
        <time>2022-12-19T13:29:44.353Z</time>
      </trkpt>
      <trkpt lat="46.38633" lon="-1.16867">
        <ele>48.369452</ele>
        <time>2022-12-19T13:29:47.350Z</time>
      </trkpt>
      <trkpt lat="46.38631" lon="-1.16853">
        <ele>48.407541</ele>
        <time>2022-12-19T13:29:50.353Z</time>
      </trkpt>
      <trkpt lat="46.38628" lon="-1.16838">
        <ele>48.448522</ele>
        <time>2022-12-19T13:29:53.417Z</time>
      </trkpt>
      <trkpt lat="46.38625" lon="-1.16822">
        <ele>48.491009</ele>
        <time>2022-12-19T13:29:56.357Z</time>
      </trkpt>
      <trkpt lat="46.38621" lon="-1.16805">
        <ele>48.370346</ele>
        <time>2022-12-19T13:29:59.394Z</time>
      </trkpt>
      <trkpt lat="46.38618" lon="-1.16787">
        <ele>48.158801</ele>
        <time>2022-12-19T13:30:02.361Z</time>
      </trkpt>
      <trkpt lat="46.38614" lon="-1.1677">
        <ele>47.942478</ele>
        <time>2022-12-19T13:30:05.362Z</time>
      </trkpt>
      <trkpt lat="46.38611" lon="-1.16751">
        <ele>47.717756</ele>
        <time>2022-12-19T13:30:08.351Z</time>
      </trkpt>
      <trkpt lat="46.38608" lon="-1.16733">
        <ele>47.499063</ele>
        <time>2022-12-19T13:30:11.354Z</time>
      </trkpt>
      <trkpt lat="46.38605" lon="-1.16715">
        <ele>47.285798</ele>
        <time>2022-12-19T13:30:14.349Z</time>
      </trkpt>
      <trkpt lat="46.38603" lon="-1.16698">
        <ele>47.085467</ele>
        <time>2022-12-19T13:30:17.363Z</time>
      </trkpt>
      <trkpt lat="46.386" lon="-1.16681">
        <ele>46.873663</ele>
        <time>2022-12-19T13:30:20.360Z</time>
      </trkpt>
      <trkpt lat="46.38597" lon="-1.16668">
        <ele>46.719298</ele>
        <time>2022-12-19T13:30:22.413Z</time>
      </trkpt>
      <trkpt lat="46.38595" lon="-1.16655">
        <ele>46.562383</ele>
        <time>2022-12-19T13:30:24.346Z</time>
      </trkpt>
      <trkpt lat="46.38592" lon="-1.16636">
        <ele>46.328173</ele>
        <time>2022-12-19T13:30:27.339Z</time>
      </trkpt>
      <trkpt lat="46.3859" lon="-1.16622">
        <ele>46.164744</ele>
        <time>2022-12-19T13:30:29.345Z</time>
      </trkpt>
      <trkpt lat="46.38586" lon="-1.1661">
        <ele>46.010267</ele>
        <time>2022-12-19T13:30:31.352Z</time>
      </trkpt>
      <trkpt lat="46.38584" lon="-1.16596">
        <ele>45.845371</ele>
        <time>2022-12-19T13:30:33.349Z</time>
      </trkpt>
      <trkpt lat="46.38582" lon="-1.16582">
        <ele>45.673616</ele>
        <time>2022-12-19T13:30:35.351Z</time>
      </trkpt>
      <trkpt lat="46.38579" lon="-1.16569">
        <ele>45.510887</ele>
        <time>2022-12-19T13:30:37.352Z</time>
      </trkpt>
      <trkpt lat="46.38576" lon="-1.16555">
        <ele>45.386255</ele>
        <time>2022-12-19T13:30:39.407Z</time>
      </trkpt>
      <trkpt lat="46.38574" lon="-1.16541">
        <ele>45.287702</ele>
        <time>2022-12-19T13:30:41.358Z</time>
      </trkpt>
      <trkpt lat="46.38571" lon="-1.16528">
        <ele>45.191166</ele>
        <time>2022-12-19T13:30:43.354Z</time>
      </trkpt>
      <trkpt lat="46.38569" lon="-1.16514">
        <ele>45.092592</ele>
        <time>2022-12-19T13:30:45.340Z</time>
      </trkpt>
      <trkpt lat="46.38567" lon="-1.165">
        <ele>44.988782</ele>
        <time>2022-12-19T13:30:47.362Z</time>
      </trkpt>
      <trkpt lat="46.38564" lon="-1.16485">
        <ele>44.883403</ele>
        <time>2022-12-19T13:30:49.366Z</time>
      </trkpt>
      <trkpt lat="46.38562" lon="-1.16471">
        <ele>44.782766</ele>
        <time>2022-12-19T13:30:51.362Z</time>
      </trkpt>
      <trkpt lat="46.38559" lon="-1.16453">
        <ele>44.652023</ele>
        <time>2022-12-19T13:30:54.363Z</time>
      </trkpt>
      <trkpt lat="46.38556" lon="-1.16437">
        <ele>44.536623</ele>
        <time>2022-12-19T13:30:57.369Z</time>
      </trkpt>
      <trkpt lat="46.38553" lon="-1.1642">
        <ele>44.414433</ele>
        <time>2022-12-19T13:31:00.353Z</time>
      </trkpt>
      <trkpt lat="46.3855" lon="-1.16402">
        <ele>44.285653</ele>
        <time>2022-12-19T13:31:03.334Z</time>
      </trkpt>
      <trkpt lat="46.38547" lon="-1.16384">
        <ele>44.153915</ele>
        <time>2022-12-19T13:31:06.353Z</time>
      </trkpt>
      <trkpt lat="46.38544" lon="-1.16366">
        <ele>44.023327</ele>
        <time>2022-12-19T13:31:09.343Z</time>
      </trkpt>
      <trkpt lat="46.38542" lon="-1.16347">
        <ele>43.892058</ele>
        <time>2022-12-19T13:31:12.361Z</time>
      </trkpt>
      <trkpt lat="46.38538" lon="-1.16329">
        <ele>43.759821</ele>
        <time>2022-12-19T13:31:15.356Z</time>
      </trkpt>
      <trkpt lat="46.38536" lon="-1.16316">
        <ele>43.666235</ele>
        <time>2022-12-19T13:31:17.351Z</time>
      </trkpt>
      <trkpt lat="46.38534" lon="-1.16303">
        <ele>43.683625</ele>
        <time>2022-12-19T13:31:19.397Z</time>
      </trkpt>
      <trkpt lat="46.38532" lon="-1.1629">
        <ele>43.780743</ele>
        <time>2022-12-19T13:31:21.356Z</time>
      </trkpt>
      <trkpt lat="46.38529" lon="-1.16277">
        <ele>43.875812</ele>
        <time>2022-12-19T13:31:23.354Z</time>
      </trkpt>
      <trkpt lat="46.38527" lon="-1.16264">
        <ele>43.970595</ele>
        <time>2022-12-19T13:31:25.344Z</time>
      </trkpt>
      <trkpt lat="46.38525" lon="-1.1625">
        <ele>44.067029</ele>
        <time>2022-12-19T13:31:27.353Z</time>
      </trkpt>
      <trkpt lat="46.38523" lon="-1.16238">
        <ele>44.159744</ele>
        <time>2022-12-19T13:31:29.360Z</time>
      </trkpt>
      <trkpt lat="46.38521" lon="-1.16225">
        <ele>44.254991</ele>
        <time>2022-12-19T13:31:31.345Z</time>
      </trkpt>
      <trkpt lat="46.38518" lon="-1.16206">
        <ele>44.389728</ele>
        <time>2022-12-19T13:31:34.360Z</time>
      </trkpt>
      <trkpt lat="46.38514" lon="-1.16187">
        <ele>44.528242</ele>
        <time>2022-12-19T13:31:37.356Z</time>
      </trkpt>
      <trkpt lat="46.3851" lon="-1.16168">
        <ele>44.668799</ele>
        <time>2022-12-19T13:31:40.340Z</time>
      </trkpt>
      <trkpt lat="46.38508" lon="-1.16149">
        <ele>44.803075</ele>
        <time>2022-12-19T13:31:43.352Z</time>
      </trkpt>
      <trkpt lat="46.38505" lon="-1.16132">
        <ele>44.930314</ele>
        <time>2022-12-19T13:31:46.358Z</time>
      </trkpt>
      <trkpt lat="46.38503" lon="-1.16115">
        <ele>45.050112</ele>
        <time>2022-12-19T13:31:49.345Z</time>
      </trkpt>
      <trkpt lat="46.385" lon="-1.16098">
        <ele>45.175196</ele>
        <time>2022-12-19T13:31:52.352Z</time>
      </trkpt>
      <trkpt lat="46.38497" lon="-1.16079">
        <ele>45.312924</ele>
        <time>2022-12-19T13:31:55.360Z</time>
      </trkpt>
      <trkpt lat="46.38494" lon="-1.16066">
        <ele>45.406559</ele>
        <time>2022-12-19T13:31:57.355Z</time>
      </trkpt>
      <trkpt lat="46.38492" lon="-1.16053">
        <ele>45.484927</ele>
        <time>2022-12-19T13:31:59.352Z</time>
      </trkpt>
      <trkpt lat="46.3849" lon="-1.16039">
        <ele>45.533095</ele>
        <time>2022-12-19T13:32:01.356Z</time>
      </trkpt>
      <trkpt lat="46.38488" lon="-1.16026">
        <ele>45.578968</ele>
        <time>2022-12-19T13:32:03.359Z</time>
      </trkpt>
      <trkpt lat="46.38485" lon="-1.16013">
        <ele>45.624455</ele>
        <time>2022-12-19T13:32:05.349Z</time>
      </trkpt>
      <trkpt lat="46.38483" lon="-1.16">
        <ele>45.671625</ele>
        <time>2022-12-19T13:32:07.358Z</time>
      </trkpt>
      <trkpt lat="46.38482" lon="-1.15986">
        <ele>45.717073</ele>
        <time>2022-12-19T13:32:09.358Z</time>
      </trkpt>
      <trkpt lat="46.38479" lon="-1.15973">
        <ele>45.763947</ele>
        <time>2022-12-19T13:32:11.400Z</time>
      </trkpt>
      <trkpt lat="46.38477" lon="-1.1596">
        <ele>45.808924</ele>
        <time>2022-12-19T13:32:13.350Z</time>
      </trkpt>
      <trkpt lat="46.38474" lon="-1.15946">
        <ele>45.857542</ele>
        <time>2022-12-19T13:32:15.352Z</time>
      </trkpt>
      <trkpt lat="46.38471" lon="-1.15928">
        <ele>45.922084</ele>
        <time>2022-12-19T13:32:18.352Z</time>
      </trkpt>
      <trkpt lat="46.38468" lon="-1.15909">
        <ele>45.986405</ele>
        <time>2022-12-19T13:32:21.359Z</time>
      </trkpt>
      <trkpt lat="46.38465" lon="-1.1589">
        <ele>46.054026</ele>
        <time>2022-12-19T13:32:24.359Z</time>
      </trkpt>
      <trkpt lat="46.38463" lon="-1.15877">
        <ele>46.098921</ele>
        <time>2022-12-19T13:32:26.343Z</time>
      </trkpt>
      <trkpt lat="46.38459" lon="-1.15858">
        <ele>46.166263</ele>
        <time>2022-12-19T13:32:29.362Z</time>
      </trkpt>
      <trkpt lat="46.38457" lon="-1.15845">
        <ele>46.212443</ele>
        <time>2022-12-19T13:32:31.352Z</time>
      </trkpt>
      <trkpt lat="46.38455" lon="-1.15827">
        <ele>46.274588</ele>
        <time>2022-12-19T13:32:34.422Z</time>
      </trkpt>
      <trkpt lat="46.38451" lon="-1.1581">
        <ele>46.334599</ele>
        <time>2022-12-19T13:32:37.360Z</time>
      </trkpt>
      <trkpt lat="46.38448" lon="-1.15793">
        <ele>46.322357</ele>
        <time>2022-12-19T13:32:40.415Z</time>
      </trkpt>
      <trkpt lat="46.38444" lon="-1.15775">
        <ele>46.275315</ele>
        <time>2022-12-19T13:32:43.363Z</time>
      </trkpt>
      <trkpt lat="46.38439" lon="-1.15756">
        <ele>46.224695</ele>
        <time>2022-12-19T13:32:46.410Z</time>
      </trkpt>
      <trkpt lat="46.38436" lon="-1.15743">
        <ele>46.19035</ele>
        <time>2022-12-19T13:32:48.350Z</time>
      </trkpt>
      <trkpt lat="46.38431" lon="-1.15725">
        <ele>46.141859</ele>
        <time>2022-12-19T13:32:51.361Z</time>
      </trkpt>
      <trkpt lat="46.38428" lon="-1.15713">
        <ele>46.108341</ele>
        <time>2022-12-19T13:32:53.357Z</time>
      </trkpt>
      <trkpt lat="46.38424" lon="-1.15696">
        <ele>46.063824</ele>
        <time>2022-12-19T13:32:56.352Z</time>
      </trkpt>
      <trkpt lat="46.3842" lon="-1.1568">
        <ele>46.019534</ele>
        <time>2022-12-19T13:32:59.365Z</time>
      </trkpt>
      <trkpt lat="46.38415" lon="-1.15662">
        <ele>45.971989</ele>
        <time>2022-12-19T13:33:02.352Z</time>
      </trkpt>
      <trkpt lat="46.38412" lon="-1.15645">
        <ele>45.925298</ele>
        <time>2022-12-19T13:33:05.359Z</time>
      </trkpt>
      <trkpt lat="46.38407" lon="-1.15627">
        <ele>45.877012</ele>
        <time>2022-12-19T13:33:08.399Z</time>
      </trkpt>
      <trkpt lat="46.38403" lon="-1.15614">
        <ele>45.841076</ele>
        <time>2022-12-19T13:33:10.350Z</time>
      </trkpt>
      <trkpt lat="46.384" lon="-1.15601">
        <ele>45.805877</ele>
        <time>2022-12-19T13:33:12.350Z</time>
      </trkpt>
      <trkpt lat="46.38396" lon="-1.15588">
        <ele>45.770693</ele>
        <time>2022-12-19T13:33:14.416Z</time>
      </trkpt>
      <trkpt lat="46.38393" lon="-1.15576">
        <ele>45.73738</ele>
        <time>2022-12-19T13:33:16.351Z</time>
      </trkpt>
      <trkpt lat="46.3839" lon="-1.15563">
        <ele>45.70346</ele>
        <time>2022-12-19T13:33:18.360Z</time>
      </trkpt>
      <trkpt lat="46.38386" lon="-1.15551">
        <ele>45.690443</ele>
        <time>2022-12-19T13:33:20.381Z</time>
      </trkpt>
      <trkpt lat="46.38383" lon="-1.15538">
        <ele>45.686529</ele>
        <time>2022-12-19T13:33:22.358Z</time>
      </trkpt>
      <trkpt lat="46.3838" lon="-1.15525">
        <ele>45.682547</ele>
        <time>2022-12-19T13:33:24.366Z</time>
      </trkpt>
      <trkpt lat="46.38377" lon="-1.15511">
        <ele>45.678389</ele>
        <time>2022-12-19T13:33:26.417Z</time>
      </trkpt>
      <trkpt lat="46.38373" lon="-1.15493">
        <ele>45.673012</ele>
        <time>2022-12-19T13:33:29.359Z</time>
      </trkpt>
      <trkpt lat="46.38369" lon="-1.15478">
        <ele>45.668378</ele>
        <time>2022-12-19T13:33:32.335Z</time>
      </trkpt>
      <trkpt lat="46.38365" lon="-1.15462">
        <ele>45.663489</ele>
        <time>2022-12-19T13:33:35.346Z</time>
      </trkpt>
      <trkpt lat="46.3836" lon="-1.15447">
        <ele>45.65875</ele>
        <time>2022-12-19T13:33:38.361Z</time>
      </trkpt>
      <trkpt lat="46.38356" lon="-1.15431">
        <ele>45.653711</ele>
        <time>2022-12-19T13:33:41.363Z</time>
      </trkpt>
      <trkpt lat="46.38351" lon="-1.15413">
        <ele>45.648441</ele>
        <time>2022-12-19T13:33:44.367Z</time>
      </trkpt>
      <trkpt lat="46.38347" lon="-1.15396">
        <ele>45.643076</ele>
        <time>2022-12-19T13:33:47.359Z</time>
      </trkpt>
      <trkpt lat="46.38342" lon="-1.15377">
        <ele>45.637454</ele>
        <time>2022-12-19T13:33:50.348Z</time>
      </trkpt>
      <trkpt lat="46.38339" lon="-1.15365">
        <ele>45.633684</ele>
        <time>2022-12-19T13:33:52.360Z</time>
      </trkpt>
      <trkpt lat="46.38336" lon="-1.15353">
        <ele>45.629811</ele>
        <time>2022-12-19T13:33:54.361Z</time>
      </trkpt>
      <trkpt lat="46.38332" lon="-1.15334">
        <ele>45.62437</ele>
        <time>2022-12-19T13:33:57.363Z</time>
      </trkpt>
      <trkpt lat="46.38329" lon="-1.15321">
        <ele>45.620523</ele>
        <time>2022-12-19T13:33:59.353Z</time>
      </trkpt>
      <trkpt lat="46.38325" lon="-1.15302">
        <ele>45.709251</ele>
        <time>2022-12-19T13:34:02.356Z</time>
      </trkpt>
      <trkpt lat="46.38323" lon="-1.15289">
        <ele>45.814317</ele>
        <time>2022-12-19T13:34:04.355Z</time>
      </trkpt>
      <trkpt lat="46.38321" lon="-1.15276">
        <ele>45.912415</ele>
        <time>2022-12-19T13:34:06.338Z</time>
      </trkpt>
      <trkpt lat="46.3832" lon="-1.15262">
        <ele>46.017455</ele>
        <time>2022-12-19T13:34:08.355Z</time>
      </trkpt>
      <trkpt lat="46.38318" lon="-1.15248">
        <ele>46.122666</ele>
        <time>2022-12-19T13:34:10.336Z</time>
      </trkpt>
      <trkpt lat="46.38317" lon="-1.15234">
        <ele>46.227877</ele>
        <time>2022-12-19T13:34:12.354Z</time>
      </trkpt>
      <trkpt lat="46.38315" lon="-1.1522">
        <ele>46.332184</ele>
        <time>2022-12-19T13:34:14.367Z</time>
      </trkpt>
      <trkpt lat="46.38314" lon="-1.15202">
        <ele>46.466996</ele>
        <time>2022-12-19T13:34:17.358Z</time>
      </trkpt>
      <trkpt lat="46.38312" lon="-1.15184">
        <ele>46.596891</ele>
        <time>2022-12-19T13:34:20.359Z</time>
      </trkpt>
      <trkpt lat="46.3831" lon="-1.15168">
        <ele>46.719162</ele>
        <time>2022-12-19T13:34:23.356Z</time>
      </trkpt>
      <trkpt lat="46.38309" lon="-1.15152">
        <ele>46.842696</ele>
        <time>2022-12-19T13:34:26.378Z</time>
      </trkpt>
      <trkpt lat="46.38307" lon="-1.15134">
        <ele>46.975646</ele>
        <time>2022-12-19T13:34:29.366Z</time>
      </trkpt>
      <trkpt lat="46.38306" lon="-1.15115">
        <ele>47.113879</ele>
        <time>2022-12-19T13:34:32.421Z</time>
      </trkpt>
      <trkpt lat="46.38304" lon="-1.15096">
        <ele>47.256401</ele>
        <time>2022-12-19T13:34:35.349Z</time>
      </trkpt>
      <trkpt lat="46.38304" lon="-1.15077">
        <ele>47.39875</ele>
        <time>2022-12-19T13:34:38.363Z</time>
      </trkpt>
      <trkpt lat="46.38304" lon="-1.15058">
        <ele>47.539621</ele>
        <time>2022-12-19T13:34:41.344Z</time>
      </trkpt>
      <trkpt lat="46.38305" lon="-1.15041">
        <ele>47.64981</ele>
        <time>2022-12-19T13:34:44.365Z</time>
      </trkpt>
      <trkpt lat="46.38307" lon="-1.15024">
        <ele>47.753523</ele>
        <time>2022-12-19T13:34:47.346Z</time>
      </trkpt>
      <trkpt lat="46.3831" lon="-1.15007">
        <ele>47.864687</ele>
        <time>2022-12-19T13:34:50.373Z</time>
      </trkpt>
      <trkpt lat="46.38315" lon="-1.1499">
        <ele>47.979476</ele>
        <time>2022-12-19T13:34:53.352Z</time>
      </trkpt>
      <trkpt lat="46.38321" lon="-1.14972">
        <ele>48.101145</ele>
        <time>2022-12-19T13:34:56.353Z</time>
      </trkpt>
      <trkpt lat="46.38325" lon="-1.1496">
        <ele>48.185133</ele>
        <time>2022-12-19T13:34:58.355Z</time>
      </trkpt>
      <trkpt lat="46.3833" lon="-1.14948">
        <ele>48.269512</ele>
        <time>2022-12-19T13:35:00.418Z</time>
      </trkpt>
      <trkpt lat="46.38334" lon="-1.14936">
        <ele>48.356395</ele>
        <time>2022-12-19T13:35:02.364Z</time>
      </trkpt>
      <trkpt lat="46.38339" lon="-1.14924">
        <ele>48.440617</ele>
        <time>2022-12-19T13:35:04.354Z</time>
      </trkpt>
      <trkpt lat="46.38343" lon="-1.14912">
        <ele>48.525337</ele>
        <time>2022-12-19T13:35:06.362Z</time>
      </trkpt>
      <trkpt lat="46.38348" lon="-1.149">
        <ele>48.612878</ele>
        <time>2022-12-19T13:35:08.352Z</time>
      </trkpt>
      <trkpt lat="46.38352" lon="-1.14888">
        <ele>48.695855</ele>
        <time>2022-12-19T13:35:10.350Z</time>
      </trkpt>
      <trkpt lat="46.38359" lon="-1.14872">
        <ele>48.814667</ele>
        <time>2022-12-19T13:35:13.350Z</time>
      </trkpt>
      <trkpt lat="46.38366" lon="-1.14858">
        <ele>48.91652</ele>
        <time>2022-12-19T13:35:16.357Z</time>
      </trkpt>
      <trkpt lat="46.38372" lon="-1.14845">
        <ele>49.014839</ele>
        <time>2022-12-19T13:35:19.364Z</time>
      </trkpt>
      <trkpt lat="46.38379" lon="-1.14834">
        <ele>49.10867</ele>
        <time>2022-12-19T13:35:22.451Z</time>
      </trkpt>
      <trkpt lat="46.38384" lon="-1.14821">
        <ele>49.198333</ele>
        <time>2022-12-19T13:35:25.360Z</time>
      </trkpt>
      <trkpt lat="46.38389" lon="-1.14809">
        <ele>49.27907</ele>
        <time>2022-12-19T13:35:28.341Z</time>
      </trkpt>
      <trkpt lat="46.38394" lon="-1.14792">
        <ele>49.380413</ele>
        <time>2022-12-19T13:35:31.359Z</time>
      </trkpt>
      <trkpt lat="46.38398" lon="-1.14779">
        <ele>49.453071</ele>
        <time>2022-12-19T13:35:33.427Z</time>
      </trkpt>
      <trkpt lat="46.384" lon="-1.14766">
        <ele>49.528371</ele>
        <time>2022-12-19T13:35:35.352Z</time>
      </trkpt>
      <trkpt lat="46.38402" lon="-1.14752">
        <ele>49.602787</ele>
        <time>2022-12-19T13:35:37.354Z</time>
      </trkpt>
      <trkpt lat="46.38403" lon="-1.14739">
        <ele>49.675161</ele>
        <time>2022-12-19T13:35:39.406Z</time>
      </trkpt>
      <trkpt lat="46.38402" lon="-1.14719">
        <ele>49.784053</ele>
        <time>2022-12-19T13:35:42.360Z</time>
      </trkpt>
      <trkpt lat="46.38401" lon="-1.14706">
        <ele>49.858742</ele>
        <time>2022-12-19T13:35:44.359Z</time>
      </trkpt>
      <trkpt lat="46.384" lon="-1.14693">
        <ele>49.931094</ele>
        <time>2022-12-19T13:35:46.358Z</time>
      </trkpt>
      <trkpt lat="46.38398" lon="-1.14679">
        <ele>50.00719</ele>
        <time>2022-12-19T13:35:48.356Z</time>
      </trkpt>
      <trkpt lat="46.38396" lon="-1.14666">
        <ele>50.080896</ele>
        <time>2022-12-19T13:35:50.352Z</time>
      </trkpt>
      <trkpt lat="46.38392" lon="-1.14649">
        <ele>50.177358</ele>
        <time>2022-12-19T13:35:53.341Z</time>
      </trkpt>
      <trkpt lat="46.38389" lon="-1.14634">
        <ele>50.261914</ele>
        <time>2022-12-19T13:35:56.363Z</time>
      </trkpt>
      <trkpt lat="46.38386" lon="-1.1462">
        <ele>50.345661</ele>
        <time>2022-12-19T13:35:59.338Z</time>
      </trkpt>
      <trkpt lat="46.38383" lon="-1.14605">
        <ele>50.432483</ele>
        <time>2022-12-19T13:36:02.362Z</time>
      </trkpt>
      <trkpt lat="46.3838" lon="-1.14591">
        <ele>50.50898</ele>
        <time>2022-12-19T13:36:05.356Z</time>
      </trkpt>
      <trkpt lat="46.38375" lon="-1.14576">
        <ele>50.596467</ele>
        <time>2022-12-19T13:36:09.427Z</time>
      </trkpt>
      <trkpt lat="46.38372" lon="-1.14564">
        <ele>50.459786</ele>
        <time>2022-12-19T13:36:13.356Z</time>
      </trkpt>
      <trkpt lat="46.38365" lon="-1.1454">
        <ele>50.179755</ele>
        <time>2022-12-19T13:37:09.365Z</time>
      </trkpt>
      <trkpt lat="46.38361" lon="-1.14528">
        <ele>50.038124</ele>
        <time>2022-12-19T13:37:12.362Z</time>
      </trkpt>
      <trkpt lat="46.38357" lon="-1.14515">
        <ele>49.879651</ele>
        <time>2022-12-19T13:37:15.354Z</time>
      </trkpt>
      <trkpt lat="46.38353" lon="-1.145">
        <ele>49.710378</ele>
        <time>2022-12-19T13:37:18.355Z</time>
      </trkpt>
      <trkpt lat="46.38348" lon="-1.14484">
        <ele>49.528568</ele>
        <time>2022-12-19T13:37:21.350Z</time>
      </trkpt>
      <trkpt lat="46.38343" lon="-1.14469">
        <ele>49.344445</ele>
        <time>2022-12-19T13:37:24.364Z</time>
      </trkpt>
      <trkpt lat="46.38338" lon="-1.14452">
        <ele>49.154793</ele>
        <time>2022-12-19T13:37:27.354Z</time>
      </trkpt>
      <trkpt lat="46.38333" lon="-1.14436">
        <ele>48.960025</ele>
        <time>2022-12-19T13:37:30.359Z</time>
      </trkpt>
      <trkpt lat="46.38328" lon="-1.14418">
        <ele>48.753174</ele>
        <time>2022-12-19T13:37:33.361Z</time>
      </trkpt>
      <trkpt lat="46.38323" lon="-1.14401">
        <ele>48.548655</ele>
        <time>2022-12-19T13:37:36.362Z</time>
      </trkpt>
      <trkpt lat="46.38317" lon="-1.14383">
        <ele>48.339627</ele>
        <time>2022-12-19T13:37:39.362Z</time>
      </trkpt>
      <trkpt lat="46.38311" lon="-1.14365">
        <ele>48.130916</ele>
        <time>2022-12-19T13:37:42.355Z</time>
      </trkpt>
      <trkpt lat="46.38306" lon="-1.14347">
        <ele>47.927234</ele>
        <time>2022-12-19T13:37:45.366Z</time>
      </trkpt>
      <trkpt lat="46.38301" lon="-1.1433">
        <ele>47.790412</ele>
        <time>2022-12-19T13:37:48.352Z</time>
      </trkpt>
      <trkpt lat="46.38296" lon="-1.14313">
        <ele>47.748609</ele>
        <time>2022-12-19T13:37:51.339Z</time>
      </trkpt>
      <trkpt lat="46.38291" lon="-1.14295">
        <ele>47.70701</ele>
        <time>2022-12-19T13:37:54.433Z</time>
      </trkpt>
      <trkpt lat="46.38286" lon="-1.14279">
        <ele>47.666906</ele>
        <time>2022-12-19T13:37:57.354Z</time>
      </trkpt>
      <trkpt lat="46.38281" lon="-1.14262">
        <ele>47.626931</ele>
        <time>2022-12-19T13:38:00.396Z</time>
      </trkpt>
      <trkpt lat="46.38276" lon="-1.14247">
        <ele>47.590098</ele>
        <time>2022-12-19T13:38:03.362Z</time>
      </trkpt>
      <trkpt lat="46.38272" lon="-1.14233">
        <ele>47.555811</ele>
        <time>2022-12-19T13:38:06.342Z</time>
      </trkpt>
      <trkpt lat="46.38267" lon="-1.14218">
        <ele>47.519838</ele>
        <time>2022-12-19T13:38:09.361Z</time>
      </trkpt>
      <trkpt lat="46.38263" lon="-1.14203">
        <ele>47.484069</ele>
        <time>2022-12-19T13:38:12.363Z</time>
      </trkpt>
      <trkpt lat="46.38258" lon="-1.14187">
        <ele>47.447308</ele>
        <time>2022-12-19T13:38:15.364Z</time>
      </trkpt>
      <trkpt lat="46.38254" lon="-1.14171">
        <ele>47.408561</ele>
        <time>2022-12-19T13:38:18.363Z</time>
      </trkpt>
      <trkpt lat="46.38249" lon="-1.14157">
        <ele>47.373338</ele>
        <time>2022-12-19T13:38:21.349Z</time>
      </trkpt>
      <trkpt lat="46.38245" lon="-1.14143">
        <ele>47.339651</ele>
        <time>2022-12-19T13:38:24.365Z</time>
      </trkpt>
      <trkpt lat="46.3824" lon="-1.14128">
        <ele>47.304561</ele>
        <time>2022-12-19T13:38:27.352Z</time>
      </trkpt>
      <trkpt lat="46.38236" lon="-1.14113">
        <ele>47.268588</ele>
        <time>2022-12-19T13:38:30.353Z</time>
      </trkpt>
      <trkpt lat="46.38231" lon="-1.14098">
        <ele>47.233179</ele>
        <time>2022-12-19T13:38:33.360Z</time>
      </trkpt>
      <trkpt lat="46.38226" lon="-1.14082">
        <ele>47.274087</ele>
        <time>2022-12-19T13:38:36.347Z</time>
      </trkpt>
      <trkpt lat="46.38221" lon="-1.14066">
        <ele>47.314225</ele>
        <time>2022-12-19T13:38:39.366Z</time>
      </trkpt>
      <trkpt lat="46.38216" lon="-1.1405">
        <ele>47.355967</ele>
        <time>2022-12-19T13:38:42.352Z</time>
      </trkpt>
      <trkpt lat="46.38211" lon="-1.14033">
        <ele>47.398341</ele>
        <time>2022-12-19T13:38:45.363Z</time>
      </trkpt>
      <trkpt lat="46.38206" lon="-1.14017">
        <ele>47.439385</ele>
        <time>2022-12-19T13:38:48.360Z</time>
      </trkpt>
      <trkpt lat="46.38202" lon="-1.14001">
        <ele>47.478424</ele>
        <time>2022-12-19T13:38:51.355Z</time>
      </trkpt>
      <trkpt lat="46.38198" lon="-1.13986">
        <ele>47.515138</ele>
        <time>2022-12-19T13:38:54.359Z</time>
      </trkpt>
      <trkpt lat="46.38194" lon="-1.13971">
        <ele>47.551652</ele>
        <time>2022-12-19T13:38:57.353Z</time>
      </trkpt>
      <trkpt lat="46.38192" lon="-1.13955">
        <ele>47.589676</ele>
        <time>2022-12-19T13:39:00.362Z</time>
      </trkpt>
      <trkpt lat="46.3819" lon="-1.13937">
        <ele>47.631895</ele>
        <time>2022-12-19T13:39:03.363Z</time>
      </trkpt>
      <trkpt lat="46.38188" lon="-1.13919">
        <ele>47.674465</ele>
        <time>2022-12-19T13:39:06.340Z</time>
      </trkpt>
      <trkpt lat="46.38186" lon="-1.13902">
        <ele>47.714878</ele>
        <time>2022-12-19T13:39:09.356Z</time>
      </trkpt>
      <trkpt lat="46.38185" lon="-1.13885">
        <ele>47.753095</ele>
        <time>2022-12-19T13:39:12.362Z</time>
      </trkpt>
      <trkpt lat="46.38183" lon="-1.13869">
        <ele>47.792001</ele>
        <time>2022-12-19T13:39:15.364Z</time>
      </trkpt>
      <trkpt lat="46.38182" lon="-1.13852">
        <ele>47.831681</ele>
        <time>2022-12-19T13:39:18.347Z</time>
      </trkpt>
      <trkpt lat="46.38179" lon="-1.13834">
        <ele>47.836606</ele>
        <time>2022-12-19T13:39:21.366Z</time>
      </trkpt>
      <trkpt lat="46.38177" lon="-1.13815">
        <ele>47.837876</ele>
        <time>2022-12-19T13:39:24.363Z</time>
      </trkpt>
      <trkpt lat="46.38175" lon="-1.13795">
        <ele>47.839258</ele>
        <time>2022-12-19T13:39:27.359Z</time>
      </trkpt>
      <trkpt lat="46.38172" lon="-1.13777">
        <ele>47.84051</ele>
        <time>2022-12-19T13:39:30.351Z</time>
      </trkpt>
      <trkpt lat="46.3817" lon="-1.1376">
        <ele>47.841675</ele>
        <time>2022-12-19T13:39:33.361Z</time>
      </trkpt>
      <trkpt lat="46.38166" lon="-1.13744">
        <ele>47.842825</ele>
        <time>2022-12-19T13:39:36.360Z</time>
      </trkpt>
      <trkpt lat="46.38161" lon="-1.13727">
        <ele>47.84407</ele>
        <time>2022-12-19T13:39:39.363Z</time>
      </trkpt>
      <trkpt lat="46.38154" lon="-1.1371">
        <ele>47.845352</ele>
        <time>2022-12-19T13:39:42.360Z</time>
      </trkpt>
      <trkpt lat="46.38145" lon="-1.13697">
        <ele>47.846596</ele>
        <time>2022-12-19T13:39:45.352Z</time>
      </trkpt>
      <trkpt lat="46.38144" lon="-1.1368">
        <ele>47.847793</ele>
        <time>2022-12-19T13:39:48.351Z</time>
      </trkpt>
      <trkpt lat="46.38147" lon="-1.13662">
        <ele>47.849077</ele>
        <time>2022-12-19T13:39:51.404Z</time>
      </trkpt>
      <trkpt lat="46.38151" lon="-1.13643">
        <ele>47.850397</ele>
        <time>2022-12-19T13:39:54.365Z</time>
      </trkpt>
      <trkpt lat="46.38153" lon="-1.1363">
        <ele>47.851279</ele>
        <time>2022-12-19T13:39:56.343Z</time>
      </trkpt>
      <trkpt lat="46.38153" lon="-1.13617">
        <ele>47.852171</ele>
        <time>2022-12-19T13:39:58.363Z</time>
      </trkpt>
      <trkpt lat="46.38154" lon="-1.13598">
        <ele>47.851959</ele>
        <time>2022-12-19T13:40:01.366Z</time>
      </trkpt>
      <trkpt lat="46.38155" lon="-1.13579">
        <ele>47.848454</ele>
        <time>2022-12-19T13:40:04.356Z</time>
      </trkpt>
      <trkpt lat="46.38157" lon="-1.1356">
        <ele>47.844954</ele>
        <time>2022-12-19T13:40:07.360Z</time>
      </trkpt>
      <trkpt lat="46.3816" lon="-1.13543">
        <ele>47.84153</ele>
        <time>2022-12-19T13:40:10.362Z</time>
      </trkpt>
      <trkpt lat="46.38162" lon="-1.13525">
        <ele>47.838256</ele>
        <time>2022-12-19T13:40:13.397Z</time>
      </trkpt>
      <trkpt lat="46.38164" lon="-1.13509">
        <ele>47.83516</ele>
        <time>2022-12-19T13:40:16.354Z</time>
      </trkpt>
      <trkpt lat="46.38167" lon="-1.13492">
        <ele>47.831919</ele>
        <time>2022-12-19T13:40:19.363Z</time>
      </trkpt>
      <trkpt lat="46.3817" lon="-1.13474">
        <ele>47.828453</ele>
        <time>2022-12-19T13:40:22.353Z</time>
      </trkpt>
      <trkpt lat="46.38172" lon="-1.13456">
        <ele>47.824906</ele>
        <time>2022-12-19T13:40:25.361Z</time>
      </trkpt>
      <trkpt lat="46.38174" lon="-1.13437">
        <ele>47.821346</ele>
        <time>2022-12-19T13:40:28.351Z</time>
      </trkpt>
      <trkpt lat="46.38177" lon="-1.13418">
        <ele>47.817805</ele>
        <time>2022-12-19T13:40:31.362Z</time>
      </trkpt>
      <trkpt lat="46.38179" lon="-1.134">
        <ele>47.814253</ele>
        <time>2022-12-19T13:40:34.353Z</time>
      </trkpt>
      <trkpt lat="46.38182" lon="-1.13381">
        <ele>47.810677</ele>
        <time>2022-12-19T13:40:37.336Z</time>
      </trkpt>
      <trkpt lat="46.38184" lon="-1.13368">
        <ele>47.808227</ele>
        <time>2022-12-19T13:40:39.363Z</time>
      </trkpt>
      <trkpt lat="46.38186" lon="-1.13355">
        <ele>47.805721</ele>
        <time>2022-12-19T13:40:41.361Z</time>
      </trkpt>
      <trkpt lat="46.38188" lon="-1.13342">
        <ele>47.839402</ele>
        <time>2022-12-19T13:40:43.362Z</time>
      </trkpt>
      <trkpt lat="46.3819" lon="-1.13329">
        <ele>47.92159</ele>
        <time>2022-12-19T13:40:45.355Z</time>
      </trkpt>
      <trkpt lat="46.38192" lon="-1.13316">
        <ele>48.001511</ele>
        <time>2022-12-19T13:40:47.341Z</time>
      </trkpt>
      <trkpt lat="46.38195" lon="-1.13303">
        <ele>48.08285</ele>
        <time>2022-12-19T13:40:49.353Z</time>
      </trkpt>
      <trkpt lat="46.38197" lon="-1.13291">
        <ele>48.163707</ele>
        <time>2022-12-19T13:40:51.440Z</time>
      </trkpt>
      <trkpt lat="46.38202" lon="-1.13272">
        <ele>48.282233</ele>
        <time>2022-12-19T13:40:54.353Z</time>
      </trkpt>
      <trkpt lat="46.38206" lon="-1.13257">
        <ele>48.384565</ele>
        <time>2022-12-19T13:40:57.412Z</time>
      </trkpt>
      <trkpt lat="46.38211" lon="-1.13241">
        <ele>48.489976</ele>
        <time>2022-12-19T13:41:00.363Z</time>
      </trkpt>
      <trkpt lat="46.38216" lon="-1.13224">
        <ele>48.60263</ele>
        <time>2022-12-19T13:41:03.431Z</time>
      </trkpt>
      <trkpt lat="46.38223" lon="-1.13208">
        <ele>48.716628</ele>
        <time>2022-12-19T13:41:06.361Z</time>
      </trkpt>
      <trkpt lat="46.38229" lon="-1.13191">
        <ele>48.830957</ele>
        <time>2022-12-19T13:41:09.409Z</time>
      </trkpt>
      <trkpt lat="46.38233" lon="-1.1318">
        <ele>48.912613</ele>
        <time>2022-12-19T13:41:11.367Z</time>
      </trkpt>
      <trkpt lat="46.38239" lon="-1.13168">
        <ele>48.994419</ele>
        <time>2022-12-19T13:41:13.362Z</time>
      </trkpt>
      <trkpt lat="46.38244" lon="-1.13157">
        <ele>49.082229</ele>
        <time>2022-12-19T13:41:15.422Z</time>
      </trkpt>
      <trkpt lat="46.3825" lon="-1.13145">
        <ele>49.171066</ele>
        <time>2022-12-19T13:41:17.363Z</time>
      </trkpt>
      <trkpt lat="46.38256" lon="-1.13132">
        <ele>49.261898</ele>
        <time>2022-12-19T13:41:19.364Z</time>
      </trkpt>
      <trkpt lat="46.38261" lon="-1.1312">
        <ele>49.350229</ele>
        <time>2022-12-19T13:41:21.414Z</time>
      </trkpt>
      <trkpt lat="46.38266" lon="-1.13107">
        <ele>49.412083</ele>
        <time>2022-12-19T13:41:23.361Z</time>
      </trkpt>
      <trkpt lat="46.38269" lon="-1.13093">
        <ele>49.445185</ele>
        <time>2022-12-19T13:41:25.363Z</time>
      </trkpt>
      <trkpt lat="46.38271" lon="-1.13079">
        <ele>49.478219</ele>
        <time>2022-12-19T13:41:27.414Z</time>
      </trkpt>
      <trkpt lat="46.38273" lon="-1.13066">
        <ele>49.508855</ele>
        <time>2022-12-19T13:41:29.362Z</time>
      </trkpt>
      <trkpt lat="46.38274" lon="-1.13052">
        <ele>49.54086</ele>
        <time>2022-12-19T13:41:31.364Z</time>
      </trkpt>
      <trkpt lat="46.38272" lon="-1.13039">
        <ele>49.571267</ele>
        <time>2022-12-19T13:41:33.416Z</time>
      </trkpt>
      <trkpt lat="46.38269" lon="-1.13026">
        <ele>49.603403</ele>
        <time>2022-12-19T13:41:35.341Z</time>
      </trkpt>
      <trkpt lat="46.38267" lon="-1.13013">
        <ele>49.634281</ele>
        <time>2022-12-19T13:41:37.360Z</time>
      </trkpt>
      <trkpt lat="46.38264" lon="-1.13">
        <ele>49.665975</ele>
        <time>2022-12-19T13:41:39.392Z</time>
      </trkpt>
      <trkpt lat="46.38259" lon="-1.12982">
        <ele>49.710574</ele>
        <time>2022-12-19T13:41:42.362Z</time>
      </trkpt>
      <trkpt lat="46.38255" lon="-1.12965">
        <ele>49.753759</ele>
        <time>2022-12-19T13:41:45.445Z</time>
      </trkpt>
      <trkpt lat="46.38251" lon="-1.1295">
        <ele>49.789389</ele>
        <time>2022-12-19T13:41:48.352Z</time>
      </trkpt>
      <trkpt lat="46.38246" lon="-1.12937">
        <ele>49.824758</ele>
        <time>2022-12-19T13:41:51.364Z</time>
      </trkpt>
      <trkpt lat="46.3824" lon="-1.12922">
        <ele>49.864462</ele>
        <time>2022-12-19T13:41:54.361Z</time>
      </trkpt>
      <trkpt lat="46.38234" lon="-1.12906">
        <ele>49.906873</ele>
        <time>2022-12-19T13:41:57.365Z</time>
      </trkpt>
      <trkpt lat="46.38227" lon="-1.12889">
        <ele>49.951792</ele>
        <time>2022-12-19T13:42:00.341Z</time>
      </trkpt>
      <trkpt lat="46.38221" lon="-1.12872">
        <ele>49.995549</ele>
        <time>2022-12-19T13:42:03.354Z</time>
      </trkpt>
      <trkpt lat="46.38216" lon="-1.12861">
        <ele>49.916162</ele>
        <time>2022-12-19T13:42:05.362Z</time>
      </trkpt>
      <trkpt lat="46.38211" lon="-1.12849">
        <ele>49.830368</ele>
        <time>2022-12-19T13:42:07.361Z</time>
      </trkpt>
      <trkpt lat="46.38205" lon="-1.12832">
        <ele>49.717223</ele>
        <time>2022-12-19T13:42:10.351Z</time>
      </trkpt>
      <trkpt lat="46.38199" lon="-1.12816">
        <ele>49.605475</ele>
        <time>2022-12-19T13:42:13.421Z</time>
      </trkpt>
      <trkpt lat="46.38193" lon="-1.12799">
        <ele>49.488924</ele>
        <time>2022-12-19T13:42:16.363Z</time>
      </trkpt>
      <trkpt lat="46.38188" lon="-1.12786">
        <ele>49.400524</ele>
        <time>2022-12-19T13:42:18.361Z</time>
      </trkpt>
      <trkpt lat="46.38184" lon="-1.12772">
        <ele>49.309342</ele>
        <time>2022-12-19T13:42:20.359Z</time>
      </trkpt>
      <trkpt lat="46.38179" lon="-1.12759">
        <ele>49.220721</ele>
        <time>2022-12-19T13:42:22.351Z</time>
      </trkpt>
      <trkpt lat="46.38175" lon="-1.12747">
        <ele>49.137889</ele>
        <time>2022-12-19T13:42:24.361Z</time>
      </trkpt>
      <trkpt lat="46.3817" lon="-1.12735">
        <ele>49.049944</ele>
        <time>2022-12-19T13:42:26.364Z</time>
      </trkpt>
      <trkpt lat="46.38165" lon="-1.12722">
        <ele>48.964962</ele>
        <time>2022-12-19T13:42:28.366Z</time>
      </trkpt>
      <trkpt lat="46.38162" lon="-1.1271">
        <ele>48.883147</ele>
        <time>2022-12-19T13:42:30.338Z</time>
      </trkpt>
      <trkpt lat="46.38158" lon="-1.12698">
        <ele>48.802996</ele>
        <time>2022-12-19T13:42:32.342Z</time>
      </trkpt>
      <trkpt lat="46.38154" lon="-1.12685">
        <ele>48.716536</ele>
        <time>2022-12-19T13:42:34.351Z</time>
      </trkpt>
      <trkpt lat="46.3815" lon="-1.12673">
        <ele>48.6373</ele>
        <time>2022-12-19T13:42:36.361Z</time>
      </trkpt>
      <trkpt lat="46.38146" lon="-1.12661">
        <ele>48.558056</ele>
        <time>2022-12-19T13:42:38.362Z</time>
      </trkpt>
      <trkpt lat="46.38139" lon="-1.12644">
        <ele>48.440978</ele>
        <time>2022-12-19T13:42:41.356Z</time>
      </trkpt>
      <trkpt lat="46.38133" lon="-1.12628">
        <ele>48.555368</ele>
        <time>2022-12-19T13:42:44.356Z</time>
      </trkpt>
      <trkpt lat="46.38126" lon="-1.12612">
        <ele>48.724908</ele>
        <time>2022-12-19T13:42:47.343Z</time>
      </trkpt>
      <trkpt lat="46.38119" lon="-1.12596">
        <ele>48.898152</ele>
        <time>2022-12-19T13:42:50.341Z</time>
      </trkpt>
      <trkpt lat="46.38112" lon="-1.1258">
        <ele>49.073693</ele>
        <time>2022-12-19T13:42:53.364Z</time>
      </trkpt>
      <trkpt lat="46.38104" lon="-1.12565">
        <ele>49.244649</ele>
        <time>2022-12-19T13:42:56.359Z</time>
      </trkpt>
      <trkpt lat="46.381" lon="-1.12554">
        <ele>49.364815</ele>
        <time>2022-12-19T13:42:58.357Z</time>
      </trkpt>
      <trkpt lat="46.38095" lon="-1.12542">
        <ele>49.488358</ele>
        <time>2022-12-19T13:43:00.355Z</time>
      </trkpt>
      <trkpt lat="46.3809" lon="-1.12531">
        <ele>49.612802</ele>
        <time>2022-12-19T13:43:02.339Z</time>
      </trkpt>
      <trkpt lat="46.38084" lon="-1.12519">
        <ele>49.743134</ele>
        <time>2022-12-19T13:43:04.362Z</time>
      </trkpt>
      <trkpt lat="46.38079" lon="-1.12508">
        <ele>49.868276</ele>
        <time>2022-12-19T13:43:06.361Z</time>
      </trkpt>
      <trkpt lat="46.38073" lon="-1.12497">
        <ele>49.994144</ele>
        <time>2022-12-19T13:43:08.353Z</time>
      </trkpt>
      <trkpt lat="46.38067" lon="-1.12487">
        <ele>50.114708</ele>
        <time>2022-12-19T13:43:10.362Z</time>
      </trkpt>
      <trkpt lat="46.38061" lon="-1.12476">
        <ele>50.237194</ele>
        <time>2022-12-19T13:43:12.346Z</time>
      </trkpt>
      <trkpt lat="46.38054" lon="-1.12461">
        <ele>50.409727</ele>
        <time>2022-12-19T13:43:15.355Z</time>
      </trkpt>
      <trkpt lat="46.38047" lon="-1.12449">
        <ele>50.552841</ele>
        <time>2022-12-19T13:43:18.363Z</time>
      </trkpt>
      <trkpt lat="46.38041" lon="-1.12434">
        <ele>50.713253</ele>
        <time>2022-12-19T13:43:22.369Z</time>
      </trkpt>
      <trkpt lat="46.38035" lon="-1.12419">
        <ele>50.801317</ele>
        <time>2022-12-19T13:43:26.355Z</time>
      </trkpt>
      <trkpt lat="46.38032" lon="-1.12404">
        <ele>50.798399</ele>
        <time>2022-12-19T13:43:29.352Z</time>
      </trkpt>
      <trkpt lat="46.38029" lon="-1.12389">
        <ele>50.795592</ele>
        <time>2022-12-19T13:43:32.340Z</time>
      </trkpt>
      <trkpt lat="46.38026" lon="-1.12375">
        <ele>50.792916</ele>
        <time>2022-12-19T13:43:35.364Z</time>
      </trkpt>
      <trkpt lat="46.38021" lon="-1.12362">
        <ele>50.790177</ele>
        <time>2022-12-19T13:43:38.359Z</time>
      </trkpt>
      <trkpt lat="46.38018" lon="-1.12346">
        <ele>50.787198</ele>
        <time>2022-12-19T13:43:41.362Z</time>
      </trkpt>
      <trkpt lat="46.38014" lon="-1.1233">
        <ele>50.784115</ele>
        <time>2022-12-19T13:43:44.359Z</time>
      </trkpt>
      <trkpt lat="46.38011" lon="-1.12316">
        <ele>50.781272</ele>
        <time>2022-12-19T13:43:47.363Z</time>
      </trkpt>
      <trkpt lat="46.38009" lon="-1.12301">
        <ele>50.7786</ele>
        <time>2022-12-19T13:43:50.337Z</time>
      </trkpt>
      <trkpt lat="46.38009" lon="-1.12286">
        <ele>50.775843</ele>
        <time>2022-12-19T13:43:53.421Z</time>
      </trkpt>
      <trkpt lat="46.38011" lon="-1.1227">
        <ele>50.772894</ele>
        <time>2022-12-19T13:43:56.361Z</time>
      </trkpt>
      <trkpt lat="46.38011" lon="-1.12254">
        <ele>50.769798</ele>
        <time>2022-12-19T13:43:59.389Z</time>
      </trkpt>
      <trkpt lat="46.38014" lon="-1.12236">
        <ele>50.766461</ele>
        <time>2022-12-19T13:44:02.357Z</time>
      </trkpt>
      <trkpt lat="46.38017" lon="-1.12217">
        <ele>50.762981</ele>
        <time>2022-12-19T13:44:05.340Z</time>
      </trkpt>
      <trkpt lat="46.38021" lon="-1.12198">
        <ele>50.759348</ele>
        <time>2022-12-19T13:44:08.363Z</time>
      </trkpt>
      <trkpt lat="46.38024" lon="-1.12186">
        <ele>50.756808</ele>
        <time>2022-12-19T13:44:10.338Z</time>
      </trkpt>
      <trkpt lat="46.38028" lon="-1.12173">
        <ele>50.74078</ele>
        <time>2022-12-19T13:44:12.337Z</time>
      </trkpt>
      <trkpt lat="46.38031" lon="-1.1216">
        <ele>50.670245</ele>
        <time>2022-12-19T13:44:14.364Z</time>
      </trkpt>
      <trkpt lat="46.38034" lon="-1.12146">
        <ele>50.598299</ele>
        <time>2022-12-19T13:44:16.353Z</time>
      </trkpt>
      <trkpt lat="46.38037" lon="-1.12134">
        <ele>50.529239</ele>
        <time>2022-12-19T13:44:18.348Z</time>
      </trkpt>
      <trkpt lat="46.38042" lon="-1.12116">
        <ele>50.431194</ele>
        <time>2022-12-19T13:44:21.353Z</time>
      </trkpt>
      <trkpt lat="46.38047" lon="-1.12098">
        <ele>50.335672</ele>
        <time>2022-12-19T13:44:24.344Z</time>
      </trkpt>
      <trkpt lat="46.38051" lon="-1.12082">
        <ele>50.247054</ele>
        <time>2022-12-19T13:44:27.362Z</time>
      </trkpt>
      <trkpt lat="46.38055" lon="-1.12067">
        <ele>50.164221</ele>
        <time>2022-12-19T13:44:30.361Z</time>
      </trkpt>
      <trkpt lat="46.38057" lon="-1.1205">
        <ele>50.077516</ele>
        <time>2022-12-19T13:44:33.360Z</time>
      </trkpt>
      <trkpt lat="46.38057" lon="-1.12032">
        <ele>49.985054</ele>
        <time>2022-12-19T13:44:36.363Z</time>
      </trkpt>
      <trkpt lat="46.38054" lon="-1.12013">
        <ele>49.88566</ele>
        <time>2022-12-19T13:44:39.364Z</time>
      </trkpt>
      <trkpt lat="46.38051" lon="-1.12001">
        <ele>49.817813</ele>
        <time>2022-12-19T13:44:41.364Z</time>
      </trkpt>
      <trkpt lat="46.38047" lon="-1.11989">
        <ele>49.749198</ele>
        <time>2022-12-19T13:44:43.355Z</time>
      </trkpt>
      <trkpt lat="46.38042" lon="-1.11977">
        <ele>49.680583</ele>
        <time>2022-12-19T13:44:45.360Z</time>
      </trkpt>
      <trkpt lat="46.38038" lon="-1.11965">
        <ele>49.611588</ele>
        <time>2022-12-19T13:44:47.355Z</time>
      </trkpt>
      <trkpt lat="46.38033" lon="-1.11953">
        <ele>49.539545</ele>
        <time>2022-12-19T13:44:49.359Z</time>
      </trkpt>
      <trkpt lat="46.38028" lon="-1.1194">
        <ele>49.464603</ele>
        <time>2022-12-19T13:44:51.361Z</time>
      </trkpt>
      <trkpt lat="46.38023" lon="-1.11927">
        <ele>49.411707</ele>
        <time>2022-12-19T13:44:53.354Z</time>
      </trkpt>
      <trkpt lat="46.38018" lon="-1.11915">
        <ele>49.385058</ele>
        <time>2022-12-19T13:44:55.425Z</time>
      </trkpt>
      <trkpt lat="46.38012" lon="-1.11903">
        <ele>49.35826</ele>
        <time>2022-12-19T13:44:57.356Z</time>
      </trkpt>
      <trkpt lat="46.38005" lon="-1.11892">
        <ele>49.331982</ele>
        <time>2022-12-19T13:44:59.354Z</time>
      </trkpt>
      <trkpt lat="46.38" lon="-1.1188">
        <ele>49.306062</ele>
        <time>2022-12-19T13:45:01.398Z</time>
      </trkpt>
      <trkpt lat="46.37994" lon="-1.11869">
        <ele>49.281044</ele>
        <time>2022-12-19T13:45:03.358Z</time>
      </trkpt>
      <trkpt lat="46.37989" lon="-1.11858">
        <ele>49.257512</ele>
        <time>2022-12-19T13:45:05.353Z</time>
      </trkpt>
      <trkpt lat="46.37982" lon="-1.11843">
        <ele>49.224898</ele>
        <time>2022-12-19T13:45:08.348Z</time>
      </trkpt>
      <trkpt lat="46.37975" lon="-1.11829">
        <ele>49.193779</ele>
        <time>2022-12-19T13:45:11.365Z</time>
      </trkpt>
      <trkpt lat="46.37969" lon="-1.11815">
        <ele>49.163706</ele>
        <time>2022-12-19T13:45:14.362Z</time>
      </trkpt>
      <trkpt lat="46.37962" lon="-1.11802">
        <ele>49.132715</ele>
        <time>2022-12-19T13:45:17.365Z</time>
      </trkpt>
      <trkpt lat="46.37956" lon="-1.11787">
        <ele>49.102423</ele>
        <time>2022-12-19T13:45:20.345Z</time>
      </trkpt>
      <trkpt lat="46.3795" lon="-1.11772">
        <ele>49.071256</ele>
        <time>2022-12-19T13:45:23.343Z</time>
      </trkpt>
      <trkpt lat="46.37945" lon="-1.11757">
        <ele>49.04101</ele>
        <time>2022-12-19T13:45:26.356Z</time>
      </trkpt>
      <trkpt lat="46.37941" lon="-1.11741">
        <ele>49.009464</ele>
        <time>2022-12-19T13:45:29.450Z</time>
      </trkpt>
      <trkpt lat="46.37937" lon="-1.11724">
        <ele>48.977145</ele>
        <time>2022-12-19T13:45:32.364Z</time>
      </trkpt>
      <trkpt lat="46.37932" lon="-1.11707">
        <ele>48.943642</ele>
        <time>2022-12-19T13:45:35.341Z</time>
      </trkpt>
      <trkpt lat="46.37928" lon="-1.11689">
        <ele>48.910328</ele>
        <time>2022-12-19T13:45:38.363Z</time>
      </trkpt>
      <trkpt lat="46.37923" lon="-1.11673">
        <ele>48.877386</ele>
        <time>2022-12-19T13:45:41.362Z</time>
      </trkpt>
      <trkpt lat="46.37919" lon="-1.11656">
        <ele>48.844831</ele>
        <time>2022-12-19T13:45:44.365Z</time>
      </trkpt>
      <trkpt lat="46.37914" lon="-1.11639">
        <ele>48.812591</ele>
        <time>2022-12-19T13:45:47.362Z</time>
      </trkpt>
      <trkpt lat="46.37909" lon="-1.11623">
        <ele>48.781042</ele>
        <time>2022-12-19T13:45:50.354Z</time>
      </trkpt>
      <trkpt lat="46.37905" lon="-1.11607">
        <ele>48.750215</ele>
        <time>2022-12-19T13:45:53.353Z</time>
      </trkpt>
      <trkpt lat="46.37901" lon="-1.11591">
        <ele>48.718505</ele>
        <time>2022-12-19T13:45:56.427Z</time>
      </trkpt>
      <trkpt lat="46.37896" lon="-1.11575">
        <ele>48.686834</ele>
        <time>2022-12-19T13:45:59.362Z</time>
      </trkpt>
      <trkpt lat="46.37891" lon="-1.11559">
        <ele>48.655059</ele>
        <time>2022-12-19T13:46:02.425Z</time>
      </trkpt>
      <trkpt lat="46.37887" lon="-1.11542">
        <ele>48.623804</ele>
        <time>2022-12-19T13:46:05.342Z</time>
      </trkpt>
      <trkpt lat="46.37883" lon="-1.11526">
        <ele>48.5926</ele>
        <time>2022-12-19T13:46:08.337Z</time>
      </trkpt>
      <trkpt lat="46.37879" lon="-1.11511">
        <ele>48.562357</ele>
        <time>2022-12-19T13:46:11.359Z</time>
      </trkpt>
      <trkpt lat="46.37876" lon="-1.11497">
        <ele>48.536718</ele>
        <time>2022-12-19T13:46:14.362Z</time>
      </trkpt>
      <trkpt lat="46.37873" lon="-1.11481">
        <ele>48.506464</ele>
        <time>2022-12-19T13:46:18.411Z</time>
      </trkpt>
      <trkpt lat="46.37869" lon="-1.11466">
        <ele>48.487445</ele>
        <time>2022-12-19T13:46:22.354Z</time>
      </trkpt>
      <trkpt lat="46.37864" lon="-1.11455">
        <ele>48.558015</ele>
        <time>2022-12-19T13:46:25.362Z</time>
      </trkpt>
      <trkpt lat="46.37859" lon="-1.11441">
        <ele>48.643163</ele>
        <time>2022-12-19T13:46:28.363Z</time>
      </trkpt>
      <trkpt lat="46.37862" lon="-1.11424">
        <ele>48.734865</ele>
        <time>2022-12-19T13:46:31.343Z</time>
      </trkpt>
      <trkpt lat="46.37864" lon="-1.11408">
        <ele>48.824334</ele>
        <time>2022-12-19T13:46:34.337Z</time>
      </trkpt>
      <trkpt lat="46.37864" lon="-1.11391">
        <ele>48.91219</ele>
        <time>2022-12-19T13:46:37.366Z</time>
      </trkpt>
      <trkpt lat="46.37865" lon="-1.11374">
        <ele>49.002746</ele>
        <time>2022-12-19T13:46:40.357Z</time>
      </trkpt>
      <trkpt lat="46.37865" lon="-1.11356">
        <ele>49.099752</ele>
        <time>2022-12-19T13:46:43.347Z</time>
      </trkpt>
      <trkpt lat="46.37865" lon="-1.11338">
        <ele>49.195638</ele>
        <time>2022-12-19T13:46:46.364Z</time>
      </trkpt>
      <trkpt lat="46.37866" lon="-1.1132">
        <ele>49.294283</ele>
        <time>2022-12-19T13:46:49.372Z</time>
      </trkpt>
      <trkpt lat="46.37866" lon="-1.11301">
        <ele>49.394973</ele>
        <time>2022-12-19T13:46:52.362Z</time>
      </trkpt>
      <trkpt lat="46.37866" lon="-1.11282">
        <ele>49.496724</ele>
        <time>2022-12-19T13:46:55.364Z</time>
      </trkpt>
      <trkpt lat="46.37865" lon="-1.11263">
        <ele>49.599152</ele>
        <time>2022-12-19T13:46:58.364Z</time>
      </trkpt>
      <trkpt lat="46.37864" lon="-1.11244">
        <ele>49.701221</ele>
        <time>2022-12-19T13:47:01.347Z</time>
      </trkpt>
      <trkpt lat="46.37862" lon="-1.11231">
        <ele>49.771682</ele>
        <time>2022-12-19T13:47:03.364Z</time>
      </trkpt>
      <trkpt lat="46.3786" lon="-1.11213">
        <ele>49.871897</ele>
        <time>2022-12-19T13:47:06.366Z</time>
      </trkpt>
      <trkpt lat="46.37857" lon="-1.11195">
        <ele>49.731376</ele>
        <time>2022-12-19T13:47:09.367Z</time>
      </trkpt>
      <trkpt lat="46.37854" lon="-1.11178">
        <ele>49.587685</ele>
        <time>2022-12-19T13:47:12.362Z</time>
      </trkpt>
      <trkpt lat="46.3785" lon="-1.11161">
        <ele>49.44155</ele>
        <time>2022-12-19T13:47:15.362Z</time>
      </trkpt>
      <trkpt lat="46.37846" lon="-1.11145">
        <ele>49.296959</ele>
        <time>2022-12-19T13:47:18.344Z</time>
      </trkpt>
      <trkpt lat="46.3784" lon="-1.11129">
        <ele>49.149042</ele>
        <time>2022-12-19T13:47:21.363Z</time>
      </trkpt>
      <trkpt lat="46.37834" lon="-1.11113">
        <ele>49.00335</ele>
        <time>2022-12-19T13:47:24.363Z</time>
      </trkpt>
      <trkpt lat="46.37828" lon="-1.11099">
        <ele>48.862401</ele>
        <time>2022-12-19T13:47:27.361Z</time>
      </trkpt>
      <trkpt lat="46.37821" lon="-1.11084">
        <ele>48.714875</ele>
        <time>2022-12-19T13:47:30.346Z</time>
      </trkpt>
      <trkpt lat="46.37815" lon="-1.11069">
        <ele>48.56785</ele>
        <time>2022-12-19T13:47:33.367Z</time>
      </trkpt>
      <trkpt lat="46.37808" lon="-1.11053">
        <ele>48.420825</ele>
        <time>2022-12-19T13:47:36.343Z</time>
      </trkpt>
      <trkpt lat="46.37802" lon="-1.11037">
        <ele>48.269813</ele>
        <time>2022-12-19T13:47:39.365Z</time>
      </trkpt>
      <trkpt lat="46.37796" lon="-1.11022">
        <ele>48.122618</ele>
        <time>2022-12-19T13:47:42.365Z</time>
      </trkpt>
      <trkpt lat="46.37789" lon="-1.11006">
        <ele>47.972239</ele>
        <time>2022-12-19T13:47:45.363Z</time>
      </trkpt>
      <trkpt lat="46.37783" lon="-1.10992">
        <ele>47.835957</ele>
        <time>2022-12-19T13:47:48.351Z</time>
      </trkpt>
      <trkpt lat="46.37778" lon="-1.10979">
        <ele>47.735898</ele>
        <time>2022-12-19T13:47:51.345Z</time>
      </trkpt>
      <trkpt lat="46.37771" lon="-1.10965">
        <ele>47.758621</ele>
        <time>2022-12-19T13:47:54.361Z</time>
      </trkpt>
      <trkpt lat="46.37765" lon="-1.1095">
        <ele>47.781801</ele>
        <time>2022-12-19T13:47:57.423Z</time>
      </trkpt>
      <trkpt lat="46.37759" lon="-1.10936">
        <ele>47.805076</ele>
        <time>2022-12-19T13:48:00.348Z</time>
      </trkpt>
      <trkpt lat="46.37753" lon="-1.10921">
        <ele>47.828619</ele>
        <time>2022-12-19T13:48:03.362Z</time>
      </trkpt>
      <trkpt lat="46.37746" lon="-1.10906">
        <ele>47.852467</ele>
        <time>2022-12-19T13:48:06.362Z</time>
      </trkpt>
      <trkpt lat="46.3774" lon="-1.1089">
        <ele>47.876692</ele>
        <time>2022-12-19T13:48:09.364Z</time>
      </trkpt>
      <trkpt lat="46.37733" lon="-1.10874">
        <ele>47.901872</ele>
        <time>2022-12-19T13:48:12.359Z</time>
      </trkpt>
      <trkpt lat="46.37727" lon="-1.10858">
        <ele>47.92659</ele>
        <time>2022-12-19T13:48:15.362Z</time>
      </trkpt>
      <trkpt lat="46.37722" lon="-1.10844">
        <ele>47.947851</ele>
        <time>2022-12-19T13:48:18.363Z</time>
      </trkpt>
      <trkpt lat="46.37718" lon="-1.10831">
        <ele>47.968167</ele>
        <time>2022-12-19T13:48:21.344Z</time>
      </trkpt>
      <trkpt lat="46.37713" lon="-1.10817">
        <ele>47.989256</ele>
        <time>2022-12-19T13:48:24.364Z</time>
      </trkpt>
      <trkpt lat="46.37709" lon="-1.10802">
        <ele>48.010678</ele>
        <time>2022-12-19T13:48:27.358Z</time>
      </trkpt>
      <trkpt lat="46.37705" lon="-1.10788">
        <ele>48.030948</ele>
        <time>2022-12-19T13:48:30.374Z</time>
      </trkpt>
      <trkpt lat="46.37702" lon="-1.10774">
        <ele>48.050378</ele>
        <time>2022-12-19T13:48:33.357Z</time>
      </trkpt>
      <trkpt lat="46.37699" lon="-1.1076">
        <ele>48.070638</ele>
        <time>2022-12-19T13:48:36.364Z</time>
      </trkpt>
      <trkpt lat="46.37696" lon="-1.10746">
        <ele>48.098697</ele>
        <time>2022-12-19T13:48:39.344Z</time>
      </trkpt>
      <trkpt lat="46.37693" lon="-1.1073">
        <ele>48.145255</ele>
        <time>2022-12-19T13:48:42.363Z</time>
      </trkpt>
      <trkpt lat="46.37691" lon="-1.10715">
        <ele>48.191272</ele>
        <time>2022-12-19T13:48:45.364Z</time>
      </trkpt>
      <trkpt lat="46.37688" lon="-1.107">
        <ele>48.235942</ele>
        <time>2022-12-19T13:48:48.364Z</time>
      </trkpt>
      <trkpt lat="46.37687" lon="-1.10686">
        <ele>48.277267</ele>
        <time>2022-12-19T13:48:51.358Z</time>
      </trkpt>
      <trkpt lat="46.37686" lon="-1.10672">
        <ele>48.317941</ele>
        <time>2022-12-19T13:48:54.365Z</time>
      </trkpt>
      <trkpt lat="46.37684" lon="-1.10657">
        <ele>48.361024</ele>
        <time>2022-12-19T13:48:57.361Z</time>
      </trkpt>
      <trkpt lat="46.37683" lon="-1.10642">
        <ele>48.405664</ele>
        <time>2022-12-19T13:49:00.356Z</time>
      </trkpt>
      <trkpt lat="46.37683" lon="-1.10626">
        <ele>48.450465</ele>
        <time>2022-12-19T13:49:03.364Z</time>
      </trkpt>
      <trkpt lat="46.37682" lon="-1.10612">
        <ele>48.491561</ele>
        <time>2022-12-19T13:49:06.364Z</time>
      </trkpt>
      <trkpt lat="46.37682" lon="-1.10598">
        <ele>48.532554</ele>
        <time>2022-12-19T13:49:09.368Z</time>
      </trkpt>
      <trkpt lat="46.37682" lon="-1.10584">
        <ele>48.574725</ele>
        <time>2022-12-19T13:49:12.358Z</time>
      </trkpt>
      <trkpt lat="46.37682" lon="-1.10568">
        <ele>48.620384</ele>
        <time>2022-12-19T13:49:15.350Z</time>
      </trkpt>
      <trkpt lat="46.37682" lon="-1.10551">
        <ele>48.669821</ele>
        <time>2022-12-19T13:49:18.364Z</time>
      </trkpt>
      <trkpt lat="46.37682" lon="-1.10534">
        <ele>48.719532</ele>
        <time>2022-12-19T13:49:21.366Z</time>
      </trkpt>
      <trkpt lat="46.37682" lon="-1.10516">
        <ele>48.771585</ele>
        <time>2022-12-19T13:49:24.366Z</time>
      </trkpt>
      <trkpt lat="46.37682" lon="-1.10498">
        <ele>48.824521</ele>
        <time>2022-12-19T13:49:27.336Z</time>
      </trkpt>
      <trkpt lat="46.37682" lon="-1.10479">
        <ele>48.844088</ele>
        <time>2022-12-19T13:49:30.353Z</time>
      </trkpt>
      <trkpt lat="46.37681" lon="-1.1046">
        <ele>48.846692</ele>
        <time>2022-12-19T13:49:33.363Z</time>
      </trkpt>
      <trkpt lat="46.37681" lon="-1.10441">
        <ele>48.849229</ele>
        <time>2022-12-19T13:49:36.411Z</time>
      </trkpt>
      <trkpt lat="46.3768" lon="-1.10424">
        <ele>48.851494</ele>
        <time>2022-12-19T13:49:39.367Z</time>
      </trkpt>
      <trkpt lat="46.3768" lon="-1.10409">
        <ele>48.853539</ele>
        <time>2022-12-19T13:49:42.358Z</time>
      </trkpt>
      <trkpt lat="46.37679" lon="-1.10393">
        <ele>48.855681</ele>
        <time>2022-12-19T13:49:45.351Z</time>
      </trkpt>
      <trkpt lat="46.37678" lon="-1.10376">
        <ele>48.857998</ele>
        <time>2022-12-19T13:49:48.365Z</time>
      </trkpt>
      <trkpt lat="46.37677" lon="-1.10359">
        <ele>48.86039</ele>
        <time>2022-12-19T13:49:51.362Z</time>
      </trkpt>
      <trkpt lat="46.37677" lon="-1.10341">
        <ele>48.862843</ele>
        <time>2022-12-19T13:49:54.366Z</time>
      </trkpt>
      <trkpt lat="46.37676" lon="-1.10322">
        <ele>48.865403</ele>
        <time>2022-12-19T13:49:57.362Z</time>
      </trkpt>
      <trkpt lat="46.37676" lon="-1.10309">
        <ele>48.867178</ele>
        <time>2022-12-19T13:49:59.346Z</time>
      </trkpt>
      <trkpt lat="46.37675" lon="-1.10289">
        <ele>48.869787</ele>
        <time>2022-12-19T13:50:02.336Z</time>
      </trkpt>
      <trkpt lat="46.37674" lon="-1.1027">
        <ele>48.872349</ele>
        <time>2022-12-19T13:50:05.355Z</time>
      </trkpt>
      <trkpt lat="46.37673" lon="-1.10253">
        <ele>48.874683</ele>
        <time>2022-12-19T13:50:08.341Z</time>
      </trkpt>
      <trkpt lat="46.37672" lon="-1.10237">
        <ele>48.876935</ele>
        <time>2022-12-19T13:50:11.348Z</time>
      </trkpt>
      <trkpt lat="46.37671" lon="-1.10219">
        <ele>48.803894</ele>
        <time>2022-12-19T13:50:14.345Z</time>
      </trkpt>
      <trkpt lat="46.3767" lon="-1.102">
        <ele>48.694914</ele>
        <time>2022-12-19T13:50:17.363Z</time>
      </trkpt>
      <trkpt lat="46.37668" lon="-1.10182">
        <ele>48.588078</ele>
        <time>2022-12-19T13:50:20.418Z</time>
      </trkpt>
      <trkpt lat="46.37666" lon="-1.10163">
        <ele>48.480001</ele>
        <time>2022-12-19T13:50:23.362Z</time>
      </trkpt>
      <trkpt lat="46.37664" lon="-1.10145">
        <ele>48.370499</ele>
        <time>2022-12-19T13:50:26.409Z</time>
      </trkpt>
      <trkpt lat="46.37661" lon="-1.10126">
        <ele>48.259536</ele>
        <time>2022-12-19T13:50:29.349Z</time>
      </trkpt>
      <trkpt lat="46.37657" lon="-1.10108">
        <ele>48.150985</ele>
        <time>2022-12-19T13:50:32.422Z</time>
      </trkpt>
      <trkpt lat="46.37654" lon="-1.10091">
        <ele>48.048239</ele>
        <time>2022-12-19T13:50:35.338Z</time>
      </trkpt>
      <trkpt lat="46.37652" lon="-1.10074">
        <ele>47.947786</ele>
        <time>2022-12-19T13:50:38.363Z</time>
      </trkpt>
      <trkpt lat="46.37648" lon="-1.10057">
        <ele>47.848868</ele>
        <time>2022-12-19T13:50:41.361Z</time>
      </trkpt>
      <trkpt lat="46.37645" lon="-1.10042">
        <ele>47.753696</ele>
        <time>2022-12-19T13:50:44.361Z</time>
      </trkpt>
      <trkpt lat="46.37641" lon="-1.10026">
        <ele>47.659692</ele>
        <time>2022-12-19T13:50:47.357Z</time>
      </trkpt>
      <trkpt lat="46.37639" lon="-1.10011">
        <ele>47.571213</ele>
        <time>2022-12-19T13:50:50.361Z</time>
      </trkpt>
      <trkpt lat="46.37635" lon="-1.09997">
        <ele>47.483247</ele>
        <time>2022-12-19T13:50:53.364Z</time>
      </trkpt>
      <trkpt lat="46.37632" lon="-1.09982">
        <ele>47.393351</ele>
        <time>2022-12-19T13:50:56.348Z</time>
      </trkpt>
      <trkpt lat="46.37628" lon="-1.09968">
        <ele>47.375843</ele>
        <time>2022-12-19T13:50:59.366Z</time>
      </trkpt>
      <trkpt lat="46.37624" lon="-1.09953">
        <ele>47.382561</ele>
        <time>2022-12-19T13:51:02.357Z</time>
      </trkpt>
      <trkpt lat="46.3762" lon="-1.09938">
        <ele>47.389363</ele>
        <time>2022-12-19T13:51:05.362Z</time>
      </trkpt>
      <trkpt lat="46.37615" lon="-1.09924">
        <ele>47.395839</ele>
        <time>2022-12-19T13:51:08.359Z</time>
      </trkpt>
      <trkpt lat="46.37611" lon="-1.0991">
        <ele>47.402418</ele>
        <time>2022-12-19T13:51:11.365Z</time>
      </trkpt>
      <trkpt lat="46.37606" lon="-1.09896">
        <ele>47.408843</ele>
        <time>2022-12-19T13:51:14.364Z</time>
      </trkpt>
      <trkpt lat="46.37602" lon="-1.09882">
        <ele>47.415306</ele>
        <time>2022-12-19T13:51:17.363Z</time>
      </trkpt>
      <trkpt lat="46.37598" lon="-1.09868">
        <ele>47.421719</ele>
        <time>2022-12-19T13:51:20.364Z</time>
      </trkpt>
      <trkpt lat="46.37593" lon="-1.09854">
        <ele>47.428381</ele>
        <time>2022-12-19T13:51:23.362Z</time>
      </trkpt>
      <trkpt lat="46.37588" lon="-1.0984">
        <ele>47.435087</ele>
        <time>2022-12-19T13:51:26.360Z</time>
      </trkpt>
      <trkpt lat="46.37584" lon="-1.09826">
        <ele>47.441603</ele>
        <time>2022-12-19T13:51:29.365Z</time>
      </trkpt>
      <trkpt lat="46.3758" lon="-1.09813">
        <ele>47.447624</ele>
        <time>2022-12-19T13:51:32.362Z</time>
      </trkpt>
      <trkpt lat="46.37576" lon="-1.09799">
        <ele>47.453693</ele>
        <time>2022-12-19T13:51:35.349Z</time>
      </trkpt>
      <trkpt lat="46.37572" lon="-1.09786">
        <ele>47.45999</ele>
        <time>2022-12-19T13:51:38.365Z</time>
      </trkpt>
      <trkpt lat="46.37568" lon="-1.09772">
        <ele>47.466456</ele>
        <time>2022-12-19T13:51:41.345Z</time>
      </trkpt>
      <trkpt lat="46.37564" lon="-1.09759">
        <ele>47.472331</ele>
        <time>2022-12-19T13:51:44.346Z</time>
      </trkpt>
      <trkpt lat="46.3756" lon="-1.09747">
        <ele>47.477861</ele>
        <time>2022-12-19T13:51:47.361Z</time>
      </trkpt>
      <trkpt lat="46.37556" lon="-1.09734">
        <ele>47.511403</ele>
        <time>2022-12-19T13:51:50.355Z</time>
      </trkpt>
      <trkpt lat="46.37552" lon="-1.0972">
        <ele>47.580446</ele>
        <time>2022-12-19T13:51:53.427Z</time>
      </trkpt>
      <trkpt lat="46.37549" lon="-1.09706">
        <ele>47.651738</ele>
        <time>2022-12-19T13:51:56.365Z</time>
      </trkpt>
      <trkpt lat="46.37545" lon="-1.09692">
        <ele>47.721806</ele>
        <time>2022-12-19T13:51:59.375Z</time>
      </trkpt>
      <trkpt lat="46.37542" lon="-1.09678">
        <ele>47.789626</ele>
        <time>2022-12-19T13:52:02.353Z</time>
      </trkpt>
      <trkpt lat="46.37538" lon="-1.09663">
        <ele>47.861139</ele>
        <time>2022-12-19T13:52:05.363Z</time>
      </trkpt>
      <trkpt lat="46.37535" lon="-1.09648">
        <ele>47.934182</ele>
        <time>2022-12-19T13:52:08.352Z</time>
      </trkpt>
      <trkpt lat="46.37531" lon="-1.09633">
        <ele>48.00897</ele>
        <time>2022-12-19T13:52:11.359Z</time>
      </trkpt>
      <trkpt lat="46.37528" lon="-1.09616">
        <ele>48.087681</ele>
        <time>2022-12-19T13:52:14.362Z</time>
      </trkpt>
      <trkpt lat="46.37524" lon="-1.096">
        <ele>48.168567</ele>
        <time>2022-12-19T13:52:17.366Z</time>
      </trkpt>
      <trkpt lat="46.3752" lon="-1.09583">
        <ele>48.250542</ele>
        <time>2022-12-19T13:52:20.409Z</time>
      </trkpt>
      <trkpt lat="46.37516" lon="-1.09568">
        <ele>48.324285</ele>
        <time>2022-12-19T13:52:23.344Z</time>
      </trkpt>
      <trkpt lat="46.37514" lon="-1.09552">
        <ele>48.398759</ele>
        <time>2022-12-19T13:52:26.373Z</time>
      </trkpt>
      <trkpt lat="46.37511" lon="-1.09535">
        <ele>48.47654</ele>
        <time>2022-12-19T13:52:29.364Z</time>
      </trkpt>
      <trkpt lat="46.3751" lon="-1.09518">
        <ele>48.557239</ele>
        <time>2022-12-19T13:52:32.422Z</time>
      </trkpt>
      <trkpt lat="46.37509" lon="-1.095">
        <ele>48.641509</ele>
        <time>2022-12-19T13:52:35.366Z</time>
      </trkpt>
      <trkpt lat="46.37509" lon="-1.09481">
        <ele>48.680594</ele>
        <time>2022-12-19T13:52:38.417Z</time>
      </trkpt>
      <trkpt lat="46.37508" lon="-1.09462">
        <ele>48.67453</ele>
        <time>2022-12-19T13:52:41.366Z</time>
      </trkpt>
      <trkpt lat="46.37509" lon="-1.09444">
        <ele>48.669026</ele>
        <time>2022-12-19T13:52:44.416Z</time>
      </trkpt>
      <trkpt lat="46.3751" lon="-1.09427">
        <ele>48.66374</ele>
        <time>2022-12-19T13:52:47.384Z</time>
      </trkpt>
      <trkpt lat="46.37511" lon="-1.09412">
        <ele>48.658783</ele>
        <time>2022-12-19T13:52:50.409Z</time>
      </trkpt>
      <trkpt lat="46.37514" lon="-1.09396">
        <ele>48.653946</ele>
        <time>2022-12-19T13:52:53.363Z</time>
      </trkpt>
      <trkpt lat="46.37516" lon="-1.0938">
        <ele>48.648707</ele>
        <time>2022-12-19T13:52:56.418Z</time>
      </trkpt>
      <trkpt lat="46.37517" lon="-1.09362">
        <ele>48.643269</ele>
        <time>2022-12-19T13:52:59.363Z</time>
      </trkpt>
      <trkpt lat="46.37519" lon="-1.09345">
        <ele>48.637798</ele>
        <time>2022-12-19T13:53:02.420Z</time>
      </trkpt>
      <trkpt lat="46.3752" lon="-1.09327">
        <ele>48.632238</ele>
        <time>2022-12-19T13:53:05.353Z</time>
      </trkpt>
      <trkpt lat="46.3752" lon="-1.0931">
        <ele>48.626766</ele>
        <time>2022-12-19T13:53:08.424Z</time>
      </trkpt>
      <trkpt lat="46.37519" lon="-1.09293">
        <ele>48.621611</ele>
        <time>2022-12-19T13:53:11.363Z</time>
      </trkpt>
      <trkpt lat="46.37517" lon="-1.09279">
        <ele>48.617061</ele>
        <time>2022-12-19T13:53:14.439Z</time>
      </trkpt>
      <trkpt lat="46.37514" lon="-1.09266">
        <ele>48.61301</ele>
        <time>2022-12-19T13:53:17.363Z</time>
      </trkpt>
      <trkpt lat="46.37511" lon="-1.09253">
        <ele>48.608656</ele>
        <time>2022-12-19T13:53:20.432Z</time>
      </trkpt>
      <trkpt lat="46.37504" lon="-1.09242">
        <ele>48.604034</ele>
        <time>2022-12-19T13:53:23.356Z</time>
      </trkpt>
      <trkpt lat="46.37496" lon="-1.09232">
        <ele>48.569511</ele>
        <time>2022-12-19T13:53:26.366Z</time>
      </trkpt>
      <trkpt lat="46.37493" lon="-1.09219">
        <ele>48.521918</ele>
        <time>2022-12-19T13:53:29.355Z</time>
      </trkpt>
      <trkpt lat="46.37493" lon="-1.09206">
        <ele>48.477051</ele>
        <time>2022-12-19T13:53:32.346Z</time>
      </trkpt>
      <trkpt lat="46.37497" lon="-1.09194">
        <ele>48.430481</ele>
        <time>2022-12-19T13:53:35.357Z</time>
      </trkpt>
      <trkpt lat="46.37503" lon="-1.09183">
        <ele>48.383663</ele>
        <time>2022-12-19T13:53:38.363Z</time>
      </trkpt>
      <trkpt lat="46.37507" lon="-1.09172">
        <ele>48.338729</ele>
        <time>2022-12-19T13:53:41.363Z</time>
      </trkpt>
      <trkpt lat="46.37511" lon="-1.09159">
        <ele>48.292746</ele>
        <time>2022-12-19T13:53:44.360Z</time>
      </trkpt>
      <trkpt lat="46.37512" lon="-1.09146">
        <ele>48.246328</ele>
        <time>2022-12-19T13:53:47.350Z</time>
      </trkpt>
      <trkpt lat="46.37515" lon="-1.09133">
        <ele>48.200366</ele>
        <time>2022-12-19T13:53:50.356Z</time>
      </trkpt>
      <trkpt lat="46.37515" lon="-1.09117">
        <ele>48.147134</ele>
        <time>2022-12-19T13:53:54.359Z</time>
      </trkpt>
      <trkpt lat="46.37517" lon="-1.09103">
        <ele>48.097688</ele>
        <time>2022-12-19T13:53:59.417Z</time>
      </trkpt>
      <trkpt lat="46.37515" lon="-1.09087">
        <ele>48.040944</ele>
        <time>2022-12-19T13:54:04.364Z</time>
      </trkpt>
      <trkpt lat="46.3751" lon="-1.09071">
        <ele>47.983093</ele>
        <time>2022-12-19T13:54:08.360Z</time>
      </trkpt>
      <trkpt lat="46.37507" lon="-1.09059">
        <ele>47.937077</ele>
        <time>2022-12-19T13:54:11.358Z</time>
      </trkpt>
      <trkpt lat="46.37501" lon="-1.09044">
        <ele>47.881247</ele>
        <time>2022-12-19T13:54:15.377Z</time>
      </trkpt>
      <trkpt lat="46.37494" lon="-1.09036">
        <ele>47.835917</ele>
        <time>2022-12-19T13:54:19.365Z</time>
      </trkpt>
      <trkpt lat="46.37485" lon="-1.09031">
        <ele>47.785863</ele>
        <time>2022-12-19T13:54:24.363Z</time>
      </trkpt>
      <trkpt lat="46.37484" lon="-1.09017">
        <ele>47.738093</ele>
        <time>2022-12-19T13:54:29.364Z</time>
      </trkpt>
      <trkpt lat="46.37487" lon="-1.09006">
        <ele>47.719612</ele>
        <time>2022-12-19T13:54:58.492Z</time>
      </trkpt>
      <trkpt lat="46.37487" lon="-1.09012">
        <ele>47.734916</ele>
        <time>2022-12-19T14:25:26.728Z</time>
      </trkpt>
      <trkpt lat="46.37487" lon="-1.09025">
        <ele>47.768212</ele>
        <time>2022-12-19T14:26:27.341Z</time>
      </trkpt>
      <trkpt lat="46.37503" lon="-1.09036">
        <ele>47.832287</ele>
        <time>2022-12-19T14:26:55.358Z</time>
      </trkpt>
      <trkpt lat="46.37507" lon="-1.09048">
        <ele>47.864396</ele>
        <time>2022-12-19T14:26:58.354Z</time>
      </trkpt>
      <trkpt lat="46.3751" lon="-1.0906">
        <ele>47.897503</ele>
        <time>2022-12-19T14:27:01.346Z</time>
      </trkpt>
      <trkpt lat="46.37512" lon="-1.09074">
        <ele>47.931476</ele>
        <time>2022-12-19T14:27:04.357Z</time>
      </trkpt>
      <trkpt lat="46.37515" lon="-1.09087">
        <ele>47.965634</ele>
        <time>2022-12-19T14:27:07.363Z</time>
      </trkpt>
      <trkpt lat="46.37517" lon="-1.09101">
        <ele>47.999594</ele>
        <time>2022-12-19T14:27:10.346Z</time>
      </trkpt>
      <trkpt lat="46.37518" lon="-1.09115">
        <ele>48.035801</ele>
        <time>2022-12-19T14:27:13.345Z</time>
      </trkpt>
      <trkpt lat="46.37519" lon="-1.09131">
        <ele>48.074401</ele>
        <time>2022-12-19T14:27:16.364Z</time>
      </trkpt>
      <trkpt lat="46.3752" lon="-1.09145">
        <ele>48.110429</ele>
        <time>2022-12-19T14:27:19.342Z</time>
      </trkpt>
      <trkpt lat="46.3752" lon="-1.09159">
        <ele>48.145472</ele>
        <time>2022-12-19T14:27:22.368Z</time>
      </trkpt>
      <trkpt lat="46.37522" lon="-1.09174">
        <ele>48.18152</ele>
        <time>2022-12-19T14:27:26.366Z</time>
      </trkpt>
      <trkpt lat="46.37528" lon="-1.09185">
        <ele>48.217268</ele>
        <time>2022-12-19T14:27:31.343Z</time>
      </trkpt>
      <trkpt lat="46.37535" lon="-1.09198">
        <ele>48.257464</ele>
        <time>2022-12-19T14:27:35.364Z</time>
      </trkpt>
      <trkpt lat="46.37538" lon="-1.09212">
        <ele>48.292645</ele>
        <time>2022-12-19T14:27:38.352Z</time>
      </trkpt>
      <trkpt lat="46.37534" lon="-1.09226">
        <ele>48.328562</ele>
        <time>2022-12-19T14:27:41.350Z</time>
      </trkpt>
      <trkpt lat="46.37528" lon="-1.09238">
        <ele>48.343906</ele>
        <time>2022-12-19T14:27:44.344Z</time>
      </trkpt>
      <trkpt lat="46.37519" lon="-1.09245">
        <ele>48.319065</ele>
        <time>2022-12-19T14:27:47.353Z</time>
      </trkpt>
      <trkpt lat="46.37509" lon="-1.09245">
        <ele>48.296683</ele>
        <time>2022-12-19T14:27:50.355Z</time>
      </trkpt>
      <trkpt lat="46.375" lon="-1.09238">
        <ele>48.270738</ele>
        <time>2022-12-19T14:27:54.370Z</time>
      </trkpt>
      <trkpt lat="46.3749" lon="-1.09228">
        <ele>48.242207</ele>
        <time>2022-12-19T14:27:58.361Z</time>
      </trkpt>
      <trkpt lat="46.37481" lon="-1.09221">
        <ele>48.21789</ele>
        <time>2022-12-19T14:28:01.363Z</time>
      </trkpt>
      <trkpt lat="46.37471" lon="-1.09218">
        <ele>48.192473</ele>
        <time>2022-12-19T14:28:04.353Z</time>
      </trkpt>
      <trkpt lat="46.3746" lon="-1.09216">
        <ele>48.167556</ele>
        <time>2022-12-19T14:28:07.362Z</time>
      </trkpt>
      <trkpt lat="46.3745" lon="-1.09214">
        <ele>48.142458</ele>
        <time>2022-12-19T14:28:10.345Z</time>
      </trkpt>
      <trkpt lat="46.3744" lon="-1.09211">
        <ele>48.117883</ele>
        <time>2022-12-19T14:28:13.346Z</time>
      </trkpt>
      <trkpt lat="46.37429" lon="-1.09209">
        <ele>48.092201</ele>
        <time>2022-12-19T14:28:16.362Z</time>
      </trkpt>
      <trkpt lat="46.37419" lon="-1.09206">
        <ele>48.067221</ele>
        <time>2022-12-19T14:28:19.370Z</time>
      </trkpt>
      <trkpt lat="46.37409" lon="-1.09203">
        <ele>48.04334</ele>
        <time>2022-12-19T14:28:22.361Z</time>
      </trkpt>
      <trkpt lat="46.374" lon="-1.09199">
        <ele>48.02061</ele>
        <time>2022-12-19T14:28:25.363Z</time>
      </trkpt>
      <trkpt lat="46.37391" lon="-1.09194">
        <ele>47.997997</ele>
        <time>2022-12-19T14:28:28.365Z</time>
      </trkpt>
      <trkpt lat="46.37382" lon="-1.0919">
        <ele>47.975764</ele>
        <time>2022-12-19T14:28:31.370Z</time>
      </trkpt>
      <trkpt lat="46.37373" lon="-1.09184">
        <ele>47.95203</ele>
        <time>2022-12-19T14:28:34.347Z</time>
      </trkpt>
      <trkpt lat="46.37363" lon="-1.09179">
        <ele>47.928239</ele>
        <time>2022-12-19T14:28:37.364Z</time>
      </trkpt>
      <trkpt lat="46.37354" lon="-1.09172">
        <ele>47.881937</ele>
        <time>2022-12-19T14:28:40.375Z</time>
      </trkpt>
      <trkpt lat="46.37345" lon="-1.09164">
        <ele>47.829993</ele>
        <time>2022-12-19T14:28:43.353Z</time>
      </trkpt>
      <trkpt lat="46.37336" lon="-1.09156">
        <ele>47.778648</ele>
        <time>2022-12-19T14:28:46.368Z</time>
      </trkpt>
      <trkpt lat="46.37328" lon="-1.09148">
        <ele>47.726873</ele>
        <time>2022-12-19T14:28:49.374Z</time>
      </trkpt>
      <trkpt lat="46.37319" lon="-1.09139">
        <ele>47.675304</ele>
        <time>2022-12-19T14:28:52.360Z</time>
      </trkpt>
      <trkpt lat="46.37311" lon="-1.0913">
        <ele>47.622938</ele>
        <time>2022-12-19T14:28:55.374Z</time>
      </trkpt>
      <trkpt lat="46.37302" lon="-1.09121">
        <ele>47.570758</ele>
        <time>2022-12-19T14:28:58.363Z</time>
      </trkpt>
      <trkpt lat="46.37293" lon="-1.09112">
        <ele>47.517192</ele>
        <time>2022-12-19T14:29:01.363Z</time>
      </trkpt>
      <trkpt lat="46.37284" lon="-1.09102">
        <ele>47.461827</ele>
        <time>2022-12-19T14:29:04.361Z</time>
      </trkpt>
      <trkpt lat="46.37275" lon="-1.09093">
        <ele>47.408657</ele>
        <time>2022-12-19T14:29:07.375Z</time>
      </trkpt>
      <trkpt lat="46.37267" lon="-1.09084">
        <ele>47.355889</ele>
        <time>2022-12-19T14:29:10.364Z</time>
      </trkpt>
      <trkpt lat="46.37258" lon="-1.09074">
        <ele>47.301908</ele>
        <time>2022-12-19T14:29:13.348Z</time>
      </trkpt>
      <trkpt lat="46.37249" lon="-1.09065">
        <ele>47.247543</ele>
        <time>2022-12-19T14:29:16.376Z</time>
      </trkpt>
      <trkpt lat="46.3724" lon="-1.09056">
        <ele>47.194163</ele>
        <time>2022-12-19T14:29:19.364Z</time>
      </trkpt>
      <trkpt lat="46.37232" lon="-1.09047">
        <ele>47.140987</ele>
        <time>2022-12-19T14:29:22.361Z</time>
      </trkpt>
      <trkpt lat="46.37223" lon="-1.09038">
        <ele>47.08782</ele>
        <time>2022-12-19T14:29:25.363Z</time>
      </trkpt>
      <trkpt lat="46.37214" lon="-1.09028">
        <ele>47.038337</ele>
        <time>2022-12-19T14:29:28.345Z</time>
      </trkpt>
      <trkpt lat="46.37206" lon="-1.09019">
        <ele>47.094625</ele>
        <time>2022-12-19T14:29:31.362Z</time>
      </trkpt>
      <trkpt lat="46.37197" lon="-1.0901">
        <ele>47.150911</ele>
        <time>2022-12-19T14:29:34.361Z</time>
      </trkpt>
      <trkpt lat="46.37189" lon="-1.09002">
        <ele>47.206113</ele>
        <time>2022-12-19T14:29:37.352Z</time>
      </trkpt>
      <trkpt lat="46.37181" lon="-1.08993">
        <ele>47.261994</ele>
        <time>2022-12-19T14:29:40.346Z</time>
      </trkpt>
      <trkpt lat="46.37172" lon="-1.08985">
        <ele>47.319185</ele>
        <time>2022-12-19T14:29:43.363Z</time>
      </trkpt>
      <trkpt lat="46.37162" lon="-1.08977">
        <ele>47.377366</ele>
        <time>2022-12-19T14:29:46.363Z</time>
      </trkpt>
      <trkpt lat="46.37153" lon="-1.0897">
        <ele>47.435441</ele>
        <time>2022-12-19T14:29:49.374Z</time>
      </trkpt>
      <trkpt lat="46.37143" lon="-1.08964">
        <ele>47.49227</ele>
        <time>2022-12-19T14:29:52.353Z</time>
      </trkpt>
      <trkpt lat="46.37133" lon="-1.08959">
        <ele>47.54813</ele>
        <time>2022-12-19T14:29:55.360Z</time>
      </trkpt>
      <trkpt lat="46.37124" lon="-1.08954">
        <ele>47.603224</ele>
        <time>2022-12-19T14:29:58.368Z</time>
      </trkpt>
      <trkpt lat="46.37114" lon="-1.0895">
        <ele>47.659123</ele>
        <time>2022-12-19T14:30:01.346Z</time>
      </trkpt>
      <trkpt lat="46.37103" lon="-1.08946">
        <ele>47.716826</ele>
        <time>2022-12-19T14:30:04.368Z</time>
      </trkpt>
      <trkpt lat="46.37093" lon="-1.08943">
        <ele>47.773511</ele>
        <time>2022-12-19T14:30:07.364Z</time>
      </trkpt>
      <trkpt lat="46.37082" lon="-1.0894">
        <ele>47.832696</ele>
        <time>2022-12-19T14:30:10.371Z</time>
      </trkpt>
      <trkpt lat="46.37071" lon="-1.08937">
        <ele>47.891688</ele>
        <time>2022-12-19T14:30:13.373Z</time>
      </trkpt>
      <trkpt lat="46.37061" lon="-1.08935">
        <ele>47.951152</ele>
        <time>2022-12-19T14:30:16.363Z</time>
      </trkpt>
      <trkpt lat="46.37049" lon="-1.08933">
        <ele>48.011947</ele>
        <time>2022-12-19T14:30:19.363Z</time>
      </trkpt>
      <trkpt lat="46.37038" lon="-1.0893">
        <ele>48.06859</ele>
        <time>2022-12-19T14:30:22.359Z</time>
      </trkpt>
      <trkpt lat="46.37027" lon="-1.08927">
        <ele>48.121447</ele>
        <time>2022-12-19T14:30:25.363Z</time>
      </trkpt>
      <trkpt lat="46.37016" lon="-1.08925">
        <ele>48.173995</ele>
        <time>2022-12-19T14:30:28.347Z</time>
      </trkpt>
      <trkpt lat="46.37005" lon="-1.08923">
        <ele>48.229964</ele>
        <time>2022-12-19T14:30:31.361Z</time>
      </trkpt>
      <trkpt lat="46.36993" lon="-1.0892">
        <ele>48.287909</ele>
        <time>2022-12-19T14:30:34.353Z</time>
      </trkpt>
      <trkpt lat="46.36982" lon="-1.08917">
        <ele>48.34514</ele>
        <time>2022-12-19T14:30:37.366Z</time>
      </trkpt>
      <trkpt lat="46.3697" lon="-1.08915">
        <ele>48.4001</ele>
        <time>2022-12-19T14:30:40.364Z</time>
      </trkpt>
      <trkpt lat="46.36959" lon="-1.08912">
        <ele>48.455891</ele>
        <time>2022-12-19T14:30:43.368Z</time>
      </trkpt>
      <trkpt lat="46.36948" lon="-1.0891">
        <ele>48.511953</ele>
        <time>2022-12-19T14:30:46.362Z</time>
      </trkpt>
      <trkpt lat="46.36936" lon="-1.08907">
        <ele>48.568015</ele>
        <time>2022-12-19T14:30:49.361Z</time>
      </trkpt>
      <trkpt lat="46.36925" lon="-1.08906">
        <ele>48.622786</ele>
        <time>2022-12-19T14:30:52.351Z</time>
      </trkpt>
      <trkpt lat="46.36914" lon="-1.08903">
        <ele>48.678097</ele>
        <time>2022-12-19T14:30:55.373Z</time>
      </trkpt>
      <trkpt lat="46.36903" lon="-1.089">
        <ele>48.732285</ele>
        <time>2022-12-19T14:30:58.361Z</time>
      </trkpt>
      <trkpt lat="46.36892" lon="-1.08898">
        <ele>48.785798</ele>
        <time>2022-12-19T14:31:01.366Z</time>
      </trkpt>
      <trkpt lat="46.36881" lon="-1.08896">
        <ele>48.839793</ele>
        <time>2022-12-19T14:31:04.360Z</time>
      </trkpt>
      <trkpt lat="46.3687" lon="-1.08895">
        <ele>48.873125</ele>
        <time>2022-12-19T14:31:07.370Z</time>
      </trkpt>
      <trkpt lat="46.36859" lon="-1.08892">
        <ele>48.842946</ele>
        <time>2022-12-19T14:31:10.362Z</time>
      </trkpt>
      <trkpt lat="46.36848" lon="-1.08889">
        <ele>48.811764</ele>
        <time>2022-12-19T14:31:13.373Z</time>
      </trkpt>
      <trkpt lat="46.36836" lon="-1.08887">
        <ele>48.779569</ele>
        <time>2022-12-19T14:31:16.363Z</time>
      </trkpt>
      <trkpt lat="46.36825" lon="-1.08885">
        <ele>48.74771</ele>
        <time>2022-12-19T14:31:19.368Z</time>
      </trkpt>
      <trkpt lat="46.36813" lon="-1.08882">
        <ele>48.71591</ele>
        <time>2022-12-19T14:31:22.348Z</time>
      </trkpt>
      <trkpt lat="46.36801" lon="-1.0888">
        <ele>48.683054</ele>
        <time>2022-12-19T14:31:25.358Z</time>
      </trkpt>
      <trkpt lat="46.36789" lon="-1.08877">
        <ele>48.649062</ele>
        <time>2022-12-19T14:31:28.364Z</time>
      </trkpt>
      <trkpt lat="46.36777" lon="-1.08874">
        <ele>48.61534</ele>
        <time>2022-12-19T14:31:31.364Z</time>
      </trkpt>
      <trkpt lat="46.36766" lon="-1.08873">
        <ele>48.585398</ele>
        <time>2022-12-19T14:31:34.369Z</time>
      </trkpt>
      <trkpt lat="46.36755" lon="-1.0887">
        <ele>48.555999</ele>
        <time>2022-12-19T14:31:37.367Z</time>
      </trkpt>
      <trkpt lat="46.36744" lon="-1.08868">
        <ele>48.525929</ele>
        <time>2022-12-19T14:31:40.362Z</time>
      </trkpt>
      <trkpt lat="46.36733" lon="-1.08866">
        <ele>48.495906</ele>
        <time>2022-12-19T14:31:43.362Z</time>
      </trkpt>
      <trkpt lat="46.36723" lon="-1.08864">
        <ele>48.465967</ele>
        <time>2022-12-19T14:31:46.351Z</time>
      </trkpt>
      <trkpt lat="46.36712" lon="-1.08862">
        <ele>48.436464</ele>
        <time>2022-12-19T14:31:49.349Z</time>
      </trkpt>
      <trkpt lat="46.36701" lon="-1.08859">
        <ele>48.407154</ele>
        <time>2022-12-19T14:31:52.347Z</time>
      </trkpt>
      <trkpt lat="46.36691" lon="-1.08857">
        <ele>48.390971</ele>
        <time>2022-12-19T14:31:55.364Z</time>
      </trkpt>
      <trkpt lat="46.36681" lon="-1.08855">
        <ele>48.396754</ele>
        <time>2022-12-19T14:31:58.364Z</time>
      </trkpt>
      <trkpt lat="46.3667" lon="-1.08853">
        <ele>48.402346</ele>
        <time>2022-12-19T14:32:01.368Z</time>
      </trkpt>
      <trkpt lat="46.3666" lon="-1.08851">
        <ele>48.408222</ele>
        <time>2022-12-19T14:32:04.364Z</time>
      </trkpt>
      <trkpt lat="46.36648" lon="-1.08849">
        <ele>48.414373</ele>
        <time>2022-12-19T14:32:07.371Z</time>
      </trkpt>
      <trkpt lat="46.36637" lon="-1.08846">
        <ele>48.420491</ele>
        <time>2022-12-19T14:32:10.365Z</time>
      </trkpt>
      <trkpt lat="46.36626" lon="-1.08844">
        <ele>48.42648</ele>
        <time>2022-12-19T14:32:13.366Z</time>
      </trkpt>
      <trkpt lat="46.36616" lon="-1.08842">
        <ele>48.432302</ele>
        <time>2022-12-19T14:32:16.370Z</time>
      </trkpt>
      <trkpt lat="46.36605" lon="-1.08841">
        <ele>48.438052</ele>
        <time>2022-12-19T14:32:19.364Z</time>
      </trkpt>
      <trkpt lat="46.36594" lon="-1.08838">
        <ele>48.4441</ele>
        <time>2022-12-19T14:32:22.372Z</time>
      </trkpt>
      <trkpt lat="46.36583" lon="-1.08836">
        <ele>48.450457</ele>
        <time>2022-12-19T14:32:25.375Z</time>
      </trkpt>
      <trkpt lat="46.36571" lon="-1.08834">
        <ele>48.456928</ele>
        <time>2022-12-19T14:32:28.359Z</time>
      </trkpt>
      <trkpt lat="46.36559" lon="-1.08831">
        <ele>48.463403</ele>
        <time>2022-12-19T14:32:31.365Z</time>
      </trkpt>
      <trkpt lat="46.36548" lon="-1.08829">
        <ele>48.469688</ele>
        <time>2022-12-19T14:32:34.363Z</time>
      </trkpt>
      <trkpt lat="46.36537" lon="-1.08827">
        <ele>48.475834</ele>
        <time>2022-12-19T14:32:37.357Z</time>
      </trkpt>
      <trkpt lat="46.36525" lon="-1.08825">
        <ele>48.481975</ele>
        <time>2022-12-19T14:32:40.375Z</time>
      </trkpt>
      <trkpt lat="46.36514" lon="-1.08823">
        <ele>48.477767</ele>
        <time>2022-12-19T14:32:43.375Z</time>
      </trkpt>
      <trkpt lat="46.36503" lon="-1.0882">
        <ele>48.426181</ele>
        <time>2022-12-19T14:32:46.362Z</time>
      </trkpt>
      <trkpt lat="46.36492" lon="-1.08818">
        <ele>48.374639</ele>
        <time>2022-12-19T14:32:49.370Z</time>
      </trkpt>
      <trkpt lat="46.3648" lon="-1.08816">
        <ele>48.32229</ele>
        <time>2022-12-19T14:32:52.373Z</time>
      </trkpt>
      <trkpt lat="46.36469" lon="-1.08814">
        <ele>48.271756</ele>
        <time>2022-12-19T14:32:55.365Z</time>
      </trkpt>
      <trkpt lat="46.36458" lon="-1.08811">
        <ele>48.22101</ele>
        <time>2022-12-19T14:32:58.358Z</time>
      </trkpt>
      <trkpt lat="46.36446" lon="-1.08809">
        <ele>48.169954</ele>
        <time>2022-12-19T14:33:01.365Z</time>
      </trkpt>
      <trkpt lat="46.36435" lon="-1.08807">
        <ele>48.116752</ele>
        <time>2022-12-19T14:33:04.359Z</time>
      </trkpt>
      <trkpt lat="46.36423" lon="-1.08805">
        <ele>48.064323</ele>
        <time>2022-12-19T14:33:07.350Z</time>
      </trkpt>
      <trkpt lat="46.36411" lon="-1.08803">
        <ele>48.012558</ele>
        <time>2022-12-19T14:33:10.369Z</time>
      </trkpt>
      <trkpt lat="46.364" lon="-1.08801">
        <ele>47.962541</ele>
        <time>2022-12-19T14:33:13.361Z</time>
      </trkpt>
      <trkpt lat="46.3639" lon="-1.08799">
        <ele>47.914101</ele>
        <time>2022-12-19T14:33:16.361Z</time>
      </trkpt>
      <trkpt lat="46.36379" lon="-1.08797">
        <ele>47.864333</ele>
        <time>2022-12-19T14:33:19.368Z</time>
      </trkpt>
      <trkpt lat="46.36367" lon="-1.08794">
        <ele>47.813633</ele>
        <time>2022-12-19T14:33:22.367Z</time>
      </trkpt>
      <trkpt lat="46.36356" lon="-1.08792">
        <ele>47.761688</ele>
        <time>2022-12-19T14:33:25.375Z</time>
      </trkpt>
      <trkpt lat="46.36344" lon="-1.0879">
        <ele>47.709857</ele>
        <time>2022-12-19T14:33:28.376Z</time>
      </trkpt>
      <trkpt lat="46.36333" lon="-1.08788">
        <ele>47.677803</ele>
        <time>2022-12-19T14:33:31.373Z</time>
      </trkpt>
      <trkpt lat="46.36322" lon="-1.08785">
        <ele>47.669665</ele>
        <time>2022-12-19T14:33:34.345Z</time>
      </trkpt>
      <trkpt lat="46.3631" lon="-1.08784">
        <ele>47.661546</ele>
        <time>2022-12-19T14:33:37.375Z</time>
      </trkpt>
      <trkpt lat="46.36299" lon="-1.08781">
        <ele>47.653191</ele>
        <time>2022-12-19T14:33:40.360Z</time>
      </trkpt>
      <trkpt lat="46.36287" lon="-1.08779">
        <ele>47.644767</ele>
        <time>2022-12-19T14:33:43.368Z</time>
      </trkpt>
      <trkpt lat="46.36275" lon="-1.08777">
        <ele>47.636425</ele>
        <time>2022-12-19T14:33:46.359Z</time>
      </trkpt>
      <trkpt lat="46.36263" lon="-1.08774">
        <ele>47.628049</ele>
        <time>2022-12-19T14:33:49.364Z</time>
      </trkpt>
      <trkpt lat="46.36251" lon="-1.08772">
        <ele>47.619555</ele>
        <time>2022-12-19T14:33:52.373Z</time>
      </trkpt>
      <trkpt lat="46.3624" lon="-1.0877">
        <ele>47.611193</ele>
        <time>2022-12-19T14:33:55.366Z</time>
      </trkpt>
      <trkpt lat="46.36228" lon="-1.08767">
        <ele>47.603012</ele>
        <time>2022-12-19T14:33:58.364Z</time>
      </trkpt>
      <trkpt lat="46.36217" lon="-1.08764">
        <ele>47.594798</ele>
        <time>2022-12-19T14:34:01.367Z</time>
      </trkpt>
      <trkpt lat="46.36206" lon="-1.08763">
        <ele>47.586839</ele>
        <time>2022-12-19T14:34:04.371Z</time>
      </trkpt>
      <trkpt lat="46.36194" lon="-1.08761">
        <ele>47.578828</ele>
        <time>2022-12-19T14:34:07.365Z</time>
      </trkpt>
      <trkpt lat="46.36184" lon="-1.08759">
        <ele>47.571405</ele>
        <time>2022-12-19T14:34:10.351Z</time>
      </trkpt>
      <trkpt lat="46.36174" lon="-1.08757">
        <ele>47.564064</ele>
        <time>2022-12-19T14:34:13.364Z</time>
      </trkpt>
      <trkpt lat="46.36163" lon="-1.08755">
        <ele>47.556634</ele>
        <time>2022-12-19T14:34:16.376Z</time>
      </trkpt>
      <trkpt lat="46.36153" lon="-1.08753">
        <ele>47.586694</ele>
        <time>2022-12-19T14:34:19.365Z</time>
      </trkpt>
      <trkpt lat="46.36143" lon="-1.0875">
        <ele>47.636155</ele>
        <time>2022-12-19T14:34:22.363Z</time>
      </trkpt>
      <trkpt lat="46.36132" lon="-1.08748">
        <ele>47.685187</ele>
        <time>2022-12-19T14:34:25.373Z</time>
      </trkpt>
      <trkpt lat="46.36122" lon="-1.08746">
        <ele>47.735693</ele>
        <time>2022-12-19T14:34:28.366Z</time>
      </trkpt>
      <trkpt lat="46.36111" lon="-1.08744">
        <ele>47.785312</ele>
        <time>2022-12-19T14:34:31.365Z</time>
      </trkpt>
      <trkpt lat="46.36101" lon="-1.08742">
        <ele>47.834469</ele>
        <time>2022-12-19T14:34:34.367Z</time>
      </trkpt>
      <trkpt lat="46.3609" lon="-1.0874">
        <ele>47.886452</ele>
        <time>2022-12-19T14:34:37.376Z</time>
      </trkpt>
      <trkpt lat="46.36079" lon="-1.08738">
        <ele>47.936452</ele>
        <time>2022-12-19T14:34:40.363Z</time>
      </trkpt>
      <trkpt lat="46.36069" lon="-1.08737">
        <ele>47.983981</ele>
        <time>2022-12-19T14:34:43.373Z</time>
      </trkpt>
      <trkpt lat="46.36059" lon="-1.08734">
        <ele>48.032818</ele>
        <time>2022-12-19T14:34:46.351Z</time>
      </trkpt>
      <trkpt lat="46.36049" lon="-1.08732">
        <ele>48.079991</ele>
        <time>2022-12-19T14:34:49.365Z</time>
      </trkpt>
      <trkpt lat="46.36038" lon="-1.0873">
        <ele>48.129104</ele>
        <time>2022-12-19T14:34:52.367Z</time>
      </trkpt>
      <trkpt lat="46.36028" lon="-1.08729">
        <ele>48.179531</ele>
        <time>2022-12-19T14:34:55.356Z</time>
      </trkpt>
      <trkpt lat="46.36017" lon="-1.08726">
        <ele>48.228882</ele>
        <time>2022-12-19T14:34:58.372Z</time>
      </trkpt>
      <trkpt lat="46.36007" lon="-1.08724">
        <ele>48.276603</ele>
        <time>2022-12-19T14:35:01.364Z</time>
      </trkpt>
      <trkpt lat="46.35997" lon="-1.08723">
        <ele>48.325529</ele>
        <time>2022-12-19T14:35:04.375Z</time>
      </trkpt>
      <trkpt lat="46.35986" lon="-1.0872">
        <ele>48.376585</ele>
        <time>2022-12-19T14:35:07.366Z</time>
      </trkpt>
      <trkpt lat="46.35975" lon="-1.08719">
        <ele>48.416646</ele>
        <time>2022-12-19T14:35:10.373Z</time>
      </trkpt>
      <trkpt lat="46.35965" lon="-1.08716">
        <ele>48.449994</ele>
        <time>2022-12-19T14:35:13.351Z</time>
      </trkpt>
      <trkpt lat="46.35954" lon="-1.08714">
        <ele>48.483767</ele>
        <time>2022-12-19T14:35:16.365Z</time>
      </trkpt>
      <trkpt lat="46.35943" lon="-1.08712">
        <ele>48.516338</ele>
        <time>2022-12-19T14:35:19.370Z</time>
      </trkpt>
      <trkpt lat="46.35933" lon="-1.0871">
        <ele>48.547316</ele>
        <time>2022-12-19T14:35:22.363Z</time>
      </trkpt>
      <trkpt lat="46.35924" lon="-1.08709">
        <ele>48.575702</ele>
        <time>2022-12-19T14:35:25.376Z</time>
      </trkpt>
      <trkpt lat="46.35913" lon="-1.08706">
        <ele>48.61024</ele>
        <time>2022-12-19T14:35:29.374Z</time>
      </trkpt>
      <trkpt lat="46.35904" lon="-1.08704">
        <ele>48.639776</ele>
        <time>2022-12-19T14:35:32.378Z</time>
      </trkpt>
      <trkpt lat="46.35894" lon="-1.08702">
        <ele>48.672102</ele>
        <time>2022-12-19T14:35:35.373Z</time>
      </trkpt>
      <trkpt lat="46.35883" lon="-1.087">
        <ele>48.704522</ele>
        <time>2022-12-19T14:35:38.365Z</time>
      </trkpt>
      <trkpt lat="46.35873" lon="-1.08698">
        <ele>48.73637</ele>
        <time>2022-12-19T14:35:41.374Z</time>
      </trkpt>
      <trkpt lat="46.35863" lon="-1.08696">
        <ele>48.768801</ele>
        <time>2022-12-19T14:35:44.362Z</time>
      </trkpt>
      <trkpt lat="46.35852" lon="-1.08694">
        <ele>48.80129</ele>
        <time>2022-12-19T14:35:47.353Z</time>
      </trkpt>
      <trkpt lat="46.35842" lon="-1.08691">
        <ele>48.834944</ele>
        <time>2022-12-19T14:35:50.356Z</time>
      </trkpt>
      <trkpt lat="46.35831" lon="-1.08689">
        <ele>48.867823</ele>
        <time>2022-12-19T14:35:53.361Z</time>
      </trkpt>
      <trkpt lat="46.35821" lon="-1.08688">
        <ele>48.899933</ele>
        <time>2022-12-19T14:35:56.362Z</time>
      </trkpt>
      <trkpt lat="46.35809" lon="-1.08685">
        <ele>48.936344</ele>
        <time>2022-12-19T14:36:00.362Z</time>
      </trkpt>
      <trkpt lat="46.358" lon="-1.08683">
        <ele>48.959375</ele>
        <time>2022-12-19T14:36:03.378Z</time>
      </trkpt>
      <trkpt lat="46.3579" lon="-1.08681">
        <ele>48.974665</ele>
        <time>2022-12-19T14:36:06.372Z</time>
      </trkpt>
      <trkpt lat="46.3578" lon="-1.08679">
        <ele>48.990253</ele>
        <time>2022-12-19T14:36:09.345Z</time>
      </trkpt>
      <trkpt lat="46.35769" lon="-1.08677">
        <ele>49.006126</ele>
        <time>2022-12-19T14:36:12.360Z</time>
      </trkpt>
      <trkpt lat="46.35759" lon="-1.08675">
        <ele>49.022217</ele>
        <time>2022-12-19T14:36:15.382Z</time>
      </trkpt>
      <trkpt lat="46.35748" lon="-1.08673">
        <ele>49.038251</ele>
        <time>2022-12-19T14:36:18.375Z</time>
      </trkpt>
      <trkpt lat="46.35737" lon="-1.08671">
        <ele>49.054788</ele>
        <time>2022-12-19T14:36:21.367Z</time>
      </trkpt>
      <trkpt lat="46.35727" lon="-1.08669">
        <ele>49.070552</ele>
        <time>2022-12-19T14:36:24.369Z</time>
      </trkpt>
      <trkpt lat="46.35716" lon="-1.08666">
        <ele>49.086284</ele>
        <time>2022-12-19T14:36:27.366Z</time>
      </trkpt>
      <trkpt lat="46.35706" lon="-1.08664">
        <ele>49.102295</ele>
        <time>2022-12-19T14:36:30.372Z</time>
      </trkpt>
      <trkpt lat="46.35696" lon="-1.08662">
        <ele>49.117762</ele>
        <time>2022-12-19T14:36:33.375Z</time>
      </trkpt>
      <trkpt lat="46.35685" lon="-1.0866">
        <ele>49.133647</ele>
        <time>2022-12-19T14:36:36.359Z</time>
      </trkpt>
      <trkpt lat="46.35674" lon="-1.08658">
        <ele>49.150304</ele>
        <time>2022-12-19T14:36:39.373Z</time>
      </trkpt>
      <trkpt lat="46.35663" lon="-1.08656">
        <ele>49.166871</ele>
        <time>2022-12-19T14:36:42.364Z</time>
      </trkpt>
      <trkpt lat="46.35652" lon="-1.08653">
        <ele>49.183705</ele>
        <time>2022-12-19T14:36:45.364Z</time>
      </trkpt>
      <trkpt lat="46.35642" lon="-1.08651">
        <ele>49.19978</ele>
        <time>2022-12-19T14:36:48.352Z</time>
      </trkpt>
      <trkpt lat="46.35631" lon="-1.08649">
        <ele>49.215828</ele>
        <time>2022-12-19T14:36:51.365Z</time>
      </trkpt>
      <trkpt lat="46.35621" lon="-1.08647">
        <ele>49.257015</ele>
        <time>2022-12-19T14:36:54.349Z</time>
      </trkpt>
      <trkpt lat="46.35611" lon="-1.08645">
        <ele>49.326743</ele>
        <time>2022-12-19T14:36:57.363Z</time>
      </trkpt>
      <trkpt lat="46.35602" lon="-1.08644">
        <ele>49.388583</ele>
        <time>2022-12-19T14:37:00.364Z</time>
      </trkpt>
      <trkpt lat="46.35592" lon="-1.08642">
        <ele>49.453312</ele>
        <time>2022-12-19T14:37:03.363Z</time>
      </trkpt>
      <trkpt lat="46.35583" lon="-1.0864">
        <ele>49.518654</ele>
        <time>2022-12-19T14:37:06.362Z</time>
      </trkpt>
      <trkpt lat="46.35573" lon="-1.08638">
        <ele>49.585814</ele>
        <time>2022-12-19T14:37:09.370Z</time>
      </trkpt>
      <trkpt lat="46.35563" lon="-1.08636">
        <ele>49.655402</ele>
        <time>2022-12-19T14:37:12.370Z</time>
      </trkpt>
      <trkpt lat="46.35553" lon="-1.08635">
        <ele>49.724748</ele>
        <time>2022-12-19T14:37:15.353Z</time>
      </trkpt>
      <trkpt lat="46.35542" lon="-1.08634">
        <ele>49.795701</ele>
        <time>2022-12-19T14:37:18.357Z</time>
      </trkpt>
      <trkpt lat="46.35532" lon="-1.08633">
        <ele>49.868252</ele>
        <time>2022-12-19T14:37:21.363Z</time>
      </trkpt>
      <trkpt lat="46.35521" lon="-1.08631">
        <ele>49.939579</ele>
        <time>2022-12-19T14:37:24.364Z</time>
      </trkpt>
      <trkpt lat="46.35511" lon="-1.0863">
        <ele>50.008193</ele>
        <time>2022-12-19T14:37:27.368Z</time>
      </trkpt>
      <trkpt lat="46.35502" lon="-1.08629">
        <ele>50.070512</ele>
        <time>2022-12-19T14:37:30.376Z</time>
      </trkpt>
      <trkpt lat="46.35493" lon="-1.08628">
        <ele>50.133369</ele>
        <time>2022-12-19T14:37:34.365Z</time>
      </trkpt>
      <trkpt lat="46.35483" lon="-1.08624">
        <ele>50.203758</ele>
        <time>2022-12-19T14:37:38.361Z</time>
      </trkpt>
      <trkpt lat="46.35471" lon="-1.08621">
        <ele>50.284473</ele>
        <time>2022-12-19T14:37:42.368Z</time>
      </trkpt>
      <trkpt lat="46.35462" lon="-1.08619">
        <ele>50.34792</ele>
        <time>2022-12-19T14:37:45.376Z</time>
      </trkpt>
      <trkpt lat="46.35453" lon="-1.08617">
        <ele>50.414134</ele>
        <time>2022-12-19T14:37:48.361Z</time>
      </trkpt>
      <trkpt lat="46.35443" lon="-1.08614">
        <ele>50.433264</ele>
        <time>2022-12-19T14:37:51.369Z</time>
      </trkpt>
      <trkpt lat="46.35432" lon="-1.08611">
        <ele>50.391539</ele>
        <time>2022-12-19T14:37:54.365Z</time>
      </trkpt>
      <trkpt lat="46.35421" lon="-1.08608">
        <ele>50.350035</ele>
        <time>2022-12-19T14:37:57.364Z</time>
      </trkpt>
      <trkpt lat="46.3541" lon="-1.08605">
        <ele>50.306828</ele>
        <time>2022-12-19T14:38:00.368Z</time>
      </trkpt>
      <trkpt lat="46.35398" lon="-1.08603">
        <ele>50.264341</ele>
        <time>2022-12-19T14:38:03.348Z</time>
      </trkpt>
      <trkpt lat="46.35387" lon="-1.08601">
        <ele>50.221341</ele>
        <time>2022-12-19T14:38:06.374Z</time>
      </trkpt>
      <trkpt lat="46.35376" lon="-1.08599">
        <ele>50.179228</ele>
        <time>2022-12-19T14:38:09.363Z</time>
      </trkpt>
      <trkpt lat="46.35365" lon="-1.08596">
        <ele>50.136934</ele>
        <time>2022-12-19T14:38:12.376Z</time>
      </trkpt>
      <trkpt lat="46.35353" lon="-1.08594">
        <ele>50.09292</ele>
        <time>2022-12-19T14:38:15.382Z</time>
      </trkpt>
      <trkpt lat="46.35342" lon="-1.08592">
        <ele>50.048126</ele>
        <time>2022-12-19T14:38:18.362Z</time>
      </trkpt>
      <trkpt lat="46.3533" lon="-1.08589">
        <ele>50.003761</ele>
        <time>2022-12-19T14:38:21.349Z</time>
      </trkpt>
      <trkpt lat="46.35318" lon="-1.08586">
        <ele>49.958898</ele>
        <time>2022-12-19T14:38:24.372Z</time>
      </trkpt>
      <trkpt lat="46.35306" lon="-1.08585">
        <ele>49.913476</ele>
        <time>2022-12-19T14:38:27.365Z</time>
      </trkpt>
      <trkpt lat="46.35294" lon="-1.08582">
        <ele>49.868276</ele>
        <time>2022-12-19T14:38:30.376Z</time>
      </trkpt>
      <trkpt lat="46.35282" lon="-1.0858">
        <ele>49.822593</ele>
        <time>2022-12-19T14:38:33.364Z</time>
      </trkpt>
      <trkpt lat="46.3527" lon="-1.08577">
        <ele>49.775152</ele>
        <time>2022-12-19T14:38:36.350Z</time>
      </trkpt>
      <trkpt lat="46.35258" lon="-1.08575">
        <ele>49.731201</ele>
        <time>2022-12-19T14:38:39.366Z</time>
      </trkpt>
      <trkpt lat="46.35247" lon="-1.08572">
        <ele>49.68978</ele>
        <time>2022-12-19T14:38:42.369Z</time>
      </trkpt>
      <trkpt lat="46.35237" lon="-1.0857">
        <ele>49.653017</ele>
        <time>2022-12-19T14:38:45.358Z</time>
      </trkpt>
      <trkpt lat="46.35226" lon="-1.08568">
        <ele>49.613838</ele>
        <time>2022-12-19T14:38:48.379Z</time>
      </trkpt>
      <trkpt lat="46.35215" lon="-1.08565">
        <ele>49.574337</ele>
        <time>2022-12-19T14:38:51.366Z</time>
      </trkpt>
      <trkpt lat="46.35204" lon="-1.08564">
        <ele>49.532836</ele>
        <time>2022-12-19T14:38:54.355Z</time>
      </trkpt>
      <trkpt lat="46.35193" lon="-1.08562">
        <ele>49.493567</ele>
        <time>2022-12-19T14:38:57.363Z</time>
      </trkpt>
      <trkpt lat="46.35183" lon="-1.08559">
        <ele>49.455381</ele>
        <time>2022-12-19T14:39:00.374Z</time>
      </trkpt>
      <trkpt lat="46.35173" lon="-1.08557">
        <ele>49.417561</ele>
        <time>2022-12-19T14:39:03.367Z</time>
      </trkpt>
      <trkpt lat="46.35163" lon="-1.08555">
        <ele>49.37994</ele>
        <time>2022-12-19T14:39:06.368Z</time>
      </trkpt>
      <trkpt lat="46.35152" lon="-1.08553">
        <ele>49.342816</ele>
        <time>2022-12-19T14:39:09.365Z</time>
      </trkpt>
      <trkpt lat="46.35142" lon="-1.08551">
        <ele>49.303595</ele>
        <time>2022-12-19T14:39:12.364Z</time>
      </trkpt>
      <trkpt lat="46.35131" lon="-1.08549">
        <ele>49.263935</ele>
        <time>2022-12-19T14:39:15.379Z</time>
      </trkpt>
      <trkpt lat="46.35121" lon="-1.08546">
        <ele>49.224985</ele>
        <time>2022-12-19T14:39:18.373Z</time>
      </trkpt>
      <trkpt lat="46.3511" lon="-1.08545">
        <ele>49.187267</ele>
        <time>2022-12-19T14:39:21.364Z</time>
      </trkpt>
      <trkpt lat="46.351" lon="-1.08543">
        <ele>49.148923</ele>
        <time>2022-12-19T14:39:24.357Z</time>
      </trkpt>
      <trkpt lat="46.35089" lon="-1.08541">
        <ele>49.10878</ele>
        <time>2022-12-19T14:39:27.376Z</time>
      </trkpt>
      <trkpt lat="46.35078" lon="-1.08539">
        <ele>49.066075</ele>
        <time>2022-12-19T14:39:30.365Z</time>
      </trkpt>
      <trkpt lat="46.35067" lon="-1.08536">
        <ele>49.023297</ele>
        <time>2022-12-19T14:39:33.369Z</time>
      </trkpt>
      <trkpt lat="46.35056" lon="-1.08534">
        <ele>48.981241</ele>
        <time>2022-12-19T14:39:36.365Z</time>
      </trkpt>
      <trkpt lat="46.35045" lon="-1.08532">
        <ele>48.939398</ele>
        <time>2022-12-19T14:39:39.369Z</time>
      </trkpt>
      <trkpt lat="46.35034" lon="-1.0853">
        <ele>48.895858</ele>
        <time>2022-12-19T14:39:42.374Z</time>
      </trkpt>
      <trkpt lat="46.35023" lon="-1.08527">
        <ele>48.853</ele>
        <time>2022-12-19T14:39:45.371Z</time>
      </trkpt>
      <trkpt lat="46.35012" lon="-1.08525">
        <ele>48.810222</ele>
        <time>2022-12-19T14:39:48.373Z</time>
      </trkpt>
      <trkpt lat="46.35001" lon="-1.08523">
        <ele>48.766754</ele>
        <time>2022-12-19T14:39:51.357Z</time>
      </trkpt>
      <trkpt lat="46.3499" lon="-1.08521">
        <ele>48.724497</ele>
        <time>2022-12-19T14:39:54.363Z</time>
      </trkpt>
      <trkpt lat="46.34979" lon="-1.08519">
        <ele>48.681374</ele>
        <time>2022-12-19T14:39:57.362Z</time>
      </trkpt>
      <trkpt lat="46.34968" lon="-1.08517">
        <ele>48.637834</ele>
        <time>2022-12-19T14:40:00.368Z</time>
      </trkpt>
      <trkpt lat="46.34957" lon="-1.08514">
        <ele>48.595315</ele>
        <time>2022-12-19T14:40:03.350Z</time>
      </trkpt>
      <trkpt lat="46.34946" lon="-1.08512">
        <ele>48.551498</ele>
        <time>2022-12-19T14:40:06.366Z</time>
      </trkpt>
      <trkpt lat="46.34935" lon="-1.0851">
        <ele>48.508411</ele>
        <time>2022-12-19T14:40:09.352Z</time>
      </trkpt>
      <trkpt lat="46.34925" lon="-1.08508">
        <ele>48.471381</ele>
        <time>2022-12-19T14:40:12.353Z</time>
      </trkpt>
      <trkpt lat="46.34915" lon="-1.08506">
        <ele>48.432869</ele>
        <time>2022-12-19T14:40:15.370Z</time>
      </trkpt>
      <trkpt lat="46.34905" lon="-1.08504">
        <ele>48.465591</ele>
        <time>2022-12-19T14:40:18.363Z</time>
      </trkpt>
      <trkpt lat="46.34895" lon="-1.08502">
        <ele>48.514949</ele>
        <time>2022-12-19T14:40:21.350Z</time>
      </trkpt>
      <trkpt lat="46.34884" lon="-1.085">
        <ele>48.565414</ele>
        <time>2022-12-19T14:40:24.369Z</time>
      </trkpt>
      <trkpt lat="46.34874" lon="-1.08498">
        <ele>48.61467</ele>
        <time>2022-12-19T14:40:27.374Z</time>
      </trkpt>
      <trkpt lat="46.34864" lon="-1.08496">
        <ele>48.660433</ele>
        <time>2022-12-19T14:40:30.360Z</time>
      </trkpt>
      <trkpt lat="46.34855" lon="-1.08494">
        <ele>48.707617</ele>
        <time>2022-12-19T14:40:33.375Z</time>
      </trkpt>
      <trkpt lat="46.34844" lon="-1.08492">
        <ele>48.757818</ele>
        <time>2022-12-19T14:40:36.368Z</time>
      </trkpt>
      <trkpt lat="46.34834" lon="-1.0849">
        <ele>48.807973</ele>
        <time>2022-12-19T14:40:39.381Z</time>
      </trkpt>
      <trkpt lat="46.34823" lon="-1.08488">
        <ele>48.858084</ele>
        <time>2022-12-19T14:40:42.356Z</time>
      </trkpt>
      <trkpt lat="46.34813" lon="-1.08486">
        <ele>48.908112</ele>
        <time>2022-12-19T14:40:45.376Z</time>
      </trkpt>
      <trkpt lat="46.34802" lon="-1.08484">
        <ele>48.95874</ele>
        <time>2022-12-19T14:40:48.365Z</time>
      </trkpt>
      <trkpt lat="46.34791" lon="-1.08482">
        <ele>49.01462</ele>
        <time>2022-12-19T14:40:52.353Z</time>
      </trkpt>
      <trkpt lat="46.34779" lon="-1.08479">
        <ele>49.072784</ele>
        <time>2022-12-19T14:40:56.368Z</time>
      </trkpt>
      <trkpt lat="46.34769" lon="-1.08476">
        <ele>49.121568</ele>
        <time>2022-12-19T14:40:59.375Z</time>
      </trkpt>
      <trkpt lat="46.34758" lon="-1.08474">
        <ele>49.17267</ele>
        <time>2022-12-19T14:41:02.365Z</time>
      </trkpt>
      <trkpt lat="46.34747" lon="-1.08472">
        <ele>49.224634</ele>
        <time>2022-12-19T14:41:05.369Z</time>
      </trkpt>
      <trkpt lat="46.34736" lon="-1.08471">
        <ele>49.277377</ele>
        <time>2022-12-19T14:41:08.376Z</time>
      </trkpt>
      <trkpt lat="46.34725" lon="-1.08468">
        <ele>49.247091</ele>
        <time>2022-12-19T14:41:11.367Z</time>
      </trkpt>
      <trkpt lat="46.34714" lon="-1.08466">
        <ele>49.203434</ele>
        <time>2022-12-19T14:41:14.377Z</time>
      </trkpt>
      <trkpt lat="46.34703" lon="-1.08464">
        <ele>49.159703</ele>
        <time>2022-12-19T14:41:17.373Z</time>
      </trkpt>
      <trkpt lat="46.34692" lon="-1.08461">
        <ele>49.115627</ele>
        <time>2022-12-19T14:41:20.364Z</time>
      </trkpt>
      <trkpt lat="46.34681" lon="-1.08459">
        <ele>49.071934</ele>
        <time>2022-12-19T14:41:23.360Z</time>
      </trkpt>
      <trkpt lat="46.34669" lon="-1.08457">
        <ele>49.028053</ele>
        <time>2022-12-19T14:41:26.353Z</time>
      </trkpt>
      <trkpt lat="46.34658" lon="-1.08455">
        <ele>48.984959</ele>
        <time>2022-12-19T14:41:29.371Z</time>
      </trkpt>
      <trkpt lat="46.34649" lon="-1.08453">
        <ele>48.949026</ele>
        <time>2022-12-19T14:41:32.372Z</time>
      </trkpt>
      <trkpt lat="46.3464" lon="-1.08451">
        <ele>48.912553</ele>
        <time>2022-12-19T14:41:35.376Z</time>
      </trkpt>
      <trkpt lat="46.34629" lon="-1.08449">
        <ele>48.872638</ele>
        <time>2022-12-19T14:41:38.368Z</time>
      </trkpt>
      <trkpt lat="46.34619" lon="-1.08447">
        <ele>48.832533</ele>
        <time>2022-12-19T14:41:41.376Z</time>
      </trkpt>
      <trkpt lat="46.34609" lon="-1.08445">
        <ele>48.793577</ele>
        <time>2022-12-19T14:41:44.370Z</time>
      </trkpt>
      <trkpt lat="46.34599" lon="-1.08443">
        <ele>48.754271</ele>
        <time>2022-12-19T14:41:47.368Z</time>
      </trkpt>
      <trkpt lat="46.34589" lon="-1.08441">
        <ele>48.714513</ele>
        <time>2022-12-19T14:41:50.380Z</time>
      </trkpt>
      <trkpt lat="46.34578" lon="-1.08439">
        <ele>48.673608</ele>
        <time>2022-12-19T14:41:53.381Z</time>
      </trkpt>
      <trkpt lat="46.34567" lon="-1.08438">
        <ele>48.629698</ele>
        <time>2022-12-19T14:41:56.365Z</time>
      </trkpt>
      <trkpt lat="46.34556" lon="-1.08435">
        <ele>48.591984</ele>
        <time>2022-12-19T14:41:59.371Z</time>
      </trkpt>
      <trkpt lat="46.34546" lon="-1.08433">
        <ele>48.624074</ele>
        <time>2022-12-19T14:42:02.381Z</time>
      </trkpt>
      <trkpt lat="46.34536" lon="-1.08431">
        <ele>48.652772</ele>
        <time>2022-12-19T14:42:05.350Z</time>
      </trkpt>
      <trkpt lat="46.34527" lon="-1.08429">
        <ele>48.68339</ele>
        <time>2022-12-19T14:42:08.349Z</time>
      </trkpt>
      <trkpt lat="46.34516" lon="-1.08427">
        <ele>48.715773</ele>
        <time>2022-12-19T14:42:11.369Z</time>
      </trkpt>
      <trkpt lat="46.34506" lon="-1.08425">
        <ele>48.747827</ele>
        <time>2022-12-19T14:42:14.349Z</time>
      </trkpt>
      <trkpt lat="46.34495" lon="-1.08422">
        <ele>48.780756</ele>
        <time>2022-12-19T14:42:17.372Z</time>
      </trkpt>
      <trkpt lat="46.34484" lon="-1.0842">
        <ele>48.814201</ele>
        <time>2022-12-19T14:42:20.372Z</time>
      </trkpt>
      <trkpt lat="46.34474" lon="-1.08418">
        <ele>48.847675</ele>
        <time>2022-12-19T14:42:23.363Z</time>
      </trkpt>
      <trkpt lat="46.34463" lon="-1.08416">
        <ele>48.881018</ele>
        <time>2022-12-19T14:42:26.360Z</time>
      </trkpt>
      <trkpt lat="46.34452" lon="-1.08414">
        <ele>48.91441</ele>
        <time>2022-12-19T14:42:29.375Z</time>
      </trkpt>
      <trkpt lat="46.34442" lon="-1.08412">
        <ele>48.946365</ele>
        <time>2022-12-19T14:42:32.378Z</time>
      </trkpt>
      <trkpt lat="46.34433" lon="-1.0841">
        <ele>48.974681</ele>
        <time>2022-12-19T14:42:35.364Z</time>
      </trkpt>
      <trkpt lat="46.34423" lon="-1.08408">
        <ele>49.005001</ele>
        <time>2022-12-19T14:42:38.374Z</time>
      </trkpt>
      <trkpt lat="46.34413" lon="-1.08407">
        <ele>49.035226</ele>
        <time>2022-12-19T14:42:41.375Z</time>
      </trkpt>
      <trkpt lat="46.34403" lon="-1.08405">
        <ele>49.066978</ele>
        <time>2022-12-19T14:42:44.375Z</time>
      </trkpt>
      <trkpt lat="46.34392" lon="-1.08403">
        <ele>49.098997</ele>
        <time>2022-12-19T14:42:47.377Z</time>
      </trkpt>
      <trkpt lat="46.34382" lon="-1.08401">
        <ele>49.131097</ele>
        <time>2022-12-19T14:42:50.367Z</time>
      </trkpt>
      <trkpt lat="46.34371" lon="-1.084">
        <ele>49.123837</ele>
        <time>2022-12-19T14:42:53.377Z</time>
      </trkpt>
      <trkpt lat="46.34362" lon="-1.08399">
        <ele>49.099089</ele>
        <time>2022-12-19T14:42:56.368Z</time>
      </trkpt>
      <trkpt lat="46.34351" lon="-1.08398">
        <ele>49.073777</ele>
        <time>2022-12-19T14:42:59.368Z</time>
      </trkpt>
      <trkpt lat="46.34341" lon="-1.08397">
        <ele>49.047002</ele>
        <time>2022-12-19T14:43:02.375Z</time>
      </trkpt>
      <trkpt lat="46.3433" lon="-1.08395">
        <ele>49.021139</ele>
        <time>2022-12-19T14:43:05.377Z</time>
      </trkpt>
      <trkpt lat="46.3432" lon="-1.08393">
        <ele>48.995658</ele>
        <time>2022-12-19T14:43:08.369Z</time>
      </trkpt>
      <trkpt lat="46.3431" lon="-1.0839">
        <ele>48.970341</ele>
        <time>2022-12-19T14:43:11.355Z</time>
      </trkpt>
      <trkpt lat="46.343" lon="-1.08387">
        <ele>48.944409</ele>
        <time>2022-12-19T14:43:14.362Z</time>
      </trkpt>
      <trkpt lat="46.3429" lon="-1.08385">
        <ele>48.918655</ele>
        <time>2022-12-19T14:43:17.377Z</time>
      </trkpt>
      <trkpt lat="46.34279" lon="-1.08382">
        <ele>48.89205</ele>
        <time>2022-12-19T14:43:20.372Z</time>
      </trkpt>
      <trkpt lat="46.34269" lon="-1.0838">
        <ele>48.86566</ele>
        <time>2022-12-19T14:43:23.354Z</time>
      </trkpt>
      <trkpt lat="46.34259" lon="-1.08378">
        <ele>48.841216</ele>
        <time>2022-12-19T14:43:26.377Z</time>
      </trkpt>
      <trkpt lat="46.3425" lon="-1.08375">
        <ele>48.816666</ele>
        <time>2022-12-19T14:43:29.364Z</time>
      </trkpt>
      <trkpt lat="46.3424" lon="-1.08372">
        <ele>48.792128</ele>
        <time>2022-12-19T14:43:32.364Z</time>
      </trkpt>
      <trkpt lat="46.3423" lon="-1.0837">
        <ele>48.766621</ele>
        <time>2022-12-19T14:43:35.365Z</time>
      </trkpt>
      <trkpt lat="46.3422" lon="-1.08367">
        <ele>48.7417</ele>
        <time>2022-12-19T14:43:38.365Z</time>
      </trkpt>
      <trkpt lat="46.34211" lon="-1.08365">
        <ele>48.718022</ele>
        <time>2022-12-19T14:43:41.373Z</time>
      </trkpt>
      <trkpt lat="46.34201" lon="-1.08363">
        <ele>48.693377</ele>
        <time>2022-12-19T14:43:44.370Z</time>
      </trkpt>
      <trkpt lat="46.34191" lon="-1.08362">
        <ele>48.725775</ele>
        <time>2022-12-19T14:43:47.365Z</time>
      </trkpt>
      <trkpt lat="46.34182" lon="-1.0836">
        <ele>48.756457</ele>
        <time>2022-12-19T14:43:50.370Z</time>
      </trkpt>
      <trkpt lat="46.3417" lon="-1.08358">
        <ele>48.795075</ele>
        <time>2022-12-19T14:43:54.374Z</time>
      </trkpt>
      <trkpt lat="46.3416" lon="-1.08356">
        <ele>48.828407</ele>
        <time>2022-12-19T14:43:57.378Z</time>
      </trkpt>
      <trkpt lat="46.3415" lon="-1.08355">
        <ele>48.863066</ele>
        <time>2022-12-19T14:44:00.374Z</time>
      </trkpt>
      <trkpt lat="46.3414" lon="-1.08352">
        <ele>48.898838</ele>
        <time>2022-12-19T14:44:03.369Z</time>
      </trkpt>
      <trkpt lat="46.34129" lon="-1.08351">
        <ele>48.933497</ele>
        <time>2022-12-19T14:44:06.365Z</time>
      </trkpt>
      <trkpt lat="46.3412" lon="-1.08348">
        <ele>48.966297</ele>
        <time>2022-12-19T14:44:09.376Z</time>
      </trkpt>
      <trkpt lat="46.3411" lon="-1.08346">
        <ele>48.999028</ele>
        <time>2022-12-19T14:44:12.376Z</time>
      </trkpt>
      <trkpt lat="46.341" lon="-1.08345">
        <ele>49.033355</ele>
        <time>2022-12-19T14:44:15.377Z</time>
      </trkpt>
      <trkpt lat="46.34089" lon="-1.08342">
        <ele>49.068467</ele>
        <time>2022-12-19T14:44:18.376Z</time>
      </trkpt>
      <trkpt lat="46.34079" lon="-1.0834">
        <ele>49.104177</ele>
        <time>2022-12-19T14:44:21.378Z</time>
      </trkpt>
      <trkpt lat="46.34068" lon="-1.08338">
        <ele>49.139323</ele>
        <time>2022-12-19T14:44:24.365Z</time>
      </trkpt>
      <trkpt lat="46.34057" lon="-1.08336">
        <ele>49.175696</ele>
        <time>2022-12-19T14:44:27.368Z</time>
      </trkpt>
      <trkpt lat="46.34047" lon="-1.08334">
        <ele>49.211833</ele>
        <time>2022-12-19T14:44:30.370Z</time>
      </trkpt>
      <trkpt lat="46.34036" lon="-1.08332">
        <ele>49.247543</ele>
        <time>2022-12-19T14:44:33.377Z</time>
      </trkpt>
      <trkpt lat="46.34026" lon="-1.0833">
        <ele>49.283254</ele>
        <time>2022-12-19T14:44:36.359Z</time>
      </trkpt>
      <trkpt lat="46.34015" lon="-1.08327">
        <ele>49.242415</ele>
        <time>2022-12-19T14:44:39.376Z</time>
      </trkpt>
      <trkpt lat="46.34004" lon="-1.08326">
        <ele>49.171367</ele>
        <time>2022-12-19T14:44:42.361Z</time>
      </trkpt>
      <trkpt lat="46.33994" lon="-1.08323">
        <ele>49.100401</ele>
        <time>2022-12-19T14:44:45.372Z</time>
      </trkpt>
      <trkpt lat="46.33983" lon="-1.08321">
        <ele>49.031388</ele>
        <time>2022-12-19T14:44:48.377Z</time>
      </trkpt>
      <trkpt lat="46.33973" lon="-1.08319">
        <ele>48.960499</ele>
        <time>2022-12-19T14:44:51.376Z</time>
      </trkpt>
      <trkpt lat="46.33962" lon="-1.08317">
        <ele>48.889752</ele>
        <time>2022-12-19T14:44:54.377Z</time>
      </trkpt>
      <trkpt lat="46.33952" lon="-1.08315">
        <ele>48.820689</ele>
        <time>2022-12-19T14:44:57.377Z</time>
      </trkpt>
      <trkpt lat="46.33942" lon="-1.08312">
        <ele>48.748988</ele>
        <time>2022-12-19T14:45:00.366Z</time>
      </trkpt>
      <trkpt lat="46.3393" lon="-1.0831">
        <ele>48.674351</ele>
        <time>2022-12-19T14:45:03.375Z</time>
      </trkpt>
      <trkpt lat="46.3392" lon="-1.08307">
        <ele>48.601744</ele>
        <time>2022-12-19T14:45:06.363Z</time>
      </trkpt>
      <trkpt lat="46.33909" lon="-1.08305">
        <ele>48.530696</ele>
        <time>2022-12-19T14:45:09.343Z</time>
      </trkpt>
      <trkpt lat="46.33898" lon="-1.08303">
        <ele>48.457682</ele>
        <time>2022-12-19T14:45:12.350Z</time>
      </trkpt>
      <trkpt lat="46.33887" lon="-1.083">
        <ele>48.383045</ele>
        <time>2022-12-19T14:45:15.379Z</time>
      </trkpt>
      <trkpt lat="46.33877" lon="-1.08299">
        <ele>48.315912</ele>
        <time>2022-12-19T14:45:18.375Z</time>
      </trkpt>
      <trkpt lat="46.33868" lon="-1.08297">
        <ele>48.251014</ele>
        <time>2022-12-19T14:45:21.368Z</time>
      </trkpt>
      <trkpt lat="46.33857" lon="-1.08295">
        <ele>48.182243</ele>
        <time>2022-12-19T14:45:24.376Z</time>
      </trkpt>
      <trkpt lat="46.33847" lon="-1.08293">
        <ele>48.111804</ele>
        <time>2022-12-19T14:45:27.364Z</time>
      </trkpt>
      <trkpt lat="46.33836" lon="-1.08291">
        <ele>48.044436</ele>
        <time>2022-12-19T14:45:30.350Z</time>
      </trkpt>
      <trkpt lat="46.33826" lon="-1.08289">
        <ele>47.978849</ele>
        <time>2022-12-19T14:45:33.363Z</time>
      </trkpt>
      <trkpt lat="46.33815" lon="-1.08286">
        <ele>47.912026</ele>
        <time>2022-12-19T14:45:36.381Z</time>
      </trkpt>
      <trkpt lat="46.33805" lon="-1.08284">
        <ele>47.846499</ele>
        <time>2022-12-19T14:45:39.364Z</time>
      </trkpt>
      <trkpt lat="46.33795" lon="-1.08282">
        <ele>47.784122</ele>
        <time>2022-12-19T14:45:42.375Z</time>
      </trkpt>
      <trkpt lat="46.33785" lon="-1.08281">
        <ele>47.719479</ele>
        <time>2022-12-19T14:45:45.350Z</time>
      </trkpt>
      <trkpt lat="46.33775" lon="-1.08278">
        <ele>47.656294</ele>
        <time>2022-12-19T14:45:48.363Z</time>
      </trkpt>
      <trkpt lat="46.33764" lon="-1.08276">
        <ele>47.590767</ele>
        <time>2022-12-19T14:45:51.378Z</time>
      </trkpt>
      <trkpt lat="46.33754" lon="-1.08275">
        <ele>47.526249</ele>
        <time>2022-12-19T14:45:54.374Z</time>
      </trkpt>
      <trkpt lat="46.33743" lon="-1.08272">
        <ele>47.453478</ele>
        <time>2022-12-19T14:45:58.372Z</time>
      </trkpt>
      <trkpt lat="46.33733" lon="-1.0827">
        <ele>47.394928</ele>
        <time>2022-12-19T14:46:01.348Z</time>
      </trkpt>
      <trkpt lat="46.33724" lon="-1.08268">
        <ele>47.333659</ele>
        <time>2022-12-19T14:46:04.376Z</time>
      </trkpt>
      <trkpt lat="46.33713" lon="-1.08266">
        <ele>47.268689</ele>
        <time>2022-12-19T14:46:07.370Z</time>
      </trkpt>
      <trkpt lat="46.33703" lon="-1.08264">
        <ele>47.201249</ele>
        <time>2022-12-19T14:46:10.374Z</time>
      </trkpt>
      <trkpt lat="46.33692" lon="-1.08262">
        <ele>47.133978</ele>
        <time>2022-12-19T14:46:13.375Z</time>
      </trkpt>
      <trkpt lat="46.33682" lon="-1.0826">
        <ele>47.069999</ele>
        <time>2022-12-19T14:46:16.365Z</time>
      </trkpt>
      <trkpt lat="46.33671" lon="-1.08259">
        <ele>47.005824</ele>
        <time>2022-12-19T14:46:19.378Z</time>
      </trkpt>
      <trkpt lat="46.33661" lon="-1.08256">
        <ele>46.960129</ele>
        <time>2022-12-19T14:46:22.376Z</time>
      </trkpt>
      <trkpt lat="46.33651" lon="-1.08255">
        <ele>46.936504</ele>
        <time>2022-12-19T14:46:25.366Z</time>
      </trkpt>
      <trkpt lat="46.33641" lon="-1.08253">
        <ele>46.911856</ele>
        <time>2022-12-19T14:46:28.377Z</time>
      </trkpt>
      <trkpt lat="46.33631" lon="-1.08251">
        <ele>46.886706</ele>
        <time>2022-12-19T14:46:31.368Z</time>
      </trkpt>
      <trkpt lat="46.33621" lon="-1.08249">
        <ele>46.862101</ele>
        <time>2022-12-19T14:46:34.374Z</time>
      </trkpt>
      <trkpt lat="46.33611" lon="-1.08247">
        <ele>46.837453</ele>
        <time>2022-12-19T14:46:37.375Z</time>
      </trkpt>
      <trkpt lat="46.336" lon="-1.08245">
        <ele>46.812198</ele>
        <time>2022-12-19T14:46:40.358Z</time>
      </trkpt>
      <trkpt lat="46.3359" lon="-1.08242">
        <ele>46.787032</ele>
        <time>2022-12-19T14:46:43.359Z</time>
      </trkpt>
      <trkpt lat="46.3358" lon="-1.0824">
        <ele>46.763028</ele>
        <time>2022-12-19T14:46:46.370Z</time>
      </trkpt>
      <trkpt lat="46.3357" lon="-1.08239">
        <ele>46.739233</ele>
        <time>2022-12-19T14:46:49.367Z</time>
      </trkpt>
      <trkpt lat="46.3356" lon="-1.08237">
        <ele>46.713705</ele>
        <time>2022-12-19T14:46:52.349Z</time>
      </trkpt>
      <trkpt lat="46.33549" lon="-1.08235">
        <ele>46.687379</ele>
        <time>2022-12-19T14:46:55.379Z</time>
      </trkpt>
      <trkpt lat="46.33539" lon="-1.08233">
        <ele>46.662012</ele>
        <time>2022-12-19T14:46:58.375Z</time>
      </trkpt>
      <trkpt lat="46.33528" lon="-1.0823">
        <ele>46.634769</ele>
        <time>2022-12-19T14:47:02.352Z</time>
      </trkpt>
      <trkpt lat="46.33519" lon="-1.08228">
        <ele>46.612754</ele>
        <time>2022-12-19T14:47:05.364Z</time>
      </trkpt>
      <trkpt lat="46.33508" lon="-1.08227">
        <ele>46.586985</ele>
        <time>2022-12-19T14:47:08.376Z</time>
      </trkpt>
      <trkpt lat="46.33498" lon="-1.08225">
        <ele>46.56264</ele>
        <time>2022-12-19T14:47:11.365Z</time>
      </trkpt>
      <trkpt lat="46.33488" lon="-1.08223">
        <ele>46.536681</ele>
        <time>2022-12-19T14:47:14.367Z</time>
      </trkpt>
      <trkpt lat="46.33477" lon="-1.08221">
        <ele>46.474158</ele>
        <time>2022-12-19T14:47:17.379Z</time>
      </trkpt>
      <trkpt lat="46.33467" lon="-1.0822">
        <ele>46.412018</ele>
        <time>2022-12-19T14:47:20.365Z</time>
      </trkpt>
      <trkpt lat="46.33455" lon="-1.08218">
        <ele>46.344946</ele>
        <time>2022-12-19T14:47:23.352Z</time>
      </trkpt>
      <trkpt lat="46.33444" lon="-1.08218">
        <ele>46.281667</ele>
        <time>2022-12-19T14:47:26.365Z</time>
      </trkpt>
      <trkpt lat="46.33434" lon="-1.08217">
        <ele>46.218974</ele>
        <time>2022-12-19T14:47:29.380Z</time>
      </trkpt>
      <trkpt lat="46.33424" lon="-1.08217">
        <ele>46.159174</ele>
        <time>2022-12-19T14:47:32.380Z</time>
      </trkpt>
      <trkpt lat="46.33412" lon="-1.08217">
        <ele>46.09417</ele>
        <time>2022-12-19T14:47:36.351Z</time>
      </trkpt>
      <trkpt lat="46.33403" lon="-1.08216">
        <ele>46.041339</ele>
        <time>2022-12-19T14:47:39.377Z</time>
      </trkpt>
      <trkpt lat="46.33393" lon="-1.08214">
        <ele>45.982505</ele>
        <time>2022-12-19T14:47:42.380Z</time>
      </trkpt>
      <trkpt lat="46.33383" lon="-1.08213">
        <ele>45.921922</ele>
        <time>2022-12-19T14:47:45.371Z</time>
      </trkpt>
      <trkpt lat="46.33373" lon="-1.08211">
        <ele>45.860003</ele>
        <time>2022-12-19T14:47:48.378Z</time>
      </trkpt>
      <trkpt lat="46.33362" lon="-1.0821">
        <ele>45.798798</ele>
        <time>2022-12-19T14:47:51.376Z</time>
      </trkpt>
      <trkpt lat="46.33352" lon="-1.08208">
        <ele>45.738215</ele>
        <time>2022-12-19T14:47:54.363Z</time>
      </trkpt>
      <trkpt lat="46.33342" lon="-1.08206">
        <ele>45.679365</ele>
        <time>2022-12-19T14:47:57.374Z</time>
      </trkpt>
      <trkpt lat="46.33333" lon="-1.08203">
        <ele>45.624548</ele>
        <time>2022-12-19T14:48:00.366Z</time>
      </trkpt>
      <trkpt lat="46.33324" lon="-1.08201">
        <ele>45.569875</ele>
        <time>2022-12-19T14:48:03.375Z</time>
      </trkpt>
      <trkpt lat="46.33314" lon="-1.08198">
        <ele>45.513675</ele>
        <time>2022-12-19T14:48:06.356Z</time>
      </trkpt>
      <trkpt lat="46.33305" lon="-1.08196">
        <ele>45.478229</ele>
        <time>2022-12-19T14:48:09.349Z</time>
      </trkpt>
      <trkpt lat="46.33295" lon="-1.08194">
        <ele>45.464727</ele>
        <time>2022-12-19T14:48:12.358Z</time>
      </trkpt>
      <trkpt lat="46.33285" lon="-1.08191">
        <ele>45.450924</ele>
        <time>2022-12-19T14:48:15.380Z</time>
      </trkpt>
      <trkpt lat="46.33275" lon="-1.08189">
        <ele>45.43818</ele>
        <time>2022-12-19T14:48:18.364Z</time>
      </trkpt>
      <trkpt lat="46.33266" lon="-1.08187">
        <ele>45.425326</ele>
        <time>2022-12-19T14:48:21.352Z</time>
      </trkpt>
      <trkpt lat="46.33256" lon="-1.08185">
        <ele>45.411763</ele>
        <time>2022-12-19T14:48:24.373Z</time>
      </trkpt>
      <trkpt lat="46.33246" lon="-1.08183">
        <ele>45.39782</ele>
        <time>2022-12-19T14:48:27.377Z</time>
      </trkpt>
      <trkpt lat="46.33235" lon="-1.08181">
        <ele>45.383438</ele>
        <time>2022-12-19T14:48:30.371Z</time>
      </trkpt>
      <trkpt lat="46.33225" lon="-1.08179">
        <ele>45.369042</ele>
        <time>2022-12-19T14:48:33.371Z</time>
      </trkpt>
      <trkpt lat="46.33215" lon="-1.08178">
        <ele>45.354986</ele>
        <time>2022-12-19T14:48:36.377Z</time>
      </trkpt>
      <trkpt lat="46.33204" lon="-1.08176">
        <ele>45.341019</ele>
        <time>2022-12-19T14:48:39.373Z</time>
      </trkpt>
      <trkpt lat="46.33195" lon="-1.08174">
        <ele>45.327469</ele>
        <time>2022-12-19T14:48:42.376Z</time>
      </trkpt>
      <trkpt lat="46.33185" lon="-1.08172">
        <ele>45.314053</ele>
        <time>2022-12-19T14:48:45.379Z</time>
      </trkpt>
      <trkpt lat="46.33175" lon="-1.0817">
        <ele>45.300771</ele>
        <time>2022-12-19T14:48:48.374Z</time>
      </trkpt>
      <trkpt lat="46.33165" lon="-1.08168">
        <ele>45.28712</ele>
        <time>2022-12-19T14:48:51.375Z</time>
      </trkpt>
      <trkpt lat="46.33155" lon="-1.08166">
        <ele>45.273247</ele>
        <time>2022-12-19T14:48:54.368Z</time>
      </trkpt>
      <trkpt lat="46.33145" lon="-1.08164">
        <ele>45.259522</ele>
        <time>2022-12-19T14:48:57.378Z</time>
      </trkpt>
      <trkpt lat="46.33135" lon="-1.08162">
        <ele>45.245321</ele>
        <time>2022-12-19T14:49:00.378Z</time>
      </trkpt>
      <trkpt lat="46.33124" lon="-1.0816">
        <ele>45.252692</ele>
        <time>2022-12-19T14:49:03.370Z</time>
      </trkpt>
      <trkpt lat="46.33114" lon="-1.08158">
        <ele>45.270007</ele>
        <time>2022-12-19T14:49:06.377Z</time>
      </trkpt>
      <trkpt lat="46.33104" lon="-1.08157">
        <ele>45.287824</ele>
        <time>2022-12-19T14:49:09.381Z</time>
      </trkpt>
      <trkpt lat="46.33094" lon="-1.08155">
        <ele>45.306051</ele>
        <time>2022-12-19T14:49:12.369Z</time>
      </trkpt>
      <trkpt lat="46.33083" lon="-1.08153">
        <ele>45.324064</ele>
        <time>2022-12-19T14:49:15.378Z</time>
      </trkpt>
      <trkpt lat="46.33073" lon="-1.08151">
        <ele>45.342341</ele>
        <time>2022-12-19T14:49:18.380Z</time>
      </trkpt>
      <trkpt lat="46.33062" lon="-1.08149">
        <ele>45.36091</ele>
        <time>2022-12-19T14:49:21.366Z</time>
      </trkpt>
      <trkpt lat="46.33051" lon="-1.08146">
        <ele>45.379494</ele>
        <time>2022-12-19T14:49:24.360Z</time>
      </trkpt>
      <trkpt lat="46.33041" lon="-1.08144">
        <ele>45.398318</ele>
        <time>2022-12-19T14:49:27.374Z</time>
      </trkpt>
      <trkpt lat="46.3303" lon="-1.08142">
        <ele>45.417057</ele>
        <time>2022-12-19T14:49:30.377Z</time>
      </trkpt>
      <trkpt lat="46.3302" lon="-1.0814">
        <ele>45.433333</ele>
        <time>2022-12-19T14:49:33.361Z</time>
      </trkpt>
      <trkpt lat="46.33008" lon="-1.08138">
        <ele>45.454465</ele>
        <time>2022-12-19T14:49:37.375Z</time>
      </trkpt>
      <trkpt lat="46.32998" lon="-1.08136">
        <ele>45.471669</ele>
        <time>2022-12-19T14:49:40.369Z</time>
      </trkpt>
      <trkpt lat="46.32988" lon="-1.08135">
        <ele>45.489881</ele>
        <time>2022-12-19T14:49:43.368Z</time>
      </trkpt>
      <trkpt lat="46.32977" lon="-1.08133">
        <ele>45.508421</ele>
        <time>2022-12-19T14:49:46.356Z</time>
      </trkpt>
      <trkpt lat="46.32966" lon="-1.08131">
        <ele>45.527473</ele>
        <time>2022-12-19T14:49:49.372Z</time>
      </trkpt>
      <trkpt lat="46.32955" lon="-1.08129">
        <ele>45.546772</ele>
        <time>2022-12-19T14:49:52.377Z</time>
      </trkpt>
      <trkpt lat="46.32944" lon="-1.08127">
        <ele>45.57981</ele>
        <time>2022-12-19T14:49:55.375Z</time>
      </trkpt>
      <trkpt lat="46.32934" lon="-1.08125">
        <ele>45.614383</ele>
        <time>2022-12-19T14:49:58.375Z</time>
      </trkpt>
      <trkpt lat="46.32924" lon="-1.08123">
        <ele>45.645728</ele>
        <time>2022-12-19T14:50:01.389Z</time>
      </trkpt>
      <trkpt lat="46.32914" lon="-1.08121">
        <ele>45.680738</ele>
        <time>2022-12-19T14:50:05.356Z</time>
      </trkpt>
      <trkpt lat="46.32902" lon="-1.08119">
        <ele>45.719633</ele>
        <time>2022-12-19T14:50:09.377Z</time>
      </trkpt>
      <trkpt lat="46.32892" lon="-1.08117">
        <ele>45.753105</ele>
        <time>2022-12-19T14:50:12.354Z</time>
      </trkpt>
      <trkpt lat="46.32882" lon="-1.08115">
        <ele>45.787523</ele>
        <time>2022-12-19T14:50:15.353Z</time>
      </trkpt>
      <trkpt lat="46.32871" lon="-1.08113">
        <ele>45.822955</ele>
        <time>2022-12-19T14:50:18.375Z</time>
      </trkpt>
      <trkpt lat="46.32861" lon="-1.08111">
        <ele>45.858186</ele>
        <time>2022-12-19T14:50:21.376Z</time>
      </trkpt>
      <trkpt lat="46.3285" lon="-1.08109">
        <ele>45.893</ele>
        <time>2022-12-19T14:50:24.352Z</time>
      </trkpt>
      <trkpt lat="46.32839" lon="-1.08106">
        <ele>45.929447</ele>
        <time>2022-12-19T14:50:27.361Z</time>
      </trkpt>
      <trkpt lat="46.32828" lon="-1.08104">
        <ele>45.965828</ele>
        <time>2022-12-19T14:50:30.378Z</time>
      </trkpt>
      <trkpt lat="46.32818" lon="-1.08102">
        <ele>46.001036</ele>
        <time>2022-12-19T14:50:33.365Z</time>
      </trkpt>
      <trkpt lat="46.32807" lon="-1.081">
        <ele>46.037844</ele>
        <time>2022-12-19T14:50:37.375Z</time>
      </trkpt>
      <trkpt lat="46.32797" lon="-1.08099">
        <ele>46.071674</ele>
        <time>2022-12-19T14:50:41.377Z</time>
      </trkpt>
      <trkpt lat="46.32788" lon="-1.08096">
        <ele>46.10156</ele>
        <time>2022-12-19T14:50:44.377Z</time>
      </trkpt>
      <trkpt lat="46.32778" lon="-1.08095">
        <ele>46.133263</ele>
        <time>2022-12-19T14:50:47.386Z</time>
      </trkpt>
      <trkpt lat="46.32768" lon="-1.08093">
        <ele>46.131318</ele>
        <time>2022-12-19T14:50:50.374Z</time>
      </trkpt>
      <trkpt lat="46.32758" lon="-1.08092">
        <ele>46.109848</ele>
        <time>2022-12-19T14:50:53.371Z</time>
      </trkpt>
      <trkpt lat="46.32748" lon="-1.08091">
        <ele>46.088181</ele>
        <time>2022-12-19T14:50:56.369Z</time>
      </trkpt>
      <trkpt lat="46.32737" lon="-1.08089">
        <ele>46.066031</ele>
        <time>2022-12-19T14:50:59.381Z</time>
      </trkpt>
      <trkpt lat="46.32727" lon="-1.08089">
        <ele>46.045039</ele>
        <time>2022-12-19T14:51:02.369Z</time>
      </trkpt>
      <trkpt lat="46.32715" lon="-1.08088">
        <ele>46.020487</ele>
        <time>2022-12-19T14:51:06.372Z</time>
      </trkpt>
      <trkpt lat="46.32706" lon="-1.08088">
        <ele>46.001376</ele>
        <time>2022-12-19T14:51:09.363Z</time>
      </trkpt>
      <trkpt lat="46.32697" lon="-1.08088">
        <ele>45.981021</ele>
        <time>2022-12-19T14:51:12.356Z</time>
      </trkpt>
      <trkpt lat="46.32686" lon="-1.08088">
        <ele>45.959622</ele>
        <time>2022-12-19T14:51:15.343Z</time>
      </trkpt>
      <trkpt lat="46.32676" lon="-1.08089">
        <ele>45.937589</ele>
        <time>2022-12-19T14:51:18.355Z</time>
      </trkpt>
      <trkpt lat="46.32666" lon="-1.0809">
        <ele>45.916065</ele>
        <time>2022-12-19T14:51:21.355Z</time>
      </trkpt>
      <trkpt lat="46.32655" lon="-1.08092">
        <ele>45.893223</ele>
        <time>2022-12-19T14:51:24.379Z</time>
      </trkpt>
      <trkpt lat="46.32644" lon="-1.08095">
        <ele>45.869055</ele>
        <time>2022-12-19T14:51:27.357Z</time>
      </trkpt>
      <trkpt lat="46.32632" lon="-1.08097">
        <ele>45.844547</ele>
        <time>2022-12-19T14:51:30.375Z</time>
      </trkpt>
      <trkpt lat="46.32621" lon="-1.081">
        <ele>45.820304</ele>
        <time>2022-12-19T14:51:33.345Z</time>
      </trkpt>
      <trkpt lat="46.32609" lon="-1.08103">
        <ele>45.795709</ele>
        <time>2022-12-19T14:51:36.378Z</time>
      </trkpt>
      <trkpt lat="46.32598" lon="-1.08107">
        <ele>45.771576</ele>
        <time>2022-12-19T14:51:39.364Z</time>
      </trkpt>
      <trkpt lat="46.32587" lon="-1.08112">
        <ele>45.772843</ele>
        <time>2022-12-19T14:51:42.369Z</time>
      </trkpt>
      <trkpt lat="46.32576" lon="-1.08116">
        <ele>45.778738</ele>
        <time>2022-12-19T14:51:45.370Z</time>
      </trkpt>
      <trkpt lat="46.32565" lon="-1.08121">
        <ele>45.784614</ele>
        <time>2022-12-19T14:51:48.373Z</time>
      </trkpt>
      <trkpt lat="46.32555" lon="-1.08126">
        <ele>45.790349</ele>
        <time>2022-12-19T14:51:51.375Z</time>
      </trkpt>
      <trkpt lat="46.32545" lon="-1.08132">
        <ele>45.796309</ele>
        <time>2022-12-19T14:51:54.377Z</time>
      </trkpt>
      <trkpt lat="46.32535" lon="-1.08138">
        <ele>45.802293</ele>
        <time>2022-12-19T14:51:57.376Z</time>
      </trkpt>
      <trkpt lat="46.32524" lon="-1.08144">
        <ele>45.808214</ele>
        <time>2022-12-19T14:52:00.377Z</time>
      </trkpt>
      <trkpt lat="46.32514" lon="-1.08151">
        <ele>45.814072</ele>
        <time>2022-12-19T14:52:03.375Z</time>
      </trkpt>
      <trkpt lat="46.32504" lon="-1.08157">
        <ele>45.819929</ele>
        <time>2022-12-19T14:52:06.361Z</time>
      </trkpt>
      <trkpt lat="46.32495" lon="-1.08164">
        <ele>45.825541</ele>
        <time>2022-12-19T14:52:09.378Z</time>
      </trkpt>
      <trkpt lat="46.32485" lon="-1.0817">
        <ele>45.830964</ele>
        <time>2022-12-19T14:52:12.362Z</time>
      </trkpt>
      <trkpt lat="46.32476" lon="-1.08175">
        <ele>45.836162</ele>
        <time>2022-12-19T14:52:15.367Z</time>
      </trkpt>
      <trkpt lat="46.32468" lon="-1.0818">
        <ele>45.841042</ele>
        <time>2022-12-19T14:52:18.372Z</time>
      </trkpt>
      <trkpt lat="46.32457" lon="-1.08187">
        <ele>45.847511</ele>
        <time>2022-12-19T14:52:22.376Z</time>
      </trkpt>
      <trkpt lat="46.32448" lon="-1.08192">
        <ele>45.852695</ele>
        <time>2022-12-19T14:52:25.371Z</time>
      </trkpt>
      <trkpt lat="46.32438" lon="-1.08197">
        <ele>45.857961</ele>
        <time>2022-12-19T14:52:28.353Z</time>
      </trkpt>
      <trkpt lat="46.32429" lon="-1.08203">
        <ele>45.863645</ele>
        <time>2022-12-19T14:52:31.375Z</time>
      </trkpt>
      <trkpt lat="46.32418" lon="-1.08209">
        <ele>45.879641</ele>
        <time>2022-12-19T14:52:35.348Z</time>
      </trkpt>
      <trkpt lat="46.32406" lon="-1.08214">
        <ele>45.895635</ele>
        <time>2022-12-19T14:52:39.368Z</time>
      </trkpt>
      <trkpt lat="46.32397" lon="-1.08218">
        <ele>45.908342</ele>
        <time>2022-12-19T14:52:42.375Z</time>
      </trkpt>
      <trkpt lat="46.32388" lon="-1.08221">
        <ele>45.921387</ele>
        <time>2022-12-19T14:52:45.353Z</time>
      </trkpt>
      <trkpt lat="46.32378" lon="-1.08224">
        <ele>45.934433</ele>
        <time>2022-12-19T14:52:48.361Z</time>
      </trkpt>
      <trkpt lat="46.32368" lon="-1.08227">
        <ele>45.948248</ele>
        <time>2022-12-19T14:52:51.375Z</time>
      </trkpt>
      <trkpt lat="46.32359" lon="-1.0823">
        <ele>45.960921</ele>
        <time>2022-12-19T14:52:54.376Z</time>
      </trkpt>
      <trkpt lat="46.32347" lon="-1.08233">
        <ele>45.976863</ele>
        <time>2022-12-19T14:52:58.376Z</time>
      </trkpt>
      <trkpt lat="46.32337" lon="-1.08236">
        <ele>45.990494</ele>
        <time>2022-12-19T14:53:01.375Z</time>
      </trkpt>
      <trkpt lat="46.32327" lon="-1.08238">
        <ele>46.004425</ele>
        <time>2022-12-19T14:53:04.374Z</time>
      </trkpt>
      <trkpt lat="46.32316" lon="-1.08239">
        <ele>46.018734</ele>
        <time>2022-12-19T14:53:07.377Z</time>
      </trkpt>
      <trkpt lat="46.32305" lon="-1.08241">
        <ele>46.033408</ele>
        <time>2022-12-19T14:53:10.368Z</time>
      </trkpt>
      <trkpt lat="46.32294" lon="-1.08242">
        <ele>46.048061</ele>
        <time>2022-12-19T14:53:13.367Z</time>
      </trkpt>
      <trkpt lat="46.32283" lon="-1.08243">
        <ele>46.062855</ele>
        <time>2022-12-19T14:53:16.376Z</time>
      </trkpt>
      <trkpt lat="46.32272" lon="-1.08243">
        <ele>46.078691</ele>
        <time>2022-12-19T14:53:19.372Z</time>
      </trkpt>
      <trkpt lat="46.32259" lon="-1.08244">
        <ele>46.095475</ele>
        <time>2022-12-19T14:53:22.378Z</time>
      </trkpt>
      <trkpt lat="46.32248" lon="-1.08245">
        <ele>46.103169</ele>
        <time>2022-12-19T14:53:25.379Z</time>
      </trkpt>
      <trkpt lat="46.32239" lon="-1.08246">
        <ele>46.099273</ele>
        <time>2022-12-19T14:53:28.376Z</time>
      </trkpt>
      <trkpt lat="46.32228" lon="-1.08246">
        <ele>46.094939</ele>
        <time>2022-12-19T14:53:31.377Z</time>
      </trkpt>
      <trkpt lat="46.32216" lon="-1.08248">
        <ele>46.090271</ele>
        <time>2022-12-19T14:53:34.362Z</time>
      </trkpt>
      <trkpt lat="46.32204" lon="-1.08249">
        <ele>46.085533</ele>
        <time>2022-12-19T14:53:37.365Z</time>
      </trkpt>
      <trkpt lat="46.32193" lon="-1.08249">
        <ele>46.080876</ele>
        <time>2022-12-19T14:53:40.374Z</time>
      </trkpt>
      <trkpt lat="46.32182" lon="-1.0825">
        <ele>46.076382</ele>
        <time>2022-12-19T14:53:43.380Z</time>
      </trkpt>
      <trkpt lat="46.32171" lon="-1.08251">
        <ele>46.071961</ele>
        <time>2022-12-19T14:53:46.375Z</time>
      </trkpt>
      <trkpt lat="46.32159" lon="-1.08251">
        <ele>46.067309</ele>
        <time>2022-12-19T14:53:49.378Z</time>
      </trkpt>
      <trkpt lat="46.32148" lon="-1.08252">
        <ele>46.062733</ele>
        <time>2022-12-19T14:53:52.378Z</time>
      </trkpt>
      <trkpt lat="46.32138" lon="-1.08253">
        <ele>46.058711</ele>
        <time>2022-12-19T14:53:55.367Z</time>
      </trkpt>
      <trkpt lat="46.32128" lon="-1.08253">
        <ele>46.054942</ele>
        <time>2022-12-19T14:53:58.355Z</time>
      </trkpt>
      <trkpt lat="46.32119" lon="-1.08254">
        <ele>46.051165</ele>
        <time>2022-12-19T14:54:01.379Z</time>
      </trkpt>
      <trkpt lat="46.32109" lon="-1.08255">
        <ele>46.047105</ele>
        <time>2022-12-19T14:54:04.378Z</time>
      </trkpt>
      <trkpt lat="46.32098" lon="-1.08256">
        <ele>46.042802</ele>
        <time>2022-12-19T14:54:07.379Z</time>
      </trkpt>
      <trkpt lat="46.32087" lon="-1.08257">
        <ele>46.038507</ele>
        <time>2022-12-19T14:54:10.366Z</time>
      </trkpt>
      <trkpt lat="46.32077" lon="-1.08258">
        <ele>46.034326</ele>
        <time>2022-12-19T14:54:13.366Z</time>
      </trkpt>
      <trkpt lat="46.32066" lon="-1.08258">
        <ele>46.097833</ele>
        <time>2022-12-19T14:54:16.371Z</time>
      </trkpt>
      <trkpt lat="46.32055" lon="-1.08259">
        <ele>46.213321</ele>
        <time>2022-12-19T14:54:19.376Z</time>
      </trkpt>
      <trkpt lat="46.32044" lon="-1.0826">
        <ele>46.327825</ele>
        <time>2022-12-19T14:54:22.370Z</time>
      </trkpt>
      <trkpt lat="46.32032" lon="-1.08261">
        <ele>46.442438</ele>
        <time>2022-12-19T14:54:25.384Z</time>
      </trkpt>
      <trkpt lat="46.32021" lon="-1.08262">
        <ele>46.554066</ele>
        <time>2022-12-19T14:54:28.374Z</time>
      </trkpt>
      <trkpt lat="46.3201" lon="-1.08263">
        <ele>46.663627</ele>
        <time>2022-12-19T14:54:31.372Z</time>
      </trkpt>
      <trkpt lat="46.32" lon="-1.08263">
        <ele>46.765878</ele>
        <time>2022-12-19T14:54:34.349Z</time>
      </trkpt>
      <trkpt lat="46.3199" lon="-1.08263">
        <ele>46.870238</ele>
        <time>2022-12-19T14:54:37.385Z</time>
      </trkpt>
      <trkpt lat="46.3198" lon="-1.08265">
        <ele>46.973099</ele>
        <time>2022-12-19T14:54:40.360Z</time>
      </trkpt>
      <trkpt lat="46.31969" lon="-1.08266">
        <ele>47.081607</ele>
        <time>2022-12-19T14:54:43.378Z</time>
      </trkpt>
      <trkpt lat="46.31959" lon="-1.08267">
        <ele>47.18802</ele>
        <time>2022-12-19T14:54:46.375Z</time>
      </trkpt>
      <trkpt lat="46.31948" lon="-1.08268">
        <ele>47.29556</ele>
        <time>2022-12-19T14:54:49.369Z</time>
      </trkpt>
      <trkpt lat="46.31938" lon="-1.08268">
        <ele>47.400997</ele>
        <time>2022-12-19T14:54:52.376Z</time>
      </trkpt>
      <trkpt lat="46.31928" lon="-1.08269">
        <ele>47.503334</ele>
        <time>2022-12-19T14:54:55.355Z</time>
      </trkpt>
      <trkpt lat="46.31918" lon="-1.0827">
        <ele>47.605645</ele>
        <time>2022-12-19T14:54:58.428Z</time>
      </trkpt>
      <trkpt lat="46.31907" lon="-1.0827">
        <ele>47.716003</ele>
        <time>2022-12-19T14:55:02.348Z</time>
      </trkpt>
      <trkpt lat="46.31895" lon="-1.08271">
        <ele>47.836769</ele>
        <time>2022-12-19T14:55:06.375Z</time>
      </trkpt>
      <trkpt lat="46.31885" lon="-1.08272">
        <ele>47.958167</ele>
        <time>2022-12-19T14:55:09.348Z</time>
      </trkpt>
      <trkpt lat="46.31876" lon="-1.08272">
        <ele>48.085137</ele>
        <time>2022-12-19T14:55:12.350Z</time>
      </trkpt>
      <trkpt lat="46.31867" lon="-1.08273">
        <ele>48.21222</ele>
        <time>2022-12-19T14:55:15.354Z</time>
      </trkpt>
      <trkpt lat="46.31855" lon="-1.08274">
        <ele>48.375001</ele>
        <time>2022-12-19T14:55:19.354Z</time>
      </trkpt>
      <trkpt lat="46.31843" lon="-1.08273">
        <ele>48.534745</ele>
        <time>2022-12-19T14:55:23.376Z</time>
      </trkpt>
      <trkpt lat="46.31834" lon="-1.08273">
        <ele>48.663067</ele>
        <time>2022-12-19T14:55:26.380Z</time>
      </trkpt>
      <trkpt lat="46.31824" lon="-1.08274">
        <ele>48.797181</ele>
        <time>2022-12-19T14:55:29.351Z</time>
      </trkpt>
      <trkpt lat="46.31814" lon="-1.08275">
        <ele>48.937944</ele>
        <time>2022-12-19T14:55:32.382Z</time>
      </trkpt>
      <trkpt lat="46.31803" lon="-1.08276">
        <ele>49.082896</ele>
        <time>2022-12-19T14:55:35.358Z</time>
      </trkpt>
      <trkpt lat="46.31793" lon="-1.08277">
        <ele>49.222397</ele>
        <time>2022-12-19T14:55:38.381Z</time>
      </trkpt>
      <trkpt lat="46.31783" lon="-1.08278">
        <ele>49.353571</ele>
        <time>2022-12-19T14:55:41.353Z</time>
      </trkpt>
      <trkpt lat="46.31773" lon="-1.08279">
        <ele>49.489047</ele>
        <time>2022-12-19T14:55:44.378Z</time>
      </trkpt>
      <trkpt lat="46.31762" lon="-1.08279">
        <ele>49.64341</ele>
        <time>2022-12-19T14:55:48.376Z</time>
      </trkpt>
      <trkpt lat="46.31753" lon="-1.0828">
        <ele>49.774547</ele>
        <time>2022-12-19T14:55:52.362Z</time>
      </trkpt>
      <trkpt lat="46.31742" lon="-1.08281">
        <ele>49.920861</ele>
        <time>2022-12-19T14:55:56.379Z</time>
      </trkpt>
      <trkpt lat="46.3173" lon="-1.08281">
        <ele>50.08341</ele>
        <time>2022-12-19T14:56:00.374Z</time>
      </trkpt>
      <trkpt lat="46.3172" lon="-1.08281">
        <ele>50.213111</ele>
        <time>2022-12-19T14:56:03.381Z</time>
      </trkpt>
      <trkpt lat="46.3171" lon="-1.08282">
        <ele>50.271902</ele>
        <time>2022-12-19T14:56:06.370Z</time>
      </trkpt>
      <trkpt lat="46.317" lon="-1.08282">
        <ele>50.147038</ele>
        <time>2022-12-19T14:56:09.377Z</time>
      </trkpt>
      <trkpt lat="46.31691" lon="-1.08283">
        <ele>50.02806</ele>
        <time>2022-12-19T14:56:12.359Z</time>
      </trkpt>
      <trkpt lat="46.31681" lon="-1.08284">
        <ele>49.907849</ele>
        <time>2022-12-19T14:56:15.378Z</time>
      </trkpt>
      <trkpt lat="46.3167" lon="-1.08285">
        <ele>49.776417</ele>
        <time>2022-12-19T14:56:18.377Z</time>
      </trkpt>
      <trkpt lat="46.3166" lon="-1.08286">
        <ele>49.652774</ele>
        <time>2022-12-19T14:56:21.363Z</time>
      </trkpt>
      <trkpt lat="46.3165" lon="-1.08287">
        <ele>49.524967</ele>
        <time>2022-12-19T14:56:24.377Z</time>
      </trkpt>
      <trkpt lat="46.3164" lon="-1.08288">
        <ele>49.397411</ele>
        <time>2022-12-19T14:56:27.375Z</time>
      </trkpt>
      <trkpt lat="46.3163" lon="-1.08289">
        <ele>49.27691</ele>
        <time>2022-12-19T14:56:30.377Z</time>
      </trkpt>
      <trkpt lat="46.31619" lon="-1.08291">
        <ele>49.14048</ele>
        <time>2022-12-19T14:56:33.380Z</time>
      </trkpt>
      <trkpt lat="46.31607" lon="-1.08292">
        <ele>48.985725</ele>
        <time>2022-12-19T14:56:36.373Z</time>
      </trkpt>
      <trkpt lat="46.31594" lon="-1.08293">
        <ele>48.829779</ele>
        <time>2022-12-19T14:56:39.360Z</time>
      </trkpt>
      <trkpt lat="46.31581" lon="-1.08293">
        <ele>48.672599</ele>
        <time>2022-12-19T14:56:42.375Z</time>
      </trkpt>
      <trkpt lat="46.31569" lon="-1.08294">
        <ele>48.514185</ele>
        <time>2022-12-19T14:56:45.374Z</time>
      </trkpt>
      <trkpt lat="46.31555" lon="-1.08295">
        <ele>48.352138</ele>
        <time>2022-12-19T14:56:48.372Z</time>
      </trkpt>
      <trkpt lat="46.31543" lon="-1.08295">
        <ele>48.19638</ele>
        <time>2022-12-19T14:56:51.377Z</time>
      </trkpt>
      <trkpt lat="46.31531" lon="-1.08296">
        <ele>48.066972</ele>
        <time>2022-12-19T14:56:54.379Z</time>
      </trkpt>
      <trkpt lat="46.3152" lon="-1.08297">
        <ele>47.984468</ele>
        <time>2022-12-19T14:56:57.377Z</time>
      </trkpt>
      <trkpt lat="46.31507" lon="-1.08298">
        <ele>47.897721</ele>
        <time>2022-12-19T14:57:00.380Z</time>
      </trkpt>
      <trkpt lat="46.31495" lon="-1.083">
        <ele>47.810343</ele>
        <time>2022-12-19T14:57:03.373Z</time>
      </trkpt>
      <trkpt lat="46.31483" lon="-1.083">
        <ele>47.723813</ele>
        <time>2022-12-19T14:57:06.378Z</time>
      </trkpt>
      <trkpt lat="46.3147" lon="-1.08301">
        <ele>47.638627</ele>
        <time>2022-12-19T14:57:09.370Z</time>
      </trkpt>
      <trkpt lat="46.31459" lon="-1.08301">
        <ele>47.557747</ele>
        <time>2022-12-19T14:57:12.379Z</time>
      </trkpt>
      <trkpt lat="46.31448" lon="-1.08302">
        <ele>47.481012</ele>
        <time>2022-12-19T14:57:15.363Z</time>
      </trkpt>
      <trkpt lat="46.31438" lon="-1.08303">
        <ele>47.412639</ele>
        <time>2022-12-19T14:57:18.373Z</time>
      </trkpt>
      <trkpt lat="46.31429" lon="-1.08303">
        <ele>47.347251</ele>
        <time>2022-12-19T14:57:21.376Z</time>
      </trkpt>
      <trkpt lat="46.31418" lon="-1.08305">
        <ele>47.268869</ele>
        <time>2022-12-19T14:57:24.356Z</time>
      </trkpt>
      <trkpt lat="46.31406" lon="-1.08306">
        <ele>47.184384</ele>
        <time>2022-12-19T14:57:27.385Z</time>
      </trkpt>
      <trkpt lat="46.31394" lon="-1.08307">
        <ele>47.100575</ele>
        <time>2022-12-19T14:57:30.374Z</time>
      </trkpt>
      <trkpt lat="46.31382" lon="-1.08308">
        <ele>47.017495</ele>
        <time>2022-12-19T14:57:33.364Z</time>
      </trkpt>
      <trkpt lat="46.31371" lon="-1.08308">
        <ele>46.935844</ele>
        <time>2022-12-19T14:57:36.359Z</time>
      </trkpt>
      <trkpt lat="46.31359" lon="-1.08309">
        <ele>46.857024</ele>
        <time>2022-12-19T14:57:39.379Z</time>
      </trkpt>
      <trkpt lat="46.31348" lon="-1.0831">
        <ele>46.84775</ele>
        <time>2022-12-19T14:57:42.378Z</time>
      </trkpt>
      <trkpt lat="46.31336" lon="-1.08312">
        <ele>46.895627</ele>
        <time>2022-12-19T14:57:45.362Z</time>
      </trkpt>
      <trkpt lat="46.31325" lon="-1.08314">
        <ele>46.941888</ele>
        <time>2022-12-19T14:57:48.374Z</time>
      </trkpt>
      <trkpt lat="46.31314" lon="-1.08316">
        <ele>46.990139</ele>
        <time>2022-12-19T14:57:51.374Z</time>
      </trkpt>
      <trkpt lat="46.31302" lon="-1.08319">
        <ele>47.03818</ele>
        <time>2022-12-19T14:57:54.377Z</time>
      </trkpt>
      <trkpt lat="46.31291" lon="-1.08323">
        <ele>47.086568</ele>
        <time>2022-12-19T14:57:57.377Z</time>
      </trkpt>
      <trkpt lat="46.3128" lon="-1.08327">
        <ele>47.13113</ele>
        <time>2022-12-19T14:58:00.373Z</time>
      </trkpt>
      <trkpt lat="46.3127" lon="-1.0833">
        <ele>47.174423</ele>
        <time>2022-12-19T14:58:03.378Z</time>
      </trkpt>
      <trkpt lat="46.3126" lon="-1.08335">
        <ele>47.220492</ele>
        <time>2022-12-19T14:58:06.373Z</time>
      </trkpt>
      <trkpt lat="46.31248" lon="-1.0834">
        <ele>47.271496</ele>
        <time>2022-12-19T14:58:09.352Z</time>
      </trkpt>
      <trkpt lat="46.31236" lon="-1.08345">
        <ele>47.323627</ele>
        <time>2022-12-19T14:58:12.378Z</time>
      </trkpt>
      <trkpt lat="46.31224" lon="-1.08351">
        <ele>47.375846</ele>
        <time>2022-12-19T14:58:15.379Z</time>
      </trkpt>
      <trkpt lat="46.31211" lon="-1.08356">
        <ele>47.43083</ele>
        <time>2022-12-19T14:58:18.376Z</time>
      </trkpt>
      <trkpt lat="46.31199" lon="-1.08362">
        <ele>47.484407</ele>
        <time>2022-12-19T14:58:21.380Z</time>
      </trkpt>
      <trkpt lat="46.31187" lon="-1.08367">
        <ele>47.534392</ele>
        <time>2022-12-19T14:58:24.379Z</time>
      </trkpt>
      <trkpt lat="46.31177" lon="-1.08372">
        <ele>47.561984</ele>
        <time>2022-12-19T14:58:27.377Z</time>
      </trkpt>
      <trkpt lat="46.31168" lon="-1.08376">
        <ele>47.547415</ele>
        <time>2022-12-19T14:58:30.380Z</time>
      </trkpt>
      <trkpt lat="46.31157" lon="-1.08381">
        <ele>47.530869</ele>
        <time>2022-12-19T14:58:33.377Z</time>
      </trkpt>
      <trkpt lat="46.31146" lon="-1.08387">
        <ele>47.513649</ele>
        <time>2022-12-19T14:58:36.355Z</time>
      </trkpt>
      <trkpt lat="46.31135" lon="-1.08391">
        <ele>47.497056</ele>
        <time>2022-12-19T14:58:39.350Z</time>
      </trkpt>
      <trkpt lat="46.31123" lon="-1.08396">
        <ele>47.480105</ele>
        <time>2022-12-19T14:58:42.379Z</time>
      </trkpt>
      <trkpt lat="46.31112" lon="-1.08402">
        <ele>47.462613</ele>
        <time>2022-12-19T14:58:45.373Z</time>
      </trkpt>
      <trkpt lat="46.31099" lon="-1.08408">
        <ele>47.443899</ele>
        <time>2022-12-19T14:58:48.367Z</time>
      </trkpt>
      <trkpt lat="46.31087" lon="-1.08414">
        <ele>47.424953</ele>
        <time>2022-12-19T14:58:51.384Z</time>
      </trkpt>
      <trkpt lat="46.31075" lon="-1.08421">
        <ele>47.405996</ele>
        <time>2022-12-19T14:58:54.373Z</time>
      </trkpt>
      <trkpt lat="46.31064" lon="-1.08428">
        <ele>47.388314</ele>
        <time>2022-12-19T14:58:57.359Z</time>
      </trkpt>
      <trkpt lat="46.31054" lon="-1.08435">
        <ele>47.372558</ele>
        <time>2022-12-19T14:59:00.375Z</time>
      </trkpt>
      <trkpt lat="46.31043" lon="-1.08442">
        <ele>47.355677</ele>
        <time>2022-12-19T14:59:03.361Z</time>
      </trkpt>
      <trkpt lat="46.31032" lon="-1.0845">
        <ele>47.337756</ele>
        <time>2022-12-19T14:59:06.378Z</time>
      </trkpt>
      <trkpt lat="46.31021" lon="-1.08459">
        <ele>47.319462</ele>
        <time>2022-12-19T14:59:09.367Z</time>
      </trkpt>
      <trkpt lat="46.3101" lon="-1.08469">
        <ele>47.318512</ele>
        <time>2022-12-19T14:59:12.355Z</time>
      </trkpt>
      <trkpt lat="46.30999" lon="-1.08478">
        <ele>47.356322</ele>
        <time>2022-12-19T14:59:15.380Z</time>
      </trkpt>
      <trkpt lat="46.3099" lon="-1.08486">
        <ele>47.387524</ele>
        <time>2022-12-19T14:59:18.386Z</time>
      </trkpt>
      <trkpt lat="46.30982" lon="-1.08493">
        <ele>47.417551</ele>
        <time>2022-12-19T14:59:21.376Z</time>
      </trkpt>
      <trkpt lat="46.30973" lon="-1.08501">
        <ele>47.45005</ele>
        <time>2022-12-19T14:59:24.376Z</time>
      </trkpt>
      <trkpt lat="46.30962" lon="-1.0851">
        <ele>47.486899</ele>
        <time>2022-12-19T14:59:27.380Z</time>
      </trkpt>
      <trkpt lat="46.30951" lon="-1.08521">
        <ele>47.528319</ele>
        <time>2022-12-19T14:59:30.379Z</time>
      </trkpt>
      <trkpt lat="46.30943" lon="-1.08528">
        <ele>47.557419</ele>
        <time>2022-12-19T14:59:32.380Z</time>
      </trkpt>
      <trkpt lat="46.30935" lon="-1.08535">
        <ele>47.585972</ele>
        <time>2022-12-19T14:59:34.345Z</time>
      </trkpt>
      <trkpt lat="46.30927" lon="-1.08542">
        <ele>47.613822</ele>
        <time>2022-12-19T14:59:36.349Z</time>
      </trkpt>
      <trkpt lat="46.30916" lon="-1.08553">
        <ele>47.653115</ele>
        <time>2022-12-19T14:59:39.358Z</time>
      </trkpt>
      <trkpt lat="46.30906" lon="-1.08562">
        <ele>47.688744</ele>
        <time>2022-12-19T14:59:42.350Z</time>
      </trkpt>
      <trkpt lat="46.30896" lon="-1.08571">
        <ele>47.724519</ele>
        <time>2022-12-19T14:59:45.359Z</time>
      </trkpt>
      <trkpt lat="46.30886" lon="-1.0858">
        <ele>47.762507</ele>
        <time>2022-12-19T14:59:48.375Z</time>
      </trkpt>
      <trkpt lat="46.30875" lon="-1.0859">
        <ele>47.801422</ele>
        <time>2022-12-19T14:59:51.344Z</time>
      </trkpt>
      <trkpt lat="46.30863" lon="-1.086">
        <ele>47.841491</ele>
        <time>2022-12-19T14:59:54.377Z</time>
      </trkpt>
      <trkpt lat="46.30852" lon="-1.08609">
        <ele>47.827127</ele>
        <time>2022-12-19T14:59:57.369Z</time>
      </trkpt>
      <trkpt lat="46.30841" lon="-1.08618">
        <ele>47.79193</ele>
        <time>2022-12-19T15:00:00.347Z</time>
      </trkpt>
      <trkpt lat="46.3083" lon="-1.08626">
        <ele>47.757492</ele>
        <time>2022-12-19T15:00:03.376Z</time>
      </trkpt>
      <trkpt lat="46.30818" lon="-1.08634">
        <ele>47.722061</ele>
        <time>2022-12-19T15:00:06.377Z</time>
      </trkpt>
      <trkpt lat="46.30807" lon="-1.08642">
        <ele>47.68546</ele>
        <time>2022-12-19T15:00:09.377Z</time>
      </trkpt>
      <trkpt lat="46.30795" lon="-1.08649">
        <ele>47.650993</ele>
        <time>2022-12-19T15:00:12.375Z</time>
      </trkpt>
      <trkpt lat="46.30785" lon="-1.08656">
        <ele>47.620737</ele>
        <time>2022-12-19T15:00:15.362Z</time>
      </trkpt>
      <trkpt lat="46.30776" lon="-1.08662">
        <ele>47.592157</ele>
        <time>2022-12-19T15:00:18.356Z</time>
      </trkpt>
      <trkpt lat="46.30766" lon="-1.08668">
        <ele>47.562285</ele>
        <time>2022-12-19T15:00:21.378Z</time>
      </trkpt>
      <trkpt lat="46.30755" lon="-1.08674">
        <ele>47.529803</ele>
        <time>2022-12-19T15:00:24.374Z</time>
      </trkpt>
      <trkpt lat="46.30744" lon="-1.08681">
        <ele>47.496359</ele>
        <time>2022-12-19T15:00:27.379Z</time>
      </trkpt>
      <trkpt lat="46.30733" lon="-1.08688">
        <ele>47.462758</ele>
        <time>2022-12-19T15:00:30.373Z</time>
      </trkpt>
      <trkpt lat="46.30722" lon="-1.08695">
        <ele>47.428366</ele>
        <time>2022-12-19T15:00:33.375Z</time>
      </trkpt>
      <trkpt lat="46.30711" lon="-1.08702">
        <ele>47.395074</ele>
        <time>2022-12-19T15:00:36.369Z</time>
      </trkpt>
      <trkpt lat="46.30701" lon="-1.08709">
        <ele>47.364642</ele>
        <time>2022-12-19T15:00:39.377Z</time>
      </trkpt>
      <trkpt lat="46.30692" lon="-1.08714">
        <ele>47.459002</ele>
        <time>2022-12-19T15:00:42.373Z</time>
      </trkpt>
      <trkpt lat="46.30682" lon="-1.08719">
        <ele>47.655082</ele>
        <time>2022-12-19T15:00:45.377Z</time>
      </trkpt>
      <trkpt lat="46.30672" lon="-1.08726">
        <ele>47.868773</ele>
        <time>2022-12-19T15:00:48.356Z</time>
      </trkpt>
      <trkpt lat="46.30662" lon="-1.08732">
        <ele>48.077883</ele>
        <time>2022-12-19T15:00:51.346Z</time>
      </trkpt>
      <trkpt lat="46.30653" lon="-1.08737">
        <ele>48.267095</ele>
        <time>2022-12-19T15:00:54.365Z</time>
      </trkpt>
      <trkpt lat="46.30643" lon="-1.08745">
        <ele>48.480928</ele>
        <time>2022-12-19T15:00:58.361Z</time>
      </trkpt>
      <trkpt lat="46.30634" lon="-1.08754">
        <ele>48.697352</ele>
        <time>2022-12-19T15:01:03.362Z</time>
      </trkpt>
      <trkpt lat="46.30625" lon="-1.08759">
        <ele>48.876018</ele>
        <time>2022-12-19T15:01:07.353Z</time>
      </trkpt>
      <trkpt lat="46.30616" lon="-1.08763">
        <ele>49.06292</ele>
        <time>2022-12-19T15:01:11.371Z</time>
      </trkpt>
      <trkpt lat="46.30606" lon="-1.08767">
        <ele>49.269703</ele>
        <time>2022-12-19T15:01:15.361Z</time>
      </trkpt>
      <trkpt lat="46.30597" lon="-1.08774">
        <ele>49.468965</ele>
        <time>2022-12-19T15:01:20.368Z</time>
      </trkpt>
      <trkpt lat="46.30586" lon="-1.08774">
        <ele>49.673594</ele>
        <time>2022-12-19T15:01:25.357Z</time>
      </trkpt>
      <trkpt lat="46.30575" lon="-1.08774">
        <ele>49.884124</ele>
        <time>2022-12-19T15:01:30.377Z</time>
      </trkpt>
      <trkpt lat="46.30565" lon="-1.08778">
        <ele>50.082272</ele>
        <time>2022-12-19T15:01:34.351Z</time>
      </trkpt>
      <trkpt lat="46.30555" lon="-1.08783">
        <ele>50.291</ele>
        <time>2022-12-19T15:01:38.354Z</time>
      </trkpt>
      <trkpt lat="46.30547" lon="-1.08791">
        <ele>50.483218</ele>
        <time>2022-12-19T15:01:42.369Z</time>
      </trkpt>
      <trkpt lat="46.30539" lon="-1.08801">
        <ele>50.687109</ele>
        <time>2022-12-19T15:01:46.363Z</time>
      </trkpt>
      <trkpt lat="46.30529" lon="-1.08803">
        <ele>50.786143</ele>
        <time>2022-12-19T15:01:50.369Z</time>
      </trkpt>
      <trkpt lat="46.30519" lon="-1.08797">
        <ele>50.670046</ele>
        <time>2022-12-19T15:01:54.357Z</time>
      </trkpt>
      <trkpt lat="46.3051" lon="-1.0879">
        <ele>50.557697</ele>
        <time>2022-12-19T15:01:58.362Z</time>
      </trkpt>
      <trkpt lat="46.30501" lon="-1.08788">
        <ele>50.453488</ele>
        <time>2022-12-19T15:02:01.364Z</time>
      </trkpt>
      <trkpt lat="46.30491" lon="-1.08788">
        <ele>50.338116</ele>
        <time>2022-12-19T15:02:04.374Z</time>
      </trkpt>
      <trkpt lat="46.3048" lon="-1.08787">
        <ele>50.217156</ele>
        <time>2022-12-19T15:02:07.378Z</time>
      </trkpt>
      <trkpt lat="46.3047" lon="-1.08786">
        <ele>50.102965</ele>
        <time>2022-12-19T15:02:10.369Z</time>
      </trkpt>
      <trkpt lat="46.3046" lon="-1.08786">
        <ele>49.994257</ele>
        <time>2022-12-19T15:02:13.375Z</time>
      </trkpt>
      <trkpt lat="46.30449" lon="-1.08785">
        <ele>49.868654</ele>
        <time>2022-12-19T15:02:17.356Z</time>
      </trkpt>
      <trkpt lat="46.3044" lon="-1.08783">
        <ele>49.764977</ele>
        <time>2022-12-19T15:02:20.379Z</time>
      </trkpt>
      <trkpt lat="46.30429" lon="-1.08781">
        <ele>49.647377</ele>
        <time>2022-12-19T15:02:23.378Z</time>
      </trkpt>
      <trkpt lat="46.30418" lon="-1.08778">
        <ele>49.515049</ele>
        <time>2022-12-19T15:02:26.377Z</time>
      </trkpt>
      <trkpt lat="46.30406" lon="-1.08777">
        <ele>49.389125</ele>
        <time>2022-12-19T15:02:29.376Z</time>
      </trkpt>
      <trkpt lat="46.30396" lon="-1.08775">
        <ele>49.269881</ele>
        <time>2022-12-19T15:02:32.350Z</time>
      </trkpt>
      <trkpt lat="46.30386" lon="-1.08773">
        <ele>49.155601</ele>
        <time>2022-12-19T15:02:35.376Z</time>
      </trkpt>
      <trkpt lat="46.30375" lon="-1.08771">
        <ele>49.038111</ele>
        <time>2022-12-19T15:02:38.354Z</time>
      </trkpt>
      <trkpt lat="46.30365" lon="-1.08768">
        <ele>48.916961</ele>
        <time>2022-12-19T15:02:41.360Z</time>
      </trkpt>
      <trkpt lat="46.30354" lon="-1.08766">
        <ele>48.810531</ele>
        <time>2022-12-19T15:02:44.369Z</time>
      </trkpt>
      <trkpt lat="46.30344" lon="-1.08764">
        <ele>48.820474</ele>
        <time>2022-12-19T15:02:47.365Z</time>
      </trkpt>
      <trkpt lat="46.30334" lon="-1.08762">
        <ele>48.830495</ele>
        <time>2022-12-19T15:02:50.367Z</time>
      </trkpt>
      <trkpt lat="46.30322" lon="-1.0876">
        <ele>48.841387</ele>
        <time>2022-12-19T15:02:53.366Z</time>
      </trkpt>
      <trkpt lat="46.30312" lon="-1.08758">
        <ele>48.851791</ele>
        <time>2022-12-19T15:02:56.380Z</time>
      </trkpt>
      <trkpt lat="46.30301" lon="-1.08756">
        <ele>48.862404</ele>
        <time>2022-12-19T15:02:59.366Z</time>
      </trkpt>
      <trkpt lat="46.30289" lon="-1.08753">
        <ele>48.873713</ele>
        <time>2022-12-19T15:03:02.364Z</time>
      </trkpt>
      <trkpt lat="46.30278" lon="-1.08751">
        <ele>48.884996</ele>
        <time>2022-12-19T15:03:05.355Z</time>
      </trkpt>
      <trkpt lat="46.30268" lon="-1.08749">
        <ele>48.894739</ele>
        <time>2022-12-19T15:03:08.365Z</time>
      </trkpt>
      <trkpt lat="46.30258" lon="-1.08748">
        <ele>48.903937</ele>
        <time>2022-12-19T15:03:11.368Z</time>
      </trkpt>
      <trkpt lat="46.30248" lon="-1.08745">
        <ele>48.913648</ele>
        <time>2022-12-19T15:03:14.364Z</time>
      </trkpt>
      <trkpt lat="46.30238" lon="-1.08743">
        <ele>48.923782</ele>
        <time>2022-12-19T15:03:17.375Z</time>
      </trkpt>
      <trkpt lat="46.30228" lon="-1.08741">
        <ele>48.933716</ele>
        <time>2022-12-19T15:03:20.376Z</time>
      </trkpt>
      <trkpt lat="46.30217" lon="-1.08738">
        <ele>48.943997</ele>
        <time>2022-12-19T15:03:24.361Z</time>
      </trkpt>
      <trkpt lat="46.30208" lon="-1.0874">
        <ele>48.953044</ele>
        <time>2022-12-19T15:03:28.374Z</time>
      </trkpt>
      <trkpt lat="46.30202" lon="-1.08752">
        <ele>48.963305</ele>
        <time>2022-12-19T15:03:33.366Z</time>
      </trkpt>
      <trkpt lat="46.30197" lon="-1.08764">
        <ele>48.972093</ele>
        <time>2022-12-19T15:03:38.350Z</time>
      </trkpt>
      <trkpt lat="46.30186" lon="-1.08766">
        <ele>48.982724</ele>
        <time>2022-12-19T15:03:43.355Z</time>
      </trkpt>
      <trkpt lat="46.30177" lon="-1.08765">
        <ele>48.915624</ele>
        <time>2022-12-19T15:03:51.358Z</time>
      </trkpt>
      <trkpt lat="46.30167" lon="-1.08766">
        <ele>48.84579</ele>
        <time>2022-12-19T15:04:03.362Z</time>
      </trkpt>
      <trkpt lat="46.30158" lon="-1.08766">
        <ele>48.776801</ele>
        <time>2022-12-19T15:04:14.348Z</time>
      </trkpt>
      <trkpt lat="46.30148" lon="-1.08768">
        <ele>48.705745</ele>
        <time>2022-12-19T15:04:36.354Z</time>
      </trkpt>
      <trkpt lat="46.30139" lon="-1.08775">
        <ele>48.624744</ele>
        <time>2022-12-19T15:08:14.361Z</time>
      </trkpt>
      <trkpt lat="46.30145" lon="-1.08765">
        <ele>48.554748</ele>
        <time>2022-12-19T15:08:27.355Z</time>
      </trkpt>
      <trkpt lat="46.30157" lon="-1.08764">
        <ele>48.465376</ele>
        <time>2022-12-19T15:08:32.379Z</time>
      </trkpt>
      <trkpt lat="46.30166" lon="-1.08764">
        <ele>48.397879</ele>
        <time>2022-12-19T15:08:35.349Z</time>
      </trkpt>
      <trkpt lat="46.30176" lon="-1.08765">
        <ele>48.327978</ele>
        <time>2022-12-19T15:08:38.361Z</time>
      </trkpt>
      <trkpt lat="46.30186" lon="-1.08766">
        <ele>48.248517</ele>
        <time>2022-12-19T15:08:42.375Z</time>
      </trkpt>
      <trkpt lat="46.30196" lon="-1.08762">
        <ele>48.173287</ele>
        <time>2022-12-19T15:08:46.362Z</time>
      </trkpt>
      <trkpt lat="46.30202" lon="-1.08749">
        <ele>48.095182</ele>
        <time>2022-12-19T15:08:51.374Z</time>
      </trkpt>
      <trkpt lat="46.30198" lon="-1.08736">
        <ele>48.023696</ele>
        <time>2022-12-19T15:08:56.357Z</time>
      </trkpt>
      <trkpt lat="46.30187" lon="-1.08733">
        <ele>47.94256</ele>
        <time>2022-12-19T15:09:00.354Z</time>
      </trkpt>
      <trkpt lat="46.30178" lon="-1.08731">
        <ele>47.87396</ele>
        <time>2022-12-19T15:09:03.354Z</time>
      </trkpt>
      <trkpt lat="46.30169" lon="-1.08729">
        <ele>47.801665</ele>
        <time>2022-12-19T15:09:06.378Z</time>
      </trkpt>
      <trkpt lat="46.30159" lon="-1.08728">
        <ele>47.732207</ele>
        <time>2022-12-19T15:09:09.379Z</time>
      </trkpt>
      <trkpt lat="46.30147" lon="-1.08726">
        <ele>47.6423</ele>
        <time>2022-12-19T15:09:13.377Z</time>
      </trkpt>
      <trkpt lat="46.30137" lon="-1.08724">
        <ele>47.570347</ele>
        <time>2022-12-19T15:09:16.368Z</time>
      </trkpt>
      <trkpt lat="46.30127" lon="-1.08721">
        <ele>47.495285</ele>
        <time>2022-12-19T15:09:19.379Z</time>
      </trkpt>
      <trkpt lat="46.30117" lon="-1.08719">
        <ele>47.421185</ele>
        <time>2022-12-19T15:09:22.378Z</time>
      </trkpt>
      <trkpt lat="46.30107" lon="-1.08717">
        <ele>47.34443</ele>
        <time>2022-12-19T15:09:25.377Z</time>
      </trkpt>
      <trkpt lat="46.30096" lon="-1.08715">
        <ele>47.26309</ele>
        <time>2022-12-19T15:09:28.371Z</time>
      </trkpt>
      <trkpt lat="46.30084" lon="-1.08712">
        <ele>47.179526</ele>
        <time>2022-12-19T15:09:31.378Z</time>
      </trkpt>
      <trkpt lat="46.30073" lon="-1.0871">
        <ele>47.095455</ele>
        <time>2022-12-19T15:09:34.363Z</time>
      </trkpt>
      <trkpt lat="46.30061" lon="-1.08708">
        <ele>47.01347</ele>
        <time>2022-12-19T15:09:37.376Z</time>
      </trkpt>
      <trkpt lat="46.3005" lon="-1.08706">
        <ele>46.930508</ele>
        <time>2022-12-19T15:09:40.367Z</time>
      </trkpt>
      <trkpt lat="46.30038" lon="-1.08705">
        <ele>46.840366</ele>
        <time>2022-12-19T15:09:43.378Z</time>
      </trkpt>
      <trkpt lat="46.30025" lon="-1.08702">
        <ele>46.750415</ele>
        <time>2022-12-19T15:09:46.376Z</time>
      </trkpt>
      <trkpt lat="46.30013" lon="-1.087">
        <ele>46.661759</ele>
        <time>2022-12-19T15:09:49.380Z</time>
      </trkpt>
      <trkpt lat="46.30001" lon="-1.08697">
        <ele>46.572458</ele>
        <time>2022-12-19T15:09:52.382Z</time>
      </trkpt>
      <trkpt lat="46.29989" lon="-1.08695">
        <ele>46.483226</ele>
        <time>2022-12-19T15:09:55.374Z</time>
      </trkpt>
      <trkpt lat="46.29977" lon="-1.08692">
        <ele>46.393207</ele>
        <time>2022-12-19T15:09:58.380Z</time>
      </trkpt>
      <trkpt lat="46.29964" lon="-1.0869">
        <ele>46.402136</ele>
        <time>2022-12-19T15:10:01.379Z</time>
      </trkpt>
      <trkpt lat="46.29951" lon="-1.08688">
        <ele>46.519148</ele>
        <time>2022-12-19T15:10:04.375Z</time>
      </trkpt>
      <trkpt lat="46.29939" lon="-1.08685">
        <ele>46.636106</ele>
        <time>2022-12-19T15:10:07.371Z</time>
      </trkpt>
      <trkpt lat="46.29926" lon="-1.08683">
        <ele>46.754533</ele>
        <time>2022-12-19T15:10:10.377Z</time>
      </trkpt>
      <trkpt lat="46.29913" lon="-1.0868">
        <ele>46.876062</ele>
        <time>2022-12-19T15:10:13.375Z</time>
      </trkpt>
      <trkpt lat="46.299" lon="-1.08678">
        <ele>46.996583</ele>
        <time>2022-12-19T15:10:16.364Z</time>
      </trkpt>
      <trkpt lat="46.29887" lon="-1.08675">
        <ele>47.118306</ele>
        <time>2022-12-19T15:10:19.376Z</time>
      </trkpt>
      <trkpt lat="46.29874" lon="-1.08672">
        <ele>47.240569</ele>
        <time>2022-12-19T15:10:22.375Z</time>
      </trkpt>
      <trkpt lat="46.29861" lon="-1.08669">
        <ele>47.363206</ele>
        <time>2022-12-19T15:10:25.378Z</time>
      </trkpt>
      <trkpt lat="46.29848" lon="-1.08666">
        <ele>47.482906</ele>
        <time>2022-12-19T15:10:28.378Z</time>
      </trkpt>
      <trkpt lat="46.29836" lon="-1.08664">
        <ele>47.600417</ele>
        <time>2022-12-19T15:10:31.381Z</time>
      </trkpt>
      <trkpt lat="46.29823" lon="-1.08662">
        <ele>47.714864</ele>
        <time>2022-12-19T15:10:34.376Z</time>
      </trkpt>
      <trkpt lat="46.29811" lon="-1.08659">
        <ele>47.829803</ele>
        <time>2022-12-19T15:10:37.381Z</time>
      </trkpt>
      <trkpt lat="46.29799" lon="-1.08656">
        <ele>47.944836</ele>
        <time>2022-12-19T15:10:40.377Z</time>
      </trkpt>
      <trkpt lat="46.29787" lon="-1.08654">
        <ele>48.037607</ele>
        <time>2022-12-19T15:10:43.380Z</time>
      </trkpt>
      <trkpt lat="46.29775" lon="-1.08651">
        <ele>48.10084</ele>
        <time>2022-12-19T15:10:46.373Z</time>
      </trkpt>
      <trkpt lat="46.29764" lon="-1.08649">
        <ele>48.159913</ele>
        <time>2022-12-19T15:10:49.379Z</time>
      </trkpt>
      <trkpt lat="46.29754" lon="-1.08647">
        <ele>48.21442</ele>
        <time>2022-12-19T15:10:52.380Z</time>
      </trkpt>
      <trkpt lat="46.29744" lon="-1.08644">
        <ele>48.269509</ele>
        <time>2022-12-19T15:10:55.379Z</time>
      </trkpt>
      <trkpt lat="46.29733" lon="-1.08642">
        <ele>48.325127</ele>
        <time>2022-12-19T15:10:58.355Z</time>
      </trkpt>
      <trkpt lat="46.29723" lon="-1.0864">
        <ele>48.381912</ele>
        <time>2022-12-19T15:11:01.375Z</time>
      </trkpt>
      <trkpt lat="46.29712" lon="-1.08638">
        <ele>48.440517</ele>
        <time>2022-12-19T15:11:04.375Z</time>
      </trkpt>
      <trkpt lat="46.29701" lon="-1.08636">
        <ele>48.498302</ele>
        <time>2022-12-19T15:11:07.375Z</time>
      </trkpt>
      <trkpt lat="46.29691" lon="-1.08634">
        <ele>48.554396</ele>
        <time>2022-12-19T15:11:10.369Z</time>
      </trkpt>
      <trkpt lat="46.29681" lon="-1.08631">
        <ele>48.609485</ele>
        <time>2022-12-19T15:11:13.375Z</time>
      </trkpt>
      <trkpt lat="46.2967" lon="-1.0863">
        <ele>48.665925</ele>
        <time>2022-12-19T15:11:16.377Z</time>
      </trkpt>
      <trkpt lat="46.29659" lon="-1.08628">
        <ele>48.723512</ele>
        <time>2022-12-19T15:11:19.374Z</time>
      </trkpt>
      <trkpt lat="46.29648" lon="-1.08626">
        <ele>48.783178</ele>
        <time>2022-12-19T15:11:22.376Z</time>
      </trkpt>
      <trkpt lat="46.29637" lon="-1.08624">
        <ele>48.841871</ele>
        <time>2022-12-19T15:11:25.374Z</time>
      </trkpt>
      <trkpt lat="46.29627" lon="-1.08622">
        <ele>48.897823</ele>
        <time>2022-12-19T15:11:28.366Z</time>
      </trkpt>
      <trkpt lat="46.29616" lon="-1.0862">
        <ele>48.955608</ele>
        <time>2022-12-19T15:11:31.380Z</time>
      </trkpt>
      <trkpt lat="46.29606" lon="-1.08618">
        <ele>48.878836</ele>
        <time>2022-12-19T15:11:34.357Z</time>
      </trkpt>
      <trkpt lat="46.29595" lon="-1.08615">
        <ele>48.759812</ele>
        <time>2022-12-19T15:11:37.363Z</time>
      </trkpt>
      <trkpt lat="46.29584" lon="-1.08613">
        <ele>48.641008</ele>
        <time>2022-12-19T15:11:40.354Z</time>
      </trkpt>
      <trkpt lat="46.29573" lon="-1.08611">
        <ele>48.517089</ele>
        <time>2022-12-19T15:11:43.376Z</time>
      </trkpt>
      <trkpt lat="46.29561" lon="-1.08609">
        <ele>48.390628</ele>
        <time>2022-12-19T15:11:46.380Z</time>
      </trkpt>
      <trkpt lat="46.29549" lon="-1.08607">
        <ele>48.25896</ele>
        <time>2022-12-19T15:11:49.354Z</time>
      </trkpt>
      <trkpt lat="46.29537" lon="-1.08605">
        <ele>48.128372</ele>
        <time>2022-12-19T15:11:52.370Z</time>
      </trkpt>
      <trkpt lat="46.29525" lon="-1.08602">
        <ele>47.998465</ele>
        <time>2022-12-19T15:11:55.375Z</time>
      </trkpt>
      <trkpt lat="46.29513" lon="-1.086">
        <ele>47.85669</ele>
        <time>2022-12-19T15:11:58.377Z</time>
      </trkpt>
      <trkpt lat="46.29504" lon="-1.08598">
        <ele>47.758693</ele>
        <time>2022-12-19T15:12:00.375Z</time>
      </trkpt>
      <trkpt lat="46.29494" lon="-1.08595">
        <ele>47.654717</ele>
        <time>2022-12-19T15:12:02.369Z</time>
      </trkpt>
      <trkpt lat="46.29485" lon="-1.08593">
        <ele>47.552609</ele>
        <time>2022-12-19T15:12:04.375Z</time>
      </trkpt>
      <trkpt lat="46.29472" lon="-1.0859">
        <ele>47.405864</ele>
        <time>2022-12-19T15:12:07.376Z</time>
      </trkpt>
      <trkpt lat="46.2946" lon="-1.08587">
        <ele>47.277881</ele>
        <time>2022-12-19T15:12:10.378Z</time>
      </trkpt>
      <trkpt lat="46.29449" lon="-1.08584">
        <ele>47.151206</ele>
        <time>2022-12-19T15:12:13.377Z</time>
      </trkpt>
      <trkpt lat="46.29438" lon="-1.08582">
        <ele>47.02906</ele>
        <time>2022-12-19T15:12:16.379Z</time>
      </trkpt>
      <trkpt lat="46.29426" lon="-1.08579">
        <ele>46.991866</ele>
        <time>2022-12-19T15:12:19.374Z</time>
      </trkpt>
      <trkpt lat="46.29415" lon="-1.08575">
        <ele>46.968344</ele>
        <time>2022-12-19T15:12:22.374Z</time>
      </trkpt>
      <trkpt lat="46.29404" lon="-1.0857">
        <ele>46.945771</ele>
        <time>2022-12-19T15:12:25.386Z</time>
      </trkpt>
      <trkpt lat="46.29392" lon="-1.08563">
        <ele>46.922511</ele>
        <time>2022-12-19T15:12:28.380Z</time>
      </trkpt>
      <trkpt lat="46.29381" lon="-1.08556">
        <ele>46.898437</ele>
        <time>2022-12-19T15:12:31.377Z</time>
      </trkpt>
      <trkpt lat="46.29369" lon="-1.08549">
        <ele>46.873905</ele>
        <time>2022-12-19T15:12:34.377Z</time>
      </trkpt>
      <trkpt lat="46.29357" lon="-1.08542">
        <ele>46.848865</ele>
        <time>2022-12-19T15:12:37.378Z</time>
      </trkpt>
      <trkpt lat="46.29345" lon="-1.08535">
        <ele>46.823386</ele>
        <time>2022-12-19T15:12:40.376Z</time>
      </trkpt>
      <trkpt lat="46.29333" lon="-1.08528">
        <ele>46.798869</ele>
        <time>2022-12-19T15:12:43.377Z</time>
      </trkpt>
      <trkpt lat="46.29321" lon="-1.08521">
        <ele>46.774309</ele>
        <time>2022-12-19T15:12:46.367Z</time>
      </trkpt>
      <trkpt lat="46.29309" lon="-1.08514">
        <ele>46.749924</ele>
        <time>2022-12-19T15:12:49.376Z</time>
      </trkpt>
      <trkpt lat="46.29298" lon="-1.08506">
        <ele>46.725269</ele>
        <time>2022-12-19T15:12:52.367Z</time>
      </trkpt>
      <trkpt lat="46.29286" lon="-1.085">
        <ele>46.701064</ele>
        <time>2022-12-19T15:12:55.355Z</time>
      </trkpt>
      <trkpt lat="46.29275" lon="-1.08492">
        <ele>46.677386</ele>
        <time>2022-12-19T15:12:58.380Z</time>
      </trkpt>
      <trkpt lat="46.29264" lon="-1.08485">
        <ele>46.670304</ele>
        <time>2022-12-19T15:13:01.364Z</time>
      </trkpt>
      <trkpt lat="46.29252" lon="-1.08478">
        <ele>46.686723</ele>
        <time>2022-12-19T15:13:04.377Z</time>
      </trkpt>
      <trkpt lat="46.29241" lon="-1.08472">
        <ele>46.701737</ele>
        <time>2022-12-19T15:13:07.376Z</time>
      </trkpt>
      <trkpt lat="46.29231" lon="-1.08466">
        <ele>46.716651</ele>
        <time>2022-12-19T15:13:10.378Z</time>
      </trkpt>
      <trkpt lat="46.2922" lon="-1.0846">
        <ele>46.731821</ele>
        <time>2022-12-19T15:13:13.382Z</time>
      </trkpt>
      <trkpt lat="46.29209" lon="-1.08453">
        <ele>46.747676</ele>
        <time>2022-12-19T15:13:16.374Z</time>
      </trkpt>
      <trkpt lat="46.29198" lon="-1.08445">
        <ele>46.763964</ele>
        <time>2022-12-19T15:13:19.381Z</time>
      </trkpt>
      <trkpt lat="46.29186" lon="-1.08438">
        <ele>46.780312</ele>
        <time>2022-12-19T15:13:22.380Z</time>
      </trkpt>
      <trkpt lat="46.29175" lon="-1.08432">
        <ele>46.796958</ele>
        <time>2022-12-19T15:13:25.379Z</time>
      </trkpt>
      <trkpt lat="46.29163" lon="-1.08425">
        <ele>46.81336</ele>
        <time>2022-12-19T15:13:28.374Z</time>
      </trkpt>
      <trkpt lat="46.29152" lon="-1.08418">
        <ele>46.828514</ele>
        <time>2022-12-19T15:13:31.373Z</time>
      </trkpt>
      <trkpt lat="46.29142" lon="-1.08412">
        <ele>46.843706</ele>
        <time>2022-12-19T15:13:34.357Z</time>
      </trkpt>
      <trkpt lat="46.29131" lon="-1.08405">
        <ele>46.859523</ele>
        <time>2022-12-19T15:13:37.376Z</time>
      </trkpt>
      <trkpt lat="46.2912" lon="-1.08399">
        <ele>46.875232</ele>
        <time>2022-12-19T15:13:40.377Z</time>
      </trkpt>
      <trkpt lat="46.29108" lon="-1.08391">
        <ele>46.891446</ele>
        <time>2022-12-19T15:13:43.378Z</time>
      </trkpt>
      <trkpt lat="46.29098" lon="-1.08385">
        <ele>46.910897</ele>
        <time>2022-12-19T15:13:46.382Z</time>
      </trkpt>
      <trkpt lat="46.29088" lon="-1.08378">
        <ele>46.934131</ele>
        <time>2022-12-19T15:13:49.380Z</time>
      </trkpt>
      <trkpt lat="46.29078" lon="-1.08372">
        <ele>46.957442</ele>
        <time>2022-12-19T15:13:52.377Z</time>
      </trkpt>
      <trkpt lat="46.29066" lon="-1.08365">
        <ele>46.984142</ele>
        <time>2022-12-19T15:13:55.378Z</time>
      </trkpt>
      <trkpt lat="46.29055" lon="-1.08357">
        <ele>47.011583</ele>
        <time>2022-12-19T15:13:58.379Z</time>
      </trkpt>
      <trkpt lat="46.29042" lon="-1.0835">
        <ele>47.040241</ele>
        <time>2022-12-19T15:14:01.376Z</time>
      </trkpt>
      <trkpt lat="46.2903" lon="-1.08342">
        <ele>47.068368</ele>
        <time>2022-12-19T15:14:04.378Z</time>
      </trkpt>
      <trkpt lat="46.29019" lon="-1.08335">
        <ele>47.094987</ele>
        <time>2022-12-19T15:14:07.373Z</time>
      </trkpt>
      <trkpt lat="46.29007" lon="-1.08328">
        <ele>47.122711</ele>
        <time>2022-12-19T15:14:10.352Z</time>
      </trkpt>
      <trkpt lat="46.28995" lon="-1.08322">
        <ele>47.14933</ele>
        <time>2022-12-19T15:14:13.379Z</time>
      </trkpt>
      <trkpt lat="46.28984" lon="-1.08314">
        <ele>47.175983</ele>
        <time>2022-12-19T15:14:16.375Z</time>
      </trkpt>
      <trkpt lat="46.28973" lon="-1.08308">
        <ele>47.202348</ele>
        <time>2022-12-19T15:14:19.385Z</time>
      </trkpt>
      <trkpt lat="46.28962" lon="-1.08301">
        <ele>47.227921</ele>
        <time>2022-12-19T15:14:22.382Z</time>
      </trkpt>
      <trkpt lat="46.28951" lon="-1.08294">
        <ele>47.253611</ele>
        <time>2022-12-19T15:14:25.376Z</time>
      </trkpt>
      <trkpt lat="46.2894" lon="-1.08287">
        <ele>47.278907</ele>
        <time>2022-12-19T15:14:28.370Z</time>
      </trkpt>
      <trkpt lat="46.28929" lon="-1.0828">
        <ele>47.230229</ele>
        <time>2022-12-19T15:14:31.381Z</time>
      </trkpt>
      <trkpt lat="46.28918" lon="-1.08273">
        <ele>47.155819</ele>
        <time>2022-12-19T15:14:34.383Z</time>
      </trkpt>
      <trkpt lat="46.28906" lon="-1.08266">
        <ele>47.081022</ele>
        <time>2022-12-19T15:14:37.378Z</time>
      </trkpt>
      <trkpt lat="46.28895" lon="-1.08259">
        <ele>47.004311</ele>
        <time>2022-12-19T15:14:40.382Z</time>
      </trkpt>
      <trkpt lat="46.28883" lon="-1.08252">
        <ele>46.927758</ele>
        <time>2022-12-19T15:14:43.376Z</time>
      </trkpt>
      <trkpt lat="46.28871" lon="-1.08245">
        <ele>46.850727</ele>
        <time>2022-12-19T15:14:46.373Z</time>
      </trkpt>
      <trkpt lat="46.28859" lon="-1.08238">
        <ele>46.771751</ele>
        <time>2022-12-19T15:14:49.381Z</time>
      </trkpt>
      <trkpt lat="46.28848" lon="-1.08231">
        <ele>46.694881</ele>
        <time>2022-12-19T15:14:52.350Z</time>
      </trkpt>
      <trkpt lat="46.28836" lon="-1.08224">
        <ele>46.621136</ele>
        <time>2022-12-19T15:14:55.378Z</time>
      </trkpt>
      <trkpt lat="46.28825" lon="-1.08218">
        <ele>46.548177</ele>
        <time>2022-12-19T15:14:58.378Z</time>
      </trkpt>
      <trkpt lat="46.28814" lon="-1.08211">
        <ele>46.476108</ele>
        <time>2022-12-19T15:15:01.357Z</time>
      </trkpt>
      <trkpt lat="46.28804" lon="-1.08204">
        <ele>46.407325</ele>
        <time>2022-12-19T15:15:04.376Z</time>
      </trkpt>
      <trkpt lat="46.28793" lon="-1.08198">
        <ele>46.338708</ele>
        <time>2022-12-19T15:15:07.378Z</time>
      </trkpt>
      <trkpt lat="46.28783" lon="-1.08192">
        <ele>46.272418</ele>
        <time>2022-12-19T15:15:10.381Z</time>
      </trkpt>
      <trkpt lat="46.28773" lon="-1.08186">
        <ele>46.207006</ele>
        <time>2022-12-19T15:15:13.378Z</time>
      </trkpt>
      <trkpt lat="46.28763" lon="-1.0818">
        <ele>46.152718</ele>
        <time>2022-12-19T15:15:16.377Z</time>
      </trkpt>
      <trkpt lat="46.28753" lon="-1.08174">
        <ele>46.103946</ele>
        <time>2022-12-19T15:15:19.377Z</time>
      </trkpt>
      <trkpt lat="46.28744" lon="-1.08167">
        <ele>46.055123</ele>
        <time>2022-12-19T15:15:22.371Z</time>
      </trkpt>
      <trkpt lat="46.28734" lon="-1.08162">
        <ele>46.005185</ele>
        <time>2022-12-19T15:15:25.371Z</time>
      </trkpt>
      <trkpt lat="46.28724" lon="-1.08156">
        <ele>45.956291</ele>
        <time>2022-12-19T15:15:28.377Z</time>
      </trkpt>
      <trkpt lat="46.28714" lon="-1.0815">
        <ele>45.908492</ele>
        <time>2022-12-19T15:15:31.367Z</time>
      </trkpt>
      <trkpt lat="46.28704" lon="-1.08144">
        <ele>45.858801</ele>
        <time>2022-12-19T15:15:34.367Z</time>
      </trkpt>
      <trkpt lat="46.28695" lon="-1.08138">
        <ele>45.809721</ele>
        <time>2022-12-19T15:15:37.353Z</time>
      </trkpt>
      <trkpt lat="46.28685" lon="-1.08132">
        <ele>45.762971</ele>
        <time>2022-12-19T15:15:40.370Z</time>
      </trkpt>
      <trkpt lat="46.28676" lon="-1.08127">
        <ele>45.718517</ele>
        <time>2022-12-19T15:15:43.378Z</time>
      </trkpt>
      <trkpt lat="46.28668" lon="-1.08121">
        <ele>45.675157</ele>
        <time>2022-12-19T15:15:46.377Z</time>
      </trkpt>
      <trkpt lat="46.28659" lon="-1.08116">
        <ele>45.632554</ele>
        <time>2022-12-19T15:15:49.379Z</time>
      </trkpt>
      <trkpt lat="46.28651" lon="-1.0811">
        <ele>45.588981</ele>
        <time>2022-12-19T15:15:52.379Z</time>
      </trkpt>
      <trkpt lat="46.28642" lon="-1.08105">
        <ele>45.546169</ele>
        <time>2022-12-19T15:15:55.359Z</time>
      </trkpt>
      <trkpt lat="46.28633" lon="-1.08099">
        <ele>45.501774</ele>
        <time>2022-12-19T15:15:58.377Z</time>
      </trkpt>
      <trkpt lat="46.28625" lon="-1.08093">
        <ele>45.460002</ele>
        <time>2022-12-19T15:16:01.361Z</time>
      </trkpt>
      <trkpt lat="46.28617" lon="-1.08087">
        <ele>45.417265</ele>
        <time>2022-12-19T15:16:04.363Z</time>
      </trkpt>
      <trkpt lat="46.28608" lon="-1.0808">
        <ele>45.371571</ele>
        <time>2022-12-19T15:16:07.362Z</time>
      </trkpt>
      <trkpt lat="46.286" lon="-1.08072">
        <ele>45.336064</ele>
        <time>2022-12-19T15:16:10.380Z</time>
      </trkpt>
      <trkpt lat="46.28592" lon="-1.08063">
        <ele>45.299899</ele>
        <time>2022-12-19T15:16:13.378Z</time>
      </trkpt>
      <trkpt lat="46.28583" lon="-1.08054">
        <ele>45.261737</ele>
        <time>2022-12-19T15:16:16.376Z</time>
      </trkpt>
      <trkpt lat="46.28575" lon="-1.08043">
        <ele>45.223348</ele>
        <time>2022-12-19T15:16:19.377Z</time>
      </trkpt>
      <trkpt lat="46.28566" lon="-1.08033">
        <ele>45.184007</ele>
        <time>2022-12-19T15:16:22.372Z</time>
      </trkpt>
      <trkpt lat="46.28557" lon="-1.08022">
        <ele>45.143318</ele>
        <time>2022-12-19T15:16:25.353Z</time>
      </trkpt>
      <trkpt lat="46.28548" lon="-1.08011">
        <ele>45.102601</ele>
        <time>2022-12-19T15:16:28.374Z</time>
      </trkpt>
      <trkpt lat="46.28539" lon="-1.08">
        <ele>45.061005</ele>
        <time>2022-12-19T15:16:31.381Z</time>
      </trkpt>
      <trkpt lat="46.2853" lon="-1.0799">
        <ele>45.020976</ele>
        <time>2022-12-19T15:16:34.355Z</time>
      </trkpt>
      <trkpt lat="46.28521" lon="-1.07979">
        <ele>44.980067</ele>
        <time>2022-12-19T15:16:37.353Z</time>
      </trkpt>
      <trkpt lat="46.28512" lon="-1.07968">
        <ele>44.939731</ele>
        <time>2022-12-19T15:16:40.364Z</time>
      </trkpt>
      <trkpt lat="46.28503" lon="-1.07957">
        <ele>44.89955</ele>
        <time>2022-12-19T15:16:43.378Z</time>
      </trkpt>
      <trkpt lat="46.28494" lon="-1.07946">
        <ele>44.859113</ele>
        <time>2022-12-19T15:16:46.378Z</time>
      </trkpt>
      <trkpt lat="46.28485" lon="-1.07934">
        <ele>44.81658</ele>
        <time>2022-12-19T15:16:49.378Z</time>
      </trkpt>
      <trkpt lat="46.28477" lon="-1.07923">
        <ele>44.776498</ele>
        <time>2022-12-19T15:16:52.380Z</time>
      </trkpt>
      <trkpt lat="46.28468" lon="-1.07912">
        <ele>44.743349</ele>
        <time>2022-12-19T15:16:55.377Z</time>
      </trkpt>
      <trkpt lat="46.28458" lon="-1.07901">
        <ele>44.79315</ele>
        <time>2022-12-19T15:16:58.370Z</time>
      </trkpt>
      <trkpt lat="46.28449" lon="-1.0789">
        <ele>44.843861</ele>
        <time>2022-12-19T15:17:01.375Z</time>
      </trkpt>
      <trkpt lat="46.2844" lon="-1.07878">
        <ele>44.894757</ele>
        <time>2022-12-19T15:17:04.375Z</time>
      </trkpt>
      <trkpt lat="46.28431" lon="-1.07867">
        <ele>44.943122</ele>
        <time>2022-12-19T15:17:07.378Z</time>
      </trkpt>
      <trkpt lat="46.28422" lon="-1.07856">
        <ele>44.989326</ele>
        <time>2022-12-19T15:17:10.361Z</time>
      </trkpt>
      <trkpt lat="46.28414" lon="-1.07846">
        <ele>45.03467</ele>
        <time>2022-12-19T15:17:13.379Z</time>
      </trkpt>
      <trkpt lat="46.28405" lon="-1.07835">
        <ele>45.082231</ele>
        <time>2022-12-19T15:17:16.378Z</time>
      </trkpt>
      <trkpt lat="46.28396" lon="-1.07824">
        <ele>45.129113</ele>
        <time>2022-12-19T15:17:19.379Z</time>
      </trkpt>
      <trkpt lat="46.28387" lon="-1.07813">
        <ele>45.175134</ele>
        <time>2022-12-19T15:17:22.379Z</time>
      </trkpt>
      <trkpt lat="46.28378" lon="-1.07803">
        <ele>45.222737</ele>
        <time>2022-12-19T15:17:25.376Z</time>
      </trkpt>
      <trkpt lat="46.2837" lon="-1.07792">
        <ele>45.269188</ele>
        <time>2022-12-19T15:17:28.358Z</time>
      </trkpt>
      <trkpt lat="46.28361" lon="-1.07781">
        <ele>45.314772</ele>
        <time>2022-12-19T15:17:31.376Z</time>
      </trkpt>
      <trkpt lat="46.28353" lon="-1.07772">
        <ele>45.359222</ele>
        <time>2022-12-19T15:17:34.374Z</time>
      </trkpt>
      <trkpt lat="46.28345" lon="-1.07762">
        <ele>45.40191</ele>
        <time>2022-12-19T15:17:37.377Z</time>
      </trkpt>
      <trkpt lat="46.28337" lon="-1.07752">
        <ele>45.444103</ele>
        <time>2022-12-19T15:17:40.378Z</time>
      </trkpt>
      <trkpt lat="46.28329" lon="-1.07743">
        <ele>45.463996</ele>
        <time>2022-12-19T15:17:43.376Z</time>
      </trkpt>
      <trkpt lat="46.2832" lon="-1.07732">
        <ele>45.413408</ele>
        <time>2022-12-19T15:17:47.378Z</time>
      </trkpt>
      <trkpt lat="46.28313" lon="-1.07723">
        <ele>45.37414</ele>
        <time>2022-12-19T15:17:50.357Z</time>
      </trkpt>
      <trkpt lat="46.28306" lon="-1.07714">
        <ele>45.331909</ele>
        <time>2022-12-19T15:17:53.378Z</time>
      </trkpt>
      <trkpt lat="46.28298" lon="-1.07704">
        <ele>45.286067</ele>
        <time>2022-12-19T15:17:56.379Z</time>
      </trkpt>
      <trkpt lat="46.2829" lon="-1.07694">
        <ele>45.237786</ele>
        <time>2022-12-19T15:17:59.378Z</time>
      </trkpt>
      <trkpt lat="46.28281" lon="-1.07684">
        <ele>45.190752</ele>
        <time>2022-12-19T15:18:02.386Z</time>
      </trkpt>
      <trkpt lat="46.28273" lon="-1.07674">
        <ele>45.143524</ele>
        <time>2022-12-19T15:18:05.381Z</time>
      </trkpt>
      <trkpt lat="46.28265" lon="-1.07663">
        <ele>45.095315</ele>
        <time>2022-12-19T15:18:08.378Z</time>
      </trkpt>
      <trkpt lat="46.28257" lon="-1.07653">
        <ele>45.048663</ele>
        <time>2022-12-19T15:18:11.381Z</time>
      </trkpt>
      <trkpt lat="46.28248" lon="-1.07643">
        <ele>45.001242</ele>
        <time>2022-12-19T15:18:14.378Z</time>
      </trkpt>
      <trkpt lat="46.2824" lon="-1.07633">
        <ele>44.954927</ele>
        <time>2022-12-19T15:18:17.381Z</time>
      </trkpt>
      <trkpt lat="46.28232" lon="-1.07623">
        <ele>44.908226</ele>
        <time>2022-12-19T15:18:20.380Z</time>
      </trkpt>
      <trkpt lat="46.28223" lon="-1.07613">
        <ele>44.861047</ele>
        <time>2022-12-19T15:18:23.379Z</time>
      </trkpt>
      <trkpt lat="46.28215" lon="-1.07603">
        <ele>44.812903</ele>
        <time>2022-12-19T15:18:26.380Z</time>
      </trkpt>
      <trkpt lat="46.28207" lon="-1.07592">
        <ele>44.764527</ele>
        <time>2022-12-19T15:18:29.376Z</time>
      </trkpt>
      <trkpt lat="46.28199" lon="-1.07582">
        <ele>44.718099</ele>
        <time>2022-12-19T15:18:32.386Z</time>
      </trkpt>
      <trkpt lat="46.2819" lon="-1.07572">
        <ele>44.697982</ele>
        <time>2022-12-19T15:18:35.358Z</time>
      </trkpt>
      <trkpt lat="46.28181" lon="-1.07561">
        <ele>44.710383</ele>
        <time>2022-12-19T15:18:38.380Z</time>
      </trkpt>
      <trkpt lat="46.28173" lon="-1.07551">
        <ele>44.722246</ele>
        <time>2022-12-19T15:18:41.379Z</time>
      </trkpt>
      <trkpt lat="46.28165" lon="-1.0754">
        <ele>44.733769</ele>
        <time>2022-12-19T15:18:44.378Z</time>
      </trkpt>
      <trkpt lat="46.28157" lon="-1.07531">
        <ele>44.744852</ele>
        <time>2022-12-19T15:18:47.379Z</time>
      </trkpt>
      <trkpt lat="46.28149" lon="-1.07521">
        <ele>44.755971</ele>
        <time>2022-12-19T15:18:50.380Z</time>
      </trkpt>
      <trkpt lat="46.28141" lon="-1.07511">
        <ele>44.76728</ele>
        <time>2022-12-19T15:18:53.382Z</time>
      </trkpt>
      <trkpt lat="46.28133" lon="-1.07502">
        <ele>44.778576</ele>
        <time>2022-12-19T15:18:56.379Z</time>
      </trkpt>
      <trkpt lat="46.28125" lon="-1.07491">
        <ele>44.79065</ele>
        <time>2022-12-19T15:18:59.379Z</time>
      </trkpt>
      <trkpt lat="46.28117" lon="-1.07481">
        <ele>44.801764</ele>
        <time>2022-12-19T15:19:02.380Z</time>
      </trkpt>
      <trkpt lat="46.28108" lon="-1.07471">
        <ele>44.813875</ele>
        <time>2022-12-19T15:19:06.379Z</time>
      </trkpt>
      <trkpt lat="46.28101" lon="-1.07463">
        <ele>44.823962</ele>
        <time>2022-12-19T15:19:09.367Z</time>
      </trkpt>
      <trkpt lat="46.28094" lon="-1.07453">
        <ele>44.834604</ele>
        <time>2022-12-19T15:19:12.378Z</time>
      </trkpt>
      <trkpt lat="46.28086" lon="-1.07443">
        <ele>44.845868</ele>
        <time>2022-12-19T15:19:15.360Z</time>
      </trkpt>
      <trkpt lat="46.28078" lon="-1.07433">
        <ele>44.857241</ele>
        <time>2022-12-19T15:19:18.371Z</time>
      </trkpt>
      <trkpt lat="46.2807" lon="-1.07423">
        <ele>44.868613</ele>
        <time>2022-12-19T15:19:21.378Z</time>
      </trkpt>
      <trkpt lat="46.28062" lon="-1.07413">
        <ele>44.880508</ele>
        <time>2022-12-19T15:19:24.380Z</time>
      </trkpt>
      <trkpt lat="46.28053" lon="-1.07402">
        <ele>44.884104</ele>
        <time>2022-12-19T15:19:27.378Z</time>
      </trkpt>
      <trkpt lat="46.28045" lon="-1.07392">
        <ele>44.8801</ele>
        <time>2022-12-19T15:19:30.379Z</time>
      </trkpt>
      <trkpt lat="46.28037" lon="-1.07382">
        <ele>44.876026</ele>
        <time>2022-12-19T15:19:33.378Z</time>
      </trkpt>
      <trkpt lat="46.28029" lon="-1.07372">
        <ele>44.87197</ele>
        <time>2022-12-19T15:19:36.369Z</time>
      </trkpt>
      <trkpt lat="46.2802" lon="-1.07361">
        <ele>44.867691</ele>
        <time>2022-12-19T15:19:39.377Z</time>
      </trkpt>
      <trkpt lat="46.28012" lon="-1.0735">
        <ele>44.863337</ele>
        <time>2022-12-19T15:19:42.376Z</time>
      </trkpt>
      <trkpt lat="46.28003" lon="-1.0734">
        <ele>44.859095</ele>
        <time>2022-12-19T15:19:45.376Z</time>
      </trkpt>
      <trkpt lat="46.27994" lon="-1.0733">
        <ele>44.854946</ele>
        <time>2022-12-19T15:19:48.369Z</time>
      </trkpt>
      <trkpt lat="46.27986" lon="-1.0732">
        <ele>44.850839</ele>
        <time>2022-12-19T15:19:51.373Z</time>
      </trkpt>
      <trkpt lat="46.27978" lon="-1.0731">
        <ele>44.84676</ele>
        <time>2022-12-19T15:19:54.382Z</time>
      </trkpt>
      <trkpt lat="46.27969" lon="-1.07299">
        <ele>44.842377</ele>
        <time>2022-12-19T15:19:57.360Z</time>
      </trkpt>
      <trkpt lat="46.27961" lon="-1.07288">
        <ele>44.838149</ele>
        <time>2022-12-19T15:20:00.373Z</time>
      </trkpt>
      <trkpt lat="46.27954" lon="-1.0728">
        <ele>44.834743</ele>
        <time>2022-12-19T15:20:03.377Z</time>
      </trkpt>
      <trkpt lat="46.27945" lon="-1.0727">
        <ele>44.830658</ele>
        <time>2022-12-19T15:20:07.370Z</time>
      </trkpt>
      <trkpt lat="46.27938" lon="-1.07261">
        <ele>44.826926</ele>
        <time>2022-12-19T15:20:10.361Z</time>
      </trkpt>
      <trkpt lat="46.2793" lon="-1.07252">
        <ele>44.823127</ele>
        <time>2022-12-19T15:20:13.380Z</time>
      </trkpt>
      <trkpt lat="46.27922" lon="-1.07243">
        <ele>44.819299</ele>
        <time>2022-12-19T15:20:16.371Z</time>
      </trkpt>
      <trkpt lat="46.27914" lon="-1.07233">
        <ele>44.811903</ele>
        <time>2022-12-19T15:20:19.368Z</time>
      </trkpt>
      <trkpt lat="46.27906" lon="-1.07223">
        <ele>44.803343</ele>
        <time>2022-12-19T15:20:22.381Z</time>
      </trkpt>
      <trkpt lat="46.27898" lon="-1.07214">
        <ele>44.795202</ele>
        <time>2022-12-19T15:20:25.377Z</time>
      </trkpt>
      <trkpt lat="46.27891" lon="-1.07205">
        <ele>44.78697</ele>
        <time>2022-12-19T15:20:28.380Z</time>
      </trkpt>
      <trkpt lat="46.27883" lon="-1.07196">
        <ele>44.778954</ele>
        <time>2022-12-19T15:20:31.374Z</time>
      </trkpt>
      <trkpt lat="46.27875" lon="-1.07187">
        <ele>44.770423</ele>
        <time>2022-12-19T15:20:34.355Z</time>
      </trkpt>
      <trkpt lat="46.27867" lon="-1.07177">
        <ele>44.761628</ele>
        <time>2022-12-19T15:20:37.382Z</time>
      </trkpt>
      <trkpt lat="46.27859" lon="-1.07167">
        <ele>44.752905</ele>
        <time>2022-12-19T15:20:40.378Z</time>
      </trkpt>
      <trkpt lat="46.2785" lon="-1.07157">
        <ele>44.743968</ele>
        <time>2022-12-19T15:20:43.363Z</time>
      </trkpt>
      <trkpt lat="46.27842" lon="-1.07147">
        <ele>44.735428</ele>
        <time>2022-12-19T15:20:46.354Z</time>
      </trkpt>
      <trkpt lat="46.27834" lon="-1.07138">
        <ele>44.726634</ele>
        <time>2022-12-19T15:20:49.383Z</time>
      </trkpt>
      <trkpt lat="46.27826" lon="-1.07128">
        <ele>44.717932</ele>
        <time>2022-12-19T15:20:52.377Z</time>
      </trkpt>
      <trkpt lat="46.27818" lon="-1.07119">
        <ele>44.709779</ele>
        <time>2022-12-19T15:20:55.358Z</time>
      </trkpt>
      <trkpt lat="46.2781" lon="-1.07109">
        <ele>44.701013</ele>
        <time>2022-12-19T15:20:59.380Z</time>
      </trkpt>
      <trkpt lat="46.27801" lon="-1.07099">
        <ele>44.691954</ele>
        <time>2022-12-19T15:21:03.387Z</time>
      </trkpt>
      <trkpt lat="46.27794" lon="-1.07091">
        <ele>44.684355</ele>
        <time>2022-12-19T15:21:06.378Z</time>
      </trkpt>
      <trkpt lat="46.27787" lon="-1.07082">
        <ele>44.676674</ele>
        <time>2022-12-19T15:21:09.377Z</time>
      </trkpt>
      <trkpt lat="46.27779" lon="-1.07073">
        <ele>44.667593</ele>
        <time>2022-12-19T15:21:12.372Z</time>
      </trkpt>
      <trkpt lat="46.27772" lon="-1.07063">
        <ele>44.653723</ele>
        <time>2022-12-19T15:21:15.356Z</time>
      </trkpt>
      <trkpt lat="46.27764" lon="-1.07055">
        <ele>44.639889</ele>
        <time>2022-12-19T15:21:18.377Z</time>
      </trkpt>
      <trkpt lat="46.27757" lon="-1.07046">
        <ele>44.625981</ele>
        <time>2022-12-19T15:21:21.378Z</time>
      </trkpt>
      <trkpt lat="46.27749" lon="-1.07036">
        <ele>44.611622</ele>
        <time>2022-12-19T15:21:24.390Z</time>
      </trkpt>
      <trkpt lat="46.27741" lon="-1.07027">
        <ele>44.597263</ele>
        <time>2022-12-19T15:21:27.354Z</time>
      </trkpt>
      <trkpt lat="46.27733" lon="-1.07018">
        <ele>44.583489</ele>
        <time>2022-12-19T15:21:30.377Z</time>
      </trkpt>
      <trkpt lat="46.27725" lon="-1.07008">
        <ele>44.567454</ele>
        <time>2022-12-19T15:21:34.377Z</time>
      </trkpt>
      <trkpt lat="46.27717" lon="-1.06999">
        <ele>44.554253</ele>
        <time>2022-12-19T15:21:37.380Z</time>
      </trkpt>
      <trkpt lat="46.2771" lon="-1.0699">
        <ele>44.540298</ele>
        <time>2022-12-19T15:21:40.373Z</time>
      </trkpt>
      <trkpt lat="46.27702" lon="-1.06981">
        <ele>44.525797</ele>
        <time>2022-12-19T15:21:43.378Z</time>
      </trkpt>
      <trkpt lat="46.27694" lon="-1.0697">
        <ele>44.510657</ele>
        <time>2022-12-19T15:21:46.376Z</time>
      </trkpt>
      <trkpt lat="46.27686" lon="-1.06962">
        <ele>44.497556</ele>
        <time>2022-12-19T15:21:49.380Z</time>
      </trkpt>
      <trkpt lat="46.27677" lon="-1.06951">
        <ele>44.480401</ele>
        <time>2022-12-19T15:21:53.366Z</time>
      </trkpt>
      <trkpt lat="46.2767" lon="-1.06942">
        <ele>44.466835</ele>
        <time>2022-12-19T15:21:56.378Z</time>
      </trkpt>
      <trkpt lat="46.27662" lon="-1.06932">
        <ele>44.45244</ele>
        <time>2022-12-19T15:21:59.378Z</time>
      </trkpt>
      <trkpt lat="46.27654" lon="-1.06923">
        <ele>44.437507</ele>
        <time>2022-12-19T15:22:02.380Z</time>
      </trkpt>
      <trkpt lat="46.27645" lon="-1.06913">
        <ele>44.422476</ele>
        <time>2022-12-19T15:22:05.379Z</time>
      </trkpt>
      <trkpt lat="46.27637" lon="-1.06904">
        <ele>44.437785</ele>
        <time>2022-12-19T15:22:08.374Z</time>
      </trkpt>
      <trkpt lat="46.27628" lon="-1.06894">
        <ele>44.473128</ele>
        <time>2022-12-19T15:22:11.383Z</time>
      </trkpt>
      <trkpt lat="46.27619" lon="-1.06884">
        <ele>44.508832</ele>
        <time>2022-12-19T15:22:14.364Z</time>
      </trkpt>
      <trkpt lat="46.2761" lon="-1.06875">
        <ele>44.544407</ele>
        <time>2022-12-19T15:22:17.378Z</time>
      </trkpt>
      <trkpt lat="46.27601" lon="-1.06866">
        <ele>44.580506</ele>
        <time>2022-12-19T15:22:20.377Z</time>
      </trkpt>
      <trkpt lat="46.27591" lon="-1.06857">
        <ele>44.617301</ele>
        <time>2022-12-19T15:22:23.360Z</time>
      </trkpt>
      <trkpt lat="46.27581" lon="-1.06849">
        <ele>44.652631</ele>
        <time>2022-12-19T15:22:26.375Z</time>
      </trkpt>
      <trkpt lat="46.27573" lon="-1.06842">
        <ele>44.684591</ele>
        <time>2022-12-19T15:22:29.356Z</time>
      </trkpt>
      <trkpt lat="46.27563" lon="-1.06835">
        <ele>44.718066</ele>
        <time>2022-12-19T15:22:32.384Z</time>
      </trkpt>
      <trkpt lat="46.27553" lon="-1.06829">
        <ele>44.753225</ele>
        <time>2022-12-19T15:22:35.357Z</time>
      </trkpt>
      <trkpt lat="46.27542" lon="-1.06824">
        <ele>44.789483</ele>
        <time>2022-12-19T15:22:38.384Z</time>
      </trkpt>
      <trkpt lat="46.27532" lon="-1.06818">
        <ele>44.824993</ele>
        <time>2022-12-19T15:22:41.379Z</time>
      </trkpt>
      <trkpt lat="46.27521" lon="-1.06814">
        <ele>44.859917</ele>
        <time>2022-12-19T15:22:44.378Z</time>
      </trkpt>
      <trkpt lat="46.27511" lon="-1.0681">
        <ele>44.894088</ele>
        <time>2022-12-19T15:22:47.380Z</time>
      </trkpt>
      <trkpt lat="46.27501" lon="-1.06807">
        <ele>44.927552</ele>
        <time>2022-12-19T15:22:50.379Z</time>
      </trkpt>
      <trkpt lat="46.27491" lon="-1.06805">
        <ele>44.95929</ele>
        <time>2022-12-19T15:22:53.381Z</time>
      </trkpt>
      <trkpt lat="46.27481" lon="-1.06803">
        <ele>44.989856</ele>
        <time>2022-12-19T15:22:56.352Z</time>
      </trkpt>
      <trkpt lat="46.27472" lon="-1.06802">
        <ele>45.039669</ele>
        <time>2022-12-19T15:22:59.380Z</time>
      </trkpt>
      <trkpt lat="46.27462" lon="-1.06801">
        <ele>45.090416</ele>
        <time>2022-12-19T15:23:02.377Z</time>
      </trkpt>
      <trkpt lat="46.27452" lon="-1.068">
        <ele>45.142243</ele>
        <time>2022-12-19T15:23:05.380Z</time>
      </trkpt>
      <trkpt lat="46.27443" lon="-1.068">
        <ele>45.19231</ele>
        <time>2022-12-19T15:23:08.361Z</time>
      </trkpt>
      <trkpt lat="46.27433" lon="-1.06799">
        <ele>45.244511</ele>
        <time>2022-12-19T15:23:11.381Z</time>
      </trkpt>
      <trkpt lat="46.27423" lon="-1.06799">
        <ele>45.297309</ele>
        <time>2022-12-19T15:23:14.379Z</time>
      </trkpt>
      <trkpt lat="46.27413" lon="-1.06798">
        <ele>45.347962</ele>
        <time>2022-12-19T15:23:17.380Z</time>
      </trkpt>
      <trkpt lat="46.27404" lon="-1.06797">
        <ele>45.399636</ele>
        <time>2022-12-19T15:23:20.377Z</time>
      </trkpt>
      <trkpt lat="46.27394" lon="-1.06797">
        <ele>45.452394</ele>
        <time>2022-12-19T15:23:23.362Z</time>
      </trkpt>
      <trkpt lat="46.27384" lon="-1.06797">
        <ele>45.505622</ele>
        <time>2022-12-19T15:23:26.379Z</time>
      </trkpt>
      <trkpt lat="46.27374" lon="-1.06797">
        <ele>45.55727</ele>
        <time>2022-12-19T15:23:29.381Z</time>
      </trkpt>
      <trkpt lat="46.27364" lon="-1.06796">
        <ele>45.609067</ele>
        <time>2022-12-19T15:23:32.382Z</time>
      </trkpt>
      <trkpt lat="46.27353" lon="-1.06795">
        <ele>45.667652</ele>
        <time>2022-12-19T15:23:35.377Z</time>
      </trkpt>
      <trkpt lat="46.27343" lon="-1.06794">
        <ele>45.72045</ele>
        <time>2022-12-19T15:23:38.378Z</time>
      </trkpt>
      <trkpt lat="46.27332" lon="-1.06793">
        <ele>45.779525</ele>
        <time>2022-12-19T15:23:42.379Z</time>
      </trkpt>
      <trkpt lat="46.27322" lon="-1.06792">
        <ele>45.829746</ele>
        <time>2022-12-19T15:24:00.364Z</time>
      </trkpt>
      <trkpt lat="46.27312" lon="-1.0679">
        <ele>45.881759</ele>
        <time>2022-12-19T15:24:04.363Z</time>
      </trkpt>
      <trkpt lat="46.27303" lon="-1.0679">
        <ele>45.932886</ele>
        <time>2022-12-19T15:24:07.378Z</time>
      </trkpt>
      <trkpt lat="46.27292" lon="-1.06789">
        <ele>45.945682</ele>
        <time>2022-12-19T15:24:10.381Z</time>
      </trkpt>
      <trkpt lat="46.27282" lon="-1.06789">
        <ele>45.953516</ele>
        <time>2022-12-19T15:24:13.383Z</time>
      </trkpt>
      <trkpt lat="46.27272" lon="-1.06788">
        <ele>45.960755</ele>
        <time>2022-12-19T15:24:16.379Z</time>
      </trkpt>
      <trkpt lat="46.27261" lon="-1.06787">
        <ele>45.968822</ele>
        <time>2022-12-19T15:24:19.360Z</time>
      </trkpt>
      <trkpt lat="46.2725" lon="-1.06787">
        <ele>45.977174</ele>
        <time>2022-12-19T15:24:22.379Z</time>
      </trkpt>
      <trkpt lat="46.27239" lon="-1.06786">
        <ele>45.985303</ele>
        <time>2022-12-19T15:24:25.365Z</time>
      </trkpt>
      <trkpt lat="46.27228" lon="-1.06785">
        <ele>45.99345</ele>
        <time>2022-12-19T15:24:28.353Z</time>
      </trkpt>
      <trkpt lat="46.27217" lon="-1.06784">
        <ele>46.001362</ele>
        <time>2022-12-19T15:24:31.371Z</time>
      </trkpt>
      <trkpt lat="46.27206" lon="-1.06784">
        <ele>46.009275</ele>
        <time>2022-12-19T15:24:34.375Z</time>
      </trkpt>
      <trkpt lat="46.27197" lon="-1.06783">
        <ele>46.016532</ele>
        <time>2022-12-19T15:24:37.363Z</time>
      </trkpt>
      <trkpt lat="46.27186" lon="-1.06783">
        <ele>46.024213</ele>
        <time>2022-12-19T15:24:40.379Z</time>
      </trkpt>
      <trkpt lat="46.27176" lon="-1.06782">
        <ele>46.032127</ele>
        <time>2022-12-19T15:24:43.381Z</time>
      </trkpt>
      <trkpt lat="46.27165" lon="-1.06781">
        <ele>46.039884</ele>
        <time>2022-12-19T15:24:46.358Z</time>
      </trkpt>
      <trkpt lat="46.27155" lon="-1.0678">
        <ele>46.047516</ele>
        <time>2022-12-19T15:24:49.370Z</time>
      </trkpt>
      <trkpt lat="46.27144" lon="-1.0678">
        <ele>46.055204</ele>
        <time>2022-12-19T15:24:52.362Z</time>
      </trkpt>
      <trkpt lat="46.27134" lon="-1.06779">
        <ele>46.062826</ele>
        <time>2022-12-19T15:24:55.381Z</time>
      </trkpt>
      <trkpt lat="46.27123" lon="-1.06778">
        <ele>46.070739</ele>
        <time>2022-12-19T15:24:58.364Z</time>
      </trkpt>
      <trkpt lat="46.27114" lon="-1.06778">
        <ele>46.054783</ele>
        <time>2022-12-19T15:25:01.362Z</time>
      </trkpt>
      <trkpt lat="46.27104" lon="-1.06778">
        <ele>46.034201</ele>
        <time>2022-12-19T15:25:04.383Z</time>
      </trkpt>
      <trkpt lat="46.27094" lon="-1.06779">
        <ele>46.013269</ele>
        <time>2022-12-19T15:25:07.362Z</time>
      </trkpt>
      <trkpt lat="46.27085" lon="-1.06778">
        <ele>45.994037</ele>
        <time>2022-12-19T15:25:10.355Z</time>
      </trkpt>
      <trkpt lat="46.27072" lon="-1.06778">
        <ele>45.96888</ele>
        <time>2022-12-19T15:25:14.392Z</time>
      </trkpt>
      <trkpt lat="46.27063" lon="-1.06776">
        <ele>45.949106</ele>
        <time>2022-12-19T15:25:17.360Z</time>
      </trkpt>
      <trkpt lat="46.27054" lon="-1.06775">
        <ele>45.929926</ele>
        <time>2022-12-19T15:25:20.354Z</time>
      </trkpt>
      <trkpt lat="46.27044" lon="-1.06773">
        <ele>45.908404</ele>
        <time>2022-12-19T15:25:23.379Z</time>
      </trkpt>
      <trkpt lat="46.27033" lon="-1.06773">
        <ele>45.885535</ele>
        <time>2022-12-19T15:25:26.354Z</time>
      </trkpt>
      <trkpt lat="46.27021" lon="-1.06772">
        <ele>45.862015</ele>
        <time>2022-12-19T15:25:29.359Z</time>
      </trkpt>
      <trkpt lat="46.27011" lon="-1.06772">
        <ele>45.839747</ele>
        <time>2022-12-19T15:25:32.380Z</time>
      </trkpt>
      <trkpt lat="46.27001" lon="-1.06771">
        <ele>45.818918</ele>
        <time>2022-12-19T15:25:35.378Z</time>
      </trkpt>
      <trkpt lat="46.2699" lon="-1.0677">
        <ele>45.79622</ele>
        <time>2022-12-19T15:25:38.353Z</time>
      </trkpt>
      <trkpt lat="46.26979" lon="-1.06769">
        <ele>45.77333</ele>
        <time>2022-12-19T15:25:41.380Z</time>
      </trkpt>
      <trkpt lat="46.26967" lon="-1.06768">
        <ele>45.749763</ele>
        <time>2022-12-19T15:25:44.378Z</time>
      </trkpt>
      <trkpt lat="46.26956" lon="-1.06767">
        <ele>45.727091</ele>
        <time>2022-12-19T15:25:47.379Z</time>
      </trkpt>
      <trkpt lat="46.26946" lon="-1.06767">
        <ele>45.704419</ele>
        <time>2022-12-19T15:25:50.374Z</time>
      </trkpt>
      <trkpt lat="46.26935" lon="-1.06766">
        <ele>45.705649</ele>
        <time>2022-12-19T15:25:53.376Z</time>
      </trkpt>
      <trkpt lat="46.26925" lon="-1.06765">
        <ele>45.716417</ele>
        <time>2022-12-19T15:25:56.363Z</time>
      </trkpt>
      <trkpt lat="46.26915" lon="-1.06765">
        <ele>45.727082</ele>
        <time>2022-12-19T15:25:59.381Z</time>
      </trkpt>
      <trkpt lat="46.26905" lon="-1.06764">
        <ele>45.737323</ele>
        <time>2022-12-19T15:26:02.382Z</time>
      </trkpt>
      <trkpt lat="46.26895" lon="-1.06764">
        <ele>45.747784</ele>
        <time>2022-12-19T15:26:05.381Z</time>
      </trkpt>
      <trkpt lat="46.26883" lon="-1.06763">
        <ele>45.759804</ele>
        <time>2022-12-19T15:26:09.379Z</time>
      </trkpt>
      <trkpt lat="46.26874" lon="-1.06762">
        <ele>45.769878</ele>
        <time>2022-12-19T15:26:12.379Z</time>
      </trkpt>
      <trkpt lat="46.26863" lon="-1.06761">
        <ele>45.780759</ele>
        <time>2022-12-19T15:26:15.357Z</time>
      </trkpt>
      <trkpt lat="46.26853" lon="-1.0676">
        <ele>45.791857</ele>
        <time>2022-12-19T15:26:18.374Z</time>
      </trkpt>
      <trkpt lat="46.26842" lon="-1.06759">
        <ele>45.803358</ele>
        <time>2022-12-19T15:26:21.374Z</time>
      </trkpt>
      <trkpt lat="46.26831" lon="-1.06759">
        <ele>45.814761</ele>
        <time>2022-12-19T15:26:24.358Z</time>
      </trkpt>
      <trkpt lat="46.2682" lon="-1.06758">
        <ele>45.825959</ele>
        <time>2022-12-19T15:26:27.362Z</time>
      </trkpt>
      <trkpt lat="46.26809" lon="-1.06757">
        <ele>45.837271</ele>
        <time>2022-12-19T15:26:30.379Z</time>
      </trkpt>
      <trkpt lat="46.26798" lon="-1.06756">
        <ele>45.848667</ele>
        <time>2022-12-19T15:26:33.361Z</time>
      </trkpt>
      <trkpt lat="46.26787" lon="-1.06756">
        <ele>45.860162</ele>
        <time>2022-12-19T15:26:36.377Z</time>
      </trkpt>
      <trkpt lat="46.26777" lon="-1.06755">
        <ele>45.871474</ele>
        <time>2022-12-19T15:26:39.376Z</time>
      </trkpt>
      <trkpt lat="46.26766" lon="-1.06754">
        <ele>45.882994</ele>
        <time>2022-12-19T15:26:42.349Z</time>
      </trkpt>
      <trkpt lat="46.26754" lon="-1.06753">
        <ele>45.881369</ele>
        <time>2022-12-19T15:26:45.375Z</time>
      </trkpt>
      <trkpt lat="46.26742" lon="-1.06752">
        <ele>45.875499</ele>
        <time>2022-12-19T15:26:48.360Z</time>
      </trkpt>
      <trkpt lat="46.26731" lon="-1.06751">
        <ele>45.870026</ele>
        <time>2022-12-19T15:26:51.383Z</time>
      </trkpt>
      <trkpt lat="46.2672" lon="-1.06751">
        <ele>45.864605</ele>
        <time>2022-12-19T15:26:54.384Z</time>
      </trkpt>
      <trkpt lat="46.26709" lon="-1.06749">
        <ele>45.859223</ele>
        <time>2022-12-19T15:26:57.373Z</time>
      </trkpt>
      <trkpt lat="46.26698" lon="-1.06749">
        <ele>45.853802</ele>
        <time>2022-12-19T15:27:00.371Z</time>
      </trkpt>
      <trkpt lat="46.26689" lon="-1.06749">
        <ele>45.849231</ele>
        <time>2022-12-19T15:27:03.380Z</time>
      </trkpt>
      <trkpt lat="46.26678" lon="-1.06748">
        <ele>45.843565</ele>
        <time>2022-12-19T15:27:07.383Z</time>
      </trkpt>
      <trkpt lat="46.26669" lon="-1.06747">
        <ele>45.838916</ele>
        <time>2022-12-19T15:27:10.355Z</time>
      </trkpt>
      <trkpt lat="46.26659" lon="-1.06746">
        <ele>45.834045</ele>
        <time>2022-12-19T15:27:13.377Z</time>
      </trkpt>
      <trkpt lat="46.26648" lon="-1.06745">
        <ele>45.82887</ele>
        <time>2022-12-19T15:27:16.381Z</time>
      </trkpt>
      <trkpt lat="46.26637" lon="-1.06745">
        <ele>45.823453</ele>
        <time>2022-12-19T15:27:19.387Z</time>
      </trkpt>
      <trkpt lat="46.26626" lon="-1.06744">
        <ele>45.817975</ele>
        <time>2022-12-19T15:27:22.380Z</time>
      </trkpt>
      <trkpt lat="46.26616" lon="-1.06743">
        <ele>45.812552</ele>
        <time>2022-12-19T15:27:25.378Z</time>
      </trkpt>
      <trkpt lat="46.26605" lon="-1.06742">
        <ele>45.807281</ele>
        <time>2022-12-19T15:27:28.378Z</time>
      </trkpt>
      <trkpt lat="46.26595" lon="-1.06742">
        <ele>45.802163</ele>
        <time>2022-12-19T15:27:31.376Z</time>
      </trkpt>
      <trkpt lat="46.26584" lon="-1.06742">
        <ele>45.797043</ele>
        <time>2022-12-19T15:27:34.364Z</time>
      </trkpt>
      <trkpt lat="46.26574" lon="-1.06741">
        <ele>45.785803</ele>
        <time>2022-12-19T15:27:37.377Z</time>
      </trkpt>
      <trkpt lat="46.26565" lon="-1.06741">
        <ele>45.774839</ele>
        <time>2022-12-19T15:27:40.374Z</time>
      </trkpt>
      <trkpt lat="46.26554" lon="-1.0674">
        <ele>45.761855</ele>
        <time>2022-12-19T15:27:44.356Z</time>
      </trkpt>
      <trkpt lat="46.26542" lon="-1.06739">
        <ele>45.74783</ele>
        <time>2022-12-19T15:27:48.378Z</time>
      </trkpt>
      <trkpt lat="46.26532" lon="-1.06738">
        <ele>45.735885</ele>
        <time>2022-12-19T15:27:51.357Z</time>
      </trkpt>
      <trkpt lat="46.26521" lon="-1.06737">
        <ele>45.72338</ele>
        <time>2022-12-19T15:27:54.379Z</time>
      </trkpt>
      <trkpt lat="46.26511" lon="-1.06736">
        <ele>45.710876</ele>
        <time>2022-12-19T15:27:57.382Z</time>
      </trkpt>
      <trkpt lat="46.26499" lon="-1.06735">
        <ele>45.69694</ele>
        <time>2022-12-19T15:28:01.387Z</time>
      </trkpt>
      <trkpt lat="46.26487" lon="-1.06734">
        <ele>45.682992</ele>
        <time>2022-12-19T15:28:05.378Z</time>
      </trkpt>
      <trkpt lat="46.26477" lon="-1.06733">
        <ele>45.671641</ele>
        <time>2022-12-19T15:28:08.380Z</time>
      </trkpt>
      <trkpt lat="46.26467" lon="-1.06732">
        <ele>45.659846</ele>
        <time>2022-12-19T15:28:11.365Z</time>
      </trkpt>
      <trkpt lat="46.26457" lon="-1.06731">
        <ele>45.647588</ele>
        <time>2022-12-19T15:28:14.379Z</time>
      </trkpt>
      <trkpt lat="46.26446" lon="-1.06731">
        <ele>45.634858</ele>
        <time>2022-12-19T15:28:17.382Z</time>
      </trkpt>
      <trkpt lat="46.26436" lon="-1.0673">
        <ele>45.622584</ele>
        <time>2022-12-19T15:28:20.377Z</time>
      </trkpt>
      <trkpt lat="46.26426" lon="-1.0673">
        <ele>45.61045</ele>
        <time>2022-12-19T15:28:23.357Z</time>
      </trkpt>
      <trkpt lat="46.26416" lon="-1.0673">
        <ele>45.599018</ele>
        <time>2022-12-19T15:28:26.376Z</time>
      </trkpt>
      <trkpt lat="46.26406" lon="-1.06729">
        <ele>45.587327</ele>
        <time>2022-12-19T15:28:29.360Z</time>
      </trkpt>
      <trkpt lat="46.26396" lon="-1.06729">
        <ele>45.652722</ele>
        <time>2022-12-19T15:28:32.363Z</time>
      </trkpt>
      <trkpt lat="46.26386" lon="-1.06728">
        <ele>45.747363</ele>
        <time>2022-12-19T15:28:35.357Z</time>
      </trkpt>
      <trkpt lat="46.26375" lon="-1.06727">
        <ele>45.844765</ele>
        <time>2022-12-19T15:28:38.377Z</time>
      </trkpt>
      <trkpt lat="46.26364" lon="-1.06725">
        <ele>45.944246</ele>
        <time>2022-12-19T15:28:41.379Z</time>
      </trkpt>
      <trkpt lat="46.26353" lon="-1.06725">
        <ele>46.043359</ele>
        <time>2022-12-19T15:28:44.363Z</time>
      </trkpt>
      <trkpt lat="46.26342" lon="-1.06724">
        <ele>46.138103</ele>
        <time>2022-12-19T15:28:47.378Z</time>
      </trkpt>
      <trkpt lat="46.26332" lon="-1.06724">
        <ele>46.226343</ele>
        <time>2022-12-19T15:28:50.378Z</time>
      </trkpt>
      <trkpt lat="46.26322" lon="-1.06724">
        <ele>46.320901</ele>
        <time>2022-12-19T15:28:54.374Z</time>
      </trkpt>
      <trkpt lat="46.26307" lon="-1.06723">
        <ele>46.456281</ele>
        <time>2022-12-19T15:30:59.360Z</time>
      </trkpt>
      <trkpt lat="46.26298" lon="-1.06722">
        <ele>46.540999</ele>
        <time>2022-12-19T15:31:03.379Z</time>
      </trkpt>
      <trkpt lat="46.26289" lon="-1.06721">
        <ele>46.622322</ele>
        <time>2022-12-19T15:31:06.378Z</time>
      </trkpt>
      <trkpt lat="46.26279" lon="-1.0672">
        <ele>46.711772</ele>
        <time>2022-12-19T15:31:09.381Z</time>
      </trkpt>
      <trkpt lat="46.26268" lon="-1.06718">
        <ele>46.806008</ele>
        <time>2022-12-19T15:31:12.381Z</time>
      </trkpt>
      <trkpt lat="46.26257" lon="-1.06716">
        <ele>46.907616</ele>
        <time>2022-12-19T15:31:15.379Z</time>
      </trkpt>
      <trkpt lat="46.26245" lon="-1.06715">
        <ele>47.016818</ele>
        <time>2022-12-19T15:31:18.380Z</time>
      </trkpt>
      <trkpt lat="46.26233" lon="-1.06713">
        <ele>47.120782</ele>
        <time>2022-12-19T15:31:21.367Z</time>
      </trkpt>
      <trkpt lat="46.26223" lon="-1.06712">
        <ele>47.206825</ele>
        <time>2022-12-19T15:31:24.360Z</time>
      </trkpt>
      <trkpt lat="46.26212" lon="-1.06711">
        <ele>47.232047</ele>
        <time>2022-12-19T15:31:27.377Z</time>
      </trkpt>
      <trkpt lat="46.26201" lon="-1.0671">
        <ele>47.257509</ele>
        <time>2022-12-19T15:31:30.360Z</time>
      </trkpt>
      <trkpt lat="46.2619" lon="-1.06708">
        <ele>47.282319</ele>
        <time>2022-12-19T15:31:33.356Z</time>
      </trkpt>
      <trkpt lat="46.26181" lon="-1.06708">
        <ele>47.30519</ele>
        <time>2022-12-19T15:31:36.385Z</time>
      </trkpt>
      <trkpt lat="46.2617" lon="-1.06707">
        <ele>47.328592</ele>
        <time>2022-12-19T15:31:39.381Z</time>
      </trkpt>
      <trkpt lat="46.26161" lon="-1.06705">
        <ele>47.351385</ele>
        <time>2022-12-19T15:31:42.374Z</time>
      </trkpt>
      <trkpt lat="46.26151" lon="-1.06704">
        <ele>47.374801</ele>
        <time>2022-12-19T15:31:45.373Z</time>
      </trkpt>
      <trkpt lat="46.2614" lon="-1.06703">
        <ele>47.3991</ele>
        <time>2022-12-19T15:31:48.381Z</time>
      </trkpt>
      <trkpt lat="46.2613" lon="-1.06701">
        <ele>47.42283</ele>
        <time>2022-12-19T15:31:51.353Z</time>
      </trkpt>
      <trkpt lat="46.26119" lon="-1.06699">
        <ele>47.44764</ele>
        <time>2022-12-19T15:31:54.359Z</time>
      </trkpt>
      <trkpt lat="46.26109" lon="-1.06699">
        <ele>47.472136</ele>
        <time>2022-12-19T15:31:57.378Z</time>
      </trkpt>
      <trkpt lat="46.26098" lon="-1.06698">
        <ele>47.495999</ele>
        <time>2022-12-19T15:32:00.352Z</time>
      </trkpt>
      <trkpt lat="46.26088" lon="-1.06697">
        <ele>47.519838</ele>
        <time>2022-12-19T15:32:03.377Z</time>
      </trkpt>
      <trkpt lat="46.26078" lon="-1.06696">
        <ele>47.542514</ele>
        <time>2022-12-19T15:32:06.378Z</time>
      </trkpt>
      <trkpt lat="46.26068" lon="-1.06694">
        <ele>47.565715</ele>
        <time>2022-12-19T15:32:09.381Z</time>
      </trkpt>
      <trkpt lat="46.26058" lon="-1.06693">
        <ele>47.58936</ele>
        <time>2022-12-19T15:32:12.357Z</time>
      </trkpt>
      <trkpt lat="46.26048" lon="-1.06692">
        <ele>47.61298</ele>
        <time>2022-12-19T15:32:15.378Z</time>
      </trkpt>
      <trkpt lat="46.26037" lon="-1.0669">
        <ele>47.632113</ele>
        <time>2022-12-19T15:32:18.358Z</time>
      </trkpt>
      <trkpt lat="46.26027" lon="-1.0669">
        <ele>47.649048</ele>
        <time>2022-12-19T15:32:21.361Z</time>
      </trkpt>
      <trkpt lat="46.26017" lon="-1.06688">
        <ele>47.66547</ele>
        <time>2022-12-19T15:32:24.370Z</time>
      </trkpt>
      <trkpt lat="46.26007" lon="-1.06687">
        <ele>47.681442</ele>
        <time>2022-12-19T15:32:27.354Z</time>
      </trkpt>
      <trkpt lat="46.25996" lon="-1.06687">
        <ele>47.697906</ele>
        <time>2022-12-19T15:32:30.355Z</time>
      </trkpt>
      <trkpt lat="46.25986" lon="-1.06686">
        <ele>47.714085</ele>
        <time>2022-12-19T15:32:33.379Z</time>
      </trkpt>
      <trkpt lat="46.25976" lon="-1.06684">
        <ele>47.730605</ele>
        <time>2022-12-19T15:32:36.380Z</time>
      </trkpt>
      <trkpt lat="46.25966" lon="-1.06683">
        <ele>47.747249</ele>
        <time>2022-12-19T15:32:39.364Z</time>
      </trkpt>
      <trkpt lat="46.25956" lon="-1.06683">
        <ele>47.76306</ele>
        <time>2022-12-19T15:32:42.363Z</time>
      </trkpt>
      <trkpt lat="46.25946" lon="-1.06681">
        <ele>47.778974</ele>
        <time>2022-12-19T15:32:45.378Z</time>
      </trkpt>
      <trkpt lat="46.25937" lon="-1.0668">
        <ele>47.794485</ele>
        <time>2022-12-19T15:32:48.358Z</time>
      </trkpt>
      <trkpt lat="46.25926" lon="-1.06679">
        <ele>47.811594</ele>
        <time>2022-12-19T15:32:51.381Z</time>
      </trkpt>
      <trkpt lat="46.25915" lon="-1.06678">
        <ele>47.828875</ele>
        <time>2022-12-19T15:32:54.380Z</time>
      </trkpt>
      <trkpt lat="46.25905" lon="-1.06677">
        <ele>47.84634</ele>
        <time>2022-12-19T15:32:57.356Z</time>
      </trkpt>
      <trkpt lat="46.25894" lon="-1.06676">
        <ele>47.863974</ele>
        <time>2022-12-19T15:33:00.380Z</time>
      </trkpt>
      <trkpt lat="46.25883" lon="-1.06675">
        <ele>47.882074</ele>
        <time>2022-12-19T15:33:03.384Z</time>
      </trkpt>
      <trkpt lat="46.25872" lon="-1.06673">
        <ele>47.899899</ele>
        <time>2022-12-19T15:33:06.366Z</time>
      </trkpt>
      <trkpt lat="46.25861" lon="-1.06672">
        <ele>47.835687</ele>
        <time>2022-12-19T15:33:09.357Z</time>
      </trkpt>
      <trkpt lat="46.2585" lon="-1.0667">
        <ele>47.682442</ele>
        <time>2022-12-19T15:33:12.354Z</time>
      </trkpt>
      <trkpt lat="46.2584" lon="-1.06669">
        <ele>47.540124</ele>
        <time>2022-12-19T15:33:15.378Z</time>
      </trkpt>
      <trkpt lat="46.2583" lon="-1.06668">
        <ele>47.396237</ele>
        <time>2022-12-19T15:33:18.384Z</time>
      </trkpt>
      <trkpt lat="46.25819" lon="-1.06666">
        <ele>47.237519</ele>
        <time>2022-12-19T15:33:21.363Z</time>
      </trkpt>
      <trkpt lat="46.25808" lon="-1.06665">
        <ele>47.072097</ele>
        <time>2022-12-19T15:33:24.378Z</time>
      </trkpt>
      <trkpt lat="46.25796" lon="-1.06664">
        <ele>46.905311</ele>
        <time>2022-12-19T15:33:27.381Z</time>
      </trkpt>
      <trkpt lat="46.25784" lon="-1.06663">
        <ele>46.739648</ele>
        <time>2022-12-19T15:33:30.363Z</time>
      </trkpt>
      <trkpt lat="46.25773" lon="-1.06661">
        <ele>46.575582</ele>
        <time>2022-12-19T15:33:33.360Z</time>
      </trkpt>
      <trkpt lat="46.25761" lon="-1.0666">
        <ele>46.408575</ele>
        <time>2022-12-19T15:33:36.380Z</time>
      </trkpt>
      <trkpt lat="46.2575" lon="-1.06659">
        <ele>46.245858</ele>
        <time>2022-12-19T15:33:39.377Z</time>
      </trkpt>
      <trkpt lat="46.25739" lon="-1.06658">
        <ele>46.083431</ele>
        <time>2022-12-19T15:33:42.362Z</time>
      </trkpt>
      <trkpt lat="46.25728" lon="-1.06656">
        <ele>45.926242</ele>
        <time>2022-12-19T15:33:45.380Z</time>
      </trkpt>
      <trkpt lat="46.25717" lon="-1.06655">
        <ele>45.766383</ele>
        <time>2022-12-19T15:33:48.382Z</time>
      </trkpt>
      <trkpt lat="46.25706" lon="-1.06653">
        <ele>45.606435</ele>
        <time>2022-12-19T15:33:51.377Z</time>
      </trkpt>
      <trkpt lat="46.25695" lon="-1.06651">
        <ele>45.447717</ele>
        <time>2022-12-19T15:33:54.381Z</time>
      </trkpt>
      <trkpt lat="46.25684" lon="-1.0665">
        <ele>45.330263</ele>
        <time>2022-12-19T15:33:57.371Z</time>
      </trkpt>
      <trkpt lat="46.25673" lon="-1.06649">
        <ele>45.33671</ele>
        <time>2022-12-19T15:34:00.377Z</time>
      </trkpt>
      <trkpt lat="46.25662" lon="-1.06648">
        <ele>45.343041</ele>
        <time>2022-12-19T15:34:03.381Z</time>
      </trkpt>
      <trkpt lat="46.25651" lon="-1.06647">
        <ele>45.3495</ele>
        <time>2022-12-19T15:34:06.365Z</time>
      </trkpt>
      <trkpt lat="46.2564" lon="-1.06646">
        <ele>45.355947</ele>
        <time>2022-12-19T15:34:09.373Z</time>
      </trkpt>
      <trkpt lat="46.25629" lon="-1.06644">
        <ele>45.362321</ele>
        <time>2022-12-19T15:34:12.384Z</time>
      </trkpt>
      <trkpt lat="46.25618" lon="-1.06642">
        <ele>45.368719</ele>
        <time>2022-12-19T15:34:15.380Z</time>
      </trkpt>
      <trkpt lat="46.25607" lon="-1.06641">
        <ele>45.375304</ele>
        <time>2022-12-19T15:34:18.377Z</time>
      </trkpt>
      <trkpt lat="46.25595" lon="-1.06639">
        <ele>45.381875</ele>
        <time>2022-12-19T15:34:21.381Z</time>
      </trkpt>
      <trkpt lat="46.25584" lon="-1.06638">
        <ele>45.388559</ele>
        <time>2022-12-19T15:34:24.357Z</time>
      </trkpt>
      <trkpt lat="46.25572" lon="-1.06637">
        <ele>45.395293</ele>
        <time>2022-12-19T15:34:27.380Z</time>
      </trkpt>
      <trkpt lat="46.25561" lon="-1.06636">
        <ele>45.401918</ele>
        <time>2022-12-19T15:34:30.366Z</time>
      </trkpt>
      <trkpt lat="46.25551" lon="-1.06635">
        <ele>45.407838</ele>
        <time>2022-12-19T15:34:33.364Z</time>
      </trkpt>
      <trkpt lat="46.25541" lon="-1.06634">
        <ele>45.413528</ele>
        <time>2022-12-19T15:34:36.361Z</time>
      </trkpt>
      <trkpt lat="46.25531" lon="-1.06634">
        <ele>45.419328</ele>
        <time>2022-12-19T15:34:39.369Z</time>
      </trkpt>
      <trkpt lat="46.25521" lon="-1.06633">
        <ele>45.425136</ele>
        <time>2022-12-19T15:34:42.376Z</time>
      </trkpt>
      <trkpt lat="46.25511" lon="-1.06633">
        <ele>45.430817</ele>
        <time>2022-12-19T15:34:45.377Z</time>
      </trkpt>
      <trkpt lat="46.25502" lon="-1.06632">
        <ele>45.463423</ele>
        <time>2022-12-19T15:34:48.381Z</time>
      </trkpt>
      <trkpt lat="46.25492" lon="-1.06632">
        <ele>45.516378</ele>
        <time>2022-12-19T15:34:51.380Z</time>
      </trkpt>
      <trkpt lat="46.25482" lon="-1.06632">
        <ele>45.568762</ele>
        <time>2022-12-19T15:34:54.361Z</time>
      </trkpt>
      <trkpt lat="46.25473" lon="-1.06633">
        <ele>45.621718</ele>
        <time>2022-12-19T15:34:57.356Z</time>
      </trkpt>
      <trkpt lat="46.25463" lon="-1.06632">
        <ele>45.675192</ele>
        <time>2022-12-19T15:35:00.370Z</time>
      </trkpt>
      <trkpt lat="46.25453" lon="-1.06633">
        <ele>45.729254</ele>
        <time>2022-12-19T15:35:03.360Z</time>
      </trkpt>
      <trkpt lat="46.25443" lon="-1.06634">
        <ele>45.780614</ele>
        <time>2022-12-19T15:35:06.379Z</time>
      </trkpt>
      <trkpt lat="46.25434" lon="-1.06635">
        <ele>45.830422</ele>
        <time>2022-12-19T15:35:09.379Z</time>
      </trkpt>
      <trkpt lat="46.25423" lon="-1.06637">
        <ele>45.893945</ele>
        <time>2022-12-19T15:35:13.378Z</time>
      </trkpt>
      <trkpt lat="46.25411" lon="-1.06638">
        <ele>45.956861</ele>
        <time>2022-12-19T15:35:17.380Z</time>
      </trkpt>
      <trkpt lat="46.25402" lon="-1.06639">
        <ele>46.006861</ele>
        <time>2022-12-19T15:35:20.366Z</time>
      </trkpt>
      <trkpt lat="46.25391" lon="-1.06642">
        <ele>46.070776</ele>
        <time>2022-12-19T15:35:24.377Z</time>
      </trkpt>
      <trkpt lat="46.25379" lon="-1.06644">
        <ele>46.136037</ele>
        <time>2022-12-19T15:35:28.367Z</time>
      </trkpt>
      <trkpt lat="46.25369" lon="-1.06646">
        <ele>46.188887</ele>
        <time>2022-12-19T15:35:31.359Z</time>
      </trkpt>
      <trkpt lat="46.2536" lon="-1.06648">
        <ele>46.241018</ele>
        <time>2022-12-19T15:35:34.368Z</time>
      </trkpt>
      <trkpt lat="46.2535" lon="-1.0665">
        <ele>46.295708</ele>
        <time>2022-12-19T15:35:37.359Z</time>
      </trkpt>
      <trkpt lat="46.25341" lon="-1.06653">
        <ele>46.346632</ele>
        <time>2022-12-19T15:35:40.378Z</time>
      </trkpt>
      <trkpt lat="46.25332" lon="-1.06656">
        <ele>46.396725</ele>
        <time>2022-12-19T15:35:43.357Z</time>
      </trkpt>
      <trkpt lat="46.25323" lon="-1.0666">
        <ele>46.447691</ele>
        <time>2022-12-19T15:35:46.370Z</time>
      </trkpt>
      <trkpt lat="46.25314" lon="-1.06665">
        <ele>46.499413</ele>
        <time>2022-12-19T15:35:49.379Z</time>
      </trkpt>
      <trkpt lat="46.25305" lon="-1.0667">
        <ele>46.550435</ele>
        <time>2022-12-19T15:35:52.379Z</time>
      </trkpt>
      <trkpt lat="46.25296" lon="-1.06677">
        <ele>46.608368</ele>
        <time>2022-12-19T15:35:56.357Z</time>
      </trkpt>
      <trkpt lat="46.2529" lon="-1.06689">
        <ele>46.66707</ele>
        <time>2022-12-19T15:36:00.378Z</time>
      </trkpt>
      <trkpt lat="46.25282" lon="-1.06701">
        <ele>46.730592</ele>
        <time>2022-12-19T15:36:04.358Z</time>
      </trkpt>
      <trkpt lat="46.25272" lon="-1.06707">
        <ele>46.789839</ele>
        <time>2022-12-19T15:36:08.365Z</time>
      </trkpt>
      <trkpt lat="46.25261" lon="-1.06704">
        <ele>46.852013</ele>
        <time>2022-12-19T15:36:12.365Z</time>
      </trkpt>
      <trkpt lat="46.2525" lon="-1.06698">
        <ele>46.915837</ele>
        <time>2022-12-19T15:36:16.361Z</time>
      </trkpt>
      <trkpt lat="46.2524" lon="-1.06696">
        <ele>46.971977</ele>
        <time>2022-12-19T15:36:20.378Z</time>
      </trkpt>
      <trkpt lat="46.25231" lon="-1.06698">
        <ele>47.024117</ele>
        <time>2022-12-19T15:36:23.367Z</time>
      </trkpt>
      <trkpt lat="46.25221" lon="-1.06702">
        <ele>47.077526</ele>
        <time>2022-12-19T15:36:26.377Z</time>
      </trkpt>
      <trkpt lat="46.25212" lon="-1.06706">
        <ele>47.130064</ele>
        <time>2022-12-19T15:36:29.380Z</time>
      </trkpt>
      <trkpt lat="46.25203" lon="-1.06709">
        <ele>47.183829</ele>
        <time>2022-12-19T15:36:32.377Z</time>
      </trkpt>
      <trkpt lat="46.25193" lon="-1.06714">
        <ele>47.238003</ele>
        <time>2022-12-19T15:36:35.359Z</time>
      </trkpt>
      <trkpt lat="46.25185" lon="-1.0672">
        <ele>47.291152</ele>
        <time>2022-12-19T15:36:38.365Z</time>
      </trkpt>
      <trkpt lat="46.25176" lon="-1.06725">
        <ele>47.343551</ele>
        <time>2022-12-19T15:36:41.378Z</time>
      </trkpt>
      <trkpt lat="46.25167" lon="-1.0673">
        <ele>47.396813</ele>
        <time>2022-12-19T15:36:44.376Z</time>
      </trkpt>
      <trkpt lat="46.25158" lon="-1.06734">
        <ele>47.386823</ele>
        <time>2022-12-19T15:36:47.379Z</time>
      </trkpt>
      <trkpt lat="46.25148" lon="-1.06739">
        <ele>47.363613</ele>
        <time>2022-12-19T15:36:50.378Z</time>
      </trkpt>
      <trkpt lat="46.25139" lon="-1.06743">
        <ele>47.340479</ele>
        <time>2022-12-19T15:36:53.388Z</time>
      </trkpt>
      <trkpt lat="46.25128" lon="-1.06748">
        <ele>47.315179</ele>
        <time>2022-12-19T15:36:56.377Z</time>
      </trkpt>
      <trkpt lat="46.25118" lon="-1.06754">
        <ele>47.289714</ele>
        <time>2022-12-19T15:36:59.379Z</time>
      </trkpt>
      <trkpt lat="46.25107" lon="-1.0676">
        <ele>47.26343</ele>
        <time>2022-12-19T15:37:02.380Z</time>
      </trkpt>
      <trkpt lat="46.25097" lon="-1.06765">
        <ele>47.238887</ele>
        <time>2022-12-19T15:37:05.379Z</time>
      </trkpt>
      <trkpt lat="46.25089" lon="-1.0677">
        <ele>47.217711</ele>
        <time>2022-12-19T15:37:08.378Z</time>
      </trkpt>
      <trkpt lat="46.25078" lon="-1.06776">
        <ele>47.190506</ele>
        <time>2022-12-19T15:37:12.382Z</time>
      </trkpt>
      <trkpt lat="46.25068" lon="-1.06781">
        <ele>47.167051</ele>
        <time>2022-12-19T15:37:15.366Z</time>
      </trkpt>
      <trkpt lat="46.25058" lon="-1.06785">
        <ele>47.143055</ele>
        <time>2022-12-19T15:37:18.366Z</time>
      </trkpt>
      <trkpt lat="46.25048" lon="-1.06791">
        <ele>47.118027</ele>
        <time>2022-12-19T15:37:21.381Z</time>
      </trkpt>
      <trkpt lat="46.25038" lon="-1.06796">
        <ele>47.092445</ele>
        <time>2022-12-19T15:37:24.358Z</time>
      </trkpt>
      <trkpt lat="46.25027" lon="-1.06801">
        <ele>47.066819</ele>
        <time>2022-12-19T15:37:27.378Z</time>
      </trkpt>
      <trkpt lat="46.25017" lon="-1.06807">
        <ele>47.042276</ele>
        <time>2022-12-19T15:37:30.378Z</time>
      </trkpt>
      <trkpt lat="46.25008" lon="-1.06813">
        <ele>47.017435</ele>
        <time>2022-12-19T15:37:33.363Z</time>
      </trkpt>
      <trkpt lat="46.24997" lon="-1.06818">
        <ele>46.992122</ele>
        <time>2022-12-19T15:37:36.379Z</time>
      </trkpt>
      <trkpt lat="46.24987" lon="-1.06823">
        <ele>46.98528</ele>
        <time>2022-12-19T15:37:39.385Z</time>
      </trkpt>
      <trkpt lat="46.24977" lon="-1.06829">
        <ele>46.980684</ele>
        <time>2022-12-19T15:37:42.379Z</time>
      </trkpt>
      <trkpt lat="46.24967" lon="-1.06834">
        <ele>46.976239</ele>
        <time>2022-12-19T15:37:45.370Z</time>
      </trkpt>
      <trkpt lat="46.24957" lon="-1.06839">
        <ele>46.97198</ele>
        <time>2022-12-19T15:37:48.379Z</time>
      </trkpt>
      <trkpt lat="46.24947" lon="-1.06845">
        <ele>46.967533</ele>
        <time>2022-12-19T15:37:51.379Z</time>
      </trkpt>
      <trkpt lat="46.24937" lon="-1.0685">
        <ele>46.962881</ele>
        <time>2022-12-19T15:37:54.377Z</time>
      </trkpt>
      <trkpt lat="46.24927" lon="-1.06855">
        <ele>46.958375</ele>
        <time>2022-12-19T15:37:57.380Z</time>
      </trkpt>
      <trkpt lat="46.24916" lon="-1.0686">
        <ele>46.953811</ele>
        <time>2022-12-19T15:38:00.359Z</time>
      </trkpt>
      <trkpt lat="46.24906" lon="-1.06866">
        <ele>46.949155</ele>
        <time>2022-12-19T15:38:03.357Z</time>
      </trkpt>
      <trkpt lat="46.24895" lon="-1.06872">
        <ele>46.944444</ele>
        <time>2022-12-19T15:38:06.366Z</time>
      </trkpt>
      <trkpt lat="46.24885" lon="-1.06878">
        <ele>46.93977</ele>
        <time>2022-12-19T15:38:09.379Z</time>
      </trkpt>
      <trkpt lat="46.24874" lon="-1.06883">
        <ele>46.935039</ele>
        <time>2022-12-19T15:38:12.385Z</time>
      </trkpt>
      <trkpt lat="46.24864" lon="-1.06888">
        <ele>46.930356</ele>
        <time>2022-12-19T15:38:15.380Z</time>
      </trkpt>
      <trkpt lat="46.24853" lon="-1.06894">
        <ele>46.925516</ele>
        <time>2022-12-19T15:38:18.381Z</time>
      </trkpt>
      <trkpt lat="46.24842" lon="-1.069">
        <ele>46.920677</ele>
        <time>2022-12-19T15:38:21.379Z</time>
      </trkpt>
      <trkpt lat="46.24832" lon="-1.06906">
        <ele>46.915964</ele>
        <time>2022-12-19T15:38:24.378Z</time>
      </trkpt>
      <trkpt lat="46.24821" lon="-1.06912">
        <ele>46.942035</ele>
        <time>2022-12-19T15:38:27.381Z</time>
      </trkpt>
      <trkpt lat="46.24811" lon="-1.06918">
        <ele>46.98894</ele>
        <time>2022-12-19T15:38:30.376Z</time>
      </trkpt>
      <trkpt lat="46.24801" lon="-1.06924">
        <ele>47.035845</ele>
        <time>2022-12-19T15:38:33.377Z</time>
      </trkpt>
      <trkpt lat="46.24792" lon="-1.06931">
        <ele>47.081022</ele>
        <time>2022-12-19T15:38:36.361Z</time>
      </trkpt>
      <trkpt lat="46.24782" lon="-1.06937">
        <ele>47.125287</ele>
        <time>2022-12-19T15:38:39.370Z</time>
      </trkpt>
      <trkpt lat="46.24772" lon="-1.06943">
        <ele>47.172542</ele>
        <time>2022-12-19T15:38:43.375Z</time>
      </trkpt>
      <trkpt lat="46.24762" lon="-1.06952">
        <ele>47.22368</ele>
        <time>2022-12-19T15:38:47.384Z</time>
      </trkpt>
      <trkpt lat="46.24753" lon="-1.06957">
        <ele>47.263512</ele>
        <time>2022-12-19T15:38:50.379Z</time>
      </trkpt>
      <trkpt lat="46.24744" lon="-1.06963">
        <ele>47.306361</ele>
        <time>2022-12-19T15:38:53.382Z</time>
      </trkpt>
      <trkpt lat="46.24735" lon="-1.06971">
        <ele>47.350654</ele>
        <time>2022-12-19T15:38:56.381Z</time>
      </trkpt>
      <trkpt lat="46.24726" lon="-1.06978">
        <ele>47.396059</ele>
        <time>2022-12-19T15:38:59.373Z</time>
      </trkpt>
      <trkpt lat="46.24716" lon="-1.06986">
        <ele>47.44414</ele>
        <time>2022-12-19T15:39:02.378Z</time>
      </trkpt>
      <trkpt lat="46.24706" lon="-1.06994">
        <ele>47.493403</ele>
        <time>2022-12-19T15:39:05.380Z</time>
      </trkpt>
      <trkpt lat="46.24697" lon="-1.07003">
        <ele>47.541797</ele>
        <time>2022-12-19T15:39:08.380Z</time>
      </trkpt>
      <trkpt lat="46.24687" lon="-1.07012">
        <ele>47.58955</ele>
        <time>2022-12-19T15:39:11.381Z</time>
      </trkpt>
      <trkpt lat="46.24678" lon="-1.07021">
        <ele>47.638621</ele>
        <time>2022-12-19T15:39:14.378Z</time>
      </trkpt>
      <trkpt lat="46.24668" lon="-1.0703">
        <ele>47.686368</ele>
        <time>2022-12-19T15:39:17.377Z</time>
      </trkpt>
      <trkpt lat="46.24659" lon="-1.0704">
        <ele>47.71229</ele>
        <time>2022-12-19T15:39:20.378Z</time>
      </trkpt>
      <trkpt lat="46.24649" lon="-1.07051">
        <ele>47.739279</ele>
        <time>2022-12-19T15:39:23.383Z</time>
      </trkpt>
      <trkpt lat="46.24638" lon="-1.07061">
        <ele>47.766975</ele>
        <time>2022-12-19T15:39:26.378Z</time>
      </trkpt>
      <trkpt lat="46.24628" lon="-1.07073">
        <ele>47.79489</ele>
        <time>2022-12-19T15:39:29.379Z</time>
      </trkpt>
      <trkpt lat="46.24618" lon="-1.07084">
        <ele>47.822335</ele>
        <time>2022-12-19T15:39:32.389Z</time>
      </trkpt>
      <trkpt lat="46.24609" lon="-1.07095">
        <ele>47.849889</ele>
        <time>2022-12-19T15:39:35.378Z</time>
      </trkpt>
      <trkpt lat="46.246" lon="-1.07106">
        <ele>47.875108</ele>
        <time>2022-12-19T15:39:38.382Z</time>
      </trkpt>
      <trkpt lat="46.24592" lon="-1.07116">
        <ele>47.898414</ele>
        <time>2022-12-19T15:39:41.368Z</time>
      </trkpt>
      <trkpt lat="46.24584" lon="-1.07127">
        <ele>47.922449</ele>
        <time>2022-12-19T15:39:44.373Z</time>
      </trkpt>
      <trkpt lat="46.24575" lon="-1.07137">
        <ele>47.946609</ele>
        <time>2022-12-19T15:39:47.380Z</time>
      </trkpt>
      <trkpt lat="46.24567" lon="-1.07148">
        <ele>47.970953</ele>
        <time>2022-12-19T15:39:50.382Z</time>
      </trkpt>
      <trkpt lat="46.24559" lon="-1.0716">
        <ele>47.995574</ele>
        <time>2022-12-19T15:39:53.382Z</time>
      </trkpt>
      <trkpt lat="46.24553" lon="-1.0717">
        <ele>48.016714</ele>
        <time>2022-12-19T15:39:56.377Z</time>
      </trkpt>
      <trkpt lat="46.24545" lon="-1.07181">
        <ele>48.040442</ele>
        <time>2022-12-19T15:40:00.361Z</time>
      </trkpt>
      <trkpt lat="46.24537" lon="-1.07193">
        <ele>48.065574</ele>
        <time>2022-12-19T15:40:04.363Z</time>
      </trkpt>
      <trkpt lat="46.24531" lon="-1.07203">
        <ele>48.105645</ele>
        <time>2022-12-19T15:40:07.378Z</time>
      </trkpt>
      <trkpt lat="46.24524" lon="-1.07214">
        <ele>48.1857</ele>
        <time>2022-12-19T15:40:10.378Z</time>
      </trkpt>
      <trkpt lat="46.24516" lon="-1.07226">
        <ele>48.269526</ele>
        <time>2022-12-19T15:40:13.379Z</time>
      </trkpt>
      <trkpt lat="46.24509" lon="-1.07238">
        <ele>48.352448</ele>
        <time>2022-12-19T15:40:16.377Z</time>
      </trkpt>
      <trkpt lat="46.24502" lon="-1.0725">
        <ele>48.436671</ele>
        <time>2022-12-19T15:40:19.378Z</time>
      </trkpt>
      <trkpt lat="46.24495" lon="-1.07262">
        <ele>48.519484</ele>
        <time>2022-12-19T15:40:22.358Z</time>
      </trkpt>
      <trkpt lat="46.24488" lon="-1.07274">
        <ele>48.604166</ele>
        <time>2022-12-19T15:40:25.380Z</time>
      </trkpt>
      <trkpt lat="46.24481" lon="-1.07288">
        <ele>48.695271</ele>
        <time>2022-12-19T15:40:28.376Z</time>
      </trkpt>
      <trkpt lat="46.24473" lon="-1.07301">
        <ele>48.783694</ele>
        <time>2022-12-19T15:40:31.377Z</time>
      </trkpt>
      <trkpt lat="46.24467" lon="-1.07313">
        <ele>48.866017</ele>
        <time>2022-12-19T15:40:34.376Z</time>
      </trkpt>
      <trkpt lat="46.24461" lon="-1.07327">
        <ele>48.950983</ele>
        <time>2022-12-19T15:40:37.389Z</time>
      </trkpt>
      <trkpt lat="46.24454" lon="-1.0734">
        <ele>49.039386</ele>
        <time>2022-12-19T15:40:40.378Z</time>
      </trkpt>
      <trkpt lat="46.24448" lon="-1.07355">
        <ele>49.131295</ele>
        <time>2022-12-19T15:40:43.377Z</time>
      </trkpt>
      <trkpt lat="46.24441" lon="-1.0737">
        <ele>49.227222</ele>
        <time>2022-12-19T15:40:46.379Z</time>
      </trkpt>
      <trkpt lat="46.24435" lon="-1.07386">
        <ele>49.324954</ele>
        <time>2022-12-19T15:40:49.379Z</time>
      </trkpt>
      <trkpt lat="46.24428" lon="-1.07402">
        <ele>49.423085</ele>
        <time>2022-12-19T15:40:52.376Z</time>
      </trkpt>
      <trkpt lat="46.24421" lon="-1.07418">
        <ele>49.495258</ele>
        <time>2022-12-19T15:40:55.378Z</time>
      </trkpt>
      <trkpt lat="46.24415" lon="-1.07434">
        <ele>49.555828</ele>
        <time>2022-12-19T15:40:58.379Z</time>
      </trkpt>
      <trkpt lat="46.24409" lon="-1.0745">
        <ele>49.614138</ele>
        <time>2022-12-19T15:41:01.376Z</time>
      </trkpt>
      <trkpt lat="46.24404" lon="-1.07466">
        <ele>49.671175</ele>
        <time>2022-12-19T15:41:04.379Z</time>
      </trkpt>
      <trkpt lat="46.24398" lon="-1.07481">
        <ele>49.726396</ele>
        <time>2022-12-19T15:41:07.377Z</time>
      </trkpt>
      <trkpt lat="46.24393" lon="-1.07497">
        <ele>49.784503</ele>
        <time>2022-12-19T15:41:10.379Z</time>
      </trkpt>
      <trkpt lat="46.24388" lon="-1.07514">
        <ele>49.843201</ele>
        <time>2022-12-19T15:41:13.383Z</time>
      </trkpt>
      <trkpt lat="46.24383" lon="-1.07531">
        <ele>49.902717</ele>
        <time>2022-12-19T15:41:16.378Z</time>
      </trkpt>
      <trkpt lat="46.24378" lon="-1.07548">
        <ele>49.964053</ele>
        <time>2022-12-19T15:41:19.380Z</time>
      </trkpt>
      <trkpt lat="46.24373" lon="-1.07564">
        <ele>50.021121</ele>
        <time>2022-12-19T15:41:22.377Z</time>
      </trkpt>
      <trkpt lat="46.24369" lon="-1.0758">
        <ele>50.07604</ele>
        <time>2022-12-19T15:41:25.367Z</time>
      </trkpt>
      <trkpt lat="46.24364" lon="-1.07595">
        <ele>50.128036</ele>
        <time>2022-12-19T15:41:28.378Z</time>
      </trkpt>
      <trkpt lat="46.2436" lon="-1.0761">
        <ele>50.179519</ele>
        <time>2022-12-19T15:41:31.381Z</time>
      </trkpt>
      <trkpt lat="46.24356" lon="-1.07626">
        <ele>50.236289</ele>
        <time>2022-12-19T15:41:34.366Z</time>
      </trkpt>
      <trkpt lat="46.24351" lon="-1.07643">
        <ele>50.296226</ele>
        <time>2022-12-19T15:41:37.378Z</time>
      </trkpt>
      <trkpt lat="46.24346" lon="-1.07662">
        <ele>50.255729</ele>
        <time>2022-12-19T15:41:40.378Z</time>
      </trkpt>
      <trkpt lat="46.24343" lon="-1.07675">
        <ele>50.227283</ele>
        <time>2022-12-19T15:41:42.381Z</time>
      </trkpt>
      <trkpt lat="46.24338" lon="-1.07692">
        <ele>50.188309</ele>
        <time>2022-12-19T15:41:45.376Z</time>
      </trkpt>
      <trkpt lat="46.24334" lon="-1.07709">
        <ele>50.151785</ele>
        <time>2022-12-19T15:41:48.356Z</time>
      </trkpt>
      <trkpt lat="46.2433" lon="-1.07725">
        <ele>50.116887</ele>
        <time>2022-12-19T15:41:51.381Z</time>
      </trkpt>
      <trkpt lat="46.24325" lon="-1.07741">
        <ele>50.080977</ele>
        <time>2022-12-19T15:41:54.377Z</time>
      </trkpt>
      <trkpt lat="46.24321" lon="-1.07757">
        <ele>50.044321</ele>
        <time>2022-12-19T15:41:57.385Z</time>
      </trkpt>
      <trkpt lat="46.24315" lon="-1.07774">
        <ele>50.006348</ele>
        <time>2022-12-19T15:42:00.370Z</time>
      </trkpt>
      <trkpt lat="46.2431" lon="-1.0779">
        <ele>49.969995</ele>
        <time>2022-12-19T15:42:03.380Z</time>
      </trkpt>
      <trkpt lat="46.24306" lon="-1.07806">
        <ele>49.934445</ele>
        <time>2022-12-19T15:42:06.375Z</time>
      </trkpt>
      <trkpt lat="46.24303" lon="-1.07822">
        <ele>49.900163</ele>
        <time>2022-12-19T15:42:09.382Z</time>
      </trkpt>
      <trkpt lat="46.24299" lon="-1.07837">
        <ele>49.866955</ele>
        <time>2022-12-19T15:42:12.379Z</time>
      </trkpt>
      <trkpt lat="46.24296" lon="-1.07852">
        <ele>49.833969</ele>
        <time>2022-12-19T15:42:15.359Z</time>
      </trkpt>
      <trkpt lat="46.24294" lon="-1.07867">
        <ele>49.802821</ele>
        <time>2022-12-19T15:42:18.384Z</time>
      </trkpt>
      <trkpt lat="46.24294" lon="-1.07882">
        <ele>49.770787</ele>
        <time>2022-12-19T15:42:21.380Z</time>
      </trkpt>
      <trkpt lat="46.24299" lon="-1.07898">
        <ele>49.707621</ele>
        <time>2022-12-19T15:42:24.366Z</time>
      </trkpt>
      <trkpt lat="46.24305" lon="-1.07914">
        <ele>49.625289</ele>
        <time>2022-12-19T15:42:27.387Z</time>
      </trkpt>
      <trkpt lat="46.24305" lon="-1.07933">
        <ele>49.543576</ele>
        <time>2022-12-19T15:42:30.359Z</time>
      </trkpt>
      <trkpt lat="46.243" lon="-1.07949">
        <ele>49.464237</ele>
        <time>2022-12-19T15:42:33.376Z</time>
      </trkpt>
      <trkpt lat="46.24291" lon="-1.07961">
        <ele>49.384772</ele>
        <time>2022-12-19T15:42:36.359Z</time>
      </trkpt>
      <trkpt lat="46.24281" lon="-1.07971">
        <ele>49.306264</ele>
        <time>2022-12-19T15:42:39.363Z</time>
      </trkpt>
      <trkpt lat="46.24272" lon="-1.07982">
        <ele>49.228299</ele>
        <time>2022-12-19T15:42:42.383Z</time>
      </trkpt>
      <trkpt lat="46.24265" lon="-1.07997">
        <ele>49.14914</ele>
        <time>2022-12-19T15:42:45.360Z</time>
      </trkpt>
      <trkpt lat="46.24261" lon="-1.08013">
        <ele>49.071302</ele>
        <time>2022-12-19T15:42:48.362Z</time>
      </trkpt>
      <trkpt lat="46.24258" lon="-1.08029">
        <ele>49.000741</ele>
        <time>2022-12-19T15:42:51.370Z</time>
      </trkpt>
      <trkpt lat="46.24257" lon="-1.08042">
        <ele>48.937491</ele>
        <time>2022-12-19T15:42:54.357Z</time>
      </trkpt>
      <trkpt lat="46.24254" lon="-1.08056">
        <ele>48.873643</ele>
        <time>2022-12-19T15:42:57.384Z</time>
      </trkpt>
      <trkpt lat="46.24251" lon="-1.08071">
        <ele>48.803898</ele>
        <time>2022-12-19T15:43:00.381Z</time>
      </trkpt>
      <trkpt lat="46.24249" lon="-1.08088">
        <ele>48.728761</ele>
        <time>2022-12-19T15:43:03.378Z</time>
      </trkpt>
      <trkpt lat="46.24247" lon="-1.08105">
        <ele>48.649244</ele>
        <time>2022-12-19T15:43:06.379Z</time>
      </trkpt>
      <trkpt lat="46.24244" lon="-1.08124">
        <ele>48.622248</ele>
        <time>2022-12-19T15:43:09.378Z</time>
      </trkpt>
      <trkpt lat="46.24241" lon="-1.08143">
        <ele>48.684461</ele>
        <time>2022-12-19T15:43:12.380Z</time>
      </trkpt>
      <trkpt lat="46.24239" lon="-1.0816">
        <ele>48.741301</ele>
        <time>2022-12-19T15:43:15.380Z</time>
      </trkpt>
      <trkpt lat="46.24236" lon="-1.08175">
        <ele>48.792708</ele>
        <time>2022-12-19T15:43:18.381Z</time>
      </trkpt>
      <trkpt lat="46.24235" lon="-1.0819">
        <ele>48.841192</ele>
        <time>2022-12-19T15:43:21.377Z</time>
      </trkpt>
      <trkpt lat="46.24233" lon="-1.08206">
        <ele>48.893876</ele>
        <time>2022-12-19T15:43:24.378Z</time>
      </trkpt>
      <trkpt lat="46.24231" lon="-1.08222">
        <ele>48.947933</ele>
        <time>2022-12-19T15:43:27.379Z</time>
      </trkpt>
      <trkpt lat="46.24229" lon="-1.08238">
        <ele>49.002996</ele>
        <time>2022-12-19T15:43:30.378Z</time>
      </trkpt>
      <trkpt lat="46.24227" lon="-1.08256">
        <ele>49.059238</ele>
        <time>2022-12-19T15:43:33.359Z</time>
      </trkpt>
      <trkpt lat="46.24226" lon="-1.08273">
        <ele>49.116294</ele>
        <time>2022-12-19T15:43:36.364Z</time>
      </trkpt>
      <trkpt lat="46.24224" lon="-1.08291">
        <ele>49.175895</ele>
        <time>2022-12-19T15:43:39.376Z</time>
      </trkpt>
      <trkpt lat="46.24223" lon="-1.08309">
        <ele>49.2357</ele>
        <time>2022-12-19T15:43:42.357Z</time>
      </trkpt>
      <trkpt lat="46.24221" lon="-1.08327">
        <ele>49.295504</ele>
        <time>2022-12-19T15:43:45.360Z</time>
      </trkpt>
      <trkpt lat="46.2422" lon="-1.08346">
        <ele>49.357432</ele>
        <time>2022-12-19T15:43:48.379Z</time>
      </trkpt>
      <trkpt lat="46.24218" lon="-1.08365">
        <ele>49.418003</ele>
        <time>2022-12-19T15:43:51.380Z</time>
      </trkpt>
      <trkpt lat="46.24216" lon="-1.08382">
        <ele>49.510642</ele>
        <time>2022-12-19T15:43:54.373Z</time>
      </trkpt>
      <trkpt lat="46.24215" lon="-1.08401">
        <ele>49.637657</ele>
        <time>2022-12-19T15:43:57.387Z</time>
      </trkpt>
      <trkpt lat="46.24214" lon="-1.08419">
        <ele>49.767537</ele>
        <time>2022-12-19T15:44:00.379Z</time>
      </trkpt>
      <trkpt lat="46.24212" lon="-1.08438">
        <ele>49.901202</ele>
        <time>2022-12-19T15:44:03.381Z</time>
      </trkpt>
      <trkpt lat="46.2421" lon="-1.08458">
        <ele>50.036246</ele>
        <time>2022-12-19T15:44:06.378Z</time>
      </trkpt>
      <trkpt lat="46.24209" lon="-1.08471">
        <ele>50.127501</ele>
        <time>2022-12-19T15:44:08.375Z</time>
      </trkpt>
      <trkpt lat="46.24208" lon="-1.0849">
        <ele>50.26312</ele>
        <time>2022-12-19T15:44:11.378Z</time>
      </trkpt>
      <trkpt lat="46.24206" lon="-1.08509">
        <ele>50.394288</ele>
        <time>2022-12-19T15:44:14.374Z</time>
      </trkpt>
      <trkpt lat="46.24205" lon="-1.08526">
        <ele>50.516896</ele>
        <time>2022-12-19T15:44:17.380Z</time>
      </trkpt>
      <trkpt lat="46.24204" lon="-1.08543">
        <ele>50.634456</ele>
        <time>2022-12-19T15:44:20.375Z</time>
      </trkpt>
      <trkpt lat="46.24202" lon="-1.08561">
        <ele>50.758227</ele>
        <time>2022-12-19T15:44:23.378Z</time>
      </trkpt>
      <trkpt lat="46.242" lon="-1.0858">
        <ele>50.890374</ele>
        <time>2022-12-19T15:44:26.357Z</time>
      </trkpt>
      <trkpt lat="46.24199" lon="-1.08593">
        <ele>50.983432</ele>
        <time>2022-12-19T15:44:28.379Z</time>
      </trkpt>
      <trkpt lat="46.24198" lon="-1.08606">
        <ele>51.074891</ele>
        <time>2022-12-19T15:44:30.378Z</time>
      </trkpt>
      <trkpt lat="46.24197" lon="-1.08619">
        <ele>51.168356</ele>
        <time>2022-12-19T15:44:32.365Z</time>
      </trkpt>
      <trkpt lat="46.24195" lon="-1.08639">
        <ele>51.233765</ele>
        <time>2022-12-19T15:44:35.377Z</time>
      </trkpt>
      <trkpt lat="46.24194" lon="-1.08658">
        <ele>51.181728</ele>
        <time>2022-12-19T15:44:38.376Z</time>
      </trkpt>
      <trkpt lat="46.24192" lon="-1.08677">
        <ele>51.131632</ele>
        <time>2022-12-19T15:44:41.375Z</time>
      </trkpt>
      <trkpt lat="46.2419" lon="-1.08694">
        <ele>51.082882</ele>
        <time>2022-12-19T15:44:44.373Z</time>
      </trkpt>
      <trkpt lat="46.24188" lon="-1.08711">
        <ele>51.037963</ele>
        <time>2022-12-19T15:44:47.360Z</time>
      </trkpt>
      <trkpt lat="46.24187" lon="-1.08726">
        <ele>50.996628</ele>
        <time>2022-12-19T15:44:50.380Z</time>
      </trkpt>
      <trkpt lat="46.24185" lon="-1.08743">
        <ele>50.950986</ele>
        <time>2022-12-19T15:44:53.370Z</time>
      </trkpt>
      <trkpt lat="46.24184" lon="-1.08761">
        <ele>50.901924</ele>
        <time>2022-12-19T15:44:56.381Z</time>
      </trkpt>
      <trkpt lat="46.24182" lon="-1.0878">
        <ele>50.850551</ele>
        <time>2022-12-19T15:44:59.362Z</time>
      </trkpt>
      <trkpt lat="46.2418" lon="-1.08799">
        <ele>50.798861</ele>
        <time>2022-12-19T15:45:02.376Z</time>
      </trkpt>
      <trkpt lat="46.24179" lon="-1.08818">
        <ele>50.748234</ele>
        <time>2022-12-19T15:45:05.376Z</time>
      </trkpt>
      <trkpt lat="46.24177" lon="-1.08837">
        <ele>50.697872</ele>
        <time>2022-12-19T15:45:08.381Z</time>
      </trkpt>
      <trkpt lat="46.24175" lon="-1.08856">
        <ele>50.646277</ele>
        <time>2022-12-19T15:45:11.379Z</time>
      </trkpt>
      <trkpt lat="46.24174" lon="-1.08869">
        <ele>50.610212</ele>
        <time>2022-12-19T15:45:13.383Z</time>
      </trkpt>
      <trkpt lat="46.24172" lon="-1.08882">
        <ele>50.574471</ele>
        <time>2022-12-19T15:45:15.385Z</time>
      </trkpt>
      <trkpt lat="46.24171" lon="-1.08896">
        <ele>50.522292</ele>
        <time>2022-12-19T15:45:17.357Z</time>
      </trkpt>
      <trkpt lat="46.24171" lon="-1.0891">
        <ele>50.45222</ele>
        <time>2022-12-19T15:45:19.354Z</time>
      </trkpt>
      <trkpt lat="46.24169" lon="-1.08923">
        <ele>50.384946</ele>
        <time>2022-12-19T15:45:21.380Z</time>
      </trkpt>
      <trkpt lat="46.24168" lon="-1.08941">
        <ele>50.291518</ele>
        <time>2022-12-19T15:45:24.377Z</time>
      </trkpt>
      <trkpt lat="46.24167" lon="-1.08958">
        <ele>50.207824</ele>
        <time>2022-12-19T15:45:27.353Z</time>
      </trkpt>
      <trkpt lat="46.24166" lon="-1.08974">
        <ele>50.125023</ele>
        <time>2022-12-19T15:45:30.377Z</time>
      </trkpt>
      <trkpt lat="46.24164" lon="-1.08991">
        <ele>50.037502</ele>
        <time>2022-12-19T15:45:33.375Z</time>
      </trkpt>
      <trkpt lat="46.24162" lon="-1.09009">
        <ele>49.944474</ele>
        <time>2022-12-19T15:45:36.378Z</time>
      </trkpt>
      <trkpt lat="46.24161" lon="-1.09028">
        <ele>49.848036</ele>
        <time>2022-12-19T15:45:39.377Z</time>
      </trkpt>
      <trkpt lat="46.24159" lon="-1.09041">
        <ele>49.782175</ele>
        <time>2022-12-19T15:45:41.363Z</time>
      </trkpt>
      <trkpt lat="46.24157" lon="-1.0906">
        <ele>49.684316</ele>
        <time>2022-12-19T15:45:44.354Z</time>
      </trkpt>
      <trkpt lat="46.24156" lon="-1.09079">
        <ele>49.588785</ele>
        <time>2022-12-19T15:45:47.379Z</time>
      </trkpt>
      <trkpt lat="46.24155" lon="-1.09092">
        <ele>49.519817</ele>
        <time>2022-12-19T15:45:49.373Z</time>
      </trkpt>
      <trkpt lat="46.24153" lon="-1.09106">
        <ele>49.449242</ele>
        <time>2022-12-19T15:45:51.376Z</time>
      </trkpt>
      <trkpt lat="46.24152" lon="-1.0912">
        <ele>49.378269</ele>
        <time>2022-12-19T15:45:53.377Z</time>
      </trkpt>
      <trkpt lat="46.24151" lon="-1.09134">
        <ele>49.309066</ele>
        <time>2022-12-19T15:45:55.379Z</time>
      </trkpt>
      <trkpt lat="46.24149" lon="-1.09153">
        <ele>49.245181</ele>
        <time>2022-12-19T15:45:58.372Z</time>
      </trkpt>
      <trkpt lat="46.24148" lon="-1.09166">
        <ele>49.256722</ele>
        <time>2022-12-19T15:46:00.377Z</time>
      </trkpt>
      <trkpt lat="46.24147" lon="-1.0918">
        <ele>49.26865</ele>
        <time>2022-12-19T15:46:02.358Z</time>
      </trkpt>
      <trkpt lat="46.24146" lon="-1.09199">
        <ele>49.285155</ele>
        <time>2022-12-19T15:46:05.362Z</time>
      </trkpt>
      <trkpt lat="46.24144" lon="-1.09218">
        <ele>49.302002</ele>
        <time>2022-12-19T15:46:08.379Z</time>
      </trkpt>
      <trkpt lat="46.24142" lon="-1.09237">
        <ele>49.319004</ele>
        <time>2022-12-19T15:46:11.377Z</time>
      </trkpt>
      <trkpt lat="46.2414" lon="-1.09255">
        <ele>49.334485</ele>
        <time>2022-12-19T15:46:14.381Z</time>
      </trkpt>
      <trkpt lat="46.24138" lon="-1.09271">
        <ele>49.348709</ele>
        <time>2022-12-19T15:46:17.361Z</time>
      </trkpt>
      <trkpt lat="46.24137" lon="-1.09285">
        <ele>49.36169</ele>
        <time>2022-12-19T15:46:20.359Z</time>
      </trkpt>
      <trkpt lat="46.24136" lon="-1.09301">
        <ele>49.374932</ele>
        <time>2022-12-19T15:46:23.378Z</time>
      </trkpt>
      <trkpt lat="46.24135" lon="-1.09316">
        <ele>49.388668</ele>
        <time>2022-12-19T15:46:26.360Z</time>
      </trkpt>
      <trkpt lat="46.24133" lon="-1.09332">
        <ele>49.403084</ele>
        <time>2022-12-19T15:46:29.376Z</time>
      </trkpt>
      <trkpt lat="46.24132" lon="-1.0935">
        <ele>49.418161</ele>
        <time>2022-12-19T15:46:32.361Z</time>
      </trkpt>
      <trkpt lat="46.2413" lon="-1.09367">
        <ele>49.433487</ele>
        <time>2022-12-19T15:46:35.381Z</time>
      </trkpt>
      <trkpt lat="46.24128" lon="-1.09385">
        <ele>49.449003</ele>
        <time>2022-12-19T15:46:38.380Z</time>
      </trkpt>
      <trkpt lat="46.24126" lon="-1.09403">
        <ele>49.46483</ele>
        <time>2022-12-19T15:46:41.380Z</time>
      </trkpt>
      <trkpt lat="46.24125" lon="-1.09421">
        <ele>49.519778</ele>
        <time>2022-12-19T15:46:44.380Z</time>
      </trkpt>
      <trkpt lat="46.24123" lon="-1.09434">
        <ele>49.562675</ele>
        <time>2022-12-19T15:46:46.378Z</time>
      </trkpt>
      <trkpt lat="46.24122" lon="-1.09452">
        <ele>49.624474</ele>
        <time>2022-12-19T15:46:49.378Z</time>
      </trkpt>
      <trkpt lat="46.2412" lon="-1.09471">
        <ele>49.685692</ele>
        <time>2022-12-19T15:46:52.387Z</time>
      </trkpt>
      <trkpt lat="46.24119" lon="-1.09488">
        <ele>49.743608</ele>
        <time>2022-12-19T15:46:55.378Z</time>
      </trkpt>
      <trkpt lat="46.24117" lon="-1.09506">
        <ele>49.803326</ele>
        <time>2022-12-19T15:46:58.376Z</time>
      </trkpt>
      <trkpt lat="46.24116" lon="-1.09525">
        <ele>49.864085</ele>
        <time>2022-12-19T15:47:01.357Z</time>
      </trkpt>
      <trkpt lat="46.24114" lon="-1.09544">
        <ele>49.926864</ele>
        <time>2022-12-19T15:47:04.377Z</time>
      </trkpt>
      <trkpt lat="46.24112" lon="-1.09563">
        <ele>49.990233</ele>
        <time>2022-12-19T15:47:07.379Z</time>
      </trkpt>
      <trkpt lat="46.2411" lon="-1.09582">
        <ele>50.053012</ele>
        <time>2022-12-19T15:47:10.377Z</time>
      </trkpt>
      <trkpt lat="46.24108" lon="-1.096">
        <ele>50.115277</ele>
        <time>2022-12-19T15:47:13.380Z</time>
      </trkpt>
      <trkpt lat="46.24107" lon="-1.09619">
        <ele>50.17832</ele>
        <time>2022-12-19T15:47:16.369Z</time>
      </trkpt>
      <trkpt lat="46.24106" lon="-1.09633">
        <ele>50.22267</ele>
        <time>2022-12-19T15:47:18.379Z</time>
      </trkpt>
      <trkpt lat="46.24104" lon="-1.09646">
        <ele>50.26687</ele>
        <time>2022-12-19T15:47:20.380Z</time>
      </trkpt>
      <trkpt lat="46.24103" lon="-1.09665">
        <ele>50.314097</ele>
        <time>2022-12-19T15:47:23.378Z</time>
      </trkpt>
      <trkpt lat="46.24101" lon="-1.09681">
        <ele>50.249207</ele>
        <time>2022-12-19T15:47:26.380Z</time>
      </trkpt>
      <trkpt lat="46.241" lon="-1.09699">
        <ele>50.182774</ele>
        <time>2022-12-19T15:47:29.362Z</time>
      </trkpt>
      <trkpt lat="46.24098" lon="-1.09717">
        <ele>50.111633</ele>
        <time>2022-12-19T15:47:32.379Z</time>
      </trkpt>
      <trkpt lat="46.24096" lon="-1.09735">
        <ele>50.038496</ele>
        <time>2022-12-19T15:47:35.378Z</time>
      </trkpt>
      <trkpt lat="46.24095" lon="-1.09748">
        <ele>49.988006</ele>
        <time>2022-12-19T15:47:37.374Z</time>
      </trkpt>
      <trkpt lat="46.24093" lon="-1.09761">
        <ele>49.937238</ele>
        <time>2022-12-19T15:47:39.378Z</time>
      </trkpt>
      <trkpt lat="46.24092" lon="-1.09775">
        <ele>49.883975</ele>
        <time>2022-12-19T15:47:41.379Z</time>
      </trkpt>
      <trkpt lat="46.2409" lon="-1.09788">
        <ele>49.831746</ele>
        <time>2022-12-19T15:47:43.380Z</time>
      </trkpt>
      <trkpt lat="46.24088" lon="-1.09801">
        <ele>49.779517</ele>
        <time>2022-12-19T15:47:45.380Z</time>
      </trkpt>
      <trkpt lat="46.24085" lon="-1.0982">
        <ele>49.705737</ele>
        <time>2022-12-19T15:47:48.378Z</time>
      </trkpt>
      <trkpt lat="46.24083" lon="-1.09834">
        <ele>49.65074</ele>
        <time>2022-12-19T15:47:50.378Z</time>
      </trkpt>
      <trkpt lat="46.24081" lon="-1.09853">
        <ele>49.575601</ele>
        <time>2022-12-19T15:47:53.379Z</time>
      </trkpt>
      <trkpt lat="46.24079" lon="-1.09866">
        <ele>49.525214</ele>
        <time>2022-12-19T15:47:55.379Z</time>
      </trkpt>
      <trkpt lat="46.24076" lon="-1.09884">
        <ele>49.453866</ele>
        <time>2022-12-19T15:47:58.375Z</time>
      </trkpt>
      <trkpt lat="46.24074" lon="-1.09901">
        <ele>49.385543</ele>
        <time>2022-12-19T15:48:01.382Z</time>
      </trkpt>
      <trkpt lat="46.24072" lon="-1.09917">
        <ele>49.320453</ele>
        <time>2022-12-19T15:48:04.380Z</time>
      </trkpt>
      <trkpt lat="46.2407" lon="-1.09934">
        <ele>49.330396</ele>
        <time>2022-12-19T15:48:07.381Z</time>
      </trkpt>
      <trkpt lat="46.24068" lon="-1.09951">
        <ele>49.346382</ele>
        <time>2022-12-19T15:48:10.381Z</time>
      </trkpt>
      <trkpt lat="46.24066" lon="-1.09967">
        <ele>49.362014</ele>
        <time>2022-12-19T15:48:13.379Z</time>
      </trkpt>
      <trkpt lat="46.24064" lon="-1.09983">
        <ele>49.377159</ele>
        <time>2022-12-19T15:48:16.379Z</time>
      </trkpt>
      <trkpt lat="46.24062" lon="-1.09997">
        <ele>49.390691</ele>
        <time>2022-12-19T15:48:19.377Z</time>
      </trkpt>
      <trkpt lat="46.2406" lon="-1.10012">
        <ele>49.405065</ele>
        <time>2022-12-19T15:48:22.378Z</time>
      </trkpt>
      <trkpt lat="46.24058" lon="-1.10028">
        <ele>49.420091</ele>
        <time>2022-12-19T15:48:25.378Z</time>
      </trkpt>
      <trkpt lat="46.24057" lon="-1.10044">
        <ele>49.435349</ele>
        <time>2022-12-19T15:48:28.377Z</time>
      </trkpt>
      <trkpt lat="46.24055" lon="-1.1006">
        <ele>49.450724</ele>
        <time>2022-12-19T15:48:31.378Z</time>
      </trkpt>
      <trkpt lat="46.24052" lon="-1.10076">
        <ele>49.466293</ele>
        <time>2022-12-19T15:48:34.379Z</time>
      </trkpt>
      <trkpt lat="46.24051" lon="-1.10091">
        <ele>49.481303</ele>
        <time>2022-12-19T15:48:37.377Z</time>
      </trkpt>
      <trkpt lat="46.24049" lon="-1.10106">
        <ele>49.495302</ele>
        <time>2022-12-19T15:48:40.376Z</time>
      </trkpt>
      <trkpt lat="46.24047" lon="-1.10121">
        <ele>49.509796</ele>
        <time>2022-12-19T15:48:43.384Z</time>
      </trkpt>
      <trkpt lat="46.24045" lon="-1.10137">
        <ele>49.525406</ele>
        <time>2022-12-19T15:48:46.395Z</time>
      </trkpt>
      <trkpt lat="46.24043" lon="-1.10154">
        <ele>49.541341</ele>
        <time>2022-12-19T15:48:49.379Z</time>
      </trkpt>
      <trkpt lat="46.24041" lon="-1.1017">
        <ele>49.557281</ele>
        <time>2022-12-19T15:48:52.375Z</time>
      </trkpt>
      <trkpt lat="46.24039" lon="-1.10186">
        <ele>49.64287</ele>
        <time>2022-12-19T15:48:55.378Z</time>
      </trkpt>
      <trkpt lat="46.24037" lon="-1.102">
        <ele>49.741504</ele>
        <time>2022-12-19T15:48:58.362Z</time>
      </trkpt>
      <trkpt lat="46.24035" lon="-1.10218">
        <ele>49.86301</ele>
        <time>2022-12-19T15:49:02.380Z</time>
      </trkpt>
      <trkpt lat="46.24033" lon="-1.10233">
        <ele>49.966895</ele>
        <time>2022-12-19T15:49:05.380Z</time>
      </trkpt>
      <trkpt lat="46.24031" lon="-1.10248">
        <ele>50.072808</ele>
        <time>2022-12-19T15:49:08.379Z</time>
      </trkpt>
      <trkpt lat="46.24029" lon="-1.10264">
        <ele>50.182964</ele>
        <time>2022-12-19T15:49:11.384Z</time>
      </trkpt>
      <trkpt lat="46.24027" lon="-1.1028">
        <ele>50.296168</ele>
        <time>2022-12-19T15:49:14.377Z</time>
      </trkpt>
      <trkpt lat="46.24025" lon="-1.10296">
        <ele>50.40836</ele>
        <time>2022-12-19T15:49:17.384Z</time>
      </trkpt>
      <trkpt lat="46.24023" lon="-1.10312">
        <ele>50.52021</ele>
        <time>2022-12-19T15:49:20.380Z</time>
      </trkpt>
      <trkpt lat="46.24021" lon="-1.10327">
        <ele>50.629477</ele>
        <time>2022-12-19T15:49:23.365Z</time>
      </trkpt>
      <trkpt lat="46.24019" lon="-1.10343">
        <ele>50.74257</ele>
        <time>2022-12-19T15:49:26.380Z</time>
      </trkpt>
      <trkpt lat="46.24017" lon="-1.1036">
        <ele>50.855097</ele>
        <time>2022-12-19T15:49:29.364Z</time>
      </trkpt>
      <trkpt lat="46.24014" lon="-1.10375">
        <ele>50.967267</ele>
        <time>2022-12-19T15:49:32.377Z</time>
      </trkpt>
      <trkpt lat="46.24013" lon="-1.10391">
        <ele>51.076436</ele>
        <time>2022-12-19T15:49:35.378Z</time>
      </trkpt>
      <trkpt lat="46.24012" lon="-1.10405">
        <ele>51.172573</ele>
        <time>2022-12-19T15:49:38.358Z</time>
      </trkpt>
      <trkpt lat="46.24009" lon="-1.10421">
        <ele>51.282732</ele>
        <time>2022-12-19T15:49:42.361Z</time>
      </trkpt>
      <trkpt lat="46.24008" lon="-1.10434">
        <ele>51.387114</ele>
        <time>2022-12-19T15:49:45.357Z</time>
      </trkpt>
      <trkpt lat="46.24005" lon="-1.10447">
        <ele>51.534087</ele>
        <time>2022-12-19T15:49:48.377Z</time>
      </trkpt>
      <trkpt lat="46.24003" lon="-1.10462">
        <ele>51.684601</ele>
        <time>2022-12-19T15:49:51.360Z</time>
      </trkpt>
      <trkpt lat="46.24002" lon="-1.10477">
        <ele>51.848064</ele>
        <time>2022-12-19T15:49:54.361Z</time>
      </trkpt>
      <trkpt lat="46.23999" lon="-1.10492">
        <ele>52.01226</ele>
        <time>2022-12-19T15:49:57.376Z</time>
      </trkpt>
      <trkpt lat="46.23998" lon="-1.10508">
        <ele>52.179039</ele>
        <time>2022-12-19T15:50:00.362Z</time>
      </trkpt>
      <trkpt lat="46.23996" lon="-1.10524">
        <ele>52.340885</ele>
        <time>2022-12-19T15:50:03.380Z</time>
      </trkpt>
      <trkpt lat="46.23994" lon="-1.10539">
        <ele>52.50221</ele>
        <time>2022-12-19T15:50:06.380Z</time>
      </trkpt>
      <trkpt lat="46.23992" lon="-1.10554">
        <ele>52.665424</ele>
        <time>2022-12-19T15:50:09.377Z</time>
      </trkpt>
      <trkpt lat="46.2399" lon="-1.10569">
        <ele>52.829077</ele>
        <time>2022-12-19T15:50:12.359Z</time>
      </trkpt>
      <trkpt lat="46.23988" lon="-1.10583">
        <ele>52.975748</ele>
        <time>2022-12-19T15:50:15.387Z</time>
      </trkpt>
      <trkpt lat="46.23987" lon="-1.10597">
        <ele>53.116743</ele>
        <time>2022-12-19T15:50:18.378Z</time>
      </trkpt>
      <trkpt lat="46.23984" lon="-1.10611">
        <ele>53.268727</ele>
        <time>2022-12-19T15:50:21.358Z</time>
      </trkpt>
      <trkpt lat="46.23982" lon="-1.10626">
        <ele>53.427157</ele>
        <time>2022-12-19T15:50:24.381Z</time>
      </trkpt>
      <trkpt lat="46.2398" lon="-1.10641">
        <ele>53.593623</ele>
        <time>2022-12-19T15:50:27.359Z</time>
      </trkpt>
      <trkpt lat="46.23979" lon="-1.10657">
        <ele>53.758565</ele>
        <time>2022-12-19T15:50:30.380Z</time>
      </trkpt>
      <trkpt lat="46.23977" lon="-1.10672">
        <ele>53.924271</ele>
        <time>2022-12-19T15:50:33.386Z</time>
      </trkpt>
      <trkpt lat="46.23975" lon="-1.10688">
        <ele>54.071304</ele>
        <time>2022-12-19T15:50:36.389Z</time>
      </trkpt>
      <trkpt lat="46.23973" lon="-1.10704">
        <ele>54.105499</ele>
        <time>2022-12-19T15:50:39.357Z</time>
      </trkpt>
      <trkpt lat="46.23971" lon="-1.10719">
        <ele>54.138922</ele>
        <time>2022-12-19T15:50:42.382Z</time>
      </trkpt>
      <trkpt lat="46.23968" lon="-1.10734">
        <ele>54.17172</ele>
        <time>2022-12-19T15:50:45.381Z</time>
      </trkpt>
      <trkpt lat="46.23966" lon="-1.1075">
        <ele>54.20586</ele>
        <time>2022-12-19T15:50:48.360Z</time>
      </trkpt>
      <trkpt lat="46.23965" lon="-1.10766">
        <ele>54.239685</ele>
        <time>2022-12-19T15:50:51.380Z</time>
      </trkpt>
      <trkpt lat="46.23962" lon="-1.10781">
        <ele>54.273658</ele>
        <time>2022-12-19T15:50:54.378Z</time>
      </trkpt>
      <trkpt lat="46.2396" lon="-1.10795">
        <ele>54.303769</ele>
        <time>2022-12-19T15:50:57.357Z</time>
      </trkpt>
      <trkpt lat="46.23958" lon="-1.10809">
        <ele>54.333113</ele>
        <time>2022-12-19T15:51:00.378Z</time>
      </trkpt>
      <trkpt lat="46.23956" lon="-1.10823">
        <ele>54.363007</ele>
        <time>2022-12-19T15:51:03.366Z</time>
      </trkpt>
      <trkpt lat="46.23955" lon="-1.10837">
        <ele>54.393555</ele>
        <time>2022-12-19T15:51:06.359Z</time>
      </trkpt>
      <trkpt lat="46.23953" lon="-1.10852">
        <ele>54.42519</ele>
        <time>2022-12-19T15:51:09.369Z</time>
      </trkpt>
      <trkpt lat="46.23951" lon="-1.10867">
        <ele>54.45819</ele>
        <time>2022-12-19T15:51:12.375Z</time>
      </trkpt>
      <trkpt lat="46.23948" lon="-1.10881">
        <ele>54.490803</ele>
        <time>2022-12-19T15:51:15.359Z</time>
      </trkpt>
      <trkpt lat="46.23946" lon="-1.10896">
        <ele>54.523006</ele>
        <time>2022-12-19T15:51:18.360Z</time>
      </trkpt>
      <trkpt lat="46.23944" lon="-1.10911">
        <ele>54.555266</ele>
        <time>2022-12-19T15:51:21.362Z</time>
      </trkpt>
      <trkpt lat="46.23942" lon="-1.10926">
        <ele>54.58806</ele>
        <time>2022-12-19T15:51:24.375Z</time>
      </trkpt>
      <trkpt lat="46.23939" lon="-1.10941">
        <ele>54.625804</ele>
        <time>2022-12-19T15:51:27.383Z</time>
      </trkpt>
      <trkpt lat="46.23937" lon="-1.10955">
        <ele>54.729339</ele>
        <time>2022-12-19T15:51:30.366Z</time>
      </trkpt>
      <trkpt lat="46.23934" lon="-1.10969">
        <ele>54.834174</ele>
        <time>2022-12-19T15:51:33.375Z</time>
      </trkpt>
      <trkpt lat="46.23931" lon="-1.10984">
        <ele>54.941439</ele>
        <time>2022-12-19T15:51:36.382Z</time>
      </trkpt>
      <trkpt lat="46.23928" lon="-1.10997">
        <ele>55.044385</ele>
        <time>2022-12-19T15:51:39.358Z</time>
      </trkpt>
      <trkpt lat="46.23925" lon="-1.11014">
        <ele>55.165893</ele>
        <time>2022-12-19T15:51:43.381Z</time>
      </trkpt>
      <trkpt lat="46.23922" lon="-1.11027">
        <ele>55.262259</ele>
        <time>2022-12-19T15:51:46.378Z</time>
      </trkpt>
      <trkpt lat="46.23919" lon="-1.11041">
        <ele>55.369116</ele>
        <time>2022-12-19T15:51:49.378Z</time>
      </trkpt>
      <trkpt lat="46.23915" lon="-1.11055">
        <ele>55.480378</ele>
        <time>2022-12-19T15:51:52.378Z</time>
      </trkpt>
      <trkpt lat="46.23911" lon="-1.1107">
        <ele>55.594017</ele>
        <time>2022-12-19T15:51:55.378Z</time>
      </trkpt>
      <trkpt lat="46.23908" lon="-1.11085">
        <ele>55.710025</ele>
        <time>2022-12-19T15:51:58.379Z</time>
      </trkpt>
      <trkpt lat="46.23904" lon="-1.11101">
        <ele>55.828069</ele>
        <time>2022-12-19T15:52:01.381Z</time>
      </trkpt>
      <trkpt lat="46.239" lon="-1.11116">
        <ele>55.943098</ele>
        <time>2022-12-19T15:52:04.378Z</time>
      </trkpt>
      <trkpt lat="46.23896" lon="-1.11131">
        <ele>56.057827</ele>
        <time>2022-12-19T15:52:07.380Z</time>
      </trkpt>
      <trkpt lat="46.23893" lon="-1.11144">
        <ele>56.156628</ele>
        <time>2022-12-19T15:52:10.384Z</time>
      </trkpt>
      <trkpt lat="46.23889" lon="-1.11157">
        <ele>56.261916</ele>
        <time>2022-12-19T15:52:14.380Z</time>
      </trkpt>
      <trkpt lat="46.23884" lon="-1.11173">
        <ele>56.384479</ele>
        <time>2022-12-19T15:52:18.379Z</time>
      </trkpt>
      <trkpt lat="46.2388" lon="-1.11186">
        <ele>56.485387</ele>
        <time>2022-12-19T15:52:21.378Z</time>
      </trkpt>
      <trkpt lat="46.23876" lon="-1.11199">
        <ele>56.665529</ele>
        <time>2022-12-19T15:52:24.379Z</time>
      </trkpt>
      <trkpt lat="46.23872" lon="-1.11211">
        <ele>56.84085</ele>
        <time>2022-12-19T15:52:27.380Z</time>
      </trkpt>
      <trkpt lat="46.23869" lon="-1.11224">
        <ele>57.018537</ele>
        <time>2022-12-19T15:52:30.381Z</time>
      </trkpt>
      <trkpt lat="46.23865" lon="-1.11238">
        <ele>57.204714</ele>
        <time>2022-12-19T15:52:33.359Z</time>
      </trkpt>
      <trkpt lat="46.23861" lon="-1.11251">
        <ele>57.389241</ele>
        <time>2022-12-19T15:52:36.380Z</time>
      </trkpt>
      <trkpt lat="46.23857" lon="-1.11264">
        <ele>57.567169</ele>
        <time>2022-12-19T15:52:39.378Z</time>
      </trkpt>
      <trkpt lat="46.23854" lon="-1.11277">
        <ele>57.746555</ele>
        <time>2022-12-19T15:52:42.383Z</time>
      </trkpt>
      <trkpt lat="46.2385" lon="-1.1129">
        <ele>57.925427</ele>
        <time>2022-12-19T15:52:45.375Z</time>
      </trkpt>
      <trkpt lat="46.23846" lon="-1.11302">
        <ele>58.101359</ele>
        <time>2022-12-19T15:52:48.380Z</time>
      </trkpt>
      <trkpt lat="46.23843" lon="-1.11315">
        <ele>58.272266</ele>
        <time>2022-12-19T15:52:51.380Z</time>
      </trkpt>
      <trkpt lat="46.2384" lon="-1.11327">
        <ele>58.441326</ele>
        <time>2022-12-19T15:52:54.374Z</time>
      </trkpt>
      <trkpt lat="46.23836" lon="-1.11343">
        <ele>58.650919</ele>
        <time>2022-12-19T15:52:58.381Z</time>
      </trkpt>
      <trkpt lat="46.23833" lon="-1.11355">
        <ele>58.820545</ele>
        <time>2022-12-19T15:53:01.381Z</time>
      </trkpt>
      <trkpt lat="46.23829" lon="-1.11368">
        <ele>58.999931</ele>
        <time>2022-12-19T15:53:04.380Z</time>
      </trkpt>
      <trkpt lat="46.23825" lon="-1.11382">
        <ele>59.1871</ele>
        <time>2022-12-19T15:53:07.377Z</time>
      </trkpt>
      <trkpt lat="46.23821" lon="-1.11395">
        <ele>59.374968</ele>
        <time>2022-12-19T15:53:10.376Z</time>
      </trkpt>
      <trkpt lat="46.23817" lon="-1.11409">
        <ele>59.564475</ele>
        <time>2022-12-19T15:53:13.389Z</time>
      </trkpt>
      <trkpt lat="46.23814" lon="-1.11423">
        <ele>59.7504</ele>
        <time>2022-12-19T15:53:16.380Z</time>
      </trkpt>
      <trkpt lat="46.2381" lon="-1.11436">
        <ele>59.874696</ele>
        <time>2022-12-19T15:53:19.368Z</time>
      </trkpt>
      <trkpt lat="46.23806" lon="-1.1145">
        <ele>59.972953</ele>
        <time>2022-12-19T15:53:22.367Z</time>
      </trkpt>
      <trkpt lat="46.23802" lon="-1.11463">
        <ele>60.06618</ele>
        <time>2022-12-19T15:53:25.382Z</time>
      </trkpt>
      <trkpt lat="46.23799" lon="-1.11476">
        <ele>60.158652</ele>
        <time>2022-12-19T15:53:29.359Z</time>
      </trkpt>
      <trkpt lat="46.23794" lon="-1.11489">
        <ele>60.253469</ele>
        <time>2022-12-19T15:53:33.358Z</time>
      </trkpt>
      <trkpt lat="46.2379" lon="-1.11505">
        <ele>60.364101</ele>
        <time>2022-12-19T15:53:37.374Z</time>
      </trkpt>
      <trkpt lat="46.23786" lon="-1.11517">
        <ele>60.451202</ele>
        <time>2022-12-19T15:53:40.379Z</time>
      </trkpt>
      <trkpt lat="46.23783" lon="-1.1153">
        <ele>60.540018</ele>
        <time>2022-12-19T15:53:43.376Z</time>
      </trkpt>
      <trkpt lat="46.2378" lon="-1.11543">
        <ele>60.632238</ele>
        <time>2022-12-19T15:53:46.379Z</time>
      </trkpt>
      <trkpt lat="46.23776" lon="-1.11556">
        <ele>60.72409</ele>
        <time>2022-12-19T15:53:49.383Z</time>
      </trkpt>
      <trkpt lat="46.23772" lon="-1.11569">
        <ele>60.81971</ele>
        <time>2022-12-19T15:53:52.379Z</time>
      </trkpt>
      <trkpt lat="46.23768" lon="-1.11583">
        <ele>60.916031</ele>
        <time>2022-12-19T15:53:55.363Z</time>
      </trkpt>
      <trkpt lat="46.23765" lon="-1.11596">
        <ele>61.010169</ele>
        <time>2022-12-19T15:53:58.380Z</time>
      </trkpt>
      <trkpt lat="46.23761" lon="-1.1161">
        <ele>61.106613</ele>
        <time>2022-12-19T15:54:01.380Z</time>
      </trkpt>
      <trkpt lat="46.23757" lon="-1.11623">
        <ele>61.204266</ele>
        <time>2022-12-19T15:54:04.378Z</time>
      </trkpt>
      <trkpt lat="46.23753" lon="-1.11637">
        <ele>61.298404</ele>
        <time>2022-12-19T15:54:07.379Z</time>
      </trkpt>
      <trkpt lat="46.23749" lon="-1.1165">
        <ele>61.391326</ele>
        <time>2022-12-19T15:54:10.366Z</time>
      </trkpt>
      <trkpt lat="46.23745" lon="-1.11664">
        <ele>61.49019</ele>
        <time>2022-12-19T15:54:13.380Z</time>
      </trkpt>
      <trkpt lat="46.23741" lon="-1.11678">
        <ele>61.694823</ele>
        <time>2022-12-19T15:54:16.379Z</time>
      </trkpt>
      <trkpt lat="46.23737" lon="-1.11692">
        <ele>61.929031</ele>
        <time>2022-12-19T15:54:19.380Z</time>
      </trkpt>
      <trkpt lat="46.23733" lon="-1.11705">
        <ele>62.162345</ele>
        <time>2022-12-19T15:54:22.364Z</time>
      </trkpt>
      <trkpt lat="46.23729" lon="-1.11719">
        <ele>62.397087</ele>
        <time>2022-12-19T15:54:25.377Z</time>
      </trkpt>
      <trkpt lat="46.23725" lon="-1.11733">
        <ele>62.625792</ele>
        <time>2022-12-19T15:54:28.374Z</time>
      </trkpt>
      <trkpt lat="46.23722" lon="-1.11746">
        <ele>62.845287</ele>
        <time>2022-12-19T15:54:31.381Z</time>
      </trkpt>
      <trkpt lat="46.23718" lon="-1.1176">
        <ele>63.071125</ele>
        <time>2022-12-19T15:54:34.379Z</time>
      </trkpt>
      <trkpt lat="46.23714" lon="-1.11773">
        <ele>63.298787</ele>
        <time>2022-12-19T15:54:37.376Z</time>
      </trkpt>
      <trkpt lat="46.2371" lon="-1.11787">
        <ele>63.53496</ele>
        <time>2022-12-19T15:54:40.379Z</time>
      </trkpt>
      <trkpt lat="46.23706" lon="-1.11801">
        <ele>63.771132</ele>
        <time>2022-12-19T15:54:43.379Z</time>
      </trkpt>
      <trkpt lat="46.23702" lon="-1.11815">
        <ele>64.008599</ele>
        <time>2022-12-19T15:54:46.380Z</time>
      </trkpt>
      <trkpt lat="46.23698" lon="-1.11828">
        <ele>64.218087</ele>
        <time>2022-12-19T15:54:49.378Z</time>
      </trkpt>
      <trkpt lat="46.23694" lon="-1.11844">
        <ele>64.477997</ele>
        <time>2022-12-19T15:54:53.378Z</time>
      </trkpt>
      <trkpt lat="46.2369" lon="-1.11856">
        <ele>64.687264</ele>
        <time>2022-12-19T15:54:56.363Z</time>
      </trkpt>
      <trkpt lat="46.23687" lon="-1.11869">
        <ele>64.901915</ele>
        <time>2022-12-19T15:54:59.370Z</time>
      </trkpt>
      <trkpt lat="46.23683" lon="-1.11882">
        <ele>65.123466</ele>
        <time>2022-12-19T15:55:02.368Z</time>
      </trkpt>
      <trkpt lat="46.23679" lon="-1.11895">
        <ele>65.344719</ele>
        <time>2022-12-19T15:55:05.377Z</time>
      </trkpt>
      <trkpt lat="46.23675" lon="-1.11908">
        <ele>65.557989</ele>
        <time>2022-12-19T15:55:08.358Z</time>
      </trkpt>
      <trkpt lat="46.23672" lon="-1.11921">
        <ele>65.632202</ele>
        <time>2022-12-19T15:55:11.378Z</time>
      </trkpt>
      <trkpt lat="46.23668" lon="-1.11935">
        <ele>65.708145</ele>
        <time>2022-12-19T15:55:14.368Z</time>
      </trkpt>
      <trkpt lat="46.23665" lon="-1.11949">
        <ele>65.785064</ele>
        <time>2022-12-19T15:55:17.378Z</time>
      </trkpt>
      <trkpt lat="46.23661" lon="-1.11962">
        <ele>65.86031</ele>
        <time>2022-12-19T15:55:20.355Z</time>
      </trkpt>
      <trkpt lat="46.23657" lon="-1.11975">
        <ele>65.93499</ele>
        <time>2022-12-19T15:55:23.380Z</time>
      </trkpt>
      <trkpt lat="46.23653" lon="-1.11988">
        <ele>66.00734</ele>
        <time>2022-12-19T15:55:26.358Z</time>
      </trkpt>
      <trkpt lat="46.2365" lon="-1.12">
        <ele>66.076813</ele>
        <time>2022-12-19T15:55:29.357Z</time>
      </trkpt>
      <trkpt lat="46.23646" lon="-1.12013">
        <ele>66.148329</ele>
        <time>2022-12-19T15:55:32.365Z</time>
      </trkpt>
      <trkpt lat="46.23641" lon="-1.12026">
        <ele>66.224277</ele>
        <time>2022-12-19T15:55:35.376Z</time>
      </trkpt>
      <trkpt lat="46.23637" lon="-1.12038">
        <ele>66.297692</ele>
        <time>2022-12-19T15:55:38.372Z</time>
      </trkpt>
      <trkpt lat="46.23632" lon="-1.1205">
        <ele>66.369085</ele>
        <time>2022-12-19T15:55:41.367Z</time>
      </trkpt>
      <trkpt lat="46.23627" lon="-1.12063">
        <ele>66.443564</ele>
        <time>2022-12-19T15:55:44.379Z</time>
      </trkpt>
      <trkpt lat="46.23622" lon="-1.12075">
        <ele>66.519983</ele>
        <time>2022-12-19T15:55:47.362Z</time>
      </trkpt>
      <trkpt lat="46.23617" lon="-1.12087">
        <ele>66.596402</ele>
        <time>2022-12-19T15:55:50.368Z</time>
      </trkpt>
      <trkpt lat="46.23612" lon="-1.12098">
        <ele>66.664613</ele>
        <time>2022-12-19T15:55:53.363Z</time>
      </trkpt>
      <trkpt lat="46.23606" lon="-1.1211">
        <ele>66.737101</ele>
        <time>2022-12-19T15:55:57.375Z</time>
      </trkpt>
      <trkpt lat="46.236" lon="-1.12122">
        <ele>66.817466</ele>
        <time>2022-12-19T15:56:01.379Z</time>
      </trkpt>
      <trkpt lat="46.23594" lon="-1.12133">
        <ele>66.887901</ele>
        <time>2022-12-19T15:56:04.379Z</time>
      </trkpt>
      <trkpt lat="46.23588" lon="-1.12143">
        <ele>66.853038</ele>
        <time>2022-12-19T15:56:07.378Z</time>
      </trkpt>
      <trkpt lat="46.23582" lon="-1.12153">
        <ele>66.76684</ele>
        <time>2022-12-19T15:56:10.378Z</time>
      </trkpt>
      <trkpt lat="46.23575" lon="-1.12163">
        <ele>66.679821</ele>
        <time>2022-12-19T15:56:13.379Z</time>
      </trkpt>
      <trkpt lat="46.23568" lon="-1.12173">
        <ele>66.590067</ele>
        <time>2022-12-19T15:56:16.379Z</time>
      </trkpt>
      <trkpt lat="46.23561" lon="-1.12184">
        <ele>66.497554</ele>
        <time>2022-12-19T15:56:19.370Z</time>
      </trkpt>
      <trkpt lat="46.23554" lon="-1.12193">
        <ele>66.405455</ele>
        <time>2022-12-19T15:56:22.384Z</time>
      </trkpt>
      <trkpt lat="46.23546" lon="-1.12203">
        <ele>66.313374</ele>
        <time>2022-12-19T15:56:25.358Z</time>
      </trkpt>
      <trkpt lat="46.23537" lon="-1.12214">
        <ele>66.204997</ele>
        <time>2022-12-19T15:56:29.371Z</time>
      </trkpt>
      <trkpt lat="46.2353" lon="-1.12223">
        <ele>66.116749</ele>
        <time>2022-12-19T15:56:32.380Z</time>
      </trkpt>
      <trkpt lat="46.23521" lon="-1.12231">
        <ele>66.018436</ele>
        <time>2022-12-19T15:56:35.372Z</time>
      </trkpt>
      <trkpt lat="46.23512" lon="-1.12241">
        <ele>65.916826</ele>
        <time>2022-12-19T15:56:38.365Z</time>
      </trkpt>
      <trkpt lat="46.23503" lon="-1.1225">
        <ele>65.81551</ele>
        <time>2022-12-19T15:56:41.358Z</time>
      </trkpt>
      <trkpt lat="46.23493" lon="-1.12259">
        <ele>65.710572</ele>
        <time>2022-12-19T15:56:44.380Z</time>
      </trkpt>
      <trkpt lat="46.23484" lon="-1.12267">
        <ele>65.607449</ele>
        <time>2022-12-19T15:56:47.359Z</time>
      </trkpt>
      <trkpt lat="46.23474" lon="-1.12274">
        <ele>65.509339</ele>
        <time>2022-12-19T15:56:50.380Z</time>
      </trkpt>
      <trkpt lat="46.23464" lon="-1.12281">
        <ele>65.408198</ele>
        <time>2022-12-19T15:56:53.382Z</time>
      </trkpt>
      <trkpt lat="46.23454" lon="-1.12288">
        <ele>65.305641</ele>
        <time>2022-12-19T15:56:56.363Z</time>
      </trkpt>
      <trkpt lat="46.23444" lon="-1.12295">
        <ele>65.209543</ele>
        <time>2022-12-19T15:56:59.360Z</time>
      </trkpt>
      <trkpt lat="46.23434" lon="-1.123">
        <ele>65.129758</ele>
        <time>2022-12-19T15:57:02.367Z</time>
      </trkpt>
      <trkpt lat="46.23423" lon="-1.12306">
        <ele>65.037217</ele>
        <time>2022-12-19T15:57:06.380Z</time>
      </trkpt>
      <trkpt lat="46.23415" lon="-1.1231">
        <ele>64.963652</ele>
        <time>2022-12-19T15:57:09.384Z</time>
      </trkpt>
      <trkpt lat="46.23405" lon="-1.12314">
        <ele>64.882244</ele>
        <time>2022-12-19T15:57:12.374Z</time>
      </trkpt>
      <trkpt lat="46.23394" lon="-1.12319">
        <ele>64.792001</ele>
        <time>2022-12-19T15:57:15.377Z</time>
      </trkpt>
      <trkpt lat="46.23383" lon="-1.12323">
        <ele>64.700636</ele>
        <time>2022-12-19T15:57:18.378Z</time>
      </trkpt>
      <trkpt lat="46.23371" lon="-1.12327">
        <ele>64.605294</ele>
        <time>2022-12-19T15:57:21.378Z</time>
      </trkpt>
      <trkpt lat="46.23359" lon="-1.1233">
        <ele>64.510783</ele>
        <time>2022-12-19T15:57:24.377Z</time>
      </trkpt>
      <trkpt lat="46.23347" lon="-1.12334">
        <ele>64.413495</ele>
        <time>2022-12-19T15:57:27.379Z</time>
      </trkpt>
      <trkpt lat="46.23335" lon="-1.12337">
        <ele>64.312864</ele>
        <time>2022-12-19T15:57:30.366Z</time>
      </trkpt>
      <trkpt lat="46.23322" lon="-1.12341">
        <ele>64.210155</ele>
        <time>2022-12-19T15:57:33.367Z</time>
      </trkpt>
      <trkpt lat="46.23309" lon="-1.12344">
        <ele>64.104066</ele>
        <time>2022-12-19T15:57:36.369Z</time>
      </trkpt>
      <trkpt lat="46.233" lon="-1.12347">
        <ele>64.032465</ele>
        <time>2022-12-19T15:57:38.355Z</time>
      </trkpt>
      <trkpt lat="46.23287" lon="-1.12351">
        <ele>63.927498</ele>
        <time>2022-12-19T15:57:41.378Z</time>
      </trkpt>
      <trkpt lat="46.23276" lon="-1.12356">
        <ele>63.834729</ele>
        <time>2022-12-19T15:57:44.363Z</time>
      </trkpt>
      <trkpt lat="46.23266" lon="-1.12361">
        <ele>63.739822</ele>
        <time>2022-12-19T15:57:47.361Z</time>
      </trkpt>
      <trkpt lat="46.23258" lon="-1.12366">
        <ele>63.654692</ele>
        <time>2022-12-19T15:57:50.361Z</time>
      </trkpt>
      <trkpt lat="46.2325" lon="-1.12373">
        <ele>63.568879</ele>
        <time>2022-12-19T15:57:53.370Z</time>
      </trkpt>
      <trkpt lat="46.23244" lon="-1.12383">
        <ele>63.483946</ele>
        <time>2022-12-19T15:57:56.357Z</time>
      </trkpt>
      <trkpt lat="46.23241" lon="-1.12396">
        <ele>63.395022</ele>
        <time>2022-12-19T15:57:59.364Z</time>
      </trkpt>
      <trkpt lat="46.23237" lon="-1.12409">
        <ele>63.300595</ele>
        <time>2022-12-19T15:58:02.379Z</time>
      </trkpt>
      <trkpt lat="46.23228" lon="-1.12419">
        <ele>63.201968</ele>
        <time>2022-12-19T15:58:05.362Z</time>
      </trkpt>
      <trkpt lat="46.23218" lon="-1.12423">
        <ele>63.10674</ele>
        <time>2022-12-19T15:58:08.374Z</time>
      </trkpt>
      <trkpt lat="46.23208" lon="-1.12422">
        <ele>63.005918</ele>
        <time>2022-12-19T15:58:12.378Z</time>
      </trkpt>
      <trkpt lat="46.23199" lon="-1.12415">
        <ele>62.913853</ele>
        <time>2022-12-19T15:58:16.379Z</time>
      </trkpt>
      <trkpt lat="46.23191" lon="-1.12409">
        <ele>62.827719</ele>
        <time>2022-12-19T15:58:19.378Z</time>
      </trkpt>
      <trkpt lat="46.23182" lon="-1.12402">
        <ele>62.734453</ele>
        <time>2022-12-19T15:58:22.383Z</time>
      </trkpt>
      <trkpt lat="46.23172" lon="-1.12398">
        <ele>62.637541</ele>
        <time>2022-12-19T15:58:25.368Z</time>
      </trkpt>
      <trkpt lat="46.23161" lon="-1.12398">
        <ele>62.534122</ele>
        <time>2022-12-19T15:58:28.358Z</time>
      </trkpt>
      <trkpt lat="46.23151" lon="-1.12399">
        <ele>62.440879</ele>
        <time>2022-12-19T15:58:31.377Z</time>
      </trkpt>
      <trkpt lat="46.2314" lon="-1.124">
        <ele>62.342801</ele>
        <time>2022-12-19T15:58:34.380Z</time>
      </trkpt>
      <trkpt lat="46.2313" lon="-1.124">
        <ele>62.249558</ele>
        <time>2022-12-19T15:58:37.377Z</time>
      </trkpt>
      <trkpt lat="46.2312" lon="-1.12401">
        <ele>62.165385</ele>
        <time>2022-12-19T15:58:40.381Z</time>
      </trkpt>
      <trkpt lat="46.2311" lon="-1.12402">
        <ele>62.236586</ele>
        <time>2022-12-19T15:58:43.379Z</time>
      </trkpt>
      <trkpt lat="46.23101" lon="-1.12403">
        <ele>62.300819</ele>
        <time>2022-12-19T15:58:46.364Z</time>
      </trkpt>
      <trkpt lat="46.23091" lon="-1.12406">
        <ele>62.371557</ele>
        <time>2022-12-19T15:58:50.379Z</time>
      </trkpt>
      <trkpt lat="46.23081" lon="-1.12407">
        <ele>62.435789</ele>
        <time>2022-12-19T15:58:54.379Z</time>
      </trkpt>
      <trkpt lat="46.2308" lon="-1.12406">
        <ele>62.446029</ele>
        <time>2022-12-19T16:00:52.643Z</time>
      </trkpt>
      <trkpt lat="46.23087" lon="-1.12395">
        <ele>62.5171</ele>
        <time>2022-12-19T16:11:39.379Z</time>
      </trkpt>
      <trkpt lat="46.23096" lon="-1.12395">
        <ele>62.582479</ele>
        <time>2022-12-19T16:11:42.370Z</time>
      </trkpt>
      <trkpt lat="46.23106" lon="-1.12395">
        <ele>62.649971</ele>
        <time>2022-12-19T16:11:45.377Z</time>
      </trkpt>
      <trkpt lat="46.23117" lon="-1.12393">
        <ele>62.722805</ele>
        <time>2022-12-19T16:11:48.385Z</time>
      </trkpt>
      <trkpt lat="46.23128" lon="-1.12391">
        <ele>62.799838</ele>
        <time>2022-12-19T16:11:51.377Z</time>
      </trkpt>
      <trkpt lat="46.23139" lon="-1.12389">
        <ele>62.879122</ele>
        <time>2022-12-19T16:11:54.375Z</time>
      </trkpt>
      <trkpt lat="46.2315" lon="-1.12386">
        <ele>62.957925</ele>
        <time>2022-12-19T16:11:57.372Z</time>
      </trkpt>
      <trkpt lat="46.2316" lon="-1.12383">
        <ele>63.031763</ele>
        <time>2022-12-19T16:12:00.371Z</time>
      </trkpt>
      <trkpt lat="46.2317" lon="-1.12381">
        <ele>63.101046</ele>
        <time>2022-12-19T16:12:03.374Z</time>
      </trkpt>
      <trkpt lat="46.23179" lon="-1.12377">
        <ele>63.165576</ele>
        <time>2022-12-19T16:12:06.373Z</time>
      </trkpt>
      <trkpt lat="46.23187" lon="-1.12368">
        <ele>63.237502</ele>
        <time>2022-12-19T16:12:09.366Z</time>
      </trkpt>
      <trkpt lat="46.23195" lon="-1.12355">
        <ele>63.316941</ele>
        <time>2022-12-19T16:12:12.380Z</time>
      </trkpt>
      <trkpt lat="46.23204" lon="-1.12346">
        <ele>63.395002</ele>
        <time>2022-12-19T16:12:15.378Z</time>
      </trkpt>
      <trkpt lat="46.23214" lon="-1.12343">
        <ele>63.402868</ele>
        <time>2022-12-19T16:12:18.362Z</time>
      </trkpt>
      <trkpt lat="46.23224" lon="-1.12346">
        <ele>63.392112</ele>
        <time>2022-12-19T16:12:21.375Z</time>
      </trkpt>
      <trkpt lat="46.23234" lon="-1.12355">
        <ele>63.380102</ele>
        <time>2022-12-19T16:12:24.376Z</time>
      </trkpt>
      <trkpt lat="46.2324" lon="-1.12369">
        <ele>63.367816</ele>
        <time>2022-12-19T16:12:27.383Z</time>
      </trkpt>
      <trkpt lat="46.23241" lon="-1.12386">
        <ele>63.35516</ele>
        <time>2022-12-19T16:12:30.366Z</time>
      </trkpt>
      <trkpt lat="46.23238" lon="-1.12403">
        <ele>63.342657</ele>
        <time>2022-12-19T16:12:33.374Z</time>
      </trkpt>
      <trkpt lat="46.2323" lon="-1.12413">
        <ele>63.331383</ele>
        <time>2022-12-19T16:12:36.371Z</time>
      </trkpt>
      <trkpt lat="46.23222" lon="-1.12422">
        <ele>63.321224</ele>
        <time>2022-12-19T16:12:39.371Z</time>
      </trkpt>
      <trkpt lat="46.23214" lon="-1.12431">
        <ele>63.310465</ele>
        <time>2022-12-19T16:12:42.370Z</time>
      </trkpt>
      <trkpt lat="46.23209" lon="-1.12446">
        <ele>63.298485</ele>
        <time>2022-12-19T16:12:45.368Z</time>
      </trkpt>
      <trkpt lat="46.23206" lon="-1.12462">
        <ele>63.285791</ele>
        <time>2022-12-19T16:12:48.366Z</time>
      </trkpt>
      <trkpt lat="46.23204" lon="-1.12479">
        <ele>63.273478</ele>
        <time>2022-12-19T16:12:51.385Z</time>
      </trkpt>
      <trkpt lat="46.23202" lon="-1.12496">
        <ele>63.260916</ele>
        <time>2022-12-19T16:12:54.374Z</time>
      </trkpt>
      <trkpt lat="46.232" lon="-1.12513">
        <ele>63.24812</ele>
        <time>2022-12-19T16:12:57.386Z</time>
      </trkpt>
      <trkpt lat="46.23197" lon="-1.12531">
        <ele>63.234987</ele>
        <time>2022-12-19T16:13:00.375Z</time>
      </trkpt>
      <trkpt lat="46.23194" lon="-1.12549">
        <ele>63.221755</ele>
        <time>2022-12-19T16:13:03.389Z</time>
      </trkpt>
      <trkpt lat="46.23192" lon="-1.12565">
        <ele>63.237995</ele>
        <time>2022-12-19T16:13:06.386Z</time>
      </trkpt>
      <trkpt lat="46.23191" lon="-1.12582">
        <ele>63.254011</ele>
        <time>2022-12-19T16:13:09.374Z</time>
      </trkpt>
      <trkpt lat="46.23192" lon="-1.12599">
        <ele>63.270622</ele>
        <time>2022-12-19T16:13:12.370Z</time>
      </trkpt>
      <trkpt lat="46.23193" lon="-1.12616">
        <ele>63.287705</ele>
        <time>2022-12-19T16:13:15.392Z</time>
      </trkpt>
      <trkpt lat="46.23195" lon="-1.12634">
        <ele>63.305186</ele>
        <time>2022-12-19T16:13:18.388Z</time>
      </trkpt>
      <trkpt lat="46.23197" lon="-1.12653">
        <ele>63.323498</ele>
        <time>2022-12-19T16:13:21.397Z</time>
      </trkpt>
      <trkpt lat="46.23199" lon="-1.12671">
        <ele>63.341929</ele>
        <time>2022-12-19T16:13:24.372Z</time>
      </trkpt>
      <trkpt lat="46.23201" lon="-1.12689">
        <ele>63.359761</ele>
        <time>2022-12-19T16:13:27.373Z</time>
      </trkpt>
      <trkpt lat="46.23203" lon="-1.12706">
        <ele>63.376514</ele>
        <time>2022-12-19T16:13:30.370Z</time>
      </trkpt>
      <trkpt lat="46.23205" lon="-1.12723">
        <ele>63.393012</ele>
        <time>2022-12-19T16:13:33.377Z</time>
      </trkpt>
      <trkpt lat="46.23207" lon="-1.12738">
        <ele>63.407439</ele>
        <time>2022-12-19T16:13:36.385Z</time>
      </trkpt>
      <trkpt lat="46.23208" lon="-1.12755">
        <ele>63.424674</ele>
        <time>2022-12-19T16:13:40.373Z</time>
      </trkpt>
      <trkpt lat="46.2321" lon="-1.12771">
        <ele>63.440422</ele>
        <time>2022-12-19T16:13:43.372Z</time>
      </trkpt>
      <trkpt lat="46.23212" lon="-1.12787">
        <ele>63.45624</ele>
        <time>2022-12-19T16:13:46.373Z</time>
      </trkpt>
      <trkpt lat="46.23216" lon="-1.12803">
        <ele>63.472192</ele>
        <time>2022-12-19T16:13:49.378Z</time>
      </trkpt>
      <trkpt lat="46.23221" lon="-1.12817">
        <ele>63.512929</ele>
        <time>2022-12-19T16:13:52.379Z</time>
      </trkpt>
      <trkpt lat="46.23225" lon="-1.12832">
        <ele>63.561858</ele>
        <time>2022-12-19T16:13:55.375Z</time>
      </trkpt>
      <trkpt lat="46.23228" lon="-1.12848">
        <ele>63.611655</ele>
        <time>2022-12-19T16:13:58.374Z</time>
      </trkpt>
      <trkpt lat="46.2323" lon="-1.12863">
        <ele>63.658129</ele>
        <time>2022-12-19T16:14:01.360Z</time>
      </trkpt>
      <trkpt lat="46.23232" lon="-1.12878">
        <ele>63.70306</ele>
        <time>2022-12-19T16:14:04.374Z</time>
      </trkpt>
      <trkpt lat="46.23234" lon="-1.12892">
        <ele>63.7468</ele>
        <time>2022-12-19T16:14:07.373Z</time>
      </trkpt>
      <trkpt lat="46.23235" lon="-1.12907">
        <ele>63.790013</ele>
        <time>2022-12-19T16:14:10.382Z</time>
      </trkpt>
      <trkpt lat="46.23238" lon="-1.12923">
        <ele>63.838176</ele>
        <time>2022-12-19T16:14:13.363Z</time>
      </trkpt>
      <trkpt lat="46.23241" lon="-1.12939">
        <ele>63.886339</ele>
        <time>2022-12-19T16:14:16.369Z</time>
      </trkpt>
      <trkpt lat="46.23242" lon="-1.12955">
        <ele>63.934408</ele>
        <time>2022-12-19T16:14:19.374Z</time>
      </trkpt>
      <trkpt lat="46.23243" lon="-1.1297">
        <ele>63.979729</ele>
        <time>2022-12-19T16:14:22.375Z</time>
      </trkpt>
      <trkpt lat="46.2324" lon="-1.12985">
        <ele>64.028233</ele>
        <time>2022-12-19T16:14:26.364Z</time>
      </trkpt>
      <trkpt lat="46.23231" lon="-1.12988">
        <ele>64.067046</ele>
        <time>2022-12-19T16:14:29.368Z</time>
      </trkpt>
      <trkpt lat="46.23221" lon="-1.1299">
        <ele>64.107737</ele>
        <time>2022-12-19T16:14:32.377Z</time>
      </trkpt>
      <trkpt lat="46.23212" lon="-1.1299">
        <ele>64.147205</ele>
        <time>2022-12-19T16:14:35.367Z</time>
      </trkpt>
      <trkpt lat="46.23203" lon="-1.12992">
        <ele>64.18857</ele>
        <time>2022-12-19T16:14:38.363Z</time>
      </trkpt>
      <trkpt lat="46.23194" lon="-1.12996">
        <ele>64.228615</ele>
        <time>2022-12-19T16:14:41.375Z</time>
      </trkpt>
      <trkpt lat="46.23183" lon="-1.13">
        <ele>64.216958</ele>
        <time>2022-12-19T16:14:45.362Z</time>
      </trkpt>
      <trkpt lat="46.23171" lon="-1.13004">
        <ele>64.172471</ele>
        <time>2022-12-19T16:14:49.368Z</time>
      </trkpt>
      <trkpt lat="46.23161" lon="-1.13011">
        <ele>64.128034</ele>
        <time>2022-12-19T16:14:53.368Z</time>
      </trkpt>
      <trkpt lat="46.23151" lon="-1.13018">
        <ele>64.084946</ele>
        <time>2022-12-19T16:14:57.376Z</time>
      </trkpt>
      <trkpt lat="46.23142" lon="-1.13028">
        <ele>64.041461</ele>
        <time>2022-12-19T16:15:01.368Z</time>
      </trkpt>
      <trkpt lat="46.23133" lon="-1.13037">
        <ele>63.999177</ele>
        <time>2022-12-19T16:15:05.369Z</time>
      </trkpt>
      <trkpt lat="46.23124" lon="-1.13046">
        <ele>63.957214</ele>
        <time>2022-12-19T16:15:09.383Z</time>
      </trkpt>
      <trkpt lat="46.23113" lon="-1.13051">
        <ele>63.913316</ele>
        <time>2022-12-19T16:15:13.368Z</time>
      </trkpt>
      <trkpt lat="46.23102" lon="-1.13054">
        <ele>63.870913</ele>
        <time>2022-12-19T16:15:17.384Z</time>
      </trkpt>
      <trkpt lat="46.23091" lon="-1.13056">
        <ele>63.826144</ele>
        <time>2022-12-19T16:15:21.373Z</time>
      </trkpt>
      <trkpt lat="46.2308" lon="-1.1306">
        <ele>63.785448</ele>
        <time>2022-12-19T16:15:24.376Z</time>
      </trkpt>
      <trkpt lat="46.23069" lon="-1.13064">
        <ele>63.741478</ele>
        <time>2022-12-19T16:15:27.369Z</time>
      </trkpt>
      <trkpt lat="46.23059" lon="-1.13069">
        <ele>63.698542</ele>
        <time>2022-12-19T16:15:30.371Z</time>
      </trkpt>
      <trkpt lat="46.23048" lon="-1.13074">
        <ele>63.656309</ele>
        <time>2022-12-19T16:15:33.367Z</time>
      </trkpt>
      <trkpt lat="46.23039" lon="-1.1308">
        <ele>63.618018</ele>
        <time>2022-12-19T16:15:36.373Z</time>
      </trkpt>
      <trkpt lat="46.23029" lon="-1.13086">
        <ele>63.576575</ele>
        <time>2022-12-19T16:15:39.373Z</time>
      </trkpt>
      <trkpt lat="46.23019" lon="-1.13091">
        <ele>63.500496</ele>
        <time>2022-12-19T16:15:42.370Z</time>
      </trkpt>
      <trkpt lat="46.23009" lon="-1.13097">
        <ele>63.377712</ele>
        <time>2022-12-19T16:15:45.370Z</time>
      </trkpt>
      <trkpt lat="46.22999" lon="-1.13101">
        <ele>63.263237</ele>
        <time>2022-12-19T16:15:48.377Z</time>
      </trkpt>
      <trkpt lat="46.22987" lon="-1.13105">
        <ele>63.131186</ele>
        <time>2022-12-19T16:15:52.390Z</time>
      </trkpt>
      <trkpt lat="46.22976" lon="-1.13112">
        <ele>62.998887</ele>
        <time>2022-12-19T16:15:56.363Z</time>
      </trkpt>
      <trkpt lat="46.22972" lon="-1.13123">
        <ele>62.898725</ele>
        <time>2022-12-19T16:15:59.362Z</time>
      </trkpt>
      <trkpt lat="46.22969" lon="-1.1314">
        <ele>62.766287</ele>
        <time>2022-12-19T16:16:03.373Z</time>
      </trkpt>
      <trkpt lat="46.22968" lon="-1.13155">
        <ele>62.644192</ele>
        <time>2022-12-19T16:16:07.372Z</time>
      </trkpt>
      <trkpt lat="46.22968" lon="-1.13169">
        <ele>62.543083</ele>
        <time>2022-12-19T16:16:10.368Z</time>
      </trkpt>
      <trkpt lat="46.22967" lon="-1.13183">
        <ele>62.428662</ele>
        <time>2022-12-19T16:16:13.368Z</time>
      </trkpt>
      <trkpt lat="46.22966" lon="-1.13198">
        <ele>62.317971</ele>
        <time>2022-12-19T16:16:16.363Z</time>
      </trkpt>
      <trkpt lat="46.22964" lon="-1.13211">
        <ele>62.211148</ele>
        <time>2022-12-19T16:16:19.376Z</time>
      </trkpt>
      <trkpt lat="46.22962" lon="-1.13227">
        <ele>62.08627</ele>
        <time>2022-12-19T16:16:22.374Z</time>
      </trkpt>
      <trkpt lat="46.22956" lon="-1.13242">
        <ele>61.95271</ele>
        <time>2022-12-19T16:16:25.383Z</time>
      </trkpt>
      <trkpt lat="46.22951" lon="-1.13253">
        <ele>61.848202</ele>
        <time>2022-12-19T16:16:27.387Z</time>
      </trkpt>
      <trkpt lat="46.22946" lon="-1.13265">
        <ele>61.7411</ele>
        <time>2022-12-19T16:16:29.384Z</time>
      </trkpt>
      <trkpt lat="46.2294" lon="-1.13278">
        <ele>61.626441</ele>
        <time>2022-12-19T16:16:31.370Z</time>
      </trkpt>
      <trkpt lat="46.22934" lon="-1.13291">
        <ele>61.415882</ele>
        <time>2022-12-19T16:16:33.376Z</time>
      </trkpt>
      <trkpt lat="46.22928" lon="-1.13304">
        <ele>61.062732</ele>
        <time>2022-12-19T16:16:35.371Z</time>
      </trkpt>
      <trkpt lat="46.22922" lon="-1.13317">
        <ele>60.698406</ele>
        <time>2022-12-19T16:16:37.377Z</time>
      </trkpt>
      <trkpt lat="46.22917" lon="-1.13332">
        <ele>60.33577</ele>
        <time>2022-12-19T16:16:39.376Z</time>
      </trkpt>
      <trkpt lat="46.22912" lon="-1.13344">
        <ele>60.001656</ele>
        <time>2022-12-19T16:16:41.373Z</time>
      </trkpt>
      <trkpt lat="46.22907" lon="-1.13356">
        <ele>59.673609</ele>
        <time>2022-12-19T16:16:43.372Z</time>
      </trkpt>
      <trkpt lat="46.22903" lon="-1.13368">
        <ele>59.375949</ele>
        <time>2022-12-19T16:16:45.372Z</time>
      </trkpt>
      <trkpt lat="46.22897" lon="-1.13384">
        <ele>58.970862</ele>
        <time>2022-12-19T16:16:48.383Z</time>
      </trkpt>
      <trkpt lat="46.22892" lon="-1.13395">
        <ele>58.658514</ele>
        <time>2022-12-19T16:16:51.386Z</time>
      </trkpt>
      <trkpt lat="46.22885" lon="-1.1341">
        <ele>58.275498</ele>
        <time>2022-12-19T16:16:55.372Z</time>
      </trkpt>
      <trkpt lat="46.22879" lon="-1.13423">
        <ele>57.907806</ele>
        <time>2022-12-19T16:16:58.372Z</time>
      </trkpt>
      <trkpt lat="46.22871" lon="-1.13436">
        <ele>57.513814</ele>
        <time>2022-12-19T16:17:01.380Z</time>
      </trkpt>
      <trkpt lat="46.22862" lon="-1.13448">
        <ele>57.105756</ele>
        <time>2022-12-19T16:17:04.372Z</time>
      </trkpt>
      <trkpt lat="46.22853" lon="-1.1346">
        <ele>56.706473</ele>
        <time>2022-12-19T16:17:07.373Z</time>
      </trkpt>
      <trkpt lat="46.22845" lon="-1.13471">
        <ele>56.343126</ele>
        <time>2022-12-19T16:17:10.708Z</time>
      </trkpt>
      <trkpt lat="46.22837" lon="-1.13482">
        <ele>55.980104</ele>
        <time>2022-12-19T16:17:13.366Z</time>
      </trkpt>
      <trkpt lat="46.22827" lon="-1.13495">
        <ele>55.619754</ele>
        <time>2022-12-19T16:17:16.384Z</time>
      </trkpt>
      <trkpt lat="46.22818" lon="-1.13508">
        <ele>55.487622</ele>
        <time>2022-12-19T16:17:19.372Z</time>
      </trkpt>
      <trkpt lat="46.22809" lon="-1.13519">
        <ele>55.368459</ele>
        <time>2022-12-19T16:17:22.377Z</time>
      </trkpt>
      <trkpt lat="46.228" lon="-1.13528">
        <ele>55.257117</ele>
        <time>2022-12-19T16:17:25.389Z</time>
      </trkpt>
      <trkpt lat="46.22793" lon="-1.13539">
        <ele>55.150514</ele>
        <time>2022-12-19T16:17:28.377Z</time>
      </trkpt>
      <trkpt lat="46.22784" lon="-1.13549">
        <ele>55.035477</ele>
        <time>2022-12-19T16:17:31.369Z</time>
      </trkpt>
      <trkpt lat="46.22773" lon="-1.13559">
        <ele>54.910173</ele>
        <time>2022-12-19T16:17:34.375Z</time>
      </trkpt>
      <trkpt lat="46.22763" lon="-1.13569">
        <ele>54.78444</ele>
        <time>2022-12-19T16:17:37.378Z</time>
      </trkpt>
      <trkpt lat="46.22753" lon="-1.1358">
        <ele>54.659547</ele>
        <time>2022-12-19T16:17:40.386Z</time>
      </trkpt>
      <trkpt lat="46.22744" lon="-1.1359">
        <ele>54.538359</ele>
        <time>2022-12-19T16:17:43.367Z</time>
      </trkpt>
      <trkpt lat="46.22734" lon="-1.13599">
        <ele>54.419048</ele>
        <time>2022-12-19T16:17:46.374Z</time>
      </trkpt>
      <trkpt lat="46.22725" lon="-1.13608">
        <ele>54.313865</ele>
        <time>2022-12-19T16:17:49.371Z</time>
      </trkpt>
      <trkpt lat="46.22717" lon="-1.13616">
        <ele>54.210815</ele>
        <time>2022-12-19T16:17:52.369Z</time>
      </trkpt>
      <trkpt lat="46.22707" lon="-1.13623">
        <ele>54.101416</ele>
        <time>2022-12-19T16:17:55.373Z</time>
      </trkpt>
      <trkpt lat="46.22697" lon="-1.13631">
        <ele>53.986438</ele>
        <time>2022-12-19T16:17:58.382Z</time>
      </trkpt>
      <trkpt lat="46.22687" lon="-1.13639">
        <ele>53.86489</ele>
        <time>2022-12-19T16:18:01.372Z</time>
      </trkpt>
      <trkpt lat="46.22676" lon="-1.13648">
        <ele>53.761804</ele>
        <time>2022-12-19T16:18:04.388Z</time>
      </trkpt>
      <trkpt lat="46.22664" lon="-1.13655">
        <ele>53.670327</ele>
        <time>2022-12-19T16:18:07.388Z</time>
      </trkpt>
      <trkpt lat="46.22654" lon="-1.13662">
        <ele>53.583026</ele>
        <time>2022-12-19T16:18:10.391Z</time>
      </trkpt>
      <trkpt lat="46.22643" lon="-1.13669">
        <ele>53.494983</ele>
        <time>2022-12-19T16:18:13.384Z</time>
      </trkpt>
      <trkpt lat="46.22632" lon="-1.13676">
        <ele>53.409375</ele>
        <time>2022-12-19T16:18:16.394Z</time>
      </trkpt>
      <trkpt lat="46.22622" lon="-1.13681">
        <ele>53.332143</ele>
        <time>2022-12-19T16:18:19.379Z</time>
      </trkpt>
      <trkpt lat="46.22613" lon="-1.13686">
        <ele>53.261714</ele>
        <time>2022-12-19T16:18:22.367Z</time>
      </trkpt>
      <trkpt lat="46.22603" lon="-1.13694">
        <ele>53.175328</ele>
        <time>2022-12-19T16:18:26.372Z</time>
      </trkpt>
      <trkpt lat="46.22593" lon="-1.137">
        <ele>53.098185</ele>
        <time>2022-12-19T16:18:29.388Z</time>
      </trkpt>
      <trkpt lat="46.22583" lon="-1.13705">
        <ele>53.01997</ele>
        <time>2022-12-19T16:18:32.372Z</time>
      </trkpt>
      <trkpt lat="46.22573" lon="-1.13711">
        <ele>52.940109</ele>
        <time>2022-12-19T16:18:35.370Z</time>
      </trkpt>
      <trkpt lat="46.22563" lon="-1.13718">
        <ele>52.854363</ele>
        <time>2022-12-19T16:18:38.373Z</time>
      </trkpt>
      <trkpt lat="46.22551" lon="-1.13724">
        <ele>52.765533</ele>
        <time>2022-12-19T16:18:41.379Z</time>
      </trkpt>
      <trkpt lat="46.22541" lon="-1.13731">
        <ele>52.680479</ele>
        <time>2022-12-19T16:18:44.378Z</time>
      </trkpt>
      <trkpt lat="46.22532" lon="-1.13738">
        <ele>52.608323</ele>
        <time>2022-12-19T16:18:47.368Z</time>
      </trkpt>
      <trkpt lat="46.22524" lon="-1.13747">
        <ele>52.531373</ele>
        <time>2022-12-19T16:18:50.395Z</time>
      </trkpt>
      <trkpt lat="46.22514" lon="-1.13756">
        <ele>52.455076</ele>
        <time>2022-12-19T16:18:53.365Z</time>
      </trkpt>
      <trkpt lat="46.22505" lon="-1.13769">
        <ele>52.37527</ele>
        <time>2022-12-19T16:18:56.390Z</time>
      </trkpt>
      <trkpt lat="46.22495" lon="-1.13781">
        <ele>52.295185</ele>
        <time>2022-12-19T16:18:59.366Z</time>
      </trkpt>
      <trkpt lat="46.22487" lon="-1.13794">
        <ele>52.221027</ele>
        <time>2022-12-19T16:19:02.372Z</time>
      </trkpt>
      <trkpt lat="46.2248" lon="-1.13807">
        <ele>52.153974</ele>
        <time>2022-12-19T16:19:05.374Z</time>
      </trkpt>
      <trkpt lat="46.22474" lon="-1.13819">
        <ele>52.090422</ele>
        <time>2022-12-19T16:19:08.369Z</time>
      </trkpt>
      <trkpt lat="46.22467" lon="-1.13832">
        <ele>52.018092</ele>
        <time>2022-12-19T16:19:12.384Z</time>
      </trkpt>
      <trkpt lat="46.22456" lon="-1.13834">
        <ele>51.951141</ele>
        <time>2022-12-19T16:19:16.373Z</time>
      </trkpt>
      <trkpt lat="46.22447" lon="-1.13829">
        <ele>51.891247</ele>
        <time>2022-12-19T16:19:19.367Z</time>
      </trkpt>
      <trkpt lat="46.22439" lon="-1.13822">
        <ele>51.833232</ele>
        <time>2022-12-19T16:19:22.370Z</time>
      </trkpt>
      <trkpt lat="46.2243" lon="-1.13813">
        <ele>51.766696</ele>
        <time>2022-12-19T16:19:26.372Z</time>
      </trkpt>
      <trkpt lat="46.2244" lon="-1.13818">
        <ele>51.700539</ele>
        <time>2022-12-19T16:20:20.365Z</time>
      </trkpt>
      <trkpt lat="46.2245" lon="-1.13824">
        <ele>51.633565</ele>
        <time>2022-12-19T16:20:24.383Z</time>
      </trkpt>
      <trkpt lat="46.22458" lon="-1.13834">
        <ele>51.570436</ele>
        <time>2022-12-19T16:20:28.372Z</time>
      </trkpt>
      <trkpt lat="46.22457" lon="-1.13851">
        <ele>51.498975</ele>
        <time>2022-12-19T16:20:32.369Z</time>
      </trkpt>
      <trkpt lat="46.22452" lon="-1.13864">
        <ele>51.435777</ele>
        <time>2022-12-19T16:20:35.364Z</time>
      </trkpt>
      <trkpt lat="46.22447" lon="-1.13876">
        <ele>51.419569</ele>
        <time>2022-12-19T16:20:38.359Z</time>
      </trkpt>
      <trkpt lat="46.22441" lon="-1.13889">
        <ele>51.540957</ele>
        <time>2022-12-19T16:20:42.369Z</time>
      </trkpt>
      <trkpt lat="46.22436" lon="-1.13901">
        <ele>51.651014</ele>
        <time>2022-12-19T16:20:45.374Z</time>
      </trkpt>
      <trkpt lat="46.22431" lon="-1.13914">
        <ele>51.770801</ele>
        <time>2022-12-19T16:20:48.369Z</time>
      </trkpt>
      <trkpt lat="46.22426" lon="-1.13928">
        <ele>51.888365</ele>
        <time>2022-12-19T16:20:51.367Z</time>
      </trkpt>
      <trkpt lat="46.22422" lon="-1.1394">
        <ele>51.991584</ele>
        <time>2022-12-19T16:20:54.369Z</time>
      </trkpt>
      <trkpt lat="46.22419" lon="-1.13955">
        <ele>52.109039</ele>
        <time>2022-12-19T16:20:58.384Z</time>
      </trkpt>
      <trkpt lat="46.22416" lon="-1.13967">
        <ele>52.214399</ele>
        <time>2022-12-19T16:21:03.366Z</time>
      </trkpt>
      <trkpt lat="46.22408" lon="-1.13979">
        <ele>52.339495</ele>
        <time>2022-12-19T16:21:08.373Z</time>
      </trkpt>
      <trkpt lat="46.22398" lon="-1.13982">
        <ele>52.459666</ele>
        <time>2022-12-19T16:21:12.369Z</time>
      </trkpt>
      <trkpt lat="46.22386" lon="-1.13985">
        <ele>52.591154</ele>
        <time>2022-12-19T16:21:16.372Z</time>
      </trkpt>
      <trkpt lat="46.22375" lon="-1.13987">
        <ele>52.724547</ele>
        <time>2022-12-19T16:21:20.384Z</time>
      </trkpt>
      <trkpt lat="46.22363" lon="-1.13989">
        <ele>52.855805</ele>
        <time>2022-12-19T16:21:24.371Z</time>
      </trkpt>
      <trkpt lat="46.22351" lon="-1.13991">
        <ele>52.985316</ele>
        <time>2022-12-19T16:21:28.389Z</time>
      </trkpt>
      <trkpt lat="46.2234" lon="-1.13993">
        <ele>53.112221</ele>
        <time>2022-12-19T16:21:32.371Z</time>
      </trkpt>
      <trkpt lat="46.22329" lon="-1.13994">
        <ele>53.240895</ele>
        <time>2022-12-19T16:21:36.387Z</time>
      </trkpt>
      <trkpt lat="46.22319" lon="-1.13996">
        <ele>53.346916</ele>
        <time>2022-12-19T16:21:40.371Z</time>
      </trkpt>
      <trkpt lat="46.22308" lon="-1.13998">
        <ele>53.435191</ele>
        <time>2022-12-19T16:21:45.395Z</time>
      </trkpt>
      <trkpt lat="46.22297" lon="-1.14001">
        <ele>53.480405</ele>
        <time>2022-12-19T16:21:49.388Z</time>
      </trkpt>
      <trkpt lat="46.22287" lon="-1.14003">
        <ele>53.526906</ele>
        <time>2022-12-19T16:21:53.371Z</time>
      </trkpt>
      <trkpt lat="46.22276" lon="-1.14005">
        <ele>53.573657</ele>
        <time>2022-12-19T16:21:57.390Z</time>
      </trkpt>
      <trkpt lat="46.22264" lon="-1.14007">
        <ele>53.623962</ele>
        <time>2022-12-19T16:22:01.373Z</time>
      </trkpt>
      <trkpt lat="46.22254" lon="-1.14008">
        <ele>53.664714</ele>
        <time>2022-12-19T16:22:04.375Z</time>
      </trkpt>
      <trkpt lat="46.22244" lon="-1.1401">
        <ele>53.707465</ele>
        <time>2022-12-19T16:22:07.390Z</time>
      </trkpt>
      <trkpt lat="46.22233" lon="-1.14012">
        <ele>53.752211</ele>
        <time>2022-12-19T16:22:10.377Z</time>
      </trkpt>
      <trkpt lat="46.22223" lon="-1.14013">
        <ele>53.798271</ele>
        <time>2022-12-19T16:22:13.373Z</time>
      </trkpt>
      <trkpt lat="46.22212" lon="-1.14015">
        <ele>53.841224</ele>
        <time>2022-12-19T16:22:16.389Z</time>
      </trkpt>
      <trkpt lat="46.22201" lon="-1.14018">
        <ele>53.889852</ele>
        <time>2022-12-19T16:22:20.368Z</time>
      </trkpt>
      <trkpt lat="46.22192" lon="-1.14019">
        <ele>53.928381</ele>
        <time>2022-12-19T16:22:23.367Z</time>
      </trkpt>
      <trkpt lat="46.22182" lon="-1.14021">
        <ele>53.970323</ele>
        <time>2022-12-19T16:22:26.369Z</time>
      </trkpt>
      <trkpt lat="46.22172" lon="-1.14023">
        <ele>54.013866</ele>
        <time>2022-12-19T16:22:29.366Z</time>
      </trkpt>
      <trkpt lat="46.22161" lon="-1.14025">
        <ele>54.057875</ele>
        <time>2022-12-19T16:22:32.367Z</time>
      </trkpt>
      <trkpt lat="46.22151" lon="-1.14026">
        <ele>54.10159</ele>
        <time>2022-12-19T16:22:35.368Z</time>
      </trkpt>
      <trkpt lat="46.22141" lon="-1.14028">
        <ele>54.14405</ele>
        <time>2022-12-19T16:22:38.385Z</time>
      </trkpt>
      <trkpt lat="46.22131" lon="-1.1403">
        <ele>54.162403</ele>
        <time>2022-12-19T16:22:41.384Z</time>
      </trkpt>
      <trkpt lat="46.22121" lon="-1.14031">
        <ele>54.148937</ele>
        <time>2022-12-19T16:22:44.381Z</time>
      </trkpt>
      <trkpt lat="46.22111" lon="-1.14033">
        <ele>54.135471</ele>
        <time>2022-12-19T16:22:47.367Z</time>
      </trkpt>
      <trkpt lat="46.22101" lon="-1.14035">
        <ele>54.121957</ele>
        <time>2022-12-19T16:22:50.370Z</time>
      </trkpt>
      <trkpt lat="46.22091" lon="-1.14036">
        <ele>54.108272</ele>
        <time>2022-12-19T16:22:53.371Z</time>
      </trkpt>
      <trkpt lat="46.2208" lon="-1.14037">
        <ele>54.09395</ele>
        <time>2022-12-19T16:22:56.383Z</time>
      </trkpt>
      <trkpt lat="46.22069" lon="-1.14039">
        <ele>54.079244</ele>
        <time>2022-12-19T16:22:59.370Z</time>
      </trkpt>
      <trkpt lat="46.22057" lon="-1.14042">
        <ele>54.063276</ele>
        <time>2022-12-19T16:23:02.366Z</time>
      </trkpt>
      <trkpt lat="46.22045" lon="-1.14044">
        <ele>54.047457</ele>
        <time>2022-12-19T16:23:05.363Z</time>
      </trkpt>
      <trkpt lat="46.22033" lon="-1.14046">
        <ele>54.031054</ele>
        <time>2022-12-19T16:23:08.381Z</time>
      </trkpt>
      <trkpt lat="46.22022" lon="-1.14048">
        <ele>54.016372</ele>
        <time>2022-12-19T16:23:11.378Z</time>
      </trkpt>
      <trkpt lat="46.22012" lon="-1.14049">
        <ele>54.003057</ele>
        <time>2022-12-19T16:23:14.365Z</time>
      </trkpt>
      <trkpt lat="46.22002" lon="-1.14051">
        <ele>53.989831</ele>
        <time>2022-12-19T16:23:17.361Z</time>
      </trkpt>
      <trkpt lat="46.21992" lon="-1.14053">
        <ele>53.976566</ele>
        <time>2022-12-19T16:23:20.362Z</time>
      </trkpt>
      <trkpt lat="46.21982" lon="-1.14056">
        <ele>53.963183</ele>
        <time>2022-12-19T16:23:23.472Z</time>
      </trkpt>
      <trkpt lat="46.21972" lon="-1.14057">
        <ele>53.949695</ele>
        <time>2022-12-19T16:23:26.376Z</time>
      </trkpt>
      <trkpt lat="46.21962" lon="-1.1406">
        <ele>53.936168</ele>
        <time>2022-12-19T16:23:29.363Z</time>
      </trkpt>
      <trkpt lat="46.21952" lon="-1.14061">
        <ele>53.985871</ele>
        <time>2022-12-19T16:23:32.361Z</time>
      </trkpt>
      <trkpt lat="46.21941" lon="-1.14062">
        <ele>54.098036</ele>
        <time>2022-12-19T16:23:35.375Z</time>
      </trkpt>
      <trkpt lat="46.2193" lon="-1.14062">
        <ele>54.215031</ele>
        <time>2022-12-19T16:23:38.367Z</time>
      </trkpt>
      <trkpt lat="46.21919" lon="-1.14062">
        <ele>54.329938</ele>
        <time>2022-12-19T16:23:41.388Z</time>
      </trkpt>
      <trkpt lat="46.21908" lon="-1.14062">
        <ele>54.444851</ele>
        <time>2022-12-19T16:23:44.372Z</time>
      </trkpt>
      <trkpt lat="46.21897" lon="-1.14061">
        <ele>54.561954</ele>
        <time>2022-12-19T16:23:47.359Z</time>
      </trkpt>
      <trkpt lat="46.21885" lon="-1.14061">
        <ele>54.685217</ele>
        <time>2022-12-19T16:23:50.377Z</time>
      </trkpt>
      <trkpt lat="46.21873" lon="-1.14061">
        <ele>54.811631</ele>
        <time>2022-12-19T16:23:53.388Z</time>
      </trkpt>
      <trkpt lat="46.21861" lon="-1.14061">
        <ele>54.931767</ele>
        <time>2022-12-19T16:23:56.369Z</time>
      </trkpt>
      <trkpt lat="46.2185" lon="-1.1406">
        <ele>55.046728</ele>
        <time>2022-12-19T16:23:59.378Z</time>
      </trkpt>
      <trkpt lat="46.2184" lon="-1.1406">
        <ele>55.150182</ele>
        <time>2022-12-19T16:24:02.384Z</time>
      </trkpt>
      <trkpt lat="46.21831" lon="-1.1406">
        <ele>55.246309</ele>
        <time>2022-12-19T16:24:05.376Z</time>
      </trkpt>
      <trkpt lat="46.21821" lon="-1.1406">
        <ele>55.347644</ele>
        <time>2022-12-19T16:24:08.370Z</time>
      </trkpt>
      <trkpt lat="46.21812" lon="-1.14061">
        <ele>55.448051</ele>
        <time>2022-12-19T16:24:11.372Z</time>
      </trkpt>
      <trkpt lat="46.21802" lon="-1.1406">
        <ele>55.550461</ele>
        <time>2022-12-19T16:24:14.372Z</time>
      </trkpt>
      <trkpt lat="46.21792" lon="-1.1406">
        <ele>55.653875</ele>
        <time>2022-12-19T16:24:17.375Z</time>
      </trkpt>
      <trkpt lat="46.21782" lon="-1.14061">
        <ele>55.75944</ele>
        <time>2022-12-19T16:24:20.373Z</time>
      </trkpt>
      <trkpt lat="46.21772" lon="-1.14061">
        <ele>55.842213</ele>
        <time>2022-12-19T16:24:23.375Z</time>
      </trkpt>
      <trkpt lat="46.21762" lon="-1.14061">
        <ele>55.905</ele>
        <time>2022-12-19T16:24:26.384Z</time>
      </trkpt>
      <trkpt lat="46.21751" lon="-1.14061">
        <ele>55.973495</ele>
        <time>2022-12-19T16:24:29.366Z</time>
      </trkpt>
      <trkpt lat="46.21741" lon="-1.1406">
        <ele>56.040158</ele>
        <time>2022-12-19T16:24:32.368Z</time>
      </trkpt>
      <trkpt lat="46.21731" lon="-1.1406">
        <ele>56.100486</ele>
        <time>2022-12-19T16:24:35.368Z</time>
      </trkpt>
      <trkpt lat="46.21722" lon="-1.1406">
        <ele>56.161384</ele>
        <time>2022-12-19T16:24:38.375Z</time>
      </trkpt>
      <trkpt lat="46.21711" lon="-1.1406">
        <ele>56.227364</ele>
        <time>2022-12-19T16:24:41.368Z</time>
      </trkpt>
      <trkpt lat="46.21701" lon="-1.1406">
        <ele>56.294596</ele>
        <time>2022-12-19T16:24:44.367Z</time>
      </trkpt>
      <trkpt lat="46.2169" lon="-1.1406">
        <ele>56.363747</ele>
        <time>2022-12-19T16:24:47.375Z</time>
      </trkpt>
      <trkpt lat="46.21679" lon="-1.1406">
        <ele>56.434779</ele>
        <time>2022-12-19T16:24:50.399Z</time>
      </trkpt>
      <trkpt lat="46.21668" lon="-1.14061">
        <ele>56.50393</ele>
        <time>2022-12-19T16:24:53.369Z</time>
      </trkpt>
      <trkpt lat="46.21658" lon="-1.14061">
        <ele>56.567364</ele>
        <time>2022-12-19T16:24:56.370Z</time>
      </trkpt>
      <trkpt lat="46.21648" lon="-1.14061">
        <ele>56.628884</ele>
        <time>2022-12-19T16:24:59.373Z</time>
      </trkpt>
      <trkpt lat="46.21638" lon="-1.1406">
        <ele>56.691684</ele>
        <time>2022-12-19T16:25:02.369Z</time>
      </trkpt>
      <trkpt lat="46.21628" lon="-1.1406">
        <ele>56.754484</ele>
        <time>2022-12-19T16:25:05.366Z</time>
      </trkpt>
      <trkpt lat="46.21618" lon="-1.1406">
        <ele>56.819807</ele>
        <time>2022-12-19T16:25:08.367Z</time>
      </trkpt>
      <trkpt lat="46.21607" lon="-1.1406">
        <ele>56.887035</ele>
        <time>2022-12-19T16:25:11.383Z</time>
      </trkpt>
      <trkpt lat="46.21597" lon="-1.14059">
        <ele>56.96337</ele>
        <time>2022-12-19T16:25:14.389Z</time>
      </trkpt>
      <trkpt lat="46.21586" lon="-1.14059">
        <ele>57.14636</ele>
        <time>2022-12-19T16:25:17.371Z</time>
      </trkpt>
      <trkpt lat="46.21577" lon="-1.14059">
        <ele>57.317068</ele>
        <time>2022-12-19T16:25:20.368Z</time>
      </trkpt>
      <trkpt lat="46.21567" lon="-1.14059">
        <ele>57.491242</ele>
        <time>2022-12-19T16:25:23.389Z</time>
      </trkpt>
      <trkpt lat="46.21557" lon="-1.1406">
        <ele>57.656765</ele>
        <time>2022-12-19T16:25:26.375Z</time>
      </trkpt>
      <trkpt lat="46.21548" lon="-1.1406">
        <ele>57.82756</ele>
        <time>2022-12-19T16:25:29.367Z</time>
      </trkpt>
      <trkpt lat="46.21538" lon="-1.14062">
        <ele>58.0043</ele>
        <time>2022-12-19T16:25:32.390Z</time>
      </trkpt>
      <trkpt lat="46.21528" lon="-1.14064">
        <ele>58.181893</ele>
        <time>2022-12-19T16:25:35.402Z</time>
      </trkpt>
      <trkpt lat="46.21518" lon="-1.14068">
        <ele>58.364102</ele>
        <time>2022-12-19T16:25:38.370Z</time>
      </trkpt>
      <trkpt lat="46.21507" lon="-1.14072">
        <ele>58.548987</ele>
        <time>2022-12-19T16:25:41.390Z</time>
      </trkpt>
      <trkpt lat="46.21497" lon="-1.14077">
        <ele>58.741044</ele>
        <time>2022-12-19T16:25:44.368Z</time>
      </trkpt>
      <trkpt lat="46.21487" lon="-1.14081">
        <ele>58.923612</ele>
        <time>2022-12-19T16:25:47.386Z</time>
      </trkpt>
      <trkpt lat="46.21478" lon="-1.14086">
        <ele>59.091145</ele>
        <time>2022-12-19T16:25:50.385Z</time>
      </trkpt>
      <trkpt lat="46.21469" lon="-1.1409">
        <ele>59.26162</ele>
        <time>2022-12-19T16:25:53.368Z</time>
      </trkpt>
      <trkpt lat="46.2146" lon="-1.14094">
        <ele>59.425582</ele>
        <time>2022-12-19T16:25:56.368Z</time>
      </trkpt>
      <trkpt lat="46.21451" lon="-1.14098">
        <ele>59.58986</ele>
        <time>2022-12-19T16:25:59.372Z</time>
      </trkpt>
      <trkpt lat="46.21442" lon="-1.14102">
        <ele>59.749947</ele>
        <time>2022-12-19T16:26:02.378Z</time>
      </trkpt>
      <trkpt lat="46.21434" lon="-1.14105">
        <ele>59.910996</ele>
        <time>2022-12-19T16:26:05.369Z</time>
      </trkpt>
      <trkpt lat="46.21423" lon="-1.14109">
        <ele>60.10976</ele>
        <time>2022-12-19T16:26:09.374Z</time>
      </trkpt>
      <trkpt lat="46.21416" lon="-1.14118">
        <ele>59.999404</ele>
        <time>2022-12-19T16:26:15.389Z</time>
      </trkpt>
      <trkpt lat="46.21419" lon="-1.14132">
        <ele>59.873703</ele>
        <time>2022-12-19T16:26:19.397Z</time>
      </trkpt>
      <trkpt lat="46.21425" lon="-1.14146">
        <ele>59.729524</ele>
        <time>2022-12-19T16:26:23.397Z</time>
      </trkpt>
      <trkpt lat="46.21431" lon="-1.14161">
        <ele>59.581837</ele>
        <time>2022-12-19T16:26:27.387Z</time>
      </trkpt>
      <trkpt lat="46.21436" lon="-1.14172">
        <ele>59.462813</ele>
        <time>2022-12-19T16:26:30.394Z</time>
      </trkpt>
      <trkpt lat="46.21442" lon="-1.14184">
        <ele>59.334431</ele>
        <time>2022-12-19T16:26:33.374Z</time>
      </trkpt>
      <trkpt lat="46.21449" lon="-1.14195">
        <ele>59.200908</ele>
        <time>2022-12-19T16:26:36.382Z</time>
      </trkpt>
      <trkpt lat="46.21456" lon="-1.14207">
        <ele>59.069828</ele>
        <time>2022-12-19T16:26:39.393Z</time>
      </trkpt>
      <trkpt lat="46.21462" lon="-1.14217">
        <ele>58.951697</ele>
        <time>2022-12-19T16:26:42.395Z</time>
      </trkpt>
      <trkpt lat="46.21469" lon="-1.14231">
        <ele>58.799689</ele>
        <time>2022-12-19T16:26:46.387Z</time>
      </trkpt>
      <trkpt lat="46.21474" lon="-1.14245">
        <ele>58.669264</ele>
        <time>2022-12-19T16:26:49.389Z</time>
      </trkpt>
      <trkpt lat="46.21478" lon="-1.1426">
        <ele>58.523311</ele>
        <time>2022-12-19T16:26:52.384Z</time>
      </trkpt>
      <trkpt lat="46.21481" lon="-1.14277">
        <ele>58.370341</ele>
        <time>2022-12-19T16:26:55.372Z</time>
      </trkpt>
      <trkpt lat="46.21484" lon="-1.14295">
        <ele>58.208994</ele>
        <time>2022-12-19T16:26:58.372Z</time>
      </trkpt>
      <trkpt lat="46.21487" lon="-1.14314">
        <ele>58.04105</ele>
        <time>2022-12-19T16:27:01.383Z</time>
      </trkpt>
      <trkpt lat="46.2149" lon="-1.14327">
        <ele>57.921817</ele>
        <time>2022-12-19T16:27:03.369Z</time>
      </trkpt>
      <trkpt lat="46.21492" lon="-1.1434">
        <ele>57.810818</ele>
        <time>2022-12-19T16:27:05.369Z</time>
      </trkpt>
      <trkpt lat="46.21495" lon="-1.14353">
        <ele>57.703951</ele>
        <time>2022-12-19T16:27:07.384Z</time>
      </trkpt>
      <trkpt lat="46.21496" lon="-1.14366">
        <ele>57.597967</ele>
        <time>2022-12-19T16:27:09.367Z</time>
      </trkpt>
      <trkpt lat="46.21498" lon="-1.14379">
        <ele>57.491861</ele>
        <time>2022-12-19T16:27:11.386Z</time>
      </trkpt>
      <trkpt lat="46.21501" lon="-1.14393">
        <ele>57.380134</ele>
        <time>2022-12-19T16:27:13.371Z</time>
      </trkpt>
      <trkpt lat="46.21505" lon="-1.14406">
        <ele>57.271066</ele>
        <time>2022-12-19T16:27:15.369Z</time>
      </trkpt>
      <trkpt lat="46.21507" lon="-1.1442">
        <ele>57.157408</ele>
        <time>2022-12-19T16:27:17.375Z</time>
      </trkpt>
      <trkpt lat="46.2151" lon="-1.14433">
        <ele>57.04982</ele>
        <time>2022-12-19T16:27:19.371Z</time>
      </trkpt>
      <trkpt lat="46.21514" lon="-1.14446">
        <ele>56.94037</ele>
        <time>2022-12-19T16:27:21.369Z</time>
      </trkpt>
      <trkpt lat="46.21517" lon="-1.14458">
        <ele>56.836067</ele>
        <time>2022-12-19T16:27:23.372Z</time>
      </trkpt>
      <trkpt lat="46.2152" lon="-1.14471">
        <ele>56.733593</ele>
        <time>2022-12-19T16:27:25.383Z</time>
      </trkpt>
      <trkpt lat="46.21523" lon="-1.14489">
        <ele>56.587009</ele>
        <time>2022-12-19T16:27:28.370Z</time>
      </trkpt>
      <trkpt lat="46.21527" lon="-1.14506">
        <ele>56.442669</ele>
        <time>2022-12-19T16:27:31.367Z</time>
      </trkpt>
      <trkpt lat="46.21531" lon="-1.14519">
        <ele>56.334294</ele>
        <time>2022-12-19T16:27:33.374Z</time>
      </trkpt>
      <trkpt lat="46.21535" lon="-1.14532">
        <ele>56.2235</ele>
        <time>2022-12-19T16:27:35.388Z</time>
      </trkpt>
      <trkpt lat="46.21538" lon="-1.14546">
        <ele>56.106577</ele>
        <time>2022-12-19T16:27:37.385Z</time>
      </trkpt>
      <trkpt lat="46.21541" lon="-1.1456">
        <ele>55.990823</ele>
        <time>2022-12-19T16:27:39.375Z</time>
      </trkpt>
      <trkpt lat="46.21546" lon="-1.14575">
        <ele>55.864205</ele>
        <time>2022-12-19T16:27:41.394Z</time>
      </trkpt>
      <trkpt lat="46.21549" lon="-1.14589">
        <ele>55.869057</ele>
        <time>2022-12-19T16:27:43.376Z</time>
      </trkpt>
      <trkpt lat="46.21552" lon="-1.14603">
        <ele>55.987635</ele>
        <time>2022-12-19T16:27:45.399Z</time>
      </trkpt>
      <trkpt lat="46.21555" lon="-1.14616">
        <ele>56.095069</ele>
        <time>2022-12-19T16:27:47.390Z</time>
      </trkpt>
      <trkpt lat="46.21558" lon="-1.14628">
        <ele>56.200631</ele>
        <time>2022-12-19T16:27:49.381Z</time>
      </trkpt>
      <trkpt lat="46.21562" lon="-1.14645">
        <ele>56.346675</ele>
        <time>2022-12-19T16:27:52.373Z</time>
      </trkpt>
      <trkpt lat="46.21565" lon="-1.14661">
        <ele>56.477461</ele>
        <time>2022-12-19T16:27:55.377Z</time>
      </trkpt>
      <trkpt lat="46.21569" lon="-1.14676">
        <ele>56.60412</ele>
        <time>2022-12-19T16:27:58.372Z</time>
      </trkpt>
      <trkpt lat="46.21571" lon="-1.14691">
        <ele>56.736306</ele>
        <time>2022-12-19T16:28:01.376Z</time>
      </trkpt>
      <trkpt lat="46.21567" lon="-1.14705">
        <ele>56.856548</ele>
        <time>2022-12-19T16:28:04.367Z</time>
      </trkpt>
      <trkpt lat="46.21558" lon="-1.1471">
        <ele>56.964345</ele>
        <time>2022-12-19T16:28:07.373Z</time>
      </trkpt>
      <trkpt lat="46.21547" lon="-1.14712">
        <ele>57.097364</ele>
        <time>2022-12-19T16:28:11.407Z</time>
      </trkpt>
      <trkpt lat="46.21536" lon="-1.14715">
        <ele>57.233309</ele>
        <time>2022-12-19T16:28:15.374Z</time>
      </trkpt>
      <trkpt lat="46.21526" lon="-1.14717">
        <ele>57.345239</ele>
        <time>2022-12-19T16:28:18.377Z</time>
      </trkpt>
      <trkpt lat="46.21515" lon="-1.14719">
        <ele>57.470571</ele>
        <time>2022-12-19T16:28:21.361Z</time>
      </trkpt>
      <trkpt lat="46.21505" lon="-1.14722">
        <ele>57.598869</ele>
        <time>2022-12-19T16:28:24.368Z</time>
      </trkpt>
      <trkpt lat="46.21494" lon="-1.14725">
        <ele>57.728765</ele>
        <time>2022-12-19T16:28:27.370Z</time>
      </trkpt>
      <trkpt lat="46.21482" lon="-1.14728">
        <ele>57.868858</ele>
        <time>2022-12-19T16:28:30.389Z</time>
      </trkpt>
      <trkpt lat="46.21468" lon="-1.14731">
        <ele>57.681304</ele>
        <time>2022-12-19T16:28:33.359Z</time>
      </trkpt>
      <trkpt lat="46.21459" lon="-1.14732">
        <ele>57.473359</ele>
        <time>2022-12-19T16:28:35.374Z</time>
      </trkpt>
      <trkpt lat="46.21449" lon="-1.14734">
        <ele>57.256737</ele>
        <time>2022-12-19T16:28:37.371Z</time>
      </trkpt>
      <trkpt lat="46.21439" lon="-1.14736">
        <ele>57.026022</ele>
        <time>2022-12-19T16:28:39.389Z</time>
      </trkpt>
      <trkpt lat="46.2143" lon="-1.14739">
        <ele>56.809258</ele>
        <time>2022-12-19T16:28:41.390Z</time>
      </trkpt>
      <trkpt lat="46.2142" lon="-1.14741">
        <ele>56.586678</ele>
        <time>2022-12-19T16:28:43.388Z</time>
      </trkpt>
      <trkpt lat="46.21411" lon="-1.14743">
        <ele>56.386759</ele>
        <time>2022-12-19T16:28:45.377Z</time>
      </trkpt>
      <trkpt lat="46.21402" lon="-1.14746">
        <ele>56.186188</ele>
        <time>2022-12-19T16:28:47.371Z</time>
      </trkpt>
      <trkpt lat="46.21389" lon="-1.14749">
        <ele>55.902666</ele>
        <time>2022-12-19T16:28:50.381Z</time>
      </trkpt>
      <trkpt lat="46.21376" lon="-1.14752">
        <ele>55.601104</ele>
        <time>2022-12-19T16:28:53.388Z</time>
      </trkpt>
      <trkpt lat="46.21366" lon="-1.14754">
        <ele>55.386796</ele>
        <time>2022-12-19T16:28:55.375Z</time>
      </trkpt>
      <trkpt lat="46.21357" lon="-1.14757">
        <ele>55.164505</ele>
        <time>2022-12-19T16:28:57.369Z</time>
      </trkpt>
      <trkpt lat="46.21347" lon="-1.14759">
        <ele>54.946316</ele>
        <time>2022-12-19T16:28:59.386Z</time>
      </trkpt>
      <trkpt lat="46.21338" lon="-1.14762">
        <ele>54.736385</ele>
        <time>2022-12-19T16:29:01.372Z</time>
      </trkpt>
      <trkpt lat="46.21325" lon="-1.14766">
        <ele>54.449716</ele>
        <time>2022-12-19T16:29:04.362Z</time>
      </trkpt>
      <trkpt lat="46.21314" lon="-1.14767">
        <ele>54.202476</ele>
        <time>2022-12-19T16:29:07.373Z</time>
      </trkpt>
      <trkpt lat="46.21304" lon="-1.14769">
        <ele>53.968679</ele>
        <time>2022-12-19T16:29:10.372Z</time>
      </trkpt>
      <trkpt lat="46.21293" lon="-1.14772">
        <ele>53.852615</ele>
        <time>2022-12-19T16:29:13.365Z</time>
      </trkpt>
      <trkpt lat="46.21282" lon="-1.14775">
        <ele>53.776327</ele>
        <time>2022-12-19T16:29:16.375Z</time>
      </trkpt>
      <trkpt lat="46.21272" lon="-1.14777">
        <ele>53.702692</ele>
        <time>2022-12-19T16:29:19.368Z</time>
      </trkpt>
      <trkpt lat="46.21262" lon="-1.1478">
        <ele>53.626665</ele>
        <time>2022-12-19T16:29:22.395Z</time>
      </trkpt>
      <trkpt lat="46.21251" lon="-1.14783">
        <ele>53.551001</ele>
        <time>2022-12-19T16:29:25.388Z</time>
      </trkpt>
      <trkpt lat="46.21242" lon="-1.14787">
        <ele>53.478549</ele>
        <time>2022-12-19T16:29:28.383Z</time>
      </trkpt>
      <trkpt lat="46.21233" lon="-1.14789">
        <ele>53.41153</ele>
        <time>2022-12-19T16:29:31.380Z</time>
      </trkpt>
      <trkpt lat="46.21223" lon="-1.14791">
        <ele>53.345543</ele>
        <time>2022-12-19T16:29:34.369Z</time>
      </trkpt>
      <trkpt lat="46.21212" lon="-1.14795">
        <ele>53.2644</ele>
        <time>2022-12-19T16:29:38.387Z</time>
      </trkpt>
      <trkpt lat="46.21201" lon="-1.14798">
        <ele>53.181945</ele>
        <time>2022-12-19T16:29:42.390Z</time>
      </trkpt>
      <trkpt lat="46.2119" lon="-1.148">
        <ele>53.100066</ele>
        <time>2022-12-19T16:29:46.372Z</time>
      </trkpt>
      <trkpt lat="46.21178" lon="-1.14803">
        <ele>53.014495</ele>
        <time>2022-12-19T16:29:50.386Z</time>
      </trkpt>
      <trkpt lat="46.21169" lon="-1.14805">
        <ele>52.949766</ele>
        <time>2022-12-19T16:29:53.378Z</time>
      </trkpt>
      <trkpt lat="46.2116" lon="-1.14806">
        <ele>52.882021</ele>
        <time>2022-12-19T16:29:57.374Z</time>
      </trkpt>
      <trkpt lat="46.21151" lon="-1.14809">
        <ele>52.817901</ele>
        <time>2022-12-19T16:30:01.376Z</time>
      </trkpt>
      <trkpt lat="46.21141" lon="-1.14812">
        <ele>52.742766</ele>
        <time>2022-12-19T16:30:05.366Z</time>
      </trkpt>
      <trkpt lat="46.21129" lon="-1.14814">
        <ele>52.661668</ele>
        <time>2022-12-19T16:30:09.368Z</time>
      </trkpt>
      <trkpt lat="46.21121" lon="-1.14817">
        <ele>52.578749</ele>
        <time>2022-12-19T16:30:12.375Z</time>
      </trkpt>
      <trkpt lat="46.21109" lon="-1.1482">
        <ele>52.439616</ele>
        <time>2022-12-19T16:30:16.400Z</time>
      </trkpt>
      <trkpt lat="46.211" lon="-1.14825">
        <ele>52.31467</ele>
        <time>2022-12-19T16:30:21.375Z</time>
      </trkpt>
      <trkpt lat="46.21095" lon="-1.1484">
        <ele>52.178357</ele>
        <time>2022-12-19T16:30:25.373Z</time>
      </trkpt>
      <trkpt lat="46.21092" lon="-1.14855">
        <ele>52.043174</ele>
        <time>2022-12-19T16:30:28.377Z</time>
      </trkpt>
      <trkpt lat="46.21088" lon="-1.14872">
        <ele>51.895082</ele>
        <time>2022-12-19T16:30:31.368Z</time>
      </trkpt>
      <trkpt lat="46.21085" lon="-1.1489">
        <ele>51.736457</ele>
        <time>2022-12-19T16:30:34.365Z</time>
      </trkpt>
      <trkpt lat="46.21082" lon="-1.14908">
        <ele>51.581765</ele>
        <time>2022-12-19T16:30:37.368Z</time>
      </trkpt>
      <trkpt lat="46.2108" lon="-1.14925">
        <ele>51.438246</ele>
        <time>2022-12-19T16:30:40.384Z</time>
      </trkpt>
      <trkpt lat="46.21078" lon="-1.14941">
        <ele>51.295198</ele>
        <time>2022-12-19T16:30:43.367Z</time>
      </trkpt>
      <trkpt lat="46.21075" lon="-1.14959">
        <ele>51.145313</ele>
        <time>2022-12-19T16:30:46.382Z</time>
      </trkpt>
      <trkpt lat="46.21074" lon="-1.14977">
        <ele>50.989801</ele>
        <time>2022-12-19T16:30:49.372Z</time>
      </trkpt>
      <trkpt lat="46.21073" lon="-1.14995">
        <ele>50.836913</ele>
        <time>2022-12-19T16:30:52.387Z</time>
      </trkpt>
      <trkpt lat="46.21072" lon="-1.15013">
        <ele>50.684751</ele>
        <time>2022-12-19T16:30:55.371Z</time>
      </trkpt>
      <trkpt lat="46.21071" lon="-1.15031">
        <ele>50.53532</ele>
        <time>2022-12-19T16:30:58.385Z</time>
      </trkpt>
      <trkpt lat="46.21071" lon="-1.15048">
        <ele>50.42492</ele>
        <time>2022-12-19T16:31:01.370Z</time>
      </trkpt>
      <trkpt lat="46.21071" lon="-1.15061">
        <ele>50.39646</ele>
        <time>2022-12-19T16:31:04.376Z</time>
      </trkpt>
      <trkpt lat="46.21071" lon="-1.15075">
        <ele>50.364992</ele>
        <time>2022-12-19T16:31:08.384Z</time>
      </trkpt>
      <trkpt lat="46.2106" lon="-1.15078">
        <ele>50.329871</ele>
        <time>2022-12-19T16:31:13.383Z</time>
      </trkpt>
      <trkpt lat="46.2105" lon="-1.15079">
        <ele>50.297511</ele>
        <time>2022-12-19T16:31:17.375Z</time>
      </trkpt>
      <trkpt lat="46.21039" lon="-1.1508">
        <ele>50.262784</ele>
        <time>2022-12-19T16:31:21.380Z</time>
      </trkpt>
      <trkpt lat="46.21027" lon="-1.1508">
        <ele>50.226826</ele>
        <time>2022-12-19T16:31:26.383Z</time>
      </trkpt>
      <trkpt lat="46.21016" lon="-1.15081">
        <ele>50.191169</ele>
        <time>2022-12-19T16:31:30.367Z</time>
      </trkpt>
      <trkpt lat="46.21006" lon="-1.15082">
        <ele>50.160852</ele>
        <time>2022-12-19T16:31:33.370Z</time>
      </trkpt>
      <trkpt lat="46.20997" lon="-1.15082">
        <ele>50.13152</ele>
        <time>2022-12-19T16:31:36.367Z</time>
      </trkpt>
      <trkpt lat="46.20988" lon="-1.15081">
        <ele>50.102818</ele>
        <time>2022-12-19T16:31:39.372Z</time>
      </trkpt>
      <trkpt lat="46.20978" lon="-1.15082">
        <ele>50.069655</ele>
        <time>2022-12-19T16:31:43.369Z</time>
      </trkpt>
      <trkpt lat="46.20968" lon="-1.15082">
        <ele>50.039377</ele>
        <time>2022-12-19T16:31:47.365Z</time>
      </trkpt>
      <trkpt lat="46.20958" lon="-1.15083">
        <ele>50.007494</ele>
        <time>2022-12-19T16:31:51.383Z</time>
      </trkpt>
      <trkpt lat="46.20948" lon="-1.15083">
        <ele>49.976897</ele>
        <time>2022-12-19T16:31:55.386Z</time>
      </trkpt>
      <trkpt lat="46.20939" lon="-1.15083">
        <ele>49.947526</ele>
        <time>2022-12-19T16:31:59.372Z</time>
      </trkpt>
      <trkpt lat="46.20929" lon="-1.15084">
        <ele>49.915967</ele>
        <time>2022-12-19T16:32:03.368Z</time>
      </trkpt>
      <trkpt lat="46.20919" lon="-1.15083">
        <ele>49.88587</ele>
        <time>2022-12-19T16:32:07.382Z</time>
      </trkpt>
      <trkpt lat="46.20909" lon="-1.15082">
        <ele>49.788863</ele>
        <time>2022-12-19T16:32:11.367Z</time>
      </trkpt>
      <trkpt lat="46.209" lon="-1.1508">
        <ele>49.635077</ele>
        <time>2022-12-19T16:32:14.377Z</time>
      </trkpt>
      <trkpt lat="46.2089" lon="-1.1508">
        <ele>49.454895</ele>
        <time>2022-12-19T16:32:17.367Z</time>
      </trkpt>
      <trkpt lat="46.2088" lon="-1.15079">
        <ele>49.298436</ele>
        <time>2022-12-19T16:32:19.368Z</time>
      </trkpt>
      <trkpt lat="46.2087" lon="-1.1508">
        <ele>49.123348</ele>
        <time>2022-12-19T16:32:21.389Z</time>
      </trkpt>
      <trkpt lat="46.2086" lon="-1.15082">
        <ele>48.944422</ele>
        <time>2022-12-19T16:32:23.369Z</time>
      </trkpt>
      <trkpt lat="46.2085" lon="-1.15084">
        <ele>48.773878</ele>
        <time>2022-12-19T16:32:25.376Z</time>
      </trkpt>
      <trkpt lat="46.2084" lon="-1.15086">
        <ele>48.610067</ele>
        <time>2022-12-19T16:32:27.381Z</time>
      </trkpt>
      <trkpt lat="46.20827" lon="-1.15086">
        <ele>48.382409</ele>
        <time>2022-12-19T16:32:30.372Z</time>
      </trkpt>
      <trkpt lat="46.20816" lon="-1.15079">
        <ele>48.178932</ele>
        <time>2022-12-19T16:32:33.378Z</time>
      </trkpt>
      <trkpt lat="46.20808" lon="-1.15068">
        <ele>47.994978</ele>
        <time>2022-12-19T16:32:36.378Z</time>
      </trkpt>
      <trkpt lat="46.20803" lon="-1.15058">
        <ele>47.842178</ele>
        <time>2022-12-19T16:32:39.390Z</time>
      </trkpt>
      <trkpt lat="46.20797" lon="-1.15046">
        <ele>47.67201</ele>
        <time>2022-12-19T16:32:42.373Z</time>
      </trkpt>
      <trkpt lat="46.20791" lon="-1.15036">
        <ele>47.520503</ele>
        <time>2022-12-19T16:32:45.370Z</time>
      </trkpt>
      <trkpt lat="46.20781" lon="-1.15033">
        <ele>47.340555</ele>
        <time>2022-12-19T16:32:49.378Z</time>
      </trkpt>
      <trkpt lat="46.20771" lon="-1.15036">
        <ele>47.180638</ele>
        <time>2022-12-19T16:32:52.388Z</time>
      </trkpt>
      <trkpt lat="46.2076" lon="-1.15038">
        <ele>46.980833</ele>
        <time>2022-12-19T16:32:56.374Z</time>
      </trkpt>
      <trkpt lat="46.20748" lon="-1.15041">
        <ele>46.830014</ele>
        <time>2022-12-19T16:33:00.369Z</time>
      </trkpt>
      <trkpt lat="46.20737" lon="-1.15043">
        <ele>46.89966</ele>
        <time>2022-12-19T16:33:03.387Z</time>
      </trkpt>
      <trkpt lat="46.20727" lon="-1.15044">
        <ele>46.971301</ele>
        <time>2022-12-19T16:33:06.370Z</time>
      </trkpt>
      <trkpt lat="46.20717" lon="-1.15046">
        <ele>47.040705</ele>
        <time>2022-12-19T16:33:09.369Z</time>
      </trkpt>
      <trkpt lat="46.20708" lon="-1.15051">
        <ele>47.108246</ele>
        <time>2022-12-19T16:33:12.369Z</time>
      </trkpt>
      <trkpt lat="46.207" lon="-1.1506">
        <ele>47.17524</ele>
        <time>2022-12-19T16:33:15.372Z</time>
      </trkpt>
      <trkpt lat="46.20693" lon="-1.15072">
        <ele>47.250273</ele>
        <time>2022-12-19T16:33:18.376Z</time>
      </trkpt>
      <trkpt lat="46.20686" lon="-1.15083">
        <ele>47.318103</ele>
        <time>2022-12-19T16:33:21.367Z</time>
      </trkpt>
      <trkpt lat="46.20682" lon="-1.15096">
        <ele>47.384957</ele>
        <time>2022-12-19T16:33:24.365Z</time>
      </trkpt>
      <trkpt lat="46.20676" lon="-1.1511">
        <ele>47.46207</ele>
        <time>2022-12-19T16:33:28.371Z</time>
      </trkpt>
      <trkpt lat="46.20671" lon="-1.15124">
        <ele>47.53581</ele>
        <time>2022-12-19T16:33:32.371Z</time>
      </trkpt>
      <trkpt lat="46.20665" lon="-1.15137">
        <ele>47.60718</ele>
        <time>2022-12-19T16:33:35.390Z</time>
      </trkpt>
      <trkpt lat="46.20659" lon="-1.15149">
        <ele>47.678049</ele>
        <time>2022-12-19T16:33:38.386Z</time>
      </trkpt>
      <trkpt lat="46.20652" lon="-1.15159">
        <ele>47.747237</ele>
        <time>2022-12-19T16:33:41.387Z</time>
      </trkpt>
      <trkpt lat="46.20644" lon="-1.1517">
        <ele>47.820245</ele>
        <time>2022-12-19T16:33:44.370Z</time>
      </trkpt>
      <trkpt lat="46.20635" lon="-1.15182">
        <ele>47.903916</ele>
        <time>2022-12-19T16:33:47.371Z</time>
      </trkpt>
      <trkpt lat="46.20625" lon="-1.15193">
        <ele>47.987746</ele>
        <time>2022-12-19T16:33:50.381Z</time>
      </trkpt>
      <trkpt lat="46.20614" lon="-1.15202">
        <ele>47.977836</ele>
        <time>2022-12-19T16:33:53.372Z</time>
      </trkpt>
      <trkpt lat="46.20604" lon="-1.15209">
        <ele>47.862763</ele>
        <time>2022-12-19T16:33:56.395Z</time>
      </trkpt>
      <trkpt lat="46.20596" lon="-1.15212">
        <ele>47.766676</ele>
        <time>2022-12-19T16:33:59.401Z</time>
      </trkpt>
      <trkpt lat="46.20586" lon="-1.15216">
        <ele>47.662415</ele>
        <time>2022-12-19T16:34:02.387Z</time>
      </trkpt>
      <trkpt lat="46.20576" lon="-1.15219">
        <ele>47.556272</ele>
        <time>2022-12-19T16:34:05.379Z</time>
      </trkpt>
      <trkpt lat="46.20567" lon="-1.15223">
        <ele>47.451468</ele>
        <time>2022-12-19T16:34:08.387Z</time>
      </trkpt>
      <trkpt lat="46.20558" lon="-1.15227">
        <ele>47.355164</ele>
        <time>2022-12-19T16:34:11.388Z</time>
      </trkpt>
      <trkpt lat="46.20548" lon="-1.15231">
        <ele>47.250154</ele>
        <time>2022-12-19T16:34:15.371Z</time>
      </trkpt>
      <trkpt lat="46.20539" lon="-1.15233">
        <ele>47.149822</ele>
        <time>2022-12-19T16:34:20.391Z</time>
      </trkpt>
      <trkpt lat="46.20529" lon="-1.15237">
        <ele>47.042359</ele>
        <time>2022-12-19T16:34:25.374Z</time>
      </trkpt>
      <trkpt lat="46.2052" lon="-1.15241">
        <ele>46.944043</ele>
        <time>2022-12-19T16:34:29.386Z</time>
      </trkpt>
      <trkpt lat="46.2051" lon="-1.15247">
        <ele>46.828945</ele>
        <time>2022-12-19T16:34:33.382Z</time>
      </trkpt>
      <trkpt lat="46.20501" lon="-1.15249">
        <ele>46.73278</ele>
        <time>2022-12-19T16:34:36.385Z</time>
      </trkpt>
      <trkpt lat="46.20492" lon="-1.15253">
        <ele>46.635092</ele>
        <time>2022-12-19T16:34:39.371Z</time>
      </trkpt>
      <trkpt lat="46.20481" lon="-1.15257">
        <ele>46.511644</ele>
        <time>2022-12-19T16:34:43.370Z</time>
      </trkpt>
      <trkpt lat="46.20472" lon="-1.15261">
        <ele>46.413956</ele>
        <time>2022-12-19T16:34:46.371Z</time>
      </trkpt>
      <trkpt lat="46.20463" lon="-1.15264">
        <ele>46.317678</ele>
        <time>2022-12-19T16:34:49.379Z</time>
      </trkpt>
      <trkpt lat="46.20454" lon="-1.1527">
        <ele>46.213473</ele>
        <time>2022-12-19T16:34:53.370Z</time>
      </trkpt>
      <trkpt lat="46.20443" lon="-1.15273">
        <ele>46.331719</ele>
        <time>2022-12-19T16:34:57.371Z</time>
      </trkpt>
      <trkpt lat="46.20434" lon="-1.15275">
        <ele>46.751214</ele>
        <time>2022-12-19T16:35:00.371Z</time>
      </trkpt>
      <trkpt lat="46.20424" lon="-1.15277">
        <ele>47.176164</ele>
        <time>2022-12-19T16:35:03.376Z</time>
      </trkpt>
      <trkpt lat="46.20415" lon="-1.15281">
        <ele>47.592189</ele>
        <time>2022-12-19T16:35:06.368Z</time>
      </trkpt>
      <trkpt lat="46.20407" lon="-1.15285">
        <ele>47.998106</ele>
        <time>2022-12-19T16:35:09.378Z</time>
      </trkpt>
      <trkpt lat="46.20397" lon="-1.15289">
        <ele>48.423783</ele>
        <time>2022-12-19T16:35:12.380Z</time>
      </trkpt>
      <trkpt lat="46.20386" lon="-1.15294">
        <ele>48.955138</ele>
        <time>2022-12-19T16:35:16.372Z</time>
      </trkpt>
      <trkpt lat="46.20377" lon="-1.15297">
        <ele>49.353533</ele>
        <time>2022-12-19T16:35:19.373Z</time>
      </trkpt>
      <trkpt lat="46.20368" lon="-1.15302">
        <ele>49.802252</ele>
        <time>2022-12-19T16:35:23.377Z</time>
      </trkpt>
      <trkpt lat="46.20357" lon="-1.15304">
        <ele>50.274893</ele>
        <time>2022-12-19T16:35:29.389Z</time>
      </trkpt>
      <trkpt lat="46.20347" lon="-1.15308">
        <ele>50.738918</ele>
        <time>2022-12-19T16:35:34.368Z</time>
      </trkpt>
      <trkpt lat="46.20338" lon="-1.15311">
        <ele>51.165431</ele>
        <time>2022-12-19T16:35:39.376Z</time>
      </trkpt>
      <trkpt lat="46.20327" lon="-1.15313">
        <ele>51.645527</ele>
        <time>2022-12-19T16:35:45.371Z</time>
      </trkpt>
      <trkpt lat="46.20317" lon="-1.15315">
        <ele>52.093959</ele>
        <time>2022-12-19T16:35:50.370Z</time>
      </trkpt>
      <trkpt lat="46.20307" lon="-1.15317">
        <ele>52.563716</ele>
        <time>2022-12-19T16:35:55.365Z</time>
      </trkpt>
      <trkpt lat="46.20296" lon="-1.15318">
        <ele>53.023145</ele>
        <time>2022-12-19T16:36:00.369Z</time>
      </trkpt>
      <trkpt lat="46.20286" lon="-1.1532">
        <ele>53.467585</ele>
        <time>2022-12-19T16:36:05.392Z</time>
      </trkpt>
      <trkpt lat="46.20276" lon="-1.15322">
        <ele>53.912025</ele>
        <time>2022-12-19T16:36:10.372Z</time>
      </trkpt>
      <trkpt lat="46.20267" lon="-1.15324">
        <ele>54.299959</ele>
        <time>2022-12-19T16:36:17.369Z</time>
      </trkpt>
      <trkpt lat="46.20258" lon="-1.15324">
        <ele>54.64471</ele>
        <time>2022-12-19T16:36:23.374Z</time>
      </trkpt>
      <trkpt lat="46.20248" lon="-1.15326">
        <ele>54.996576</ele>
        <time>2022-12-19T16:36:29.371Z</time>
      </trkpt>
      <trkpt lat="46.20239" lon="-1.15328">
        <ele>55.359807</ele>
        <time>2022-12-19T16:36:36.371Z</time>
      </trkpt>
      <trkpt lat="46.20228" lon="-1.15329">
        <ele>55.741799</ele>
        <time>2022-12-19T16:36:42.371Z</time>
      </trkpt>
      <trkpt lat="46.20219" lon="-1.15331">
        <ele>56.100637</ele>
        <time>2022-12-19T16:36:48.367Z</time>
      </trkpt>
      <trkpt lat="46.20209" lon="-1.15332">
        <ele>56.467838</ele>
        <time>2022-12-19T16:36:54.370Z</time>
      </trkpt>
      <trkpt lat="46.20199" lon="-1.15335">
        <ele>56.824903</ele>
        <time>2022-12-19T16:37:00.372Z</time>
      </trkpt>
      <trkpt lat="46.20193" lon="-1.15344">
        <ele>57.168108</ele>
        <time>2022-12-19T16:37:06.366Z</time>
      </trkpt>
      <trkpt lat="46.20192" lon="-1.1536">
        <ele>57.558124</ele>
        <time>2022-12-19T16:37:12.381Z</time>
      </trkpt>
      <trkpt lat="46.20194" lon="-1.15373">
        <ele>57.916965</ele>
        <time>2022-12-19T16:37:17.369Z</time>
      </trkpt>
      <trkpt lat="46.20196" lon="-1.15386">
        <ele>58.263626</ele>
        <time>2022-12-19T16:37:22.385Z</time>
      </trkpt>
      <trkpt lat="46.20197" lon="-1.154">
        <ele>58.616723</ele>
        <time>2022-12-19T16:37:27.380Z</time>
      </trkpt>
      <trkpt lat="46.20199" lon="-1.15415">
        <ele>59.011332</ele>
        <time>2022-12-19T16:37:32.392Z</time>
      </trkpt>
      <trkpt lat="46.20196" lon="-1.15429">
        <ele>59.37347</ele>
        <time>2022-12-19T16:37:37.372Z</time>
      </trkpt>
      <trkpt lat="46.20188" lon="-1.15435">
        <ele>59.705875</ele>
        <time>2022-12-19T16:37:42.373Z</time>
      </trkpt>
      <trkpt lat="46.20177" lon="-1.15438">
        <ele>60.109439</ele>
        <time>2022-12-19T16:37:48.387Z</time>
      </trkpt>
      <trkpt lat="46.20168" lon="-1.15439">
        <ele>60.473268</ele>
        <time>2022-12-19T16:37:53.382Z</time>
      </trkpt>
      <trkpt lat="46.20158" lon="-1.1544">
        <ele>60.804191</ele>
        <time>2022-12-19T16:37:58.376Z</time>
      </trkpt>
      <trkpt lat="46.20148" lon="-1.15443">
        <ele>60.862865</ele>
        <time>2022-12-19T16:38:03.404Z</time>
      </trkpt>
      <trkpt lat="46.20138" lon="-1.15446">
        <ele>60.923814</ele>
        <time>2022-12-19T16:38:08.370Z</time>
      </trkpt>
      <trkpt lat="46.20128" lon="-1.15448">
        <ele>60.98321</ele>
        <time>2022-12-19T16:38:13.368Z</time>
      </trkpt>
      <trkpt lat="46.20118" lon="-1.15451">
        <ele>61.041817</ele>
        <time>2022-12-19T16:38:18.373Z</time>
      </trkpt>
      <trkpt lat="46.20108" lon="-1.15453">
        <ele>61.101466</ele>
        <time>2022-12-19T16:38:23.369Z</time>
      </trkpt>
      <trkpt lat="46.20098" lon="-1.15455">
        <ele>61.163186</ele>
        <time>2022-12-19T16:38:28.370Z</time>
      </trkpt>
      <trkpt lat="46.20088" lon="-1.15459">
        <ele>61.221058</ele>
        <time>2022-12-19T16:38:33.365Z</time>
      </trkpt>
      <trkpt lat="46.20078" lon="-1.15461">
        <ele>61.280184</ele>
        <time>2022-12-19T16:38:38.382Z</time>
      </trkpt>
      <trkpt lat="46.20069" lon="-1.15464">
        <ele>61.338574</ele>
        <time>2022-12-19T16:38:43.368Z</time>
      </trkpt>
      <trkpt lat="46.20059" lon="-1.15466">
        <ele>61.399391</ele>
        <time>2022-12-19T16:38:48.378Z</time>
      </trkpt>
      <trkpt lat="46.20049" lon="-1.15469">
        <ele>61.456792</ele>
        <time>2022-12-19T16:38:53.395Z</time>
      </trkpt>
      <trkpt lat="46.2004" lon="-1.15471">
        <ele>61.513721</ele>
        <time>2022-12-19T16:38:58.395Z</time>
      </trkpt>
      <trkpt lat="46.2003" lon="-1.15473">
        <ele>61.569641</ele>
        <time>2022-12-19T16:39:03.397Z</time>
      </trkpt>
      <trkpt lat="46.20021" lon="-1.15476">
        <ele>61.626214</ele>
        <time>2022-12-19T16:39:08.396Z</time>
      </trkpt>
      <trkpt lat="46.20011" lon="-1.15478">
        <ele>61.683467</ele>
        <time>2022-12-19T16:39:13.371Z</time>
      </trkpt>
      <trkpt lat="46.20001" lon="-1.1548">
        <ele>61.745701</ele>
        <time>2022-12-19T16:39:18.403Z</time>
      </trkpt>
      <trkpt lat="46.1999" lon="-1.15483">
        <ele>61.810779</ele>
        <time>2022-12-19T16:39:23.408Z</time>
      </trkpt>
      <trkpt lat="46.19979" lon="-1.15486">
        <ele>61.904975</ele>
        <time>2022-12-19T16:39:28.379Z</time>
      </trkpt>
      <trkpt lat="46.1997" lon="-1.15489">
        <ele>62.074694</ele>
        <time>2022-12-19T16:39:33.388Z</time>
      </trkpt>
      <trkpt lat="46.1996" lon="-1.15491">
        <ele>62.254589</ele>
        <time>2022-12-19T16:39:39.380Z</time>
      </trkpt>
      <trkpt lat="46.19951" lon="-1.15494">
        <ele>62.420358</ele>
        <time>2022-12-19T16:39:44.379Z</time>
      </trkpt>
      <trkpt lat="46.19941" lon="-1.15496">
        <ele>62.589157</ele>
        <time>2022-12-19T16:39:49.402Z</time>
      </trkpt>
      <trkpt lat="46.19931" lon="-1.155">
        <ele>62.777987</ele>
        <time>2022-12-19T16:39:55.390Z</time>
      </trkpt>
      <trkpt lat="46.19921" lon="-1.15503">
        <ele>62.958512</ele>
        <time>2022-12-19T16:40:01.383Z</time>
      </trkpt>
      <trkpt lat="46.19911" lon="-1.15507">
        <ele>63.145344</ele>
        <time>2022-12-19T16:40:07.383Z</time>
      </trkpt>
      <trkpt lat="46.199" lon="-1.1551">
        <ele>63.332644</ele>
        <time>2022-12-19T16:40:13.372Z</time>
      </trkpt>
      <trkpt lat="46.19891" lon="-1.15513">
        <ele>63.495443</ele>
        <time>2022-12-19T16:40:18.377Z</time>
      </trkpt>
      <trkpt lat="46.19882" lon="-1.15515">
        <ele>63.661452</ele>
        <time>2022-12-19T16:40:23.380Z</time>
      </trkpt>
      <trkpt lat="46.19873" lon="-1.15517">
        <ele>63.828096</ele>
        <time>2022-12-19T16:40:28.374Z</time>
      </trkpt>
      <trkpt lat="46.19863" lon="-1.15519">
        <ele>63.998982</ele>
        <time>2022-12-19T16:40:33.375Z</time>
      </trkpt>
      <trkpt lat="46.19854" lon="-1.15521">
        <ele>64.171265</ele>
        <time>2022-12-19T16:40:38.402Z</time>
      </trkpt>
      <trkpt lat="46.19844" lon="-1.15525">
        <ele>64.351016</ele>
        <time>2022-12-19T16:40:43.380Z</time>
      </trkpt>
      <trkpt lat="46.19835" lon="-1.15529">
        <ele>64.516632</ele>
        <time>2022-12-19T16:40:48.391Z</time>
      </trkpt>
      <trkpt lat="46.19825" lon="-1.15531">
        <ele>64.695504</ele>
        <time>2022-12-19T16:40:53.375Z</time>
      </trkpt>
      <trkpt lat="46.19815" lon="-1.15534">
        <ele>64.870003</ele>
        <time>2022-12-19T16:40:58.375Z</time>
      </trkpt>
      <trkpt lat="46.19806" lon="-1.15536">
        <ele>65.040938</ele>
        <time>2022-12-19T16:41:03.383Z</time>
      </trkpt>
      <trkpt lat="46.19796" lon="-1.1554">
        <ele>65.271648</ele>
        <time>2022-12-19T16:41:08.371Z</time>
      </trkpt>
      <trkpt lat="46.19786" lon="-1.15543">
        <ele>65.506112</ele>
        <time>2022-12-19T16:41:13.374Z</time>
      </trkpt>
      <trkpt lat="46.19776" lon="-1.15546">
        <ele>65.744716</ele>
        <time>2022-12-19T16:41:18.380Z</time>
      </trkpt>
      <trkpt lat="46.19766" lon="-1.15547">
        <ele>65.969829</ele>
        <time>2022-12-19T16:41:23.387Z</time>
      </trkpt>
      <trkpt lat="46.19761" lon="-1.15559">
        <ele>66.192029</ele>
        <time>2022-12-19T16:41:29.377Z</time>
      </trkpt>
      <trkpt lat="46.19759" lon="-1.15572">
        <ele>66.399033</ele>
        <time>2022-12-19T16:41:34.376Z</time>
      </trkpt>
      <trkpt lat="46.19756" lon="-1.15585">
        <ele>66.626877</ele>
        <time>2022-12-19T16:41:38.370Z</time>
      </trkpt>
      <trkpt lat="46.19754" lon="-1.15599">
        <ele>66.857247</ele>
        <time>2022-12-19T16:41:42.378Z</time>
      </trkpt>
      <trkpt lat="46.19752" lon="-1.15614">
        <ele>67.095924</ele>
        <time>2022-12-19T16:41:47.390Z</time>
      </trkpt>
      <trkpt lat="46.1975" lon="-1.15628">
        <ele>67.322566</ele>
        <time>2022-12-19T16:41:52.372Z</time>
      </trkpt>
      <trkpt lat="46.19748" lon="-1.15642">
        <ele>67.559665</ele>
        <time>2022-12-19T16:41:56.384Z</time>
      </trkpt>
      <trkpt lat="46.19747" lon="-1.15657">
        <ele>67.793045</ele>
        <time>2022-12-19T16:42:00.375Z</time>
      </trkpt>
      <trkpt lat="46.19746" lon="-1.15671">
        <ele>68.01108</ele>
        <time>2022-12-19T16:42:04.367Z</time>
      </trkpt>
      <trkpt lat="46.19745" lon="-1.15684">
        <ele>68.221588</ele>
        <time>2022-12-19T16:42:08.389Z</time>
      </trkpt>
      <trkpt lat="46.19744" lon="-1.15697">
        <ele>68.435533</ele>
        <time>2022-12-19T16:42:12.370Z</time>
      </trkpt>
      <trkpt lat="46.19743" lon="-1.15713">
        <ele>68.698303</ele>
        <time>2022-12-19T16:42:17.388Z</time>
      </trkpt>
      <trkpt lat="46.19742" lon="-1.15727">
        <ele>68.91542</ele>
        <time>2022-12-19T16:42:21.380Z</time>
      </trkpt>
      <trkpt lat="46.1974" lon="-1.15743">
        <ele>69.171429</ele>
        <time>2022-12-19T16:42:27.375Z</time>
      </trkpt>
      <trkpt lat="46.19741" lon="-1.15757">
        <ele>69.280621</ele>
        <time>2022-12-19T16:42:33.382Z</time>
      </trkpt>
      <trkpt lat="46.19734" lon="-1.15774">
        <ele>69.416823</ele>
        <time>2022-12-19T16:45:44.371Z</time>
      </trkpt>
      <trkpt lat="46.19725" lon="-1.1577">
        <ele>69.506011</ele>
        <time>2022-12-19T16:45:48.376Z</time>
      </trkpt>
      <trkpt lat="46.19715" lon="-1.15765">
        <ele>69.60367</ele>
        <time>2022-12-19T16:45:52.400Z</time>
      </trkpt>
      <trkpt lat="46.19704" lon="-1.1576">
        <ele>69.720483</ele>
        <time>2022-12-19T16:45:56.371Z</time>
      </trkpt>
      <trkpt lat="46.19695" lon="-1.15757">
        <ele>69.81336</ele>
        <time>2022-12-19T16:45:59.368Z</time>
      </trkpt>
      <trkpt lat="46.19685" lon="-1.15752">
        <ele>69.911925</ele>
        <time>2022-12-19T16:46:02.373Z</time>
      </trkpt>
      <trkpt lat="46.19675" lon="-1.15746">
        <ele>70.01467</ele>
        <time>2022-12-19T16:46:05.373Z</time>
      </trkpt>
      <trkpt lat="46.19666" lon="-1.15741">
        <ele>70.114382</ele>
        <time>2022-12-19T16:46:08.366Z</time>
      </trkpt>
      <trkpt lat="46.19655" lon="-1.15734">
        <ele>70.229324</ele>
        <time>2022-12-19T16:46:12.379Z</time>
      </trkpt>
      <trkpt lat="46.19645" lon="-1.15726">
        <ele>70.343344</ele>
        <time>2022-12-19T16:46:16.375Z</time>
      </trkpt>
      <trkpt lat="46.19637" lon="-1.15718">
        <ele>70.436463</ele>
        <time>2022-12-19T16:46:19.382Z</time>
      </trkpt>
      <trkpt lat="46.19629" lon="-1.1571">
        <ele>70.529098</ele>
        <time>2022-12-19T16:46:22.383Z</time>
      </trkpt>
      <trkpt lat="46.19622" lon="-1.157">
        <ele>70.623479</ele>
        <time>2022-12-19T16:46:25.373Z</time>
      </trkpt>
      <trkpt lat="46.19614" lon="-1.15691">
        <ele>70.72183</ele>
        <time>2022-12-19T16:46:28.376Z</time>
      </trkpt>
      <trkpt lat="46.19607" lon="-1.1568">
        <ele>70.821327</ele>
        <time>2022-12-19T16:46:31.371Z</time>
      </trkpt>
      <trkpt lat="46.196" lon="-1.15669">
        <ele>70.920611</ele>
        <time>2022-12-19T16:46:34.369Z</time>
      </trkpt>
      <trkpt lat="46.19593" lon="-1.15657">
        <ele>70.883756</ele>
        <time>2022-12-19T16:46:37.392Z</time>
      </trkpt>
      <trkpt lat="46.19587" lon="-1.15645">
        <ele>70.818158</ele>
        <time>2022-12-19T16:46:40.379Z</time>
      </trkpt>
      <trkpt lat="46.19581" lon="-1.15632">
        <ele>70.751516</ele>
        <time>2022-12-19T16:46:43.374Z</time>
      </trkpt>
      <trkpt lat="46.19575" lon="-1.15618">
        <ele>70.68341</ele>
        <time>2022-12-19T16:46:46.376Z</time>
      </trkpt>
      <trkpt lat="46.1957" lon="-1.15604">
        <ele>70.616386</ele>
        <time>2022-12-19T16:46:49.385Z</time>
      </trkpt>
      <trkpt lat="46.19565" lon="-1.1559">
        <ele>70.548144</ele>
        <time>2022-12-19T16:46:52.380Z</time>
      </trkpt>
      <trkpt lat="46.1956" lon="-1.15576">
        <ele>70.482153</ele>
        <time>2022-12-19T16:46:55.372Z</time>
      </trkpt>
      <trkpt lat="46.19555" lon="-1.15563">
        <ele>70.416087</ele>
        <time>2022-12-19T16:46:58.380Z</time>
      </trkpt>
      <trkpt lat="46.1955" lon="-1.15549">
        <ele>70.349062</ele>
        <time>2022-12-19T16:47:01.374Z</time>
      </trkpt>
      <trkpt lat="46.19545" lon="-1.15534">
        <ele>70.28034</ele>
        <time>2022-12-19T16:47:04.375Z</time>
      </trkpt>
      <trkpt lat="46.1954" lon="-1.15521">
        <ele>70.217573</ele>
        <time>2022-12-19T16:47:07.367Z</time>
      </trkpt>
      <trkpt lat="46.19536" lon="-1.15509">
        <ele>70.160398</ele>
        <time>2022-12-19T16:47:10.389Z</time>
      </trkpt>
      <trkpt lat="46.1953" lon="-1.15495">
        <ele>70.091053</ele>
        <time>2022-12-19T16:47:14.376Z</time>
      </trkpt>
      <trkpt lat="46.19526" lon="-1.15484">
        <ele>70.034253</ele>
        <time>2022-12-19T16:47:17.393Z</time>
      </trkpt>
      <trkpt lat="46.19521" lon="-1.1547">
        <ele>69.967897</ele>
        <time>2022-12-19T16:47:20.399Z</time>
      </trkpt>
      <trkpt lat="46.19516" lon="-1.15455">
        <ele>69.897373</ele>
        <time>2022-12-19T16:47:23.388Z</time>
      </trkpt>
      <trkpt lat="46.1951" lon="-1.1544">
        <ele>69.809151</ele>
        <time>2022-12-19T16:47:26.386Z</time>
      </trkpt>
      <trkpt lat="46.19505" lon="-1.15425">
        <ele>69.567959</ele>
        <time>2022-12-19T16:47:29.391Z</time>
      </trkpt>
      <trkpt lat="46.195" lon="-1.15409">
        <ele>69.328204</ele>
        <time>2022-12-19T16:47:32.375Z</time>
      </trkpt>
      <trkpt lat="46.19495" lon="-1.15394">
        <ele>69.094391</ele>
        <time>2022-12-19T16:47:35.368Z</time>
      </trkpt>
      <trkpt lat="46.19489" lon="-1.15379">
        <ele>68.856274</ele>
        <time>2022-12-19T16:47:38.368Z</time>
      </trkpt>
      <trkpt lat="46.19484" lon="-1.15364">
        <ele>68.617387</ele>
        <time>2022-12-19T16:47:41.380Z</time>
      </trkpt>
      <trkpt lat="46.19478" lon="-1.15349">
        <ele>68.37142</ele>
        <time>2022-12-19T16:47:44.374Z</time>
      </trkpt>
      <trkpt lat="46.19473" lon="-1.15333">
        <ele>68.121764</ele>
        <time>2022-12-19T16:47:47.381Z</time>
      </trkpt>
      <trkpt lat="46.19466" lon="-1.15317">
        <ele>67.86547</ele>
        <time>2022-12-19T16:47:50.381Z</time>
      </trkpt>
      <trkpt lat="46.1946" lon="-1.153">
        <ele>67.596159</ele>
        <time>2022-12-19T16:47:53.386Z</time>
      </trkpt>
      <trkpt lat="46.19456" lon="-1.15289">
        <ele>67.412595</ele>
        <time>2022-12-19T16:47:55.371Z</time>
      </trkpt>
      <trkpt lat="46.19451" lon="-1.15277">
        <ele>67.228488</ele>
        <time>2022-12-19T16:47:57.374Z</time>
      </trkpt>
      <trkpt lat="46.19447" lon="-1.15266">
        <ele>67.044182</ele>
        <time>2022-12-19T16:47:59.377Z</time>
      </trkpt>
      <trkpt lat="46.19443" lon="-1.15254">
        <ele>66.854596</ele>
        <time>2022-12-19T16:48:01.373Z</time>
      </trkpt>
      <trkpt lat="46.19439" lon="-1.15242">
        <ele>66.670954</ele>
        <time>2022-12-19T16:48:03.368Z</time>
      </trkpt>
      <trkpt lat="46.19435" lon="-1.1523">
        <ele>66.48049</ele>
        <time>2022-12-19T16:48:05.369Z</time>
      </trkpt>
      <trkpt lat="46.1943" lon="-1.15217">
        <ele>66.281369</ele>
        <time>2022-12-19T16:48:07.368Z</time>
      </trkpt>
      <trkpt lat="46.19426" lon="-1.15204">
        <ele>66.050293</ele>
        <time>2022-12-19T16:48:09.378Z</time>
      </trkpt>
      <trkpt lat="46.19422" lon="-1.15192">
        <ele>65.795257</ele>
        <time>2022-12-19T16:48:11.379Z</time>
      </trkpt>
      <trkpt lat="46.19417" lon="-1.1518">
        <ele>65.54005</ele>
        <time>2022-12-19T16:48:13.367Z</time>
      </trkpt>
      <trkpt lat="46.19412" lon="-1.15167">
        <ele>65.270739</ele>
        <time>2022-12-19T16:48:15.382Z</time>
      </trkpt>
      <trkpt lat="46.19407" lon="-1.15155">
        <ele>65.020309</ele>
        <time>2022-12-19T16:48:17.373Z</time>
      </trkpt>
      <trkpt lat="46.19403" lon="-1.15142">
        <ele>64.764396</ele>
        <time>2022-12-19T16:48:19.371Z</time>
      </trkpt>
      <trkpt lat="46.19398" lon="-1.1513">
        <ele>64.514935</ele>
        <time>2022-12-19T16:48:21.380Z</time>
      </trkpt>
      <trkpt lat="46.19394" lon="-1.15118">
        <ele>64.258609</ele>
        <time>2022-12-19T16:48:23.360Z</time>
      </trkpt>
      <trkpt lat="46.1939" lon="-1.15105">
        <ele>64.000652</ele>
        <time>2022-12-19T16:48:25.372Z</time>
      </trkpt>
      <trkpt lat="46.19385" lon="-1.15092">
        <ele>63.733292</ele>
        <time>2022-12-19T16:48:27.367Z</time>
      </trkpt>
      <trkpt lat="46.1938" lon="-1.15079">
        <ele>63.452175</ele>
        <time>2022-12-19T16:48:29.402Z</time>
      </trkpt>
      <trkpt lat="46.19375" lon="-1.15066">
        <ele>63.183526</ele>
        <time>2022-12-19T16:48:31.370Z</time>
      </trkpt>
      <trkpt lat="46.1937" lon="-1.15053">
        <ele>62.912599</ele>
        <time>2022-12-19T16:48:33.370Z</time>
      </trkpt>
      <trkpt lat="46.19366" lon="-1.15041">
        <ele>62.674932</ele>
        <time>2022-12-19T16:48:35.372Z</time>
      </trkpt>
      <trkpt lat="46.19361" lon="-1.15029">
        <ele>62.424201</ele>
        <time>2022-12-19T16:48:37.379Z</time>
      </trkpt>
      <trkpt lat="46.19357" lon="-1.15017">
        <ele>62.169904</ele>
        <time>2022-12-19T16:48:39.385Z</time>
      </trkpt>
      <trkpt lat="46.19353" lon="-1.15005">
        <ele>61.916527</ele>
        <time>2022-12-19T16:48:41.395Z</time>
      </trkpt>
      <trkpt lat="46.19348" lon="-1.14993">
        <ele>61.674393</ele>
        <time>2022-12-19T16:48:43.383Z</time>
      </trkpt>
      <trkpt lat="46.19344" lon="-1.14981">
        <ele>61.430043</ele>
        <time>2022-12-19T16:48:45.373Z</time>
      </trkpt>
      <trkpt lat="46.19337" lon="-1.14964">
        <ele>61.292349</ele>
        <time>2022-12-19T16:48:48.371Z</time>
      </trkpt>
      <trkpt lat="46.1933" lon="-1.14947">
        <ele>61.152277</ele>
        <time>2022-12-19T16:48:51.362Z</time>
      </trkpt>
      <trkpt lat="46.19326" lon="-1.14936">
        <ele>61.054442</ele>
        <time>2022-12-19T16:48:53.378Z</time>
      </trkpt>
      <trkpt lat="46.19321" lon="-1.14924">
        <ele>60.960553</ele>
        <time>2022-12-19T16:48:55.372Z</time>
      </trkpt>
      <trkpt lat="46.19314" lon="-1.14909">
        <ele>60.829814</ele>
        <time>2022-12-19T16:48:58.387Z</time>
      </trkpt>
      <trkpt lat="46.19307" lon="-1.14894">
        <ele>60.698044</ele>
        <time>2022-12-19T16:49:01.396Z</time>
      </trkpt>
      <trkpt lat="46.19299" lon="-1.14879">
        <ele>60.565295</ele>
        <time>2022-12-19T16:49:04.377Z</time>
      </trkpt>
      <trkpt lat="46.19291" lon="-1.14866">
        <ele>60.438064</ele>
        <time>2022-12-19T16:49:07.372Z</time>
      </trkpt>
      <trkpt lat="46.19282" lon="-1.14854">
        <ele>60.317203</ele>
        <time>2022-12-19T16:49:10.374Z</time>
      </trkpt>
      <trkpt lat="46.19274" lon="-1.14843">
        <ele>60.200053</ele>
        <time>2022-12-19T16:49:13.369Z</time>
      </trkpt>
      <trkpt lat="46.19267" lon="-1.14833">
        <ele>60.093039</ele>
        <time>2022-12-19T16:49:16.380Z</time>
      </trkpt>
      <trkpt lat="46.19259" lon="-1.14824">
        <ele>59.992372</ele>
        <time>2022-12-19T16:49:19.386Z</time>
      </trkpt>
      <trkpt lat="46.19251" lon="-1.14815">
        <ele>59.890896</ele>
        <time>2022-12-19T16:49:22.387Z</time>
      </trkpt>
      <trkpt lat="46.19243" lon="-1.14806">
        <ele>59.784487</ele>
        <time>2022-12-19T16:49:25.372Z</time>
      </trkpt>
      <trkpt lat="46.19234" lon="-1.14798">
        <ele>59.673421</ele>
        <time>2022-12-19T16:49:28.367Z</time>
      </trkpt>
      <trkpt lat="46.19225" lon="-1.14789">
        <ele>59.566396</ele>
        <time>2022-12-19T16:49:31.383Z</time>
      </trkpt>
      <trkpt lat="46.19215" lon="-1.14781">
        <ele>59.512772</ele>
        <time>2022-12-19T16:49:34.374Z</time>
      </trkpt>
      <trkpt lat="46.19206" lon="-1.14774">
        <ele>59.461292</ele>
        <time>2022-12-19T16:49:37.388Z</time>
      </trkpt>
      <trkpt lat="46.19198" lon="-1.14768">
        <ele>59.413152</ele>
        <time>2022-12-19T16:49:40.376Z</time>
      </trkpt>
      <trkpt lat="46.19188" lon="-1.14761">
        <ele>59.358594</ele>
        <time>2022-12-19T16:49:44.372Z</time>
      </trkpt>
      <trkpt lat="46.19178" lon="-1.14757">
        <ele>59.310337</ele>
        <time>2022-12-19T16:49:48.389Z</time>
      </trkpt>
      <trkpt lat="46.19161" lon="-1.1475">
        <ele>59.222616</ele>
        <time>2022-12-19T16:50:49.408Z</time>
      </trkpt>
      <trkpt lat="46.19154" lon="-1.14739">
        <ele>59.167839</ele>
        <time>2022-12-19T16:50:53.381Z</time>
      </trkpt>
      <trkpt lat="46.19145" lon="-1.14732">
        <ele>59.117115</ele>
        <time>2022-12-19T16:50:56.370Z</time>
      </trkpt>
      <trkpt lat="46.19135" lon="-1.14725">
        <ele>59.061822</ele>
        <time>2022-12-19T16:50:59.381Z</time>
      </trkpt>
      <trkpt lat="46.19125" lon="-1.14718">
        <ele>59.006232</ele>
        <time>2022-12-19T16:51:02.376Z</time>
      </trkpt>
      <trkpt lat="46.19115" lon="-1.14711">
        <ele>58.952365</ele>
        <time>2022-12-19T16:51:05.369Z</time>
      </trkpt>
      <trkpt lat="46.19105" lon="-1.14709">
        <ele>58.901751</ele>
        <time>2022-12-19T16:51:08.367Z</time>
      </trkpt>
      <trkpt lat="46.19094" lon="-1.14713">
        <ele>58.847115</ele>
        <time>2022-12-19T16:51:11.396Z</time>
      </trkpt>
      <trkpt lat="46.19086" lon="-1.14724">
        <ele>58.793013</ele>
        <time>2022-12-19T16:51:14.373Z</time>
      </trkpt>
      <trkpt lat="46.19078" lon="-1.14734">
        <ele>58.738113</ele>
        <time>2022-12-19T16:51:17.372Z</time>
      </trkpt>
      <trkpt lat="46.19067" lon="-1.1474">
        <ele>58.683036</ele>
        <time>2022-12-19T16:51:20.371Z</time>
      </trkpt>
      <trkpt lat="46.19056" lon="-1.1474">
        <ele>58.734158</ele>
        <time>2022-12-19T16:51:23.381Z</time>
      </trkpt>
      <trkpt lat="46.19046" lon="-1.14738">
        <ele>58.787424</ele>
        <time>2022-12-19T16:51:26.391Z</time>
      </trkpt>
      <trkpt lat="46.19036" lon="-1.14737">
        <ele>58.840565</ele>
        <time>2022-12-19T16:51:29.383Z</time>
      </trkpt>
      <trkpt lat="46.19026" lon="-1.14736">
        <ele>58.891369</ele>
        <time>2022-12-19T16:51:32.379Z</time>
      </trkpt>
      <trkpt lat="46.19016" lon="-1.1474">
        <ele>58.942247</ele>
        <time>2022-12-19T16:51:35.380Z</time>
      </trkpt>
      <trkpt lat="46.19008" lon="-1.14747">
        <ele>58.991469</ele>
        <time>2022-12-19T16:51:39.386Z</time>
      </trkpt>
      <trkpt lat="46.19003" lon="-1.1476">
        <ele>59.044266</ele>
        <time>2022-12-19T16:51:45.364Z</time>
      </trkpt>
      <trkpt lat="46.18995" lon="-1.14768">
        <ele>59.09605</ele>
        <time>2022-12-19T16:51:50.381Z</time>
      </trkpt>
      <trkpt lat="46.18986" lon="-1.14777">
        <ele>59.152623</ele>
        <time>2022-12-19T16:51:54.379Z</time>
      </trkpt>
      <trkpt lat="46.18978" lon="-1.14789">
        <ele>59.212396</ele>
        <time>2022-12-19T16:51:58.367Z</time>
      </trkpt>
      <trkpt lat="46.18969" lon="-1.14799">
        <ele>59.27041</ele>
        <time>2022-12-19T16:52:02.373Z</time>
      </trkpt>
      <trkpt lat="46.18959" lon="-1.14809">
        <ele>59.329464</ele>
        <time>2022-12-19T16:52:06.388Z</time>
      </trkpt>
      <trkpt lat="46.1895" lon="-1.14816">
        <ele>59.383878</ele>
        <time>2022-12-19T16:52:10.373Z</time>
      </trkpt>
      <trkpt lat="46.18941" lon="-1.14823">
        <ele>59.434605</ele>
        <time>2022-12-19T16:52:14.384Z</time>
      </trkpt>
      <trkpt lat="46.18931" lon="-1.14831">
        <ele>59.493073</ele>
        <time>2022-12-19T16:52:18.383Z</time>
      </trkpt>
      <trkpt lat="46.18923" lon="-1.14837">
        <ele>59.540264</ele>
        <time>2022-12-19T16:52:21.378Z</time>
      </trkpt>
      <trkpt lat="46.18914" lon="-1.14843">
        <ele>59.591877</ele>
        <time>2022-12-19T16:52:24.374Z</time>
      </trkpt>
      <trkpt lat="46.18905" lon="-1.1485">
        <ele>59.689045</ele>
        <time>2022-12-19T16:52:27.379Z</time>
      </trkpt>
      <trkpt lat="46.18896" lon="-1.14857">
        <ele>59.799397</ele>
        <time>2022-12-19T16:52:30.375Z</time>
      </trkpt>
      <trkpt lat="46.18887" lon="-1.14864">
        <ele>59.90924</ele>
        <time>2022-12-19T16:52:33.371Z</time>
      </trkpt>
      <trkpt lat="46.18878" lon="-1.14872">
        <ele>60.02308</ele>
        <time>2022-12-19T16:52:36.368Z</time>
      </trkpt>
      <trkpt lat="46.18868" lon="-1.1488">
        <ele>60.143908</ele>
        <time>2022-12-19T16:52:39.373Z</time>
      </trkpt>
      <trkpt lat="46.18859" lon="-1.14888">
        <ele>60.262298</ele>
        <time>2022-12-19T16:52:42.380Z</time>
      </trkpt>
      <trkpt lat="46.1885" lon="-1.14897">
        <ele>60.37795</ele>
        <time>2022-12-19T16:52:45.389Z</time>
      </trkpt>
      <trkpt lat="46.1884" lon="-1.14905">
        <ele>60.495817</ele>
        <time>2022-12-19T16:52:48.373Z</time>
      </trkpt>
      <trkpt lat="46.18831" lon="-1.14915">
        <ele>60.621265</ele>
        <time>2022-12-19T16:52:51.360Z</time>
      </trkpt>
      <trkpt lat="46.18821" lon="-1.14924">
        <ele>60.745557</ele>
        <time>2022-12-19T16:52:54.374Z</time>
      </trkpt>
      <trkpt lat="46.18812" lon="-1.14934">
        <ele>60.869698</ele>
        <time>2022-12-19T16:52:57.375Z</time>
      </trkpt>
      <trkpt lat="46.18802" lon="-1.14943">
        <ele>60.990476</ele>
        <time>2022-12-19T16:53:00.371Z</time>
      </trkpt>
      <trkpt lat="46.18793" lon="-1.14951">
        <ele>61.107434</ele>
        <time>2022-12-19T16:53:03.393Z</time>
      </trkpt>
      <trkpt lat="46.18784" lon="-1.14961">
        <ele>61.228681</ele>
        <time>2022-12-19T16:53:07.379Z</time>
      </trkpt>
      <trkpt lat="46.18775" lon="-1.14971">
        <ele>61.357191</ele>
        <time>2022-12-19T16:53:11.390Z</time>
      </trkpt>
      <trkpt lat="46.18766" lon="-1.14979">
        <ele>61.467518</ele>
        <time>2022-12-19T16:53:14.372Z</time>
      </trkpt>
      <trkpt lat="46.18757" lon="-1.14987">
        <ele>61.506585</ele>
        <time>2022-12-19T16:53:17.386Z</time>
      </trkpt>
      <trkpt lat="46.18747" lon="-1.14995">
        <ele>61.43696</ele>
        <time>2022-12-19T16:53:20.389Z</time>
      </trkpt>
      <trkpt lat="46.18738" lon="-1.15002">
        <ele>61.365268</ele>
        <time>2022-12-19T16:53:23.372Z</time>
      </trkpt>
      <trkpt lat="46.18727" lon="-1.1501">
        <ele>61.287546</ele>
        <time>2022-12-19T16:53:26.400Z</time>
      </trkpt>
      <trkpt lat="46.18717" lon="-1.1502">
        <ele>61.210047</ele>
        <time>2022-12-19T16:53:29.370Z</time>
      </trkpt>
      <trkpt lat="46.18708" lon="-1.15028">
        <ele>61.138641</ele>
        <time>2022-12-19T16:53:32.389Z</time>
      </trkpt>
      <trkpt lat="46.187" lon="-1.15036">
        <ele>61.07391</ele>
        <time>2022-12-19T16:53:35.393Z</time>
      </trkpt>
      <trkpt lat="46.18691" lon="-1.15045">
        <ele>61.004929</ele>
        <time>2022-12-19T16:53:38.378Z</time>
      </trkpt>
      <trkpt lat="46.18682" lon="-1.15053">
        <ele>60.938206</ele>
        <time>2022-12-19T16:53:41.385Z</time>
      </trkpt>
      <trkpt lat="46.18673" lon="-1.15062">
        <ele>60.866879</ele>
        <time>2022-12-19T16:53:44.375Z</time>
      </trkpt>
      <trkpt lat="46.18664" lon="-1.15071">
        <ele>60.793936</ele>
        <time>2022-12-19T16:53:47.371Z</time>
      </trkpt>
      <trkpt lat="46.18655" lon="-1.15079">
        <ele>60.726974</ele>
        <time>2022-12-19T16:53:50.369Z</time>
      </trkpt>
      <trkpt lat="46.18648" lon="-1.15086">
        <ele>60.667282</ele>
        <time>2022-12-19T16:53:53.372Z</time>
      </trkpt>
      <trkpt lat="46.18638" lon="-1.15096">
        <ele>60.590917</ele>
        <time>2022-12-19T16:53:57.372Z</time>
      </trkpt>
      <trkpt lat="46.1863" lon="-1.15104">
        <ele>60.526185</ele>
        <time>2022-12-19T16:54:01.390Z</time>
      </trkpt>
      <trkpt lat="46.18623" lon="-1.15113">
        <ele>60.464333</ele>
        <time>2022-12-19T16:54:07.397Z</time>
      </trkpt>
      <trkpt lat="46.18621" lon="-1.15129">
        <ele>60.392641</ele>
        <time>2022-12-19T16:54:12.372Z</time>
      </trkpt>
      <trkpt lat="46.18622" lon="-1.15142">
        <ele>60.360938</ele>
        <time>2022-12-19T16:54:15.402Z</time>
      </trkpt>
      <trkpt lat="46.18623" lon="-1.15157">
        <ele>60.354936</ele>
        <time>2022-12-19T16:54:18.370Z</time>
      </trkpt>
      <trkpt lat="46.18625" lon="-1.15175">
        <ele>60.347941</ele>
        <time>2022-12-19T16:54:21.371Z</time>
      </trkpt>
      <trkpt lat="46.18626" lon="-1.15192">
        <ele>60.340972</ele>
        <time>2022-12-19T16:54:24.386Z</time>
      </trkpt>
      <trkpt lat="46.18627" lon="-1.15208">
        <ele>60.334705</ele>
        <time>2022-12-19T16:54:27.375Z</time>
      </trkpt>
      <trkpt lat="46.18629" lon="-1.15224">
        <ele>60.328249</ele>
        <time>2022-12-19T16:54:30.365Z</time>
      </trkpt>
      <trkpt lat="46.18629" lon="-1.15241">
        <ele>60.32152</ele>
        <time>2022-12-19T16:54:33.373Z</time>
      </trkpt>
      <trkpt lat="46.1863" lon="-1.15258">
        <ele>60.314558</ele>
        <time>2022-12-19T16:54:36.375Z</time>
      </trkpt>
      <trkpt lat="46.18631" lon="-1.15277">
        <ele>60.307231</ele>
        <time>2022-12-19T16:54:39.387Z</time>
      </trkpt>
      <trkpt lat="46.1863" lon="-1.15294">
        <ele>60.300542</ele>
        <time>2022-12-19T16:54:42.371Z</time>
      </trkpt>
      <trkpt lat="46.18631" lon="-1.15308">
        <ele>60.29479</ele>
        <time>2022-12-19T16:54:45.372Z</time>
      </trkpt>
      <trkpt lat="46.18633" lon="-1.15325">
        <ele>60.288072</ele>
        <time>2022-12-19T16:54:49.366Z</time>
      </trkpt>
      <trkpt lat="46.18638" lon="-1.15337">
        <ele>60.282384</ele>
        <time>2022-12-19T16:54:52.369Z</time>
      </trkpt>
      <trkpt lat="46.1864" lon="-1.15352">
        <ele>60.276431</ele>
        <time>2022-12-19T16:54:55.378Z</time>
      </trkpt>
      <trkpt lat="46.18642" lon="-1.15367">
        <ele>60.270331</ele>
        <time>2022-12-19T16:54:58.373Z</time>
      </trkpt>
      <trkpt lat="46.18645" lon="-1.15381">
        <ele>60.264637</ele>
        <time>2022-12-19T16:55:01.373Z</time>
      </trkpt>
      <trkpt lat="46.18646" lon="-1.15396">
        <ele>60.206852</ele>
        <time>2022-12-19T16:55:05.371Z</time>
      </trkpt>
      <trkpt lat="46.18645" lon="-1.15411">
        <ele>60.047682</ele>
        <time>2022-12-19T16:55:10.383Z</time>
      </trkpt>
      <trkpt lat="46.18636" lon="-1.15419">
        <ele>59.88031</ele>
        <time>2022-12-19T16:55:15.372Z</time>
      </trkpt>
      <trkpt lat="46.18625" lon="-1.15423">
        <ele>59.715354</ele>
        <time>2022-12-19T16:55:19.383Z</time>
      </trkpt>
      <trkpt lat="46.18619" lon="-1.15435">
        <ele>59.552394</ele>
        <time>2022-12-19T16:55:23.390Z</time>
      </trkpt>
      <trkpt lat="46.18614" lon="-1.15447">
        <ele>59.406075</ele>
        <time>2022-12-19T16:55:26.378Z</time>
      </trkpt>
      <trkpt lat="46.18605" lon="-1.15456">
        <ele>59.243402</ele>
        <time>2022-12-19T16:55:29.381Z</time>
      </trkpt>
      <trkpt lat="46.18597" lon="-1.15465">
        <ele>59.077715</ele>
        <time>2022-12-19T16:55:32.379Z</time>
      </trkpt>
      <trkpt lat="46.18588" lon="-1.15475">
        <ele>58.909595</ele>
        <time>2022-12-19T16:55:35.380Z</time>
      </trkpt>
      <trkpt lat="46.18578" lon="-1.15484">
        <ele>58.736549</ele>
        <time>2022-12-19T16:55:38.382Z</time>
      </trkpt>
      <trkpt lat="46.18568" lon="-1.15494">
        <ele>58.547422</ele>
        <time>2022-12-19T16:55:41.400Z</time>
      </trkpt>
      <trkpt lat="46.18558" lon="-1.15507">
        <ele>58.347113</ele>
        <time>2022-12-19T16:55:44.374Z</time>
      </trkpt>
      <trkpt lat="46.18552" lon="-1.15517">
        <ele>58.205925</ele>
        <time>2022-12-19T16:55:46.374Z</time>
      </trkpt>
      <trkpt lat="46.18546" lon="-1.15526">
        <ele>58.06585</ele>
        <time>2022-12-19T16:55:48.365Z</time>
      </trkpt>
      <trkpt lat="46.18539" lon="-1.15536">
        <ele>57.925963</ele>
        <time>2022-12-19T16:55:50.371Z</time>
      </trkpt>
      <trkpt lat="46.18532" lon="-1.15546">
        <ele>57.782242</ele>
        <time>2022-12-19T16:55:52.378Z</time>
      </trkpt>
      <trkpt lat="46.18526" lon="-1.15556">
        <ele>57.632299</ele>
        <time>2022-12-19T16:55:54.388Z</time>
      </trkpt>
      <trkpt lat="46.1852" lon="-1.15567">
        <ele>57.523878</ele>
        <time>2022-12-19T16:55:56.373Z</time>
      </trkpt>
      <trkpt lat="46.18511" lon="-1.15582">
        <ele>57.501846</ele>
        <time>2022-12-19T16:55:59.388Z</time>
      </trkpt>
      <trkpt lat="46.18505" lon="-1.15594">
        <ele>57.485817</ele>
        <time>2022-12-19T16:56:01.379Z</time>
      </trkpt>
      <trkpt lat="46.185" lon="-1.15605">
        <ele>57.47119</ele>
        <time>2022-12-19T16:56:03.374Z</time>
      </trkpt>
      <trkpt lat="46.18493" lon="-1.1562">
        <ele>57.450991</ele>
        <time>2022-12-19T16:56:06.394Z</time>
      </trkpt>
      <trkpt lat="46.18487" lon="-1.15634">
        <ele>57.432456</ele>
        <time>2022-12-19T16:56:09.377Z</time>
      </trkpt>
      <trkpt lat="46.18482" lon="-1.15648">
        <ele>57.415291</ele>
        <time>2022-12-19T16:56:12.386Z</time>
      </trkpt>
      <trkpt lat="46.18477" lon="-1.15661">
        <ele>57.39886</ele>
        <time>2022-12-19T16:56:16.374Z</time>
      </trkpt>
      <trkpt lat="46.18469" lon="-1.1567">
        <ele>57.383472</ele>
        <time>2022-12-19T16:56:21.378Z</time>
      </trkpt>
      <trkpt lat="46.18459" lon="-1.15663">
        <ele>57.365735</ele>
        <time>2022-12-19T16:56:25.383Z</time>
      </trkpt>
      <trkpt lat="46.18451" lon="-1.15657">
        <ele>57.350772</ele>
        <time>2022-12-19T16:56:28.380Z</time>
      </trkpt>
      <trkpt lat="46.18443" lon="-1.15649">
        <ele>57.335492</ele>
        <time>2022-12-19T16:56:31.387Z</time>
      </trkpt>
      <trkpt lat="46.18434" lon="-1.15641">
        <ele>57.318081</ele>
        <time>2022-12-19T16:56:35.372Z</time>
      </trkpt>
      <trkpt lat="46.18424" lon="-1.15644">
        <ele>57.302406</ele>
        <time>2022-12-19T16:56:39.376Z</time>
      </trkpt>
      <trkpt lat="46.18419" lon="-1.15656">
        <ele>57.287688</ele>
        <time>2022-12-19T16:56:43.371Z</time>
      </trkpt>
      <trkpt lat="46.18414" lon="-1.1567">
        <ele>57.26996</ele>
        <time>2022-12-19T16:56:47.375Z</time>
      </trkpt>
      <trkpt lat="46.1841" lon="-1.15681">
        <ele>57.255617</ele>
        <time>2022-12-19T16:56:50.391Z</time>
      </trkpt>
      <trkpt lat="46.18405" lon="-1.15693">
        <ele>57.247645</ele>
        <time>2022-12-19T16:56:53.377Z</time>
      </trkpt>
      <trkpt lat="46.18401" lon="-1.15706">
        <ele>57.367738</ele>
        <time>2022-12-19T16:56:56.374Z</time>
      </trkpt>
      <trkpt lat="46.18389" lon="-1.15736">
        <ele>57.677021</ele>
        <time>2022-12-19T16:58:08.391Z</time>
      </trkpt>
      <trkpt lat="46.18385" lon="-1.1575">
        <ele>57.811843</ele>
        <time>2022-12-19T16:58:12.378Z</time>
      </trkpt>
      <trkpt lat="46.1838" lon="-1.15761">
        <ele>57.93125</ele>
        <time>2022-12-19T16:58:16.373Z</time>
      </trkpt>
      <trkpt lat="46.18375" lon="-1.15776">
        <ele>58.07169</ele>
        <time>2022-12-19T16:58:20.373Z</time>
      </trkpt>
      <trkpt lat="46.1837" lon="-1.1579">
        <ele>58.214384</ele>
        <time>2022-12-19T16:58:24.373Z</time>
      </trkpt>
      <trkpt lat="46.18364" lon="-1.15804">
        <ele>58.358632</ele>
        <time>2022-12-19T16:58:29.404Z</time>
      </trkpt>
      <trkpt lat="46.18359" lon="-1.15818">
        <ele>58.496379</ele>
        <time>2022-12-19T16:58:33.367Z</time>
      </trkpt>
      <trkpt lat="46.18356" lon="-1.15831">
        <ele>58.617791</ele>
        <time>2022-12-19T16:58:37.399Z</time>
      </trkpt>
      <trkpt lat="46.18356" lon="-1.15845">
        <ele>58.740006</ele>
        <time>2022-12-19T16:58:41.372Z</time>
      </trkpt>
      <trkpt lat="46.18356" lon="-1.15859">
        <ele>58.862541</ele>
        <time>2022-12-19T16:58:45.393Z</time>
      </trkpt>
      <trkpt lat="46.18352" lon="-1.15873">
        <ele>58.998113</ele>
        <time>2022-12-19T16:58:50.388Z</time>
      </trkpt>
      <trkpt lat="46.18343" lon="-1.15878">
        <ele>59.12504</ele>
        <time>2022-12-19T16:58:54.382Z</time>
      </trkpt>
      <trkpt lat="46.18333" lon="-1.15879">
        <ele>59.251978</ele>
        <time>2022-12-19T16:58:58.374Z</time>
      </trkpt>
      <trkpt lat="46.18324" lon="-1.15879">
        <ele>59.373519</ele>
        <time>2022-12-19T16:59:02.386Z</time>
      </trkpt>
      <trkpt lat="46.18312" lon="-1.15879">
        <ele>59.518122</ele>
        <time>2022-12-19T16:59:06.379Z</time>
      </trkpt>
      <trkpt lat="46.18303" lon="-1.15878">
        <ele>59.521629</ele>
        <time>2022-12-19T16:59:09.369Z</time>
      </trkpt>
      <trkpt lat="46.18292" lon="-1.15879">
        <ele>59.49178</ele>
        <time>2022-12-19T16:59:13.382Z</time>
      </trkpt>
      <trkpt lat="46.18281" lon="-1.15879">
        <ele>59.463303</ele>
        <time>2022-12-19T16:59:16.370Z</time>
      </trkpt>
      <trkpt lat="46.1827" lon="-1.15879">
        <ele>59.433482</ele>
        <time>2022-12-19T16:59:19.378Z</time>
      </trkpt>
      <trkpt lat="46.18259" lon="-1.15879">
        <ele>59.402578</ele>
        <time>2022-12-19T16:59:22.372Z</time>
      </trkpt>
      <trkpt lat="46.18247" lon="-1.15879">
        <ele>59.370067</ele>
        <time>2022-12-19T16:59:25.404Z</time>
      </trkpt>
      <trkpt lat="46.18234" lon="-1.1588">
        <ele>59.335671</ele>
        <time>2022-12-19T16:59:28.368Z</time>
      </trkpt>
      <trkpt lat="46.18225" lon="-1.1588">
        <ele>59.311493</ele>
        <time>2022-12-19T16:59:30.379Z</time>
      </trkpt>
      <trkpt lat="46.18212" lon="-1.1588">
        <ele>59.276824</ele>
        <time>2022-12-19T16:59:33.368Z</time>
      </trkpt>
      <trkpt lat="46.182" lon="-1.1588">
        <ele>59.245658</ele>
        <time>2022-12-19T16:59:36.369Z</time>
      </trkpt>
      <trkpt lat="46.18188" lon="-1.15881">
        <ele>59.213662</ele>
        <time>2022-12-19T16:59:39.377Z</time>
      </trkpt>
      <trkpt lat="46.18176" lon="-1.15881">
        <ele>59.181692</ele>
        <time>2022-12-19T16:59:42.372Z</time>
      </trkpt>
      <trkpt lat="46.18164" lon="-1.15881">
        <ele>59.149185</ele>
        <time>2022-12-19T16:59:45.375Z</time>
      </trkpt>
      <trkpt lat="46.18152" lon="-1.15882">
        <ele>59.117172</ele>
        <time>2022-12-19T16:59:48.375Z</time>
      </trkpt>
      <trkpt lat="46.18141" lon="-1.15883">
        <ele>59.08625</ele>
        <time>2022-12-19T16:59:51.379Z</time>
      </trkpt>
      <trkpt lat="46.18131" lon="-1.15884">
        <ele>59.058796</ele>
        <time>2022-12-19T16:59:54.381Z</time>
      </trkpt>
      <trkpt lat="46.1812" lon="-1.15884">
        <ele>59.209296</ele>
        <time>2022-12-19T16:59:57.411Z</time>
      </trkpt>
      <trkpt lat="46.18108" lon="-1.15886">
        <ele>59.36954</ele>
        <time>2022-12-19T17:00:00.374Z</time>
      </trkpt>
      <trkpt lat="46.18097" lon="-1.15888">
        <ele>59.529783</ele>
        <time>2022-12-19T17:00:03.381Z</time>
      </trkpt>
      <trkpt lat="46.18086" lon="-1.1589">
        <ele>59.688418</ele>
        <time>2022-12-19T17:00:06.400Z</time>
      </trkpt>
      <trkpt lat="46.18075" lon="-1.15892">
        <ele>59.841116</ele>
        <time>2022-12-19T17:00:09.374Z</time>
      </trkpt>
      <trkpt lat="46.18064" lon="-1.15893">
        <ele>59.989936</ele>
        <time>2022-12-19T17:00:12.372Z</time>
      </trkpt>
      <trkpt lat="46.18054" lon="-1.15895">
        <ele>60.134296</ele>
        <time>2022-12-19T17:00:15.378Z</time>
      </trkpt>
      <trkpt lat="46.18045" lon="-1.15896">
        <ele>60.263718</ele>
        <time>2022-12-19T17:00:18.387Z</time>
      </trkpt>
      <trkpt lat="46.18033" lon="-1.15899">
        <ele>60.42354</ele>
        <time>2022-12-19T17:00:22.395Z</time>
      </trkpt>
      <trkpt lat="46.18022" lon="-1.15902">
        <ele>60.580609</ele>
        <time>2022-12-19T17:00:26.381Z</time>
      </trkpt>
      <trkpt lat="46.18011" lon="-1.15904">
        <ele>60.738332</ele>
        <time>2022-12-19T17:00:30.364Z</time>
      </trkpt>
      <trkpt lat="46.18001" lon="-1.15906">
        <ele>60.885</ele>
        <time>2022-12-19T17:00:34.401Z</time>
      </trkpt>
      <trkpt lat="46.17991" lon="-1.1591">
        <ele>61.029045</ele>
        <time>2022-12-19T17:00:38.371Z</time>
      </trkpt>
      <trkpt lat="46.1798" lon="-1.15913">
        <ele>61.17941</ele>
        <time>2022-12-19T17:00:42.375Z</time>
      </trkpt>
      <trkpt lat="46.17971" lon="-1.15915">
        <ele>61.315702</ele>
        <time>2022-12-19T17:00:46.388Z</time>
      </trkpt>
      <trkpt lat="46.17961" lon="-1.15918">
        <ele>61.457839</ele>
        <time>2022-12-19T17:00:50.398Z</time>
      </trkpt>
      <trkpt lat="46.17951" lon="-1.15921">
        <ele>61.58006</ele>
        <time>2022-12-19T17:00:55.376Z</time>
      </trkpt>
      <trkpt lat="46.17938" lon="-1.15922">
        <ele>61.647244</ele>
        <time>2022-12-19T17:01:23.378Z</time>
      </trkpt>
      <trkpt lat="46.1793" lon="-1.1593">
        <ele>61.694259</ele>
        <time>2022-12-19T17:01:27.400Z</time>
      </trkpt>
      <trkpt lat="46.17929" lon="-1.15945">
        <ele>61.749051</ele>
        <time>2022-12-19T17:01:31.376Z</time>
      </trkpt>
      <trkpt lat="46.1793" lon="-1.15961">
        <ele>61.806456</ele>
        <time>2022-12-19T17:01:35.368Z</time>
      </trkpt>
      <trkpt lat="46.1793" lon="-1.15977">
        <ele>61.86299</ele>
        <time>2022-12-19T17:01:39.372Z</time>
      </trkpt>
      <trkpt lat="46.1793" lon="-1.15992">
        <ele>61.918105</ele>
        <time>2022-12-19T17:01:43.377Z</time>
      </trkpt>
      <trkpt lat="46.17931" lon="-1.16006">
        <ele>61.969326</ele>
        <time>2022-12-19T17:01:47.372Z</time>
      </trkpt>
      <trkpt lat="46.17932" lon="-1.16019">
        <ele>62.016601</ele>
        <time>2022-12-19T17:01:51.370Z</time>
      </trkpt>
      <trkpt lat="46.17931" lon="-1.16001">
        <ele>62.08254</ele>
        <time>2022-12-19T17:02:40.376Z</time>
      </trkpt>
      <trkpt lat="46.1793" lon="-1.15987">
        <ele>62.133696</ele>
        <time>2022-12-19T17:02:44.374Z</time>
      </trkpt>
      <trkpt lat="46.17929" lon="-1.15973">
        <ele>62.18349</ele>
        <time>2022-12-19T17:02:48.370Z</time>
      </trkpt>
      <trkpt lat="46.17926" lon="-1.15959">
        <ele>62.235963</ele>
        <time>2022-12-19T17:02:56.390Z</time>
      </trkpt>
      <trkpt lat="46.17918" lon="-1.15949">
        <ele>62.292978</ele>
        <time>2022-12-19T17:03:02.379Z</time>
      </trkpt>
      <trkpt lat="46.17911" lon="-1.1594">
        <ele>62.343213</ele>
        <time>2022-12-19T17:03:07.397Z</time>
      </trkpt>
      <trkpt lat="46.179" lon="-1.15939">
        <ele>62.396809</ele>
        <time>2022-12-19T17:03:13.387Z</time>
      </trkpt>
      <trkpt lat="46.17892" lon="-1.15945">
        <ele>62.444004</ele>
        <time>2022-12-19T17:03:17.375Z</time>
      </trkpt>
      <trkpt lat="46.17881" lon="-1.15949">
        <ele>62.501615</ele>
        <time>2022-12-19T17:03:21.372Z</time>
      </trkpt>
      <trkpt lat="46.1787" lon="-1.15952">
        <ele>62.366126</ele>
        <time>2022-12-19T17:03:25.401Z</time>
      </trkpt>
      <trkpt lat="46.17861" lon="-1.15956">
        <ele>62.237906</ele>
        <time>2022-12-19T17:03:30.372Z</time>
      </trkpt>
      <trkpt lat="46.17858" lon="-1.1597">
        <ele>62.10405</ele>
        <time>2022-12-19T17:03:35.373Z</time>
      </trkpt>
      <trkpt lat="46.1786" lon="-1.15985">
        <ele>61.969279</ele>
        <time>2022-12-19T17:03:39.368Z</time>
      </trkpt>
      <trkpt lat="46.17861" lon="-1.15999">
        <ele>61.847446</ele>
        <time>2022-12-19T17:03:43.389Z</time>
      </trkpt>
      <trkpt lat="46.17858" lon="-1.16012">
        <ele>61.731137</ele>
        <time>2022-12-19T17:03:48.369Z</time>
      </trkpt>
      <trkpt lat="46.17848" lon="-1.16016">
        <ele>61.590083</ele>
        <time>2022-12-19T17:03:52.380Z</time>
      </trkpt>
      <trkpt lat="46.17837" lon="-1.16018">
        <ele>61.456511</ele>
        <time>2022-12-19T17:03:56.379Z</time>
      </trkpt>
      <trkpt lat="46.17828" lon="-1.16018">
        <ele>61.341831</ele>
        <time>2022-12-19T17:04:06.400Z</time>
      </trkpt>
      <trkpt lat="46.17816" lon="-1.16024">
        <ele>61.174268</ele>
        <time>2022-12-19T17:07:45.421Z</time>
      </trkpt>
      <trkpt lat="46.17808" lon="-1.16033">
        <ele>61.048204</ele>
        <time>2022-12-19T17:07:49.379Z</time>
      </trkpt>
      <trkpt lat="46.17801" lon="-1.16042">
        <ele>60.92044</ele>
        <time>2022-12-19T17:07:53.386Z</time>
      </trkpt>
      <trkpt lat="46.17795" lon="-1.16056">
        <ele>60.784287</ele>
        <time>2022-12-19T17:07:57.376Z</time>
      </trkpt>
      <trkpt lat="46.17792" lon="-1.16071">
        <ele>60.643744</ele>
        <time>2022-12-19T17:08:00.372Z</time>
      </trkpt>
      <trkpt lat="46.17788" lon="-1.16086">
        <ele>60.501593</ele>
        <time>2022-12-19T17:08:03.371Z</time>
      </trkpt>
      <trkpt lat="46.17785" lon="-1.161">
        <ele>60.371853</ele>
        <time>2022-12-19T17:08:06.366Z</time>
      </trkpt>
      <trkpt lat="46.17781" lon="-1.16113">
        <ele>60.247628</ele>
        <time>2022-12-19T17:08:09.372Z</time>
      </trkpt>
      <trkpt lat="46.17778" lon="-1.16128">
        <ele>60.045442</ele>
        <time>2022-12-19T17:08:12.376Z</time>
      </trkpt>
      <trkpt lat="46.17775" lon="-1.16144">
        <ele>59.799208</ele>
        <time>2022-12-19T17:08:15.368Z</time>
      </trkpt>
      <trkpt lat="46.1777" lon="-1.16161">
        <ele>59.53701</ele>
        <time>2022-12-19T17:08:18.376Z</time>
      </trkpt>
      <trkpt lat="46.17767" lon="-1.16177">
        <ele>59.280319</ele>
        <time>2022-12-19T17:08:21.376Z</time>
      </trkpt>
      <trkpt lat="46.17763" lon="-1.16193">
        <ele>59.032028</ele>
        <time>2022-12-19T17:08:24.370Z</time>
      </trkpt>
      <trkpt lat="46.17759" lon="-1.16208">
        <ele>58.796593</ele>
        <time>2022-12-19T17:08:27.370Z</time>
      </trkpt>
      <trkpt lat="46.17755" lon="-1.16223">
        <ele>58.562209</ele>
        <time>2022-12-19T17:08:30.367Z</time>
      </trkpt>
      <trkpt lat="46.17752" lon="-1.16238">
        <ele>58.333201</ele>
        <time>2022-12-19T17:08:33.378Z</time>
      </trkpt>
      <trkpt lat="46.17749" lon="-1.16252">
        <ele>58.114671</ele>
        <time>2022-12-19T17:08:36.377Z</time>
      </trkpt>
      <trkpt lat="46.1775" lon="-1.16265">
        <ele>57.921097</ele>
        <time>2022-12-19T17:08:39.377Z</time>
      </trkpt>
      <trkpt lat="46.1775" lon="-1.16279">
        <ele>57.71169</ele>
        <time>2022-12-19T17:08:44.382Z</time>
      </trkpt>
      <trkpt lat="46.17742" lon="-1.1629">
        <ele>57.478724</ele>
        <time>2022-12-19T17:08:52.403Z</time>
      </trkpt>
      <trkpt lat="46.17737" lon="-1.16305">
        <ele>57.232156</ele>
        <time>2022-12-19T17:08:56.372Z</time>
      </trkpt>
      <trkpt lat="46.17734" lon="-1.16318">
        <ele>57.022489</ele>
        <time>2022-12-19T17:08:59.376Z</time>
      </trkpt>
      <trkpt lat="46.1773" lon="-1.16333">
        <ele>56.792259</ele>
        <time>2022-12-19T17:09:02.378Z</time>
      </trkpt>
      <trkpt lat="46.17727" lon="-1.1635">
        <ele>56.530961</ele>
        <time>2022-12-19T17:09:05.387Z</time>
      </trkpt>
      <trkpt lat="46.17724" lon="-1.16367">
        <ele>56.300595</ele>
        <time>2022-12-19T17:09:08.372Z</time>
      </trkpt>
      <trkpt lat="46.1772" lon="-1.16382">
        <ele>56.115134</ele>
        <time>2022-12-19T17:09:11.385Z</time>
      </trkpt>
      <trkpt lat="46.17717" lon="-1.164">
        <ele>55.910012</ele>
        <time>2022-12-19T17:09:14.376Z</time>
      </trkpt>
      <trkpt lat="46.17716" lon="-1.16415">
        <ele>55.733414</ele>
        <time>2022-12-19T17:09:17.373Z</time>
      </trkpt>
      <trkpt lat="46.1771" lon="-1.16427">
        <ele>55.567928</ele>
        <time>2022-12-19T17:09:21.375Z</time>
      </trkpt>
      <trkpt lat="46.17699" lon="-1.16423">
        <ele>55.392494</ele>
        <time>2022-12-19T17:09:25.377Z</time>
      </trkpt>
      <trkpt lat="46.17689" lon="-1.16419">
        <ele>55.208235</ele>
        <time>2022-12-19T17:09:29.384Z</time>
      </trkpt>
      <trkpt lat="46.17677" lon="-1.16413">
        <ele>55.013837</ele>
        <time>2022-12-19T17:09:34.389Z</time>
      </trkpt>
      <trkpt lat="46.17668" lon="-1.16409">
        <ele>54.853598</ele>
        <time>2022-12-19T17:09:37.370Z</time>
      </trkpt>
      <trkpt lat="46.17658" lon="-1.16409">
        <ele>54.682828</ele>
        <time>2022-12-19T17:09:40.372Z</time>
      </trkpt>
      <trkpt lat="46.17647" lon="-1.16412">
        <ele>54.500836</ele>
        <time>2022-12-19T17:09:43.376Z</time>
      </trkpt>
      <trkpt lat="46.17636" lon="-1.16416">
        <ele>54.312984</ele>
        <time>2022-12-19T17:09:46.379Z</time>
      </trkpt>
      <trkpt lat="46.17625" lon="-1.16418">
        <ele>54.141846</ele>
        <time>2022-12-19T17:09:49.371Z</time>
      </trkpt>
      <trkpt lat="46.17616" lon="-1.16421">
        <ele>53.984322</ele>
        <time>2022-12-19T17:09:52.386Z</time>
      </trkpt>
      <trkpt lat="46.17606" lon="-1.16424">
        <ele>53.811012</ele>
        <time>2022-12-19T17:09:55.379Z</time>
      </trkpt>
      <trkpt lat="46.17596" lon="-1.16428">
        <ele>53.64884</ele>
        <time>2022-12-19T17:09:58.367Z</time>
      </trkpt>
      <trkpt lat="46.17587" lon="-1.16432">
        <ele>53.485392</ele>
        <time>2022-12-19T17:10:01.375Z</time>
      </trkpt>
      <trkpt lat="46.17576" lon="-1.16435">
        <ele>53.444106</ele>
        <time>2022-12-19T17:10:04.378Z</time>
      </trkpt>
      <trkpt lat="46.17567" lon="-1.16438">
        <ele>53.456576</ele>
        <time>2022-12-19T17:10:07.370Z</time>
      </trkpt>
      <trkpt lat="46.17557" lon="-1.16442">
        <ele>53.46865</ele>
        <time>2022-12-19T17:10:10.366Z</time>
      </trkpt>
      <trkpt lat="46.17547" lon="-1.16446">
        <ele>53.482023</ele>
        <time>2022-12-19T17:10:14.377Z</time>
      </trkpt>
      <trkpt lat="46.17536" lon="-1.16448">
        <ele>53.495362</ele>
        <time>2022-12-19T17:10:19.372Z</time>
      </trkpt>
      <trkpt lat="46.17527" lon="-1.16452">
        <ele>53.507271</ele>
        <time>2022-12-19T17:10:24.369Z</time>
      </trkpt>
      <trkpt lat="46.17519" lon="-1.16441">
        <ele>53.520518</ele>
        <time>2022-12-19T17:10:29.370Z</time>
      </trkpt>
      <trkpt lat="46.17513" lon="-1.16428">
        <ele>53.534206</ele>
        <time>2022-12-19T17:10:33.387Z</time>
      </trkpt>
      <trkpt lat="46.17506" lon="-1.16419">
        <ele>53.545703</ele>
        <time>2022-12-19T17:10:36.376Z</time>
      </trkpt>
      <trkpt lat="46.17498" lon="-1.1641">
        <ele>53.558418</ele>
        <time>2022-12-19T17:10:41.391Z</time>
      </trkpt>
      <trkpt lat="46.17487" lon="-1.1641">
        <ele>53.571802</ele>
        <time>2022-12-19T17:10:45.375Z</time>
      </trkpt>
      <trkpt lat="46.17478" lon="-1.16412">
        <ele>53.582939</ele>
        <time>2022-12-19T17:10:48.375Z</time>
      </trkpt>
      <trkpt lat="46.17469" lon="-1.16414">
        <ele>53.594333</ele>
        <time>2022-12-19T17:10:51.375Z</time>
      </trkpt>
      <trkpt lat="46.17457" lon="-1.16416">
        <ele>53.608773</ele>
        <time>2022-12-19T17:10:55.379Z</time>
      </trkpt>
      <trkpt lat="46.17446" lon="-1.16419">
        <ele>53.623182</ele>
        <time>2022-12-19T17:10:59.373Z</time>
      </trkpt>
      <trkpt lat="46.17435" lon="-1.16422">
        <ele>53.636341</ele>
        <time>2022-12-19T17:11:03.374Z</time>
      </trkpt>
      <trkpt lat="46.17432" lon="-1.16436">
        <ele>53.649072</ele>
        <time>2022-12-19T17:11:08.376Z</time>
      </trkpt>
      <trkpt lat="46.17434" lon="-1.1645">
        <ele>53.723249</ele>
        <time>2022-12-19T17:11:13.380Z</time>
      </trkpt>
      <trkpt lat="46.17434" lon="-1.16463">
        <ele>53.928383</ele>
        <time>2022-12-19T17:11:17.378Z</time>
      </trkpt>
      <trkpt lat="46.17436" lon="-1.16479">
        <ele>54.178037</ele>
        <time>2022-12-19T17:11:22.375Z</time>
      </trkpt>
      <trkpt lat="46.17438" lon="-1.16493">
        <ele>54.402869</ele>
        <time>2022-12-19T17:11:26.380Z</time>
      </trkpt>
      <trkpt lat="46.17439" lon="-1.16507">
        <ele>54.62636</ele>
        <time>2022-12-19T17:11:30.367Z</time>
      </trkpt>
      <trkpt lat="46.17441" lon="-1.16521">
        <ele>54.846484</ele>
        <time>2022-12-19T17:11:34.383Z</time>
      </trkpt>
      <trkpt lat="46.17442" lon="-1.16535">
        <ele>55.067679</ele>
        <time>2022-12-19T17:11:38.376Z</time>
      </trkpt>
      <trkpt lat="46.17444" lon="-1.16548">
        <ele>55.278903</ele>
        <time>2022-12-19T17:11:42.373Z</time>
      </trkpt>
      <trkpt lat="46.17444" lon="-1.16561">
        <ele>55.490494</ele>
        <time>2022-12-19T17:11:51.380Z</time>
      </trkpt>
      <trkpt lat="46.17437" lon="-1.1657">
        <ele>55.708909</ele>
        <time>2022-12-19T17:11:56.377Z</time>
      </trkpt>
      <trkpt lat="46.17429" lon="-1.16578">
        <ele>55.932187</ele>
        <time>2022-12-19T17:12:01.370Z</time>
      </trkpt>
      <trkpt lat="46.17421" lon="-1.16586">
        <ele>56.149544</ele>
        <time>2022-12-19T17:12:06.400Z</time>
      </trkpt>
      <trkpt lat="46.17417" lon="-1.16598">
        <ele>56.365619</ele>
        <time>2022-12-19T17:12:11.400Z</time>
      </trkpt>
      <trkpt lat="46.17419" lon="-1.16612">
        <ele>56.586868</ele>
        <time>2022-12-19T17:12:16.388Z</time>
      </trkpt>
      <trkpt lat="46.17418" lon="-1.16627">
        <ele>56.827813</ele>
        <time>2022-12-19T17:12:22.410Z</time>
      </trkpt>
      <trkpt lat="46.17421" lon="-1.1664">
        <ele>57.047094</ele>
        <time>2022-12-19T17:12:27.375Z</time>
      </trkpt>
      <trkpt lat="46.17424" lon="-1.16654">
        <ele>57.269358</ele>
        <time>2022-12-19T17:12:33.376Z</time>
      </trkpt>
      <trkpt lat="46.17422" lon="-1.16668">
        <ele>57.497252</ele>
        <time>2022-12-19T17:12:39.371Z</time>
      </trkpt>
      <trkpt lat="46.17412" lon="-1.16675">
        <ele>57.734076</ele>
        <time>2022-12-19T17:12:45.381Z</time>
      </trkpt>
      <trkpt lat="46.17395" lon="-1.16679">
        <ele>57.763148</ele>
        <time>2022-12-19T17:13:27.384Z</time>
      </trkpt>
      <trkpt lat="46.17386" lon="-1.16673">
        <ele>57.77399</ele>
        <time>2022-12-19T17:13:32.382Z</time>
      </trkpt>
      <trkpt lat="46.17383" lon="-1.16659">
        <ele>57.78516</ele>
        <time>2022-12-19T17:13:37.370Z</time>
      </trkpt>
      <trkpt lat="46.17379" lon="-1.16646">
        <ele>57.795594</ele>
        <time>2022-12-19T17:13:42.404Z</time>
      </trkpt>
      <trkpt lat="46.17381" lon="-1.16632">
        <ele>57.807062</ele>
        <time>2022-12-19T17:13:47.374Z</time>
      </trkpt>
      <trkpt lat="46.17373" lon="-1.1662">
        <ele>57.819414</ele>
        <time>2022-12-19T17:13:53.377Z</time>
      </trkpt>
      <trkpt lat="46.17364" lon="-1.1661">
        <ele>57.83187</ele>
        <time>2022-12-19T17:13:57.394Z</time>
      </trkpt>
      <trkpt lat="46.17355" lon="-1.16601">
        <ele>57.843998</ele>
        <time>2022-12-19T17:14:01.381Z</time>
      </trkpt>
      <trkpt lat="46.17345" lon="-1.16591">
        <ele>57.857303</ele>
        <time>2022-12-19T17:14:05.382Z</time>
      </trkpt>
      <trkpt lat="46.17336" lon="-1.16584">
        <ele>57.868776</ele>
        <time>2022-12-19T17:14:08.388Z</time>
      </trkpt>
      <trkpt lat="46.17326" lon="-1.16577">
        <ele>57.880647</ele>
        <time>2022-12-19T17:14:11.395Z</time>
      </trkpt>
      <trkpt lat="46.17318" lon="-1.16568">
        <ele>57.891705</ele>
        <time>2022-12-19T17:14:14.385Z</time>
      </trkpt>
      <trkpt lat="46.17309" lon="-1.1656">
        <ele>57.903349</ele>
        <time>2022-12-19T17:14:17.371Z</time>
      </trkpt>
      <trkpt lat="46.17301" lon="-1.1655">
        <ele>57.915523</ele>
        <time>2022-12-19T17:14:20.376Z</time>
      </trkpt>
      <trkpt lat="46.17291" lon="-1.16542">
        <ele>57.92757</ele>
        <time>2022-12-19T17:14:23.390Z</time>
      </trkpt>
      <trkpt lat="46.17283" lon="-1.16533">
        <ele>57.938713</ele>
        <time>2022-12-19T17:14:26.368Z</time>
      </trkpt>
      <trkpt lat="46.17276" lon="-1.16526">
        <ele>58.029709</ele>
        <time>2022-12-19T17:14:29.377Z</time>
      </trkpt>
      <trkpt lat="46.17268" lon="-1.16518">
        <ele>58.190565</ele>
        <time>2022-12-19T17:14:32.378Z</time>
      </trkpt>
      <trkpt lat="46.17259" lon="-1.1651">
        <ele>58.356685</ele>
        <time>2022-12-19T17:14:35.366Z</time>
      </trkpt>
      <trkpt lat="46.1725" lon="-1.16501">
        <ele>58.528437</ele>
        <time>2022-12-19T17:14:38.373Z</time>
      </trkpt>
      <trkpt lat="46.17241" lon="-1.16492">
        <ele>58.707022</ele>
        <time>2022-12-19T17:14:41.373Z</time>
      </trkpt>
      <trkpt lat="46.17232" lon="-1.16484">
        <ele>58.877867</ele>
        <time>2022-12-19T17:14:44.370Z</time>
      </trkpt>
      <trkpt lat="46.17224" lon="-1.16476">
        <ele>59.03483</ele>
        <time>2022-12-19T17:14:47.365Z</time>
      </trkpt>
      <trkpt lat="46.17217" lon="-1.16468">
        <ele>59.183867</ele>
        <time>2022-12-19T17:14:50.372Z</time>
      </trkpt>
      <trkpt lat="46.17207" lon="-1.16461">
        <ele>59.363849</ele>
        <time>2022-12-19T17:14:54.378Z</time>
      </trkpt>
      <trkpt lat="46.17198" lon="-1.16455">
        <ele>59.523011</ele>
        <time>2022-12-19T17:14:59.373Z</time>
      </trkpt>
      <trkpt lat="46.17188" lon="-1.1646">
        <ele>59.697832</ele>
        <time>2022-12-19T17:15:06.373Z</time>
      </trkpt>
      <trkpt lat="46.17177" lon="-1.16461">
        <ele>59.880898</ele>
        <time>2022-12-19T17:15:11.379Z</time>
      </trkpt>
      <trkpt lat="46.17168" lon="-1.16471">
        <ele>60.068156</ele>
        <time>2022-12-19T17:15:15.370Z</time>
      </trkpt>
      <trkpt lat="46.17163" lon="-1.16483">
        <ele>60.225527</ele>
        <time>2022-12-19T17:15:18.372Z</time>
      </trkpt>
      <trkpt lat="46.17158" lon="-1.16495">
        <ele>60.383341</ele>
        <time>2022-12-19T17:15:21.375Z</time>
      </trkpt>
      <trkpt lat="46.17152" lon="-1.16508">
        <ele>60.551338</ele>
        <time>2022-12-19T17:15:24.376Z</time>
      </trkpt>
      <trkpt lat="46.17147" lon="-1.16521">
        <ele>60.725024</ele>
        <time>2022-12-19T17:15:27.374Z</time>
      </trkpt>
      <trkpt lat="46.17141" lon="-1.16534">
        <ele>60.867434</ele>
        <time>2022-12-19T17:15:30.377Z</time>
      </trkpt>
      <trkpt lat="46.17134" lon="-1.16548">
        <ele>60.913114</ele>
        <time>2022-12-19T17:15:33.376Z</time>
      </trkpt>
      <trkpt lat="46.17128" lon="-1.1656">
        <ele>60.954289</ele>
        <time>2022-12-19T17:15:36.366Z</time>
      </trkpt>
      <trkpt lat="46.17123" lon="-1.1657">
        <ele>60.99129</ele>
        <time>2022-12-19T17:15:39.369Z</time>
      </trkpt>
      <trkpt lat="46.17117" lon="-1.16583">
        <ele>61.03293</ele>
        <time>2022-12-19T17:15:42.374Z</time>
      </trkpt>
      <trkpt lat="46.17111" lon="-1.16596">
        <ele>61.075873</ele>
        <time>2022-12-19T17:15:45.376Z</time>
      </trkpt>
      <trkpt lat="46.17106" lon="-1.16608">
        <ele>61.116075</ele>
        <time>2022-12-19T17:15:48.374Z</time>
      </trkpt>
      <trkpt lat="46.17099" lon="-1.16618">
        <ele>61.15541</ele>
        <time>2022-12-19T17:15:51.375Z</time>
      </trkpt>
      <trkpt lat="46.17094" lon="-1.16631">
        <ele>61.195274</ele>
        <time>2022-12-19T17:15:54.383Z</time>
      </trkpt>
      <trkpt lat="46.17089" lon="-1.16644">
        <ele>61.236469</ele>
        <time>2022-12-19T17:15:57.380Z</time>
      </trkpt>
      <trkpt lat="46.17084" lon="-1.16656">
        <ele>61.277737</ele>
        <time>2022-12-19T17:16:00.374Z</time>
      </trkpt>
      <trkpt lat="46.17079" lon="-1.1667">
        <ele>61.319221</ele>
        <time>2022-12-19T17:16:03.375Z</time>
      </trkpt>
      <trkpt lat="46.17074" lon="-1.16685">
        <ele>61.366395</ele>
        <time>2022-12-19T17:16:07.377Z</time>
      </trkpt>
      <trkpt lat="46.1707" lon="-1.16699">
        <ele>61.407034</ele>
        <time>2022-12-19T17:16:10.375Z</time>
      </trkpt>
      <trkpt lat="46.17066" lon="-1.16712">
        <ele>61.448443</ele>
        <time>2022-12-19T17:16:13.376Z</time>
      </trkpt>
      <trkpt lat="46.17062" lon="-1.16726">
        <ele>61.49093</ele>
        <time>2022-12-19T17:16:16.381Z</time>
      </trkpt>
      <trkpt lat="46.17058" lon="-1.1674">
        <ele>61.531008</ele>
        <time>2022-12-19T17:16:19.376Z</time>
      </trkpt>
      <trkpt lat="46.17054" lon="-1.16753">
        <ele>61.56977</ele>
        <time>2022-12-19T17:16:22.373Z</time>
      </trkpt>
      <trkpt lat="46.1705" lon="-1.16766">
        <ele>61.642432</ele>
        <time>2022-12-19T17:16:25.374Z</time>
      </trkpt>
      <trkpt lat="46.17046" lon="-1.1678">
        <ele>61.727435</ele>
        <time>2022-12-19T17:16:28.377Z</time>
      </trkpt>
      <trkpt lat="46.17042" lon="-1.16793">
        <ele>61.812745</ele>
        <time>2022-12-19T17:16:31.368Z</time>
      </trkpt>
      <trkpt lat="46.17037" lon="-1.16807">
        <ele>61.897053</ele>
        <time>2022-12-19T17:16:34.376Z</time>
      </trkpt>
      <trkpt lat="46.17032" lon="-1.1682">
        <ele>61.982728</ele>
        <time>2022-12-19T17:16:37.372Z</time>
      </trkpt>
      <trkpt lat="46.17027" lon="-1.16833">
        <ele>62.062178</ele>
        <time>2022-12-19T17:16:40.374Z</time>
      </trkpt>
      <trkpt lat="46.17022" lon="-1.16846">
        <ele>62.147611</ele>
        <time>2022-12-19T17:16:43.378Z</time>
      </trkpt>
      <trkpt lat="46.17018" lon="-1.16861">
        <ele>62.236962</ele>
        <time>2022-12-19T17:16:46.372Z</time>
      </trkpt>
      <trkpt lat="46.17012" lon="-1.16874">
        <ele>62.32475</ele>
        <time>2022-12-19T17:16:49.371Z</time>
      </trkpt>
      <trkpt lat="46.17007" lon="-1.16887">
        <ele>62.409014</ele>
        <time>2022-12-19T17:16:52.370Z</time>
      </trkpt>
      <trkpt lat="46.17002" lon="-1.169">
        <ele>62.495627</ele>
        <time>2022-12-19T17:16:55.367Z</time>
      </trkpt>
      <trkpt lat="46.16996" lon="-1.16913">
        <ele>62.577542</ele>
        <time>2022-12-19T17:16:58.373Z</time>
      </trkpt>
      <trkpt lat="46.16991" lon="-1.16926">
        <ele>62.663109</ele>
        <time>2022-12-19T17:17:01.370Z</time>
      </trkpt>
      <trkpt lat="46.16986" lon="-1.16937">
        <ele>62.736992</ele>
        <time>2022-12-19T17:17:04.381Z</time>
      </trkpt>
      <trkpt lat="46.16981" lon="-1.16951">
        <ele>62.824188</ele>
        <time>2022-12-19T17:17:08.376Z</time>
      </trkpt>
      <trkpt lat="46.16975" lon="-1.16965">
        <ele>62.920857</ele>
        <time>2022-12-19T17:17:12.382Z</time>
      </trkpt>
      <trkpt lat="46.1697" lon="-1.16979">
        <ele>63.008544</ele>
        <time>2022-12-19T17:17:16.377Z</time>
      </trkpt>
      <trkpt lat="46.16965" lon="-1.16993">
        <ele>63.189207</ele>
        <time>2022-12-19T17:17:20.379Z</time>
      </trkpt>
      <trkpt lat="46.1696" lon="-1.17009">
        <ele>63.437988</ele>
        <time>2022-12-19T17:17:24.377Z</time>
      </trkpt>
      <trkpt lat="46.16956" lon="-1.17021">
        <ele>63.628865</ele>
        <time>2022-12-19T17:17:27.370Z</time>
      </trkpt>
      <trkpt lat="46.16952" lon="-1.17034">
        <ele>63.824906</ele>
        <time>2022-12-19T17:17:30.372Z</time>
      </trkpt>
      <trkpt lat="46.16948" lon="-1.17046">
        <ele>64.025281</ele>
        <time>2022-12-19T17:17:33.370Z</time>
      </trkpt>
      <trkpt lat="46.16944" lon="-1.17059">
        <ele>64.232079</ele>
        <time>2022-12-19T17:17:36.375Z</time>
      </trkpt>
      <trkpt lat="46.16939" lon="-1.17073">
        <ele>64.438446</ele>
        <time>2022-12-19T17:17:39.372Z</time>
      </trkpt>
      <trkpt lat="46.16935" lon="-1.17086">
        <ele>64.650172</ele>
        <time>2022-12-19T17:17:42.375Z</time>
      </trkpt>
      <trkpt lat="46.1693" lon="-1.17101">
        <ele>64.888933</ele>
        <time>2022-12-19T17:17:46.369Z</time>
      </trkpt>
      <trkpt lat="46.16927" lon="-1.17114">
        <ele>65.086569</ele>
        <time>2022-12-19T17:17:49.372Z</time>
      </trkpt>
      <trkpt lat="46.16922" lon="-1.17127">
        <ele>65.297685</ele>
        <time>2022-12-19T17:17:52.368Z</time>
      </trkpt>
      <trkpt lat="46.16918" lon="-1.17141">
        <ele>65.515326</ele>
        <time>2022-12-19T17:17:55.373Z</time>
      </trkpt>
      <trkpt lat="46.16914" lon="-1.17154">
        <ele>65.71825</ele>
        <time>2022-12-19T17:17:58.373Z</time>
      </trkpt>
      <trkpt lat="46.16911" lon="-1.17167">
        <ele>65.907017</ele>
        <time>2022-12-19T17:18:01.369Z</time>
      </trkpt>
      <trkpt lat="46.16909" lon="-1.1718">
        <ele>66.104456</ele>
        <time>2022-12-19T17:18:05.380Z</time>
      </trkpt>
      <trkpt lat="46.16907" lon="-1.17196">
        <ele>66.337432</ele>
        <time>2022-12-19T17:18:10.376Z</time>
      </trkpt>
      <trkpt lat="46.169" lon="-1.1721">
        <ele>66.570836</ele>
        <time>2022-12-19T17:18:14.372Z</time>
      </trkpt>
      <trkpt lat="46.16894" lon="-1.17219">
        <ele>66.73877</ele>
        <time>2022-12-19T17:18:17.369Z</time>
      </trkpt>
      <trkpt lat="46.16888" lon="-1.17231">
        <ele>66.725119</ele>
        <time>2022-12-19T17:18:20.375Z</time>
      </trkpt>
      <trkpt lat="46.16883" lon="-1.17245">
        <ele>66.711142</ele>
        <time>2022-12-19T17:18:23.377Z</time>
      </trkpt>
      <trkpt lat="46.16879" lon="-1.1726">
        <ele>66.69678</ele>
        <time>2022-12-19T17:18:26.382Z</time>
      </trkpt>
      <trkpt lat="46.16874" lon="-1.17275">
        <ele>66.682335</ele>
        <time>2022-12-19T17:18:29.368Z</time>
      </trkpt>
      <trkpt lat="46.1687" lon="-1.17288">
        <ele>66.669258</ele>
        <time>2022-12-19T17:18:32.372Z</time>
      </trkpt>
      <trkpt lat="46.16866" lon="-1.173">
        <ele>66.65752</ele>
        <time>2022-12-19T17:18:35.374Z</time>
      </trkpt>
      <trkpt lat="46.16863" lon="-1.17311">
        <ele>66.645836</ele>
        <time>2022-12-19T17:18:38.376Z</time>
      </trkpt>
      <trkpt lat="46.16859" lon="-1.17324">
        <ele>66.63377</ele>
        <time>2022-12-19T17:18:41.374Z</time>
      </trkpt>
      <trkpt lat="46.16855" lon="-1.17336">
        <ele>66.621676</ele>
        <time>2022-12-19T17:18:44.367Z</time>
      </trkpt>
      <trkpt lat="46.16851" lon="-1.17348">
        <ele>66.609362</ele>
        <time>2022-12-19T17:18:47.377Z</time>
      </trkpt>
      <trkpt lat="46.16846" lon="-1.17363">
        <ele>66.594728</ele>
        <time>2022-12-19T17:18:51.372Z</time>
      </trkpt>
      <trkpt lat="46.16842" lon="-1.17379">
        <ele>66.578816</ele>
        <time>2022-12-19T17:18:55.376Z</time>
      </trkpt>
      <trkpt lat="46.16837" lon="-1.17393">
        <ele>66.565467</ele>
        <time>2022-12-19T17:18:58.378Z</time>
      </trkpt>
      <trkpt lat="46.16833" lon="-1.17407">
        <ele>66.551626</ele>
        <time>2022-12-19T17:19:01.382Z</time>
      </trkpt>
      <trkpt lat="46.16829" lon="-1.17422">
        <ele>66.536649</ele>
        <time>2022-12-19T17:19:04.378Z</time>
      </trkpt>
      <trkpt lat="46.16824" lon="-1.17436">
        <ele>66.522234</ele>
        <time>2022-12-19T17:19:07.381Z</time>
      </trkpt>
      <trkpt lat="46.1682" lon="-1.17449">
        <ele>66.509688</ele>
        <time>2022-12-19T17:19:10.397Z</time>
      </trkpt>
      <trkpt lat="46.16816" lon="-1.17464">
        <ele>66.579884</ele>
        <time>2022-12-19T17:19:14.370Z</time>
      </trkpt>
      <trkpt lat="46.16812" lon="-1.17477">
        <ele>66.671775</ele>
        <time>2022-12-19T17:19:17.377Z</time>
      </trkpt>
      <trkpt lat="46.16808" lon="-1.1749">
        <ele>66.765039</ele>
        <time>2022-12-19T17:19:20.372Z</time>
      </trkpt>
      <trkpt lat="46.16803" lon="-1.17503">
        <ele>66.862446</ele>
        <time>2022-12-19T17:19:23.381Z</time>
      </trkpt>
      <trkpt lat="46.16799" lon="-1.17518">
        <ele>66.965156</ele>
        <time>2022-12-19T17:19:26.374Z</time>
      </trkpt>
      <trkpt lat="46.16795" lon="-1.17531">
        <ele>67.059805</ele>
        <time>2022-12-19T17:19:29.374Z</time>
      </trkpt>
      <trkpt lat="46.16791" lon="-1.17543">
        <ele>67.145001</ele>
        <time>2022-12-19T17:19:32.370Z</time>
      </trkpt>
      <trkpt lat="46.16786" lon="-1.17558">
        <ele>67.251448</ele>
        <time>2022-12-19T17:19:36.374Z</time>
      </trkpt>
      <trkpt lat="46.16782" lon="-1.17572">
        <ele>67.354549</ele>
        <time>2022-12-19T17:19:40.374Z</time>
      </trkpt>
      <trkpt lat="46.16778" lon="-1.17585">
        <ele>67.442307</ele>
        <time>2022-12-19T17:19:43.374Z</time>
      </trkpt>
      <trkpt lat="46.16774" lon="-1.17596">
        <ele>67.527901</ele>
        <time>2022-12-19T17:19:46.373Z</time>
      </trkpt>
      <trkpt lat="46.16771" lon="-1.17609">
        <ele>67.613911</ele>
        <time>2022-12-19T17:19:51.374Z</time>
      </trkpt>
      <trkpt lat="46.16767" lon="-1.17623">
        <ele>67.709256</ele>
        <time>2022-12-19T17:19:55.374Z</time>
      </trkpt>
      <trkpt lat="46.16763" lon="-1.17636">
        <ele>67.805274</ele>
        <time>2022-12-19T17:19:58.376Z</time>
      </trkpt>
      <trkpt lat="46.16758" lon="-1.1765">
        <ele>67.906426</ele>
        <time>2022-12-19T17:20:01.370Z</time>
      </trkpt>
      <trkpt lat="46.16754" lon="-1.17663">
        <ele>68.001669</ele>
        <time>2022-12-19T17:20:04.370Z</time>
      </trkpt>
      <trkpt lat="46.1675" lon="-1.17675">
        <ele>68.08826</ele>
        <time>2022-12-19T17:20:07.374Z</time>
      </trkpt>
      <trkpt lat="46.16745" lon="-1.1769">
        <ele>68.194225</ele>
        <time>2022-12-19T17:20:11.376Z</time>
      </trkpt>
      <trkpt lat="46.16741" lon="-1.17703">
        <ele>68.194225</ele>
        <time>2022-12-19T17:20:14.370Z</time>
      </trkpt>
      <trkpt lat="46.16737" lon="-1.17715">
        <ele>68.194225</ele>
        <time>2022-12-19T17:20:17.383Z</time>
      </trkpt>
      <trkpt lat="46.16732" lon="-1.1773">
        <ele>68.194225</ele>
        <time>2022-12-19T17:20:21.382Z</time>
      </trkpt>
      <trkpt lat="46.16727" lon="-1.17744">
        <ele>68.194225</ele>
        <time>2022-12-19T17:20:25.372Z</time>
      </trkpt>
      <trkpt lat="46.16725" lon="-1.17759">
        <ele>68.194225</ele>
        <time>2022-12-19T17:20:29.367Z</time>
      </trkpt>
      <trkpt lat="46.16727" lon="-1.17776">
        <ele>68.194225</ele>
        <time>2022-12-19T17:20:33.370Z</time>
      </trkpt>
      <trkpt lat="46.16729" lon="-1.1779">
        <ele>68.194225</ele>
        <time>2022-12-19T17:20:36.375Z</time>
      </trkpt>
      <trkpt lat="46.16731" lon="-1.17803">
        <ele>68.194225</ele>
        <time>2022-12-19T17:20:39.366Z</time>
      </trkpt>
      <trkpt lat="46.16732" lon="-1.17818">
        <ele>68.194225</ele>
        <time>2022-12-19T17:20:42.372Z</time>
      </trkpt>
      <trkpt lat="46.16732" lon="-1.17832">
        <ele>68.194225</ele>
        <time>2022-12-19T17:20:45.376Z</time>
      </trkpt>
      <trkpt lat="46.16732" lon="-1.17846">
        <ele>68.194225</ele>
        <time>2022-12-19T17:20:48.376Z</time>
      </trkpt>
      <trkpt lat="46.16735" lon="-1.1786">
        <ele>68.194225</ele>
        <time>2022-12-19T17:20:52.377Z</time>
      </trkpt>
      <trkpt lat="46.16732" lon="-1.17872">
        <ele>68.194225</ele>
        <time>2022-12-19T17:20:56.373Z</time>
      </trkpt>
      <trkpt lat="46.1672" lon="-1.17874">
        <ele>68.194225</ele>
        <time>2022-12-19T17:21:00.373Z</time>
      </trkpt>
      <trkpt lat="46.16709" lon="-1.17873">
        <ele>68.194225</ele>
        <time>2022-12-19T17:21:04.376Z</time>
      </trkpt>
      <trkpt lat="46.16699" lon="-1.1787">
        <ele>68.194225</ele>
        <time>2022-12-19T17:21:08.372Z</time>
      </trkpt>
      <trkpt lat="46.16689" lon="-1.17869">
        <ele>68.194225</ele>
        <time>2022-12-19T17:21:12.374Z</time>
      </trkpt>
      <trkpt lat="46.16681" lon="-1.17866">
        <ele>68.194225</ele>
        <time>2022-12-19T17:22:52.355Z</time>
        <extensions>
          <visugpx:TrkExtension xmlns:visugpx="https://www.visugpx.com/editgpx/">
            <visugpx:node>1</visugpx:node>
            </visugpx:TrkExtension>
        </extensions>
      </trkpt>
    </trkseg>
  </trk>
</gpx>